<?xml version="1.0" encoding="UTF-8"?>
<gpx creator="Garmin Connect" version="1.1"
  xsi:schemaLocation="http://www.topografix.com/GPX/1/1 http://www.topografix.com/GPX/11.xsd"
  xmlns:ns3="http://www.garmin.com/xmlschemas/TrackPointExtension/v1"
  xmlns="http://www.topografix.com/GPX/1/1"
  xmlns:xsi="http://www.w3.org/2001/XMLSchema-instance" xmlns:ns2="http://www.garmin.com/xmlschemas/GpxExtensions/v3">
  <metadata>
    <link href="connect.garmin.com">
      <text>Garmin Connect</text>
    </link>
    <time>2026-08-15T12:39:24.000Z</time>
  </metadata>
  <trk>
    <name>Ouray County Hiking</name>
    <type>hiking</type>
    <trkseg>
      <trkpt lat="37.974993176758289337158203125" lon="-107.74214182980358600616455078125">
        <ele>3188.800048828125</ele>
        <time>2026-08-15T12:39:33.000Z</time>
        <extensions>
          <ns3:TrackPointExtension>
            <ns3:hr>80</ns3:hr>
            <ns3:cad>0</ns3:cad>
          </ns3:TrackPointExtension>
        </extensions>
      </trkpt>
      <trkpt lat="37.97497230581939220428466796875" lon="-107.742096148431301116943359375">
        <ele>3188.60009765625</ele>
        <time>2026-08-15T12:39:37.000Z</time>
        <extensions>
          <ns3:TrackPointExtension>
            <ns3:hr>78</ns3:hr>
            <ns3:cad>0</ns3:cad>
          </ns3:TrackPointExtension>
        </extensions>
      </trkpt>
      <trkpt lat="37.9749601520597934722900390625" lon="-107.742062620818614959716796875">
        <ele>3187.800048828125</ele>
        <time>2026-08-15T12:39:43.000Z</time>
        <extensions>
          <ns3:TrackPointExtension>
            <ns3:hr>79</ns3:hr>
            <ns3:cad>55</ns3:cad>
          </ns3:TrackPointExtension>
        </extensions>
      </trkpt>
      <trkpt lat="37.97495587728917598724365234375" lon="-107.74205180816352367401123046875">
        <ele>3187.800048828125</ele>
        <time>2026-08-15T12:39:44.000Z</time>
        <extensions>
          <ns3:TrackPointExtension>
            <ns3:hr>77</ns3:hr>
            <ns3:cad>55</ns3:cad>
          </ns3:TrackPointExtension>
        </extensions>
      </trkpt>
      <trkpt lat="37.9749376885592937469482421875" lon="-107.74198986589908599853515625">
        <ele>3186.800048828125</ele>
        <time>2026-08-15T12:39:49.000Z</time>
        <extensions>
          <ns3:TrackPointExtension>
            <ns3:hr>75</ns3:hr>
            <ns3:cad>54</ns3:cad>
          </ns3:TrackPointExtension>
        </extensions>
      </trkpt>
      <trkpt lat="37.9749303124845027923583984375" lon="-107.74197653867304325103759765625">
        <ele>3186.39990234375</ele>
        <time>2026-08-15T12:39:51.000Z</time>
        <extensions>
          <ns3:TrackPointExtension>
            <ns3:hr>73</ns3:hr>
            <ns3:cad>54</ns3:cad>
          </ns3:TrackPointExtension>
        </extensions>
      </trkpt>
      <trkpt lat="37.974933497607707977294921875" lon="-107.7419779635965824127197265625">
        <ele>3186.199951171875</ele>
        <time>2026-08-15T12:39:53.000Z</time>
        <extensions>
          <ns3:TrackPointExtension>
            <ns3:hr>70</ns3:hr>
            <ns3:cad>0</ns3:cad>
          </ns3:TrackPointExtension>
        </extensions>
      </trkpt>
      <trkpt lat="37.97492955811321735382080078125" lon="-107.74194837547838687896728515625">
        <ele>3186.199951171875</ele>
        <time>2026-08-15T12:39:56.000Z</time>
        <extensions>
          <ns3:TrackPointExtension>
            <ns3:hr>71</ns3:hr>
            <ns3:cad>60</ns3:cad>
          </ns3:TrackPointExtension>
        </extensions>
      </trkpt>
      <trkpt lat="37.97491648234426975250244140625" lon="-107.7419073879718780517578125">
        <ele>3186</ele>
        <time>2026-08-15T12:39:59.000Z</time>
        <extensions>
          <ns3:TrackPointExtension>
            <ns3:hr>75</ns3:hr>
            <ns3:cad>57</ns3:cad>
          </ns3:TrackPointExtension>
        </extensions>
      </trkpt>
      <trkpt lat="37.9749028198421001434326171875" lon="-107.74188316427171230316162109375">
        <ele>3185.60009765625</ele>
        <time>2026-08-15T12:40:01.000Z</time>
        <extensions>
          <ns3:TrackPointExtension>
            <ns3:hr>77</ns3:hr>
            <ns3:cad>57</ns3:cad>
          </ns3:TrackPointExtension>
        </extensions>
      </trkpt>
      <trkpt lat="37.97489703632891178131103515625" lon="-107.74187310598790645599365234375">
        <ele>3185.39990234375</ele>
        <time>2026-08-15T12:40:02.000Z</time>
        <extensions>
          <ns3:TrackPointExtension>
            <ns3:hr>78</ns3:hr>
            <ns3:cad>60</ns3:cad>
          </ns3:TrackPointExtension>
        </extensions>
      </trkpt>
      <trkpt lat="37.97489921562373638153076171875" lon="-107.74185131303966045379638671875">
        <ele>3185.199951171875</ele>
        <time>2026-08-15T12:40:03.000Z</time>
        <extensions>
          <ns3:TrackPointExtension>
            <ns3:hr>78</ns3:hr>
            <ns3:cad>60</ns3:cad>
          </ns3:TrackPointExtension>
        </extensions>
      </trkpt>
      <trkpt lat="37.9748726449906826019287109375" lon="-107.74180688895285129547119140625">
        <ele>3184.39990234375</ele>
        <time>2026-08-15T12:40:06.000Z</time>
        <extensions>
          <ns3:TrackPointExtension>
            <ns3:hr>79</ns3:hr>
            <ns3:cad>62</ns3:cad>
          </ns3:TrackPointExtension>
        </extensions>
      </trkpt>
      <trkpt lat="37.9748555459082126617431640625" lon="-107.74177319370210170745849609375">
        <ele>3183.60009765625</ele>
        <time>2026-08-15T12:40:09.000Z</time>
        <extensions>
          <ns3:TrackPointExtension>
            <ns3:hr>76</ns3:hr>
            <ns3:cad>61</ns3:cad>
          </ns3:TrackPointExtension>
        </extensions>
      </trkpt>
      <trkpt lat="37.9748498462140560150146484375" lon="-107.741763889789581298828125">
        <ele>3183.199951171875</ele>
        <time>2026-08-15T12:40:10.000Z</time>
        <extensions>
          <ns3:TrackPointExtension>
            <ns3:hr>76</ns3:hr>
            <ns3:cad>60</ns3:cad>
          </ns3:TrackPointExtension>
        </extensions>
      </trkpt>
      <trkpt lat="37.97483501024544239044189453125" lon="-107.74172910489141941070556640625">
        <ele>3183</ele>
        <time>2026-08-15T12:40:12.000Z</time>
        <extensions>
          <ns3:TrackPointExtension>
            <ns3:hr>74</ns3:hr>
            <ns3:cad>60</ns3:cad>
          </ns3:TrackPointExtension>
        </extensions>
      </trkpt>
      <trkpt lat="37.97481992281973361968994140625" lon="-107.7416284382343292236328125">
        <ele>3182.39990234375</ele>
        <time>2026-08-15T12:40:18.000Z</time>
        <extensions>
          <ns3:TrackPointExtension>
            <ns3:hr>73</ns3:hr>
            <ns3:cad>57</ns3:cad>
          </ns3:TrackPointExtension>
        </extensions>
      </trkpt>
      <trkpt lat="37.97481254674494266510009765625" lon="-107.7416128478944301605224609375">
        <ele>3182.199951171875</ele>
        <time>2026-08-15T12:40:19.000Z</time>
        <extensions>
          <ns3:TrackPointExtension>
            <ns3:hr>73</ns3:hr>
            <ns3:cad>57</ns3:cad>
          </ns3:TrackPointExtension>
        </extensions>
      </trkpt>
      <trkpt lat="37.97480047680437564849853515625" lon="-107.7415452897548675537109375">
        <ele>3181.39990234375</ele>
        <time>2026-08-15T12:40:24.000Z</time>
        <extensions>
          <ns3:TrackPointExtension>
            <ns3:hr>74</ns3:hr>
            <ns3:cad>59</ns3:cad>
          </ns3:TrackPointExtension>
        </extensions>
      </trkpt>
      <trkpt lat="37.974792011082172393798828125" lon="-107.74151788093149662017822265625">
        <ele>3181.199951171875</ele>
        <time>2026-08-15T12:40:26.000Z</time>
        <extensions>
          <ns3:TrackPointExtension>
            <ns3:hr>75</ns3:hr>
            <ns3:cad>59</ns3:cad>
          </ns3:TrackPointExtension>
        </extensions>
      </trkpt>
      <trkpt lat="37.97477751038968563079833984375" lon="-107.74148200638592243194580078125">
        <ele>3180.60009765625</ele>
        <time>2026-08-15T12:40:29.000Z</time>
        <extensions>
          <ns3:TrackPointExtension>
            <ns3:hr>72</ns3:hr>
            <ns3:cad>59</ns3:cad>
          </ns3:TrackPointExtension>
        </extensions>
      </trkpt>
      <trkpt lat="37.9747700504958629608154296875" lon="-107.74147010408341884613037109375">
        <ele>3180.39990234375</ele>
        <time>2026-08-15T12:40:30.000Z</time>
        <extensions>
          <ns3:TrackPointExtension>
            <ns3:hr>69</ns3:hr>
            <ns3:cad>59</ns3:cad>
          </ns3:TrackPointExtension>
        </extensions>
      </trkpt>
      <trkpt lat="37.97476527281105518341064453125" lon="-107.741455771028995513916015625">
        <ele>3180.199951171875</ele>
        <time>2026-08-15T12:40:31.000Z</time>
        <extensions>
          <ns3:TrackPointExtension>
            <ns3:hr>69</ns3:hr>
            <ns3:cad>60</ns3:cad>
          </ns3:TrackPointExtension>
        </extensions>
      </trkpt>
      <trkpt lat="37.9747541248798370361328125" lon="-107.74142936803400516510009765625">
        <ele>3179.800048828125</ele>
        <time>2026-08-15T12:40:33.000Z</time>
        <extensions>
          <ns3:TrackPointExtension>
            <ns3:hr>68</ns3:hr>
            <ns3:cad>60</ns3:cad>
          </ns3:TrackPointExtension>
        </extensions>
      </trkpt>
      <trkpt lat="37.9747415520250797271728515625" lon="-107.7413704432547092437744140625">
        <ele>3179</ele>
        <time>2026-08-15T12:40:37.000Z</time>
        <extensions>
          <ns3:TrackPointExtension>
            <ns3:hr>68</ns3:hr>
            <ns3:cad>59</ns3:cad>
          </ns3:TrackPointExtension>
        </extensions>
      </trkpt>
      <trkpt lat="37.9747355170547962188720703125" lon="-107.74131235666573047637939453125">
        <ele>3177.800048828125</ele>
        <time>2026-08-15T12:40:41.000Z</time>
        <extensions>
          <ns3:TrackPointExtension>
            <ns3:hr>68</ns3:hr>
            <ns3:cad>59</ns3:cad>
          </ns3:TrackPointExtension>
        </extensions>
      </trkpt>
      <trkpt lat="37.974720932543277740478515625" lon="-107.74122836999595165252685546875">
        <ele>3176.800048828125</ele>
        <time>2026-08-15T12:40:46.000Z</time>
        <extensions>
          <ns3:TrackPointExtension>
            <ns3:hr>69</ns3:hr>
            <ns3:cad>58</ns3:cad>
          </ns3:TrackPointExtension>
        </extensions>
      </trkpt>
      <trkpt lat="37.974734343588352203369140625" lon="-107.74116734974086284637451171875">
        <ele>3176.39990234375</ele>
        <time>2026-08-15T12:40:49.000Z</time>
        <extensions>
          <ns3:TrackPointExtension>
            <ns3:hr>72</ns3:hr>
            <ns3:cad>59</ns3:cad>
          </ns3:TrackPointExtension>
        </extensions>
      </trkpt>
      <trkpt lat="37.97476024366915225982666015625" lon="-107.74112083017826080322265625">
        <ele>3176.39990234375</ele>
        <time>2026-08-15T12:40:52.000Z</time>
        <extensions>
          <ns3:TrackPointExtension>
            <ns3:hr>72</ns3:hr>
            <ns3:cad>57</ns3:cad>
          </ns3:TrackPointExtension>
        </extensions>
      </trkpt>
      <trkpt lat="37.97479175962507724761962890625" lon="-107.74105670861899852752685546875">
        <ele>3177</ele>
        <time>2026-08-15T12:40:58.000Z</time>
        <extensions>
          <ns3:TrackPointExtension>
            <ns3:hr>70</ns3:hr>
            <ns3:cad>56</ns3:cad>
          </ns3:TrackPointExtension>
        </extensions>
      </trkpt>
      <trkpt lat="37.97481657005846500396728515625" lon="-107.7410160563886165618896484375">
        <ele>3177.800048828125</ele>
        <time>2026-08-15T12:41:02.000Z</time>
        <extensions>
          <ns3:TrackPointExtension>
            <ns3:hr>69</ns3:hr>
            <ns3:cad>53</ns3:cad>
          </ns3:TrackPointExtension>
        </extensions>
      </trkpt>
      <trkpt lat="37.97481975518167018890380859375" lon="-107.74099971167743206024169921875">
        <ele>3178.39990234375</ele>
        <time>2026-08-15T12:41:04.000Z</time>
        <extensions>
          <ns3:TrackPointExtension>
            <ns3:hr>67</ns3:hr>
            <ns3:cad>53</ns3:cad>
          </ns3:TrackPointExtension>
        </extensions>
      </trkpt>
      <trkpt lat="37.9748367704451084136962890625" lon="-107.740968279540538787841796875">
        <ele>3178.800048828125</ele>
        <time>2026-08-15T12:41:07.000Z</time>
        <extensions>
          <ns3:TrackPointExtension>
            <ns3:hr>67</ns3:hr>
            <ns3:cad>0</ns3:cad>
          </ns3:TrackPointExtension>
        </extensions>
      </trkpt>
      <trkpt lat="37.974838949739933013916015625" lon="-107.74095780216157436370849609375">
        <ele>3179</ele>
        <time>2026-08-15T12:41:08.000Z</time>
        <extensions>
          <ns3:TrackPointExtension>
            <ns3:hr>67</ns3:hr>
            <ns3:cad>0</ns3:cad>
          </ns3:TrackPointExtension>
        </extensions>
      </trkpt>
      <trkpt lat="37.974837608635425567626953125" lon="-107.74095059372484683990478515625">
        <ele>3179.199951171875</ele>
        <time>2026-08-15T12:41:09.000Z</time>
        <extensions>
          <ns3:TrackPointExtension>
            <ns3:hr>67</ns3:hr>
            <ns3:cad>0</ns3:cad>
          </ns3:TrackPointExtension>
        </extensions>
      </trkpt>
      <trkpt lat="37.97484406270086765289306640625" lon="-107.74094020016491413116455078125">
        <ele>3179.60009765625</ele>
        <time>2026-08-15T12:41:11.000Z</time>
        <extensions>
          <ns3:TrackPointExtension>
            <ns3:hr>69</ns3:hr>
            <ns3:cad>0</ns3:cad>
          </ns3:TrackPointExtension>
        </extensions>
      </trkpt>
      <trkpt lat="37.97484624199569225311279296875" lon="-107.7409308962523937225341796875">
        <ele>3179.800048828125</ele>
        <time>2026-08-15T12:41:13.000Z</time>
        <extensions>
          <ns3:TrackPointExtension>
            <ns3:hr>72</ns3:hr>
            <ns3:cad>0</ns3:cad>
          </ns3:TrackPointExtension>
        </extensions>
      </trkpt>
      <trkpt lat="37.97484473325312137603759765625" lon="-107.74093299172818660736083984375">
        <ele>3180</ele>
        <time>2026-08-15T12:41:14.000Z</time>
        <extensions>
          <ns3:TrackPointExtension>
            <ns3:hr>73</ns3:hr>
            <ns3:cad>0</ns3:cad>
          </ns3:TrackPointExtension>
        </extensions>
      </trkpt>
      <trkpt lat="37.97484473325312137603759765625" lon="-107.74093299172818660736083984375">
        <ele>3179.800048828125</ele>
        <time>2026-08-15T12:41:20.000Z</time>
        <extensions>
          <ns3:TrackPointExtension>
            <ns3:hr>75</ns3:hr>
            <ns3:cad>0</ns3:cad>
          </ns3:TrackPointExtension>
        </extensions>
      </trkpt>
      <trkpt lat="37.97487038187682628631591796875" lon="-107.7409168146550655364990234375">
        <ele>3179.800048828125</ele>
        <time>2026-08-15T12:41:23.000Z</time>
        <extensions>
          <ns3:TrackPointExtension>
            <ns3:hr>74</ns3:hr>
            <ns3:cad>0</ns3:cad>
          </ns3:TrackPointExtension>
        </extensions>
      </trkpt>
      <trkpt lat="37.97490768134593963623046875" lon="-107.74086333811283111572265625">
        <ele>3180.39990234375</ele>
        <time>2026-08-15T12:41:29.000Z</time>
        <extensions>
          <ns3:TrackPointExtension>
            <ns3:hr>75</ns3:hr>
            <ns3:cad>0</ns3:cad>
          </ns3:TrackPointExtension>
        </extensions>
      </trkpt>
      <trkpt lat="37.974923439323902130126953125" lon="-107.740840204060077667236328125">
        <ele>3180.800048828125</ele>
        <time>2026-08-15T12:41:32.000Z</time>
        <extensions>
          <ns3:TrackPointExtension>
            <ns3:hr>78</ns3:hr>
            <ns3:cad>0</ns3:cad>
          </ns3:TrackPointExtension>
        </extensions>
      </trkpt>
      <trkpt lat="37.974930815398693084716796875" lon="-107.7408252842724323272705078125">
        <ele>3181</ele>
        <time>2026-08-15T12:41:34.000Z</time>
        <extensions>
          <ns3:TrackPointExtension>
            <ns3:hr>79</ns3:hr>
            <ns3:cad>0</ns3:cad>
          </ns3:TrackPointExtension>
        </extensions>
      </trkpt>
      <trkpt lat="37.974936850368976593017578125" lon="-107.74081044830381870269775390625">
        <ele>3181</ele>
        <time>2026-08-15T12:41:40.000Z</time>
        <extensions>
          <ns3:TrackPointExtension>
            <ns3:hr>80</ns3:hr>
            <ns3:cad>0</ns3:cad>
          </ns3:TrackPointExtension>
        </extensions>
      </trkpt>
      <trkpt lat="37.974936850368976593017578125" lon="-107.74081044830381870269775390625">
        <ele>3180.800048828125</ele>
        <time>2026-08-15T12:41:41.000Z</time>
        <extensions>
          <ns3:TrackPointExtension>
            <ns3:hr>81</ns3:hr>
            <ns3:cad>0</ns3:cad>
          </ns3:TrackPointExtension>
        </extensions>
      </trkpt>
      <trkpt lat="37.974936850368976593017578125" lon="-107.74081044830381870269775390625">
        <ele>3180.60009765625</ele>
        <time>2026-08-15T12:41:44.000Z</time>
        <extensions>
          <ns3:TrackPointExtension>
            <ns3:hr>85</ns3:hr>
            <ns3:cad>0</ns3:cad>
          </ns3:TrackPointExtension>
        </extensions>
      </trkpt>
      <trkpt lat="37.974936850368976593017578125" lon="-107.74081044830381870269775390625">
        <ele>3180.60009765625</ele>
        <time>2026-08-15T12:41:45.000Z</time>
        <extensions>
          <ns3:TrackPointExtension>
            <ns3:hr>88</ns3:hr>
            <ns3:cad>0</ns3:cad>
          </ns3:TrackPointExtension>
        </extensions>
      </trkpt>
      <trkpt lat="37.974936850368976593017578125" lon="-107.74081044830381870269775390625">
        <ele>3180.60009765625</ele>
        <time>2026-08-15T12:41:46.000Z</time>
        <extensions>
          <ns3:TrackPointExtension>
            <ns3:hr>88</ns3:hr>
            <ns3:cad>0</ns3:cad>
          </ns3:TrackPointExtension>
        </extensions>
      </trkpt>
      <trkpt lat="37.974936850368976593017578125" lon="-107.74081044830381870269775390625">
        <ele>3180.60009765625</ele>
        <time>2026-08-15T12:41:52.000Z</time>
        <extensions>
          <ns3:TrackPointExtension>
            <ns3:hr>87</ns3:hr>
            <ns3:cad>0</ns3:cad>
          </ns3:TrackPointExtension>
        </extensions>
      </trkpt>
      <trkpt lat="37.974936850368976593017578125" lon="-107.74081044830381870269775390625">
        <ele>3180.800048828125</ele>
        <time>2026-08-15T12:41:54.000Z</time>
        <extensions>
          <ns3:TrackPointExtension>
            <ns3:hr>84</ns3:hr>
            <ns3:cad>0</ns3:cad>
          </ns3:TrackPointExtension>
        </extensions>
      </trkpt>
      <trkpt lat="37.9749405384063720703125" lon="-107.74076334200799465179443359375">
        <ele>3181</ele>
        <time>2026-08-15T12:41:59.000Z</time>
        <extensions>
          <ns3:TrackPointExtension>
            <ns3:hr>83</ns3:hr>
            <ns3:cad>0</ns3:cad>
          </ns3:TrackPointExtension>
        </extensions>
      </trkpt>
      <trkpt lat="37.97495596110820770263671875" lon="-107.74073115549981594085693359375">
        <ele>3181.199951171875</ele>
        <time>2026-08-15T12:42:05.000Z</time>
        <extensions>
          <ns3:TrackPointExtension>
            <ns3:hr>82</ns3:hr>
            <ns3:cad>0</ns3:cad>
          </ns3:TrackPointExtension>
        </extensions>
      </trkpt>
      <trkpt lat="37.97495587728917598724365234375" lon="-107.74073132313787937164306640625">
        <ele>3181.199951171875</ele>
        <time>2026-08-15T12:42:09.000Z</time>
        <extensions>
          <ns3:TrackPointExtension>
            <ns3:hr>85</ns3:hr>
            <ns3:cad>0</ns3:cad>
          </ns3:TrackPointExtension>
        </extensions>
      </trkpt>
      <trkpt lat="37.97495587728917598724365234375" lon="-107.74073132313787937164306640625">
        <ele>3181</ele>
        <time>2026-08-15T12:42:13.000Z</time>
        <extensions>
          <ns3:TrackPointExtension>
            <ns3:hr>84</ns3:hr>
            <ns3:cad>0</ns3:cad>
          </ns3:TrackPointExtension>
        </extensions>
      </trkpt>
      <trkpt lat="37.97495369799435138702392578125" lon="-107.74072520434856414794921875">
        <ele>3181.199951171875</ele>
        <time>2026-08-15T12:42:19.000Z</time>
        <extensions>
          <ns3:TrackPointExtension>
            <ns3:hr>85</ns3:hr>
            <ns3:cad>0</ns3:cad>
          </ns3:TrackPointExtension>
        </extensions>
      </trkpt>
      <trkpt lat="37.974962331354618072509765625" lon="-107.74068019352853298187255859375">
        <ele>3181.60009765625</ele>
        <time>2026-08-15T12:42:22.000Z</time>
        <extensions>
          <ns3:TrackPointExtension>
            <ns3:hr>84</ns3:hr>
            <ns3:cad>0</ns3:cad>
          </ns3:TrackPointExtension>
        </extensions>
      </trkpt>
      <trkpt lat="37.9749722220003604888916015625" lon="-107.7406552992761135101318359375">
        <ele>3182</ele>
        <time>2026-08-15T12:42:25.000Z</time>
        <extensions>
          <ns3:TrackPointExtension>
            <ns3:hr>85</ns3:hr>
            <ns3:cad>0</ns3:cad>
          </ns3:TrackPointExtension>
        </extensions>
      </trkpt>
      <trkpt lat="37.97500289976596832275390625" lon="-107.7406227774918079376220703125">
        <ele>3182.60009765625</ele>
        <time>2026-08-15T12:42:28.000Z</time>
        <extensions>
          <ns3:TrackPointExtension>
            <ns3:hr>84</ns3:hr>
            <ns3:cad>52</ns3:cad>
          </ns3:TrackPointExtension>
        </extensions>
      </trkpt>
      <trkpt lat="37.9750406183302402496337890625" lon="-107.74060039781033992767333984375">
        <ele>3183.199951171875</ele>
        <time>2026-08-15T12:42:32.000Z</time>
        <extensions>
          <ns3:TrackPointExtension>
            <ns3:hr>85</ns3:hr>
            <ns3:cad>51</ns3:cad>
          </ns3:TrackPointExtension>
        </extensions>
      </trkpt>
      <trkpt lat="37.97505193389952182769775390625" lon="-107.740594111382961273193359375">
        <ele>3183.199951171875</ele>
        <time>2026-08-15T12:42:33.000Z</time>
        <extensions>
          <ns3:TrackPointExtension>
            <ns3:hr>85</ns3:hr>
            <ns3:cad>51</ns3:cad>
          </ns3:TrackPointExtension>
        </extensions>
      </trkpt>
      <trkpt lat="37.97508177347481250762939453125" lon="-107.7405761741101741790771484375">
        <ele>3183</ele>
        <time>2026-08-15T12:42:36.000Z</time>
        <extensions>
          <ns3:TrackPointExtension>
            <ns3:hr>85</ns3:hr>
            <ns3:cad>50</ns3:cad>
          </ns3:TrackPointExtension>
        </extensions>
      </trkpt>
      <trkpt lat="37.97509032301604747772216796875" lon="-107.74056066758930683135986328125">
        <ele>3182.800048828125</ele>
        <time>2026-08-15T12:42:37.000Z</time>
        <extensions>
          <ns3:TrackPointExtension>
            <ns3:hr>84</ns3:hr>
            <ns3:cad>54</ns3:cad>
          </ns3:TrackPointExtension>
        </extensions>
      </trkpt>
      <trkpt lat="37.975101470947265625" lon="-107.74049093015491962432861328125">
        <ele>3183</ele>
        <time>2026-08-15T12:42:42.000Z</time>
        <extensions>
          <ns3:TrackPointExtension>
            <ns3:hr>83</ns3:hr>
            <ns3:cad>0</ns3:cad>
          </ns3:TrackPointExtension>
        </extensions>
      </trkpt>
      <trkpt lat="37.975101135671138763427734375" lon="-107.74046042002737522125244140625">
        <ele>3183.199951171875</ele>
        <time>2026-08-15T12:42:44.000Z</time>
        <extensions>
          <ns3:TrackPointExtension>
            <ns3:hr>86</ns3:hr>
            <ns3:cad>0</ns3:cad>
          </ns3:TrackPointExtension>
        </extensions>
      </trkpt>
      <trkpt lat="37.975101806223392486572265625" lon="-107.74042957462370395660400390625">
        <ele>3183.39990234375</ele>
        <time>2026-08-15T12:42:46.000Z</time>
        <extensions>
          <ns3:TrackPointExtension>
            <ns3:hr>89</ns3:hr>
            <ns3:cad>49</ns3:cad>
          </ns3:TrackPointExtension>
        </extensions>
      </trkpt>
      <trkpt lat="37.97510306350886821746826171875" lon="-107.7404135651886463165283203125">
        <ele>3183.39990234375</ele>
        <time>2026-08-15T12:42:47.000Z</time>
        <extensions>
          <ns3:TrackPointExtension>
            <ns3:hr>89</ns3:hr>
            <ns3:cad>53</ns3:cad>
          </ns3:TrackPointExtension>
        </extensions>
      </trkpt>
      <trkpt lat="37.975099794566631317138671875" lon="-107.74036838673055171966552734375">
        <ele>3183.60009765625</ele>
        <time>2026-08-15T12:42:53.000Z</time>
        <extensions>
          <ns3:TrackPointExtension>
            <ns3:hr>88</ns3:hr>
            <ns3:cad>0</ns3:cad>
          </ns3:TrackPointExtension>
        </extensions>
      </trkpt>
      <trkpt lat="37.97510021366178989410400390625" lon="-107.74037115275859832763671875">
        <ele>3183.60009765625</ele>
        <time>2026-08-15T12:42:55.000Z</time>
        <extensions>
          <ns3:TrackPointExtension>
            <ns3:hr>88</ns3:hr>
            <ns3:cad>0</ns3:cad>
          </ns3:TrackPointExtension>
        </extensions>
      </trkpt>
      <trkpt lat="37.975098788738250732421875" lon="-107.74039001204073429107666015625">
        <ele>3183.60009765625</ele>
        <time>2026-08-15T12:43:00.000Z</time>
        <extensions>
          <ns3:TrackPointExtension>
            <ns3:hr>86</ns3:hr>
            <ns3:cad>0</ns3:cad>
          </ns3:TrackPointExtension>
        </extensions>
      </trkpt>
      <trkpt lat="37.97511018812656402587890625" lon="-107.74036712944507598876953125">
        <ele>3183.39990234375</ele>
        <time>2026-08-15T12:43:04.000Z</time>
        <extensions>
          <ns3:TrackPointExtension>
            <ns3:hr>82</ns3:hr>
            <ns3:cad>0</ns3:cad>
          </ns3:TrackPointExtension>
        </extensions>
      </trkpt>
      <trkpt lat="37.97512535937130451202392578125" lon="-107.740345336496829986572265625">
        <ele>3183.60009765625</ele>
        <time>2026-08-15T12:43:06.000Z</time>
        <extensions>
          <ns3:TrackPointExtension>
            <ns3:hr>81</ns3:hr>
            <ns3:cad>0</ns3:cad>
          </ns3:TrackPointExtension>
        </extensions>
      </trkpt>
      <trkpt lat="37.9751510918140411376953125" lon="-107.74026411585509777069091796875">
        <ele>3184.199951171875</ele>
        <time>2026-08-15T12:43:12.000Z</time>
        <extensions>
          <ns3:TrackPointExtension>
            <ns3:hr>81</ns3:hr>
            <ns3:cad>0</ns3:cad>
          </ns3:TrackPointExtension>
        </extensions>
      </trkpt>
      <trkpt lat="37.97515938989818096160888671875" lon="-107.7402351982891559600830078125">
        <ele>3184.199951171875</ele>
        <time>2026-08-15T12:43:14.000Z</time>
        <extensions>
          <ns3:TrackPointExtension>
            <ns3:hr>80</ns3:hr>
            <ns3:cad>0</ns3:cad>
          </ns3:TrackPointExtension>
        </extensions>
      </trkpt>
      <trkpt lat="37.97517858445644378662109375" lon="-107.7401839010417461395263671875">
        <ele>3185</ele>
        <time>2026-08-15T12:43:18.000Z</time>
        <extensions>
          <ns3:TrackPointExtension>
            <ns3:hr>79</ns3:hr>
            <ns3:cad>0</ns3:cad>
          </ns3:TrackPointExtension>
        </extensions>
      </trkpt>
      <trkpt lat="37.97519191168248653411865234375" lon="-107.74014760740101337432861328125">
        <ele>3185.199951171875</ele>
        <time>2026-08-15T12:43:21.000Z</time>
        <extensions>
          <ns3:TrackPointExtension>
            <ns3:hr>79</ns3:hr>
            <ns3:cad>51</ns3:cad>
          </ns3:TrackPointExtension>
        </extensions>
      </trkpt>
      <trkpt lat="37.9752047359943389892578125" lon="-107.74012447334825992584228515625">
        <ele>3185.60009765625</ele>
        <time>2026-08-15T12:43:23.000Z</time>
        <extensions>
          <ns3:TrackPointExtension>
            <ns3:hr>79</ns3:hr>
            <ns3:cad>0</ns3:cad>
          </ns3:TrackPointExtension>
        </extensions>
      </trkpt>
      <trkpt lat="37.97521772794425487518310546875" lon="-107.74008574895560741424560546875">
        <ele>3186.39990234375</ele>
        <time>2026-08-15T12:43:27.000Z</time>
        <extensions>
          <ns3:TrackPointExtension>
            <ns3:hr>80</ns3:hr>
            <ns3:cad>0</ns3:cad>
          </ns3:TrackPointExtension>
        </extensions>
      </trkpt>
      <trkpt lat="37.975224517285823822021484375" lon="-107.74006269872188568115234375">
        <ele>3186.800048828125</ele>
        <time>2026-08-15T12:43:33.000Z</time>
        <extensions>
          <ns3:TrackPointExtension>
            <ns3:hr>82</ns3:hr>
            <ns3:cad>0</ns3:cad>
          </ns3:TrackPointExtension>
        </extensions>
      </trkpt>
      <trkpt lat="37.97523398883640766143798828125" lon="-107.74003344587981700897216796875">
        <ele>3187</ele>
        <time>2026-08-15T12:43:39.000Z</time>
        <extensions>
          <ns3:TrackPointExtension>
            <ns3:hr>84</ns3:hr>
            <ns3:cad>0</ns3:cad>
          </ns3:TrackPointExtension>
        </extensions>
      </trkpt>
      <trkpt lat="37.97524086199700832366943359375" lon="-107.7400065399706363677978515625">
        <ele>3187.39990234375</ele>
        <time>2026-08-15T12:43:41.000Z</time>
        <extensions>
          <ns3:TrackPointExtension>
            <ns3:hr>85</ns3:hr>
            <ns3:cad>0</ns3:cad>
          </ns3:TrackPointExtension>
        </extensions>
      </trkpt>
      <trkpt lat="37.9752391017973423004150390625" lon="-107.73999296128749847412109375">
        <ele>3187.60009765625</ele>
        <time>2026-08-15T12:43:42.000Z</time>
        <extensions>
          <ns3:TrackPointExtension>
            <ns3:hr>85</ns3:hr>
            <ns3:cad>0</ns3:cad>
          </ns3:TrackPointExtension>
        </extensions>
      </trkpt>
      <trkpt lat="37.97524706460535526275634765625" lon="-107.73997276090085506439208984375">
        <ele>3187.800048828125</ele>
        <time>2026-08-15T12:43:44.000Z</time>
        <extensions>
          <ns3:TrackPointExtension>
            <ns3:hr>86</ns3:hr>
            <ns3:cad>47</ns3:cad>
          </ns3:TrackPointExtension>
        </extensions>
      </trkpt>
      <trkpt lat="37.97526600770652294158935546875" lon="-107.7399502135813236236572265625">
        <ele>3187.800048828125</ele>
        <time>2026-08-15T12:43:48.000Z</time>
        <extensions>
          <ns3:TrackPointExtension>
            <ns3:hr>88</ns3:hr>
            <ns3:cad>42</ns3:cad>
          </ns3:TrackPointExtension>
        </extensions>
      </trkpt>
      <trkpt lat="37.97527740709483623504638671875" lon="-107.7399311028420925140380859375">
        <ele>3187.800048828125</ele>
        <time>2026-08-15T12:43:51.000Z</time>
        <extensions>
          <ns3:TrackPointExtension>
            <ns3:hr>92</ns3:hr>
            <ns3:cad>42</ns3:cad>
          </ns3:TrackPointExtension>
        </extensions>
      </trkpt>
      <trkpt lat="37.97527707181870937347412109375" lon="-107.73992263711988925933837890625">
        <ele>3188</ele>
        <time>2026-08-15T12:43:54.000Z</time>
        <extensions>
          <ns3:TrackPointExtension>
            <ns3:hr>94</ns3:hr>
            <ns3:cad>0</ns3:cad>
          </ns3:TrackPointExtension>
        </extensions>
      </trkpt>
      <trkpt lat="37.97527791000902652740478515625" lon="-107.739918865263462066650390625">
        <ele>3188</ele>
        <time>2026-08-15T12:43:56.000Z</time>
        <extensions>
          <ns3:TrackPointExtension>
            <ns3:hr>98</ns3:hr>
            <ns3:cad>0</ns3:cad>
          </ns3:TrackPointExtension>
        </extensions>
      </trkpt>
      <trkpt lat="37.975280843675136566162109375" lon="-107.73989648558199405670166015625">
        <ele>3188.199951171875</ele>
        <time>2026-08-15T12:44:01.000Z</time>
        <extensions>
          <ns3:TrackPointExtension>
            <ns3:hr>100</ns3:hr>
            <ns3:cad>0</ns3:cad>
          </ns3:TrackPointExtension>
        </extensions>
      </trkpt>
      <trkpt lat="37.97525561414659023284912109375" lon="-107.73986153304576873779296875">
        <ele>3187.800048828125</ele>
        <time>2026-08-15T12:44:05.000Z</time>
        <extensions>
          <ns3:TrackPointExtension>
            <ns3:hr>101</ns3:hr>
            <ns3:cad>0</ns3:cad>
          </ns3:TrackPointExtension>
        </extensions>
      </trkpt>
      <trkpt lat="37.9752270318567752838134765625" lon="-107.7398191206157207489013671875">
        <ele>3188.60009765625</ele>
        <time>2026-08-15T12:44:09.000Z</time>
        <extensions>
          <ns3:TrackPointExtension>
            <ns3:hr>103</ns3:hr>
            <ns3:cad>0</ns3:cad>
          </ns3:TrackPointExtension>
        </extensions>
      </trkpt>
      <trkpt lat="37.9752181470394134521484375" lon="-107.73980562575161457061767578125">
        <ele>3189</ele>
        <time>2026-08-15T12:44:10.000Z</time>
        <extensions>
          <ns3:TrackPointExtension>
            <ns3:hr>103</ns3:hr>
            <ns3:cad>0</ns3:cad>
          </ns3:TrackPointExtension>
        </extensions>
      </trkpt>
      <trkpt lat="37.9752055741846561431884765625" lon="-107.73976488970220088958740234375">
        <ele>3189.800048828125</ele>
        <time>2026-08-15T12:44:14.000Z</time>
        <extensions>
          <ns3:TrackPointExtension>
            <ns3:hr>104</ns3:hr>
            <ns3:cad>52</ns3:cad>
          </ns3:TrackPointExtension>
        </extensions>
      </trkpt>
      <trkpt lat="37.9752025566995143890380859375" lon="-107.73974812589585781097412109375">
        <ele>3190.199951171875</ele>
        <time>2026-08-15T12:44:16.000Z</time>
        <extensions>
          <ns3:TrackPointExtension>
            <ns3:hr>105</ns3:hr>
            <ns3:cad>52</ns3:cad>
          </ns3:TrackPointExtension>
        </extensions>
      </trkpt>
      <trkpt lat="37.97519593499600887298583984375" lon="-107.739715687930583953857421875">
        <ele>3190.800048828125</ele>
        <time>2026-08-15T12:44:19.000Z</time>
        <extensions>
          <ns3:TrackPointExtension>
            <ns3:hr>103</ns3:hr>
            <ns3:cad>48</ns3:cad>
          </ns3:TrackPointExtension>
        </extensions>
      </trkpt>
      <trkpt lat="37.975194342434406280517578125" lon="-107.7396954037249088287353515625">
        <ele>3191.199951171875</ele>
        <time>2026-08-15T12:44:21.000Z</time>
        <extensions>
          <ns3:TrackPointExtension>
            <ns3:hr>102</ns3:hr>
            <ns3:cad>48</ns3:cad>
          </ns3:TrackPointExtension>
        </extensions>
      </trkpt>
      <trkpt lat="37.9751821048557758331298828125" lon="-107.73964586667716503143310546875">
        <ele>3191.60009765625</ele>
        <time>2026-08-15T12:44:26.000Z</time>
        <extensions>
          <ns3:TrackPointExtension>
            <ns3:hr>99</ns3:hr>
            <ns3:cad>0</ns3:cad>
          </ns3:TrackPointExtension>
        </extensions>
      </trkpt>
      <trkpt lat="37.97517950646579265594482421875" lon="-107.73963329382240772247314453125">
        <ele>3191.800048828125</ele>
        <time>2026-08-15T12:44:27.000Z</time>
        <extensions>
          <ns3:TrackPointExtension>
            <ns3:hr>99</ns3:hr>
            <ns3:cad>0</ns3:cad>
          </ns3:TrackPointExtension>
        </extensions>
      </trkpt>
      <trkpt lat="37.97517732717096805572509765625" lon="-107.73961569182574748992919921875">
        <ele>3192</ele>
        <time>2026-08-15T12:44:28.000Z</time>
        <extensions>
          <ns3:TrackPointExtension>
            <ns3:hr>96</ns3:hr>
            <ns3:cad>0</ns3:cad>
          </ns3:TrackPointExtension>
        </extensions>
      </trkpt>
      <trkpt lat="37.9751707054674625396728515625" lon="-107.73957495577633380889892578125">
        <ele>3192.60009765625</ele>
        <time>2026-08-15T12:44:31.000Z</time>
        <extensions>
          <ns3:TrackPointExtension>
            <ns3:hr>84</ns3:hr>
            <ns3:cad>0</ns3:cad>
          </ns3:TrackPointExtension>
        </extensions>
      </trkpt>
      <trkpt lat="37.9751690290868282318115234375" lon="-107.73956020362675189971923828125">
        <ele>3192.60009765625</ele>
        <time>2026-08-15T12:44:32.000Z</time>
        <extensions>
          <ns3:TrackPointExtension>
            <ns3:hr>81</ns3:hr>
            <ns3:cad>51</ns3:cad>
          </ns3:TrackPointExtension>
        </extensions>
      </trkpt>
      <trkpt lat="37.97517296858131885528564453125" lon="-107.7395344711840152740478515625">
        <ele>3192.800048828125</ele>
        <time>2026-08-15T12:44:34.000Z</time>
        <extensions>
          <ns3:TrackPointExtension>
            <ns3:hr>80</ns3:hr>
            <ns3:cad>52</ns3:cad>
          </ns3:TrackPointExtension>
        </extensions>
      </trkpt>
      <trkpt lat="37.9751639999449253082275390625" lon="-107.7394907176494598388671875">
        <ele>3193.199951171875</ele>
        <time>2026-08-15T12:44:37.000Z</time>
        <extensions>
          <ns3:TrackPointExtension>
            <ns3:hr>78</ns3:hr>
            <ns3:cad>50</ns3:cad>
          </ns3:TrackPointExtension>
        </extensions>
      </trkpt>
      <trkpt lat="37.9751552827656269073486328125" lon="-107.73942324332892894744873046875">
        <ele>3193.60009765625</ele>
        <time>2026-08-15T12:44:42.000Z</time>
        <extensions>
          <ns3:TrackPointExtension>
            <ns3:hr>78</ns3:hr>
            <ns3:cad>52</ns3:cad>
          </ns3:TrackPointExtension>
        </extensions>
      </trkpt>
      <trkpt lat="37.97513122670352458953857421875" lon="-107.73935317061841487884521484375">
        <ele>3193.800048828125</ele>
        <time>2026-08-15T12:44:47.000Z</time>
        <extensions>
          <ns3:TrackPointExtension>
            <ns3:hr>78</ns3:hr>
            <ns3:cad>54</ns3:cad>
          </ns3:TrackPointExtension>
        </extensions>
      </trkpt>
      <trkpt lat="37.97511848621070384979248046875" lon="-107.73932266049087047576904296875">
        <ele>3194</ele>
        <time>2026-08-15T12:44:50.000Z</time>
        <extensions>
          <ns3:TrackPointExtension>
            <ns3:hr>79</ns3:hr>
            <ns3:cad>52</ns3:cad>
          </ns3:TrackPointExtension>
        </extensions>
      </trkpt>
      <trkpt lat="37.9751180671155452728271484375" lon="-107.73927555419504642486572265625">
        <ele>3194.199951171875</ele>
        <time>2026-08-15T12:44:53.000Z</time>
        <extensions>
          <ns3:TrackPointExtension>
            <ns3:hr>79</ns3:hr>
            <ns3:cad>52</ns3:cad>
          </ns3:TrackPointExtension>
        </extensions>
      </trkpt>
      <trkpt lat="37.97513005323708057403564453125" lon="-107.73920766077935695648193359375">
        <ele>3194.39990234375</ele>
        <time>2026-08-15T12:44:58.000Z</time>
        <extensions>
          <ns3:TrackPointExtension>
            <ns3:hr>81</ns3:hr>
            <ns3:cad>52</ns3:cad>
          </ns3:TrackPointExtension>
        </extensions>
      </trkpt>
      <trkpt lat="37.97514363192021846771240234375" lon="-107.7391569502651691436767578125">
        <ele>3195</ele>
        <time>2026-08-15T12:45:02.000Z</time>
        <extensions>
          <ns3:TrackPointExtension>
            <ns3:hr>79</ns3:hr>
            <ns3:cad>52</ns3:cad>
          </ns3:TrackPointExtension>
        </extensions>
      </trkpt>
      <trkpt lat="37.97514547593891620635986328125" lon="-107.73912970907986164093017578125">
        <ele>3195.39990234375</ele>
        <time>2026-08-15T12:45:04.000Z</time>
        <extensions>
          <ns3:TrackPointExtension>
            <ns3:hr>79</ns3:hr>
            <ns3:cad>51</ns3:cad>
          </ns3:TrackPointExtension>
        </extensions>
      </trkpt>
      <trkpt lat="37.97514664940536022186279296875" lon="-107.73906634189188480377197265625">
        <ele>3196</ele>
        <time>2026-08-15T12:45:09.000Z</time>
        <extensions>
          <ns3:TrackPointExtension>
            <ns3:hr>78</ns3:hr>
            <ns3:cad>51</ns3:cad>
          </ns3:TrackPointExtension>
        </extensions>
      </trkpt>
      <trkpt lat="37.975146062672138214111328125" lon="-107.73900766856968402862548828125">
        <ele>3196.39990234375</ele>
        <time>2026-08-15T12:45:15.000Z</time>
        <extensions>
          <ns3:TrackPointExtension>
            <ns3:hr>79</ns3:hr>
            <ns3:cad>52</ns3:cad>
          </ns3:TrackPointExtension>
        </extensions>
      </trkpt>
      <trkpt lat="37.975151427090167999267578125" lon="-107.73900750093162059783935546875">
        <ele>3196.39990234375</ele>
        <time>2026-08-15T12:45:16.000Z</time>
        <extensions>
          <ns3:TrackPointExtension>
            <ns3:hr>79</ns3:hr>
            <ns3:cad>0</ns3:cad>
          </ns3:TrackPointExtension>
        </extensions>
      </trkpt>
      <trkpt lat="37.97517296858131885528564453125" lon="-107.7389757335186004638671875">
        <ele>3196</ele>
        <time>2026-08-15T12:45:21.000Z</time>
        <extensions>
          <ns3:TrackPointExtension>
            <ns3:hr>79</ns3:hr>
            <ns3:cad>0</ns3:cad>
          </ns3:TrackPointExtension>
        </extensions>
      </trkpt>
      <trkpt lat="37.97517028637230396270751953125" lon="-107.73895385675132274627685546875">
        <ele>3196</ele>
        <time>2026-08-15T12:45:26.000Z</time>
        <extensions>
          <ns3:TrackPointExtension>
            <ns3:hr>76</ns3:hr>
            <ns3:cad>0</ns3:cad>
          </ns3:TrackPointExtension>
        </extensions>
      </trkpt>
      <trkpt lat="37.975172214210033416748046875" lon="-107.73894614540040493011474609375">
        <ele>3196</ele>
        <time>2026-08-15T12:45:27.000Z</time>
        <extensions>
          <ns3:TrackPointExtension>
            <ns3:hr>76</ns3:hr>
            <ns3:cad>0</ns3:cad>
          </ns3:TrackPointExtension>
        </extensions>
      </trkpt>
      <trkpt lat="37.97517330385744571685791015625" lon="-107.7388873882591724395751953125">
        <ele>3196.60009765625</ele>
        <time>2026-08-15T12:45:33.000Z</time>
        <extensions>
          <ns3:TrackPointExtension>
            <ns3:hr>77</ns3:hr>
            <ns3:cad>0</ns3:cad>
          </ns3:TrackPointExtension>
        </extensions>
      </trkpt>
      <trkpt lat="37.975177578628063201904296875" lon="-107.738874144852161407470703125">
        <ele>3197.199951171875</ele>
        <time>2026-08-15T12:45:36.000Z</time>
        <extensions>
          <ns3:TrackPointExtension>
            <ns3:hr>76</ns3:hr>
            <ns3:cad>0</ns3:cad>
          </ns3:TrackPointExtension>
        </extensions>
      </trkpt>
      <trkpt lat="37.9751765727996826171875" lon="-107.7388545311987400054931640625">
        <ele>3197.60009765625</ele>
        <time>2026-08-15T12:45:38.000Z</time>
        <extensions>
          <ns3:TrackPointExtension>
            <ns3:hr>76</ns3:hr>
            <ns3:cad>0</ns3:cad>
          </ns3:TrackPointExtension>
        </extensions>
      </trkpt>
      <trkpt lat="37.9751680232584476470947265625" lon="-107.73881639353930950164794921875">
        <ele>3198</ele>
        <time>2026-08-15T12:45:41.000Z</time>
        <extensions>
          <ns3:TrackPointExtension>
            <ns3:hr>77</ns3:hr>
            <ns3:cad>44</ns3:cad>
          </ns3:TrackPointExtension>
        </extensions>
      </trkpt>
      <trkpt lat="37.97516693361103534698486328125" lon="-107.738790996372699737548828125">
        <ele>3198</ele>
        <time>2026-08-15T12:45:43.000Z</time>
        <extensions>
          <ns3:TrackPointExtension>
            <ns3:hr>78</ns3:hr>
            <ns3:cad>53</ns3:cad>
          </ns3:TrackPointExtension>
        </extensions>
      </trkpt>
      <trkpt lat="37.9751673527061939239501953125" lon="-107.73877465166151523590087890625">
        <ele>3198</ele>
        <time>2026-08-15T12:45:44.000Z</time>
        <extensions>
          <ns3:TrackPointExtension>
            <ns3:hr>82</ns3:hr>
            <ns3:cad>53</ns3:cad>
          </ns3:TrackPointExtension>
        </extensions>
      </trkpt>
      <trkpt lat="37.9751671850681304931640625" lon="-107.7387638390064239501953125">
        <ele>3198.199951171875</ele>
        <time>2026-08-15T12:45:45.000Z</time>
        <extensions>
          <ns3:TrackPointExtension>
            <ns3:hr>86</ns3:hr>
            <ns3:cad>53</ns3:cad>
          </ns3:TrackPointExtension>
        </extensions>
      </trkpt>
      <trkpt lat="37.9751696996390819549560546875" lon="-107.73874707520008087158203125">
        <ele>3198.39990234375</ele>
        <time>2026-08-15T12:45:46.000Z</time>
        <extensions>
          <ns3:TrackPointExtension>
            <ns3:hr>86</ns3:hr>
            <ns3:cad>53</ns3:cad>
          </ns3:TrackPointExtension>
        </extensions>
      </trkpt>
      <trkpt lat="37.97516793943941593170166015625" lon="-107.73873140104115009307861328125">
        <ele>3198.60009765625</ele>
        <time>2026-08-15T12:45:47.000Z</time>
        <extensions>
          <ns3:TrackPointExtension>
            <ns3:hr>95</ns3:hr>
            <ns3:cad>51</ns3:cad>
          </ns3:TrackPointExtension>
        </extensions>
      </trkpt>
      <trkpt lat="37.9751710407435894012451171875" lon="-107.73872151039540767669677734375">
        <ele>3198.800048828125</ele>
        <time>2026-08-15T12:45:48.000Z</time>
        <extensions>
          <ns3:TrackPointExtension>
            <ns3:hr>95</ns3:hr>
            <ns3:cad>51</ns3:cad>
          </ns3:TrackPointExtension>
        </extensions>
      </trkpt>
      <trkpt lat="37.97517699189484119415283203125" lon="-107.73871011100709438323974609375">
        <ele>3198.800048828125</ele>
        <time>2026-08-15T12:45:49.000Z</time>
        <extensions>
          <ns3:TrackPointExtension>
            <ns3:hr>98</ns3:hr>
            <ns3:cad>51</ns3:cad>
          </ns3:TrackPointExtension>
        </extensions>
      </trkpt>
      <trkpt lat="37.97517615370452404022216796875" lon="-107.73870281875133514404296875">
        <ele>3199</ele>
        <time>2026-08-15T12:45:50.000Z</time>
        <extensions>
          <ns3:TrackPointExtension>
            <ns3:hr>100</ns3:hr>
            <ns3:cad>51</ns3:cad>
          </ns3:TrackPointExtension>
        </extensions>
      </trkpt>
      <trkpt lat="37.9751777462661266326904296875" lon="-107.7386567182838916778564453125">
        <ele>3199.39990234375</ele>
        <time>2026-08-15T12:45:53.000Z</time>
        <extensions>
          <ns3:TrackPointExtension>
            <ns3:hr>102</ns3:hr>
            <ns3:cad>50</ns3:cad>
          </ns3:TrackPointExtension>
        </extensions>
      </trkpt>
      <trkpt lat="37.97518654726445674896240234375" lon="-107.738615311682224273681640625">
        <ele>3200</ele>
        <time>2026-08-15T12:45:56.000Z</time>
        <extensions>
          <ns3:TrackPointExtension>
            <ns3:hr>103</ns3:hr>
            <ns3:cad>50</ns3:cad>
          </ns3:TrackPointExtension>
        </extensions>
      </trkpt>
      <trkpt lat="37.97519392333924770355224609375" lon="-107.738593854010105133056640625">
        <ele>3200.39990234375</ele>
        <time>2026-08-15T12:45:58.000Z</time>
        <extensions>
          <ns3:TrackPointExtension>
            <ns3:hr>103</ns3:hr>
            <ns3:cad>50</ns3:cad>
          </ns3:TrackPointExtension>
        </extensions>
      </trkpt>
      <trkpt lat="37.9752186499536037445068359375" lon="-107.7385333366692066192626953125">
        <ele>3201</ele>
        <time>2026-08-15T12:46:03.000Z</time>
        <extensions>
          <ns3:TrackPointExtension>
            <ns3:hr>102</ns3:hr>
            <ns3:cad>50</ns3:cad>
          </ns3:TrackPointExtension>
        </extensions>
      </trkpt>
      <trkpt lat="37.97523432411253452301025390625" lon="-107.73850542493164539337158203125">
        <ele>3201.199951171875</ele>
        <time>2026-08-15T12:46:06.000Z</time>
        <extensions>
          <ns3:TrackPointExtension>
            <ns3:hr>103</ns3:hr>
            <ns3:cad>50</ns3:cad>
          </ns3:TrackPointExtension>
        </extensions>
      </trkpt>
      <trkpt lat="37.97524086199700832366943359375" lon="-107.73849570192396640777587890625">
        <ele>3202.199951171875</ele>
        <time>2026-08-15T12:46:11.000Z</time>
        <extensions>
          <ns3:TrackPointExtension>
            <ns3:hr>103</ns3:hr>
            <ns3:cad>0</ns3:cad>
          </ns3:TrackPointExtension>
        </extensions>
      </trkpt>
      <trkpt lat="37.97524605877697467803955078125" lon="-107.73851950652897357940673828125">
        <ele>3202.199951171875</ele>
        <time>2026-08-15T12:46:17.000Z</time>
        <extensions>
          <ns3:TrackPointExtension>
            <ns3:hr>100</ns3:hr>
            <ns3:cad>0</ns3:cad>
          </ns3:TrackPointExtension>
        </extensions>
      </trkpt>
      <trkpt lat="37.9752572067081928253173828125" lon="-107.7385259605944156646728515625">
        <ele>3202.39990234375</ele>
        <time>2026-08-15T12:46:20.000Z</time>
        <extensions>
          <ns3:TrackPointExtension>
            <ns3:hr>95</ns3:hr>
            <ns3:cad>0</ns3:cad>
          </ns3:TrackPointExtension>
        </extensions>
      </trkpt>
      <trkpt lat="37.97526047565042972564697265625" lon="-107.73855336941778659820556640625">
        <ele>3202.800048828125</ele>
        <time>2026-08-15T12:46:23.000Z</time>
        <extensions>
          <ns3:TrackPointExtension>
            <ns3:hr>89</ns3:hr>
            <ns3:cad>0</ns3:cad>
          </ns3:TrackPointExtension>
        </extensions>
      </trkpt>
      <trkpt lat="37.97526919282972812652587890625" lon="-107.73856024257838726043701171875">
        <ele>3202.60009765625</ele>
        <time>2026-08-15T12:46:27.000Z</time>
        <extensions>
          <ns3:TrackPointExtension>
            <ns3:hr>86</ns3:hr>
            <ns3:cad>0</ns3:cad>
          </ns3:TrackPointExtension>
        </extensions>
      </trkpt>
      <trkpt lat="37.97527019865810871124267578125" lon="-107.738613970577716827392578125">
        <ele>3203.199951171875</ele>
        <time>2026-08-15T12:46:32.000Z</time>
        <extensions>
          <ns3:TrackPointExtension>
            <ns3:hr>81</ns3:hr>
            <ns3:cad>0</ns3:cad>
          </ns3:TrackPointExtension>
        </extensions>
      </trkpt>
      <trkpt lat="37.9752798378467559814453125" lon="-107.73863785900175571441650390625">
        <ele>3204</ele>
        <time>2026-08-15T12:46:38.000Z</time>
        <extensions>
          <ns3:TrackPointExtension>
            <ns3:hr>80</ns3:hr>
            <ns3:cad>0</ns3:cad>
          </ns3:TrackPointExtension>
        </extensions>
      </trkpt>
      <trkpt lat="37.97529995441436767578125" lon="-107.7385975420475006103515625">
        <ele>3203.39990234375</ele>
        <time>2026-08-15T12:46:43.000Z</time>
        <extensions>
          <ns3:TrackPointExtension>
            <ns3:hr>80</ns3:hr>
            <ns3:cad>0</ns3:cad>
          </ns3:TrackPointExtension>
        </extensions>
      </trkpt>
      <trkpt lat="37.975323759019374847412109375" lon="-107.7385591529309749603271484375">
        <ele>3203.39990234375</ele>
        <time>2026-08-15T12:46:49.000Z</time>
        <extensions>
          <ns3:TrackPointExtension>
            <ns3:hr>78</ns3:hr>
            <ns3:cad>0</ns3:cad>
          </ns3:TrackPointExtension>
        </extensions>
      </trkpt>
      <trkpt lat="37.975335158407688140869140625" lon="-107.73856200277805328369140625">
        <ele>3204.39990234375</ele>
        <time>2026-08-15T12:46:52.000Z</time>
        <extensions>
          <ns3:TrackPointExtension>
            <ns3:hr>78</ns3:hr>
            <ns3:cad>0</ns3:cad>
          </ns3:TrackPointExtension>
        </extensions>
      </trkpt>
      <trkpt lat="37.97535250894725322723388671875" lon="-107.73856937885284423828125">
        <ele>3205.60009765625</ele>
        <time>2026-08-15T12:46:55.000Z</time>
        <extensions>
          <ns3:TrackPointExtension>
            <ns3:hr>78</ns3:hr>
            <ns3:cad>0</ns3:cad>
          </ns3:TrackPointExtension>
        </extensions>
      </trkpt>
      <trkpt lat="37.97536390833556652069091796875" lon="-107.7385655231773853302001953125">
        <ele>3205.800048828125</ele>
        <time>2026-08-15T12:46:56.000Z</time>
        <extensions>
          <ns3:TrackPointExtension>
            <ns3:hr>78</ns3:hr>
            <ns3:cad>0</ns3:cad>
          </ns3:TrackPointExtension>
        </extensions>
      </trkpt>
      <trkpt lat="37.97539316117763519287109375" lon="-107.73851917125284671783447265625">
        <ele>3206.39990234375</ele>
        <time>2026-08-15T12:47:01.000Z</time>
        <extensions>
          <ns3:TrackPointExtension>
            <ns3:hr>78</ns3:hr>
            <ns3:cad>0</ns3:cad>
          </ns3:TrackPointExtension>
        </extensions>
      </trkpt>
      <trkpt lat="37.97540129162371158599853515625" lon="-107.73848933167755603790283203125">
        <ele>3206.800048828125</ele>
        <time>2026-08-15T12:47:03.000Z</time>
        <extensions>
          <ns3:TrackPointExtension>
            <ns3:hr>79</ns3:hr>
            <ns3:cad>48</ns3:cad>
          </ns3:TrackPointExtension>
        </extensions>
      </trkpt>
      <trkpt lat="37.97540581785142421722412109375" lon="-107.73845982737839221954345703125">
        <ele>3207</ele>
        <time>2026-08-15T12:47:05.000Z</time>
        <extensions>
          <ns3:TrackPointExtension>
            <ns3:hr>84</ns3:hr>
            <ns3:cad>52</ns3:cad>
          </ns3:TrackPointExtension>
        </extensions>
      </trkpt>
      <trkpt lat="37.97540648840367794036865234375" lon="-107.73844172246754169464111328125">
        <ele>3207</ele>
        <time>2026-08-15T12:47:06.000Z</time>
        <extensions>
          <ns3:TrackPointExtension>
            <ns3:hr>84</ns3:hr>
            <ns3:cad>52</ns3:cad>
          </ns3:TrackPointExtension>
        </extensions>
      </trkpt>
      <trkpt lat="37.9754080809652805328369140625" lon="-107.73841238580644130706787109375">
        <ele>3207</ele>
        <time>2026-08-15T12:47:08.000Z</time>
        <extensions>
          <ns3:TrackPointExtension>
            <ns3:hr>90</ns3:hr>
            <ns3:cad>52</ns3:cad>
          </ns3:TrackPointExtension>
        </extensions>
      </trkpt>
      <trkpt lat="37.975409924983978271484375" lon="-107.73839394561946392059326171875">
        <ele>3207.199951171875</ele>
        <time>2026-08-15T12:47:09.000Z</time>
        <extensions>
          <ns3:TrackPointExtension>
            <ns3:hr>90</ns3:hr>
            <ns3:cad>0</ns3:cad>
          </ns3:TrackPointExtension>
        </extensions>
      </trkpt>
      <trkpt lat="37.975412271916866302490234375" lon="-107.7383816242218017578125">
        <ele>3207.39990234375</ele>
        <time>2026-08-15T12:47:10.000Z</time>
        <extensions>
          <ns3:TrackPointExtension>
            <ns3:hr>95</ns3:hr>
            <ns3:cad>0</ns3:cad>
          </ns3:TrackPointExtension>
        </extensions>
      </trkpt>
      <trkpt lat="37.9754104278981685638427734375" lon="-107.7383680455386638641357421875">
        <ele>3207.60009765625</ele>
        <time>2026-08-15T12:47:11.000Z</time>
        <extensions>
          <ns3:TrackPointExtension>
            <ns3:hr>98</ns3:hr>
            <ns3:cad>0</ns3:cad>
          </ns3:TrackPointExtension>
        </extensions>
      </trkpt>
      <trkpt lat="37.97540657222270965576171875" lon="-107.73835857398808002471923828125">
        <ele>3207.800048828125</ele>
        <time>2026-08-15T12:47:12.000Z</time>
        <extensions>
          <ns3:TrackPointExtension>
            <ns3:hr>98</ns3:hr>
            <ns3:cad>0</ns3:cad>
          </ns3:TrackPointExtension>
        </extensions>
      </trkpt>
      <trkpt lat="37.97541218809783458709716796875" lon="-107.73830509744584560394287109375">
        <ele>3208.39990234375</ele>
        <time>2026-08-15T12:47:16.000Z</time>
        <extensions>
          <ns3:TrackPointExtension>
            <ns3:hr>100</ns3:hr>
            <ns3:cad>50</ns3:cad>
          </ns3:TrackPointExtension>
        </extensions>
      </trkpt>
      <trkpt lat="37.97540715895593166351318359375" lon="-107.7382543869316577911376953125">
        <ele>3209.199951171875</ele>
        <time>2026-08-15T12:47:19.000Z</time>
        <extensions>
          <ns3:TrackPointExtension>
            <ns3:hr>100</ns3:hr>
            <ns3:cad>52</ns3:cad>
          </ns3:TrackPointExtension>
        </extensions>
      </trkpt>
      <trkpt lat="37.97540581785142421722412109375" lon="-107.7382195182144641876220703125">
        <ele>3209.800048828125</ele>
        <time>2026-08-15T12:47:22.000Z</time>
        <extensions>
          <ns3:TrackPointExtension>
            <ns3:hr>102</ns3:hr>
            <ns3:cad>51</ns3:cad>
          </ns3:TrackPointExtension>
        </extensions>
      </trkpt>
      <trkpt lat="37.975409589707851409912109375" lon="-107.73817836306989192962646484375">
        <ele>3210.199951171875</ele>
        <time>2026-08-15T12:47:25.000Z</time>
        <extensions>
          <ns3:TrackPointExtension>
            <ns3:hr>103</ns3:hr>
            <ns3:cad>52</ns3:cad>
          </ns3:TrackPointExtension>
        </extensions>
      </trkpt>
      <trkpt lat="37.97540615312755107879638671875" lon="-107.73814265616238117218017578125">
        <ele>3210.60009765625</ele>
        <time>2026-08-15T12:47:28.000Z</time>
        <extensions>
          <ns3:TrackPointExtension>
            <ns3:hr>103</ns3:hr>
            <ns3:cad>52</ns3:cad>
          </ns3:TrackPointExtension>
        </extensions>
      </trkpt>
      <trkpt lat="37.97539458610117435455322265625" lon="-107.73810359649360179901123046875">
        <ele>3211.199951171875</ele>
        <time>2026-08-15T12:47:31.000Z</time>
        <extensions>
          <ns3:TrackPointExtension>
            <ns3:hr>101</ns3:hr>
            <ns3:cad>52</ns3:cad>
          </ns3:TrackPointExtension>
        </extensions>
      </trkpt>
      <trkpt lat="37.97538419254124164581298828125" lon="-107.738073170185089111328125">
        <ele>3212</ele>
        <time>2026-08-15T12:47:34.000Z</time>
        <extensions>
          <ns3:TrackPointExtension>
            <ns3:hr>101</ns3:hr>
            <ns3:cad>51</ns3:cad>
          </ns3:TrackPointExtension>
        </extensions>
      </trkpt>
      <trkpt lat="37.975380755960941314697265625" lon="-107.7380475215613842010498046875">
        <ele>3212.39990234375</ele>
        <time>2026-08-15T12:47:36.000Z</time>
        <extensions>
          <ns3:TrackPointExtension>
            <ns3:hr>100</ns3:hr>
            <ns3:cad>0</ns3:cad>
          </ns3:TrackPointExtension>
        </extensions>
      </trkpt>
      <trkpt lat="37.9753752239048480987548828125" lon="-107.73801106028258800506591796875">
        <ele>3213</ele>
        <time>2026-08-15T12:47:40.000Z</time>
        <extensions>
          <ns3:TrackPointExtension>
            <ns3:hr>100</ns3:hr>
            <ns3:cad>0</ns3:cad>
          </ns3:TrackPointExtension>
        </extensions>
      </trkpt>
      <trkpt lat="37.97537304461002349853515625" lon="-107.737989686429500579833984375">
        <ele>3213.39990234375</ele>
        <time>2026-08-15T12:47:43.000Z</time>
        <extensions>
          <ns3:TrackPointExtension>
            <ns3:hr>99</ns3:hr>
            <ns3:cad>0</ns3:cad>
          </ns3:TrackPointExtension>
        </extensions>
      </trkpt>
      <trkpt lat="37.97537304461002349853515625" lon="-107.73795171640813350677490234375">
        <ele>3214</ele>
        <time>2026-08-15T12:47:46.000Z</time>
        <extensions>
          <ns3:TrackPointExtension>
            <ns3:hr>99</ns3:hr>
            <ns3:cad>0</ns3:cad>
          </ns3:TrackPointExtension>
        </extensions>
      </trkpt>
      <trkpt lat="37.97537572681903839111328125" lon="-107.7379338629543781280517578125">
        <ele>3214.60009765625</ele>
        <time>2026-08-15T12:47:48.000Z</time>
        <extensions>
          <ns3:TrackPointExtension>
            <ns3:hr>99</ns3:hr>
            <ns3:cad>0</ns3:cad>
          </ns3:TrackPointExtension>
        </extensions>
      </trkpt>
      <trkpt lat="37.9753695242106914520263671875" lon="-107.7379053644835948944091796875">
        <ele>3215.39990234375</ele>
        <time>2026-08-15T12:47:51.000Z</time>
        <extensions>
          <ns3:TrackPointExtension>
            <ns3:hr>100</ns3:hr>
            <ns3:cad>0</ns3:cad>
          </ns3:TrackPointExtension>
        </extensions>
      </trkpt>
      <trkpt lat="37.975356616079807281494140625" lon="-107.73785951547324657440185546875">
        <ele>3215.800048828125</ele>
        <time>2026-08-15T12:47:55.000Z</time>
        <extensions>
          <ns3:TrackPointExtension>
            <ns3:hr>98</ns3:hr>
            <ns3:cad>0</ns3:cad>
          </ns3:TrackPointExtension>
        </extensions>
      </trkpt>
      <trkpt lat="37.9753541015088558197021484375" lon="-107.7378564141690731048583984375">
        <ele>3216</ele>
        <time>2026-08-15T12:47:56.000Z</time>
        <extensions>
          <ns3:TrackPointExtension>
            <ns3:hr>96</ns3:hr>
            <ns3:cad>0</ns3:cad>
          </ns3:TrackPointExtension>
        </extensions>
      </trkpt>
      <trkpt lat="37.97534161247313022613525390625" lon="-107.73784794844686985015869140625">
        <ele>3216.199951171875</ele>
        <time>2026-08-15T12:47:57.000Z</time>
        <extensions>
          <ns3:TrackPointExtension>
            <ns3:hr>96</ns3:hr>
            <ns3:cad>0</ns3:cad>
          </ns3:TrackPointExtension>
        </extensions>
      </trkpt>
      <trkpt lat="37.97532367520034313201904296875" lon="-107.73781794123351573944091796875">
        <ele>3216.39990234375</ele>
        <time>2026-08-15T12:48:01.000Z</time>
        <extensions>
          <ns3:TrackPointExtension>
            <ns3:hr>96</ns3:hr>
            <ns3:cad>48</ns3:cad>
          </ns3:TrackPointExtension>
        </extensions>
      </trkpt>
      <trkpt lat="37.975327782332897186279296875" lon="-107.73780654184520244598388671875">
        <ele>3216.60009765625</ele>
        <time>2026-08-15T12:48:03.000Z</time>
        <extensions>
          <ns3:TrackPointExtension>
            <ns3:hr>97</ns3:hr>
            <ns3:cad>41</ns3:cad>
          </ns3:TrackPointExtension>
        </extensions>
      </trkpt>
      <trkpt lat="37.97533138655126094818115234375" lon="-107.73779765702784061431884765625">
        <ele>3216.800048828125</ele>
        <time>2026-08-15T12:48:05.000Z</time>
        <extensions>
          <ns3:TrackPointExtension>
            <ns3:hr>96</ns3:hr>
            <ns3:cad>41</ns3:cad>
          </ns3:TrackPointExtension>
        </extensions>
      </trkpt>
      <trkpt lat="37.9753437079489231109619140625" lon="-107.73776731453835964202880859375">
        <ele>3217.60009765625</ele>
        <time>2026-08-15T12:48:08.000Z</time>
        <extensions>
          <ns3:TrackPointExtension>
            <ns3:hr>96</ns3:hr>
            <ns3:cad>0</ns3:cad>
          </ns3:TrackPointExtension>
        </extensions>
      </trkpt>
      <trkpt lat="37.9753468930721282958984375" lon="-107.7377457730472087860107421875">
        <ele>3218</ele>
        <time>2026-08-15T12:48:10.000Z</time>
        <extensions>
          <ns3:TrackPointExtension>
            <ns3:hr>96</ns3:hr>
            <ns3:cad>0</ns3:cad>
          </ns3:TrackPointExtension>
        </extensions>
      </trkpt>
      <trkpt lat="37.9753510840237140655517578125" lon="-107.737689949572086334228515625">
        <ele>3218.800048828125</ele>
        <time>2026-08-15T12:48:14.000Z</time>
        <extensions>
          <ns3:TrackPointExtension>
            <ns3:hr>96</ns3:hr>
            <ns3:cad>0</ns3:cad>
          </ns3:TrackPointExtension>
        </extensions>
      </trkpt>
      <trkpt lat="37.97536139376461505889892578125" lon="-107.73764812387526035308837890625">
        <ele>3219</ele>
        <time>2026-08-15T12:48:18.000Z</time>
        <extensions>
          <ns3:TrackPointExtension>
            <ns3:hr>96</ns3:hr>
            <ns3:cad>47</ns3:cad>
          </ns3:TrackPointExtension>
        </extensions>
      </trkpt>
      <trkpt lat="37.97536524944007396697998046875" lon="-107.73764309473335742950439453125">
        <ele>3219</ele>
        <time>2026-08-15T12:48:19.000Z</time>
        <extensions>
          <ns3:TrackPointExtension>
            <ns3:hr>96</ns3:hr>
            <ns3:cad>47</ns3:cad>
          </ns3:TrackPointExtension>
        </extensions>
      </trkpt>
      <trkpt lat="37.9753671772778034210205078125" lon="-107.73763068951666355133056640625">
        <ele>3219.199951171875</ele>
        <time>2026-08-15T12:48:20.000Z</time>
        <extensions>
          <ns3:TrackPointExtension>
            <ns3:hr>96</ns3:hr>
            <ns3:cad>47</ns3:cad>
          </ns3:TrackPointExtension>
        </extensions>
      </trkpt>
      <trkpt lat="37.975383102893829345703125" lon="-107.7375781349837779998779296875">
        <ele>3220.199951171875</ele>
        <time>2026-08-15T12:48:25.000Z</time>
        <extensions>
          <ns3:TrackPointExtension>
            <ns3:hr>97</ns3:hr>
            <ns3:cad>45</ns3:cad>
          </ns3:TrackPointExtension>
        </extensions>
      </trkpt>
      <trkpt lat="37.97538704238831996917724609375" lon="-107.73756849579513072967529296875">
        <ele>3220.39990234375</ele>
        <time>2026-08-15T12:48:26.000Z</time>
        <extensions>
          <ns3:TrackPointExtension>
            <ns3:hr>97</ns3:hr>
            <ns3:cad>0</ns3:cad>
          </ns3:TrackPointExtension>
        </extensions>
      </trkpt>
      <trkpt lat="37.97540028579533100128173828125" lon="-107.737545780837535858154296875">
        <ele>3221.39990234375</ele>
        <time>2026-08-15T12:48:30.000Z</time>
        <extensions>
          <ns3:TrackPointExtension>
            <ns3:hr>98</ns3:hr>
            <ns3:cad>0</ns3:cad>
          </ns3:TrackPointExtension>
        </extensions>
      </trkpt>
      <trkpt lat="37.97540363855659961700439453125" lon="-107.73753580637276172637939453125">
        <ele>3221.60009765625</ele>
        <time>2026-08-15T12:48:31.000Z</time>
        <extensions>
          <ns3:TrackPointExtension>
            <ns3:hr>98</ns3:hr>
            <ns3:cad>0</ns3:cad>
          </ns3:TrackPointExtension>
        </extensions>
      </trkpt>
      <trkpt lat="37.9754139482975006103515625" lon="-107.737482078373432159423828125">
        <ele>3222.39990234375</ele>
        <time>2026-08-15T12:48:36.000Z</time>
        <extensions>
          <ns3:TrackPointExtension>
            <ns3:hr>99</ns3:hr>
            <ns3:cad>0</ns3:cad>
          </ns3:TrackPointExtension>
        </extensions>
      </trkpt>
      <trkpt lat="37.9754154570400714874267578125" lon="-107.73746137507259845733642578125">
        <ele>3222.60009765625</ele>
        <time>2026-08-15T12:48:38.000Z</time>
        <extensions>
          <ns3:TrackPointExtension>
            <ns3:hr>99</ns3:hr>
            <ns3:cad>0</ns3:cad>
          </ns3:TrackPointExtension>
        </extensions>
      </trkpt>
      <trkpt lat="37.97541453503072261810302734375" lon="-107.73746095597743988037109375">
        <ele>3222.60009765625</ele>
        <time>2026-08-15T12:48:43.000Z</time>
        <extensions>
          <ns3:TrackPointExtension>
            <ns3:hr>99</ns3:hr>
            <ns3:cad>0</ns3:cad>
          </ns3:TrackPointExtension>
        </extensions>
      </trkpt>
      <trkpt lat="37.97541453503072261810302734375" lon="-107.73746095597743988037109375">
        <ele>3222.60009765625</ele>
        <time>2026-08-15T12:48:49.000Z</time>
        <extensions>
          <ns3:TrackPointExtension>
            <ns3:hr>102</ns3:hr>
            <ns3:cad>0</ns3:cad>
          </ns3:TrackPointExtension>
        </extensions>
      </trkpt>
      <trkpt lat="37.97541453503072261810302734375" lon="-107.73746095597743988037109375">
        <ele>3222.800048828125</ele>
        <time>2026-08-15T12:48:52.000Z</time>
        <extensions>
          <ns3:TrackPointExtension>
            <ns3:hr>106</ns3:hr>
            <ns3:cad>0</ns3:cad>
          </ns3:TrackPointExtension>
        </extensions>
      </trkpt>
      <trkpt lat="37.97541453503072261810302734375" lon="-107.73746095597743988037109375">
        <ele>3222.800048828125</ele>
        <time>2026-08-15T12:48:53.000Z</time>
        <extensions>
          <ns3:TrackPointExtension>
            <ns3:hr>106</ns3:hr>
            <ns3:cad>0</ns3:cad>
          </ns3:TrackPointExtension>
        </extensions>
      </trkpt>
      <trkpt lat="37.97542191110551357269287109375" lon="-107.7374349720776081085205078125">
        <ele>3223.199951171875</ele>
        <time>2026-08-15T12:48:57.000Z</time>
        <extensions>
          <ns3:TrackPointExtension>
            <ns3:hr>105</ns3:hr>
            <ns3:cad>0</ns3:cad>
          </ns3:TrackPointExtension>
        </extensions>
      </trkpt>
      <trkpt lat="37.9754245094954967498779296875" lon="-107.737421728670597076416015625">
        <ele>3223.60009765625</ele>
        <time>2026-08-15T12:48:59.000Z</time>
        <extensions>
          <ns3:TrackPointExtension>
            <ns3:hr>105</ns3:hr>
            <ns3:cad>0</ns3:cad>
          </ns3:TrackPointExtension>
        </extensions>
      </trkpt>
      <trkpt lat="37.97543599270284175872802734375" lon="-107.737397588789463043212890625">
        <ele>3224.39990234375</ele>
        <time>2026-08-15T12:49:02.000Z</time>
        <extensions>
          <ns3:TrackPointExtension>
            <ns3:hr>106</ns3:hr>
            <ns3:cad>0</ns3:cad>
          </ns3:TrackPointExtension>
        </extensions>
      </trkpt>
      <trkpt lat="37.97543984837830066680908203125" lon="-107.73738711141049861907958984375">
        <ele>3224.800048828125</ele>
        <time>2026-08-15T12:49:04.000Z</time>
        <extensions>
          <ns3:TrackPointExtension>
            <ns3:hr>106</ns3:hr>
            <ns3:cad>0</ns3:cad>
          </ns3:TrackPointExtension>
        </extensions>
      </trkpt>
      <trkpt lat="37.97545191831886768341064453125" lon="-107.7373705990612506866455078125">
        <ele>3224.60009765625</ele>
        <time>2026-08-15T12:49:08.000Z</time>
        <extensions>
          <ns3:TrackPointExtension>
            <ns3:hr>107</ns3:hr>
            <ns3:cad>0</ns3:cad>
          </ns3:TrackPointExtension>
        </extensions>
      </trkpt>
      <trkpt lat="37.9754546843469142913818359375" lon="-107.73735559545457363128662109375">
        <ele>3223.800048828125</ele>
        <time>2026-08-15T12:49:11.000Z</time>
        <extensions>
          <ns3:TrackPointExtension>
            <ns3:hr>107</ns3:hr>
            <ns3:cad>0</ns3:cad>
          </ns3:TrackPointExtension>
        </extensions>
      </trkpt>
      <trkpt lat="37.97547237016260623931884765625" lon="-107.7373087406158447265625">
        <ele>3223</ele>
        <time>2026-08-15T12:49:15.000Z</time>
        <extensions>
          <ns3:TrackPointExtension>
            <ns3:hr>106</ns3:hr>
            <ns3:cad>0</ns3:cad>
          </ns3:TrackPointExtension>
        </extensions>
      </trkpt>
      <trkpt lat="37.97547119669616222381591796875" lon="-107.73730195127427577972412109375">
        <ele>3222.800048828125</ele>
        <time>2026-08-15T12:49:16.000Z</time>
        <extensions>
          <ns3:TrackPointExtension>
            <ns3:hr>105</ns3:hr>
            <ns3:cad>0</ns3:cad>
          </ns3:TrackPointExtension>
        </extensions>
      </trkpt>
      <trkpt lat="37.97547094523906707763671875" lon="-107.73728015832602977752685546875">
        <ele>3223.199951171875</ele>
        <time>2026-08-15T12:49:20.000Z</time>
        <extensions>
          <ns3:TrackPointExtension>
            <ns3:hr>103</ns3:hr>
            <ns3:cad>75</ns3:cad>
          </ns3:TrackPointExtension>
        </extensions>
      </trkpt>
      <trkpt lat="37.97548527829349040985107421875" lon="-107.73726674728095531463623046875">
        <ele>3223.800048828125</ele>
        <time>2026-08-15T12:49:22.000Z</time>
        <extensions>
          <ns3:TrackPointExtension>
            <ns3:hr>103</ns3:hr>
            <ns3:cad>0</ns3:cad>
          </ns3:TrackPointExtension>
        </extensions>
      </trkpt>
      <trkpt lat="37.9754955880343914031982421875" lon="-107.73724579252302646636962890625">
        <ele>3224.800048828125</ele>
        <time>2026-08-15T12:49:27.000Z</time>
        <extensions>
          <ns3:TrackPointExtension>
            <ns3:hr>102</ns3:hr>
            <ns3:cad>0</ns3:cad>
          </ns3:TrackPointExtension>
        </extensions>
      </trkpt>
      <trkpt lat="37.97549634240567684173583984375" lon="-107.73724311031401157379150390625">
        <ele>3225</ele>
        <time>2026-08-15T12:49:28.000Z</time>
        <extensions>
          <ns3:TrackPointExtension>
            <ns3:hr>102</ns3:hr>
            <ns3:cad>0</ns3:cad>
          </ns3:TrackPointExtension>
        </extensions>
      </trkpt>
      <trkpt lat="37.97551109455525875091552734375" lon="-107.7372254244983196258544921875">
        <ele>3226.199951171875</ele>
        <time>2026-08-15T12:49:32.000Z</time>
        <extensions>
          <ns3:TrackPointExtension>
            <ns3:hr>103</ns3:hr>
            <ns3:cad>0</ns3:cad>
          </ns3:TrackPointExtension>
        </extensions>
      </trkpt>
      <trkpt lat="37.975519560277462005615234375" lon="-107.73721897043287754058837890625">
        <ele>3226.39990234375</ele>
        <time>2026-08-15T12:49:34.000Z</time>
        <extensions>
          <ns3:TrackPointExtension>
            <ns3:hr>102</ns3:hr>
            <ns3:cad>0</ns3:cad>
          </ns3:TrackPointExtension>
        </extensions>
      </trkpt>
      <trkpt lat="37.97553858719766139984130859375" lon="-107.73719348944723606109619140625">
        <ele>3227.39990234375</ele>
        <time>2026-08-15T12:49:37.000Z</time>
        <extensions>
          <ns3:TrackPointExtension>
            <ns3:hr>101</ns3:hr>
            <ns3:cad>0</ns3:cad>
          </ns3:TrackPointExtension>
        </extensions>
      </trkpt>
      <trkpt lat="37.9755468852818012237548828125" lon="-107.73718544282019138336181640625">
        <ele>3228</ele>
        <time>2026-08-15T12:49:39.000Z</time>
        <extensions>
          <ns3:TrackPointExtension>
            <ns3:hr>101</ns3:hr>
            <ns3:cad>0</ns3:cad>
          </ns3:TrackPointExtension>
        </extensions>
      </trkpt>
      <trkpt lat="37.9755606316030025482177734375" lon="-107.73716591298580169677734375">
        <ele>3228.60009765625</ele>
        <time>2026-08-15T12:49:41.000Z</time>
        <extensions>
          <ns3:TrackPointExtension>
            <ns3:hr>102</ns3:hr>
            <ns3:cad>0</ns3:cad>
          </ns3:TrackPointExtension>
        </extensions>
      </trkpt>
      <trkpt lat="37.97557144425809383392333984375" lon="-107.73713867180049419403076171875">
        <ele>3229.39990234375</ele>
        <time>2026-08-15T12:49:45.000Z</time>
        <extensions>
          <ns3:TrackPointExtension>
            <ns3:hr>103</ns3:hr>
            <ns3:cad>0</ns3:cad>
          </ns3:TrackPointExtension>
        </extensions>
      </trkpt>
      <trkpt lat="37.97557563520967960357666015625" lon="-107.7371250092983245849609375">
        <ele>3229.60009765625</ele>
        <time>2026-08-15T12:49:47.000Z</time>
        <extensions>
          <ns3:TrackPointExtension>
            <ns3:hr>103</ns3:hr>
            <ns3:cad>0</ns3:cad>
          </ns3:TrackPointExtension>
        </extensions>
      </trkpt>
      <trkpt lat="37.97557798214256763458251953125" lon="-107.737099863588809967041015625">
        <ele>3230.199951171875</ele>
        <time>2026-08-15T12:49:50.000Z</time>
        <extensions>
          <ns3:TrackPointExtension>
            <ns3:hr>98</ns3:hr>
            <ns3:cad>49</ns3:cad>
          </ns3:TrackPointExtension>
        </extensions>
      </trkpt>
      <trkpt lat="37.97557831741869449615478515625" lon="-107.737093828618526458740234375">
        <ele>3230.60009765625</ele>
        <time>2026-08-15T12:49:51.000Z</time>
        <extensions>
          <ns3:TrackPointExtension>
            <ns3:hr>98</ns3:hr>
            <ns3:cad>49</ns3:cad>
          </ns3:TrackPointExtension>
        </extensions>
      </trkpt>
      <trkpt lat="37.97558083198964595794677734375" lon="-107.73708301596343517303466796875">
        <ele>3230.800048828125</ele>
        <time>2026-08-15T12:49:52.000Z</time>
        <extensions>
          <ns3:TrackPointExtension>
            <ns3:hr>97</ns3:hr>
            <ns3:cad>49</ns3:cad>
          </ns3:TrackPointExtension>
        </extensions>
      </trkpt>
      <trkpt lat="37.97557865269482135772705078125" lon="-107.73704412393271923065185546875">
        <ele>3232</ele>
        <time>2026-08-15T12:49:56.000Z</time>
        <extensions>
          <ns3:TrackPointExtension>
            <ns3:hr>96</ns3:hr>
            <ns3:cad>0</ns3:cad>
          </ns3:TrackPointExtension>
        </extensions>
      </trkpt>
      <trkpt lat="37.97558418475091457366943359375" lon="-107.737020067870616912841796875">
        <ele>3232.39990234375</ele>
        <time>2026-08-15T12:49:58.000Z</time>
        <extensions>
          <ns3:TrackPointExtension>
            <ns3:hr>96</ns3:hr>
            <ns3:cad>0</ns3:cad>
          </ns3:TrackPointExtension>
        </extensions>
      </trkpt>
      <trkpt lat="37.97559658996760845184326171875" lon="-107.73696147836744785308837890625">
        <ele>3233</ele>
        <time>2026-08-15T12:50:03.000Z</time>
        <extensions>
          <ns3:TrackPointExtension>
            <ns3:hr>94</ns3:hr>
            <ns3:cad>45</ns3:cad>
          </ns3:TrackPointExtension>
        </extensions>
      </trkpt>
      <trkpt lat="37.9755995236337184906005859375" lon="-107.73693951778113842010498046875">
        <ele>3233.39990234375</ele>
        <time>2026-08-15T12:50:05.000Z</time>
        <extensions>
          <ns3:TrackPointExtension>
            <ns3:hr>92</ns3:hr>
            <ns3:cad>45</ns3:cad>
          </ns3:TrackPointExtension>
        </extensions>
      </trkpt>
      <trkpt lat="37.975596673786640167236328125" lon="-107.73686978034675121307373046875">
        <ele>3233.199951171875</ele>
        <time>2026-08-15T12:50:10.000Z</time>
        <extensions>
          <ns3:TrackPointExtension>
            <ns3:hr>95</ns3:hr>
            <ns3:cad>46</ns3:cad>
          </ns3:TrackPointExtension>
        </extensions>
      </trkpt>
      <trkpt lat="37.9755944944918155670166015625" lon="-107.73685871623456478118896484375">
        <ele>3233</ele>
        <time>2026-08-15T12:50:11.000Z</time>
        <extensions>
          <ns3:TrackPointExtension>
            <ns3:hr>97</ns3:hr>
            <ns3:cad>45</ns3:cad>
          </ns3:TrackPointExtension>
        </extensions>
      </trkpt>
      <trkpt lat="37.975600026547908782958984375" lon="-107.73681697435677051544189453125">
        <ele>3233.800048828125</ele>
        <time>2026-08-15T12:50:15.000Z</time>
        <extensions>
          <ns3:TrackPointExtension>
            <ns3:hr>100</ns3:hr>
            <ns3:cad>0</ns3:cad>
          </ns3:TrackPointExtension>
        </extensions>
      </trkpt>
      <trkpt lat="37.9755981825292110443115234375" lon="-107.73676936514675617218017578125">
        <ele>3233.800048828125</ele>
        <time>2026-08-15T12:50:19.000Z</time>
        <extensions>
          <ns3:TrackPointExtension>
            <ns3:hr>100</ns3:hr>
            <ns3:cad>0</ns3:cad>
          </ns3:TrackPointExtension>
        </extensions>
      </trkpt>
      <trkpt lat="37.97560195438563823699951171875" lon="-107.73672762326896190643310546875">
        <ele>3234</ele>
        <time>2026-08-15T12:50:23.000Z</time>
        <extensions>
          <ns3:TrackPointExtension>
            <ns3:hr>103</ns3:hr>
            <ns3:cad>0</ns3:cad>
          </ns3:TrackPointExtension>
        </extensions>
      </trkpt>
      <trkpt lat="37.975607402622699737548828125" lon="-107.73669920861721038818359375">
        <ele>3234.800048828125</ele>
        <time>2026-08-15T12:50:25.000Z</time>
        <extensions>
          <ns3:TrackPointExtension>
            <ns3:hr>102</ns3:hr>
            <ns3:cad>48</ns3:cad>
          </ns3:TrackPointExtension>
        </extensions>
      </trkpt>
      <trkpt lat="37.97560581006109714508056640625" lon="-107.7366765774786472320556640625">
        <ele>3235.199951171875</ele>
        <time>2026-08-15T12:50:27.000Z</time>
        <extensions>
          <ns3:TrackPointExtension>
            <ns3:hr>102</ns3:hr>
            <ns3:cad>49</ns3:cad>
          </ns3:TrackPointExtension>
        </extensions>
      </trkpt>
      <trkpt lat="37.97560530714690685272216796875" lon="-107.73662318475544452667236328125">
        <ele>3235.60009765625</ele>
        <time>2026-08-15T12:50:32.000Z</time>
        <extensions>
          <ns3:TrackPointExtension>
            <ns3:hr>106</ns3:hr>
            <ns3:cad>0</ns3:cad>
          </ns3:TrackPointExtension>
        </extensions>
      </trkpt>
      <trkpt lat="37.975608408451080322265625" lon="-107.73657607845962047576904296875">
        <ele>3236.39990234375</ele>
        <time>2026-08-15T12:50:38.000Z</time>
        <extensions>
          <ns3:TrackPointExtension>
            <ns3:hr>105</ns3:hr>
            <ns3:cad>0</ns3:cad>
          </ns3:TrackPointExtension>
        </extensions>
      </trkpt>
      <trkpt lat="37.975610755383968353271484375" lon="-107.73656233213841915130615234375">
        <ele>3236.39990234375</ele>
        <time>2026-08-15T12:50:39.000Z</time>
        <extensions>
          <ns3:TrackPointExtension>
            <ns3:hr>105</ns3:hr>
            <ns3:cad>0</ns3:cad>
          </ns3:TrackPointExtension>
        </extensions>
      </trkpt>
      <trkpt lat="37.9756226576864719390869140625" lon="-107.73651120252907276153564453125">
        <ele>3237.39990234375</ele>
        <time>2026-08-15T12:50:44.000Z</time>
        <extensions>
          <ns3:TrackPointExtension>
            <ns3:hr>104</ns3:hr>
            <ns3:cad>41</ns3:cad>
          </ns3:TrackPointExtension>
        </extensions>
      </trkpt>
      <trkpt lat="37.9756300337612628936767578125" lon="-107.73649309761822223663330078125">
        <ele>3237.800048828125</ele>
        <time>2026-08-15T12:50:46.000Z</time>
        <extensions>
          <ns3:TrackPointExtension>
            <ns3:hr>104</ns3:hr>
            <ns3:cad>0</ns3:cad>
          </ns3:TrackPointExtension>
        </extensions>
      </trkpt>
      <trkpt lat="37.9756320454180240631103515625" lon="-107.736456803977489471435546875">
        <ele>3238.60009765625</ele>
        <time>2026-08-15T12:50:50.000Z</time>
        <extensions>
          <ns3:TrackPointExtension>
            <ns3:hr>104</ns3:hr>
            <ns3:cad>0</ns3:cad>
          </ns3:TrackPointExtension>
        </extensions>
      </trkpt>
      <trkpt lat="37.97563112340867519378662109375" lon="-107.73643291555345058441162109375">
        <ele>3239</ele>
        <time>2026-08-15T12:50:53.000Z</time>
        <extensions>
          <ns3:TrackPointExtension>
            <ns3:hr>102</ns3:hr>
            <ns3:cad>0</ns3:cad>
          </ns3:TrackPointExtension>
        </extensions>
      </trkpt>
      <trkpt lat="37.97562785446643829345703125" lon="-107.7364070154726505279541015625">
        <ele>3239.60009765625</ele>
        <time>2026-08-15T12:50:55.000Z</time>
        <extensions>
          <ns3:TrackPointExtension>
            <ns3:hr>102</ns3:hr>
            <ns3:cad>44</ns3:cad>
          </ns3:TrackPointExtension>
        </extensions>
      </trkpt>
      <trkpt lat="37.97562307678163051605224609375" lon="-107.73635580204427242279052734375">
        <ele>3240.39990234375</ele>
        <time>2026-08-15T12:50:59.000Z</time>
        <extensions>
          <ns3:TrackPointExtension>
            <ns3:hr>100</ns3:hr>
            <ns3:cad>0</ns3:cad>
          </ns3:TrackPointExtension>
        </extensions>
      </trkpt>
      <trkpt lat="37.97562894411385059356689453125" lon="-107.73632545955479145050048828125">
        <ele>3240.60009765625</ele>
        <time>2026-08-15T12:51:01.000Z</time>
        <extensions>
          <ns3:TrackPointExtension>
            <ns3:hr>101</ns3:hr>
            <ns3:cad>45</ns3:cad>
          </ns3:TrackPointExtension>
        </extensions>
      </trkpt>
      <trkpt lat="37.9756271839141845703125" lon="-107.7362849749624729156494140625">
        <ele>3241.199951171875</ele>
        <time>2026-08-15T12:51:05.000Z</time>
        <extensions>
          <ns3:TrackPointExtension>
            <ns3:hr>104</ns3:hr>
            <ns3:cad>47</ns3:cad>
          </ns3:TrackPointExtension>
        </extensions>
      </trkpt>
      <trkpt lat="37.9756293632090091705322265625" lon="-107.73627785034477710723876953125">
        <ele>3241.39990234375</ele>
        <time>2026-08-15T12:51:06.000Z</time>
        <extensions>
          <ns3:TrackPointExtension>
            <ns3:hr>104</ns3:hr>
            <ns3:cad>0</ns3:cad>
          </ns3:TrackPointExtension>
        </extensions>
      </trkpt>
      <trkpt lat="37.97563430853188037872314453125" lon="-107.7362564764916896820068359375">
        <ele>3241.800048828125</ele>
        <time>2026-08-15T12:51:08.000Z</time>
        <extensions>
          <ns3:TrackPointExtension>
            <ns3:hr>105</ns3:hr>
            <ns3:cad>0</ns3:cad>
          </ns3:TrackPointExtension>
        </extensions>
      </trkpt>
      <trkpt lat="37.9756481386721134185791015625" lon="-107.7362068556249141693115234375">
        <ele>3242.800048828125</ele>
        <time>2026-08-15T12:51:12.000Z</time>
        <extensions>
          <ns3:TrackPointExtension>
            <ns3:hr>106</ns3:hr>
            <ns3:cad>0</ns3:cad>
          </ns3:TrackPointExtension>
        </extensions>
      </trkpt>
      <trkpt lat="37.97565408982336521148681640625" lon="-107.736159749329090118408203125">
        <ele>3243.39990234375</ele>
        <time>2026-08-15T12:51:17.000Z</time>
        <extensions>
          <ns3:TrackPointExtension>
            <ns3:hr>114</ns3:hr>
            <ns3:cad>0</ns3:cad>
          </ns3:TrackPointExtension>
        </extensions>
      </trkpt>
      <trkpt lat="37.975658364593982696533203125" lon="-107.7361511997878551483154296875">
        <ele>3243.800048828125</ele>
        <time>2026-08-15T12:51:18.000Z</time>
        <extensions>
          <ns3:TrackPointExtension>
            <ns3:hr>114</ns3:hr>
            <ns3:cad>0</ns3:cad>
          </ns3:TrackPointExtension>
        </extensions>
      </trkpt>
      <trkpt lat="37.97565727494657039642333984375" lon="-107.73614441044628620147705078125">
        <ele>3244</ele>
        <time>2026-08-15T12:51:19.000Z</time>
        <extensions>
          <ns3:TrackPointExtension>
            <ns3:hr>118</ns3:hr>
            <ns3:cad>0</ns3:cad>
          </ns3:TrackPointExtension>
        </extensions>
      </trkpt>
      <trkpt lat="37.97566515393555164337158203125" lon="-107.73611037991940975189208984375">
        <ele>3244.800048828125</ele>
        <time>2026-08-15T12:51:22.000Z</time>
        <extensions>
          <ns3:TrackPointExtension>
            <ns3:hr>123</ns3:hr>
            <ns3:cad>43</ns3:cad>
          </ns3:TrackPointExtension>
        </extensions>
      </trkpt>
      <trkpt lat="37.975665740668773651123046875" lon="-107.7360931970179080963134765625">
        <ele>3244.800048828125</ele>
        <time>2026-08-15T12:51:24.000Z</time>
        <extensions>
          <ns3:TrackPointExtension>
            <ns3:hr>124</ns3:hr>
            <ns3:cad>43</ns3:cad>
          </ns3:TrackPointExtension>
        </extensions>
      </trkpt>
      <trkpt lat="37.975670434534549713134765625" lon="-107.736074589192867279052734375">
        <ele>3245</ele>
        <time>2026-08-15T12:51:26.000Z</time>
        <extensions>
          <ns3:TrackPointExtension>
            <ns3:hr>125</ns3:hr>
            <ns3:cad>43</ns3:cad>
          </ns3:TrackPointExtension>
        </extensions>
      </trkpt>
      <trkpt lat="37.97567303292453289031982421875" lon="-107.73602999746799468994140625">
        <ele>3246.199951171875</ele>
        <time>2026-08-15T12:51:31.000Z</time>
        <extensions>
          <ns3:TrackPointExtension>
            <ns3:hr>125</ns3:hr>
            <ns3:cad>0</ns3:cad>
          </ns3:TrackPointExtension>
        </extensions>
      </trkpt>
      <trkpt lat="37.97568711452186107635498046875" lon="-107.73596637882292270660400390625">
        <ele>3247.39990234375</ele>
        <time>2026-08-15T12:51:37.000Z</time>
        <extensions>
          <ns3:TrackPointExtension>
            <ns3:hr>126</ns3:hr>
            <ns3:cad>0</ns3:cad>
          </ns3:TrackPointExtension>
        </extensions>
      </trkpt>
      <trkpt lat="37.97570169903337955474853515625" lon="-107.735916674137115478515625">
        <ele>3248.39990234375</ele>
        <time>2026-08-15T12:51:42.000Z</time>
        <extensions>
          <ns3:TrackPointExtension>
            <ns3:hr>126</ns3:hr>
            <ns3:cad>0</ns3:cad>
          </ns3:TrackPointExtension>
        </extensions>
      </trkpt>
      <trkpt lat="37.97570136375725269317626953125" lon="-107.73590435273945331573486328125">
        <ele>3248.39990234375</ele>
        <time>2026-08-15T12:51:43.000Z</time>
        <extensions>
          <ns3:TrackPointExtension>
            <ns3:hr>126</ns3:hr>
            <ns3:cad>46</ns3:cad>
          </ns3:TrackPointExtension>
        </extensions>
      </trkpt>
      <trkpt lat="37.9757197201251983642578125" lon="-107.735843248665332794189453125">
        <ele>3249.800048828125</ele>
        <time>2026-08-15T12:51:49.000Z</time>
        <extensions>
          <ns3:TrackPointExtension>
            <ns3:hr>124</ns3:hr>
            <ns3:cad>0</ns3:cad>
          </ns3:TrackPointExtension>
        </extensions>
      </trkpt>
      <trkpt lat="37.97572600655257701873779296875" lon="-107.73583595640957355499267578125">
        <ele>3250</ele>
        <time>2026-08-15T12:51:50.000Z</time>
        <extensions>
          <ns3:TrackPointExtension>
            <ns3:hr>124</ns3:hr>
            <ns3:cad>0</ns3:cad>
          </ns3:TrackPointExtension>
        </extensions>
      </trkpt>
      <trkpt lat="37.97574964351952075958251953125" lon="-107.73580812849104404449462890625">
        <ele>3250.199951171875</ele>
        <time>2026-08-15T12:51:54.000Z</time>
        <extensions>
          <ns3:TrackPointExtension>
            <ns3:hr>125</ns3:hr>
            <ns3:cad>0</ns3:cad>
          </ns3:TrackPointExtension>
        </extensions>
      </trkpt>
      <trkpt lat="37.97576338984072208404541015625" lon="-107.73580259643495082855224609375">
        <ele>3250</ele>
        <time>2026-08-15T12:51:57.000Z</time>
        <extensions>
          <ns3:TrackPointExtension>
            <ns3:hr>126</ns3:hr>
            <ns3:cad>0</ns3:cad>
          </ns3:TrackPointExtension>
        </extensions>
      </trkpt>
      <trkpt lat="37.97576288692653179168701171875" lon="-107.73580494336783885955810546875">
        <ele>3250</ele>
        <time>2026-08-15T12:52:02.000Z</time>
        <extensions>
          <ns3:TrackPointExtension>
            <ns3:hr>119</ns3:hr>
            <ns3:cad>0</ns3:cad>
          </ns3:TrackPointExtension>
        </extensions>
      </trkpt>
      <trkpt lat="37.97576288692653179168701171875" lon="-107.73580494336783885955810546875">
        <ele>3249.800048828125</ele>
        <time>2026-08-15T12:52:03.000Z</time>
        <extensions>
          <ns3:TrackPointExtension>
            <ns3:hr>119</ns3:hr>
            <ns3:cad>0</ns3:cad>
          </ns3:TrackPointExtension>
        </extensions>
      </trkpt>
      <trkpt lat="37.97576288692653179168701171875" lon="-107.73580494336783885955810546875">
        <ele>3249.800048828125</ele>
        <time>2026-08-15T12:52:05.000Z</time>
        <extensions>
          <ns3:TrackPointExtension>
            <ns3:hr>113</ns3:hr>
            <ns3:cad>0</ns3:cad>
          </ns3:TrackPointExtension>
        </extensions>
      </trkpt>
      <trkpt lat="37.97576288692653179168701171875" lon="-107.73580494336783885955810546875">
        <ele>3249.800048828125</ele>
        <time>2026-08-15T12:52:06.000Z</time>
        <extensions>
          <ns3:TrackPointExtension>
            <ns3:hr>113</ns3:hr>
            <ns3:cad>0</ns3:cad>
          </ns3:TrackPointExtension>
        </extensions>
      </trkpt>
      <trkpt lat="37.97576288692653179168701171875" lon="-107.73580494336783885955810546875">
        <ele>3249.800048828125</ele>
        <time>2026-08-15T12:52:09.000Z</time>
        <extensions>
          <ns3:TrackPointExtension>
            <ns3:hr>113</ns3:hr>
            <ns3:cad>0</ns3:cad>
          </ns3:TrackPointExtension>
        </extensions>
      </trkpt>
      <trkpt lat="37.97576204873621463775634765625" lon="-107.73581500165164470672607421875">
        <ele>3250.199951171875</ele>
        <time>2026-08-15T12:52:14.000Z</time>
        <extensions>
          <ns3:TrackPointExtension>
            <ns3:hr>112</ns3:hr>
            <ns3:cad>0</ns3:cad>
          </ns3:TrackPointExtension>
        </extensions>
      </trkpt>
      <trkpt lat="37.97577126882970333099365234375" lon="-107.73582355119287967681884765625">
        <ele>3250.800048828125</ele>
        <time>2026-08-15T12:52:16.000Z</time>
        <extensions>
          <ns3:TrackPointExtension>
            <ns3:hr>112</ns3:hr>
            <ns3:cad>0</ns3:cad>
          </ns3:TrackPointExtension>
        </extensions>
      </trkpt>
      <trkpt lat="37.97578476369380950927734375" lon="-107.735836543142795562744140625">
        <ele>3251.39990234375</ele>
        <time>2026-08-15T12:52:19.000Z</time>
        <extensions>
          <ns3:TrackPointExtension>
            <ns3:hr>111</ns3:hr>
            <ns3:cad>0</ns3:cad>
          </ns3:TrackPointExtension>
        </extensions>
      </trkpt>
      <trkpt lat="37.97579004429280757904052734375" lon="-107.7358420751988887786865234375">
        <ele>3251.60009765625</ele>
        <time>2026-08-15T12:52:20.000Z</time>
        <extensions>
          <ns3:TrackPointExtension>
            <ns3:hr>108</ns3:hr>
            <ns3:cad>0</ns3:cad>
          </ns3:TrackPointExtension>
        </extensions>
      </trkpt>
      <trkpt lat="37.97579306177794933319091796875" lon="-107.7358482778072357177734375">
        <ele>3251.800048828125</ele>
        <time>2026-08-15T12:52:21.000Z</time>
        <extensions>
          <ns3:TrackPointExtension>
            <ns3:hr>108</ns3:hr>
            <ns3:cad>0</ns3:cad>
          </ns3:TrackPointExtension>
        </extensions>
      </trkpt>
      <trkpt lat="37.9757996834814548492431640625" lon="-107.73585992865264415740966796875">
        <ele>3252.39990234375</ele>
        <time>2026-08-15T12:52:24.000Z</time>
        <extensions>
          <ns3:TrackPointExtension>
            <ns3:hr>105</ns3:hr>
            <ns3:cad>0</ns3:cad>
          </ns3:TrackPointExtension>
        </extensions>
      </trkpt>
      <trkpt lat="37.975811250507831573486328125" lon="-107.73588557727634906768798828125">
        <ele>3253</ele>
        <time>2026-08-15T12:52:28.000Z</time>
        <extensions>
          <ns3:TrackPointExtension>
            <ns3:hr>104</ns3:hr>
            <ns3:cad>43</ns3:cad>
          </ns3:TrackPointExtension>
        </extensions>
      </trkpt>
      <trkpt lat="37.975820638239383697509765625" lon="-107.7358997426927089691162109375">
        <ele>3253.199951171875</ele>
        <time>2026-08-15T12:52:30.000Z</time>
        <extensions>
          <ns3:TrackPointExtension>
            <ns3:hr>105</ns3:hr>
            <ns3:cad>43</ns3:cad>
          </ns3:TrackPointExtension>
        </extensions>
      </trkpt>
      <trkpt lat="37.9758489690721035003662109375" lon="-107.7359215356409549713134765625">
        <ele>3253.60009765625</ele>
        <time>2026-08-15T12:52:36.000Z</time>
        <extensions>
          <ns3:TrackPointExtension>
            <ns3:hr>106</ns3:hr>
            <ns3:cad>0</ns3:cad>
          </ns3:TrackPointExtension>
        </extensions>
      </trkpt>
      <trkpt lat="37.97585089690983295440673828125" lon="-107.7359252236783504486083984375">
        <ele>3254.199951171875</ele>
        <time>2026-08-15T12:52:40.000Z</time>
        <extensions>
          <ns3:TrackPointExtension>
            <ns3:hr>107</ns3:hr>
            <ns3:cad>0</ns3:cad>
          </ns3:TrackPointExtension>
        </extensions>
      </trkpt>
      <trkpt lat="37.97585944645106792449951171875" lon="-107.7359443344175815582275390625">
        <ele>3255</ele>
        <time>2026-08-15T12:52:43.000Z</time>
        <extensions>
          <ns3:TrackPointExtension>
            <ns3:hr>108</ns3:hr>
            <ns3:cad>0</ns3:cad>
          </ns3:TrackPointExtension>
        </extensions>
      </trkpt>
      <trkpt lat="37.9758583568036556243896484375" lon="-107.73594659753143787384033203125">
        <ele>3255.39990234375</ele>
        <time>2026-08-15T12:52:45.000Z</time>
        <extensions>
          <ns3:TrackPointExtension>
            <ns3:hr>110</ns3:hr>
            <ns3:cad>0</ns3:cad>
          </ns3:TrackPointExtension>
        </extensions>
      </trkpt>
      <trkpt lat="37.975861541926860809326171875" lon="-107.73596570827066898345947265625">
        <ele>3256.199951171875</ele>
        <time>2026-08-15T12:52:49.000Z</time>
        <extensions>
          <ns3:TrackPointExtension>
            <ns3:hr>110</ns3:hr>
            <ns3:cad>0</ns3:cad>
          </ns3:TrackPointExtension>
        </extensions>
      </trkpt>
      <trkpt lat="37.97586657106876373291015625" lon="-107.73596989922225475311279296875">
        <ele>3256.39990234375</ele>
        <time>2026-08-15T12:52:50.000Z</time>
        <extensions>
          <ns3:TrackPointExtension>
            <ns3:hr>110</ns3:hr>
            <ns3:cad>0</ns3:cad>
          </ns3:TrackPointExtension>
        </extensions>
      </trkpt>
      <trkpt lat="37.97587034292519092559814453125" lon="-107.73598984815180301666259765625">
        <ele>3256.800048828125</ele>
        <time>2026-08-15T12:52:54.000Z</time>
        <extensions>
          <ns3:TrackPointExtension>
            <ns3:hr>112</ns3:hr>
            <ns3:cad>0</ns3:cad>
          </ns3:TrackPointExtension>
        </extensions>
      </trkpt>
      <trkpt lat="37.97589817084372043609619140625" lon="-107.7360348589718341827392578125">
        <ele>3257</ele>
        <time>2026-08-15T12:53:00.000Z</time>
        <extensions>
          <ns3:TrackPointExtension>
            <ns3:hr>111</ns3:hr>
            <ns3:cad>0</ns3:cad>
          </ns3:TrackPointExtension>
        </extensions>
      </trkpt>
      <trkpt lat="37.9759223945438861846923828125" lon="-107.73604810237884521484375">
        <ele>3257.199951171875</ele>
        <time>2026-08-15T12:53:06.000Z</time>
        <extensions>
          <ns3:TrackPointExtension>
            <ns3:hr>111</ns3:hr>
            <ns3:cad>0</ns3:cad>
          </ns3:TrackPointExtension>
        </extensions>
      </trkpt>
      <trkpt lat="37.97592616640031337738037109375" lon="-107.73605019785463809967041015625">
        <ele>3257.39990234375</ele>
        <time>2026-08-15T12:53:10.000Z</time>
        <extensions>
          <ns3:TrackPointExtension>
            <ns3:hr>112</ns3:hr>
            <ns3:cad>0</ns3:cad>
          </ns3:TrackPointExtension>
        </extensions>
      </trkpt>
      <trkpt lat="37.9759347997605800628662109375" lon="-107.73605413734912872314453125">
        <ele>3257.800048828125</ele>
        <time>2026-08-15T12:53:12.000Z</time>
        <extensions>
          <ns3:TrackPointExtension>
            <ns3:hr>114</ns3:hr>
            <ns3:cad>0</ns3:cad>
          </ns3:TrackPointExtension>
        </extensions>
      </trkpt>
      <trkpt lat="37.97595399431884288787841796875" lon="-107.73605522699654102325439453125">
        <ele>3258.39990234375</ele>
        <time>2026-08-15T12:53:15.000Z</time>
        <extensions>
          <ns3:TrackPointExtension>
            <ns3:hr>113</ns3:hr>
            <ns3:cad>0</ns3:cad>
          </ns3:TrackPointExtension>
        </extensions>
      </trkpt>
      <trkpt lat="37.975974194705486297607421875" lon="-107.736055143177509307861328125">
        <ele>3259.39990234375</ele>
        <time>2026-08-15T12:53:19.000Z</time>
        <extensions>
          <ns3:TrackPointExtension>
            <ns3:hr>114</ns3:hr>
            <ns3:cad>54</ns3:cad>
          </ns3:TrackPointExtension>
        </extensions>
      </trkpt>
      <trkpt lat="37.975982241332530975341796875" lon="-107.73605690337717533111572265625">
        <ele>3259.60009765625</ele>
        <time>2026-08-15T12:53:20.000Z</time>
        <extensions>
          <ns3:TrackPointExtension>
            <ns3:hr>114</ns3:hr>
            <ns3:cad>0</ns3:cad>
          </ns3:TrackPointExtension>
        </extensions>
      </trkpt>
      <trkpt lat="37.9760008491575717926025390625" lon="-107.73607182316482067108154296875">
        <ele>3260</ele>
        <time>2026-08-15T12:53:23.000Z</time>
        <extensions>
          <ns3:TrackPointExtension>
            <ns3:hr>114</ns3:hr>
            <ns3:cad>50</ns3:cad>
          </ns3:TrackPointExtension>
        </extensions>
      </trkpt>
      <trkpt lat="37.97602507285773754119873046875" lon="-107.7360898442566394805908203125">
        <ele>3260.60009765625</ele>
        <time>2026-08-15T12:53:27.000Z</time>
        <extensions>
          <ns3:TrackPointExtension>
            <ns3:hr>115</ns3:hr>
            <ns3:cad>0</ns3:cad>
          </ns3:TrackPointExtension>
        </extensions>
      </trkpt>
      <trkpt lat="37.97603848390281200408935546875" lon="-107.73609847761690616607666015625">
        <ele>3261</ele>
        <time>2026-08-15T12:53:29.000Z</time>
        <extensions>
          <ns3:TrackPointExtension>
            <ns3:hr>114</ns3:hr>
            <ns3:cad>0</ns3:cad>
          </ns3:TrackPointExtension>
        </extensions>
      </trkpt>
      <trkpt lat="37.97606103122234344482421875" lon="-107.73609512485563755035400390625">
        <ele>3261.199951171875</ele>
        <time>2026-08-15T12:53:32.000Z</time>
        <extensions>
          <ns3:TrackPointExtension>
            <ns3:hr>111</ns3:hr>
            <ns3:cad>0</ns3:cad>
          </ns3:TrackPointExtension>
        </extensions>
      </trkpt>
      <trkpt lat="37.97607804648578166961669921875" lon="-107.7360938675701618194580078125">
        <ele>3261.60009765625</ele>
        <time>2026-08-15T12:53:34.000Z</time>
        <extensions>
          <ns3:TrackPointExtension>
            <ns3:hr>109</ns3:hr>
            <ns3:cad>0</ns3:cad>
          </ns3:TrackPointExtension>
        </extensions>
      </trkpt>
      <trkpt lat="37.97607989050447940826416015625" lon="-107.7360968850553035736083984375">
        <ele>3262</ele>
        <time>2026-08-15T12:53:35.000Z</time>
        <extensions>
          <ns3:TrackPointExtension>
            <ns3:hr>108</ns3:hr>
            <ns3:cad>0</ns3:cad>
          </ns3:TrackPointExtension>
        </extensions>
      </trkpt>
      <trkpt lat="37.97609816305339336395263671875" lon="-107.736092023551464080810546875">
        <ele>3262.800048828125</ele>
        <time>2026-08-15T12:53:38.000Z</time>
        <extensions>
          <ns3:TrackPointExtension>
            <ns3:hr>108</ns3:hr>
            <ns3:cad>0</ns3:cad>
          </ns3:TrackPointExtension>
        </extensions>
      </trkpt>
      <trkpt lat="37.97611325047910213470458984375" lon="-107.7360888384282588958740234375">
        <ele>3263.199951171875</ele>
        <time>2026-08-15T12:53:41.000Z</time>
        <extensions>
          <ns3:TrackPointExtension>
            <ns3:hr>107</ns3:hr>
            <ns3:cad>0</ns3:cad>
          </ns3:TrackPointExtension>
        </extensions>
      </trkpt>
      <trkpt lat="37.976133786141872406005859375" lon="-107.73610451258718967437744140625">
        <ele>3264</ele>
        <time>2026-08-15T12:53:45.000Z</time>
        <extensions>
          <ns3:TrackPointExtension>
            <ns3:hr>107</ns3:hr>
            <ns3:cad>0</ns3:cad>
          </ns3:TrackPointExtension>
        </extensions>
      </trkpt>
      <trkpt lat="37.97614057548344135284423828125" lon="-107.7361084520816802978515625">
        <ele>3264.199951171875</ele>
        <time>2026-08-15T12:53:46.000Z</time>
        <extensions>
          <ns3:TrackPointExtension>
            <ns3:hr>107</ns3:hr>
            <ns3:cad>0</ns3:cad>
          </ns3:TrackPointExtension>
        </extensions>
      </trkpt>
      <trkpt lat="37.97615935094654560089111328125" lon="-107.736117839813232421875">
        <ele>3265.199951171875</ele>
        <time>2026-08-15T12:53:51.000Z</time>
        <extensions>
          <ns3:TrackPointExtension>
            <ns3:hr>108</ns3:hr>
            <ns3:cad>0</ns3:cad>
          </ns3:TrackPointExtension>
        </extensions>
      </trkpt>
      <trkpt lat="37.97618307173252105712890625" lon="-107.736141979694366455078125">
        <ele>3266</ele>
        <time>2026-08-15T12:53:56.000Z</time>
        <extensions>
          <ns3:TrackPointExtension>
            <ns3:hr>108</ns3:hr>
            <ns3:cad>0</ns3:cad>
          </ns3:TrackPointExtension>
        </extensions>
      </trkpt>
      <trkpt lat="37.97619354911148548126220703125" lon="-107.736159749329090118408203125">
        <ele>3266.199951171875</ele>
        <time>2026-08-15T12:53:59.000Z</time>
        <extensions>
          <ns3:TrackPointExtension>
            <ns3:hr>110</ns3:hr>
            <ns3:cad>0</ns3:cad>
          </ns3:TrackPointExtension>
        </extensions>
      </trkpt>
      <trkpt lat="37.97620779834687709808349609375" lon="-107.73618011735379695892333984375">
        <ele>3266.800048828125</ele>
        <time>2026-08-15T12:54:02.000Z</time>
        <extensions>
          <ns3:TrackPointExtension>
            <ns3:hr>112</ns3:hr>
            <ns3:cad>0</ns3:cad>
          </ns3:TrackPointExtension>
        </extensions>
      </trkpt>
      <trkpt lat="37.97620645724236965179443359375" lon="-107.736180536448955535888671875">
        <ele>3267.39990234375</ele>
        <time>2026-08-15T12:54:04.000Z</time>
        <extensions>
          <ns3:TrackPointExtension>
            <ns3:hr>114</ns3:hr>
            <ns3:cad>0</ns3:cad>
          </ns3:TrackPointExtension>
        </extensions>
      </trkpt>
      <trkpt lat="37.97621416859328746795654296875" lon="-107.73620140738785266876220703125">
        <ele>3267.60009765625</ele>
        <time>2026-08-15T12:54:06.000Z</time>
        <extensions>
          <ns3:TrackPointExtension>
            <ns3:hr>114</ns3:hr>
            <ns3:cad>0</ns3:cad>
          </ns3:TrackPointExtension>
        </extensions>
      </trkpt>
      <trkpt lat="37.97623026184737682342529296875" lon="-107.736238539218902587890625">
        <ele>3268.39990234375</ele>
        <time>2026-08-15T12:54:10.000Z</time>
        <extensions>
          <ns3:TrackPointExtension>
            <ns3:hr>115</ns3:hr>
            <ns3:cad>42</ns3:cad>
          </ns3:TrackPointExtension>
        </extensions>
      </trkpt>
      <trkpt lat="37.976245097815990447998046875" lon="-107.73624666966497898101806640625">
        <ele>3268.800048828125</ele>
        <time>2026-08-15T12:54:12.000Z</time>
        <extensions>
          <ns3:TrackPointExtension>
            <ns3:hr>116</ns3:hr>
            <ns3:cad>41</ns3:cad>
          </ns3:TrackPointExtension>
        </extensions>
      </trkpt>
      <trkpt lat="37.97625523991882801055908203125" lon="-107.73626259528100490570068359375">
        <ele>3269.39990234375</ele>
        <time>2026-08-15T12:54:14.000Z</time>
        <extensions>
          <ns3:TrackPointExtension>
            <ns3:hr>116</ns3:hr>
            <ns3:cad>0</ns3:cad>
          </ns3:TrackPointExtension>
        </extensions>
      </trkpt>
      <trkpt lat="37.97627829015254974365234375" lon="-107.7363030798733234405517578125">
        <ele>3270</ele>
        <time>2026-08-15T12:54:18.000Z</time>
        <extensions>
          <ns3:TrackPointExtension>
            <ns3:hr>117</ns3:hr>
            <ns3:cad>0</ns3:cad>
          </ns3:TrackPointExtension>
        </extensions>
      </trkpt>
      <trkpt lat="37.976302094757556915283203125" lon="-107.7363429777324199676513671875">
        <ele>3270.39990234375</ele>
        <time>2026-08-15T12:54:23.000Z</time>
        <extensions>
          <ns3:TrackPointExtension>
            <ns3:hr>116</ns3:hr>
            <ns3:cad>0</ns3:cad>
          </ns3:TrackPointExtension>
        </extensions>
      </trkpt>
      <trkpt lat="37.97630704008042812347412109375" lon="-107.73635311983525753021240234375">
        <ele>3270.60009765625</ele>
        <time>2026-08-15T12:54:24.000Z</time>
        <extensions>
          <ns3:TrackPointExtension>
            <ns3:hr>116</ns3:hr>
            <ns3:cad>0</ns3:cad>
          </ns3:TrackPointExtension>
        </extensions>
      </trkpt>
      <trkpt lat="37.976321540772914886474609375" lon="-107.73638362996280193328857421875">
        <ele>3271.199951171875</ele>
        <time>2026-08-15T12:54:28.000Z</time>
        <extensions>
          <ns3:TrackPointExtension>
            <ns3:hr>114</ns3:hr>
            <ns3:cad>47</ns3:cad>
          </ns3:TrackPointExtension>
        </extensions>
      </trkpt>
      <trkpt lat="37.97631894238293170928955078125" lon="-107.73639251478016376495361328125">
        <ele>3271.39990234375</ele>
        <time>2026-08-15T12:54:29.000Z</time>
        <extensions>
          <ns3:TrackPointExtension>
            <ns3:hr>115</ns3:hr>
            <ns3:cad>47</ns3:cad>
          </ns3:TrackPointExtension>
        </extensions>
      </trkpt>
      <trkpt lat="37.976319529116153717041015625" lon="-107.73640559054911136627197265625">
        <ele>3271.60009765625</ele>
        <time>2026-08-15T12:54:30.000Z</time>
        <extensions>
          <ns3:TrackPointExtension>
            <ns3:hr>115</ns3:hr>
            <ns3:cad>0</ns3:cad>
          </ns3:TrackPointExtension>
        </extensions>
      </trkpt>
      <trkpt lat="37.97632179223001003265380859375" lon="-107.7364324964582920074462890625">
        <ele>3272.199951171875</ele>
        <time>2026-08-15T12:54:33.000Z</time>
        <extensions>
          <ns3:TrackPointExtension>
            <ns3:hr>114</ns3:hr>
            <ns3:cad>0</ns3:cad>
          </ns3:TrackPointExtension>
        </extensions>
      </trkpt>
      <trkpt lat="37.9763331077992916107177734375" lon="-107.736441381275653839111328125">
        <ele>3272.800048828125</ele>
        <time>2026-08-15T12:54:35.000Z</time>
        <extensions>
          <ns3:TrackPointExtension>
            <ns3:hr>115</ns3:hr>
            <ns3:cad>0</ns3:cad>
          </ns3:TrackPointExtension>
        </extensions>
      </trkpt>
      <trkpt lat="37.97634894959628582000732421875" lon="-107.73645521141588687896728515625">
        <ele>3273.39990234375</ele>
        <time>2026-08-15T12:54:37.000Z</time>
        <extensions>
          <ns3:TrackPointExtension>
            <ns3:hr>115</ns3:hr>
            <ns3:cad>0</ns3:cad>
          </ns3:TrackPointExtension>
        </extensions>
      </trkpt>
      <trkpt lat="37.976385243237018585205078125" lon="-107.7365035749971866607666015625">
        <ele>3274</ele>
        <time>2026-08-15T12:54:43.000Z</time>
        <extensions>
          <ns3:TrackPointExtension>
            <ns3:hr>114</ns3:hr>
            <ns3:cad>41</ns3:cad>
          </ns3:TrackPointExtension>
        </extensions>
      </trkpt>
      <trkpt lat="37.976411394774913787841796875" lon="-107.73653198964893817901611328125">
        <ele>3274.60009765625</ele>
        <time>2026-08-15T12:54:47.000Z</time>
        <extensions>
          <ns3:TrackPointExtension>
            <ns3:hr>122</ns3:hr>
            <ns3:cad>15</ns3:cad>
          </ns3:TrackPointExtension>
        </extensions>
      </trkpt>
      <trkpt lat="37.976422794163227081298828125" lon="-107.736537270247936248779296875">
        <ele>3274.60009765625</ele>
        <time>2026-08-15T12:54:48.000Z</time>
        <extensions>
          <ns3:TrackPointExtension>
            <ns3:hr>122</ns3:hr>
            <ns3:cad>0</ns3:cad>
          </ns3:TrackPointExtension>
        </extensions>
      </trkpt>
      <trkpt lat="37.97642958350479602813720703125" lon="-107.73653986863791942596435546875">
        <ele>3274.800048828125</ele>
        <time>2026-08-15T12:54:49.000Z</time>
        <extensions>
          <ns3:TrackPointExtension>
            <ns3:hr>124</ns3:hr>
            <ns3:cad>0</ns3:cad>
          </ns3:TrackPointExtension>
        </extensions>
      </trkpt>
      <trkpt lat="37.976439893245697021484375" lon="-107.736544311046600341796875">
        <ele>3275</ele>
        <time>2026-08-15T12:54:50.000Z</time>
        <extensions>
          <ns3:TrackPointExtension>
            <ns3:hr>127</ns3:hr>
            <ns3:cad>0</ns3:cad>
          </ns3:TrackPointExtension>
        </extensions>
      </trkpt>
      <trkpt lat="37.97644651494920253753662109375" lon="-107.7365441434085369110107421875">
        <ele>3275</ele>
        <time>2026-08-15T12:54:51.000Z</time>
        <extensions>
          <ns3:TrackPointExtension>
            <ns3:hr>127</ns3:hr>
            <ns3:cad>77</ns3:cad>
          </ns3:TrackPointExtension>
        </extensions>
      </trkpt>
      <trkpt lat="37.97646696679294109344482421875" lon="-107.73656317032873630523681640625">
        <ele>3275.800048828125</ele>
        <time>2026-08-15T12:54:55.000Z</time>
        <extensions>
          <ns3:TrackPointExtension>
            <ns3:hr>126</ns3:hr>
            <ns3:cad>0</ns3:cad>
          </ns3:TrackPointExtension>
        </extensions>
      </trkpt>
      <trkpt lat="37.9764739237725734710693359375" lon="-107.736567445099353790283203125">
        <ele>3276.199951171875</ele>
        <time>2026-08-15T12:54:56.000Z</time>
        <extensions>
          <ns3:TrackPointExtension>
            <ns3:hr>126</ns3:hr>
            <ns3:cad>0</ns3:cad>
          </ns3:TrackPointExtension>
        </extensions>
      </trkpt>
      <trkpt lat="37.97650896012783050537109375" lon="-107.73657255806028842926025390625">
        <ele>3276.60009765625</ele>
        <time>2026-08-15T12:55:01.000Z</time>
        <extensions>
          <ns3:TrackPointExtension>
            <ns3:hr>126</ns3:hr>
            <ns3:cad>44</ns3:cad>
          </ns3:TrackPointExtension>
        </extensions>
      </trkpt>
      <trkpt lat="37.9765191860496997833251953125" lon="-107.736572138965129852294921875">
        <ele>3277.199951171875</ele>
        <time>2026-08-15T12:55:03.000Z</time>
        <extensions>
          <ns3:TrackPointExtension>
            <ns3:hr>126</ns3:hr>
            <ns3:cad>44</ns3:cad>
          </ns3:TrackPointExtension>
        </extensions>
      </trkpt>
      <trkpt lat="37.97653569839894771575927734375" lon="-107.73658228106796741485595703125">
        <ele>3278.199951171875</ele>
        <time>2026-08-15T12:55:06.000Z</time>
        <extensions>
          <ns3:TrackPointExtension>
            <ns3:hr>125</ns3:hr>
            <ns3:cad>0</ns3:cad>
          </ns3:TrackPointExtension>
        </extensions>
      </trkpt>
      <trkpt lat="37.97657123766839504241943359375" lon="-107.736590243875980377197265625">
        <ele>3279</ele>
        <time>2026-08-15T12:55:12.000Z</time>
        <extensions>
          <ns3:TrackPointExtension>
            <ns3:hr>124</ns3:hr>
            <ns3:cad>0</ns3:cad>
          </ns3:TrackPointExtension>
        </extensions>
      </trkpt>
      <trkpt lat="37.976583726704120635986328125" lon="-107.73660256527364253997802734375">
        <ele>3279.39990234375</ele>
        <time>2026-08-15T12:55:15.000Z</time>
        <extensions>
          <ns3:TrackPointExtension>
            <ns3:hr>123</ns3:hr>
            <ns3:cad>0</ns3:cad>
          </ns3:TrackPointExtension>
        </extensions>
      </trkpt>
      <trkpt lat="37.9765865765511989593505859375" lon="-107.7366073429584503173828125">
        <ele>3280.199951171875</ele>
        <time>2026-08-15T12:55:17.000Z</time>
        <extensions>
          <ns3:TrackPointExtension>
            <ns3:hr>118</ns3:hr>
            <ns3:cad>0</ns3:cad>
          </ns3:TrackPointExtension>
        </extensions>
      </trkpt>
      <trkpt lat="37.9765902645885944366455078125" lon="-107.7366101928055286407470703125">
        <ele>3280.39990234375</ele>
        <time>2026-08-15T12:55:18.000Z</time>
        <extensions>
          <ns3:TrackPointExtension>
            <ns3:hr>118</ns3:hr>
            <ns3:cad>41</ns3:cad>
          </ns3:TrackPointExtension>
        </extensions>
      </trkpt>
      <trkpt lat="37.9765949584543704986572265625" lon="-107.73661832325160503387451171875">
        <ele>3280.60009765625</ele>
        <time>2026-08-15T12:55:19.000Z</time>
        <extensions>
          <ns3:TrackPointExtension>
            <ns3:hr>113</ns3:hr>
            <ns3:cad>40</ns3:cad>
          </ns3:TrackPointExtension>
        </extensions>
      </trkpt>
      <trkpt lat="37.97661063261330127716064453125" lon="-107.73664422333240509033203125">
        <ele>3281.60009765625</ele>
        <time>2026-08-15T12:55:25.000Z</time>
        <extensions>
          <ns3:TrackPointExtension>
            <ns3:hr>110</ns3:hr>
            <ns3:cad>0</ns3:cad>
          </ns3:TrackPointExtension>
        </extensions>
      </trkpt>
      <trkpt lat="37.97661918215453624725341796875" lon="-107.73665763437747955322265625">
        <ele>3281.60009765625</ele>
        <time>2026-08-15T12:55:27.000Z</time>
        <extensions>
          <ns3:TrackPointExtension>
            <ns3:hr>111</ns3:hr>
            <ns3:cad>0</ns3:cad>
          </ns3:TrackPointExtension>
        </extensions>
      </trkpt>
      <trkpt lat="37.9766318388283252716064453125" lon="-107.7366695366799831390380859375">
        <ele>3282.199951171875</ele>
        <time>2026-08-15T12:55:30.000Z</time>
        <extensions>
          <ns3:TrackPointExtension>
            <ns3:hr>106</ns3:hr>
            <ns3:cad>0</ns3:cad>
          </ns3:TrackPointExtension>
        </extensions>
      </trkpt>
      <trkpt lat="37.97663728706538677215576171875" lon="-107.7366752363741397857666015625">
        <ele>3282.39990234375</ele>
        <time>2026-08-15T12:55:31.000Z</time>
        <extensions>
          <ns3:TrackPointExtension>
            <ns3:hr>106</ns3:hr>
            <ns3:cad>0</ns3:cad>
          </ns3:TrackPointExtension>
        </extensions>
      </trkpt>
      <trkpt lat="37.97665178775787353515625" lon="-107.73669208399951457977294921875">
        <ele>3282.60009765625</ele>
        <time>2026-08-15T12:55:33.000Z</time>
        <extensions>
          <ns3:TrackPointExtension>
            <ns3:hr>105</ns3:hr>
            <ns3:cad>0</ns3:cad>
          </ns3:TrackPointExtension>
        </extensions>
      </trkpt>
      <trkpt lat="37.9766764305531978607177734375" lon="-107.73670817725360393524169921875">
        <ele>3282.800048828125</ele>
        <time>2026-08-15T12:55:37.000Z</time>
        <extensions>
          <ns3:TrackPointExtension>
            <ns3:hr>106</ns3:hr>
            <ns3:cad>62</ns3:cad>
          </ns3:TrackPointExtension>
        </extensions>
      </trkpt>
      <trkpt lat="37.976684980094432830810546875" lon="-107.736718989908695220947265625">
        <ele>3283.199951171875</ele>
        <time>2026-08-15T12:55:39.000Z</time>
        <extensions>
          <ns3:TrackPointExtension>
            <ns3:hr>106</ns3:hr>
            <ns3:cad>62</ns3:cad>
          </ns3:TrackPointExtension>
        </extensions>
      </trkpt>
      <trkpt lat="37.97669394873082637786865234375" lon="-107.7367295511066913604736328125">
        <ele>3283.800048828125</ele>
        <time>2026-08-15T12:55:41.000Z</time>
        <extensions>
          <ns3:TrackPointExtension>
            <ns3:hr>106</ns3:hr>
            <ns3:cad>43</ns3:cad>
          </ns3:TrackPointExtension>
        </extensions>
      </trkpt>
      <trkpt lat="37.97672278247773647308349609375" lon="-107.73676358163356781005859375">
        <ele>3285</ele>
        <time>2026-08-15T12:55:47.000Z</time>
        <extensions>
          <ns3:TrackPointExtension>
            <ns3:hr>106</ns3:hr>
            <ns3:cad>43</ns3:cad>
          </ns3:TrackPointExtension>
        </extensions>
      </trkpt>
      <trkpt lat="37.97676066868007183074951171875" lon="-107.73679015226662158966064453125">
        <ele>3285.199951171875</ele>
        <time>2026-08-15T12:55:52.000Z</time>
        <extensions>
          <ns3:TrackPointExtension>
            <ns3:hr>106</ns3:hr>
            <ns3:cad>43</ns3:cad>
          </ns3:TrackPointExtension>
        </extensions>
      </trkpt>
      <trkpt lat="37.9767931066453456878662109375" lon="-107.73680649697780609130859375">
        <ele>3285.60009765625</ele>
        <time>2026-08-15T12:55:56.000Z</time>
        <extensions>
          <ns3:TrackPointExtension>
            <ns3:hr>112</ns3:hr>
            <ns3:cad>0</ns3:cad>
          </ns3:TrackPointExtension>
        </extensions>
      </trkpt>
      <trkpt lat="37.976796291768550872802734375" lon="-107.736808843910694122314453125">
        <ele>3285.39990234375</ele>
        <time>2026-08-15T12:55:57.000Z</time>
        <extensions>
          <ns3:TrackPointExtension>
            <ns3:hr>121</ns3:hr>
            <ns3:cad>0</ns3:cad>
          </ns3:TrackPointExtension>
        </extensions>
      </trkpt>
      <trkpt lat="37.9768018238246440887451171875" lon="-107.73681160993874073028564453125">
        <ele>3285.39990234375</ele>
        <time>2026-08-15T12:55:58.000Z</time>
        <extensions>
          <ns3:TrackPointExtension>
            <ns3:hr>126</ns3:hr>
            <ns3:cad>0</ns3:cad>
          </ns3:TrackPointExtension>
        </extensions>
      </trkpt>
      <trkpt lat="37.9768108762800693511962890625" lon="-107.73681261576712131500244140625">
        <ele>3285.60009765625</ele>
        <time>2026-08-15T12:56:00.000Z</time>
        <extensions>
          <ns3:TrackPointExtension>
            <ns3:hr>129</ns3:hr>
            <ns3:cad>0</ns3:cad>
          </ns3:TrackPointExtension>
        </extensions>
      </trkpt>
      <trkpt lat="37.976819761097431182861328125" lon="-107.73681730963289737701416015625">
        <ele>3286</ele>
        <time>2026-08-15T12:56:02.000Z</time>
        <extensions>
          <ns3:TrackPointExtension>
            <ns3:hr>129</ns3:hr>
            <ns3:cad>0</ns3:cad>
          </ns3:TrackPointExtension>
        </extensions>
      </trkpt>
      <trkpt lat="37.97683350741863250732421875" lon="-107.7368190698325634002685546875">
        <ele>3287.199951171875</ele>
        <time>2026-08-15T12:56:06.000Z</time>
        <extensions>
          <ns3:TrackPointExtension>
            <ns3:hr>129</ns3:hr>
            <ns3:cad>0</ns3:cad>
          </ns3:TrackPointExtension>
        </extensions>
      </trkpt>
      <trkpt lat="37.97683292068541049957275390625" lon="-107.73681588470935821533203125">
        <ele>3287.39990234375</ele>
        <time>2026-08-15T12:56:12.000Z</time>
        <extensions>
          <ns3:TrackPointExtension>
            <ns3:hr>131</ns3:hr>
            <ns3:cad>0</ns3:cad>
          </ns3:TrackPointExtension>
        </extensions>
      </trkpt>
      <trkpt lat="37.97683292068541049957275390625" lon="-107.73681588470935821533203125">
        <ele>3287.39990234375</ele>
        <time>2026-08-15T12:56:13.000Z</time>
        <extensions>
          <ns3:TrackPointExtension>
            <ns3:hr>131</ns3:hr>
            <ns3:cad>0</ns3:cad>
          </ns3:TrackPointExtension>
        </extensions>
      </trkpt>
      <trkpt lat="37.97683292068541049957275390625" lon="-107.73681588470935821533203125">
        <ele>3287.199951171875</ele>
        <time>2026-08-15T12:56:16.000Z</time>
        <extensions>
          <ns3:TrackPointExtension>
            <ns3:hr>128</ns3:hr>
            <ns3:cad>0</ns3:cad>
          </ns3:TrackPointExtension>
        </extensions>
      </trkpt>
      <trkpt lat="37.97683292068541049957275390625" lon="-107.73681588470935821533203125">
        <ele>3287.199951171875</ele>
        <time>2026-08-15T12:56:17.000Z</time>
        <extensions>
          <ns3:TrackPointExtension>
            <ns3:hr>125</ns3:hr>
            <ns3:cad>0</ns3:cad>
          </ns3:TrackPointExtension>
        </extensions>
      </trkpt>
      <trkpt lat="37.97683292068541049957275390625" lon="-107.73681588470935821533203125">
        <ele>3287</ele>
        <time>2026-08-15T12:56:19.000Z</time>
        <extensions>
          <ns3:TrackPointExtension>
            <ns3:hr>121</ns3:hr>
            <ns3:cad>0</ns3:cad>
          </ns3:TrackPointExtension>
        </extensions>
      </trkpt>
      <trkpt lat="37.97683292068541049957275390625" lon="-107.73681588470935821533203125">
        <ele>3287</ele>
        <time>2026-08-15T12:56:22.000Z</time>
        <extensions>
          <ns3:TrackPointExtension>
            <ns3:hr>118</ns3:hr>
            <ns3:cad>0</ns3:cad>
          </ns3:TrackPointExtension>
        </extensions>
      </trkpt>
      <trkpt lat="37.97683292068541049957275390625" lon="-107.73681588470935821533203125">
        <ele>3287.199951171875</ele>
        <time>2026-08-15T12:56:27.000Z</time>
        <extensions>
          <ns3:TrackPointExtension>
            <ns3:hr>115</ns3:hr>
            <ns3:cad>0</ns3:cad>
          </ns3:TrackPointExtension>
        </extensions>
      </trkpt>
      <trkpt lat="37.97683292068541049957275390625" lon="-107.73681588470935821533203125">
        <ele>3287.199951171875</ele>
        <time>2026-08-15T12:56:31.000Z</time>
        <extensions>
          <ns3:TrackPointExtension>
            <ns3:hr>114</ns3:hr>
            <ns3:cad>0</ns3:cad>
          </ns3:TrackPointExtension>
        </extensions>
      </trkpt>
      <trkpt lat="37.97682755626738071441650390625" lon="-107.736788056790828704833984375">
        <ele>3287.199951171875</ele>
        <time>2026-08-15T12:56:36.000Z</time>
        <extensions>
          <ns3:TrackPointExtension>
            <ns3:hr>113</ns3:hr>
            <ns3:cad>0</ns3:cad>
          </ns3:TrackPointExtension>
        </extensions>
      </trkpt>
      <trkpt lat="37.976833172142505645751953125" lon="-107.7367513440549373626708984375">
        <ele>3288.199951171875</ele>
        <time>2026-08-15T12:56:41.000Z</time>
        <extensions>
          <ns3:TrackPointExtension>
            <ns3:hr>111</ns3:hr>
            <ns3:cad>0</ns3:cad>
          </ns3:TrackPointExtension>
        </extensions>
      </trkpt>
      <trkpt lat="37.9768336750566959381103515625" lon="-107.7367359213531017303466796875">
        <ele>3288.60009765625</ele>
        <time>2026-08-15T12:56:42.000Z</time>
        <extensions>
          <ns3:TrackPointExtension>
            <ns3:hr>110</ns3:hr>
            <ns3:cad>0</ns3:cad>
          </ns3:TrackPointExtension>
        </extensions>
      </trkpt>
      <trkpt lat="37.97683677636086940765380859375" lon="-107.73671940900385379791259765625">
        <ele>3289.39990234375</ele>
        <time>2026-08-15T12:56:44.000Z</time>
        <extensions>
          <ns3:TrackPointExtension>
            <ns3:hr>111</ns3:hr>
            <ns3:cad>41</ns3:cad>
          </ns3:TrackPointExtension>
        </extensions>
      </trkpt>
      <trkpt lat="37.97683811746537685394287109375" lon="-107.73668169043958187103271484375">
        <ele>3289.800048828125</ele>
        <time>2026-08-15T12:56:48.000Z</time>
        <extensions>
          <ns3:TrackPointExtension>
            <ns3:hr>111</ns3:hr>
            <ns3:cad>44</ns3:cad>
          </ns3:TrackPointExtension>
        </extensions>
      </trkpt>
      <trkpt lat="37.97683493234217166900634765625" lon="-107.7366594783961772918701171875">
        <ele>3290.39990234375</ele>
        <time>2026-08-15T12:56:51.000Z</time>
        <extensions>
          <ns3:TrackPointExtension>
            <ns3:hr>111</ns3:hr>
            <ns3:cad>44</ns3:cad>
          </ns3:TrackPointExtension>
        </extensions>
      </trkpt>
      <trkpt lat="37.9768221080303192138671875" lon="-107.73663776926696300506591796875">
        <ele>3291.199951171875</ele>
        <time>2026-08-15T12:56:54.000Z</time>
        <extensions>
          <ns3:TrackPointExtension>
            <ns3:hr>110</ns3:hr>
            <ns3:cad>0</ns3:cad>
          </ns3:TrackPointExtension>
        </extensions>
      </trkpt>
      <trkpt lat="37.9768185876309871673583984375" lon="-107.73661647923290729522705078125">
        <ele>3291.39990234375</ele>
        <time>2026-08-15T12:56:56.000Z</time>
        <extensions>
          <ns3:TrackPointExtension>
            <ns3:hr>110</ns3:hr>
            <ns3:cad>45</ns3:cad>
          </ns3:TrackPointExtension>
        </extensions>
      </trkpt>
      <trkpt lat="37.9768169112503528594970703125" lon="-107.73657582700252532958984375">
        <ele>3292</ele>
        <time>2026-08-15T12:57:01.000Z</time>
        <extensions>
          <ns3:TrackPointExtension>
            <ns3:hr>110</ns3:hr>
            <ns3:cad>47</ns3:cad>
          </ns3:TrackPointExtension>
        </extensions>
      </trkpt>
      <trkpt lat="37.9768159054219722747802734375" lon="-107.7365528605878353118896484375">
        <ele>3292.60009765625</ele>
        <time>2026-08-15T12:57:04.000Z</time>
        <extensions>
          <ns3:TrackPointExtension>
            <ns3:hr>111</ns3:hr>
            <ns3:cad>0</ns3:cad>
          </ns3:TrackPointExtension>
        </extensions>
      </trkpt>
      <trkpt lat="37.976814396679401397705078125" lon="-107.736525200307369232177734375">
        <ele>3293.60009765625</ele>
        <time>2026-08-15T12:57:07.000Z</time>
        <extensions>
          <ns3:TrackPointExtension>
            <ns3:hr>112</ns3:hr>
            <ns3:cad>0</ns3:cad>
          </ns3:TrackPointExtension>
        </extensions>
      </trkpt>
      <trkpt lat="37.976816408336162567138671875" lon="-107.73652008734643459320068359375">
        <ele>3293.800048828125</ele>
        <time>2026-08-15T12:57:08.000Z</time>
        <extensions>
          <ns3:TrackPointExtension>
            <ns3:hr>112</ns3:hr>
            <ns3:cad>0</ns3:cad>
          </ns3:TrackPointExtension>
        </extensions>
      </trkpt>
      <trkpt lat="37.97680693678557872772216796875" lon="-107.736468873918056488037109375">
        <ele>3294.60009765625</ele>
        <time>2026-08-15T12:57:13.000Z</time>
        <extensions>
          <ns3:TrackPointExtension>
            <ns3:hr>115</ns3:hr>
            <ns3:cad>0</ns3:cad>
          </ns3:TrackPointExtension>
        </extensions>
      </trkpt>
      <trkpt lat="37.97680408693850040435791015625" lon="-107.7364573068916797637939453125">
        <ele>3294.800048828125</ele>
        <time>2026-08-15T12:57:14.000Z</time>
        <extensions>
          <ns3:TrackPointExtension>
            <ns3:hr>116</ns3:hr>
            <ns3:cad>0</ns3:cad>
          </ns3:TrackPointExtension>
        </extensions>
      </trkpt>
      <trkpt lat="37.97679536975920200347900390625" lon="-107.7364003099501132965087890625">
        <ele>3295</ele>
        <time>2026-08-15T12:57:19.000Z</time>
        <extensions>
          <ns3:TrackPointExtension>
            <ns3:hr>118</ns3:hr>
            <ns3:cad>0</ns3:cad>
          </ns3:TrackPointExtension>
        </extensions>
      </trkpt>
      <trkpt lat="37.97678145579993724822998046875" lon="-107.73635127581655979156494140625">
        <ele>3295.800048828125</ele>
        <time>2026-08-15T12:57:24.000Z</time>
        <extensions>
          <ns3:TrackPointExtension>
            <ns3:hr>119</ns3:hr>
            <ns3:cad>0</ns3:cad>
          </ns3:TrackPointExtension>
        </extensions>
      </trkpt>
      <trkpt lat="37.976777516305446624755859375" lon="-107.7362866513431072235107421875">
        <ele>3296.60009765625</ele>
        <time>2026-08-15T12:57:30.000Z</time>
        <extensions>
          <ns3:TrackPointExtension>
            <ns3:hr>120</ns3:hr>
            <ns3:cad>0</ns3:cad>
          </ns3:TrackPointExtension>
        </extensions>
      </trkpt>
      <trkpt lat="37.97677726484835147857666015625" lon="-107.7362832985818386077880859375">
        <ele>3296.800048828125</ele>
        <time>2026-08-15T12:57:31.000Z</time>
        <extensions>
          <ns3:TrackPointExtension>
            <ns3:hr>120</ns3:hr>
            <ns3:cad>0</ns3:cad>
          </ns3:TrackPointExtension>
        </extensions>
      </trkpt>
      <trkpt lat="37.97677810303866863250732421875" lon="-107.73626762442290782928466796875">
        <ele>3296.800048828125</ele>
        <time>2026-08-15T12:57:32.000Z</time>
        <extensions>
          <ns3:TrackPointExtension>
            <ns3:hr>120</ns3:hr>
            <ns3:cad>0</ns3:cad>
          </ns3:TrackPointExtension>
        </extensions>
      </trkpt>
      <trkpt lat="37.9767827130854129791259765625" lon="-107.73623024113476276397705078125">
        <ele>3297.60009765625</ele>
        <time>2026-08-15T12:57:35.000Z</time>
        <extensions>
          <ns3:TrackPointExtension>
            <ns3:hr>115</ns3:hr>
            <ns3:cad>48</ns3:cad>
          </ns3:TrackPointExtension>
        </extensions>
      </trkpt>
      <trkpt lat="37.9767810367047786712646484375" lon="-107.73622655309736728668212890625">
        <ele>3297.800048828125</ele>
        <time>2026-08-15T12:57:36.000Z</time>
        <extensions>
          <ns3:TrackPointExtension>
            <ns3:hr>115</ns3:hr>
            <ns3:cad>48</ns3:cad>
          </ns3:TrackPointExtension>
        </extensions>
      </trkpt>
      <trkpt lat="37.97678078524768352508544921875" lon="-107.73621104657649993896484375">
        <ele>3298</ele>
        <time>2026-08-15T12:57:37.000Z</time>
        <extensions>
          <ns3:TrackPointExtension>
            <ns3:hr>114</ns3:hr>
            <ns3:cad>48</ns3:cad>
          </ns3:TrackPointExtension>
        </extensions>
      </trkpt>
      <trkpt lat="37.976778186857700347900390625" lon="-107.73617215454578399658203125">
        <ele>3298.800048828125</ele>
        <time>2026-08-15T12:57:41.000Z</time>
        <extensions>
          <ns3:TrackPointExtension>
            <ns3:hr>112</ns3:hr>
            <ns3:cad>47</ns3:cad>
          </ns3:TrackPointExtension>
        </extensions>
      </trkpt>
      <trkpt lat="37.9767786897718906402587890625" lon="-107.73616452701389789581298828125">
        <ele>3299</ele>
        <time>2026-08-15T12:57:42.000Z</time>
        <extensions>
          <ns3:TrackPointExtension>
            <ns3:hr>112</ns3:hr>
            <ns3:cad>47</ns3:cad>
          </ns3:TrackPointExtension>
        </extensions>
      </trkpt>
      <trkpt lat="37.97677516937255859375" lon="-107.73612094111740589141845703125">
        <ele>3300.199951171875</ele>
        <time>2026-08-15T12:57:47.000Z</time>
        <extensions>
          <ns3:TrackPointExtension>
            <ns3:hr>113</ns3:hr>
            <ns3:cad>0</ns3:cad>
          </ns3:TrackPointExtension>
        </extensions>
      </trkpt>
      <trkpt lat="37.97677173279225826263427734375" lon="-107.7360777743160724639892578125">
        <ele>3301.199951171875</ele>
        <time>2026-08-15T12:57:52.000Z</time>
        <extensions>
          <ns3:TrackPointExtension>
            <ns3:hr>115</ns3:hr>
            <ns3:cad>47</ns3:cad>
          </ns3:TrackPointExtension>
        </extensions>
      </trkpt>
      <trkpt lat="37.976768799126148223876953125" lon="-107.73602488450706005096435546875">
        <ele>3302.199951171875</ele>
        <time>2026-08-15T12:57:58.000Z</time>
        <extensions>
          <ns3:TrackPointExtension>
            <ns3:hr>118</ns3:hr>
            <ns3:cad>0</ns3:cad>
          </ns3:TrackPointExtension>
        </extensions>
      </trkpt>
      <trkpt lat="37.97677357681095600128173828125" lon="-107.7359872497618198394775390625">
        <ele>3302.800048828125</ele>
        <time>2026-08-15T12:58:02.000Z</time>
        <extensions>
          <ns3:TrackPointExtension>
            <ns3:hr>121</ns3:hr>
            <ns3:cad>0</ns3:cad>
          </ns3:TrackPointExtension>
        </extensions>
      </trkpt>
      <trkpt lat="37.97677257098257541656494140625" lon="-107.73596252314746379852294921875">
        <ele>3303.39990234375</ele>
        <time>2026-08-15T12:58:04.000Z</time>
        <extensions>
          <ns3:TrackPointExtension>
            <ns3:hr>123</ns3:hr>
            <ns3:cad>0</ns3:cad>
          </ns3:TrackPointExtension>
        </extensions>
      </trkpt>
      <trkpt lat="37.97677357681095600128173828125" lon="-107.73595581762492656707763671875">
        <ele>3303.60009765625</ele>
        <time>2026-08-15T12:58:05.000Z</time>
        <extensions>
          <ns3:TrackPointExtension>
            <ns3:hr>122</ns3:hr>
            <ns3:cad>0</ns3:cad>
          </ns3:TrackPointExtension>
        </extensions>
      </trkpt>
      <trkpt lat="37.97676452435553073883056640625" lon="-107.735927402973175048828125">
        <ele>3304.39990234375</ele>
        <time>2026-08-15T12:58:09.000Z</time>
        <extensions>
          <ns3:TrackPointExtension>
            <ns3:hr>123</ns3:hr>
            <ns3:cad>0</ns3:cad>
          </ns3:TrackPointExtension>
        </extensions>
      </trkpt>
      <trkpt lat="37.97676268033683300018310546875" lon="-107.73591256700456142425537109375">
        <ele>3304.800048828125</ele>
        <time>2026-08-15T12:58:11.000Z</time>
        <extensions>
          <ns3:TrackPointExtension>
            <ns3:hr>124</ns3:hr>
            <ns3:cad>0</ns3:cad>
          </ns3:TrackPointExtension>
        </extensions>
      </trkpt>
      <trkpt lat="37.97676133923232555389404296875" lon="-107.73588784039020538330078125">
        <ele>3305.60009765625</ele>
        <time>2026-08-15T12:58:16.000Z</time>
        <extensions>
          <ns3:TrackPointExtension>
            <ns3:hr>117</ns3:hr>
            <ns3:cad>0</ns3:cad>
          </ns3:TrackPointExtension>
        </extensions>
      </trkpt>
      <trkpt lat="37.97675731591880321502685546875" lon="-107.73586378432810306549072265625">
        <ele>3306</ele>
        <time>2026-08-15T12:58:18.000Z</time>
        <extensions>
          <ns3:TrackPointExtension>
            <ns3:hr>114</ns3:hr>
            <ns3:cad>43</ns3:cad>
          </ns3:TrackPointExtension>
        </extensions>
      </trkpt>
      <trkpt lat="37.976764105260372161865234375" lon="-107.735825479030609130859375">
        <ele>3306.60009765625</ele>
        <time>2026-08-15T12:58:22.000Z</time>
        <extensions>
          <ns3:TrackPointExtension>
            <ns3:hr>111</ns3:hr>
            <ns3:cad>46</ns3:cad>
          </ns3:TrackPointExtension>
        </extensions>
      </trkpt>
      <trkpt lat="37.9767632670700550079345703125" lon="-107.7358172647655010223388671875">
        <ele>3306.800048828125</ele>
        <time>2026-08-15T12:58:23.000Z</time>
        <extensions>
          <ns3:TrackPointExtension>
            <ns3:hr>111</ns3:hr>
            <ns3:cad>0</ns3:cad>
          </ns3:TrackPointExtension>
        </extensions>
      </trkpt>
      <trkpt lat="37.9767622612416744232177734375" lon="-107.7357585914433002471923828125">
        <ele>3307.800048828125</ele>
        <time>2026-08-15T12:58:29.000Z</time>
        <extensions>
          <ns3:TrackPointExtension>
            <ns3:hr>111</ns3:hr>
            <ns3:cad>0</ns3:cad>
          </ns3:TrackPointExtension>
        </extensions>
      </trkpt>
      <trkpt lat="37.97676016576588153839111328125" lon="-107.73570704273879528045654296875">
        <ele>3308.800048828125</ele>
        <time>2026-08-15T12:58:35.000Z</time>
        <extensions>
          <ns3:TrackPointExtension>
            <ns3:hr>112</ns3:hr>
            <ns3:cad>0</ns3:cad>
          </ns3:TrackPointExtension>
        </extensions>
      </trkpt>
      <trkpt lat="37.97676184214651584625244140625" lon="-107.73570184595882892608642578125">
        <ele>3308.800048828125</ele>
        <time>2026-08-15T12:58:36.000Z</time>
        <extensions>
          <ns3:TrackPointExtension>
            <ns3:hr>112</ns3:hr>
            <ns3:cad>0</ns3:cad>
          </ns3:TrackPointExtension>
        </extensions>
      </trkpt>
      <trkpt lat="37.97676200978457927703857421875" lon="-107.73568424396216869354248046875">
        <ele>3309</ele>
        <time>2026-08-15T12:58:39.000Z</time>
        <extensions>
          <ns3:TrackPointExtension>
            <ns3:hr>112</ns3:hr>
            <ns3:cad>0</ns3:cad>
          </ns3:TrackPointExtension>
        </extensions>
      </trkpt>
      <trkpt lat="37.9767659492790699005126953125" lon="-107.73567058145999908447265625">
        <ele>3310</ele>
        <time>2026-08-15T12:58:42.000Z</time>
        <extensions>
          <ns3:TrackPointExtension>
            <ns3:hr>107</ns3:hr>
            <ns3:cad>0</ns3:cad>
          </ns3:TrackPointExtension>
        </extensions>
      </trkpt>
      <trkpt lat="37.9767693020403385162353515625" lon="-107.73566630668938159942626953125">
        <ele>3310.39990234375</ele>
        <time>2026-08-15T12:58:43.000Z</time>
        <extensions>
          <ns3:TrackPointExtension>
            <ns3:hr>106</ns3:hr>
            <ns3:cad>0</ns3:cad>
          </ns3:TrackPointExtension>
        </extensions>
      </trkpt>
      <trkpt lat="37.97678430564701557159423828125" lon="-107.73563412018120288848876953125">
        <ele>3311.199951171875</ele>
        <time>2026-08-15T12:58:47.000Z</time>
        <extensions>
          <ns3:TrackPointExtension>
            <ns3:hr>108</ns3:hr>
            <ns3:cad>0</ns3:cad>
          </ns3:TrackPointExtension>
        </extensions>
      </trkpt>
      <trkpt lat="37.9767872393131256103515625" lon="-107.73562171496450901031494140625">
        <ele>3311.39990234375</ele>
        <time>2026-08-15T12:58:48.000Z</time>
        <extensions>
          <ns3:TrackPointExtension>
            <ns3:hr>110</ns3:hr>
            <ns3:cad>0</ns3:cad>
          </ns3:TrackPointExtension>
        </extensions>
      </trkpt>
      <trkpt lat="37.9767860658466815948486328125" lon="-107.73559522815048694610595703125">
        <ele>3312.199951171875</ele>
        <time>2026-08-15T12:58:52.000Z</time>
        <extensions>
          <ns3:TrackPointExtension>
            <ns3:hr>113</ns3:hr>
            <ns3:cad>0</ns3:cad>
          </ns3:TrackPointExtension>
        </extensions>
      </trkpt>
      <trkpt lat="37.97678128816187381744384765625" lon="-107.7355312742292881011962890625">
        <ele>3313</ele>
        <time>2026-08-15T12:58:58.000Z</time>
        <extensions>
          <ns3:TrackPointExtension>
            <ns3:hr>114</ns3:hr>
            <ns3:cad>0</ns3:cad>
          </ns3:TrackPointExtension>
        </extensions>
      </trkpt>
      <trkpt lat="37.976788915693759918212890625" lon="-107.7354995906352996826171875">
        <ele>3313.39990234375</ele>
        <time>2026-08-15T12:59:01.000Z</time>
        <extensions>
          <ns3:TrackPointExtension>
            <ns3:hr>114</ns3:hr>
            <ns3:cad>0</ns3:cad>
          </ns3:TrackPointExtension>
        </extensions>
      </trkpt>
      <trkpt lat="37.9767872393131256103515625" lon="-107.7354833297431468963623046875">
        <ele>3313.60009765625</ele>
        <time>2026-08-15T12:59:03.000Z</time>
        <extensions>
          <ns3:TrackPointExtension>
            <ns3:hr>114</ns3:hr>
            <ns3:cad>0</ns3:cad>
          </ns3:TrackPointExtension>
        </extensions>
      </trkpt>
      <trkpt lat="37.97679034061729907989501953125" lon="-107.73543882183730602264404296875">
        <ele>3314.39990234375</ele>
        <time>2026-08-15T12:59:07.000Z</time>
        <extensions>
          <ns3:TrackPointExtension>
            <ns3:hr>115</ns3:hr>
            <ns3:cad>0</ns3:cad>
          </ns3:TrackPointExtension>
        </extensions>
      </trkpt>
      <trkpt lat="37.97678765840828418731689453125" lon="-107.73542943410575389862060546875">
        <ele>3314.60009765625</ele>
        <time>2026-08-15T12:59:08.000Z</time>
        <extensions>
          <ns3:TrackPointExtension>
            <ns3:hr>115</ns3:hr>
            <ns3:cad>0</ns3:cad>
          </ns3:TrackPointExtension>
        </extensions>
      </trkpt>
      <trkpt lat="37.97679235227406024932861328125" lon="-107.7354038693010807037353515625">
        <ele>3314.60009765625</ele>
        <time>2026-08-15T12:59:14.000Z</time>
        <extensions>
          <ns3:TrackPointExtension>
            <ns3:hr>116</ns3:hr>
            <ns3:cad>0</ns3:cad>
          </ns3:TrackPointExtension>
        </extensions>
      </trkpt>
      <trkpt lat="37.97679235227406024932861328125" lon="-107.7354038693010807037353515625">
        <ele>3315</ele>
        <time>2026-08-15T12:59:20.000Z</time>
        <extensions>
          <ns3:TrackPointExtension>
            <ns3:hr>115</ns3:hr>
            <ns3:cad>0</ns3:cad>
          </ns3:TrackPointExtension>
        </extensions>
      </trkpt>
      <trkpt lat="37.97679235227406024932861328125" lon="-107.7354038693010807037353515625">
        <ele>3315.60009765625</ele>
        <time>2026-08-15T12:59:23.000Z</time>
        <extensions>
          <ns3:TrackPointExtension>
            <ns3:hr>114</ns3:hr>
            <ns3:cad>0</ns3:cad>
          </ns3:TrackPointExtension>
        </extensions>
      </trkpt>
      <trkpt lat="37.97679235227406024932861328125" lon="-107.7354038693010807037353515625">
        <ele>3316</ele>
        <time>2026-08-15T12:59:25.000Z</time>
        <extensions>
          <ns3:TrackPointExtension>
            <ns3:hr>112</ns3:hr>
            <ns3:cad>0</ns3:cad>
          </ns3:TrackPointExtension>
        </extensions>
      </trkpt>
      <trkpt lat="37.9767952859401702880859375" lon="-107.73537914268672466278076171875">
        <ele>3316.199951171875</ele>
        <time>2026-08-15T12:59:30.000Z</time>
        <extensions>
          <ns3:TrackPointExtension>
            <ns3:hr>109</ns3:hr>
            <ns3:cad>0</ns3:cad>
          </ns3:TrackPointExtension>
        </extensions>
      </trkpt>
      <trkpt lat="37.97679654322564601898193359375" lon="-107.73536346852779388427734375">
        <ele>3316.199951171875</ele>
        <time>2026-08-15T12:59:33.000Z</time>
        <extensions>
          <ns3:TrackPointExtension>
            <ns3:hr>108</ns3:hr>
            <ns3:cad>0</ns3:cad>
          </ns3:TrackPointExtension>
        </extensions>
      </trkpt>
      <trkpt lat="37.97680375166237354278564453125" lon="-107.7353512309491634368896484375">
        <ele>3315.800048828125</ele>
        <time>2026-08-15T12:59:39.000Z</time>
        <extensions>
          <ns3:TrackPointExtension>
            <ns3:hr>107</ns3:hr>
            <ns3:cad>0</ns3:cad>
          </ns3:TrackPointExtension>
        </extensions>
      </trkpt>
      <trkpt lat="37.97680375166237354278564453125" lon="-107.7353156916797161102294921875">
        <ele>3315.60009765625</ele>
        <time>2026-08-15T12:59:42.000Z</time>
        <extensions>
          <ns3:TrackPointExtension>
            <ns3:hr>108</ns3:hr>
            <ns3:cad>0</ns3:cad>
          </ns3:TrackPointExtension>
        </extensions>
      </trkpt>
      <trkpt lat="37.9768105410039424896240234375" lon="-107.73524343967437744140625">
        <ele>3316.60009765625</ele>
        <time>2026-08-15T12:59:48.000Z</time>
        <extensions>
          <ns3:TrackPointExtension>
            <ns3:hr>106</ns3:hr>
            <ns3:cad>53</ns3:cad>
          </ns3:TrackPointExtension>
        </extensions>
      </trkpt>
      <trkpt lat="37.976810038089752197265625" lon="-107.73523061536252498626708984375">
        <ele>3316.800048828125</ele>
        <time>2026-08-15T12:59:49.000Z</time>
        <extensions>
          <ns3:TrackPointExtension>
            <ns3:hr>106</ns3:hr>
            <ns3:cad>53</ns3:cad>
          </ns3:TrackPointExtension>
        </extensions>
      </trkpt>
      <trkpt lat="37.97681632451713085174560546875" lon="-107.735187113285064697265625">
        <ele>3317.60009765625</ele>
        <time>2026-08-15T12:59:53.000Z</time>
        <extensions>
          <ns3:TrackPointExtension>
            <ns3:hr>107</ns3:hr>
            <ns3:cad>52</ns3:cad>
          </ns3:TrackPointExtension>
        </extensions>
      </trkpt>
      <trkpt lat="37.97682671807706356048583984375" lon="-107.735161297023296356201171875">
        <ele>3318.199951171875</ele>
        <time>2026-08-15T12:59:56.000Z</time>
        <extensions>
          <ns3:TrackPointExtension>
            <ns3:hr>108</ns3:hr>
            <ns3:cad>52</ns3:cad>
          </ns3:TrackPointExtension>
        </extensions>
      </trkpt>
      <trkpt lat="37.9768356867134571075439453125" lon="-107.7351369895040988922119140625">
        <ele>3318.800048828125</ele>
        <time>2026-08-15T12:59:58.000Z</time>
        <extensions>
          <ns3:TrackPointExtension>
            <ns3:hr>108</ns3:hr>
            <ns3:cad>0</ns3:cad>
          </ns3:TrackPointExtension>
        </extensions>
      </trkpt>
      <trkpt lat="37.9768407158553600311279296875" lon="-107.73508862592279911041259765625">
        <ele>3319.39990234375</ele>
        <time>2026-08-15T13:00:01.000Z</time>
        <extensions>
          <ns3:TrackPointExtension>
            <ns3:hr>108</ns3:hr>
            <ns3:cad>0</ns3:cad>
          </ns3:TrackPointExtension>
        </extensions>
      </trkpt>
      <trkpt lat="37.97684096731245517730712890625" lon="-107.73506431840360164642333984375">
        <ele>3319.800048828125</ele>
        <time>2026-08-15T13:00:03.000Z</time>
        <extensions>
          <ns3:TrackPointExtension>
            <ns3:hr>109</ns3:hr>
            <ns3:cad>0</ns3:cad>
          </ns3:TrackPointExtension>
        </extensions>
      </trkpt>
      <trkpt lat="37.9768477566540241241455078125" lon="-107.73500463925302028656005859375">
        <ele>3320.39990234375</ele>
        <time>2026-08-15T13:00:07.000Z</time>
        <extensions>
          <ns3:TrackPointExtension>
            <ns3:hr>111</ns3:hr>
            <ns3:cad>0</ns3:cad>
          </ns3:TrackPointExtension>
        </extensions>
      </trkpt>
      <trkpt lat="37.9768490977585315704345703125" lon="-107.73496390320360660552978515625">
        <ele>3321</ele>
        <time>2026-08-15T13:00:10.000Z</time>
        <extensions>
          <ns3:TrackPointExtension>
            <ns3:hr>111</ns3:hr>
            <ns3:cad>52</ns3:cad>
          </ns3:TrackPointExtension>
        </extensions>
      </trkpt>
      <trkpt lat="37.9768502712249755859375" lon="-107.73491763509809970855712890625">
        <ele>3321.60009765625</ele>
        <time>2026-08-15T13:00:14.000Z</time>
        <extensions>
          <ns3:TrackPointExtension>
            <ns3:hr>109</ns3:hr>
            <ns3:cad>49</ns3:cad>
          </ns3:TrackPointExtension>
        </extensions>
      </trkpt>
      <trkpt lat="37.9768568091094493865966796875" lon="-107.7348841913044452667236328125">
        <ele>3322.199951171875</ele>
        <time>2026-08-15T13:00:19.000Z</time>
        <extensions>
          <ns3:TrackPointExtension>
            <ns3:hr>109</ns3:hr>
            <ns3:cad>49</ns3:cad>
          </ns3:TrackPointExtension>
        </extensions>
      </trkpt>
      <trkpt lat="37.97686561010777950286865234375" lon="-107.73487069644033908843994140625">
        <ele>3323.199951171875</ele>
        <time>2026-08-15T13:00:22.000Z</time>
        <extensions>
          <ns3:TrackPointExtension>
            <ns3:hr>107</ns3:hr>
            <ns3:cad>0</ns3:cad>
          </ns3:TrackPointExtension>
        </extensions>
      </trkpt>
      <trkpt lat="37.9768755845725536346435546875" lon="-107.7348489873111248016357421875">
        <ele>3324</ele>
        <time>2026-08-15T13:00:26.000Z</time>
        <extensions>
          <ns3:TrackPointExtension>
            <ns3:hr>107</ns3:hr>
            <ns3:cad>0</ns3:cad>
          </ns3:TrackPointExtension>
        </extensions>
      </trkpt>
      <trkpt lat="37.97688421793282032012939453125" lon="-107.7348318882286548614501953125">
        <ele>3324.39990234375</ele>
        <time>2026-08-15T13:00:28.000Z</time>
        <extensions>
          <ns3:TrackPointExtension>
            <ns3:hr>109</ns3:hr>
            <ns3:cad>0</ns3:cad>
          </ns3:TrackPointExtension>
        </extensions>
      </trkpt>
      <trkpt lat="37.97688849270343780517578125" lon="-107.73481093347072601318359375">
        <ele>3324.800048828125</ele>
        <time>2026-08-15T13:00:30.000Z</time>
        <extensions>
          <ns3:TrackPointExtension>
            <ns3:hr>114</ns3:hr>
            <ns3:cad>0</ns3:cad>
          </ns3:TrackPointExtension>
        </extensions>
      </trkpt>
      <trkpt lat="37.9768896661698818206787109375" lon="-107.73479861207306385040283203125">
        <ele>3325</ele>
        <time>2026-08-15T13:00:31.000Z</time>
        <extensions>
          <ns3:TrackPointExtension>
            <ns3:hr>115</ns3:hr>
            <ns3:cad>0</ns3:cad>
          </ns3:TrackPointExtension>
        </extensions>
      </trkpt>
      <trkpt lat="37.97688715159893035888671875" lon="-107.7347765676677227020263671875">
        <ele>3325.39990234375</ele>
        <time>2026-08-15T13:00:33.000Z</time>
        <extensions>
          <ns3:TrackPointExtension>
            <ns3:hr>117</ns3:hr>
            <ns3:cad>0</ns3:cad>
          </ns3:TrackPointExtension>
        </extensions>
      </trkpt>
      <trkpt lat="37.9768943600356578826904296875" lon="-107.73471412248909473419189453125">
        <ele>3325.60009765625</ele>
        <time>2026-08-15T13:00:38.000Z</time>
        <extensions>
          <ns3:TrackPointExtension>
            <ns3:hr>118</ns3:hr>
            <ns3:cad>0</ns3:cad>
          </ns3:TrackPointExtension>
        </extensions>
      </trkpt>
      <trkpt lat="37.97689813189208507537841796875" lon="-107.7346873842179775238037109375">
        <ele>3326.60009765625</ele>
        <time>2026-08-15T13:00:42.000Z</time>
        <extensions>
          <ns3:TrackPointExtension>
            <ns3:hr>118</ns3:hr>
            <ns3:cad>0</ns3:cad>
          </ns3:TrackPointExtension>
        </extensions>
      </trkpt>
      <trkpt lat="37.97689779661595821380615234375" lon="-107.7346873842179775238037109375">
        <ele>3327</ele>
        <time>2026-08-15T13:00:44.000Z</time>
        <extensions>
          <ns3:TrackPointExtension>
            <ns3:hr>118</ns3:hr>
            <ns3:cad>0</ns3:cad>
          </ns3:TrackPointExtension>
        </extensions>
      </trkpt>
      <trkpt lat="37.97690324485301971435546875" lon="-107.734644301235675811767578125">
        <ele>3327.60009765625</ele>
        <time>2026-08-15T13:00:50.000Z</time>
        <extensions>
          <ns3:TrackPointExtension>
            <ns3:hr>117</ns3:hr>
            <ns3:cad>0</ns3:cad>
          </ns3:TrackPointExtension>
        </extensions>
      </trkpt>
      <trkpt lat="37.97691456042230129241943359375" lon="-107.73461052216589450836181640625">
        <ele>3328.800048828125</ele>
        <time>2026-08-15T13:00:54.000Z</time>
        <extensions>
          <ns3:TrackPointExtension>
            <ns3:hr>114</ns3:hr>
            <ns3:cad>0</ns3:cad>
          </ns3:TrackPointExtension>
        </extensions>
      </trkpt>
      <trkpt lat="37.97691808082163333892822265625" lon="-107.7345527708530426025390625">
        <ele>3329.60009765625</ele>
        <time>2026-08-15T13:01:00.000Z</time>
        <extensions>
          <ns3:TrackPointExtension>
            <ns3:hr>113</ns3:hr>
            <ns3:cad>0</ns3:cad>
          </ns3:TrackPointExtension>
        </extensions>
      </trkpt>
      <trkpt lat="37.9769258759915828704833984375" lon="-107.73453860543668270111083984375">
        <ele>3330</ele>
        <time>2026-08-15T13:01:02.000Z</time>
        <extensions>
          <ns3:TrackPointExtension>
            <ns3:hr>112</ns3:hr>
            <ns3:cad>0</ns3:cad>
          </ns3:TrackPointExtension>
        </extensions>
      </trkpt>
      <trkpt lat="37.97693517990410327911376953125" lon="-107.7345220930874347686767578125">
        <ele>3330.199951171875</ele>
        <time>2026-08-15T13:01:04.000Z</time>
        <extensions>
          <ns3:TrackPointExtension>
            <ns3:hr>112</ns3:hr>
            <ns3:cad>44</ns3:cad>
          </ns3:TrackPointExtension>
        </extensions>
      </trkpt>
      <trkpt lat="37.9769480042159557342529296875" lon="-107.7344912476837635040283203125">
        <ele>3331</ele>
        <time>2026-08-15T13:01:08.000Z</time>
        <extensions>
          <ns3:TrackPointExtension>
            <ns3:hr>110</ns3:hr>
            <ns3:cad>44</ns3:cad>
          </ns3:TrackPointExtension>
        </extensions>
      </trkpt>
      <trkpt lat="37.97695286571979522705078125" lon="-107.73446786217391490936279296875">
        <ele>3331.800048828125</ele>
        <time>2026-08-15T13:01:12.000Z</time>
        <extensions>
          <ns3:TrackPointExtension>
            <ns3:hr>113</ns3:hr>
            <ns3:cad>0</ns3:cad>
          </ns3:TrackPointExtension>
        </extensions>
      </trkpt>
      <trkpt lat="37.97695747576653957366943359375" lon="-107.73445822298526763916015625">
        <ele>3332</ele>
        <time>2026-08-15T13:01:13.000Z</time>
        <extensions>
          <ns3:TrackPointExtension>
            <ns3:hr>114</ns3:hr>
            <ns3:cad>0</ns3:cad>
          </ns3:TrackPointExtension>
        </extensions>
      </trkpt>
      <trkpt lat="37.976957224309444427490234375" lon="-107.734451852738857269287109375">
        <ele>3332.199951171875</ele>
        <time>2026-08-15T13:01:14.000Z</time>
        <extensions>
          <ns3:TrackPointExtension>
            <ns3:hr>114</ns3:hr>
            <ns3:cad>0</ns3:cad>
          </ns3:TrackPointExtension>
        </extensions>
      </trkpt>
      <trkpt lat="37.97696921043097972869873046875" lon="-107.73443215526640415191650390625">
        <ele>3332.800048828125</ele>
        <time>2026-08-15T13:01:17.000Z</time>
        <extensions>
          <ns3:TrackPointExtension>
            <ns3:hr>115</ns3:hr>
            <ns3:cad>0</ns3:cad>
          </ns3:TrackPointExtension>
        </extensions>
      </trkpt>
      <trkpt lat="37.97697574831545352935791015625" lon="-107.7344132959842681884765625">
        <ele>3333.39990234375</ele>
        <time>2026-08-15T13:01:19.000Z</time>
        <extensions>
          <ns3:TrackPointExtension>
            <ns3:hr>115</ns3:hr>
            <ns3:cad>0</ns3:cad>
          </ns3:TrackPointExtension>
        </extensions>
      </trkpt>
      <trkpt lat="37.97697340138256549835205078125" lon="-107.73438974283635616302490234375">
        <ele>3333.800048828125</ele>
        <time>2026-08-15T13:01:21.000Z</time>
        <extensions>
          <ns3:TrackPointExtension>
            <ns3:hr>114</ns3:hr>
            <ns3:cad>42</ns3:cad>
          </ns3:TrackPointExtension>
        </extensions>
      </trkpt>
      <trkpt lat="37.9769803583621978759765625" lon="-107.734341211616992950439453125">
        <ele>3334.39990234375</ele>
        <time>2026-08-15T13:01:25.000Z</time>
        <extensions>
          <ns3:TrackPointExtension>
            <ns3:hr>113</ns3:hr>
            <ns3:cad>45</ns3:cad>
          </ns3:TrackPointExtension>
        </extensions>
      </trkpt>
      <trkpt lat="37.97698010690510272979736328125" lon="-107.7343353442847728729248046875">
        <ele>3334.60009765625</ele>
        <time>2026-08-15T13:01:26.000Z</time>
        <extensions>
          <ns3:TrackPointExtension>
            <ns3:hr>113</ns3:hr>
            <ns3:cad>45</ns3:cad>
          </ns3:TrackPointExtension>
        </extensions>
      </trkpt>
      <trkpt lat="37.97699217684566974639892578125" lon="-107.7342793531715869903564453125">
        <ele>3335.60009765625</ele>
        <time>2026-08-15T13:01:31.000Z</time>
        <extensions>
          <ns3:TrackPointExtension>
            <ns3:hr>112</ns3:hr>
            <ns3:cad>45</ns3:cad>
          </ns3:TrackPointExtension>
        </extensions>
      </trkpt>
      <trkpt lat="37.976987399160861968994140625" lon="-107.7342652715742588043212890625">
        <ele>3336</ele>
        <time>2026-08-15T13:01:33.000Z</time>
        <extensions>
          <ns3:TrackPointExtension>
            <ns3:hr>113</ns3:hr>
            <ns3:cad>45</ns3:cad>
          </ns3:TrackPointExtension>
        </extensions>
      </trkpt>
      <trkpt lat="37.97699309885501861572265625" lon="-107.73424096405506134033203125">
        <ele>3336.60009765625</ele>
        <time>2026-08-15T13:01:35.000Z</time>
        <extensions>
          <ns3:TrackPointExtension>
            <ns3:hr>113</ns3:hr>
            <ns3:cad>16</ns3:cad>
          </ns3:TrackPointExtension>
        </extensions>
      </trkpt>
      <trkpt lat="37.97700257040560245513916015625" lon="-107.73421456106007099151611328125">
        <ele>3337.199951171875</ele>
        <time>2026-08-15T13:01:39.000Z</time>
        <extensions>
          <ns3:TrackPointExtension>
            <ns3:hr>112</ns3:hr>
            <ns3:cad>0</ns3:cad>
          </ns3:TrackPointExtension>
        </extensions>
      </trkpt>
      <trkpt lat="37.9770029895007610321044921875" lon="-107.73419813252985477447509765625">
        <ele>3337</ele>
        <time>2026-08-15T13:01:44.000Z</time>
        <extensions>
          <ns3:TrackPointExtension>
            <ns3:hr>109</ns3:hr>
            <ns3:cad>0</ns3:cad>
          </ns3:TrackPointExtension>
        </extensions>
      </trkpt>
      <trkpt lat="37.97700575552880764007568359375" lon="-107.73418857716023921966552734375">
        <ele>3337.60009765625</ele>
        <time>2026-08-15T13:01:47.000Z</time>
        <extensions>
          <ns3:TrackPointExtension>
            <ns3:hr>107</ns3:hr>
            <ns3:cad>0</ns3:cad>
          </ns3:TrackPointExtension>
        </extensions>
      </trkpt>
      <trkpt lat="37.97701363451778888702392578125" lon="-107.73417659103870391845703125">
        <ele>3337.800048828125</ele>
        <time>2026-08-15T13:01:48.000Z</time>
        <extensions>
          <ns3:TrackPointExtension>
            <ns3:hr>106</ns3:hr>
            <ns3:cad>50</ns3:cad>
          </ns3:TrackPointExtension>
        </extensions>
      </trkpt>
      <trkpt lat="37.97702168114483356475830078125" lon="-107.73414348252117633819580078125">
        <ele>3338.60009765625</ele>
        <time>2026-08-15T13:01:52.000Z</time>
        <extensions>
          <ns3:TrackPointExtension>
            <ns3:hr>107</ns3:hr>
            <ns3:cad>48</ns3:cad>
          </ns3:TrackPointExtension>
        </extensions>
      </trkpt>
      <trkpt lat="37.97702754847705364227294921875" lon="-107.7341221086680889129638671875">
        <ele>3339</ele>
        <time>2026-08-15T13:01:54.000Z</time>
        <extensions>
          <ns3:TrackPointExtension>
            <ns3:hr>107</ns3:hr>
            <ns3:cad>48</ns3:cad>
          </ns3:TrackPointExtension>
        </extensions>
      </trkpt>
      <trkpt lat="37.9770371876657009124755859375" lon="-107.7340818755328655242919921875">
        <ele>3339.800048828125</ele>
        <time>2026-08-15T13:01:57.000Z</time>
        <extensions>
          <ns3:TrackPointExtension>
            <ns3:hr>106</ns3:hr>
            <ns3:cad>47</ns3:cad>
          </ns3:TrackPointExtension>
        </extensions>
      </trkpt>
      <trkpt lat="37.9770420491695404052734375" lon="-107.73404357023537158966064453125">
        <ele>3340</ele>
        <time>2026-08-15T13:02:00.000Z</time>
        <extensions>
          <ns3:TrackPointExtension>
            <ns3:hr>106</ns3:hr>
            <ns3:cad>47</ns3:cad>
          </ns3:TrackPointExtension>
        </extensions>
      </trkpt>
      <trkpt lat="37.97705135308206081390380859375" lon="-107.73403250612318515777587890625">
        <ele>3340.199951171875</ele>
        <time>2026-08-15T13:02:02.000Z</time>
        <extensions>
          <ns3:TrackPointExtension>
            <ns3:hr>106</ns3:hr>
            <ns3:cad>47</ns3:cad>
          </ns3:TrackPointExtension>
        </extensions>
      </trkpt>
      <trkpt lat="37.9770527780055999755859375" lon="-107.7340329252183437347412109375">
        <ele>3340.199951171875</ele>
        <time>2026-08-15T13:02:03.000Z</time>
        <extensions>
          <ns3:TrackPointExtension>
            <ns3:hr>106</ns3:hr>
            <ns3:cad>47</ns3:cad>
          </ns3:TrackPointExtension>
        </extensions>
      </trkpt>
      <trkpt lat="37.977069206535816192626953125" lon="-107.73401708342134952545166015625">
        <ele>3341</ele>
        <time>2026-08-15T13:02:07.000Z</time>
        <extensions>
          <ns3:TrackPointExtension>
            <ns3:hr>104</ns3:hr>
            <ns3:cad>0</ns3:cad>
          </ns3:TrackPointExtension>
        </extensions>
      </trkpt>
      <trkpt lat="37.97706685960292816162109375" lon="-107.73400384001433849334716796875">
        <ele>3341.199951171875</ele>
        <time>2026-08-15T13:02:08.000Z</time>
        <extensions>
          <ns3:TrackPointExtension>
            <ns3:hr>104</ns3:hr>
            <ns3:cad>0</ns3:cad>
          </ns3:TrackPointExtension>
        </extensions>
      </trkpt>
      <trkpt lat="37.977072894573211669921875" lon="-107.73398422636091709136962890625">
        <ele>3341.800048828125</ele>
        <time>2026-08-15T13:02:10.000Z</time>
        <extensions>
          <ns3:TrackPointExtension>
            <ns3:hr>105</ns3:hr>
            <ns3:cad>0</ns3:cad>
          </ns3:TrackPointExtension>
        </extensions>
      </trkpt>
      <trkpt lat="37.9770774208009243011474609375" lon="-107.73396209813654422760009765625">
        <ele>3342.199951171875</ele>
        <time>2026-08-15T13:02:12.000Z</time>
        <extensions>
          <ns3:TrackPointExtension>
            <ns3:hr>108</ns3:hr>
            <ns3:cad>0</ns3:cad>
          </ns3:TrackPointExtension>
        </extensions>
      </trkpt>
      <trkpt lat="37.97708295285701751708984375" lon="-107.73394382558763027191162109375">
        <ele>3342.60009765625</ele>
        <time>2026-08-15T13:02:14.000Z</time>
        <extensions>
          <ns3:TrackPointExtension>
            <ns3:hr>113</ns3:hr>
            <ns3:cad>0</ns3:cad>
          </ns3:TrackPointExtension>
        </extensions>
      </trkpt>
      <trkpt lat="37.9770894907414913177490234375" lon="-107.73393779061734676361083984375">
        <ele>3342.60009765625</ele>
        <time>2026-08-15T13:02:15.000Z</time>
        <extensions>
          <ns3:TrackPointExtension>
            <ns3:hr>114</ns3:hr>
            <ns3:cad>0</ns3:cad>
          </ns3:TrackPointExtension>
        </extensions>
      </trkpt>
      <trkpt lat="37.9771069251000881195068359375" lon="-107.7339090406894683837890625">
        <ele>3343</ele>
        <time>2026-08-15T13:02:19.000Z</time>
        <extensions>
          <ns3:TrackPointExtension>
            <ns3:hr>116</ns3:hr>
            <ns3:cad>0</ns3:cad>
          </ns3:TrackPointExtension>
        </extensions>
      </trkpt>
      <trkpt lat="37.97711941413581371307373046875" lon="-107.73389018140733242034912109375">
        <ele>3343.199951171875</ele>
        <time>2026-08-15T13:02:22.000Z</time>
        <extensions>
          <ns3:TrackPointExtension>
            <ns3:hr>116</ns3:hr>
            <ns3:cad>0</ns3:cad>
          </ns3:TrackPointExtension>
        </extensions>
      </trkpt>
      <trkpt lat="37.977129556238651275634765625" lon="-107.733865119516849517822265625">
        <ele>3344</ele>
        <time>2026-08-15T13:02:25.000Z</time>
        <extensions>
          <ns3:TrackPointExtension>
            <ns3:hr>117</ns3:hr>
            <ns3:cad>0</ns3:cad>
          </ns3:TrackPointExtension>
        </extensions>
      </trkpt>
      <trkpt lat="37.97712394036352634429931640625" lon="-107.73384927771985530853271484375">
        <ele>3344.199951171875</ele>
        <time>2026-08-15T13:02:27.000Z</time>
        <extensions>
          <ns3:TrackPointExtension>
            <ns3:hr>117</ns3:hr>
            <ns3:cad>0</ns3:cad>
          </ns3:TrackPointExtension>
        </extensions>
      </trkpt>
      <trkpt lat="37.9771270416676998138427734375" lon="-107.7338579110801219940185546875">
        <ele>3344.39990234375</ele>
        <time>2026-08-15T13:02:32.000Z</time>
        <extensions>
          <ns3:TrackPointExtension>
            <ns3:hr>116</ns3:hr>
            <ns3:cad>0</ns3:cad>
          </ns3:TrackPointExtension>
        </extensions>
      </trkpt>
      <trkpt lat="37.9771649278700351715087890625" lon="-107.733858413994312286376953125">
        <ele>3345.199951171875</ele>
        <time>2026-08-15T13:02:38.000Z</time>
        <extensions>
          <ns3:TrackPointExtension>
            <ns3:hr>114</ns3:hr>
            <ns3:cad>0</ns3:cad>
          </ns3:TrackPointExtension>
        </extensions>
      </trkpt>
      <trkpt lat="37.97716802917420864105224609375" lon="-107.7338565699756145477294921875">
        <ele>3345.39990234375</ele>
        <time>2026-08-15T13:02:39.000Z</time>
        <extensions>
          <ns3:TrackPointExtension>
            <ns3:hr>113</ns3:hr>
            <ns3:cad>0</ns3:cad>
          </ns3:TrackPointExtension>
        </extensions>
      </trkpt>
      <trkpt lat="37.97717104665935039520263671875" lon="-107.733857743442058563232421875">
        <ele>3345.800048828125</ele>
        <time>2026-08-15T13:02:42.000Z</time>
        <extensions>
          <ns3:TrackPointExtension>
            <ns3:hr>110</ns3:hr>
            <ns3:cad>0</ns3:cad>
          </ns3:TrackPointExtension>
        </extensions>
      </trkpt>
      <trkpt lat="37.97718278132379055023193359375" lon="-107.733851037919521331787109375">
        <ele>3346.39990234375</ele>
        <time>2026-08-15T13:02:44.000Z</time>
        <extensions>
          <ns3:TrackPointExtension>
            <ns3:hr>108</ns3:hr>
            <ns3:cad>0</ns3:cad>
          </ns3:TrackPointExtension>
        </extensions>
      </trkpt>
      <trkpt lat="37.977191247045993804931640625" lon="-107.73384877480566501617431640625">
        <ele>3346.800048828125</ele>
        <time>2026-08-15T13:02:45.000Z</time>
        <extensions>
          <ns3:TrackPointExtension>
            <ns3:hr>108</ns3:hr>
            <ns3:cad>0</ns3:cad>
          </ns3:TrackPointExtension>
        </extensions>
      </trkpt>
      <trkpt lat="37.977199293673038482666015625" lon="-107.73384793661534786224365234375">
        <ele>3347.199951171875</ele>
        <time>2026-08-15T13:02:48.000Z</time>
        <extensions>
          <ns3:TrackPointExtension>
            <ns3:hr>111</ns3:hr>
            <ns3:cad>0</ns3:cad>
          </ns3:TrackPointExtension>
        </extensions>
      </trkpt>
      <trkpt lat="37.97720021568238735198974609375" lon="-107.7338473498821258544921875">
        <ele>3347</ele>
        <time>2026-08-15T13:02:49.000Z</time>
        <extensions>
          <ns3:TrackPointExtension>
            <ns3:hr>115</ns3:hr>
            <ns3:cad>0</ns3:cad>
          </ns3:TrackPointExtension>
        </extensions>
      </trkpt>
      <trkpt lat="37.97720021568238735198974609375" lon="-107.7338473498821258544921875">
        <ele>3347</ele>
        <time>2026-08-15T13:02:51.000Z</time>
        <extensions>
          <ns3:TrackPointExtension>
            <ns3:hr>118</ns3:hr>
            <ns3:cad>0</ns3:cad>
          </ns3:TrackPointExtension>
        </extensions>
      </trkpt>
      <trkpt lat="37.97720021568238735198974609375" lon="-107.7338473498821258544921875">
        <ele>3347</ele>
        <time>2026-08-15T13:02:55.000Z</time>
        <extensions>
          <ns3:TrackPointExtension>
            <ns3:hr>112</ns3:hr>
            <ns3:cad>0</ns3:cad>
          </ns3:TrackPointExtension>
        </extensions>
      </trkpt>
      <trkpt lat="37.97720021568238735198974609375" lon="-107.7338473498821258544921875">
        <ele>3347</ele>
        <time>2026-08-15T13:02:56.000Z</time>
        <extensions>
          <ns3:TrackPointExtension>
            <ns3:hr>107</ns3:hr>
            <ns3:cad>0</ns3:cad>
          </ns3:TrackPointExtension>
        </extensions>
      </trkpt>
      <trkpt lat="37.97720021568238735198974609375" lon="-107.7338473498821258544921875">
        <ele>3347</ele>
        <time>2026-08-15T13:02:57.000Z</time>
        <extensions>
          <ns3:TrackPointExtension>
            <ns3:hr>104</ns3:hr>
            <ns3:cad>0</ns3:cad>
          </ns3:TrackPointExtension>
        </extensions>
      </trkpt>
      <trkpt lat="37.97720021568238735198974609375" lon="-107.7338473498821258544921875">
        <ele>3346.800048828125</ele>
        <time>2026-08-15T13:02:58.000Z</time>
        <extensions>
          <ns3:TrackPointExtension>
            <ns3:hr>103</ns3:hr>
            <ns3:cad>0</ns3:cad>
          </ns3:TrackPointExtension>
        </extensions>
      </trkpt>
      <trkpt lat="37.97720021568238735198974609375" lon="-107.7338473498821258544921875">
        <ele>3347.199951171875</ele>
        <time>2026-08-15T13:03:04.000Z</time>
        <extensions>
          <ns3:TrackPointExtension>
            <ns3:hr>104</ns3:hr>
            <ns3:cad>0</ns3:cad>
          </ns3:TrackPointExtension>
        </extensions>
      </trkpt>
      <trkpt lat="37.97720021568238735198974609375" lon="-107.7338473498821258544921875">
        <ele>3347.39990234375</ele>
        <time>2026-08-15T13:03:05.000Z</time>
        <extensions>
          <ns3:TrackPointExtension>
            <ns3:hr>101</ns3:hr>
            <ns3:cad>0</ns3:cad>
          </ns3:TrackPointExtension>
        </extensions>
      </trkpt>
      <trkpt lat="37.97719418071210384368896484375" lon="-107.73385413922369480133056640625">
        <ele>3347.39990234375</ele>
        <time>2026-08-15T13:03:06.000Z</time>
        <extensions>
          <ns3:TrackPointExtension>
            <ns3:hr>100</ns3:hr>
            <ns3:cad>0</ns3:cad>
          </ns3:TrackPointExtension>
        </extensions>
      </trkpt>
      <trkpt lat="37.97720021568238735198974609375" lon="-107.7338473498821258544921875">
        <ele>3347.60009765625</ele>
        <time>2026-08-15T13:03:10.000Z</time>
        <extensions>
          <ns3:TrackPointExtension>
            <ns3:hr>100</ns3:hr>
            <ns3:cad>0</ns3:cad>
          </ns3:TrackPointExtension>
        </extensions>
      </trkpt>
      <trkpt lat="37.97720021568238735198974609375" lon="-107.7338473498821258544921875">
        <ele>3347.39990234375</ele>
        <time>2026-08-15T13:03:16.000Z</time>
        <extensions>
          <ns3:TrackPointExtension>
            <ns3:hr>98</ns3:hr>
            <ns3:cad>0</ns3:cad>
          </ns3:TrackPointExtension>
        </extensions>
      </trkpt>
      <trkpt lat="37.97720021568238735198974609375" lon="-107.7338473498821258544921875">
        <ele>3347.39990234375</ele>
        <time>2026-08-15T13:03:19.000Z</time>
        <extensions>
          <ns3:TrackPointExtension>
            <ns3:hr>98</ns3:hr>
            <ns3:cad>0</ns3:cad>
          </ns3:TrackPointExtension>
        </extensions>
      </trkpt>
      <trkpt lat="37.97720021568238735198974609375" lon="-107.7338473498821258544921875">
        <ele>3347.39990234375</ele>
        <time>2026-08-15T13:03:24.000Z</time>
        <extensions>
          <ns3:TrackPointExtension>
            <ns3:hr>101</ns3:hr>
            <ns3:cad>0</ns3:cad>
          </ns3:TrackPointExtension>
        </extensions>
      </trkpt>
      <trkpt lat="37.97720021568238735198974609375" lon="-107.7338473498821258544921875">
        <ele>3347.39990234375</ele>
        <time>2026-08-15T13:03:25.000Z</time>
        <extensions>
          <ns3:TrackPointExtension>
            <ns3:hr>105</ns3:hr>
            <ns3:cad>0</ns3:cad>
          </ns3:TrackPointExtension>
        </extensions>
      </trkpt>
      <trkpt lat="37.97720021568238735198974609375" lon="-107.7338473498821258544921875">
        <ele>3347.60009765625</ele>
        <time>2026-08-15T13:03:27.000Z</time>
        <extensions>
          <ns3:TrackPointExtension>
            <ns3:hr>108</ns3:hr>
            <ns3:cad>0</ns3:cad>
          </ns3:TrackPointExtension>
        </extensions>
      </trkpt>
      <trkpt lat="37.97719585709273815155029296875" lon="-107.73385296575725078582763671875">
        <ele>3347.60009765625</ele>
        <time>2026-08-15T13:03:29.000Z</time>
        <extensions>
          <ns3:TrackPointExtension>
            <ns3:hr>108</ns3:hr>
            <ns3:cad>0</ns3:cad>
          </ns3:TrackPointExtension>
        </extensions>
      </trkpt>
      <trkpt lat="37.97721438109874725341796875" lon="-107.73383519612252712249755859375">
        <ele>3347.800048828125</ele>
        <time>2026-08-15T13:03:35.000Z</time>
        <extensions>
          <ns3:TrackPointExtension>
            <ns3:hr>107</ns3:hr>
            <ns3:cad>0</ns3:cad>
          </ns3:TrackPointExtension>
        </extensions>
      </trkpt>
      <trkpt lat="37.9772098548710346221923828125" lon="-107.73383201099932193756103515625">
        <ele>3348</ele>
        <time>2026-08-15T13:03:39.000Z</time>
        <extensions>
          <ns3:TrackPointExtension>
            <ns3:hr>104</ns3:hr>
            <ns3:cad>0</ns3:cad>
          </ns3:TrackPointExtension>
        </extensions>
      </trkpt>
      <trkpt lat="37.97719920985400676727294921875" lon="-107.73383704014122486114501953125">
        <ele>3347.800048828125</ele>
        <time>2026-08-15T13:03:41.000Z</time>
        <extensions>
          <ns3:TrackPointExtension>
            <ns3:hr>104</ns3:hr>
            <ns3:cad>0</ns3:cad>
          </ns3:TrackPointExtension>
        </extensions>
      </trkpt>
      <trkpt lat="37.97722703777253627777099609375" lon="-107.73382916115224361419677734375">
        <ele>3347.60009765625</ele>
        <time>2026-08-15T13:03:46.000Z</time>
        <extensions>
          <ns3:TrackPointExtension>
            <ns3:hr>103</ns3:hr>
            <ns3:cad>0</ns3:cad>
          </ns3:TrackPointExtension>
        </extensions>
      </trkpt>
      <trkpt lat="37.97723005525767803192138671875" lon="-107.733818851411342620849609375">
        <ele>3347.60009765625</ele>
        <time>2026-08-15T13:03:50.000Z</time>
        <extensions>
          <ns3:TrackPointExtension>
            <ns3:hr>100</ns3:hr>
            <ns3:cad>0</ns3:cad>
          </ns3:TrackPointExtension>
        </extensions>
      </trkpt>
      <trkpt lat="37.97725017182528972625732421875" lon="-107.73380133323371410369873046875">
        <ele>3347.39990234375</ele>
        <time>2026-08-15T13:03:56.000Z</time>
        <extensions>
          <ns3:TrackPointExtension>
            <ns3:hr>97</ns3:hr>
            <ns3:cad>0</ns3:cad>
          </ns3:TrackPointExtension>
        </extensions>
      </trkpt>
      <trkpt lat="37.9772579669952392578125" lon="-107.73379881866276264190673828125">
        <ele>3347.60009765625</ele>
        <time>2026-08-15T13:03:57.000Z</time>
        <extensions>
          <ns3:TrackPointExtension>
            <ns3:hr>97</ns3:hr>
            <ns3:cad>0</ns3:cad>
          </ns3:TrackPointExtension>
        </extensions>
      </trkpt>
      <trkpt lat="37.9772973619401454925537109375" lon="-107.733773253858089447021484375">
        <ele>3348.39990234375</ele>
        <time>2026-08-15T13:04:03.000Z</time>
        <extensions>
          <ns3:TrackPointExtension>
            <ns3:hr>99</ns3:hr>
            <ns3:cad>0</ns3:cad>
          </ns3:TrackPointExtension>
        </extensions>
      </trkpt>
      <trkpt lat="37.97731370665132999420166015625" lon="-107.733768559992313385009765625">
        <ele>3348.60009765625</ele>
        <time>2026-08-15T13:04:07.000Z</time>
        <extensions>
          <ns3:TrackPointExtension>
            <ns3:hr>101</ns3:hr>
            <ns3:cad>0</ns3:cad>
          </ns3:TrackPointExtension>
        </extensions>
      </trkpt>
      <trkpt lat="37.97732569277286529541015625" lon="-107.7337663806974887847900390625">
        <ele>3348.800048828125</ele>
        <time>2026-08-15T13:04:13.000Z</time>
        <extensions>
          <ns3:TrackPointExtension>
            <ns3:hr>102</ns3:hr>
            <ns3:cad>0</ns3:cad>
          </ns3:TrackPointExtension>
        </extensions>
      </trkpt>
      <trkpt lat="37.97732577659189701080322265625" lon="-107.7337663806974887847900390625">
        <ele>3348.800048828125</ele>
        <time>2026-08-15T13:04:14.000Z</time>
        <extensions>
          <ns3:TrackPointExtension>
            <ns3:hr>102</ns3:hr>
            <ns3:cad>0</ns3:cad>
          </ns3:TrackPointExtension>
        </extensions>
      </trkpt>
      <trkpt lat="37.97732577659189701080322265625" lon="-107.7337663806974887847900390625">
        <ele>3349.199951171875</ele>
        <time>2026-08-15T13:04:20.000Z</time>
        <extensions>
          <ns3:TrackPointExtension>
            <ns3:hr>102</ns3:hr>
            <ns3:cad>0</ns3:cad>
          </ns3:TrackPointExtension>
        </extensions>
      </trkpt>
      <trkpt lat="37.97732577659189701080322265625" lon="-107.7337663806974887847900390625">
        <ele>3349.199951171875</ele>
        <time>2026-08-15T13:04:24.000Z</time>
        <extensions>
          <ns3:TrackPointExtension>
            <ns3:hr>102</ns3:hr>
            <ns3:cad>0</ns3:cad>
          </ns3:TrackPointExtension>
        </extensions>
      </trkpt>
      <trkpt lat="37.97732577659189701080322265625" lon="-107.7337663806974887847900390625">
        <ele>3349.199951171875</ele>
        <time>2026-08-15T13:04:30.000Z</time>
        <extensions>
          <ns3:TrackPointExtension>
            <ns3:hr>101</ns3:hr>
            <ns3:cad>0</ns3:cad>
          </ns3:TrackPointExtension>
        </extensions>
      </trkpt>
      <trkpt lat="37.97732577659189701080322265625" lon="-107.7337663806974887847900390625">
        <ele>3349.199951171875</ele>
        <time>2026-08-15T13:04:34.000Z</time>
        <extensions>
          <ns3:TrackPointExtension>
            <ns3:hr>98</ns3:hr>
            <ns3:cad>0</ns3:cad>
          </ns3:TrackPointExtension>
        </extensions>
      </trkpt>
      <trkpt lat="37.97732577659189701080322265625" lon="-107.7337663806974887847900390625">
        <ele>3349</ele>
        <time>2026-08-15T13:04:39.000Z</time>
        <extensions>
          <ns3:TrackPointExtension>
            <ns3:hr>101</ns3:hr>
            <ns3:cad>0</ns3:cad>
          </ns3:TrackPointExtension>
        </extensions>
      </trkpt>
      <trkpt lat="37.97732577659189701080322265625" lon="-107.7337663806974887847900390625">
        <ele>3349</ele>
        <time>2026-08-15T13:04:45.000Z</time>
        <extensions>
          <ns3:TrackPointExtension>
            <ns3:hr>102</ns3:hr>
            <ns3:cad>0</ns3:cad>
          </ns3:TrackPointExtension>
        </extensions>
      </trkpt>
      <trkpt lat="37.97732577659189701080322265625" lon="-107.7337663806974887847900390625">
        <ele>3349</ele>
        <time>2026-08-15T13:04:47.000Z</time>
        <extensions>
          <ns3:TrackPointExtension>
            <ns3:hr>99</ns3:hr>
            <ns3:cad>0</ns3:cad>
          </ns3:TrackPointExtension>
        </extensions>
      </trkpt>
      <trkpt lat="37.97732577659189701080322265625" lon="-107.7337663806974887847900390625">
        <ele>3349</ele>
        <time>2026-08-15T13:04:48.000Z</time>
        <extensions>
          <ns3:TrackPointExtension>
            <ns3:hr>90</ns3:hr>
            <ns3:cad>0</ns3:cad>
          </ns3:TrackPointExtension>
        </extensions>
      </trkpt>
      <trkpt lat="37.97732577659189701080322265625" lon="-107.7337663806974887847900390625">
        <ele>3349</ele>
        <time>2026-08-15T13:04:49.000Z</time>
        <extensions>
          <ns3:TrackPointExtension>
            <ns3:hr>86</ns3:hr>
            <ns3:cad>0</ns3:cad>
          </ns3:TrackPointExtension>
        </extensions>
      </trkpt>
      <trkpt lat="37.97732577659189701080322265625" lon="-107.7337663806974887847900390625">
        <ele>3349</ele>
        <time>2026-08-15T13:04:50.000Z</time>
        <extensions>
          <ns3:TrackPointExtension>
            <ns3:hr>86</ns3:hr>
            <ns3:cad>0</ns3:cad>
          </ns3:TrackPointExtension>
        </extensions>
      </trkpt>
      <trkpt lat="37.97732577659189701080322265625" lon="-107.7337663806974887847900390625">
        <ele>3349</ele>
        <time>2026-08-15T13:04:54.000Z</time>
        <extensions>
          <ns3:TrackPointExtension>
            <ns3:hr>86</ns3:hr>
            <ns3:cad>0</ns3:cad>
          </ns3:TrackPointExtension>
        </extensions>
      </trkpt>
      <trkpt lat="37.97732577659189701080322265625" lon="-107.7337663806974887847900390625">
        <ele>3349</ele>
        <time>2026-08-15T13:04:57.000Z</time>
        <extensions>
          <ns3:TrackPointExtension>
            <ns3:hr>83</ns3:hr>
            <ns3:cad>0</ns3:cad>
          </ns3:TrackPointExtension>
        </extensions>
      </trkpt>
      <trkpt lat="37.97732443548738956451416015625" lon="-107.7337680570781230926513671875">
        <ele>3349</ele>
        <time>2026-08-15T13:05:02.000Z</time>
        <extensions>
          <ns3:TrackPointExtension>
            <ns3:hr>83</ns3:hr>
            <ns3:cad>0</ns3:cad>
          </ns3:TrackPointExtension>
        </extensions>
      </trkpt>
      <trkpt lat="37.97732577659189701080322265625" lon="-107.7337663806974887847900390625">
        <ele>3348.800048828125</ele>
        <time>2026-08-15T13:05:04.000Z</time>
        <extensions>
          <ns3:TrackPointExtension>
            <ns3:hr>88</ns3:hr>
            <ns3:cad>0</ns3:cad>
          </ns3:TrackPointExtension>
        </extensions>
      </trkpt>
      <trkpt lat="37.97732577659189701080322265625" lon="-107.7337663806974887847900390625">
        <ele>3349</ele>
        <time>2026-08-15T13:05:05.000Z</time>
        <extensions>
          <ns3:TrackPointExtension>
            <ns3:hr>96</ns3:hr>
            <ns3:cad>0</ns3:cad>
          </ns3:TrackPointExtension>
        </extensions>
      </trkpt>
      <trkpt lat="37.97732577659189701080322265625" lon="-107.7337663806974887847900390625">
        <ele>3349</ele>
        <time>2026-08-15T13:05:06.000Z</time>
        <extensions>
          <ns3:TrackPointExtension>
            <ns3:hr>99</ns3:hr>
            <ns3:cad>0</ns3:cad>
          </ns3:TrackPointExtension>
        </extensions>
      </trkpt>
      <trkpt lat="37.97732577659189701080322265625" lon="-107.7337663806974887847900390625">
        <ele>3349</ele>
        <time>2026-08-15T13:05:08.000Z</time>
        <extensions>
          <ns3:TrackPointExtension>
            <ns3:hr>100</ns3:hr>
            <ns3:cad>0</ns3:cad>
          </ns3:TrackPointExtension>
        </extensions>
      </trkpt>
      <trkpt lat="37.97732577659189701080322265625" lon="-107.7337663806974887847900390625">
        <ele>3348.60009765625</ele>
        <time>2026-08-15T13:05:12.000Z</time>
        <extensions>
          <ns3:TrackPointExtension>
            <ns3:hr>103</ns3:hr>
            <ns3:cad>0</ns3:cad>
          </ns3:TrackPointExtension>
        </extensions>
      </trkpt>
      <trkpt lat="37.97732577659189701080322265625" lon="-107.7337663806974887847900390625">
        <ele>3348.199951171875</ele>
        <time>2026-08-15T13:05:18.000Z</time>
        <extensions>
          <ns3:TrackPointExtension>
            <ns3:hr>104</ns3:hr>
            <ns3:cad>0</ns3:cad>
          </ns3:TrackPointExtension>
        </extensions>
      </trkpt>
      <trkpt lat="37.97731974162161350250244140625" lon="-107.73376981727778911590576171875">
        <ele>3348.60009765625</ele>
        <time>2026-08-15T13:05:24.000Z</time>
        <extensions>
          <ns3:TrackPointExtension>
            <ns3:hr>106</ns3:hr>
            <ns3:cad>0</ns3:cad>
          </ns3:TrackPointExtension>
        </extensions>
      </trkpt>
      <trkpt lat="37.97732577659189701080322265625" lon="-107.7337663806974887847900390625">
        <ele>3348.60009765625</ele>
        <time>2026-08-15T13:05:26.000Z</time>
        <extensions>
          <ns3:TrackPointExtension>
            <ns3:hr>107</ns3:hr>
            <ns3:cad>0</ns3:cad>
          </ns3:TrackPointExtension>
        </extensions>
      </trkpt>
      <trkpt lat="37.97732577659189701080322265625" lon="-107.7337663806974887847900390625">
        <ele>3348.199951171875</ele>
        <time>2026-08-15T13:05:32.000Z</time>
        <extensions>
          <ns3:TrackPointExtension>
            <ns3:hr>107</ns3:hr>
            <ns3:cad>0</ns3:cad>
          </ns3:TrackPointExtension>
        </extensions>
      </trkpt>
      <trkpt lat="37.9773158021271228790283203125" lon="-107.733752466738224029541015625">
        <ele>3348.800048828125</ele>
        <time>2026-08-15T13:05:36.000Z</time>
        <extensions>
          <ns3:TrackPointExtension>
            <ns3:hr>107</ns3:hr>
            <ns3:cad>0</ns3:cad>
          </ns3:TrackPointExtension>
        </extensions>
      </trkpt>
      <trkpt lat="37.97731689177453517913818359375" lon="-107.7337506227195262908935546875">
        <ele>3348.39990234375</ele>
        <time>2026-08-15T13:05:42.000Z</time>
        <extensions>
          <ns3:TrackPointExtension>
            <ns3:hr>106</ns3:hr>
            <ns3:cad>0</ns3:cad>
          </ns3:TrackPointExtension>
        </extensions>
      </trkpt>
      <trkpt lat="37.97731689177453517913818359375" lon="-107.7337506227195262908935546875">
        <ele>3348.39990234375</ele>
        <time>2026-08-15T13:05:44.000Z</time>
        <extensions>
          <ns3:TrackPointExtension>
            <ns3:hr>102</ns3:hr>
            <ns3:cad>0</ns3:cad>
          </ns3:TrackPointExtension>
        </extensions>
      </trkpt>
      <trkpt lat="37.97731689177453517913818359375" lon="-107.7337506227195262908935546875">
        <ele>3348.39990234375</ele>
        <time>2026-08-15T13:05:46.000Z</time>
        <extensions>
          <ns3:TrackPointExtension>
            <ns3:hr>99</ns3:hr>
            <ns3:cad>0</ns3:cad>
          </ns3:TrackPointExtension>
        </extensions>
      </trkpt>
      <trkpt lat="37.97731689177453517913818359375" lon="-107.7337506227195262908935546875">
        <ele>3348.39990234375</ele>
        <time>2026-08-15T13:05:47.000Z</time>
        <extensions>
          <ns3:TrackPointExtension>
            <ns3:hr>95</ns3:hr>
            <ns3:cad>0</ns3:cad>
          </ns3:TrackPointExtension>
        </extensions>
      </trkpt>
      <trkpt lat="37.977312617003917694091796875" lon="-107.73373804986476898193359375">
        <ele>3348.60009765625</ele>
        <time>2026-08-15T13:05:52.000Z</time>
        <extensions>
          <ns3:TrackPointExtension>
            <ns3:hr>93</ns3:hr>
            <ns3:cad>0</ns3:cad>
          </ns3:TrackPointExtension>
        </extensions>
      </trkpt>
      <trkpt lat="37.97731689177453517913818359375" lon="-107.7337506227195262908935546875">
        <ele>3348.39990234375</ele>
        <time>2026-08-15T13:05:58.000Z</time>
        <extensions>
          <ns3:TrackPointExtension>
            <ns3:hr>92</ns3:hr>
            <ns3:cad>0</ns3:cad>
          </ns3:TrackPointExtension>
        </extensions>
      </trkpt>
      <trkpt lat="37.97731689177453517913818359375" lon="-107.7337506227195262908935546875">
        <ele>3348.800048828125</ele>
        <time>2026-08-15T13:06:03.000Z</time>
        <extensions>
          <ns3:TrackPointExtension>
            <ns3:hr>91</ns3:hr>
            <ns3:cad>0</ns3:cad>
          </ns3:TrackPointExtension>
        </extensions>
      </trkpt>
      <trkpt lat="37.97731689177453517913818359375" lon="-107.7337506227195262908935546875">
        <ele>3349.199951171875</ele>
        <time>2026-08-15T13:06:09.000Z</time>
        <extensions>
          <ns3:TrackPointExtension>
            <ns3:hr>92</ns3:hr>
            <ns3:cad>0</ns3:cad>
          </ns3:TrackPointExtension>
        </extensions>
      </trkpt>
      <trkpt lat="37.97731689177453517913818359375" lon="-107.7337506227195262908935546875">
        <ele>3349.199951171875</ele>
        <time>2026-08-15T13:06:11.000Z</time>
        <extensions>
          <ns3:TrackPointExtension>
            <ns3:hr>93</ns3:hr>
            <ns3:cad>0</ns3:cad>
          </ns3:TrackPointExtension>
        </extensions>
      </trkpt>
      <trkpt lat="37.97731689177453517913818359375" lon="-107.7337506227195262908935546875">
        <ele>3349.199951171875</ele>
        <time>2026-08-15T13:06:17.000Z</time>
        <extensions>
          <ns3:TrackPointExtension>
            <ns3:hr>96</ns3:hr>
            <ns3:cad>0</ns3:cad>
          </ns3:TrackPointExtension>
        </extensions>
      </trkpt>
      <trkpt lat="37.97731689177453517913818359375" lon="-107.7337506227195262908935546875">
        <ele>3349.39990234375</ele>
        <time>2026-08-15T13:06:23.000Z</time>
        <extensions>
          <ns3:TrackPointExtension>
            <ns3:hr>98</ns3:hr>
            <ns3:cad>0</ns3:cad>
          </ns3:TrackPointExtension>
        </extensions>
      </trkpt>
      <trkpt lat="37.97731689177453517913818359375" lon="-107.7337506227195262908935546875">
        <ele>3349.199951171875</ele>
        <time>2026-08-15T13:06:29.000Z</time>
        <extensions>
          <ns3:TrackPointExtension>
            <ns3:hr>97</ns3:hr>
            <ns3:cad>0</ns3:cad>
          </ns3:TrackPointExtension>
        </extensions>
      </trkpt>
      <trkpt lat="37.97731689177453517913818359375" lon="-107.7337506227195262908935546875">
        <ele>3349.199951171875</ele>
        <time>2026-08-15T13:06:35.000Z</time>
        <extensions>
          <ns3:TrackPointExtension>
            <ns3:hr>96</ns3:hr>
            <ns3:cad>0</ns3:cad>
          </ns3:TrackPointExtension>
        </extensions>
      </trkpt>
      <trkpt lat="37.97731689177453517913818359375" lon="-107.7337506227195262908935546875">
        <ele>3349.39990234375</ele>
        <time>2026-08-15T13:06:41.000Z</time>
        <extensions>
          <ns3:TrackPointExtension>
            <ns3:hr>96</ns3:hr>
            <ns3:cad>0</ns3:cad>
          </ns3:TrackPointExtension>
        </extensions>
      </trkpt>
      <trkpt lat="37.97731689177453517913818359375" lon="-107.7337506227195262908935546875">
        <ele>3349.39990234375</ele>
        <time>2026-08-15T13:06:47.000Z</time>
        <extensions>
          <ns3:TrackPointExtension>
            <ns3:hr>95</ns3:hr>
            <ns3:cad>0</ns3:cad>
          </ns3:TrackPointExtension>
        </extensions>
      </trkpt>
      <trkpt lat="37.97731689177453517913818359375" lon="-107.7337506227195262908935546875">
        <ele>3349.39990234375</ele>
        <time>2026-08-15T13:06:49.000Z</time>
        <extensions>
          <ns3:TrackPointExtension>
            <ns3:hr>95</ns3:hr>
            <ns3:cad>0</ns3:cad>
          </ns3:TrackPointExtension>
        </extensions>
      </trkpt>
      <trkpt lat="37.97731689177453517913818359375" lon="-107.7337506227195262908935546875">
        <ele>3349</ele>
        <time>2026-08-15T13:06:53.000Z</time>
        <extensions>
          <ns3:TrackPointExtension>
            <ns3:hr>99</ns3:hr>
            <ns3:cad>0</ns3:cad>
          </ns3:TrackPointExtension>
        </extensions>
      </trkpt>
      <trkpt lat="37.97731689177453517913818359375" lon="-107.7337506227195262908935546875">
        <ele>3348.800048828125</ele>
        <time>2026-08-15T13:06:55.000Z</time>
        <extensions>
          <ns3:TrackPointExtension>
            <ns3:hr>102</ns3:hr>
            <ns3:cad>0</ns3:cad>
          </ns3:TrackPointExtension>
        </extensions>
      </trkpt>
      <trkpt lat="37.97731689177453517913818359375" lon="-107.7337506227195262908935546875">
        <ele>3349</ele>
        <time>2026-08-15T13:07:01.000Z</time>
        <extensions>
          <ns3:TrackPointExtension>
            <ns3:hr>103</ns3:hr>
            <ns3:cad>0</ns3:cad>
          </ns3:TrackPointExtension>
        </extensions>
      </trkpt>
      <trkpt lat="37.97731689177453517913818359375" lon="-107.7337506227195262908935546875">
        <ele>3348.800048828125</ele>
        <time>2026-08-15T13:07:07.000Z</time>
        <extensions>
          <ns3:TrackPointExtension>
            <ns3:hr>102</ns3:hr>
            <ns3:cad>0</ns3:cad>
          </ns3:TrackPointExtension>
        </extensions>
      </trkpt>
      <trkpt lat="37.97731689177453517913818359375" lon="-107.7337506227195262908935546875">
        <ele>3348.800048828125</ele>
        <time>2026-08-15T13:07:11.000Z</time>
        <extensions>
          <ns3:TrackPointExtension>
            <ns3:hr>102</ns3:hr>
            <ns3:cad>0</ns3:cad>
          </ns3:TrackPointExtension>
        </extensions>
      </trkpt>
      <trkpt lat="37.97731689177453517913818359375" lon="-107.7337506227195262908935546875">
        <ele>3348.800048828125</ele>
        <time>2026-08-15T13:07:15.000Z</time>
        <extensions>
          <ns3:TrackPointExtension>
            <ns3:hr>97</ns3:hr>
            <ns3:cad>0</ns3:cad>
          </ns3:TrackPointExtension>
        </extensions>
      </trkpt>
      <trkpt lat="37.97731689177453517913818359375" lon="-107.7337506227195262908935546875">
        <ele>3348.800048828125</ele>
        <time>2026-08-15T13:07:16.000Z</time>
        <extensions>
          <ns3:TrackPointExtension>
            <ns3:hr>93</ns3:hr>
            <ns3:cad>0</ns3:cad>
          </ns3:TrackPointExtension>
        </extensions>
      </trkpt>
      <trkpt lat="37.97731689177453517913818359375" lon="-107.7337506227195262908935546875">
        <ele>3348.800048828125</ele>
        <time>2026-08-15T13:07:18.000Z</time>
        <extensions>
          <ns3:TrackPointExtension>
            <ns3:hr>89</ns3:hr>
            <ns3:cad>0</ns3:cad>
          </ns3:TrackPointExtension>
        </extensions>
      </trkpt>
      <trkpt lat="37.97731689177453517913818359375" lon="-107.7337506227195262908935546875">
        <ele>3349.199951171875</ele>
        <time>2026-08-15T13:07:24.000Z</time>
        <extensions>
          <ns3:TrackPointExtension>
            <ns3:hr>88</ns3:hr>
            <ns3:cad>0</ns3:cad>
          </ns3:TrackPointExtension>
        </extensions>
      </trkpt>
      <trkpt lat="37.97731689177453517913818359375" lon="-107.7337506227195262908935546875">
        <ele>3349.39990234375</ele>
        <time>2026-08-15T13:07:25.000Z</time>
        <extensions>
          <ns3:TrackPointExtension>
            <ns3:hr>89</ns3:hr>
            <ns3:cad>0</ns3:cad>
          </ns3:TrackPointExtension>
        </extensions>
      </trkpt>
      <trkpt lat="37.97733214683830738067626953125" lon="-107.7337264828383922576904296875">
        <ele>3349.39990234375</ele>
        <time>2026-08-15T13:07:31.000Z</time>
        <extensions>
          <ns3:TrackPointExtension>
            <ns3:hr>89</ns3:hr>
            <ns3:cad>68</ns3:cad>
          </ns3:TrackPointExtension>
        </extensions>
      </trkpt>
      <trkpt lat="37.97732443548738956451416015625" lon="-107.73373092524707317352294921875">
        <ele>3349</ele>
        <time>2026-08-15T13:07:37.000Z</time>
        <extensions>
          <ns3:TrackPointExtension>
            <ns3:hr>87</ns3:hr>
            <ns3:cad>64</ns3:cad>
          </ns3:TrackPointExtension>
        </extensions>
      </trkpt>
      <trkpt lat="37.9773225076496601104736328125" lon="-107.73372690193355083465576171875">
        <ele>3348.60009765625</ele>
        <time>2026-08-15T13:07:43.000Z</time>
        <extensions>
          <ns3:TrackPointExtension>
            <ns3:hr>87</ns3:hr>
            <ns3:cad>0</ns3:cad>
          </ns3:TrackPointExtension>
        </extensions>
      </trkpt>
      <trkpt lat="37.9773191548883914947509765625" lon="-107.73372589610517024993896484375">
        <ele>3348.60009765625</ele>
        <time>2026-08-15T13:07:46.000Z</time>
        <extensions>
          <ns3:TrackPointExtension>
            <ns3:hr>92</ns3:hr>
            <ns3:cad>55</ns3:cad>
          </ns3:TrackPointExtension>
        </extensions>
      </trkpt>
      <trkpt lat="37.9773077555000782012939453125" lon="-107.73372874595224857330322265625">
        <ele>3348.39990234375</ele>
        <time>2026-08-15T13:07:47.000Z</time>
        <extensions>
          <ns3:TrackPointExtension>
            <ns3:hr>95</ns3:hr>
            <ns3:cad>55</ns3:cad>
          </ns3:TrackPointExtension>
        </extensions>
      </trkpt>
      <trkpt lat="37.97729560174047946929931640625" lon="-107.73373536765575408935546875">
        <ele>3348.39990234375</ele>
        <time>2026-08-15T13:07:48.000Z</time>
        <extensions>
          <ns3:TrackPointExtension>
            <ns3:hr>98</ns3:hr>
            <ns3:cad>55</ns3:cad>
          </ns3:TrackPointExtension>
        </extensions>
      </trkpt>
      <trkpt lat="37.97727447934448719024658203125" lon="-107.73375858552753925323486328125">
        <ele>3348</ele>
        <time>2026-08-15T13:07:50.000Z</time>
        <extensions>
          <ns3:TrackPointExtension>
            <ns3:hr>99</ns3:hr>
            <ns3:cad>54</ns3:cad>
          </ns3:TrackPointExtension>
        </extensions>
      </trkpt>
      <trkpt lat="37.9772624932229518890380859375" lon="-107.7337963879108428955078125">
        <ele>3348.199951171875</ele>
        <time>2026-08-15T13:07:54.000Z</time>
        <extensions>
          <ns3:TrackPointExtension>
            <ns3:hr>99</ns3:hr>
            <ns3:cad>55</ns3:cad>
          </ns3:TrackPointExtension>
        </extensions>
      </trkpt>
      <trkpt lat="37.97726023010909557342529296875" lon="-107.7338039316236972808837890625">
        <ele>3348.39990234375</ele>
        <time>2026-08-15T13:07:55.000Z</time>
        <extensions>
          <ns3:TrackPointExtension>
            <ns3:hr>97</ns3:hr>
            <ns3:cad>0</ns3:cad>
          </ns3:TrackPointExtension>
        </extensions>
      </trkpt>
      <trkpt lat="37.9772564582526683807373046875" lon="-107.73381583392620086669921875">
        <ele>3349</ele>
        <time>2026-08-15T13:07:57.000Z</time>
        <extensions>
          <ns3:TrackPointExtension>
            <ns3:hr>93</ns3:hr>
            <ns3:cad>0</ns3:cad>
          </ns3:TrackPointExtension>
        </extensions>
      </trkpt>
      <trkpt lat="37.9772539436817169189453125" lon="-107.7338176779448986053466796875">
        <ele>3349.60009765625</ele>
        <time>2026-08-15T13:07:59.000Z</time>
        <extensions>
          <ns3:TrackPointExtension>
            <ns3:hr>91</ns3:hr>
            <ns3:cad>0</ns3:cad>
          </ns3:TrackPointExtension>
        </extensions>
      </trkpt>
      <trkpt lat="37.97724531032145023345947265625" lon="-107.733828909695148468017578125">
        <ele>3349.800048828125</ele>
        <time>2026-08-15T13:08:01.000Z</time>
        <extensions>
          <ns3:TrackPointExtension>
            <ns3:hr>90</ns3:hr>
            <ns3:cad>0</ns3:cad>
          </ns3:TrackPointExtension>
        </extensions>
      </trkpt>
      <trkpt lat="37.97723692841827869415283203125" lon="-107.7338656224310398101806640625">
        <ele>3350</ele>
        <time>2026-08-15T13:08:07.000Z</time>
        <extensions>
          <ns3:TrackPointExtension>
            <ns3:hr>89</ns3:hr>
            <ns3:cad>0</ns3:cad>
          </ns3:TrackPointExtension>
        </extensions>
      </trkpt>
      <trkpt lat="37.97724044881761074066162109375" lon="-107.7338357828557491302490234375">
        <ele>3349.800048828125</ele>
        <time>2026-08-15T13:08:12.000Z</time>
        <extensions>
          <ns3:TrackPointExtension>
            <ns3:hr>90</ns3:hr>
            <ns3:cad>68</ns3:cad>
          </ns3:TrackPointExtension>
        </extensions>
      </trkpt>
      <trkpt lat="37.97721195034682750701904296875" lon="-107.73382295854389667510986328125">
        <ele>3348.39990234375</ele>
        <time>2026-08-15T13:08:18.000Z</time>
        <extensions>
          <ns3:TrackPointExtension>
            <ns3:hr>88</ns3:hr>
            <ns3:cad>0</ns3:cad>
          </ns3:TrackPointExtension>
        </extensions>
      </trkpt>
      <trkpt lat="37.97720968723297119140625" lon="-107.73382631130516529083251953125">
        <ele>3348</ele>
        <time>2026-08-15T13:08:19.000Z</time>
        <extensions>
          <ns3:TrackPointExtension>
            <ns3:hr>88</ns3:hr>
            <ns3:cad>0</ns3:cad>
          </ns3:TrackPointExtension>
        </extensions>
      </trkpt>
      <trkpt lat="37.977205328643321990966796875" lon="-107.73382388055324554443359375">
        <ele>3347</ele>
        <time>2026-08-15T13:08:21.000Z</time>
        <extensions>
          <ns3:TrackPointExtension>
            <ns3:hr>89</ns3:hr>
            <ns3:cad>0</ns3:cad>
          </ns3:TrackPointExtension>
        </extensions>
      </trkpt>
      <trkpt lat="37.9772081784904003143310546875" lon="-107.7338247187435626983642578125">
        <ele>3346.60009765625</ele>
        <time>2026-08-15T13:08:25.000Z</time>
        <extensions>
          <ns3:TrackPointExtension>
            <ns3:hr>89</ns3:hr>
            <ns3:cad>0</ns3:cad>
          </ns3:TrackPointExtension>
        </extensions>
      </trkpt>
      <trkpt lat="37.9772081784904003143310546875" lon="-107.7338247187435626983642578125">
        <ele>3346.800048828125</ele>
        <time>2026-08-15T13:08:30.000Z</time>
        <extensions>
          <ns3:TrackPointExtension>
            <ns3:hr>101</ns3:hr>
            <ns3:cad>0</ns3:cad>
          </ns3:TrackPointExtension>
        </extensions>
      </trkpt>
      <trkpt lat="37.9772081784904003143310546875" lon="-107.7338247187435626983642578125">
        <ele>3346.800048828125</ele>
        <time>2026-08-15T13:08:31.000Z</time>
        <extensions>
          <ns3:TrackPointExtension>
            <ns3:hr>108</ns3:hr>
            <ns3:cad>0</ns3:cad>
          </ns3:TrackPointExtension>
        </extensions>
      </trkpt>
      <trkpt lat="37.9772081784904003143310546875" lon="-107.7338247187435626983642578125">
        <ele>3346.800048828125</ele>
        <time>2026-08-15T13:08:32.000Z</time>
        <extensions>
          <ns3:TrackPointExtension>
            <ns3:hr>109</ns3:hr>
            <ns3:cad>0</ns3:cad>
          </ns3:TrackPointExtension>
        </extensions>
      </trkpt>
      <trkpt lat="37.9772081784904003143310546875" lon="-107.7338247187435626983642578125">
        <ele>3347.199951171875</ele>
        <time>2026-08-15T13:08:38.000Z</time>
        <extensions>
          <ns3:TrackPointExtension>
            <ns3:hr>110</ns3:hr>
            <ns3:cad>0</ns3:cad>
          </ns3:TrackPointExtension>
        </extensions>
      </trkpt>
      <trkpt lat="37.9772081784904003143310546875" lon="-107.7338247187435626983642578125">
        <ele>3347.199951171875</ele>
        <time>2026-08-15T13:08:39.000Z</time>
        <extensions>
          <ns3:TrackPointExtension>
            <ns3:hr>110</ns3:hr>
            <ns3:cad>0</ns3:cad>
          </ns3:TrackPointExtension>
        </extensions>
      </trkpt>
      <trkpt lat="37.9772081784904003143310546875" lon="-107.7338247187435626983642578125">
        <ele>3347</ele>
        <time>2026-08-15T13:08:45.000Z</time>
        <extensions>
          <ns3:TrackPointExtension>
            <ns3:hr>110</ns3:hr>
            <ns3:cad>0</ns3:cad>
          </ns3:TrackPointExtension>
        </extensions>
      </trkpt>
      <trkpt lat="37.9772081784904003143310546875" lon="-107.7338247187435626983642578125">
        <ele>3347</ele>
        <time>2026-08-15T13:08:49.000Z</time>
        <extensions>
          <ns3:TrackPointExtension>
            <ns3:hr>109</ns3:hr>
            <ns3:cad>0</ns3:cad>
          </ns3:TrackPointExtension>
        </extensions>
      </trkpt>
      <trkpt lat="37.9772081784904003143310546875" lon="-107.7338247187435626983642578125">
        <ele>3347.60009765625</ele>
        <time>2026-08-15T13:08:54.000Z</time>
        <extensions>
          <ns3:TrackPointExtension>
            <ns3:hr>105</ns3:hr>
            <ns3:cad>0</ns3:cad>
          </ns3:TrackPointExtension>
        </extensions>
      </trkpt>
      <trkpt lat="37.9772081784904003143310546875" lon="-107.7338247187435626983642578125">
        <ele>3347.39990234375</ele>
        <time>2026-08-15T13:08:56.000Z</time>
        <extensions>
          <ns3:TrackPointExtension>
            <ns3:hr>100</ns3:hr>
            <ns3:cad>0</ns3:cad>
          </ns3:TrackPointExtension>
        </extensions>
      </trkpt>
      <trkpt lat="37.9772081784904003143310546875" lon="-107.7338247187435626983642578125">
        <ele>3347</ele>
        <time>2026-08-15T13:08:58.000Z</time>
        <extensions>
          <ns3:TrackPointExtension>
            <ns3:hr>97</ns3:hr>
            <ns3:cad>0</ns3:cad>
          </ns3:TrackPointExtension>
        </extensions>
      </trkpt>
      <trkpt lat="37.9772081784904003143310546875" lon="-107.7338247187435626983642578125">
        <ele>3346.800048828125</ele>
        <time>2026-08-15T13:09:01.000Z</time>
        <extensions>
          <ns3:TrackPointExtension>
            <ns3:hr>94</ns3:hr>
            <ns3:cad>0</ns3:cad>
          </ns3:TrackPointExtension>
        </extensions>
      </trkpt>
      <trkpt lat="37.9772081784904003143310546875" lon="-107.7338247187435626983642578125">
        <ele>3346.800048828125</ele>
        <time>2026-08-15T13:09:02.000Z</time>
        <extensions>
          <ns3:TrackPointExtension>
            <ns3:hr>94</ns3:hr>
            <ns3:cad>0</ns3:cad>
          </ns3:TrackPointExtension>
        </extensions>
      </trkpt>
      <trkpt lat="37.9772081784904003143310546875" lon="-107.7338247187435626983642578125">
        <ele>3347.39990234375</ele>
        <time>2026-08-15T13:09:08.000Z</time>
        <extensions>
          <ns3:TrackPointExtension>
            <ns3:hr>93</ns3:hr>
            <ns3:cad>0</ns3:cad>
          </ns3:TrackPointExtension>
        </extensions>
      </trkpt>
      <trkpt lat="37.97720943577587604522705078125" lon="-107.73383301682770252227783203125">
        <ele>3347.60009765625</ele>
        <time>2026-08-15T13:09:11.000Z</time>
        <extensions>
          <ns3:TrackPointExtension>
            <ns3:hr>92</ns3:hr>
            <ns3:cad>0</ns3:cad>
          </ns3:TrackPointExtension>
        </extensions>
      </trkpt>
      <trkpt lat="37.9772081784904003143310546875" lon="-107.7338247187435626983642578125">
        <ele>3347.39990234375</ele>
        <time>2026-08-15T13:09:17.000Z</time>
        <extensions>
          <ns3:TrackPointExtension>
            <ns3:hr>92</ns3:hr>
            <ns3:cad>0</ns3:cad>
          </ns3:TrackPointExtension>
        </extensions>
      </trkpt>
      <trkpt lat="37.97720842994749546051025390625" lon="-107.73384357802569866180419921875">
        <ele>3347</ele>
        <time>2026-08-15T13:09:20.000Z</time>
        <extensions>
          <ns3:TrackPointExtension>
            <ns3:hr>93</ns3:hr>
            <ns3:cad>0</ns3:cad>
          </ns3:TrackPointExtension>
        </extensions>
      </trkpt>
      <trkpt lat="37.97721077688038349151611328125" lon="-107.73388247005641460418701171875">
        <ele>3348.199951171875</ele>
        <time>2026-08-15T13:09:25.000Z</time>
        <extensions>
          <ns3:TrackPointExtension>
            <ns3:hr>92</ns3:hr>
            <ns3:cad>0</ns3:cad>
          </ns3:TrackPointExtension>
        </extensions>
      </trkpt>
      <trkpt lat="37.97721144743263721466064453125" lon="-107.7338911034166812896728515625">
        <ele>3348.800048828125</ele>
        <time>2026-08-15T13:09:26.000Z</time>
        <extensions>
          <ns3:TrackPointExtension>
            <ns3:hr>92</ns3:hr>
            <ns3:cad>0</ns3:cad>
          </ns3:TrackPointExtension>
        </extensions>
      </trkpt>
      <trkpt lat="37.977212034165859222412109375" lon="-107.733895964920520782470703125">
        <ele>3349.39990234375</ele>
        <time>2026-08-15T13:09:27.000Z</time>
        <extensions>
          <ns3:TrackPointExtension>
            <ns3:hr>92</ns3:hr>
            <ns3:cad>0</ns3:cad>
          </ns3:TrackPointExtension>
        </extensions>
      </trkpt>
      <trkpt lat="37.97722016461193561553955078125" lon="-107.7339296601712703704833984375">
        <ele>3350</ele>
        <time>2026-08-15T13:09:31.000Z</time>
        <extensions>
          <ns3:TrackPointExtension>
            <ns3:hr>93</ns3:hr>
            <ns3:cad>48</ns3:cad>
          </ns3:TrackPointExtension>
        </extensions>
      </trkpt>
      <trkpt lat="37.97723181545734405517578125" lon="-107.73396058939397335052490234375">
        <ele>3350.60009765625</ele>
        <time>2026-08-15T13:09:35.000Z</time>
        <extensions>
          <ns3:TrackPointExtension>
            <ns3:hr>93</ns3:hr>
            <ns3:cad>50</ns3:cad>
          </ns3:TrackPointExtension>
        </extensions>
      </trkpt>
      <trkpt lat="37.9772326536476612091064453125" lon="-107.73397601209580898284912109375">
        <ele>3351.199951171875</ele>
        <time>2026-08-15T13:09:37.000Z</time>
        <extensions>
          <ns3:TrackPointExtension>
            <ns3:hr>92</ns3:hr>
            <ns3:cad>0</ns3:cad>
          </ns3:TrackPointExtension>
        </extensions>
      </trkpt>
      <trkpt lat="37.97723407857120037078857421875" lon="-107.73399177007377147674560546875">
        <ele>3351.60009765625</ele>
        <time>2026-08-15T13:09:39.000Z</time>
        <extensions>
          <ns3:TrackPointExtension>
            <ns3:hr>92</ns3:hr>
            <ns3:cad>0</ns3:cad>
          </ns3:TrackPointExtension>
        </extensions>
      </trkpt>
      <trkpt lat="37.977243550121784210205078125" lon="-107.73403854109346866607666015625">
        <ele>3352.60009765625</ele>
        <time>2026-08-15T13:09:43.000Z</time>
        <extensions>
          <ns3:TrackPointExtension>
            <ns3:hr>92</ns3:hr>
            <ns3:cad>0</ns3:cad>
          </ns3:TrackPointExtension>
        </extensions>
      </trkpt>
      <trkpt lat="37.9772458970546722412109375" lon="-107.7340446598827838897705078125">
        <ele>3352.800048828125</ele>
        <time>2026-08-15T13:09:44.000Z</time>
        <extensions>
          <ns3:TrackPointExtension>
            <ns3:hr>92</ns3:hr>
            <ns3:cad>0</ns3:cad>
          </ns3:TrackPointExtension>
        </extensions>
      </trkpt>
      <trkpt lat="37.9772584699094295501708984375" lon="-107.73409201763570308685302734375">
        <ele>3353.39990234375</ele>
        <time>2026-08-15T13:09:48.000Z</time>
        <extensions>
          <ns3:TrackPointExtension>
            <ns3:hr>92</ns3:hr>
            <ns3:cad>46</ns3:cad>
          </ns3:TrackPointExtension>
        </extensions>
      </trkpt>
      <trkpt lat="37.97726333141326904296875" lon="-107.73411917500197887420654296875">
        <ele>3353.800048828125</ele>
        <time>2026-08-15T13:09:50.000Z</time>
        <extensions>
          <ns3:TrackPointExtension>
            <ns3:hr>93</ns3:hr>
            <ns3:cad>44</ns3:cad>
          </ns3:TrackPointExtension>
        </extensions>
      </trkpt>
      <trkpt lat="37.9772728867828845977783203125" lon="-107.7341355197131633758544921875">
        <ele>3354</ele>
        <time>2026-08-15T13:09:52.000Z</time>
        <extensions>
          <ns3:TrackPointExtension>
            <ns3:hr>96</ns3:hr>
            <ns3:cad>0</ns3:cad>
          </ns3:TrackPointExtension>
        </extensions>
      </trkpt>
      <trkpt lat="37.97727984376251697540283203125" lon="-107.7341519482433795928955078125">
        <ele>3354.60009765625</ele>
        <time>2026-08-15T13:09:54.000Z</time>
        <extensions>
          <ns3:TrackPointExtension>
            <ns3:hr>100</ns3:hr>
            <ns3:cad>0</ns3:cad>
          </ns3:TrackPointExtension>
        </extensions>
      </trkpt>
      <trkpt lat="37.9772762395441532135009765625" lon="-107.734168879687786102294921875">
        <ele>3354.800048828125</ele>
        <time>2026-08-15T13:09:55.000Z</time>
        <extensions>
          <ns3:TrackPointExtension>
            <ns3:hr>102</ns3:hr>
            <ns3:cad>0</ns3:cad>
          </ns3:TrackPointExtension>
        </extensions>
      </trkpt>
      <trkpt lat="37.97727607190608978271484375" lon="-107.73417969234287738800048828125">
        <ele>3355</ele>
        <time>2026-08-15T13:09:56.000Z</time>
        <extensions>
          <ns3:TrackPointExtension>
            <ns3:hr>103</ns3:hr>
            <ns3:cad>0</ns3:cad>
          </ns3:TrackPointExtension>
        </extensions>
      </trkpt>
      <trkpt lat="37.977275066077709197998046875" lon="-107.7342029102146625518798828125">
        <ele>3355.199951171875</ele>
        <time>2026-08-15T13:09:58.000Z</time>
        <extensions>
          <ns3:TrackPointExtension>
            <ns3:hr>106</ns3:hr>
            <ns3:cad>0</ns3:cad>
          </ns3:TrackPointExtension>
        </extensions>
      </trkpt>
      <trkpt lat="37.977276742458343505859375" lon="-107.73421950638294219970703125">
        <ele>3355.199951171875</ele>
        <time>2026-08-15T13:09:59.000Z</time>
        <extensions>
          <ns3:TrackPointExtension>
            <ns3:hr>107</ns3:hr>
            <ns3:cad>0</ns3:cad>
          </ns3:TrackPointExtension>
        </extensions>
      </trkpt>
      <trkpt lat="37.977283783257007598876953125" lon="-107.73426376283168792724609375">
        <ele>3355.39990234375</ele>
        <time>2026-08-15T13:10:02.000Z</time>
        <extensions>
          <ns3:TrackPointExtension>
            <ns3:hr>110</ns3:hr>
            <ns3:cad>0</ns3:cad>
          </ns3:TrackPointExtension>
        </extensions>
      </trkpt>
      <trkpt lat="37.97729476355016231536865234375" lon="-107.73429955355823040008544921875">
        <ele>3355.60009765625</ele>
        <time>2026-08-15T13:10:05.000Z</time>
        <extensions>
          <ns3:TrackPointExtension>
            <ns3:hr>113</ns3:hr>
            <ns3:cad>0</ns3:cad>
          </ns3:TrackPointExtension>
        </extensions>
      </trkpt>
      <trkpt lat="37.9772983677685260772705078125" lon="-107.73431581445038318634033203125">
        <ele>3356</ele>
        <time>2026-08-15T13:10:07.000Z</time>
        <extensions>
          <ns3:TrackPointExtension>
            <ns3:hr>114</ns3:hr>
            <ns3:cad>0</ns3:cad>
          </ns3:TrackPointExtension>
        </extensions>
      </trkpt>
      <trkpt lat="37.97730515711009502410888671875" lon="-107.73435185663402080535888671875">
        <ele>3356.800048828125</ele>
        <time>2026-08-15T13:10:10.000Z</time>
        <extensions>
          <ns3:TrackPointExtension>
            <ns3:hr>116</ns3:hr>
            <ns3:cad>0</ns3:cad>
          </ns3:TrackPointExtension>
        </extensions>
      </trkpt>
      <trkpt lat="37.9773084260523319244384765625" lon="-107.7343757450580596923828125">
        <ele>3357.199951171875</ele>
        <time>2026-08-15T13:10:12.000Z</time>
        <extensions>
          <ns3:TrackPointExtension>
            <ns3:hr>117</ns3:hr>
            <ns3:cad>0</ns3:cad>
          </ns3:TrackPointExtension>
        </extensions>
      </trkpt>
      <trkpt lat="37.9773161374032497406005859375" lon="-107.734402902424335479736328125">
        <ele>3357.800048828125</ele>
        <time>2026-08-15T13:10:15.000Z</time>
        <extensions>
          <ns3:TrackPointExtension>
            <ns3:hr>119</ns3:hr>
            <ns3:cad>0</ns3:cad>
          </ns3:TrackPointExtension>
        </extensions>
      </trkpt>
      <trkpt lat="37.97732426784932613372802734375" lon="-107.73442394100129604339599609375">
        <ele>3358.39990234375</ele>
        <time>2026-08-15T13:10:18.000Z</time>
        <extensions>
          <ns3:TrackPointExtension>
            <ns3:hr>118</ns3:hr>
            <ns3:cad>0</ns3:cad>
          </ns3:TrackPointExtension>
        </extensions>
      </trkpt>
      <trkpt lat="37.9773268662393093109130859375" lon="-107.73444489575922489166259765625">
        <ele>3358.800048828125</ele>
        <time>2026-08-15T13:10:21.000Z</time>
        <extensions>
          <ns3:TrackPointExtension>
            <ns3:hr>118</ns3:hr>
            <ns3:cad>47</ns3:cad>
          </ns3:TrackPointExtension>
        </extensions>
      </trkpt>
      <trkpt lat="37.9773382656276226043701171875" lon="-107.7344828657805919647216796875">
        <ele>3359.39990234375</ele>
        <time>2026-08-15T13:10:24.000Z</time>
        <extensions>
          <ns3:TrackPointExtension>
            <ns3:hr>118</ns3:hr>
            <ns3:cad>47</ns3:cad>
          </ns3:TrackPointExtension>
        </extensions>
      </trkpt>
      <trkpt lat="37.97734606079757213592529296875" lon="-107.73450105451047420501708984375">
        <ele>3359.800048828125</ele>
        <time>2026-08-15T13:10:26.000Z</time>
        <extensions>
          <ns3:TrackPointExtension>
            <ns3:hr>118</ns3:hr>
            <ns3:cad>48</ns3:cad>
          </ns3:TrackPointExtension>
        </extensions>
      </trkpt>
      <trkpt lat="37.9773516766726970672607421875" lon="-107.734514884650707244873046875">
        <ele>3360.199951171875</ele>
        <time>2026-08-15T13:10:28.000Z</time>
        <extensions>
          <ns3:TrackPointExtension>
            <ns3:hr>118</ns3:hr>
            <ns3:cad>0</ns3:cad>
          </ns3:TrackPointExtension>
        </extensions>
      </trkpt>
      <trkpt lat="37.9773546941578388214111328125" lon="-107.734520249068737030029296875">
        <ele>3360.39990234375</ele>
        <time>2026-08-15T13:10:29.000Z</time>
        <extensions>
          <ns3:TrackPointExtension>
            <ns3:hr>118</ns3:hr>
            <ns3:cad>0</ns3:cad>
          </ns3:TrackPointExtension>
        </extensions>
      </trkpt>
      <trkpt lat="37.97736592590808868408203125" lon="-107.734554447233676910400390625">
        <ele>3361.39990234375</ele>
        <time>2026-08-15T13:10:32.000Z</time>
        <extensions>
          <ns3:TrackPointExtension>
            <ns3:hr>118</ns3:hr>
            <ns3:cad>0</ns3:cad>
          </ns3:TrackPointExtension>
        </extensions>
      </trkpt>
      <trkpt lat="37.97736458480358123779296875" lon="-107.734558470547199249267578125">
        <ele>3361.60009765625</ele>
        <time>2026-08-15T13:10:33.000Z</time>
        <extensions>
          <ns3:TrackPointExtension>
            <ns3:hr>117</ns3:hr>
            <ns3:cad>0</ns3:cad>
          </ns3:TrackPointExtension>
        </extensions>
      </trkpt>
      <trkpt lat="37.9773781634867191314697265625" lon="-107.73458587937057018280029296875">
        <ele>3361.800048828125</ele>
        <time>2026-08-15T13:10:36.000Z</time>
        <extensions>
          <ns3:TrackPointExtension>
            <ns3:hr>116</ns3:hr>
            <ns3:cad>0</ns3:cad>
          </ns3:TrackPointExtension>
        </extensions>
      </trkpt>
      <trkpt lat="37.97738914377987384796142578125" lon="-107.73463449440896511077880859375">
        <ele>3362.60009765625</ele>
        <time>2026-08-15T13:10:42.000Z</time>
        <extensions>
          <ns3:TrackPointExtension>
            <ns3:hr>116</ns3:hr>
            <ns3:cad>43</ns3:cad>
          </ns3:TrackPointExtension>
        </extensions>
      </trkpt>
      <trkpt lat="37.9774106852710247039794921875" lon="-107.73470087908208370208740234375">
        <ele>3363</ele>
        <time>2026-08-15T13:10:47.000Z</time>
        <extensions>
          <ns3:TrackPointExtension>
            <ns3:hr>117</ns3:hr>
            <ns3:cad>43</ns3:cad>
          </ns3:TrackPointExtension>
        </extensions>
      </trkpt>
      <trkpt lat="37.9774140380322933197021484375" lon="-107.73471680469810962677001953125">
        <ele>3364</ele>
        <time>2026-08-15T13:10:50.000Z</time>
        <extensions>
          <ns3:TrackPointExtension>
            <ns3:hr>117</ns3:hr>
            <ns3:cad>43</ns3:cad>
          </ns3:TrackPointExtension>
        </extensions>
      </trkpt>
      <trkpt lat="37.97742418013513088226318359375" lon="-107.73473826237022876739501953125">
        <ele>3364.60009765625</ele>
        <time>2026-08-15T13:10:52.000Z</time>
        <extensions>
          <ns3:TrackPointExtension>
            <ns3:hr>116</ns3:hr>
            <ns3:cad>43</ns3:cad>
          </ns3:TrackPointExtension>
        </extensions>
      </trkpt>
      <trkpt lat="37.9774311371147632598876953125" lon="-107.73475452326238155364990234375">
        <ele>3365</ele>
        <time>2026-08-15T13:10:54.000Z</time>
        <extensions>
          <ns3:TrackPointExtension>
            <ns3:hr>117</ns3:hr>
            <ns3:cad>43</ns3:cad>
          </ns3:TrackPointExtension>
        </extensions>
      </trkpt>
      <trkpt lat="37.9774395190179347991943359375" lon="-107.73478201590478420257568359375">
        <ele>3365.39990234375</ele>
        <time>2026-08-15T13:10:57.000Z</time>
        <extensions>
          <ns3:TrackPointExtension>
            <ns3:hr>118</ns3:hr>
            <ns3:cad>43</ns3:cad>
          </ns3:TrackPointExtension>
        </extensions>
      </trkpt>
      <trkpt lat="37.97745770774781703948974609375" lon="-107.73481495678424835205078125">
        <ele>3366</ele>
        <time>2026-08-15T13:11:01.000Z</time>
        <extensions>
          <ns3:TrackPointExtension>
            <ns3:hr>119</ns3:hr>
            <ns3:cad>0</ns3:cad>
          </ns3:TrackPointExtension>
        </extensions>
      </trkpt>
      <trkpt lat="37.97746173106133937835693359375" lon="-107.7348268590867519378662109375">
        <ele>3366.199951171875</ele>
        <time>2026-08-15T13:11:02.000Z</time>
        <extensions>
          <ns3:TrackPointExtension>
            <ns3:hr>120</ns3:hr>
            <ns3:cad>0</ns3:cad>
          </ns3:TrackPointExtension>
        </extensions>
      </trkpt>
      <trkpt lat="37.9774763993918895721435546875" lon="-107.73488075472414493560791015625">
        <ele>3366.800048828125</ele>
        <time>2026-08-15T13:11:07.000Z</time>
        <extensions>
          <ns3:TrackPointExtension>
            <ns3:hr>121</ns3:hr>
            <ns3:cad>0</ns3:cad>
          </ns3:TrackPointExtension>
        </extensions>
      </trkpt>
      <trkpt lat="37.9774814285337924957275390625" lon="-107.7349267713725566864013671875">
        <ele>3367.199951171875</ele>
        <time>2026-08-15T13:11:11.000Z</time>
        <extensions>
          <ns3:TrackPointExtension>
            <ns3:hr>121</ns3:hr>
            <ns3:cad>47</ns3:cad>
          </ns3:TrackPointExtension>
        </extensions>
      </trkpt>
      <trkpt lat="37.97748017124831676483154296875" lon="-107.73493624292314052581787109375">
        <ele>3367.39990234375</ele>
        <time>2026-08-15T13:11:12.000Z</time>
        <extensions>
          <ns3:TrackPointExtension>
            <ns3:hr>121</ns3:hr>
            <ns3:cad>47</ns3:cad>
          </ns3:TrackPointExtension>
        </extensions>
      </trkpt>
      <trkpt lat="37.9774837754666805267333984375" lon="-107.7349619753658771514892578125">
        <ele>3367.800048828125</ele>
        <time>2026-08-15T13:11:14.000Z</time>
        <extensions>
          <ns3:TrackPointExtension>
            <ns3:hr>120</ns3:hr>
            <ns3:cad>48</ns3:cad>
          </ns3:TrackPointExtension>
        </extensions>
      </trkpt>
      <trkpt lat="37.97749123536050319671630859375" lon="-107.734988965094089508056640625">
        <ele>3368.199951171875</ele>
        <time>2026-08-15T13:11:16.000Z</time>
        <extensions>
          <ns3:TrackPointExtension>
            <ns3:hr>120</ns3:hr>
            <ns3:cad>0</ns3:cad>
          </ns3:TrackPointExtension>
        </extensions>
      </trkpt>
      <trkpt lat="37.97749961726367473602294921875" lon="-107.73501654155552387237548828125">
        <ele>3368.800048828125</ele>
        <time>2026-08-15T13:11:19.000Z</time>
        <extensions>
          <ns3:TrackPointExtension>
            <ns3:hr>120</ns3:hr>
            <ns3:cad>0</ns3:cad>
          </ns3:TrackPointExtension>
        </extensions>
      </trkpt>
      <trkpt lat="37.97751705162227153778076171875" lon="-107.73507035337388515472412109375">
        <ele>3369.39990234375</ele>
        <time>2026-08-15T13:11:24.000Z</time>
        <extensions>
          <ns3:TrackPointExtension>
            <ns3:hr>118</ns3:hr>
            <ns3:cad>0</ns3:cad>
          </ns3:TrackPointExtension>
        </extensions>
      </trkpt>
      <trkpt lat="37.9775263555347919464111328125" lon="-107.73510354571044445037841796875">
        <ele>3370.60009765625</ele>
        <time>2026-08-15T13:11:29.000Z</time>
        <extensions>
          <ns3:TrackPointExtension>
            <ns3:hr>121</ns3:hr>
            <ns3:cad>0</ns3:cad>
          </ns3:TrackPointExtension>
        </extensions>
      </trkpt>
      <trkpt lat="37.97753381542861461639404296875" lon="-107.73511410690844058990478515625">
        <ele>3370.800048828125</ele>
        <time>2026-08-15T13:11:30.000Z</time>
        <extensions>
          <ns3:TrackPointExtension>
            <ns3:hr>121</ns3:hr>
            <ns3:cad>0</ns3:cad>
          </ns3:TrackPointExtension>
        </extensions>
      </trkpt>
      <trkpt lat="37.977547980844974517822265625" lon="-107.7351514063775539398193359375">
        <ele>3371.60009765625</ele>
        <time>2026-08-15T13:11:34.000Z</time>
        <extensions>
          <ns3:TrackPointExtension>
            <ns3:hr>121</ns3:hr>
            <ns3:cad>47</ns3:cad>
          </ns3:TrackPointExtension>
        </extensions>
      </trkpt>
      <trkpt lat="37.97755057923495769500732421875" lon="-107.735161297023296356201171875">
        <ele>3371.800048828125</ele>
        <time>2026-08-15T13:11:35.000Z</time>
        <extensions>
          <ns3:TrackPointExtension>
            <ns3:hr>122</ns3:hr>
            <ns3:cad>0</ns3:cad>
          </ns3:TrackPointExtension>
        </extensions>
      </trkpt>
      <trkpt lat="37.97756918705999851226806640625" lon="-107.73520253598690032958984375">
        <ele>3372.800048828125</ele>
        <time>2026-08-15T13:11:40.000Z</time>
        <extensions>
          <ns3:TrackPointExtension>
            <ns3:hr>123</ns3:hr>
            <ns3:cad>0</ns3:cad>
          </ns3:TrackPointExtension>
        </extensions>
      </trkpt>
      <trkpt lat="37.9775798320770263671875" lon="-107.73524788208305835723876953125">
        <ele>3373.60009765625</ele>
        <time>2026-08-15T13:11:44.000Z</time>
        <extensions>
          <ns3:TrackPointExtension>
            <ns3:hr>121</ns3:hr>
            <ns3:cad>0</ns3:cad>
          </ns3:TrackPointExtension>
        </extensions>
      </trkpt>
      <trkpt lat="37.97758243046700954437255859375" lon="-107.7352600358426570892333984375">
        <ele>3373.800048828125</ele>
        <time>2026-08-15T13:11:45.000Z</time>
        <extensions>
          <ns3:TrackPointExtension>
            <ns3:hr>120</ns3:hr>
            <ns3:cad>0</ns3:cad>
          </ns3:TrackPointExtension>
        </extensions>
      </trkpt>
      <trkpt lat="37.97760489396750926971435546875" lon="-107.73530781269073486328125">
        <ele>3374.39990234375</ele>
        <time>2026-08-15T13:11:50.000Z</time>
        <extensions>
          <ns3:TrackPointExtension>
            <ns3:hr>119</ns3:hr>
            <ns3:cad>0</ns3:cad>
          </ns3:TrackPointExtension>
        </extensions>
      </trkpt>
      <trkpt lat="37.97762584872543811798095703125" lon="-107.73533840663731098175048828125">
        <ele>3375</ele>
        <time>2026-08-15T13:11:53.000Z</time>
        <extensions>
          <ns3:TrackPointExtension>
            <ns3:hr>119</ns3:hr>
            <ns3:cad>48</ns3:cad>
          </ns3:TrackPointExtension>
        </extensions>
      </trkpt>
      <trkpt lat="37.977643869817256927490234375" lon="-107.73537822067737579345703125">
        <ele>3375.199951171875</ele>
        <time>2026-08-15T13:11:56.000Z</time>
        <extensions>
          <ns3:TrackPointExtension>
            <ns3:hr>119</ns3:hr>
            <ns3:cad>48</ns3:cad>
          </ns3:TrackPointExtension>
        </extensions>
      </trkpt>
      <trkpt lat="37.9776608012616634368896484375" lon="-107.7354166097939014434814453125">
        <ele>3376</ele>
        <time>2026-08-15T13:11:59.000Z</time>
        <extensions>
          <ns3:TrackPointExtension>
            <ns3:hr>118</ns3:hr>
            <ns3:cad>0</ns3:cad>
          </ns3:TrackPointExtension>
        </extensions>
      </trkpt>
      <trkpt lat="37.9776775650680065155029296875" lon="-107.73544888012111186981201171875">
        <ele>3376.39990234375</ele>
        <time>2026-08-15T13:12:02.000Z</time>
        <extensions>
          <ns3:TrackPointExtension>
            <ns3:hr>118</ns3:hr>
            <ns3:cad>0</ns3:cad>
          </ns3:TrackPointExtension>
        </extensions>
      </trkpt>
      <trkpt lat="37.97769851982593536376953125" lon="-107.73548441939055919647216796875">
        <ele>3377</ele>
        <time>2026-08-15T13:12:06.000Z</time>
        <extensions>
          <ns3:TrackPointExtension>
            <ns3:hr>117</ns3:hr>
            <ns3:cad>50</ns3:cad>
          </ns3:TrackPointExtension>
        </extensions>
      </trkpt>
      <trkpt lat="37.97770254313945770263671875" lon="-107.73548978380858898162841796875">
        <ele>3377.199951171875</ele>
        <time>2026-08-15T13:12:07.000Z</time>
        <extensions>
          <ns3:TrackPointExtension>
            <ns3:hr>117</ns3:hr>
            <ns3:cad>49</ns3:cad>
          </ns3:TrackPointExtension>
        </extensions>
      </trkpt>
      <trkpt lat="37.9777134396135807037353515625" lon="-107.735503949224948883056640625">
        <ele>3377.60009765625</ele>
        <time>2026-08-15T13:12:11.000Z</time>
        <extensions>
          <ns3:TrackPointExtension>
            <ns3:hr>118</ns3:hr>
            <ns3:cad>0</ns3:cad>
          </ns3:TrackPointExtension>
        </extensions>
      </trkpt>
      <trkpt lat="37.97773900441825389862060546875" lon="-107.7355289272964000701904296875">
        <ele>3378.199951171875</ele>
        <time>2026-08-15T13:12:17.000Z</time>
        <extensions>
          <ns3:TrackPointExtension>
            <ns3:hr>117</ns3:hr>
            <ns3:cad>0</ns3:cad>
          </ns3:TrackPointExtension>
        </extensions>
      </trkpt>
      <trkpt lat="37.9777711071074008941650390625" lon="-107.7355523966252803802490234375">
        <ele>3379</ele>
        <time>2026-08-15T13:12:22.000Z</time>
        <extensions>
          <ns3:TrackPointExtension>
            <ns3:hr>119</ns3:hr>
            <ns3:cad>0</ns3:cad>
          </ns3:TrackPointExtension>
        </extensions>
      </trkpt>
      <trkpt lat="37.9777861945331096649169921875" lon="-107.73554812185466289520263671875">
        <ele>3378.800048828125</ele>
        <time>2026-08-15T13:12:28.000Z</time>
        <extensions>
          <ns3:TrackPointExtension>
            <ns3:hr>118</ns3:hr>
            <ns3:cad>0</ns3:cad>
          </ns3:TrackPointExtension>
        </extensions>
      </trkpt>
      <trkpt lat="37.9777898825705051422119140625" lon="-107.73554527200758457183837890625">
        <ele>3379</ele>
        <time>2026-08-15T13:12:29.000Z</time>
        <extensions>
          <ns3:TrackPointExtension>
            <ns3:hr>118</ns3:hr>
            <ns3:cad>0</ns3:cad>
          </ns3:TrackPointExtension>
        </extensions>
      </trkpt>
      <trkpt lat="37.9777925647795200347900390625" lon="-107.73554158397018909454345703125">
        <ele>3379.199951171875</ele>
        <time>2026-08-15T13:12:31.000Z</time>
        <extensions>
          <ns3:TrackPointExtension>
            <ns3:hr>120</ns3:hr>
            <ns3:cad>0</ns3:cad>
          </ns3:TrackPointExtension>
        </extensions>
      </trkpt>
      <trkpt lat="37.977792732417583465576171875" lon="-107.735541500151157379150390625">
        <ele>3379.199951171875</ele>
        <time>2026-08-15T13:12:33.000Z</time>
        <extensions>
          <ns3:TrackPointExtension>
            <ns3:hr>125</ns3:hr>
            <ns3:cad>0</ns3:cad>
          </ns3:TrackPointExtension>
        </extensions>
      </trkpt>
      <trkpt lat="37.977792732417583465576171875" lon="-107.735541500151157379150390625">
        <ele>3379.199951171875</ele>
        <time>2026-08-15T13:12:37.000Z</time>
        <extensions>
          <ns3:TrackPointExtension>
            <ns3:hr>127</ns3:hr>
            <ns3:cad>0</ns3:cad>
          </ns3:TrackPointExtension>
        </extensions>
      </trkpt>
      <trkpt lat="37.977792732417583465576171875" lon="-107.735541500151157379150390625">
        <ele>3379.199951171875</ele>
        <time>2026-08-15T13:12:42.000Z</time>
        <extensions>
          <ns3:TrackPointExtension>
            <ns3:hr>124</ns3:hr>
            <ns3:cad>0</ns3:cad>
          </ns3:TrackPointExtension>
        </extensions>
      </trkpt>
      <trkpt lat="37.977792732417583465576171875" lon="-107.735541500151157379150390625">
        <ele>3379.199951171875</ele>
        <time>2026-08-15T13:12:48.000Z</time>
        <extensions>
          <ns3:TrackPointExtension>
            <ns3:hr>122</ns3:hr>
            <ns3:cad>0</ns3:cad>
          </ns3:TrackPointExtension>
        </extensions>
      </trkpt>
      <trkpt lat="37.977792732417583465576171875" lon="-107.735541500151157379150390625">
        <ele>3379</ele>
        <time>2026-08-15T13:12:54.000Z</time>
        <extensions>
          <ns3:TrackPointExtension>
            <ns3:hr>121</ns3:hr>
            <ns3:cad>0</ns3:cad>
          </ns3:TrackPointExtension>
        </extensions>
      </trkpt>
      <trkpt lat="37.977792732417583465576171875" lon="-107.735541500151157379150390625">
        <ele>3379</ele>
        <time>2026-08-15T13:13:00.000Z</time>
        <extensions>
          <ns3:TrackPointExtension>
            <ns3:hr>119</ns3:hr>
            <ns3:cad>0</ns3:cad>
          </ns3:TrackPointExtension>
        </extensions>
      </trkpt>
      <trkpt lat="37.977792732417583465576171875" lon="-107.735541500151157379150390625">
        <ele>3379</ele>
        <time>2026-08-15T13:13:03.000Z</time>
        <extensions>
          <ns3:TrackPointExtension>
            <ns3:hr>121</ns3:hr>
            <ns3:cad>0</ns3:cad>
          </ns3:TrackPointExtension>
        </extensions>
      </trkpt>
      <trkpt lat="37.977792732417583465576171875" lon="-107.735541500151157379150390625">
        <ele>3379</ele>
        <time>2026-08-15T13:13:09.000Z</time>
        <extensions>
          <ns3:TrackPointExtension>
            <ns3:hr>123</ns3:hr>
            <ns3:cad>0</ns3:cad>
          </ns3:TrackPointExtension>
        </extensions>
      </trkpt>
      <trkpt lat="37.9777882061898708343505859375" lon="-107.735534124076366424560546875">
        <ele>3379.60009765625</ele>
        <time>2026-08-15T13:13:12.000Z</time>
        <extensions>
          <ns3:TrackPointExtension>
            <ns3:hr>124</ns3:hr>
            <ns3:cad>0</ns3:cad>
          </ns3:TrackPointExtension>
        </extensions>
      </trkpt>
      <trkpt lat="37.97779415734112262725830078125" lon="-107.7355396561324596405029296875">
        <ele>3380</ele>
        <time>2026-08-15T13:13:13.000Z</time>
        <extensions>
          <ns3:TrackPointExtension>
            <ns3:hr>127</ns3:hr>
            <ns3:cad>0</ns3:cad>
          </ns3:TrackPointExtension>
        </extensions>
      </trkpt>
      <trkpt lat="37.97778812237083911895751953125" lon="-107.7355316095054149627685546875">
        <ele>3380.39990234375</ele>
        <time>2026-08-15T13:13:15.000Z</time>
        <extensions>
          <ns3:TrackPointExtension>
            <ns3:hr>128</ns3:hr>
            <ns3:cad>0</ns3:cad>
          </ns3:TrackPointExtension>
        </extensions>
      </trkpt>
      <trkpt lat="37.97778812237083911895751953125" lon="-107.7355245687067508697509765625">
        <ele>3380.39990234375</ele>
        <time>2026-08-15T13:13:16.000Z</time>
        <extensions>
          <ns3:TrackPointExtension>
            <ns3:hr>128</ns3:hr>
            <ns3:cad>0</ns3:cad>
          </ns3:TrackPointExtension>
        </extensions>
      </trkpt>
      <trkpt lat="37.977788038551807403564453125" lon="-107.73552096448838710784912109375">
        <ele>3380</ele>
        <time>2026-08-15T13:13:21.000Z</time>
        <extensions>
          <ns3:TrackPointExtension>
            <ns3:hr>122</ns3:hr>
            <ns3:cad>0</ns3:cad>
          </ns3:TrackPointExtension>
        </extensions>
      </trkpt>
      <trkpt lat="37.977788038551807403564453125" lon="-107.73552096448838710784912109375">
        <ele>3380.199951171875</ele>
        <time>2026-08-15T13:13:22.000Z</time>
        <extensions>
          <ns3:TrackPointExtension>
            <ns3:hr>119</ns3:hr>
            <ns3:cad>0</ns3:cad>
          </ns3:TrackPointExtension>
        </extensions>
      </trkpt>
      <trkpt lat="37.977788038551807403564453125" lon="-107.73552096448838710784912109375">
        <ele>3380.39990234375</ele>
        <time>2026-08-15T13:13:24.000Z</time>
        <extensions>
          <ns3:TrackPointExtension>
            <ns3:hr>112</ns3:hr>
            <ns3:cad>0</ns3:cad>
          </ns3:TrackPointExtension>
        </extensions>
      </trkpt>
      <trkpt lat="37.977788038551807403564453125" lon="-107.73552096448838710784912109375">
        <ele>3380.199951171875</ele>
        <time>2026-08-15T13:13:25.000Z</time>
        <extensions>
          <ns3:TrackPointExtension>
            <ns3:hr>109</ns3:hr>
            <ns3:cad>0</ns3:cad>
          </ns3:TrackPointExtension>
        </extensions>
      </trkpt>
      <trkpt lat="37.977788038551807403564453125" lon="-107.73552096448838710784912109375">
        <ele>3380</ele>
        <time>2026-08-15T13:13:28.000Z</time>
        <extensions>
          <ns3:TrackPointExtension>
            <ns3:hr>105</ns3:hr>
            <ns3:cad>0</ns3:cad>
          </ns3:TrackPointExtension>
        </extensions>
      </trkpt>
      <trkpt lat="37.977788038551807403564453125" lon="-107.73552096448838710784912109375">
        <ele>3380</ele>
        <time>2026-08-15T13:13:31.000Z</time>
        <extensions>
          <ns3:TrackPointExtension>
            <ns3:hr>102</ns3:hr>
            <ns3:cad>0</ns3:cad>
          </ns3:TrackPointExtension>
        </extensions>
      </trkpt>
      <trkpt lat="37.977788038551807403564453125" lon="-107.73552096448838710784912109375">
        <ele>3380</ele>
        <time>2026-08-15T13:13:32.000Z</time>
        <extensions>
          <ns3:TrackPointExtension>
            <ns3:hr>102</ns3:hr>
            <ns3:cad>0</ns3:cad>
          </ns3:TrackPointExtension>
        </extensions>
      </trkpt>
      <trkpt lat="37.977788038551807403564453125" lon="-107.73552096448838710784912109375">
        <ele>3380.199951171875</ele>
        <time>2026-08-15T13:13:35.000Z</time>
        <extensions>
          <ns3:TrackPointExtension>
            <ns3:hr>97</ns3:hr>
            <ns3:cad>0</ns3:cad>
          </ns3:TrackPointExtension>
        </extensions>
      </trkpt>
      <trkpt lat="37.977788038551807403564453125" lon="-107.73552096448838710784912109375">
        <ele>3380.199951171875</ele>
        <time>2026-08-15T13:13:38.000Z</time>
        <extensions>
          <ns3:TrackPointExtension>
            <ns3:hr>94</ns3:hr>
            <ns3:cad>0</ns3:cad>
          </ns3:TrackPointExtension>
        </extensions>
      </trkpt>
      <trkpt lat="37.977788038551807403564453125" lon="-107.73552096448838710784912109375">
        <ele>3380.199951171875</ele>
        <time>2026-08-15T13:13:41.000Z</time>
        <extensions>
          <ns3:TrackPointExtension>
            <ns3:hr>91</ns3:hr>
            <ns3:cad>0</ns3:cad>
          </ns3:TrackPointExtension>
        </extensions>
      </trkpt>
      <trkpt lat="37.977788038551807403564453125" lon="-107.73552096448838710784912109375">
        <ele>3380.199951171875</ele>
        <time>2026-08-15T13:13:47.000Z</time>
        <extensions>
          <ns3:TrackPointExtension>
            <ns3:hr>91</ns3:hr>
            <ns3:cad>0</ns3:cad>
          </ns3:TrackPointExtension>
        </extensions>
      </trkpt>
      <trkpt lat="37.977788038551807403564453125" lon="-107.73552096448838710784912109375">
        <ele>3380</ele>
        <time>2026-08-15T13:13:53.000Z</time>
        <extensions>
          <ns3:TrackPointExtension>
            <ns3:hr>92</ns3:hr>
            <ns3:cad>0</ns3:cad>
          </ns3:TrackPointExtension>
        </extensions>
      </trkpt>
      <trkpt lat="37.97779901884496212005615234375" lon="-107.73549833334982395172119140625">
        <ele>3380</ele>
        <time>2026-08-15T13:13:59.000Z</time>
        <extensions>
          <ns3:TrackPointExtension>
            <ns3:hr>91</ns3:hr>
            <ns3:cad>0</ns3:cad>
          </ns3:TrackPointExtension>
        </extensions>
      </trkpt>
      <trkpt lat="37.97780304215848445892333984375" lon="-107.735442928969860076904296875">
        <ele>3381.199951171875</ele>
        <time>2026-08-15T13:14:05.000Z</time>
        <extensions>
          <ns3:TrackPointExtension>
            <ns3:hr>89</ns3:hr>
            <ns3:cad>0</ns3:cad>
          </ns3:TrackPointExtension>
        </extensions>
      </trkpt>
      <trkpt lat="37.97779968939721584320068359375" lon="-107.73543865419924259185791015625">
        <ele>3381.60009765625</ele>
        <time>2026-08-15T13:14:06.000Z</time>
        <extensions>
          <ns3:TrackPointExtension>
            <ns3:hr>89</ns3:hr>
            <ns3:cad>0</ns3:cad>
          </ns3:TrackPointExtension>
        </extensions>
      </trkpt>
      <trkpt lat="37.97779415734112262725830078125" lon="-107.73538417182862758636474609375">
        <ele>3382.39990234375</ele>
        <time>2026-08-15T13:14:11.000Z</time>
        <extensions>
          <ns3:TrackPointExtension>
            <ns3:hr>91</ns3:hr>
            <ns3:cad>0</ns3:cad>
          </ns3:TrackPointExtension>
        </extensions>
      </trkpt>
      <trkpt lat="37.97779700718820095062255859375" lon="-107.7353596128523349761962890625">
        <ele>3382.60009765625</ele>
        <time>2026-08-15T13:14:13.000Z</time>
        <extensions>
          <ns3:TrackPointExtension>
            <ns3:hr>92</ns3:hr>
            <ns3:cad>0</ns3:cad>
          </ns3:TrackPointExtension>
        </extensions>
      </trkpt>
      <trkpt lat="37.977812848985195159912109375" lon="-107.73532801307737827301025390625">
        <ele>3383.60009765625</ele>
        <time>2026-08-15T13:14:18.000Z</time>
        <extensions>
          <ns3:TrackPointExtension>
            <ns3:hr>92</ns3:hr>
            <ns3:cad>0</ns3:cad>
          </ns3:TrackPointExtension>
        </extensions>
      </trkpt>
      <trkpt lat="37.9778167046606540679931640625" lon="-107.7353153564035892486572265625">
        <ele>3383.800048828125</ele>
        <time>2026-08-15T13:14:19.000Z</time>
        <extensions>
          <ns3:TrackPointExtension>
            <ns3:hr>92</ns3:hr>
            <ns3:cad>0</ns3:cad>
          </ns3:TrackPointExtension>
        </extensions>
      </trkpt>
      <trkpt lat="37.97782349400222301483154296875" lon="-107.73528006859123706817626953125">
        <ele>3385</ele>
        <time>2026-08-15T13:14:23.000Z</time>
        <extensions>
          <ns3:TrackPointExtension>
            <ns3:hr>95</ns3:hr>
            <ns3:cad>0</ns3:cad>
          </ns3:TrackPointExtension>
        </extensions>
      </trkpt>
      <trkpt lat="37.97782684676349163055419921875" lon="-107.735265903174877166748046875">
        <ele>3385</ele>
        <time>2026-08-15T13:14:24.000Z</time>
        <extensions>
          <ns3:TrackPointExtension>
            <ns3:hr>97</ns3:hr>
            <ns3:cad>48</ns3:cad>
          </ns3:TrackPointExtension>
        </extensions>
      </trkpt>
      <trkpt lat="37.97783724032342433929443359375" lon="-107.73519390262663364410400390625">
        <ele>3386</ele>
        <time>2026-08-15T13:14:30.000Z</time>
        <extensions>
          <ns3:TrackPointExtension>
            <ns3:hr>99</ns3:hr>
            <ns3:cad>50</ns3:cad>
          </ns3:TrackPointExtension>
        </extensions>
      </trkpt>
      <trkpt lat="37.97784143127501010894775390625" lon="-107.73518317379057407379150390625">
        <ele>3386.199951171875</ele>
        <time>2026-08-15T13:14:31.000Z</time>
        <extensions>
          <ns3:TrackPointExtension>
            <ns3:hr>99</ns3:hr>
            <ns3:cad>50</ns3:cad>
          </ns3:TrackPointExtension>
        </extensions>
      </trkpt>
      <trkpt lat="37.97785266302525997161865234375" lon="-107.7351416833698749542236328125">
        <ele>3387</ele>
        <time>2026-08-15T13:14:35.000Z</time>
        <extensions>
          <ns3:TrackPointExtension>
            <ns3:hr>99</ns3:hr>
            <ns3:cad>49</ns3:cad>
          </ns3:TrackPointExtension>
        </extensions>
      </trkpt>
      <trkpt lat="37.97786037437617778778076171875" lon="-107.7351128496229648590087890625">
        <ele>3387.39990234375</ele>
        <time>2026-08-15T13:14:37.000Z</time>
        <extensions>
          <ns3:TrackPointExtension>
            <ns3:hr>98</ns3:hr>
            <ns3:cad>49</ns3:cad>
          </ns3:TrackPointExtension>
        </extensions>
      </trkpt>
      <trkpt lat="37.97787579707801342010498046875" lon="-107.735070101916790008544921875">
        <ele>3388.199951171875</ele>
        <time>2026-08-15T13:14:41.000Z</time>
        <extensions>
          <ns3:TrackPointExtension>
            <ns3:hr>99</ns3:hr>
            <ns3:cad>0</ns3:cad>
          </ns3:TrackPointExtension>
        </extensions>
      </trkpt>
      <trkpt lat="37.97787914983928203582763671875" lon="-107.73504562675952911376953125">
        <ele>3388.39990234375</ele>
        <time>2026-08-15T13:14:43.000Z</time>
        <extensions>
          <ns3:TrackPointExtension>
            <ns3:hr>98</ns3:hr>
            <ns3:cad>0</ns3:cad>
          </ns3:TrackPointExtension>
        </extensions>
      </trkpt>
      <trkpt lat="37.9778924770653247833251953125" lon="-107.73498251102864742279052734375">
        <ele>3389.199951171875</ele>
        <time>2026-08-15T13:14:48.000Z</time>
        <extensions>
          <ns3:TrackPointExtension>
            <ns3:hr>99</ns3:hr>
            <ns3:cad>0</ns3:cad>
          </ns3:TrackPointExtension>
        </extensions>
      </trkpt>
      <trkpt lat="37.9778948239982128143310546875" lon="-107.7349663339555263519287109375">
        <ele>3389.39990234375</ele>
        <time>2026-08-15T13:14:49.000Z</time>
        <extensions>
          <ns3:TrackPointExtension>
            <ns3:hr>99</ns3:hr>
            <ns3:cad>0</ns3:cad>
          </ns3:TrackPointExtension>
        </extensions>
      </trkpt>
      <trkpt lat="37.9779115878045558929443359375" lon="-107.73489802144467830657958984375">
        <ele>3390.199951171875</ele>
        <time>2026-08-15T13:14:54.000Z</time>
        <extensions>
          <ns3:TrackPointExtension>
            <ns3:hr>99</ns3:hr>
            <ns3:cad>0</ns3:cad>
          </ns3:TrackPointExtension>
        </extensions>
      </trkpt>
      <trkpt lat="37.97792759723961353302001953125" lon="-107.73485544137656688690185546875">
        <ele>3390.800048828125</ele>
        <time>2026-08-15T13:14:58.000Z</time>
        <extensions>
          <ns3:TrackPointExtension>
            <ns3:hr>100</ns3:hr>
            <ns3:cad>52</ns3:cad>
          </ns3:TrackPointExtension>
        </extensions>
      </trkpt>
      <trkpt lat="37.97792877070605754852294921875" lon="-107.73483364842832088470458984375">
        <ele>3391.199951171875</ele>
        <time>2026-08-15T13:15:00.000Z</time>
        <extensions>
          <ns3:TrackPointExtension>
            <ns3:hr>100</ns3:hr>
            <ns3:cad>52</ns3:cad>
          </ns3:TrackPointExtension>
        </extensions>
      </trkpt>
      <trkpt lat="37.9779303632676601409912109375" lon="-107.734824679791927337646484375">
        <ele>3391.39990234375</ele>
        <time>2026-08-15T13:15:01.000Z</time>
        <extensions>
          <ns3:TrackPointExtension>
            <ns3:hr>100</ns3:hr>
            <ns3:cad>52</ns3:cad>
          </ns3:TrackPointExtension>
        </extensions>
      </trkpt>
      <trkpt lat="37.97793949954211711883544921875" lon="-107.7347839437425136566162109375">
        <ele>3392.39990234375</ele>
        <time>2026-08-15T13:15:05.000Z</time>
        <extensions>
          <ns3:TrackPointExtension>
            <ns3:hr>102</ns3:hr>
            <ns3:cad>49</ns3:cad>
          </ns3:TrackPointExtension>
        </extensions>
      </trkpt>
      <trkpt lat="37.97794201411306858062744140625" lon="-107.73477204144001007080078125">
        <ele>3392.60009765625</ele>
        <time>2026-08-15T13:15:06.000Z</time>
        <extensions>
          <ns3:TrackPointExtension>
            <ns3:hr>102</ns3:hr>
            <ns3:cad>49</ns3:cad>
          </ns3:TrackPointExtension>
        </extensions>
      </trkpt>
      <trkpt lat="37.97795224003493785858154296875" lon="-107.734704315662384033203125">
        <ele>3393.39990234375</ele>
        <time>2026-08-15T13:15:11.000Z</time>
        <extensions>
          <ns3:TrackPointExtension>
            <ns3:hr>105</ns3:hr>
            <ns3:cad>50</ns3:cad>
          </ns3:TrackPointExtension>
        </extensions>
      </trkpt>
      <trkpt lat="37.97795332968235015869140625" lon="-107.73469584994018077850341796875">
        <ele>3393.60009765625</ele>
        <time>2026-08-15T13:15:12.000Z</time>
        <extensions>
          <ns3:TrackPointExtension>
            <ns3:hr>105</ns3:hr>
            <ns3:cad>50</ns3:cad>
          </ns3:TrackPointExtension>
        </extensions>
      </trkpt>
      <trkpt lat="37.97795944847166538238525390625" lon="-107.7346694469451904296875">
        <ele>3393.60009765625</ele>
        <time>2026-08-15T13:15:14.000Z</time>
        <extensions>
          <ns3:TrackPointExtension>
            <ns3:hr>106</ns3:hr>
            <ns3:cad>50</ns3:cad>
          </ns3:TrackPointExtension>
        </extensions>
      </trkpt>
      <trkpt lat="37.97796783037483692169189453125" lon="-107.73462812416255474090576171875">
        <ele>3393.800048828125</ele>
        <time>2026-08-15T13:15:17.000Z</time>
        <extensions>
          <ns3:TrackPointExtension>
            <ns3:hr>105</ns3:hr>
            <ns3:cad>0</ns3:cad>
          </ns3:TrackPointExtension>
        </extensions>
      </trkpt>
      <trkpt lat="37.97798627056181430816650390625" lon="-107.73458202369511127471923828125">
        <ele>3394.60009765625</ele>
        <time>2026-08-15T13:15:22.000Z</time>
        <extensions>
          <ns3:TrackPointExtension>
            <ns3:hr>107</ns3:hr>
            <ns3:cad>51</ns3:cad>
          </ns3:TrackPointExtension>
        </extensions>
      </trkpt>
      <trkpt lat="37.97801024280488491058349609375" lon="-107.7345398627221584320068359375">
        <ele>3395.800048828125</ele>
        <time>2026-08-15T13:15:27.000Z</time>
        <extensions>
          <ns3:TrackPointExtension>
            <ns3:hr>108</ns3:hr>
            <ns3:cad>0</ns3:cad>
          </ns3:TrackPointExtension>
        </extensions>
      </trkpt>
      <trkpt lat="37.97801074571907520294189453125" lon="-107.73453726433217525482177734375">
        <ele>3396.199951171875</ele>
        <time>2026-08-15T13:15:28.000Z</time>
        <extensions>
          <ns3:TrackPointExtension>
            <ns3:hr>107</ns3:hr>
            <ns3:cad>0</ns3:cad>
          </ns3:TrackPointExtension>
        </extensions>
      </trkpt>
      <trkpt lat="37.97802985645830631256103515625" lon="-107.7344912476837635040283203125">
        <ele>3397</ele>
        <time>2026-08-15T13:15:33.000Z</time>
        <extensions>
          <ns3:TrackPointExtension>
            <ns3:hr>107</ns3:hr>
            <ns3:cad>0</ns3:cad>
          </ns3:TrackPointExtension>
        </extensions>
      </trkpt>
      <trkpt lat="37.97804460860788822174072265625" lon="-107.73444137535989284515380859375">
        <ele>3398</ele>
        <time>2026-08-15T13:15:38.000Z</time>
        <extensions>
          <ns3:TrackPointExtension>
            <ns3:hr>109</ns3:hr>
            <ns3:cad>49</ns3:cad>
          </ns3:TrackPointExtension>
        </extensions>
      </trkpt>
      <trkpt lat="37.97805148176848888397216796875" lon="-107.7344265393912792205810546875">
        <ele>3398.199951171875</ele>
        <time>2026-08-15T13:15:39.000Z</time>
        <extensions>
          <ns3:TrackPointExtension>
            <ns3:hr>110</ns3:hr>
            <ns3:cad>49</ns3:cad>
          </ns3:TrackPointExtension>
        </extensions>
      </trkpt>
      <trkpt lat="37.978040836751461029052734375" lon="-107.73443081416189670562744140625">
        <ele>3398.60009765625</ele>
        <time>2026-08-15T13:15:41.000Z</time>
        <extensions>
          <ns3:TrackPointExtension>
            <ns3:hr>110</ns3:hr>
            <ns3:cad>49</ns3:cad>
          </ns3:TrackPointExtension>
        </extensions>
      </trkpt>
      <trkpt lat="37.97804108820855617523193359375" lon="-107.73442913778126239776611328125">
        <ele>3398.800048828125</ele>
        <time>2026-08-15T13:15:42.000Z</time>
        <extensions>
          <ns3:TrackPointExtension>
            <ns3:hr>110</ns3:hr>
            <ns3:cad>49</ns3:cad>
          </ns3:TrackPointExtension>
        </extensions>
      </trkpt>
      <trkpt lat="37.97804226167500019073486328125" lon="-107.734421677887439727783203125">
        <ele>3398.60009765625</ele>
        <time>2026-08-15T13:15:48.000Z</time>
        <extensions>
          <ns3:TrackPointExtension>
            <ns3:hr>110</ns3:hr>
            <ns3:cad>0</ns3:cad>
          </ns3:TrackPointExtension>
        </extensions>
      </trkpt>
      <trkpt lat="37.97804226167500019073486328125" lon="-107.734421677887439727783203125">
        <ele>3398.39990234375</ele>
        <time>2026-08-15T13:15:51.000Z</time>
        <extensions>
          <ns3:TrackPointExtension>
            <ns3:hr>112</ns3:hr>
            <ns3:cad>0</ns3:cad>
          </ns3:TrackPointExtension>
        </extensions>
      </trkpt>
      <trkpt lat="37.97804226167500019073486328125" lon="-107.734421677887439727783203125">
        <ele>3398.39990234375</ele>
        <time>2026-08-15T13:15:52.000Z</time>
        <extensions>
          <ns3:TrackPointExtension>
            <ns3:hr>115</ns3:hr>
            <ns3:cad>0</ns3:cad>
          </ns3:TrackPointExtension>
        </extensions>
      </trkpt>
      <trkpt lat="37.97804226167500019073486328125" lon="-107.734421677887439727783203125">
        <ele>3398.199951171875</ele>
        <time>2026-08-15T13:15:55.000Z</time>
        <extensions>
          <ns3:TrackPointExtension>
            <ns3:hr>118</ns3:hr>
            <ns3:cad>0</ns3:cad>
          </ns3:TrackPointExtension>
        </extensions>
      </trkpt>
      <trkpt lat="37.97804226167500019073486328125" lon="-107.734421677887439727783203125">
        <ele>3398.199951171875</ele>
        <time>2026-08-15T13:16:01.000Z</time>
        <extensions>
          <ns3:TrackPointExtension>
            <ns3:hr>119</ns3:hr>
            <ns3:cad>0</ns3:cad>
          </ns3:TrackPointExtension>
        </extensions>
      </trkpt>
      <trkpt lat="37.97804226167500019073486328125" lon="-107.734421677887439727783203125">
        <ele>3398.199951171875</ele>
        <time>2026-08-15T13:16:07.000Z</time>
        <extensions>
          <ns3:TrackPointExtension>
            <ns3:hr>124</ns3:hr>
            <ns3:cad>0</ns3:cad>
          </ns3:TrackPointExtension>
        </extensions>
      </trkpt>
      <trkpt lat="37.97804226167500019073486328125" lon="-107.734421677887439727783203125">
        <ele>3398.199951171875</ele>
        <time>2026-08-15T13:16:13.000Z</time>
        <extensions>
          <ns3:TrackPointExtension>
            <ns3:hr>124</ns3:hr>
            <ns3:cad>0</ns3:cad>
          </ns3:TrackPointExtension>
        </extensions>
      </trkpt>
      <trkpt lat="37.97804226167500019073486328125" lon="-107.734421677887439727783203125">
        <ele>3398.199951171875</ele>
        <time>2026-08-15T13:16:16.000Z</time>
        <extensions>
          <ns3:TrackPointExtension>
            <ns3:hr>119</ns3:hr>
            <ns3:cad>0</ns3:cad>
          </ns3:TrackPointExtension>
        </extensions>
      </trkpt>
      <trkpt lat="37.97804226167500019073486328125" lon="-107.734421677887439727783203125">
        <ele>3398.199951171875</ele>
        <time>2026-08-15T13:16:18.000Z</time>
        <extensions>
          <ns3:TrackPointExtension>
            <ns3:hr>114</ns3:hr>
            <ns3:cad>0</ns3:cad>
          </ns3:TrackPointExtension>
        </extensions>
      </trkpt>
      <trkpt lat="37.97804226167500019073486328125" lon="-107.734421677887439727783203125">
        <ele>3398.199951171875</ele>
        <time>2026-08-15T13:16:20.000Z</time>
        <extensions>
          <ns3:TrackPointExtension>
            <ns3:hr>111</ns3:hr>
            <ns3:cad>0</ns3:cad>
          </ns3:TrackPointExtension>
        </extensions>
      </trkpt>
      <trkpt lat="37.97804226167500019073486328125" lon="-107.734421677887439727783203125">
        <ele>3398.60009765625</ele>
        <time>2026-08-15T13:16:26.000Z</time>
        <extensions>
          <ns3:TrackPointExtension>
            <ns3:hr>109</ns3:hr>
            <ns3:cad>0</ns3:cad>
          </ns3:TrackPointExtension>
        </extensions>
      </trkpt>
      <trkpt lat="37.97804226167500019073486328125" lon="-107.734421677887439727783203125">
        <ele>3398.39990234375</ele>
        <time>2026-08-15T13:16:32.000Z</time>
        <extensions>
          <ns3:TrackPointExtension>
            <ns3:hr>109</ns3:hr>
            <ns3:cad>0</ns3:cad>
          </ns3:TrackPointExtension>
        </extensions>
      </trkpt>
      <trkpt lat="37.97804226167500019073486328125" lon="-107.734421677887439727783203125">
        <ele>3398</ele>
        <time>2026-08-15T13:16:35.000Z</time>
        <extensions>
          <ns3:TrackPointExtension>
            <ns3:hr>110</ns3:hr>
            <ns3:cad>0</ns3:cad>
          </ns3:TrackPointExtension>
        </extensions>
      </trkpt>
      <trkpt lat="37.97802415676414966583251953125" lon="-107.73441690020263195037841796875">
        <ele>3398.39990234375</ele>
        <time>2026-08-15T13:16:41.000Z</time>
        <extensions>
          <ns3:TrackPointExtension>
            <ns3:hr>108</ns3:hr>
            <ns3:cad>0</ns3:cad>
          </ns3:TrackPointExtension>
        </extensions>
      </trkpt>
      <trkpt lat="37.97802415676414966583251953125" lon="-107.73441690020263195037841796875">
        <ele>3398.39990234375</ele>
        <time>2026-08-15T13:16:42.000Z</time>
        <extensions>
          <ns3:TrackPointExtension>
            <ns3:hr>109</ns3:hr>
            <ns3:cad>0</ns3:cad>
          </ns3:TrackPointExtension>
        </extensions>
      </trkpt>
      <trkpt lat="37.97802415676414966583251953125" lon="-107.73441690020263195037841796875">
        <ele>3398.199951171875</ele>
        <time>2026-08-15T13:16:48.000Z</time>
        <extensions>
          <ns3:TrackPointExtension>
            <ns3:hr>108</ns3:hr>
            <ns3:cad>0</ns3:cad>
          </ns3:TrackPointExtension>
        </extensions>
      </trkpt>
      <trkpt lat="37.97802415676414966583251953125" lon="-107.73441690020263195037841796875">
        <ele>3398.199951171875</ele>
        <time>2026-08-15T13:16:52.000Z</time>
        <extensions>
          <ns3:TrackPointExtension>
            <ns3:hr>109</ns3:hr>
            <ns3:cad>0</ns3:cad>
          </ns3:TrackPointExtension>
        </extensions>
      </trkpt>
      <trkpt lat="37.97802415676414966583251953125" lon="-107.73441690020263195037841796875">
        <ele>3398</ele>
        <time>2026-08-15T13:16:54.000Z</time>
        <extensions>
          <ns3:TrackPointExtension>
            <ns3:hr>112</ns3:hr>
            <ns3:cad>0</ns3:cad>
          </ns3:TrackPointExtension>
        </extensions>
      </trkpt>
      <trkpt lat="37.97802415676414966583251953125" lon="-107.73441690020263195037841796875">
        <ele>3398.60009765625</ele>
        <time>2026-08-15T13:17:00.000Z</time>
        <extensions>
          <ns3:TrackPointExtension>
            <ns3:hr>112</ns3:hr>
            <ns3:cad>0</ns3:cad>
          </ns3:TrackPointExtension>
        </extensions>
      </trkpt>
      <trkpt lat="37.97802415676414966583251953125" lon="-107.73441690020263195037841796875">
        <ele>3398.60009765625</ele>
        <time>2026-08-15T13:17:01.000Z</time>
        <extensions>
          <ns3:TrackPointExtension>
            <ns3:hr>111</ns3:hr>
            <ns3:cad>0</ns3:cad>
          </ns3:TrackPointExtension>
        </extensions>
      </trkpt>
      <trkpt lat="37.97802415676414966583251953125" lon="-107.73441690020263195037841796875">
        <ele>3398.800048828125</ele>
        <time>2026-08-15T13:17:07.000Z</time>
        <extensions>
          <ns3:TrackPointExtension>
            <ns3:hr>110</ns3:hr>
            <ns3:cad>0</ns3:cad>
          </ns3:TrackPointExtension>
        </extensions>
      </trkpt>
      <trkpt lat="37.97802415676414966583251953125" lon="-107.73441690020263195037841796875">
        <ele>3398.60009765625</ele>
        <time>2026-08-15T13:17:10.000Z</time>
        <extensions>
          <ns3:TrackPointExtension>
            <ns3:hr>111</ns3:hr>
            <ns3:cad>0</ns3:cad>
          </ns3:TrackPointExtension>
        </extensions>
      </trkpt>
      <trkpt lat="37.97802415676414966583251953125" lon="-107.73441690020263195037841796875">
        <ele>3398.800048828125</ele>
        <time>2026-08-15T13:17:16.000Z</time>
        <extensions>
          <ns3:TrackPointExtension>
            <ns3:hr>106</ns3:hr>
            <ns3:cad>0</ns3:cad>
          </ns3:TrackPointExtension>
        </extensions>
      </trkpt>
      <trkpt lat="37.97802415676414966583251953125" lon="-107.73441690020263195037841796875">
        <ele>3398.60009765625</ele>
        <time>2026-08-15T13:17:17.000Z</time>
        <extensions>
          <ns3:TrackPointExtension>
            <ns3:hr>103</ns3:hr>
            <ns3:cad>0</ns3:cad>
          </ns3:TrackPointExtension>
        </extensions>
      </trkpt>
      <trkpt lat="37.97802415676414966583251953125" lon="-107.73441690020263195037841796875">
        <ele>3398.60009765625</ele>
        <time>2026-08-15T13:17:23.000Z</time>
        <extensions>
          <ns3:TrackPointExtension>
            <ns3:hr>102</ns3:hr>
            <ns3:cad>0</ns3:cad>
          </ns3:TrackPointExtension>
        </extensions>
      </trkpt>
      <trkpt lat="37.97802415676414966583251953125" lon="-107.73441690020263195037841796875">
        <ele>3398.800048828125</ele>
        <time>2026-08-15T13:17:27.000Z</time>
        <extensions>
          <ns3:TrackPointExtension>
            <ns3:hr>102</ns3:hr>
            <ns3:cad>0</ns3:cad>
          </ns3:TrackPointExtension>
        </extensions>
      </trkpt>
      <trkpt lat="37.97802415676414966583251953125" lon="-107.73441690020263195037841796875">
        <ele>3398.60009765625</ele>
        <time>2026-08-15T13:17:33.000Z</time>
        <extensions>
          <ns3:TrackPointExtension>
            <ns3:hr>104</ns3:hr>
            <ns3:cad>0</ns3:cad>
          </ns3:TrackPointExtension>
        </extensions>
      </trkpt>
      <trkpt lat="37.97802415676414966583251953125" lon="-107.73441690020263195037841796875">
        <ele>3398.800048828125</ele>
        <time>2026-08-15T13:17:37.000Z</time>
        <extensions>
          <ns3:TrackPointExtension>
            <ns3:hr>104</ns3:hr>
            <ns3:cad>0</ns3:cad>
          </ns3:TrackPointExtension>
        </extensions>
      </trkpt>
      <trkpt lat="37.97802415676414966583251953125" lon="-107.73441690020263195037841796875">
        <ele>3399</ele>
        <time>2026-08-15T13:17:43.000Z</time>
        <extensions>
          <ns3:TrackPointExtension>
            <ns3:hr>100</ns3:hr>
            <ns3:cad>0</ns3:cad>
          </ns3:TrackPointExtension>
        </extensions>
      </trkpt>
      <trkpt lat="37.97802415676414966583251953125" lon="-107.73441690020263195037841796875">
        <ele>3399</ele>
        <time>2026-08-15T13:17:44.000Z</time>
        <extensions>
          <ns3:TrackPointExtension>
            <ns3:hr>96</ns3:hr>
            <ns3:cad>0</ns3:cad>
          </ns3:TrackPointExtension>
        </extensions>
      </trkpt>
      <trkpt lat="37.97802415676414966583251953125" lon="-107.73441690020263195037841796875">
        <ele>3399</ele>
        <time>2026-08-15T13:17:48.000Z</time>
        <extensions>
          <ns3:TrackPointExtension>
            <ns3:hr>93</ns3:hr>
            <ns3:cad>0</ns3:cad>
          </ns3:TrackPointExtension>
        </extensions>
      </trkpt>
      <trkpt lat="37.97802415676414966583251953125" lon="-107.73441690020263195037841796875">
        <ele>3399</ele>
        <time>2026-08-15T13:17:54.000Z</time>
        <extensions>
          <ns3:TrackPointExtension>
            <ns3:hr>91</ns3:hr>
            <ns3:cad>0</ns3:cad>
          </ns3:TrackPointExtension>
        </extensions>
      </trkpt>
      <trkpt lat="37.97802415676414966583251953125" lon="-107.73441690020263195037841796875">
        <ele>3399.199951171875</ele>
        <time>2026-08-15T13:17:57.000Z</time>
        <extensions>
          <ns3:TrackPointExtension>
            <ns3:hr>91</ns3:hr>
            <ns3:cad>0</ns3:cad>
          </ns3:TrackPointExtension>
        </extensions>
      </trkpt>
      <trkpt lat="37.97802415676414966583251953125" lon="-107.73441690020263195037841796875">
        <ele>3399</ele>
        <time>2026-08-15T13:18:03.000Z</time>
        <extensions>
          <ns3:TrackPointExtension>
            <ns3:hr>92</ns3:hr>
            <ns3:cad>0</ns3:cad>
          </ns3:TrackPointExtension>
        </extensions>
      </trkpt>
      <trkpt lat="37.97805500216782093048095703125" lon="-107.73439343087375164031982421875">
        <ele>3399</ele>
        <time>2026-08-15T13:18:07.000Z</time>
        <extensions>
          <ns3:TrackPointExtension>
            <ns3:hr>92</ns3:hr>
            <ns3:cad>0</ns3:cad>
          </ns3:TrackPointExtension>
        </extensions>
      </trkpt>
      <trkpt lat="37.97806019894778728485107421875" lon="-107.73438689298927783966064453125">
        <ele>3399.39990234375</ele>
        <time>2026-08-15T13:18:08.000Z</time>
        <extensions>
          <ns3:TrackPointExtension>
            <ns3:hr>91</ns3:hr>
            <ns3:cad>0</ns3:cad>
          </ns3:TrackPointExtension>
        </extensions>
      </trkpt>
      <trkpt lat="37.97808215953409671783447265625" lon="-107.73435470648109912872314453125">
        <ele>3400.39990234375</ele>
        <time>2026-08-15T13:18:11.000Z</time>
        <extensions>
          <ns3:TrackPointExtension>
            <ns3:hr>89</ns3:hr>
            <ns3:cad>53</ns3:cad>
          </ns3:TrackPointExtension>
        </extensions>
      </trkpt>
      <trkpt lat="37.97809624113142490386962890625" lon="-107.7343376912176609039306640625">
        <ele>3401</ele>
        <time>2026-08-15T13:18:13.000Z</time>
        <extensions>
          <ns3:TrackPointExtension>
            <ns3:hr>90</ns3:hr>
            <ns3:cad>54</ns3:cad>
          </ns3:TrackPointExtension>
        </extensions>
      </trkpt>
      <trkpt lat="37.97810412012040615081787109375" lon="-107.7343266271054744720458984375">
        <ele>3401.39990234375</ele>
        <time>2026-08-15T13:18:15.000Z</time>
        <extensions>
          <ns3:TrackPointExtension>
            <ns3:hr>91</ns3:hr>
            <ns3:cad>53</ns3:cad>
          </ns3:TrackPointExtension>
        </extensions>
      </trkpt>
      <trkpt lat="37.9781363904476165771484375" lon="-107.734281532466411590576171875">
        <ele>3402.60009765625</ele>
        <time>2026-08-15T13:18:20.000Z</time>
        <extensions>
          <ns3:TrackPointExtension>
            <ns3:hr>93</ns3:hr>
            <ns3:cad>51</ns3:cad>
          </ns3:TrackPointExtension>
        </extensions>
      </trkpt>
      <trkpt lat="37.9781684093177318572998046875" lon="-107.7342337556183338165283203125">
        <ele>3403.39990234375</ele>
        <time>2026-08-15T13:18:25.000Z</time>
        <extensions>
          <ns3:TrackPointExtension>
            <ns3:hr>96</ns3:hr>
            <ns3:cad>48</ns3:cad>
          </ns3:TrackPointExtension>
        </extensions>
      </trkpt>
      <trkpt lat="37.978174276649951934814453125" lon="-107.734225206077098846435546875">
        <ele>3403.60009765625</ele>
        <time>2026-08-15T13:18:26.000Z</time>
        <extensions>
          <ns3:TrackPointExtension>
            <ns3:hr>97</ns3:hr>
            <ns3:cad>48</ns3:cad>
          </ns3:TrackPointExtension>
        </extensions>
      </trkpt>
      <trkpt lat="37.97818827442824840545654296875" lon="-107.73420265875756740570068359375">
        <ele>3403.800048828125</ele>
        <time>2026-08-15T13:18:28.000Z</time>
        <extensions>
          <ns3:TrackPointExtension>
            <ns3:hr>97</ns3:hr>
            <ns3:cad>0</ns3:cad>
          </ns3:TrackPointExtension>
        </extensions>
      </trkpt>
      <trkpt lat="37.97821694053709506988525390625" lon="-107.73414230905473232269287109375">
        <ele>3404.199951171875</ele>
        <time>2026-08-15T13:18:33.000Z</time>
        <extensions>
          <ns3:TrackPointExtension>
            <ns3:hr>98</ns3:hr>
            <ns3:cad>50</ns3:cad>
          </ns3:TrackPointExtension>
        </extensions>
      </trkpt>
      <trkpt lat="37.97824711538851261138916015625" lon="-107.73409880697727203369140625">
        <ele>3404.800048828125</ele>
        <time>2026-08-15T13:18:37.000Z</time>
        <extensions>
          <ns3:TrackPointExtension>
            <ns3:hr>102</ns3:hr>
            <ns3:cad>52</ns3:cad>
          </ns3:TrackPointExtension>
        </extensions>
      </trkpt>
      <trkpt lat="37.9782532341778278350830078125" lon="-107.73408765904605388641357421875">
        <ele>3405</ele>
        <time>2026-08-15T13:18:38.000Z</time>
        <extensions>
          <ns3:TrackPointExtension>
            <ns3:hr>104</ns3:hr>
            <ns3:cad>52</ns3:cad>
          </ns3:TrackPointExtension>
        </extensions>
      </trkpt>
      <trkpt lat="37.978267483413219451904296875" lon="-107.7340674586594104766845703125">
        <ele>3405.199951171875</ele>
        <time>2026-08-15T13:18:40.000Z</time>
        <extensions>
          <ns3:TrackPointExtension>
            <ns3:hr>107</ns3:hr>
            <ns3:cad>54</ns3:cad>
          </ns3:TrackPointExtension>
        </extensions>
      </trkpt>
      <trkpt lat="37.9782763682305812835693359375" lon="-107.73404650390148162841796875">
        <ele>3405.60009765625</ele>
        <time>2026-08-15T13:18:42.000Z</time>
        <extensions>
          <ns3:TrackPointExtension>
            <ns3:hr>110</ns3:hr>
            <ns3:cad>53</ns3:cad>
          </ns3:TrackPointExtension>
        </extensions>
      </trkpt>
      <trkpt lat="37.978296987712383270263671875" lon="-107.7340285666286945343017578125">
        <ele>3406.199951171875</ele>
        <time>2026-08-15T13:18:44.000Z</time>
        <extensions>
          <ns3:TrackPointExtension>
            <ns3:hr>113</ns3:hr>
            <ns3:cad>53</ns3:cad>
          </ns3:TrackPointExtension>
        </extensions>
      </trkpt>
      <trkpt lat="37.9783404059708118438720703125" lon="-107.7339859865605831146240234375">
        <ele>3407.199951171875</ele>
        <time>2026-08-15T13:18:49.000Z</time>
        <extensions>
          <ns3:TrackPointExtension>
            <ns3:hr>113</ns3:hr>
            <ns3:cad>53</ns3:cad>
          </ns3:TrackPointExtension>
        </extensions>
      </trkpt>
      <trkpt lat="37.9783471114933490753173828125" lon="-107.73398204706609249114990234375">
        <ele>3407.39990234375</ele>
        <time>2026-08-15T13:18:50.000Z</time>
        <extensions>
          <ns3:TrackPointExtension>
            <ns3:hr>113</ns3:hr>
            <ns3:cad>53</ns3:cad>
          </ns3:TrackPointExtension>
        </extensions>
      </trkpt>
      <trkpt lat="37.97836630605161190032958984375" lon="-107.7339765988290309906005859375">
        <ele>3408.199951171875</ele>
        <time>2026-08-15T13:18:55.000Z</time>
        <extensions>
          <ns3:TrackPointExtension>
            <ns3:hr>113</ns3:hr>
            <ns3:cad>51</ns3:cad>
          </ns3:TrackPointExtension>
        </extensions>
      </trkpt>
      <trkpt lat="37.9783642105758190155029296875" lon="-107.7339828014373779296875">
        <ele>3408.39990234375</ele>
        <time>2026-08-15T13:18:56.000Z</time>
        <extensions>
          <ns3:TrackPointExtension>
            <ns3:hr>113</ns3:hr>
            <ns3:cad>50</ns3:cad>
          </ns3:TrackPointExtension>
        </extensions>
      </trkpt>
      <trkpt lat="37.97835021279752254486083984375" lon="-107.7339983917772769927978515625">
        <ele>3409.39990234375</ele>
        <time>2026-08-15T13:19:00.000Z</time>
        <extensions>
          <ns3:TrackPointExtension>
            <ns3:hr>112</ns3:hr>
            <ns3:cad>50</ns3:cad>
          </ns3:TrackPointExtension>
        </extensions>
      </trkpt>
      <trkpt lat="37.97833428718149662017822265625" lon="-107.73405798710882663726806640625">
        <ele>3410</ele>
        <time>2026-08-15T13:19:04.000Z</time>
        <extensions>
          <ns3:TrackPointExtension>
            <ns3:hr>113</ns3:hr>
            <ns3:cad>48</ns3:cad>
          </ns3:TrackPointExtension>
        </extensions>
      </trkpt>
      <trkpt lat="37.97832774929702281951904296875" lon="-107.73409218527376651763916015625">
        <ele>3410.60009765625</ele>
        <time>2026-08-15T13:19:07.000Z</time>
        <extensions>
          <ns3:TrackPointExtension>
            <ns3:hr>113</ns3:hr>
            <ns3:cad>48</ns3:cad>
          </ns3:TrackPointExtension>
        </extensions>
      </trkpt>
      <trkpt lat="37.97831165604293346405029296875" lon="-107.73413904011249542236328125">
        <ele>3411</ele>
        <time>2026-08-15T13:19:11.000Z</time>
        <extensions>
          <ns3:TrackPointExtension>
            <ns3:hr>114</ns3:hr>
            <ns3:cad>48</ns3:cad>
          </ns3:TrackPointExtension>
        </extensions>
      </trkpt>
      <trkpt lat="37.9783058725297451019287109375" lon="-107.73419109173119068145751953125">
        <ele>3411.39990234375</ele>
        <time>2026-08-15T13:19:17.000Z</time>
        <extensions>
          <ns3:TrackPointExtension>
            <ns3:hr>113</ns3:hr>
            <ns3:cad>0</ns3:cad>
          </ns3:TrackPointExtension>
        </extensions>
      </trkpt>
      <trkpt lat="37.978305034339427947998046875" lon="-107.73419880308210849761962890625">
        <ele>3411.60009765625</ele>
        <time>2026-08-15T13:19:19.000Z</time>
        <extensions>
          <ns3:TrackPointExtension>
            <ns3:hr>113</ns3:hr>
            <ns3:cad>0</ns3:cad>
          </ns3:TrackPointExtension>
        </extensions>
      </trkpt>
      <trkpt lat="37.97829790972173213958740234375" lon="-107.73424054495990276336669921875">
        <ele>3412.60009765625</ele>
        <time>2026-08-15T13:19:25.000Z</time>
        <extensions>
          <ns3:TrackPointExtension>
            <ns3:hr>112</ns3:hr>
            <ns3:cad>0</ns3:cad>
          </ns3:TrackPointExtension>
        </extensions>
      </trkpt>
      <trkpt lat="37.97829807735979557037353515625" lon="-107.73424096405506134033203125">
        <ele>3412.60009765625</ele>
        <time>2026-08-15T13:19:26.000Z</time>
        <extensions>
          <ns3:TrackPointExtension>
            <ns3:hr>112</ns3:hr>
            <ns3:cad>0</ns3:cad>
          </ns3:TrackPointExtension>
        </extensions>
      </trkpt>
      <trkpt lat="37.97829790972173213958740234375" lon="-107.73424205370247364044189453125">
        <ele>3412.800048828125</ele>
        <time>2026-08-15T13:19:27.000Z</time>
        <extensions>
          <ns3:TrackPointExtension>
            <ns3:hr>112</ns3:hr>
            <ns3:cad>0</ns3:cad>
          </ns3:TrackPointExtension>
        </extensions>
      </trkpt>
      <trkpt lat="37.978298328816890716552734375" lon="-107.73426644504070281982421875">
        <ele>3413</ele>
        <time>2026-08-15T13:19:30.000Z</time>
        <extensions>
          <ns3:TrackPointExtension>
            <ns3:hr>115</ns3:hr>
            <ns3:cad>0</ns3:cad>
          </ns3:TrackPointExtension>
        </extensions>
      </trkpt>
      <trkpt lat="37.978298328816890716552734375" lon="-107.734275497496128082275390625">
        <ele>3412.199951171875</ele>
        <time>2026-08-15T13:19:33.000Z</time>
        <extensions>
          <ns3:TrackPointExtension>
            <ns3:hr>118</ns3:hr>
            <ns3:cad>0</ns3:cad>
          </ns3:TrackPointExtension>
        </extensions>
      </trkpt>
      <trkpt lat="37.97829740680754184722900390625" lon="-107.7342649362981319427490234375">
        <ele>3411.800048828125</ele>
        <time>2026-08-15T13:19:38.000Z</time>
        <extensions>
          <ns3:TrackPointExtension>
            <ns3:hr>115</ns3:hr>
            <ns3:cad>0</ns3:cad>
          </ns3:TrackPointExtension>
        </extensions>
      </trkpt>
      <trkpt lat="37.97829740680754184722900390625" lon="-107.7342649362981319427490234375">
        <ele>3412.199951171875</ele>
        <time>2026-08-15T13:19:41.000Z</time>
        <extensions>
          <ns3:TrackPointExtension>
            <ns3:hr>114</ns3:hr>
            <ns3:cad>0</ns3:cad>
          </ns3:TrackPointExtension>
        </extensions>
      </trkpt>
      <trkpt lat="37.97829941846430301666259765625" lon="-107.73431497626006603240966796875">
        <ele>3413</ele>
        <time>2026-08-15T13:19:45.000Z</time>
        <extensions>
          <ns3:TrackPointExtension>
            <ns3:hr>111</ns3:hr>
            <ns3:cad>0</ns3:cad>
          </ns3:TrackPointExtension>
        </extensions>
      </trkpt>
      <trkpt lat="37.9782974906265735626220703125" lon="-107.734319083392620086669921875">
        <ele>3413.199951171875</ele>
        <time>2026-08-15T13:19:47.000Z</time>
        <extensions>
          <ns3:TrackPointExtension>
            <ns3:hr>111</ns3:hr>
            <ns3:cad>0</ns3:cad>
          </ns3:TrackPointExtension>
        </extensions>
      </trkpt>
      <trkpt lat="37.97828902490437030792236328125" lon="-107.73437147028744220733642578125">
        <ele>3413.39990234375</ele>
        <time>2026-08-15T13:19:53.000Z</time>
        <extensions>
          <ns3:TrackPointExtension>
            <ns3:hr>110</ns3:hr>
            <ns3:cad>0</ns3:cad>
          </ns3:TrackPointExtension>
        </extensions>
      </trkpt>
      <trkpt lat="37.9782865941524505615234375" lon="-107.7343802712857723236083984375">
        <ele>3413.60009765625</ele>
        <time>2026-08-15T13:19:54.000Z</time>
        <extensions>
          <ns3:TrackPointExtension>
            <ns3:hr>109</ns3:hr>
            <ns3:cad>0</ns3:cad>
          </ns3:TrackPointExtension>
        </extensions>
      </trkpt>
      <trkpt lat="37.9782770387828350067138671875" lon="-107.73442469537258148193359375">
        <ele>3413.800048828125</ele>
        <time>2026-08-15T13:19:57.000Z</time>
        <extensions>
          <ns3:TrackPointExtension>
            <ns3:hr>106</ns3:hr>
            <ns3:cad>49</ns3:cad>
          </ns3:TrackPointExtension>
        </extensions>
      </trkpt>
      <trkpt lat="37.97826983034610748291015625" lon="-107.7344855479896068572998046875">
        <ele>3413.60009765625</ele>
        <time>2026-08-15T13:20:01.000Z</time>
        <extensions>
          <ns3:TrackPointExtension>
            <ns3:hr>106</ns3:hr>
            <ns3:cad>51</ns3:cad>
          </ns3:TrackPointExtension>
        </extensions>
      </trkpt>
      <trkpt lat="37.9782666452229022979736328125" lon="-107.73453198373317718505859375">
        <ele>3413.800048828125</ele>
        <time>2026-08-15T13:20:04.000Z</time>
        <extensions>
          <ns3:TrackPointExtension>
            <ns3:hr>107</ns3:hr>
            <ns3:cad>53</ns3:cad>
          </ns3:TrackPointExtension>
        </extensions>
      </trkpt>
      <trkpt lat="37.9782678186893463134765625" lon="-107.734584622085094451904296875">
        <ele>3414.199951171875</ele>
        <time>2026-08-15T13:20:08.000Z</time>
        <extensions>
          <ns3:TrackPointExtension>
            <ns3:hr>109</ns3:hr>
            <ns3:cad>51</ns3:cad>
          </ns3:TrackPointExtension>
        </extensions>
      </trkpt>
      <trkpt lat="37.97826957888901233673095703125" lon="-107.73467774502933025360107421875">
        <ele>3414.800048828125</ele>
        <time>2026-08-15T13:20:14.000Z</time>
        <extensions>
          <ns3:TrackPointExtension>
            <ns3:hr>111</ns3:hr>
            <ns3:cad>50</ns3:cad>
          </ns3:TrackPointExtension>
        </extensions>
      </trkpt>
      <trkpt lat="37.97827091999351978302001953125" lon="-107.73469065316021442413330078125">
        <ele>3414.800048828125</ele>
        <time>2026-08-15T13:20:15.000Z</time>
        <extensions>
          <ns3:TrackPointExtension>
            <ns3:hr>111</ns3:hr>
            <ns3:cad>50</ns3:cad>
          </ns3:TrackPointExtension>
        </extensions>
      </trkpt>
      <trkpt lat="37.978274524211883544921875" lon="-107.73475536145269870758056640625">
        <ele>3415.199951171875</ele>
        <time>2026-08-15T13:20:21.000Z</time>
        <extensions>
          <ns3:TrackPointExtension>
            <ns3:hr>111</ns3:hr>
            <ns3:cad>52</ns3:cad>
          </ns3:TrackPointExtension>
        </extensions>
      </trkpt>
      <trkpt lat="37.978274188935756683349609375" lon="-107.7347566187381744384765625">
        <ele>3415.199951171875</ele>
        <time>2026-08-15T13:20:22.000Z</time>
        <extensions>
          <ns3:TrackPointExtension>
            <ns3:hr>111</ns3:hr>
            <ns3:cad>48</ns3:cad>
          </ns3:TrackPointExtension>
        </extensions>
      </trkpt>
      <trkpt lat="37.97828500159084796905517578125" lon="-107.73478318937122821807861328125">
        <ele>3415.60009765625</ele>
        <time>2026-08-15T13:20:28.000Z</time>
        <extensions>
          <ns3:TrackPointExtension>
            <ns3:hr>108</ns3:hr>
            <ns3:cad>0</ns3:cad>
          </ns3:TrackPointExtension>
        </extensions>
      </trkpt>
      <trkpt lat="37.978288270533084869384765625" lon="-107.73479282855987548828125">
        <ele>3415.60009765625</ele>
        <time>2026-08-15T13:20:29.000Z</time>
        <extensions>
          <ns3:TrackPointExtension>
            <ns3:hr>108</ns3:hr>
            <ns3:cad>48</ns3:cad>
          </ns3:TrackPointExtension>
        </extensions>
      </trkpt>
      <trkpt lat="37.97829371877014636993408203125" lon="-107.73483465425670146942138671875">
        <ele>3416</ele>
        <time>2026-08-15T13:20:32.000Z</time>
        <extensions>
          <ns3:TrackPointExtension>
            <ns3:hr>108</ns3:hr>
            <ns3:cad>50</ns3:cad>
          </ns3:TrackPointExtension>
        </extensions>
      </trkpt>
      <trkpt lat="37.97830092720687389373779296875" lon="-107.73486868478357791900634765625">
        <ele>3416.60009765625</ele>
        <time>2026-08-15T13:20:35.000Z</time>
        <extensions>
          <ns3:TrackPointExtension>
            <ns3:hr>111</ns3:hr>
            <ns3:cad>51</ns3:cad>
          </ns3:TrackPointExtension>
        </extensions>
      </trkpt>
      <trkpt lat="37.97830126248300075531005859375" lon="-107.7349130250513553619384765625">
        <ele>3416.800048828125</ele>
        <time>2026-08-15T13:20:38.000Z</time>
        <extensions>
          <ns3:TrackPointExtension>
            <ns3:hr>112</ns3:hr>
            <ns3:cad>51</ns3:cad>
          </ns3:TrackPointExtension>
        </extensions>
      </trkpt>
      <trkpt lat="37.9783107340335845947265625" lon="-107.73496608249843120574951171875">
        <ele>3417</ele>
        <time>2026-08-15T13:20:42.000Z</time>
        <extensions>
          <ns3:TrackPointExtension>
            <ns3:hr>113</ns3:hr>
            <ns3:cad>48</ns3:cad>
          </ns3:TrackPointExtension>
        </extensions>
      </trkpt>
      <trkpt lat="37.9783223010599613189697265625" lon="-107.7350045554339885711669921875">
        <ele>3417.39990234375</ele>
        <time>2026-08-15T13:20:45.000Z</time>
        <extensions>
          <ns3:TrackPointExtension>
            <ns3:hr>113</ns3:hr>
            <ns3:cad>49</ns3:cad>
          </ns3:TrackPointExtension>
        </extensions>
      </trkpt>
      <trkpt lat="37.97832892276346683502197265625" lon="-107.735043950378894805908203125">
        <ele>3418</ele>
        <time>2026-08-15T13:20:48.000Z</time>
        <extensions>
          <ns3:TrackPointExtension>
            <ns3:hr>111</ns3:hr>
            <ns3:cad>50</ns3:cad>
          </ns3:TrackPointExtension>
        </extensions>
      </trkpt>
      <trkpt lat="37.9783509671688079833984375" lon="-107.73509382270276546478271484375">
        <ele>3419</ele>
        <time>2026-08-15T13:20:53.000Z</time>
        <extensions>
          <ns3:TrackPointExtension>
            <ns3:hr>109</ns3:hr>
            <ns3:cad>48</ns3:cad>
          </ns3:TrackPointExtension>
        </extensions>
      </trkpt>
      <trkpt lat="37.97835557721555233001708984375" lon="-107.7351014502346515655517578125">
        <ele>3419</ele>
        <time>2026-08-15T13:20:54.000Z</time>
        <extensions>
          <ns3:TrackPointExtension>
            <ns3:hr>109</ns3:hr>
            <ns3:cad>48</ns3:cad>
          </ns3:TrackPointExtension>
        </extensions>
      </trkpt>
      <trkpt lat="37.9783786274492740631103515625" lon="-107.73517529480159282684326171875">
        <ele>3419.39990234375</ele>
        <time>2026-08-15T13:21:00.000Z</time>
        <extensions>
          <ns3:TrackPointExtension>
            <ns3:hr>111</ns3:hr>
            <ns3:cad>48</ns3:cad>
          </ns3:TrackPointExtension>
        </extensions>
      </trkpt>
      <trkpt lat="37.978382818400859832763671875" lon="-107.73518971167504787445068359375">
        <ele>3419.60009765625</ele>
        <time>2026-08-15T13:21:01.000Z</time>
        <extensions>
          <ns3:TrackPointExtension>
            <ns3:hr>112</ns3:hr>
            <ns3:cad>48</ns3:cad>
          </ns3:TrackPointExtension>
        </extensions>
      </trkpt>
      <trkpt lat="37.97840368933975696563720703125" lon="-107.73524603806436061859130859375">
        <ele>3420</ele>
        <time>2026-08-15T13:21:05.000Z</time>
        <extensions>
          <ns3:TrackPointExtension>
            <ns3:hr>115</ns3:hr>
            <ns3:cad>49</ns3:cad>
          </ns3:TrackPointExtension>
        </extensions>
      </trkpt>
      <trkpt lat="37.97842497937381267547607421875" lon="-107.73530102334916591644287109375">
        <ele>3420.39990234375</ele>
        <time>2026-08-15T13:21:09.000Z</time>
        <extensions>
          <ns3:TrackPointExtension>
            <ns3:hr>117</ns3:hr>
            <ns3:cad>50</ns3:cad>
          </ns3:TrackPointExtension>
        </extensions>
      </trkpt>
      <trkpt lat="37.97845951281487941741943359375" lon="-107.7353502251207828521728515625">
        <ele>3420.800048828125</ele>
        <time>2026-08-15T13:21:14.000Z</time>
        <extensions>
          <ns3:TrackPointExtension>
            <ns3:hr>114</ns3:hr>
            <ns3:cad>51</ns3:cad>
          </ns3:TrackPointExtension>
        </extensions>
      </trkpt>
      <trkpt lat="37.97847233712673187255859375" lon="-107.73536070249974727630615234375">
        <ele>3421</ele>
        <time>2026-08-15T13:21:16.000Z</time>
        <extensions>
          <ns3:TrackPointExtension>
            <ns3:hr>112</ns3:hr>
            <ns3:cad>50</ns3:cad>
          </ns3:TrackPointExtension>
        </extensions>
      </trkpt>
      <trkpt lat="37.97848097048699855804443359375" lon="-107.73535751737654209136962890625">
        <ele>3421</ele>
        <time>2026-08-15T13:21:17.000Z</time>
        <extensions>
          <ns3:TrackPointExtension>
            <ns3:hr>112</ns3:hr>
            <ns3:cad>50</ns3:cad>
          </ns3:TrackPointExtension>
        </extensions>
      </trkpt>
      <trkpt lat="37.978491447865962982177734375" lon="-107.73531560786068439483642578125">
        <ele>3422.199951171875</ele>
        <time>2026-08-15T13:21:21.000Z</time>
        <extensions>
          <ns3:TrackPointExtension>
            <ns3:hr>111</ns3:hr>
            <ns3:cad>47</ns3:cad>
          </ns3:TrackPointExtension>
        </extensions>
      </trkpt>
      <trkpt lat="37.97849304042756557464599609375" lon="-107.7352479659020900726318359375">
        <ele>3423</ele>
        <time>2026-08-15T13:21:26.000Z</time>
        <extensions>
          <ns3:TrackPointExtension>
            <ns3:hr>108</ns3:hr>
            <ns3:cad>50</ns3:cad>
          </ns3:TrackPointExtension>
        </extensions>
      </trkpt>
      <trkpt lat="37.97849438153207302093505859375" lon="-107.73523204028606414794921875">
        <ele>3423.199951171875</ele>
        <time>2026-08-15T13:21:27.000Z</time>
        <extensions>
          <ns3:TrackPointExtension>
            <ns3:hr>108</ns3:hr>
            <ns3:cad>50</ns3:cad>
          </ns3:TrackPointExtension>
        </extensions>
      </trkpt>
      <trkpt lat="37.9784959740936756134033203125" lon="-107.7352033741772174835205078125">
        <ele>3423.800048828125</ele>
        <time>2026-08-15T13:21:29.000Z</time>
        <extensions>
          <ns3:TrackPointExtension>
            <ns3:hr>108</ns3:hr>
            <ns3:cad>50</ns3:cad>
          </ns3:TrackPointExtension>
        </extensions>
      </trkpt>
      <trkpt lat="37.97850008122622966766357421875" lon="-107.7351574413478374481201171875">
        <ele>3424.39990234375</ele>
        <time>2026-08-15T13:21:32.000Z</time>
        <extensions>
          <ns3:TrackPointExtension>
            <ns3:hr>108</ns3:hr>
            <ns3:cad>52</ns3:cad>
          </ns3:TrackPointExtension>
        </extensions>
      </trkpt>
      <trkpt lat="37.9784996621310710906982421875" lon="-107.73511008359491825103759765625">
        <ele>3424.800048828125</ele>
        <time>2026-08-15T13:21:36.000Z</time>
        <extensions>
          <ns3:TrackPointExtension>
            <ns3:hr>110</ns3:hr>
            <ns3:cad>50</ns3:cad>
          </ns3:TrackPointExtension>
        </extensions>
      </trkpt>
      <trkpt lat="37.9785046912729740142822265625" lon="-107.73506012745201587677001953125">
        <ele>3425.60009765625</ele>
        <time>2026-08-15T13:21:41.000Z</time>
        <extensions>
          <ns3:TrackPointExtension>
            <ns3:hr>109</ns3:hr>
            <ns3:cad>47</ns3:cad>
          </ns3:TrackPointExtension>
        </extensions>
      </trkpt>
      <trkpt lat="37.97850812785327434539794921875" lon="-107.7350404299795627593994140625">
        <ele>3426</ele>
        <time>2026-08-15T13:21:43.000Z</time>
        <extensions>
          <ns3:TrackPointExtension>
            <ns3:hr>107</ns3:hr>
            <ns3:cad>46</ns3:cad>
          </ns3:TrackPointExtension>
        </extensions>
      </trkpt>
      <trkpt lat="37.978514246642589569091796875" lon="-107.73498284630477428436279296875">
        <ele>3426.60009765625</ele>
        <time>2026-08-15T13:21:47.000Z</time>
        <extensions>
          <ns3:TrackPointExtension>
            <ns3:hr>108</ns3:hr>
            <ns3:cad>46</ns3:cad>
          </ns3:TrackPointExtension>
        </extensions>
      </trkpt>
      <trkpt lat="37.97851935960352420806884765625" lon="-107.7349160425364971160888671875">
        <ele>3427.199951171875</ele>
        <time>2026-08-15T13:21:52.000Z</time>
        <extensions>
          <ns3:TrackPointExtension>
            <ns3:hr>109</ns3:hr>
            <ns3:cad>49</ns3:cad>
          </ns3:TrackPointExtension>
        </extensions>
      </trkpt>
      <trkpt lat="37.97852103598415851593017578125" lon="-107.73484705947339534759521484375">
        <ele>3427.39990234375</ele>
        <time>2026-08-15T13:21:57.000Z</time>
        <extensions>
          <ns3:TrackPointExtension>
            <ns3:hr>112</ns3:hr>
            <ns3:cad>48</ns3:cad>
          </ns3:TrackPointExtension>
        </extensions>
      </trkpt>
      <trkpt lat="37.97852371819317340850830078125" lon="-107.73481068201363086700439453125">
        <ele>3427.60009765625</ele>
        <time>2026-08-15T13:22:00.000Z</time>
        <extensions>
          <ns3:TrackPointExtension>
            <ns3:hr>111</ns3:hr>
            <ns3:cad>48</ns3:cad>
          </ns3:TrackPointExtension>
        </extensions>
      </trkpt>
      <trkpt lat="37.97853478230535984039306640625" lon="-107.734733484685420989990234375">
        <ele>3428.60009765625</ele>
        <time>2026-08-15T13:22:06.000Z</time>
        <extensions>
          <ns3:TrackPointExtension>
            <ns3:hr>113</ns3:hr>
            <ns3:cad>49</ns3:cad>
          </ns3:TrackPointExtension>
        </extensions>
      </trkpt>
      <trkpt lat="37.978540398180484771728515625" lon="-107.73472418077290058135986328125">
        <ele>3428.800048828125</ele>
        <time>2026-08-15T13:22:07.000Z</time>
        <extensions>
          <ns3:TrackPointExtension>
            <ns3:hr>112</ns3:hr>
            <ns3:cad>50</ns3:cad>
          </ns3:TrackPointExtension>
        </extensions>
      </trkpt>
      <trkpt lat="37.9785462655127048492431640625" lon="-107.7346984483301639556884765625">
        <ele>3429</ele>
        <time>2026-08-15T13:22:09.000Z</time>
        <extensions>
          <ns3:TrackPointExtension>
            <ns3:hr>113</ns3:hr>
            <ns3:cad>51</ns3:cad>
          </ns3:TrackPointExtension>
        </extensions>
      </trkpt>
      <trkpt lat="37.97854886390268802642822265625" lon="-107.73464170284569263458251953125">
        <ele>3429.199951171875</ele>
        <time>2026-08-15T13:22:15.000Z</time>
        <extensions>
          <ns3:TrackPointExtension>
            <ns3:hr>114</ns3:hr>
            <ns3:cad>49</ns3:cad>
          </ns3:TrackPointExtension>
        </extensions>
      </trkpt>
      <trkpt lat="37.9785429127514362335205078125" lon="-107.73462317883968353271484375">
        <ele>3429.199951171875</ele>
        <time>2026-08-15T13:22:17.000Z</time>
        <extensions>
          <ns3:TrackPointExtension>
            <ns3:hr>114</ns3:hr>
            <ns3:cad>51</ns3:cad>
          </ns3:TrackPointExtension>
        </extensions>
      </trkpt>
      <trkpt lat="37.978551797568798065185546875" lon="-107.7346049062907695770263671875">
        <ele>3428.199951171875</ele>
        <time>2026-08-15T13:22:23.000Z</time>
        <extensions>
          <ns3:TrackPointExtension>
            <ns3:hr>114</ns3:hr>
            <ns3:cad>0</ns3:cad>
          </ns3:TrackPointExtension>
        </extensions>
      </trkpt>
      <trkpt lat="37.97856085002422332763671875" lon="-107.73457012139260768890380859375">
        <ele>3429</ele>
        <time>2026-08-15T13:22:28.000Z</time>
        <extensions>
          <ns3:TrackPointExtension>
            <ns3:hr>111</ns3:hr>
            <ns3:cad>0</ns3:cad>
          </ns3:TrackPointExtension>
        </extensions>
      </trkpt>
      <trkpt lat="37.97857132740318775177001953125" lon="-107.7345230989158153533935546875">
        <ele>3429.800048828125</ele>
        <time>2026-08-15T13:22:33.000Z</time>
        <extensions>
          <ns3:TrackPointExtension>
            <ns3:hr>112</ns3:hr>
            <ns3:cad>0</ns3:cad>
          </ns3:TrackPointExtension>
        </extensions>
      </trkpt>
      <trkpt lat="37.97857417725026607513427734375" lon="-107.73450206033885478973388671875">
        <ele>3429.800048828125</ele>
        <time>2026-08-15T13:22:35.000Z</time>
        <extensions>
          <ns3:TrackPointExtension>
            <ns3:hr>111</ns3:hr>
            <ns3:cad>0</ns3:cad>
          </ns3:TrackPointExtension>
        </extensions>
      </trkpt>
      <trkpt lat="37.9785771109163761138916015625" lon="-107.73447305895388126373291015625">
        <ele>3429.60009765625</ele>
        <time>2026-08-15T13:22:38.000Z</time>
        <extensions>
          <ns3:TrackPointExtension>
            <ns3:hr>108</ns3:hr>
            <ns3:cad>50</ns3:cad>
          </ns3:TrackPointExtension>
        </extensions>
      </trkpt>
      <trkpt lat="37.9786035977303981781005859375" lon="-107.7344127930700778961181640625">
        <ele>3430.39990234375</ele>
        <time>2026-08-15T13:22:44.000Z</time>
        <extensions>
          <ns3:TrackPointExtension>
            <ns3:hr>106</ns3:hr>
            <ns3:cad>0</ns3:cad>
          </ns3:TrackPointExtension>
        </extensions>
      </trkpt>
      <trkpt lat="37.9786156676709651947021484375" lon="-107.73438722826540470123291015625">
        <ele>3430.800048828125</ele>
        <time>2026-08-15T13:22:46.000Z</time>
        <extensions>
          <ns3:TrackPointExtension>
            <ns3:hr>106</ns3:hr>
            <ns3:cad>50</ns3:cad>
          </ns3:TrackPointExtension>
        </extensions>
      </trkpt>
      <trkpt lat="37.97864693216979503631591796875" lon="-107.73434464819729328155517578125">
        <ele>3431.60009765625</ele>
        <time>2026-08-15T13:22:51.000Z</time>
        <extensions>
          <ns3:TrackPointExtension>
            <ns3:hr>107</ns3:hr>
            <ns3:cad>49</ns3:cad>
          </ns3:TrackPointExtension>
        </extensions>
      </trkpt>
      <trkpt lat="37.97866067849099636077880859375" lon="-107.73432889021933078765869140625">
        <ele>3432</ele>
        <time>2026-08-15T13:22:54.000Z</time>
        <extensions>
          <ns3:TrackPointExtension>
            <ns3:hr>109</ns3:hr>
            <ns3:cad>48</ns3:cad>
          </ns3:TrackPointExtension>
        </extensions>
      </trkpt>
      <trkpt lat="37.97867962159216403961181640625" lon="-107.734312377870082855224609375">
        <ele>3432.800048828125</ele>
        <time>2026-08-15T13:22:59.000Z</time>
        <extensions>
          <ns3:TrackPointExtension>
            <ns3:hr>112</ns3:hr>
            <ns3:cad>0</ns3:cad>
          </ns3:TrackPointExtension>
        </extensions>
      </trkpt>
      <trkpt lat="37.97868280671536922454833984375" lon="-107.7343122102320194244384765625">
        <ele>3433</ele>
        <time>2026-08-15T13:23:00.000Z</time>
        <extensions>
          <ns3:TrackPointExtension>
            <ns3:hr>112</ns3:hr>
            <ns3:cad>0</ns3:cad>
          </ns3:TrackPointExtension>
        </extensions>
      </trkpt>
      <trkpt lat="37.9787105508148670196533203125" lon="-107.7342947758734226226806640625">
        <ele>3434</ele>
        <time>2026-08-15T13:23:06.000Z</time>
        <extensions>
          <ns3:TrackPointExtension>
            <ns3:hr>110</ns3:hr>
            <ns3:cad>0</ns3:cad>
          </ns3:TrackPointExtension>
        </extensions>
      </trkpt>
      <trkpt lat="37.9787170886993408203125" lon="-107.73428865708410739898681640625">
        <ele>3434.199951171875</ele>
        <time>2026-08-15T13:23:07.000Z</time>
        <extensions>
          <ns3:TrackPointExtension>
            <ns3:hr>109</ns3:hr>
            <ns3:cad>0</ns3:cad>
          </ns3:TrackPointExtension>
        </extensions>
      </trkpt>
      <trkpt lat="37.9787638597190380096435546875" lon="-107.7342639304697513580322265625">
        <ele>3435.39990234375</ele>
        <time>2026-08-15T13:23:12.000Z</time>
        <extensions>
          <ns3:TrackPointExtension>
            <ns3:hr>108</ns3:hr>
            <ns3:cad>49</ns3:cad>
          </ns3:TrackPointExtension>
        </extensions>
      </trkpt>
      <trkpt lat="37.9787729121744632720947265625" lon="-107.73426049388945102691650390625">
        <ele>3435.39990234375</ele>
        <time>2026-08-15T13:23:13.000Z</time>
        <extensions>
          <ns3:TrackPointExtension>
            <ns3:hr>109</ns3:hr>
            <ns3:cad>50</ns3:cad>
          </ns3:TrackPointExtension>
        </extensions>
      </trkpt>
      <trkpt lat="37.97879512421786785125732421875" lon="-107.73424373008310794830322265625">
        <ele>3435.800048828125</ele>
        <time>2026-08-15T13:23:16.000Z</time>
        <extensions>
          <ns3:TrackPointExtension>
            <ns3:hr>112</ns3:hr>
            <ns3:cad>50</ns3:cad>
          </ns3:TrackPointExtension>
        </extensions>
      </trkpt>
      <trkpt lat="37.9788121394813060760498046875" lon="-107.73423501290380954742431640625">
        <ele>3436.60009765625</ele>
        <time>2026-08-15T13:23:19.000Z</time>
        <extensions>
          <ns3:TrackPointExtension>
            <ns3:hr>113</ns3:hr>
            <ns3:cad>48</ns3:cad>
          </ns3:TrackPointExtension>
        </extensions>
      </trkpt>
      <trkpt lat="37.9788309149444103240966796875" lon="-107.734222523868083953857421875">
        <ele>3437</ele>
        <time>2026-08-15T13:23:21.000Z</time>
        <extensions>
          <ns3:TrackPointExtension>
            <ns3:hr>113</ns3:hr>
            <ns3:cad>50</ns3:cad>
          </ns3:TrackPointExtension>
        </extensions>
      </trkpt>
      <trkpt lat="37.97885949723422527313232421875" lon="-107.73420064710080623626708984375">
        <ele>3437.60009765625</ele>
        <time>2026-08-15T13:23:25.000Z</time>
        <extensions>
          <ns3:TrackPointExtension>
            <ns3:hr>112</ns3:hr>
            <ns3:cad>49</ns3:cad>
          </ns3:TrackPointExtension>
        </extensions>
      </trkpt>
      <trkpt lat="37.978885062038898468017578125" lon="-107.7341894991695880889892578125">
        <ele>3438.199951171875</ele>
        <time>2026-08-15T13:23:29.000Z</time>
        <extensions>
          <ns3:TrackPointExtension>
            <ns3:hr>112</ns3:hr>
            <ns3:cad>50</ns3:cad>
          </ns3:TrackPointExtension>
        </extensions>
      </trkpt>
      <trkpt lat="37.97889872454106807708740234375" lon="-107.7341821230947971343994140625">
        <ele>3438.60009765625</ele>
        <time>2026-08-15T13:23:31.000Z</time>
        <extensions>
          <ns3:TrackPointExtension>
            <ns3:hr>111</ns3:hr>
            <ns3:cad>50</ns3:cad>
          </ns3:TrackPointExtension>
        </extensions>
      </trkpt>
      <trkpt lat="37.9789241217076778411865234375" lon="-107.734179608523845672607421875">
        <ele>3439.39990234375</ele>
        <time>2026-08-15T13:23:35.000Z</time>
        <extensions>
          <ns3:TrackPointExtension>
            <ns3:hr>110</ns3:hr>
            <ns3:cad>48</ns3:cad>
          </ns3:TrackPointExtension>
        </extensions>
      </trkpt>
      <trkpt lat="37.97893225215375423431396484375" lon="-107.73417985998094081878662109375">
        <ele>3439.60009765625</ele>
        <time>2026-08-15T13:23:36.000Z</time>
        <extensions>
          <ns3:TrackPointExtension>
            <ns3:hr>109</ns3:hr>
            <ns3:cad>47</ns3:cad>
          </ns3:TrackPointExtension>
        </extensions>
      </trkpt>
      <trkpt lat="37.97895186580717563629150390625" lon="-107.7341871522367000579833984375">
        <ele>3440.60009765625</ele>
        <time>2026-08-15T13:23:40.000Z</time>
        <extensions>
          <ns3:TrackPointExtension>
            <ns3:hr>108</ns3:hr>
            <ns3:cad>47</ns3:cad>
          </ns3:TrackPointExtension>
        </extensions>
      </trkpt>
      <trkpt lat="37.97895991243422031402587890625" lon="-107.7341928519308567047119140625">
        <ele>3440.800048828125</ele>
        <time>2026-08-15T13:23:41.000Z</time>
        <extensions>
          <ns3:TrackPointExtension>
            <ns3:hr>108</ns3:hr>
            <ns3:cad>48</ns3:cad>
          </ns3:TrackPointExtension>
        </extensions>
      </trkpt>
      <trkpt lat="37.97900282777845859527587890625" lon="-107.73418220691382884979248046875">
        <ele>3441.60009765625</ele>
        <time>2026-08-15T13:23:47.000Z</time>
        <extensions>
          <ns3:TrackPointExtension>
            <ns3:hr>109</ns3:hr>
            <ns3:cad>44</ns3:cad>
          </ns3:TrackPointExtension>
        </extensions>
      </trkpt>
      <trkpt lat="37.97901975922286510467529296875" lon="-107.73416779004037380218505859375">
        <ele>3442.800048828125</ele>
        <time>2026-08-15T13:23:51.000Z</time>
        <extensions>
          <ns3:TrackPointExtension>
            <ns3:hr>110</ns3:hr>
            <ns3:cad>0</ns3:cad>
          </ns3:TrackPointExtension>
        </extensions>
      </trkpt>
      <trkpt lat="37.97902646474540233612060546875" lon="-107.73416426964104175567626953125">
        <ele>3443</ele>
        <time>2026-08-15T13:23:52.000Z</time>
        <extensions>
          <ns3:TrackPointExtension>
            <ns3:hr>111</ns3:hr>
            <ns3:cad>0</ns3:cad>
          </ns3:TrackPointExtension>
        </extensions>
      </trkpt>
      <trkpt lat="37.97902545891702175140380859375" lon="-107.73416846059262752532958984375">
        <ele>3444</ele>
        <time>2026-08-15T13:23:58.000Z</time>
        <extensions>
          <ns3:TrackPointExtension>
            <ns3:hr>112</ns3:hr>
            <ns3:cad>43</ns3:cad>
          </ns3:TrackPointExtension>
        </extensions>
      </trkpt>
      <trkpt lat="37.9790161550045013427734375" lon="-107.73418790660798549652099609375">
        <ele>3445</ele>
        <time>2026-08-15T13:24:02.000Z</time>
        <extensions>
          <ns3:TrackPointExtension>
            <ns3:hr>112</ns3:hr>
            <ns3:cad>43</ns3:cad>
          </ns3:TrackPointExtension>
        </extensions>
      </trkpt>
      <trkpt lat="37.979009449481964111328125" lon="-107.73420131765305995941162109375">
        <ele>3445.60009765625</ele>
        <time>2026-08-15T13:24:05.000Z</time>
        <extensions>
          <ns3:TrackPointExtension>
            <ns3:hr>114</ns3:hr>
            <ns3:cad>43</ns3:cad>
          </ns3:TrackPointExtension>
        </extensions>
      </trkpt>
      <trkpt lat="37.979002408683300018310546875" lon="-107.73421875201165676116943359375">
        <ele>3446</ele>
        <time>2026-08-15T13:24:08.000Z</time>
        <extensions>
          <ns3:TrackPointExtension>
            <ns3:hr>117</ns3:hr>
            <ns3:cad>46</ns3:cad>
          </ns3:TrackPointExtension>
        </extensions>
      </trkpt>
      <trkpt lat="37.97899561934173107147216796875" lon="-107.734227888286113739013671875">
        <ele>3446.199951171875</ele>
        <time>2026-08-15T13:24:09.000Z</time>
        <extensions>
          <ns3:TrackPointExtension>
            <ns3:hr>116</ns3:hr>
            <ns3:cad>45</ns3:cad>
          </ns3:TrackPointExtension>
        </extensions>
      </trkpt>
      <trkpt lat="37.9789745807647705078125" lon="-107.73427046835422515869140625">
        <ele>3447</ele>
        <time>2026-08-15T13:24:13.000Z</time>
        <extensions>
          <ns3:TrackPointExtension>
            <ns3:hr>115</ns3:hr>
            <ns3:cad>49</ns3:cad>
          </ns3:TrackPointExtension>
        </extensions>
      </trkpt>
      <trkpt lat="37.97896762378513813018798828125" lon="-107.734291590750217437744140625">
        <ele>3447.199951171875</ele>
        <time>2026-08-15T13:24:15.000Z</time>
        <extensions>
          <ns3:TrackPointExtension>
            <ns3:hr>115</ns3:hr>
            <ns3:cad>47</ns3:cad>
          </ns3:TrackPointExtension>
        </extensions>
      </trkpt>
      <trkpt lat="37.97894666902720928192138671875" lon="-107.7343467436730861663818359375">
        <ele>3448.39990234375</ele>
        <time>2026-08-15T13:24:21.000Z</time>
        <extensions>
          <ns3:TrackPointExtension>
            <ns3:hr>115</ns3:hr>
            <ns3:cad>48</ns3:cad>
          </ns3:TrackPointExtension>
        </extensions>
      </trkpt>
      <trkpt lat="37.97892806120216846466064453125" lon="-107.734400890767574310302734375">
        <ele>3449.39990234375</ele>
        <time>2026-08-15T13:24:26.000Z</time>
        <extensions>
          <ns3:TrackPointExtension>
            <ns3:hr>115</ns3:hr>
            <ns3:cad>47</ns3:cad>
          </ns3:TrackPointExtension>
        </extensions>
      </trkpt>
      <trkpt lat="37.97892420552670955657958984375" lon="-107.73441773839294910430908203125">
        <ele>3449.60009765625</ele>
        <time>2026-08-15T13:24:28.000Z</time>
        <extensions>
          <ns3:TrackPointExtension>
            <ns3:hr>115</ns3:hr>
            <ns3:cad>46</ns3:cad>
          </ns3:TrackPointExtension>
        </extensions>
      </trkpt>
      <trkpt lat="37.97891850583255290985107421875" lon="-107.73442360572516918182373046875">
        <ele>3450</ele>
        <time>2026-08-15T13:24:32.000Z</time>
        <extensions>
          <ns3:TrackPointExtension>
            <ns3:hr>118</ns3:hr>
            <ns3:cad>41</ns3:cad>
          </ns3:TrackPointExtension>
        </extensions>
      </trkpt>
      <trkpt lat="37.97891448251903057098388671875" lon="-107.73442997597157955169677734375">
        <ele>3450</ele>
        <time>2026-08-15T13:24:33.000Z</time>
        <extensions>
          <ns3:TrackPointExtension>
            <ns3:hr>119</ns3:hr>
            <ns3:cad>41</ns3:cad>
          </ns3:TrackPointExtension>
        </extensions>
      </trkpt>
      <trkpt lat="37.97890710644423961639404296875" lon="-107.73444238118827342987060546875">
        <ele>3450</ele>
        <time>2026-08-15T13:24:34.000Z</time>
        <extensions>
          <ns3:TrackPointExtension>
            <ns3:hr>122</ns3:hr>
            <ns3:cad>41</ns3:cad>
          </ns3:TrackPointExtension>
        </extensions>
      </trkpt>
      <trkpt lat="37.97889637760818004608154296875" lon="-107.7344573847949504852294921875">
        <ele>3450.199951171875</ele>
        <time>2026-08-15T13:24:35.000Z</time>
        <extensions>
          <ns3:TrackPointExtension>
            <ns3:hr>127</ns3:hr>
            <ns3:cad>41</ns3:cad>
          </ns3:TrackPointExtension>
        </extensions>
      </trkpt>
      <trkpt lat="37.97889185138046741485595703125" lon="-107.7344937622547149658203125">
        <ele>3450.60009765625</ele>
        <time>2026-08-15T13:24:38.000Z</time>
        <extensions>
          <ns3:TrackPointExtension>
            <ns3:hr>130</ns3:hr>
            <ns3:cad>43</ns3:cad>
          </ns3:TrackPointExtension>
        </extensions>
      </trkpt>
      <trkpt lat="37.97887844033539295196533203125" lon="-107.7345499210059642791748046875">
        <ele>3451.60009765625</ele>
        <time>2026-08-15T13:24:44.000Z</time>
        <extensions>
          <ns3:TrackPointExtension>
            <ns3:hr>128</ns3:hr>
            <ns3:cad>48</ns3:cad>
          </ns3:TrackPointExtension>
        </extensions>
      </trkpt>
      <trkpt lat="37.9788755066692829132080078125" lon="-107.7345623262226581573486328125">
        <ele>3451.800048828125</ele>
        <time>2026-08-15T13:24:45.000Z</time>
        <extensions>
          <ns3:TrackPointExtension>
            <ns3:hr>128</ns3:hr>
            <ns3:cad>48</ns3:cad>
          </ns3:TrackPointExtension>
        </extensions>
      </trkpt>
      <trkpt lat="37.9788674600422382354736328125" lon="-107.73461110889911651611328125">
        <ele>3452.199951171875</ele>
        <time>2026-08-15T13:24:49.000Z</time>
        <extensions>
          <ns3:TrackPointExtension>
            <ns3:hr>132</ns3:hr>
            <ns3:cad>48</ns3:cad>
          </ns3:TrackPointExtension>
        </extensions>
      </trkpt>
      <trkpt lat="37.9788657836616039276123046875" lon="-107.73461873643100261688232421875">
        <ele>3452.39990234375</ele>
        <time>2026-08-15T13:24:50.000Z</time>
        <extensions>
          <ns3:TrackPointExtension>
            <ns3:hr>136</ns3:hr>
            <ns3:cad>48</ns3:cad>
          </ns3:TrackPointExtension>
        </extensions>
      </trkpt>
      <trkpt lat="37.978864945471286773681640625" lon="-107.734623849391937255859375">
        <ele>3452.60009765625</ele>
        <time>2026-08-15T13:24:51.000Z</time>
        <extensions>
          <ns3:TrackPointExtension>
            <ns3:hr>140</ns3:hr>
            <ns3:cad>48</ns3:cad>
          </ns3:TrackPointExtension>
        </extensions>
      </trkpt>
      <trkpt lat="37.97886452637612819671630859375" lon="-107.73463248275220394134521484375">
        <ele>3452.800048828125</ele>
        <time>2026-08-15T13:24:52.000Z</time>
        <extensions>
          <ns3:TrackPointExtension>
            <ns3:hr>142</ns3:hr>
            <ns3:cad>44</ns3:cad>
          </ns3:TrackPointExtension>
        </extensions>
      </trkpt>
      <trkpt lat="37.9788637720048427581787109375" lon="-107.7346431277692317962646484375">
        <ele>3452.800048828125</ele>
        <time>2026-08-15T13:24:53.000Z</time>
        <extensions>
          <ns3:TrackPointExtension>
            <ns3:hr>143</ns3:hr>
            <ns3:cad>44</ns3:cad>
          </ns3:TrackPointExtension>
        </extensions>
      </trkpt>
      <trkpt lat="37.97884658910334110260009765625" lon="-107.73469501174986362457275390625">
        <ele>3453.39990234375</ele>
        <time>2026-08-15T13:24:59.000Z</time>
        <extensions>
          <ns3:TrackPointExtension>
            <ns3:hr>141</ns3:hr>
            <ns3:cad>47</ns3:cad>
          </ns3:TrackPointExtension>
        </extensions>
      </trkpt>
      <trkpt lat="37.97883602790534496307373046875" lon="-107.73473055101931095123291015625">
        <ele>3452.800048828125</ele>
        <time>2026-08-15T13:25:04.000Z</time>
        <extensions>
          <ns3:TrackPointExtension>
            <ns3:hr>140</ns3:hr>
            <ns3:cad>0</ns3:cad>
          </ns3:TrackPointExtension>
        </extensions>
      </trkpt>
      <trkpt lat="37.9788272269070148468017578125" lon="-107.73476810194551944732666015625">
        <ele>3452.199951171875</ele>
        <time>2026-08-15T13:25:07.000Z</time>
        <extensions>
          <ns3:TrackPointExtension>
            <ns3:hr>137</ns3:hr>
            <ns3:cad>0</ns3:cad>
          </ns3:TrackPointExtension>
        </extensions>
      </trkpt>
      <trkpt lat="37.97883384861052036285400390625" lon="-107.73478721268475055694580078125">
        <ele>3452</ele>
        <time>2026-08-15T13:25:09.000Z</time>
        <extensions>
          <ns3:TrackPointExtension>
            <ns3:hr>134</ns3:hr>
            <ns3:cad>0</ns3:cad>
          </ns3:TrackPointExtension>
        </extensions>
      </trkpt>
      <trkpt lat="37.97883569262921810150146484375" lon="-107.73479525931179523468017578125">
        <ele>3452</ele>
        <time>2026-08-15T13:25:10.000Z</time>
        <extensions>
          <ns3:TrackPointExtension>
            <ns3:hr>133</ns3:hr>
            <ns3:cad>0</ns3:cad>
          </ns3:TrackPointExtension>
        </extensions>
      </trkpt>
      <trkpt lat="37.97883736900985240936279296875" lon="-107.7348566986620426177978515625">
        <ele>3452.39990234375</ele>
        <time>2026-08-15T13:25:14.000Z</time>
        <extensions>
          <ns3:TrackPointExtension>
            <ns3:hr>130</ns3:hr>
            <ns3:cad>41</ns3:cad>
          </ns3:TrackPointExtension>
        </extensions>
      </trkpt>
      <trkpt lat="37.9788426496088504791259765625" lon="-107.7348744682967662811279296875">
        <ele>3452.39990234375</ele>
        <time>2026-08-15T13:25:16.000Z</time>
        <extensions>
          <ns3:TrackPointExtension>
            <ns3:hr>129</ns3:hr>
            <ns3:cad>0</ns3:cad>
          </ns3:TrackPointExtension>
        </extensions>
      </trkpt>
      <trkpt lat="37.97885145060718059539794921875" lon="-107.73493029177188873291015625">
        <ele>3453.39990234375</ele>
        <time>2026-08-15T13:25:21.000Z</time>
        <extensions>
          <ns3:TrackPointExtension>
            <ns3:hr>126</ns3:hr>
            <ns3:cad>47</ns3:cad>
          </ns3:TrackPointExtension>
        </extensions>
      </trkpt>
      <trkpt lat="37.97885614447295665740966796875" lon="-107.73494211025536060333251953125">
        <ele>3453.60009765625</ele>
        <time>2026-08-15T13:25:22.000Z</time>
        <extensions>
          <ns3:TrackPointExtension>
            <ns3:hr>126</ns3:hr>
            <ns3:cad>48</ns3:cad>
          </ns3:TrackPointExtension>
        </extensions>
      </trkpt>
      <trkpt lat="37.978870309889316558837890625" lon="-107.73499223403632640838623046875">
        <ele>3453.39990234375</ele>
        <time>2026-08-15T13:25:26.000Z</time>
        <extensions>
          <ns3:TrackPointExtension>
            <ns3:hr>123</ns3:hr>
            <ns3:cad>49</ns3:cad>
          </ns3:TrackPointExtension>
        </extensions>
      </trkpt>
      <trkpt lat="37.97887735068798065185546875" lon="-107.73500849492847919464111328125">
        <ele>3453.60009765625</ele>
        <time>2026-08-15T13:25:28.000Z</time>
        <extensions>
          <ns3:TrackPointExtension>
            <ns3:hr>123</ns3:hr>
            <ns3:cad>44</ns3:cad>
          </ns3:TrackPointExtension>
        </extensions>
      </trkpt>
      <trkpt lat="37.9788812063634395599365234375" lon="-107.7350152842700481414794921875">
        <ele>3453.800048828125</ele>
        <time>2026-08-15T13:25:29.000Z</time>
        <extensions>
          <ns3:TrackPointExtension>
            <ns3:hr>122</ns3:hr>
            <ns3:cad>44</ns3:cad>
          </ns3:TrackPointExtension>
        </extensions>
      </trkpt>
      <trkpt lat="37.97889344394207000732421875" lon="-107.7350374124944210052490234375">
        <ele>3454.60009765625</ele>
        <time>2026-08-15T13:25:32.000Z</time>
        <extensions>
          <ns3:TrackPointExtension>
            <ns3:hr>117</ns3:hr>
            <ns3:cad>44</ns3:cad>
          </ns3:TrackPointExtension>
        </extensions>
      </trkpt>
      <trkpt lat="37.9788952879607677459716796875" lon="-107.73504520766437053680419921875">
        <ele>3454.800048828125</ele>
        <time>2026-08-15T13:25:36.000Z</time>
        <extensions>
          <ns3:TrackPointExtension>
            <ns3:hr>116</ns3:hr>
            <ns3:cad>0</ns3:cad>
          </ns3:TrackPointExtension>
        </extensions>
      </trkpt>
      <trkpt lat="37.978902161121368408203125" lon="-107.7350384183228015899658203125">
        <ele>3454.60009765625</ele>
        <time>2026-08-15T13:25:42.000Z</time>
        <extensions>
          <ns3:TrackPointExtension>
            <ns3:hr>116</ns3:hr>
            <ns3:cad>0</ns3:cad>
          </ns3:TrackPointExtension>
        </extensions>
      </trkpt>
      <trkpt lat="37.978904508054256439208984375" lon="-107.7350300364196300506591796875">
        <ele>3454.60009765625</ele>
        <time>2026-08-15T13:25:43.000Z</time>
        <extensions>
          <ns3:TrackPointExtension>
            <ns3:hr>116</ns3:hr>
            <ns3:cad>0</ns3:cad>
          </ns3:TrackPointExtension>
        </extensions>
      </trkpt>
      <trkpt lat="37.9789073579013347625732421875" lon="-107.73502894677221775054931640625">
        <ele>3455</ele>
        <time>2026-08-15T13:25:45.000Z</time>
        <extensions>
          <ns3:TrackPointExtension>
            <ns3:hr>115</ns3:hr>
            <ns3:cad>0</ns3:cad>
          </ns3:TrackPointExtension>
        </extensions>
      </trkpt>
      <trkpt lat="37.978920601308345794677734375" lon="-107.7350377477705478668212890625">
        <ele>3456</ele>
        <time>2026-08-15T13:25:50.000Z</time>
        <extensions>
          <ns3:TrackPointExtension>
            <ns3:hr>116</ns3:hr>
            <ns3:cad>0</ns3:cad>
          </ns3:TrackPointExtension>
        </extensions>
      </trkpt>
      <trkpt lat="37.97892336733639240264892578125" lon="-107.735037915408611297607421875">
        <ele>3456.199951171875</ele>
        <time>2026-08-15T13:25:51.000Z</time>
        <extensions>
          <ns3:TrackPointExtension>
            <ns3:hr>117</ns3:hr>
            <ns3:cad>74</ns3:cad>
          </ns3:TrackPointExtension>
        </extensions>
      </trkpt>
      <trkpt lat="37.97892202623188495635986328125" lon="-107.7350357361137866973876953125">
        <ele>3455.800048828125</ele>
        <time>2026-08-15T13:25:57.000Z</time>
        <extensions>
          <ns3:TrackPointExtension>
            <ns3:hr>117</ns3:hr>
            <ns3:cad>0</ns3:cad>
          </ns3:TrackPointExtension>
        </extensions>
      </trkpt>
      <trkpt lat="37.97892202623188495635986328125" lon="-107.7350357361137866973876953125">
        <ele>3456</ele>
        <time>2026-08-15T13:26:03.000Z</time>
        <extensions>
          <ns3:TrackPointExtension>
            <ns3:hr>115</ns3:hr>
            <ns3:cad>0</ns3:cad>
          </ns3:TrackPointExtension>
        </extensions>
      </trkpt>
      <trkpt lat="37.97893811948597431182861328125" lon="-107.73507001809775829315185546875">
        <ele>3456.199951171875</ele>
        <time>2026-08-15T13:26:08.000Z</time>
        <extensions>
          <ns3:TrackPointExtension>
            <ns3:hr>115</ns3:hr>
            <ns3:cad>0</ns3:cad>
          </ns3:TrackPointExtension>
        </extensions>
      </trkpt>
      <trkpt lat="37.97896921634674072265625" lon="-107.73513145744800567626953125">
        <ele>3457</ele>
        <time>2026-08-15T13:26:14.000Z</time>
        <extensions>
          <ns3:TrackPointExtension>
            <ns3:hr>117</ns3:hr>
            <ns3:cad>47</ns3:cad>
          </ns3:TrackPointExtension>
        </extensions>
      </trkpt>
      <trkpt lat="37.9789710603654384613037109375" lon="-107.73513556458055973052978515625">
        <ele>3457.199951171875</ele>
        <time>2026-08-15T13:26:15.000Z</time>
        <extensions>
          <ns3:TrackPointExtension>
            <ns3:hr>117</ns3:hr>
            <ns3:cad>47</ns3:cad>
          </ns3:TrackPointExtension>
        </extensions>
      </trkpt>
      <trkpt lat="37.9789884947240352630615234375" lon="-107.73516171611845493316650390625">
        <ele>3457.60009765625</ele>
        <time>2026-08-15T13:26:19.000Z</time>
        <extensions>
          <ns3:TrackPointExtension>
            <ns3:hr>120</ns3:hr>
            <ns3:cad>43</ns3:cad>
          </ns3:TrackPointExtension>
        </extensions>
      </trkpt>
      <trkpt lat="37.97899134457111358642578125" lon="-107.73516439832746982574462890625">
        <ele>3457.800048828125</ele>
        <time>2026-08-15T13:26:20.000Z</time>
        <extensions>
          <ns3:TrackPointExtension>
            <ns3:hr>121</ns3:hr>
            <ns3:cad>43</ns3:cad>
          </ns3:TrackPointExtension>
        </extensions>
      </trkpt>
      <trkpt lat="37.979005761444568634033203125" lon="-107.73516758345067501068115234375">
        <ele>3458.199951171875</ele>
        <time>2026-08-15T13:26:22.000Z</time>
        <extensions>
          <ns3:TrackPointExtension>
            <ns3:hr>122</ns3:hr>
            <ns3:cad>43</ns3:cad>
          </ns3:TrackPointExtension>
        </extensions>
      </trkpt>
      <trkpt lat="37.97902210615575313568115234375" lon="-107.73518032394349575042724609375">
        <ele>3459.199951171875</ele>
        <time>2026-08-15T13:26:26.000Z</time>
        <extensions>
          <ns3:TrackPointExtension>
            <ns3:hr>122</ns3:hr>
            <ns3:cad>49</ns3:cad>
          </ns3:TrackPointExtension>
        </extensions>
      </trkpt>
      <trkpt lat="37.9790575616061687469482421875" lon="-107.73522005416452884674072265625">
        <ele>3460</ele>
        <time>2026-08-15T13:26:32.000Z</time>
        <extensions>
          <ns3:TrackPointExtension>
            <ns3:hr>122</ns3:hr>
            <ns3:cad>47</ns3:cad>
          </ns3:TrackPointExtension>
        </extensions>
      </trkpt>
      <trkpt lat="37.9790671169757843017578125" lon="-107.73522893898189067840576171875">
        <ele>3460.39990234375</ele>
        <time>2026-08-15T13:26:34.000Z</time>
        <extensions>
          <ns3:TrackPointExtension>
            <ns3:hr>124</ns3:hr>
            <ns3:cad>45</ns3:cad>
          </ns3:TrackPointExtension>
        </extensions>
      </trkpt>
      <trkpt lat="37.9790837131440639495849609375" lon="-107.73524142801761627197265625">
        <ele>3460.800048828125</ele>
        <time>2026-08-15T13:26:36.000Z</time>
        <extensions>
          <ns3:TrackPointExtension>
            <ns3:hr>127</ns3:hr>
            <ns3:cad>44</ns3:cad>
          </ns3:TrackPointExtension>
        </extensions>
      </trkpt>
      <trkpt lat="37.97909435816109180450439453125" lon="-107.7352476306259632110595703125">
        <ele>3461</ele>
        <time>2026-08-15T13:26:38.000Z</time>
        <extensions>
          <ns3:TrackPointExtension>
            <ns3:hr>131</ns3:hr>
            <ns3:cad>46</ns3:cad>
          </ns3:TrackPointExtension>
        </extensions>
      </trkpt>
      <trkpt lat="37.97911313362419605255126953125" lon="-107.73525073193013668060302734375">
        <ele>3461.39990234375</ele>
        <time>2026-08-15T13:26:41.000Z</time>
        <extensions>
          <ns3:TrackPointExtension>
            <ns3:hr>134</ns3:hr>
            <ns3:cad>47</ns3:cad>
          </ns3:TrackPointExtension>
        </extensions>
      </trkpt>
      <trkpt lat="37.97911564819514751434326171875" lon="-107.7352506481111049652099609375">
        <ele>3461.60009765625</ele>
        <time>2026-08-15T13:26:42.000Z</time>
        <extensions>
          <ns3:TrackPointExtension>
            <ns3:hr>134</ns3:hr>
            <ns3:cad>47</ns3:cad>
          </ns3:TrackPointExtension>
        </extensions>
      </trkpt>
      <trkpt lat="37.97914464958012104034423828125" lon="-107.73525894619524478912353515625">
        <ele>3462.800048828125</ele>
        <time>2026-08-15T13:26:47.000Z</time>
        <extensions>
          <ns3:TrackPointExtension>
            <ns3:hr>136</ns3:hr>
            <ns3:cad>47</ns3:cad>
          </ns3:TrackPointExtension>
        </extensions>
      </trkpt>
      <trkpt lat="37.979184128344058990478515625" lon="-107.735270597040653228759765625">
        <ele>3463.800048828125</ele>
        <time>2026-08-15T13:26:53.000Z</time>
        <extensions>
          <ns3:TrackPointExtension>
            <ns3:hr>136</ns3:hr>
            <ns3:cad>48</ns3:cad>
          </ns3:TrackPointExtension>
        </extensions>
      </trkpt>
      <trkpt lat="37.97918722964823246002197265625" lon="-107.735271267592906951904296875">
        <ele>3464.199951171875</ele>
        <time>2026-08-15T13:26:54.000Z</time>
        <extensions>
          <ns3:TrackPointExtension>
            <ns3:hr>136</ns3:hr>
            <ns3:cad>48</ns3:cad>
          </ns3:TrackPointExtension>
        </extensions>
      </trkpt>
      <trkpt lat="37.97919653356075286865234375" lon="-107.735279984772205352783203125">
        <ele>3465</ele>
        <time>2026-08-15T13:26:58.000Z</time>
        <extensions>
          <ns3:TrackPointExtension>
            <ns3:hr>136</ns3:hr>
            <ns3:cad>45</ns3:cad>
          </ns3:TrackPointExtension>
        </extensions>
      </trkpt>
      <trkpt lat="37.97920600511133670806884765625" lon="-107.735290043056011199951171875">
        <ele>3465.39990234375</ele>
        <time>2026-08-15T13:27:00.000Z</time>
        <extensions>
          <ns3:TrackPointExtension>
            <ns3:hr>135</ns3:hr>
            <ns3:cad>44</ns3:cad>
          </ns3:TrackPointExtension>
        </extensions>
      </trkpt>
      <trkpt lat="37.9792406223714351654052734375" lon="-107.7353066392242908477783203125">
        <ele>3466.199951171875</ele>
        <time>2026-08-15T13:27:04.000Z</time>
        <extensions>
          <ns3:TrackPointExtension>
            <ns3:hr>135</ns3:hr>
            <ns3:cad>46</ns3:cad>
          </ns3:TrackPointExtension>
        </extensions>
      </trkpt>
      <trkpt lat="37.97925009392201900482177734375" lon="-107.735310830175876617431640625">
        <ele>3466.39990234375</ele>
        <time>2026-08-15T13:27:05.000Z</time>
        <extensions>
          <ns3:TrackPointExtension>
            <ns3:hr>135</ns3:hr>
            <ns3:cad>47</ns3:cad>
          </ns3:TrackPointExtension>
        </extensions>
      </trkpt>
      <trkpt lat="37.979284711182117462158203125" lon="-107.73532801307737827301025390625">
        <ele>3467.199951171875</ele>
        <time>2026-08-15T13:27:09.000Z</time>
        <extensions>
          <ns3:TrackPointExtension>
            <ns3:hr>134</ns3:hr>
            <ns3:cad>47</ns3:cad>
          </ns3:TrackPointExtension>
        </extensions>
      </trkpt>
      <trkpt lat="37.9793056659400463104248046875" lon="-107.7353492192924022674560546875">
        <ele>3467.800048828125</ele>
        <time>2026-08-15T13:27:12.000Z</time>
        <extensions>
          <ns3:TrackPointExtension>
            <ns3:hr>135</ns3:hr>
            <ns3:cad>48</ns3:cad>
          </ns3:TrackPointExtension>
        </extensions>
      </trkpt>
      <trkpt lat="37.9793492518365383148193359375" lon="-107.73540462367236614227294921875">
        <ele>3468.199951171875</ele>
        <time>2026-08-15T13:27:18.000Z</time>
        <extensions>
          <ns3:TrackPointExtension>
            <ns3:hr>136</ns3:hr>
            <ns3:cad>46</ns3:cad>
          </ns3:TrackPointExtension>
        </extensions>
      </trkpt>
      <trkpt lat="37.9793552868068218231201171875" lon="-107.73541049100458621978759765625">
        <ele>3468.39990234375</ele>
        <time>2026-08-15T13:27:19.000Z</time>
        <extensions>
          <ns3:TrackPointExtension>
            <ns3:hr>136</ns3:hr>
            <ns3:cad>49</ns3:cad>
          </ns3:TrackPointExtension>
        </extensions>
      </trkpt>
      <trkpt lat="37.97939660958945751190185546875" lon="-107.735430859029293060302734375">
        <ele>3469</ele>
        <time>2026-08-15T13:27:25.000Z</time>
        <extensions>
          <ns3:TrackPointExtension>
            <ns3:hr>134</ns3:hr>
            <ns3:cad>49</ns3:cad>
          </ns3:TrackPointExtension>
        </extensions>
      </trkpt>
      <trkpt lat="37.97941186465322971343994140625" lon="-107.73544351570308208465576171875">
        <ele>3469.39990234375</ele>
        <time>2026-08-15T13:27:27.000Z</time>
        <extensions>
          <ns3:TrackPointExtension>
            <ns3:hr>133</ns3:hr>
            <ns3:cad>48</ns3:cad>
          </ns3:TrackPointExtension>
        </extensions>
      </trkpt>
      <trkpt lat="37.97943600453436374664306640625" lon="-107.7354491315782070159912109375">
        <ele>3470</ele>
        <time>2026-08-15T13:27:31.000Z</time>
        <extensions>
          <ns3:TrackPointExtension>
            <ns3:hr>132</ns3:hr>
            <ns3:cad>47</ns3:cad>
          </ns3:TrackPointExtension>
        </extensions>
      </trkpt>
      <trkpt lat="37.9794662632048130035400390625" lon="-107.7354531548917293548583984375">
        <ele>3470.60009765625</ele>
        <time>2026-08-15T13:27:35.000Z</time>
        <extensions>
          <ns3:TrackPointExtension>
            <ns3:hr>130</ns3:hr>
            <ns3:cad>0</ns3:cad>
          </ns3:TrackPointExtension>
        </extensions>
      </trkpt>
      <trkpt lat="37.9794900678098201751708984375" lon="-107.7354271709918975830078125">
        <ele>3471.60009765625</ele>
        <time>2026-08-15T13:27:39.000Z</time>
        <extensions>
          <ns3:TrackPointExtension>
            <ns3:hr>129</ns3:hr>
            <ns3:cad>0</ns3:cad>
          </ns3:TrackPointExtension>
        </extensions>
      </trkpt>
      <trkpt lat="37.97949132509529590606689453125" lon="-107.73542189039289951324462890625">
        <ele>3472</ele>
        <time>2026-08-15T13:27:40.000Z</time>
        <extensions>
          <ns3:TrackPointExtension>
            <ns3:hr>129</ns3:hr>
            <ns3:cad>0</ns3:cad>
          </ns3:TrackPointExtension>
        </extensions>
      </trkpt>
      <trkpt lat="37.9794756509363651275634765625" lon="-107.73539037443697452545166015625">
        <ele>3473</ele>
        <time>2026-08-15T13:27:44.000Z</time>
        <extensions>
          <ns3:TrackPointExtension>
            <ns3:hr>128</ns3:hr>
            <ns3:cad>48</ns3:cad>
          </ns3:TrackPointExtension>
        </extensions>
      </trkpt>
      <trkpt lat="37.9794743098318576812744140625" lon="-107.73537478409707546234130859375">
        <ele>3473.39990234375</ele>
        <time>2026-08-15T13:27:46.000Z</time>
        <extensions>
          <ns3:TrackPointExtension>
            <ns3:hr>128</ns3:hr>
            <ns3:cad>50</ns3:cad>
          </ns3:TrackPointExtension>
        </extensions>
      </trkpt>
      <trkpt lat="37.9794706217944622039794921875" lon="-107.7353391610085964202880859375">
        <ele>3473.800048828125</ele>
        <time>2026-08-15T13:27:50.000Z</time>
        <extensions>
          <ns3:TrackPointExtension>
            <ns3:hr>131</ns3:hr>
            <ns3:cad>50</ns3:cad>
          </ns3:TrackPointExtension>
        </extensions>
      </trkpt>
      <trkpt lat="37.97946877777576446533203125" lon="-107.7353217266499996185302734375">
        <ele>3474</ele>
        <time>2026-08-15T13:27:52.000Z</time>
        <extensions>
          <ns3:TrackPointExtension>
            <ns3:hr>132</ns3:hr>
            <ns3:cad>45</ns3:cad>
          </ns3:TrackPointExtension>
        </extensions>
      </trkpt>
      <trkpt lat="37.9794645868241786956787109375" lon="-107.73530672304332256317138671875">
        <ele>3474.39990234375</ele>
        <time>2026-08-15T13:27:54.000Z</time>
        <extensions>
          <ns3:TrackPointExtension>
            <ns3:hr>133</ns3:hr>
            <ns3:cad>46</ns3:cad>
          </ns3:TrackPointExtension>
        </extensions>
      </trkpt>
      <trkpt lat="37.9794562049210071563720703125" lon="-107.7352717705070972442626953125">
        <ele>3475.199951171875</ele>
        <time>2026-08-15T13:27:57.000Z</time>
        <extensions>
          <ns3:TrackPointExtension>
            <ns3:hr>134</ns3:hr>
            <ns3:cad>47</ns3:cad>
          </ns3:TrackPointExtension>
        </extensions>
      </trkpt>
      <trkpt lat="37.97945125959813594818115234375" lon="-107.7352503128349781036376953125">
        <ele>3475.60009765625</ele>
        <time>2026-08-15T13:28:00.000Z</time>
        <extensions>
          <ns3:TrackPointExtension>
            <ns3:hr>132</ns3:hr>
            <ns3:cad>49</ns3:cad>
          </ns3:TrackPointExtension>
        </extensions>
      </trkpt>
      <trkpt lat="37.97943382523953914642333984375" lon="-107.73519909940659999847412109375">
        <ele>3476.199951171875</ele>
        <time>2026-08-15T13:28:05.000Z</time>
        <extensions>
          <ns3:TrackPointExtension>
            <ns3:hr>130</ns3:hr>
            <ns3:cad>47</ns3:cad>
          </ns3:TrackPointExtension>
        </extensions>
      </trkpt>
      <trkpt lat="37.97942049801349639892578125" lon="-107.73517898283898830413818359375">
        <ele>3476.60009765625</ele>
        <time>2026-08-15T13:28:07.000Z</time>
        <extensions>
          <ns3:TrackPointExtension>
            <ns3:hr>130</ns3:hr>
            <ns3:cad>47</ns3:cad>
          </ns3:TrackPointExtension>
        </extensions>
      </trkpt>
      <trkpt lat="37.9794092662632465362548828125" lon="-107.73512332700192928314208984375">
        <ele>3477</ele>
        <time>2026-08-15T13:28:12.000Z</time>
        <extensions>
          <ns3:TrackPointExtension>
            <ns3:hr>131</ns3:hr>
            <ns3:cad>0</ns3:cad>
          </ns3:TrackPointExtension>
        </extensions>
      </trkpt>
      <trkpt lat="37.97940800897777080535888671875" lon="-107.73509801365435123443603515625">
        <ele>3477.60009765625</ele>
        <time>2026-08-15T13:28:15.000Z</time>
        <extensions>
          <ns3:TrackPointExtension>
            <ns3:hr>132</ns3:hr>
            <ns3:cad>0</ns3:cad>
          </ns3:TrackPointExtension>
        </extensions>
      </trkpt>
      <trkpt lat="37.9794069193303585052490234375" lon="-107.73508024401962757110595703125">
        <ele>3478.60009765625</ele>
        <time>2026-08-15T13:28:18.000Z</time>
        <extensions>
          <ns3:TrackPointExtension>
            <ns3:hr>133</ns3:hr>
            <ns3:cad>0</ns3:cad>
          </ns3:TrackPointExtension>
        </extensions>
      </trkpt>
      <trkpt lat="37.97940851189196109771728515625" lon="-107.73507303558290004730224609375">
        <ele>3478.60009765625</ele>
        <time>2026-08-15T13:28:19.000Z</time>
        <extensions>
          <ns3:TrackPointExtension>
            <ns3:hr>133</ns3:hr>
            <ns3:cad>0</ns3:cad>
          </ns3:TrackPointExtension>
        </extensions>
      </trkpt>
      <trkpt lat="37.97940867953002452850341796875" lon="-107.7350478060543537139892578125">
        <ele>3479.39990234375</ele>
        <time>2026-08-15T13:28:25.000Z</time>
        <extensions>
          <ns3:TrackPointExtension>
            <ns3:hr>135</ns3:hr>
            <ns3:cad>0</ns3:cad>
          </ns3:TrackPointExtension>
        </extensions>
      </trkpt>
      <trkpt lat="37.97940733842551708221435546875" lon="-107.7350407652556896209716796875">
        <ele>3479.800048828125</ele>
        <time>2026-08-15T13:28:27.000Z</time>
        <extensions>
          <ns3:TrackPointExtension>
            <ns3:hr>134</ns3:hr>
            <ns3:cad>0</ns3:cad>
          </ns3:TrackPointExtension>
        </extensions>
      </trkpt>
      <trkpt lat="37.9794077575206756591796875" lon="-107.73503397591412067413330078125">
        <ele>3480.39990234375</ele>
        <time>2026-08-15T13:28:29.000Z</time>
        <extensions>
          <ns3:TrackPointExtension>
            <ns3:hr>137</ns3:hr>
            <ns3:cad>0</ns3:cad>
          </ns3:TrackPointExtension>
        </extensions>
      </trkpt>
      <trkpt lat="37.979409433901309967041015625" lon="-107.735026180744171142578125">
        <ele>3480.800048828125</ele>
        <time>2026-08-15T13:28:32.000Z</time>
        <extensions>
          <ns3:TrackPointExtension>
            <ns3:hr>138</ns3:hr>
            <ns3:cad>0</ns3:cad>
          </ns3:TrackPointExtension>
        </extensions>
      </trkpt>
      <trkpt lat="37.979409433901309967041015625" lon="-107.735026180744171142578125">
        <ele>3480.800048828125</ele>
        <time>2026-08-15T13:28:33.000Z</time>
        <extensions>
          <ns3:TrackPointExtension>
            <ns3:hr>138</ns3:hr>
            <ns3:cad>0</ns3:cad>
          </ns3:TrackPointExtension>
        </extensions>
      </trkpt>
      <trkpt lat="37.979409433901309967041015625" lon="-107.735026180744171142578125">
        <ele>3481</ele>
        <time>2026-08-15T13:28:39.000Z</time>
        <extensions>
          <ns3:TrackPointExtension>
            <ns3:hr>136</ns3:hr>
            <ns3:cad>0</ns3:cad>
          </ns3:TrackPointExtension>
        </extensions>
      </trkpt>
      <trkpt lat="37.979409433901309967041015625" lon="-107.735026180744171142578125">
        <ele>3481</ele>
        <time>2026-08-15T13:28:41.000Z</time>
        <extensions>
          <ns3:TrackPointExtension>
            <ns3:hr>133</ns3:hr>
            <ns3:cad>0</ns3:cad>
          </ns3:TrackPointExtension>
        </extensions>
      </trkpt>
      <trkpt lat="37.9794079251587390899658203125" lon="-107.7350136078894138336181640625">
        <ele>3481</ele>
        <time>2026-08-15T13:28:42.000Z</time>
        <extensions>
          <ns3:TrackPointExtension>
            <ns3:hr>130</ns3:hr>
            <ns3:cad>0</ns3:cad>
          </ns3:TrackPointExtension>
        </extensions>
      </trkpt>
      <trkpt lat="37.9794077575206756591796875" lon="-107.73500380106270313262939453125">
        <ele>3481.199951171875</ele>
        <time>2026-08-15T13:28:43.000Z</time>
        <extensions>
          <ns3:TrackPointExtension>
            <ns3:hr>127</ns3:hr>
            <ns3:cad>0</ns3:cad>
          </ns3:TrackPointExtension>
        </extensions>
      </trkpt>
      <trkpt lat="37.97940901480615139007568359375" lon="-107.7349700219929218292236328125">
        <ele>3482</ele>
        <time>2026-08-15T13:28:46.000Z</time>
        <extensions>
          <ns3:TrackPointExtension>
            <ns3:hr>126</ns3:hr>
            <ns3:cad>0</ns3:cad>
          </ns3:TrackPointExtension>
        </extensions>
      </trkpt>
      <trkpt lat="37.979406751692295074462890625" lon="-107.7349579520523548126220703125">
        <ele>3482.199951171875</ele>
        <time>2026-08-15T13:28:47.000Z</time>
        <extensions>
          <ns3:TrackPointExtension>
            <ns3:hr>125</ns3:hr>
            <ns3:cad>0</ns3:cad>
          </ns3:TrackPointExtension>
        </extensions>
      </trkpt>
      <trkpt lat="37.97939501702785491943359375" lon="-107.73491025902330875396728515625">
        <ele>3483</ele>
        <time>2026-08-15T13:28:51.000Z</time>
        <extensions>
          <ns3:TrackPointExtension>
            <ns3:hr>124</ns3:hr>
            <ns3:cad>47</ns3:cad>
          </ns3:TrackPointExtension>
        </extensions>
      </trkpt>
      <trkpt lat="37.97939308919012546539306640625" lon="-107.7348875440657138824462890625">
        <ele>3483.39990234375</ele>
        <time>2026-08-15T13:28:53.000Z</time>
        <extensions>
          <ns3:TrackPointExtension>
            <ns3:hr>123</ns3:hr>
            <ns3:cad>47</ns3:cad>
          </ns3:TrackPointExtension>
        </extensions>
      </trkpt>
      <trkpt lat="37.979386635124683380126953125" lon="-107.734856195747852325439453125">
        <ele>3484.199951171875</ele>
        <time>2026-08-15T13:28:56.000Z</time>
        <extensions>
          <ns3:TrackPointExtension>
            <ns3:hr>123</ns3:hr>
            <ns3:cad>50</ns3:cad>
          </ns3:TrackPointExtension>
        </extensions>
      </trkpt>
      <trkpt lat="37.97938889823853969573974609375" lon="-107.734821327030658721923828125">
        <ele>3485</ele>
        <time>2026-08-15T13:29:00.000Z</time>
        <extensions>
          <ns3:TrackPointExtension>
            <ns3:hr>123</ns3:hr>
            <ns3:cad>49</ns3:cad>
          </ns3:TrackPointExtension>
        </extensions>
      </trkpt>
      <trkpt lat="37.97939342446625232696533203125" lon="-107.7348017133772373199462890625">
        <ele>3485.39990234375</ele>
        <time>2026-08-15T13:29:02.000Z</time>
        <extensions>
          <ns3:TrackPointExtension>
            <ns3:hr>123</ns3:hr>
            <ns3:cad>49</ns3:cad>
          </ns3:TrackPointExtension>
        </extensions>
      </trkpt>
      <trkpt lat="37.97940365038812160491943359375" lon="-107.7347742207348346710205078125">
        <ele>3485.60009765625</ele>
        <time>2026-08-15T13:29:06.000Z</time>
        <extensions>
          <ns3:TrackPointExtension>
            <ns3:hr>122</ns3:hr>
            <ns3:cad>0</ns3:cad>
          </ns3:TrackPointExtension>
        </extensions>
      </trkpt>
      <trkpt lat="37.979405410587787628173828125" lon="-107.73476860485970973968505859375">
        <ele>3485.39990234375</ele>
        <time>2026-08-15T13:29:12.000Z</time>
        <extensions>
          <ns3:TrackPointExtension>
            <ns3:hr>120</ns3:hr>
            <ns3:cad>0</ns3:cad>
          </ns3:TrackPointExtension>
        </extensions>
      </trkpt>
      <trkpt lat="37.979405410587787628173828125" lon="-107.73476860485970973968505859375">
        <ele>3485.39990234375</ele>
        <time>2026-08-15T13:29:16.000Z</time>
        <extensions>
          <ns3:TrackPointExtension>
            <ns3:hr>120</ns3:hr>
            <ns3:cad>0</ns3:cad>
          </ns3:TrackPointExtension>
        </extensions>
      </trkpt>
      <trkpt lat="37.979405410587787628173828125" lon="-107.73476860485970973968505859375">
        <ele>3485</ele>
        <time>2026-08-15T13:29:22.000Z</time>
        <extensions>
          <ns3:TrackPointExtension>
            <ns3:hr>119</ns3:hr>
            <ns3:cad>0</ns3:cad>
          </ns3:TrackPointExtension>
        </extensions>
      </trkpt>
      <trkpt lat="37.979402728378772735595703125" lon="-107.73477195762097835540771484375">
        <ele>3485.199951171875</ele>
        <time>2026-08-15T13:29:25.000Z</time>
        <extensions>
          <ns3:TrackPointExtension>
            <ns3:hr>119</ns3:hr>
            <ns3:cad>0</ns3:cad>
          </ns3:TrackPointExtension>
        </extensions>
      </trkpt>
      <trkpt lat="37.9794189892709255218505859375" lon="-107.73478587158024311065673828125">
        <ele>3485.800048828125</ele>
        <time>2026-08-15T13:29:31.000Z</time>
        <extensions>
          <ns3:TrackPointExtension>
            <ns3:hr>118</ns3:hr>
            <ns3:cad>0</ns3:cad>
          </ns3:TrackPointExtension>
        </extensions>
      </trkpt>
      <trkpt lat="37.9794189892709255218505859375" lon="-107.73478587158024311065673828125">
        <ele>3485.800048828125</ele>
        <time>2026-08-15T13:29:33.000Z</time>
        <extensions>
          <ns3:TrackPointExtension>
            <ns3:hr>118</ns3:hr>
            <ns3:cad>0</ns3:cad>
          </ns3:TrackPointExtension>
        </extensions>
      </trkpt>
      <trkpt lat="37.97943449579179286956787109375" lon="-107.73479643277823925018310546875">
        <ele>3485.800048828125</ele>
        <time>2026-08-15T13:29:39.000Z</time>
        <extensions>
          <ns3:TrackPointExtension>
            <ns3:hr>119</ns3:hr>
            <ns3:cad>0</ns3:cad>
          </ns3:TrackPointExtension>
        </extensions>
      </trkpt>
      <trkpt lat="37.97944723628461360931396484375" lon="-107.7347976900637149810791015625">
        <ele>3486.39990234375</ele>
        <time>2026-08-15T13:29:41.000Z</time>
        <extensions>
          <ns3:TrackPointExtension>
            <ns3:hr>120</ns3:hr>
            <ns3:cad>0</ns3:cad>
          </ns3:TrackPointExtension>
        </extensions>
      </trkpt>
      <trkpt lat="37.979482524096965789794921875" lon="-107.73480615578591823577880859375">
        <ele>3487</ele>
        <time>2026-08-15T13:29:47.000Z</time>
        <extensions>
          <ns3:TrackPointExtension>
            <ns3:hr>120</ns3:hr>
            <ns3:cad>46</ns3:cad>
          </ns3:TrackPointExtension>
        </extensions>
      </trkpt>
      <trkpt lat="37.97949132509529590606689453125" lon="-107.73481051437556743621826171875">
        <ele>3487.39990234375</ele>
        <time>2026-08-15T13:29:49.000Z</time>
        <extensions>
          <ns3:TrackPointExtension>
            <ns3:hr>120</ns3:hr>
            <ns3:cad>46</ns3:cad>
          </ns3:TrackPointExtension>
        </extensions>
      </trkpt>
      <trkpt lat="37.9795252718031406402587890625" lon="-107.7348161302506923675537109375">
        <ele>3488.60009765625</ele>
        <time>2026-08-15T13:29:55.000Z</time>
        <extensions>
          <ns3:TrackPointExtension>
            <ns3:hr>120</ns3:hr>
            <ns3:cad>47</ns3:cad>
          </ns3:TrackPointExtension>
        </extensions>
      </trkpt>
      <trkpt lat="37.9795296303927898406982421875" lon="-107.734822668135166168212890625">
        <ele>3489</ele>
        <time>2026-08-15T13:29:56.000Z</time>
        <extensions>
          <ns3:TrackPointExtension>
            <ns3:hr>120</ns3:hr>
            <ns3:cad>48</ns3:cad>
          </ns3:TrackPointExtension>
        </extensions>
      </trkpt>
      <trkpt lat="37.97954362817108631134033203125" lon="-107.73483700118958950042724609375">
        <ele>3489.800048828125</ele>
        <time>2026-08-15T13:30:00.000Z</time>
        <extensions>
          <ns3:TrackPointExtension>
            <ns3:hr>120</ns3:hr>
            <ns3:cad>48</ns3:cad>
          </ns3:TrackPointExtension>
        </extensions>
      </trkpt>
      <trkpt lat="37.97955050133168697357177734375" lon="-107.73484806530177593231201171875">
        <ele>3490.199951171875</ele>
        <time>2026-08-15T13:30:02.000Z</time>
        <extensions>
          <ns3:TrackPointExtension>
            <ns3:hr>123</ns3:hr>
            <ns3:cad>48</ns3:cad>
          </ns3:TrackPointExtension>
        </extensions>
      </trkpt>
      <trkpt lat="37.97956533730030059814453125" lon="-107.73486281745135784149169921875">
        <ele>3490.39990234375</ele>
        <time>2026-08-15T13:30:05.000Z</time>
        <extensions>
          <ns3:TrackPointExtension>
            <ns3:hr>123</ns3:hr>
            <ns3:cad>48</ns3:cad>
          </ns3:TrackPointExtension>
        </extensions>
      </trkpt>
      <trkpt lat="37.979573719203472137451171875" lon="-107.734876982867717742919921875">
        <ele>3490.800048828125</ele>
        <time>2026-08-15T13:30:08.000Z</time>
        <extensions>
          <ns3:TrackPointExtension>
            <ns3:hr>124</ns3:hr>
            <ns3:cad>48</ns3:cad>
          </ns3:TrackPointExtension>
        </extensions>
      </trkpt>
      <trkpt lat="37.979593165218830108642578125" lon="-107.73489701561629772186279296875">
        <ele>3491.39990234375</ele>
        <time>2026-08-15T13:30:11.000Z</time>
        <extensions>
          <ns3:TrackPointExtension>
            <ns3:hr>125</ns3:hr>
            <ns3:cad>48</ns3:cad>
          </ns3:TrackPointExtension>
        </extensions>
      </trkpt>
      <trkpt lat="37.97961001284420490264892578125" lon="-107.73490824736654758453369140625">
        <ele>3492</ele>
        <time>2026-08-15T13:30:14.000Z</time>
        <extensions>
          <ns3:TrackPointExtension>
            <ns3:hr>124</ns3:hr>
            <ns3:cad>47</ns3:cad>
          </ns3:TrackPointExtension>
        </extensions>
      </trkpt>
      <trkpt lat="37.9796357452869415283203125" lon="-107.7349214069545269012451171875">
        <ele>3492.199951171875</ele>
        <time>2026-08-15T13:30:17.000Z</time>
        <extensions>
          <ns3:TrackPointExtension>
            <ns3:hr>126</ns3:hr>
            <ns3:cad>0</ns3:cad>
          </ns3:TrackPointExtension>
        </extensions>
      </trkpt>
      <trkpt lat="37.97968201339244842529296875" lon="-107.7349421940743923187255859375">
        <ele>3493</ele>
        <time>2026-08-15T13:30:21.000Z</time>
        <extensions>
          <ns3:TrackPointExtension>
            <ns3:hr>128</ns3:hr>
            <ns3:cad>47</ns3:cad>
          </ns3:TrackPointExtension>
        </extensions>
      </trkpt>
      <trkpt lat="37.97968913801014423370361328125" lon="-107.734951414167881011962890625">
        <ele>3493.199951171875</ele>
        <time>2026-08-15T13:30:23.000Z</time>
        <extensions>
          <ns3:TrackPointExtension>
            <ns3:hr>129</ns3:hr>
            <ns3:cad>47</ns3:cad>
          </ns3:TrackPointExtension>
        </extensions>
      </trkpt>
      <trkpt lat="37.97971419990062713623046875" lon="-107.7349765598773956298828125">
        <ele>3494.199951171875</ele>
        <time>2026-08-15T13:30:27.000Z</time>
        <extensions>
          <ns3:TrackPointExtension>
            <ns3:hr>130</ns3:hr>
            <ns3:cad>0</ns3:cad>
          </ns3:TrackPointExtension>
        </extensions>
      </trkpt>
      <trkpt lat="37.97972501255571842193603515625" lon="-107.73498619906604290008544921875">
        <ele>3494.60009765625</ele>
        <time>2026-08-15T13:30:29.000Z</time>
        <extensions>
          <ns3:TrackPointExtension>
            <ns3:hr>130</ns3:hr>
            <ns3:cad>0</ns3:cad>
          </ns3:TrackPointExtension>
        </extensions>
      </trkpt>
      <trkpt lat="37.97975284047424793243408203125" lon="-107.73501452989876270294189453125">
        <ele>3495.199951171875</ele>
        <time>2026-08-15T13:30:34.000Z</time>
        <extensions>
          <ns3:TrackPointExtension>
            <ns3:hr>130</ns3:hr>
            <ns3:cad>0</ns3:cad>
          </ns3:TrackPointExtension>
        </extensions>
      </trkpt>
      <trkpt lat="37.97976256348192691802978515625" lon="-107.73502282798290252685546875">
        <ele>3495.39990234375</ele>
        <time>2026-08-15T13:30:35.000Z</time>
        <extensions>
          <ns3:TrackPointExtension>
            <ns3:hr>129</ns3:hr>
            <ns3:cad>48</ns3:cad>
          </ns3:TrackPointExtension>
        </extensions>
      </trkpt>
      <trkpt lat="37.9797753877937793731689453125" lon="-107.73503330536186695098876953125">
        <ele>3496.39990234375</ele>
        <time>2026-08-15T13:30:38.000Z</time>
        <extensions>
          <ns3:TrackPointExtension>
            <ns3:hr>127</ns3:hr>
            <ns3:cad>48</ns3:cad>
          </ns3:TrackPointExtension>
        </extensions>
      </trkpt>
      <trkpt lat="37.9797904752194881439208984375" lon="-107.73505778051912784576416015625">
        <ele>3497</ele>
        <time>2026-08-15T13:30:42.000Z</time>
        <extensions>
          <ns3:TrackPointExtension>
            <ns3:hr>129</ns3:hr>
            <ns3:cad>46</ns3:cad>
          </ns3:TrackPointExtension>
        </extensions>
      </trkpt>
      <trkpt lat="37.97981654293835163116455078125" lon="-107.73510287515819072723388671875">
        <ele>3497.39990234375</ele>
        <time>2026-08-15T13:30:47.000Z</time>
        <extensions>
          <ns3:TrackPointExtension>
            <ns3:hr>130</ns3:hr>
            <ns3:cad>0</ns3:cad>
          </ns3:TrackPointExtension>
        </extensions>
      </trkpt>
      <trkpt lat="37.9798216558992862701416015625" lon="-107.73510924540460109710693359375">
        <ele>3497.60009765625</ele>
        <time>2026-08-15T13:30:48.000Z</time>
        <extensions>
          <ns3:TrackPointExtension>
            <ns3:hr>130</ns3:hr>
            <ns3:cad>0</ns3:cad>
          </ns3:TrackPointExtension>
        </extensions>
      </trkpt>
      <trkpt lat="37.9798421077430248260498046875" lon="-107.73514084517955780029296875">
        <ele>3498.39990234375</ele>
        <time>2026-08-15T13:30:52.000Z</time>
        <extensions>
          <ns3:TrackPointExtension>
            <ns3:hr>133</ns3:hr>
            <ns3:cad>42</ns3:cad>
          </ns3:TrackPointExtension>
        </extensions>
      </trkpt>
      <trkpt lat="37.97984571196138858795166015625" lon="-107.73514444939792156219482421875">
        <ele>3498.60009765625</ele>
        <time>2026-08-15T13:30:53.000Z</time>
        <extensions>
          <ns3:TrackPointExtension>
            <ns3:hr>134</ns3:hr>
            <ns3:cad>42</ns3:cad>
          </ns3:TrackPointExtension>
        </extensions>
      </trkpt>
      <trkpt lat="37.9798568598926067352294921875" lon="-107.735154591500759124755859375">
        <ele>3498.800048828125</ele>
        <time>2026-08-15T13:30:55.000Z</time>
        <extensions>
          <ns3:TrackPointExtension>
            <ns3:hr>135</ns3:hr>
            <ns3:cad>42</ns3:cad>
          </ns3:TrackPointExtension>
        </extensions>
      </trkpt>
      <trkpt lat="37.9798823408782482147216796875" lon="-107.73516758345067501068115234375">
        <ele>3499.60009765625</ele>
        <time>2026-08-15T13:30:59.000Z</time>
        <extensions>
          <ns3:TrackPointExtension>
            <ns3:hr>134</ns3:hr>
            <ns3:cad>0</ns3:cad>
          </ns3:TrackPointExtension>
        </extensions>
      </trkpt>
      <trkpt lat="37.97988980077207088470458984375" lon="-107.735173366963863372802734375">
        <ele>3499.800048828125</ele>
        <time>2026-08-15T13:31:00.000Z</time>
        <extensions>
          <ns3:TrackPointExtension>
            <ns3:hr>134</ns3:hr>
            <ns3:cad>0</ns3:cad>
          </ns3:TrackPointExtension>
        </extensions>
      </trkpt>
      <trkpt lat="37.97990622930228710174560546875" lon="-107.7352013625204563140869140625">
        <ele>3500.800048828125</ele>
        <time>2026-08-15T13:31:04.000Z</time>
        <extensions>
          <ns3:TrackPointExtension>
            <ns3:hr>133</ns3:hr>
            <ns3:cad>47</ns3:cad>
          </ns3:TrackPointExtension>
        </extensions>
      </trkpt>
      <trkpt lat="37.9799172095954418182373046875" lon="-107.735214941203594207763671875">
        <ele>3501.199951171875</ele>
        <time>2026-08-15T13:31:06.000Z</time>
        <extensions>
          <ns3:TrackPointExtension>
            <ns3:hr>133</ns3:hr>
            <ns3:cad>47</ns3:cad>
          </ns3:TrackPointExtension>
        </extensions>
      </trkpt>
      <trkpt lat="37.979934476315975189208984375" lon="-107.7352486364543437957763671875">
        <ele>3501.60009765625</ele>
        <time>2026-08-15T13:31:10.000Z</time>
        <extensions>
          <ns3:TrackPointExtension>
            <ns3:hr>136</ns3:hr>
            <ns3:cad>47</ns3:cad>
          </ns3:TrackPointExtension>
        </extensions>
      </trkpt>
      <trkpt lat="37.97993673942983150482177734375" lon="-107.7352523244917392730712890625">
        <ele>3501.800048828125</ele>
        <time>2026-08-15T13:31:11.000Z</time>
        <extensions>
          <ns3:TrackPointExtension>
            <ns3:hr>137</ns3:hr>
            <ns3:cad>47</ns3:cad>
          </ns3:TrackPointExtension>
        </extensions>
      </trkpt>
      <trkpt lat="37.97994076274335384368896484375" lon="-107.73525483906269073486328125">
        <ele>3502</ele>
        <time>2026-08-15T13:31:12.000Z</time>
        <extensions>
          <ns3:TrackPointExtension>
            <ns3:hr>138</ns3:hr>
            <ns3:cad>47</ns3:cad>
          </ns3:TrackPointExtension>
        </extensions>
      </trkpt>
      <trkpt lat="37.9799581132829189300537109375" lon="-107.73527353070676326751708984375">
        <ele>3502.60009765625</ele>
        <time>2026-08-15T13:31:17.000Z</time>
        <extensions>
          <ns3:TrackPointExtension>
            <ns3:hr>140</ns3:hr>
            <ns3:cad>48</ns3:cad>
          </ns3:TrackPointExtension>
        </extensions>
      </trkpt>
      <trkpt lat="37.9799708537757396697998046875" lon="-107.735281325876712799072265625">
        <ele>3503.199951171875</ele>
        <time>2026-08-15T13:31:19.000Z</time>
        <extensions>
          <ns3:TrackPointExtension>
            <ns3:hr>140</ns3:hr>
            <ns3:cad>0</ns3:cad>
          </ns3:TrackPointExtension>
        </extensions>
      </trkpt>
      <trkpt lat="37.97998510301113128662109375" lon="-107.735291384160518646240234375">
        <ele>3503.800048828125</ele>
        <time>2026-08-15T13:31:22.000Z</time>
        <extensions>
          <ns3:TrackPointExtension>
            <ns3:hr>139</ns3:hr>
            <ns3:cad>0</ns3:cad>
          </ns3:TrackPointExtension>
        </extensions>
      </trkpt>
      <trkpt lat="37.9800023697316646575927734375" lon="-107.73528635501861572265625">
        <ele>3504.199951171875</ele>
        <time>2026-08-15T13:31:24.000Z</time>
        <extensions>
          <ns3:TrackPointExtension>
            <ns3:hr>139</ns3:hr>
            <ns3:cad>0</ns3:cad>
          </ns3:TrackPointExtension>
        </extensions>
      </trkpt>
      <trkpt lat="37.98000731505453586578369140625" lon="-107.73526263423264026641845703125">
        <ele>3504.60009765625</ele>
        <time>2026-08-15T13:31:27.000Z</time>
        <extensions>
          <ns3:TrackPointExtension>
            <ns3:hr>138</ns3:hr>
            <ns3:cad>0</ns3:cad>
          </ns3:TrackPointExtension>
        </extensions>
      </trkpt>
      <trkpt lat="37.98001167364418506622314453125" lon="-107.73523011244833469390869140625">
        <ele>3505.199951171875</ele>
        <time>2026-08-15T13:31:30.000Z</time>
        <extensions>
          <ns3:TrackPointExtension>
            <ns3:hr>138</ns3:hr>
            <ns3:cad>0</ns3:cad>
          </ns3:TrackPointExtension>
        </extensions>
      </trkpt>
      <trkpt lat="37.9800194688141345977783203125" lon="-107.73519474081695079803466796875">
        <ele>3506</ele>
        <time>2026-08-15T13:31:33.000Z</time>
        <extensions>
          <ns3:TrackPointExtension>
            <ns3:hr>137</ns3:hr>
            <ns3:cad>0</ns3:cad>
          </ns3:TrackPointExtension>
        </extensions>
      </trkpt>
      <trkpt lat="37.980021648108959197998046875" lon="-107.73517143912613391876220703125">
        <ele>3506.199951171875</ele>
        <time>2026-08-15T13:31:35.000Z</time>
        <extensions>
          <ns3:TrackPointExtension>
            <ns3:hr>136</ns3:hr>
            <ns3:cad>0</ns3:cad>
          </ns3:TrackPointExtension>
        </extensions>
      </trkpt>
      <trkpt lat="37.98002709634602069854736328125" lon="-107.735120393335819244384765625">
        <ele>3506.60009765625</ele>
        <time>2026-08-15T13:31:39.000Z</time>
        <extensions>
          <ns3:TrackPointExtension>
            <ns3:hr>136</ns3:hr>
            <ns3:cad>45</ns3:cad>
          </ns3:TrackPointExtension>
        </extensions>
      </trkpt>
      <trkpt lat="37.98002541996538639068603515625" lon="-107.73506649769842624664306640625">
        <ele>3507.199951171875</ele>
        <time>2026-08-15T13:31:44.000Z</time>
        <extensions>
          <ns3:TrackPointExtension>
            <ns3:hr>137</ns3:hr>
            <ns3:cad>47</ns3:cad>
          </ns3:TrackPointExtension>
        </extensions>
      </trkpt>
      <trkpt lat="37.98002801835536956787109375" lon="-107.73504889570176601409912109375">
        <ele>3507.60009765625</ele>
        <time>2026-08-15T13:31:46.000Z</time>
        <extensions>
          <ns3:TrackPointExtension>
            <ns3:hr>137</ns3:hr>
            <ns3:cad>45</ns3:cad>
          </ns3:TrackPointExtension>
        </extensions>
      </trkpt>
      <trkpt lat="37.9800446145236492156982421875" lon="-107.7350199781358242034912109375">
        <ele>3508.39990234375</ele>
        <time>2026-08-15T13:31:50.000Z</time>
        <extensions>
          <ns3:TrackPointExtension>
            <ns3:hr>137</ns3:hr>
            <ns3:cad>0</ns3:cad>
          </ns3:TrackPointExtension>
        </extensions>
      </trkpt>
      <trkpt lat="37.9800526611506938934326171875" lon="-107.734999693930149078369140625">
        <ele>3509</ele>
        <time>2026-08-15T13:31:53.000Z</time>
        <extensions>
          <ns3:TrackPointExtension>
            <ns3:hr>136</ns3:hr>
            <ns3:cad>51</ns3:cad>
          </ns3:TrackPointExtension>
        </extensions>
      </trkpt>
      <trkpt lat="37.98005676828324794769287109375" lon="-107.7349924854934215545654296875">
        <ele>3509.60009765625</ele>
        <time>2026-08-15T13:31:56.000Z</time>
        <extensions>
          <ns3:TrackPointExtension>
            <ns3:hr>136</ns3:hr>
            <ns3:cad>68</ns3:cad>
          </ns3:TrackPointExtension>
        </extensions>
      </trkpt>
      <trkpt lat="37.98006297089159488677978515625" lon="-107.7349988557398319244384765625">
        <ele>3510.199951171875</ele>
        <time>2026-08-15T13:31:59.000Z</time>
        <extensions>
          <ns3:TrackPointExtension>
            <ns3:hr>135</ns3:hr>
            <ns3:cad>45</ns3:cad>
          </ns3:TrackPointExtension>
        </extensions>
      </trkpt>
      <trkpt lat="37.9800667427480220794677734375" lon="-107.7350159548223018646240234375">
        <ele>3510.60009765625</ele>
        <time>2026-08-15T13:32:01.000Z</time>
        <extensions>
          <ns3:TrackPointExtension>
            <ns3:hr>136</ns3:hr>
            <ns3:cad>45</ns3:cad>
          </ns3:TrackPointExtension>
        </extensions>
      </trkpt>
      <trkpt lat="37.9800741188228130340576171875" lon="-107.73504286073148250579833984375">
        <ele>3511.199951171875</ele>
        <time>2026-08-15T13:32:04.000Z</time>
        <extensions>
          <ns3:TrackPointExtension>
            <ns3:hr>138</ns3:hr>
            <ns3:cad>43</ns3:cad>
          </ns3:TrackPointExtension>
        </extensions>
      </trkpt>
      <trkpt lat="37.98008359037339687347412109375" lon="-107.73507177829742431640625">
        <ele>3511.60009765625</ele>
        <time>2026-08-15T13:32:07.000Z</time>
        <extensions>
          <ns3:TrackPointExtension>
            <ns3:hr>141</ns3:hr>
            <ns3:cad>47</ns3:cad>
          </ns3:TrackPointExtension>
        </extensions>
      </trkpt>
      <trkpt lat="37.980097420513629913330078125" lon="-107.73511159233748912811279296875">
        <ele>3512.39990234375</ele>
        <time>2026-08-15T13:32:12.000Z</time>
        <extensions>
          <ns3:TrackPointExtension>
            <ns3:hr>140</ns3:hr>
            <ns3:cad>45</ns3:cad>
          </ns3:TrackPointExtension>
        </extensions>
      </trkpt>
      <trkpt lat="37.9801220633089542388916015625" lon="-107.735196165740489959716796875">
        <ele>3512.800048828125</ele>
        <time>2026-08-15T13:32:18.000Z</time>
        <extensions>
          <ns3:TrackPointExtension>
            <ns3:hr>142</ns3:hr>
            <ns3:cad>47</ns3:cad>
          </ns3:TrackPointExtension>
        </extensions>
      </trkpt>
      <trkpt lat="37.98012332059442996978759765625" lon="-107.735204882919788360595703125">
        <ele>3512.800048828125</ele>
        <time>2026-08-15T13:32:19.000Z</time>
        <extensions>
          <ns3:TrackPointExtension>
            <ns3:hr>142</ns3:hr>
            <ns3:cad>49</ns3:cad>
          </ns3:TrackPointExtension>
        </extensions>
      </trkpt>
      <trkpt lat="37.98013572581112384796142578125" lon="-107.73524469695985317230224609375">
        <ele>3513.199951171875</ele>
        <time>2026-08-15T13:32:25.000Z</time>
        <extensions>
          <ns3:TrackPointExtension>
            <ns3:hr>144</ns3:hr>
            <ns3:cad>0</ns3:cad>
          </ns3:TrackPointExtension>
        </extensions>
      </trkpt>
      <trkpt lat="37.98014209605753421783447265625" lon="-107.7352861873805522918701171875">
        <ele>3513.800048828125</ele>
        <time>2026-08-15T13:32:29.000Z</time>
        <extensions>
          <ns3:TrackPointExtension>
            <ns3:hr>144</ns3:hr>
            <ns3:cad>0</ns3:cad>
          </ns3:TrackPointExtension>
        </extensions>
      </trkpt>
      <trkpt lat="37.9801482148468494415283203125" lon="-107.73530923761427402496337890625">
        <ele>3513.800048828125</ele>
        <time>2026-08-15T13:32:31.000Z</time>
        <extensions>
          <ns3:TrackPointExtension>
            <ns3:hr>143</ns3:hr>
            <ns3:cad>44</ns3:cad>
          </ns3:TrackPointExtension>
        </extensions>
      </trkpt>
      <trkpt lat="37.98016891814768314361572265625" lon="-107.7353492192924022674560546875">
        <ele>3514.39990234375</ele>
        <time>2026-08-15T13:32:37.000Z</time>
        <extensions>
          <ns3:TrackPointExtension>
            <ns3:hr>141</ns3:hr>
            <ns3:cad>0</ns3:cad>
          </ns3:TrackPointExtension>
        </extensions>
      </trkpt>
      <trkpt lat="37.98019230365753173828125" lon="-107.73541308939456939697265625">
        <ele>3514.800048828125</ele>
        <time>2026-08-15T13:32:43.000Z</time>
        <extensions>
          <ns3:TrackPointExtension>
            <ns3:hr>140</ns3:hr>
            <ns3:cad>0</ns3:cad>
          </ns3:TrackPointExtension>
        </extensions>
      </trkpt>
      <trkpt lat="37.98019607551395893096923828125" lon="-107.73542306385934352874755859375">
        <ele>3514.800048828125</ele>
        <time>2026-08-15T13:32:44.000Z</time>
        <extensions>
          <ns3:TrackPointExtension>
            <ns3:hr>140</ns3:hr>
            <ns3:cad>47</ns3:cad>
          </ns3:TrackPointExtension>
        </extensions>
      </trkpt>
      <trkpt lat="37.9802070558071136474609375" lon="-107.73546497337520122528076171875">
        <ele>3515.39990234375</ele>
        <time>2026-08-15T13:32:47.000Z</time>
        <extensions>
          <ns3:TrackPointExtension>
            <ns3:hr>137</ns3:hr>
            <ns3:cad>49</ns3:cad>
          </ns3:TrackPointExtension>
        </extensions>
      </trkpt>
      <trkpt lat="37.98022373579442501068115234375" lon="-107.735521383583545684814453125">
        <ele>3515.39990234375</ele>
        <time>2026-08-15T13:32:51.000Z</time>
        <extensions>
          <ns3:TrackPointExtension>
            <ns3:hr>136</ns3:hr>
            <ns3:cad>49</ns3:cad>
          </ns3:TrackPointExtension>
        </extensions>
      </trkpt>
      <trkpt lat="37.98024167306721210479736328125" lon="-107.73558801971375942230224609375">
        <ele>3516</ele>
        <time>2026-08-15T13:32:56.000Z</time>
        <extensions>
          <ns3:TrackPointExtension>
            <ns3:hr>134</ns3:hr>
            <ns3:cad>48</ns3:cad>
          </ns3:TrackPointExtension>
        </extensions>
      </trkpt>
      <trkpt lat="37.98024720512330532073974609375" lon="-107.73560863919556140899658203125">
        <ele>3516.39990234375</ele>
        <time>2026-08-15T13:32:58.000Z</time>
        <extensions>
          <ns3:TrackPointExtension>
            <ns3:hr>133</ns3:hr>
            <ns3:cad>48</ns3:cad>
          </ns3:TrackPointExtension>
        </extensions>
      </trkpt>
      <trkpt lat="37.980262376368045806884765625" lon="-107.73565624840557575225830078125">
        <ele>3517.199951171875</ele>
        <time>2026-08-15T13:33:02.000Z</time>
        <extensions>
          <ns3:TrackPointExtension>
            <ns3:hr>131</ns3:hr>
            <ns3:cad>49</ns3:cad>
          </ns3:TrackPointExtension>
        </extensions>
      </trkpt>
      <trkpt lat="37.9802742786705493927001953125" lon="-107.73568524979054927825927734375">
        <ele>3517.39990234375</ele>
        <time>2026-08-15T13:33:05.000Z</time>
        <extensions>
          <ns3:TrackPointExtension>
            <ns3:hr>131</ns3:hr>
            <ns3:cad>47</ns3:cad>
          </ns3:TrackPointExtension>
        </extensions>
      </trkpt>
      <trkpt lat="37.9803049564361572265625" lon="-107.73574241437017917633056640625">
        <ele>3518</ele>
        <time>2026-08-15T13:33:11.000Z</time>
        <extensions>
          <ns3:TrackPointExtension>
            <ns3:hr>131</ns3:hr>
            <ns3:cad>46</ns3:cad>
          </ns3:TrackPointExtension>
        </extensions>
      </trkpt>
      <trkpt lat="37.98031040467321872711181640625" lon="-107.73575582541525363922119140625">
        <ele>3518</ele>
        <time>2026-08-15T13:33:13.000Z</time>
        <extensions>
          <ns3:TrackPointExtension>
            <ns3:hr>129</ns3:hr>
            <ns3:cad>0</ns3:cad>
          </ns3:TrackPointExtension>
        </extensions>
      </trkpt>
      <trkpt lat="37.98032104969024658203125" lon="-107.7357656322419643402099609375">
        <ele>3518</ele>
        <time>2026-08-15T13:33:19.000Z</time>
        <extensions>
          <ns3:TrackPointExtension>
            <ns3:hr>127</ns3:hr>
            <ns3:cad>0</ns3:cad>
          </ns3:TrackPointExtension>
        </extensions>
      </trkpt>
      <trkpt lat="37.98032104969024658203125" lon="-107.7357656322419643402099609375">
        <ele>3518</ele>
        <time>2026-08-15T13:33:21.000Z</time>
        <extensions>
          <ns3:TrackPointExtension>
            <ns3:hr>124</ns3:hr>
            <ns3:cad>0</ns3:cad>
          </ns3:TrackPointExtension>
        </extensions>
      </trkpt>
      <trkpt lat="37.98032104969024658203125" lon="-107.7357656322419643402099609375">
        <ele>3517.800048828125</ele>
        <time>2026-08-15T13:33:23.000Z</time>
        <extensions>
          <ns3:TrackPointExtension>
            <ns3:hr>119</ns3:hr>
            <ns3:cad>0</ns3:cad>
          </ns3:TrackPointExtension>
        </extensions>
      </trkpt>
      <trkpt lat="37.98032104969024658203125" lon="-107.7357656322419643402099609375">
        <ele>3517.60009765625</ele>
        <time>2026-08-15T13:33:26.000Z</time>
        <extensions>
          <ns3:TrackPointExtension>
            <ns3:hr>116</ns3:hr>
            <ns3:cad>0</ns3:cad>
          </ns3:TrackPointExtension>
        </extensions>
      </trkpt>
      <trkpt lat="37.98032398335635662078857421875" lon="-107.73576135747134685516357421875">
        <ele>3517.800048828125</ele>
        <time>2026-08-15T13:33:27.000Z</time>
        <extensions>
          <ns3:TrackPointExtension>
            <ns3:hr>116</ns3:hr>
            <ns3:cad>0</ns3:cad>
          </ns3:TrackPointExtension>
        </extensions>
      </trkpt>
      <trkpt lat="37.98030420206487178802490234375" lon="-107.73571156896650791168212890625">
        <ele>3517.39990234375</ele>
        <time>2026-08-15T13:33:33.000Z</time>
        <extensions>
          <ns3:TrackPointExtension>
            <ns3:hr>115</ns3:hr>
            <ns3:cad>0</ns3:cad>
          </ns3:TrackPointExtension>
        </extensions>
      </trkpt>
      <trkpt lat="37.98027687706053256988525390625" lon="-107.735649459064006805419921875">
        <ele>3517</ele>
        <time>2026-08-15T13:33:39.000Z</time>
        <extensions>
          <ns3:TrackPointExtension>
            <ns3:hr>114</ns3:hr>
            <ns3:cad>0</ns3:cad>
          </ns3:TrackPointExtension>
        </extensions>
      </trkpt>
      <trkpt lat="37.98027168028056621551513671875" lon="-107.73561869747936725616455078125">
        <ele>3517.199951171875</ele>
        <time>2026-08-15T13:33:45.000Z</time>
        <extensions>
          <ns3:TrackPointExtension>
            <ns3:hr>114</ns3:hr>
            <ns3:cad>0</ns3:cad>
          </ns3:TrackPointExtension>
        </extensions>
      </trkpt>
      <trkpt lat="37.98027151264250278472900390625" lon="-107.73561635054647922515869140625">
        <ele>3517.199951171875</ele>
        <time>2026-08-15T13:33:47.000Z</time>
        <extensions>
          <ns3:TrackPointExtension>
            <ns3:hr>113</ns3:hr>
            <ns3:cad>0</ns3:cad>
          </ns3:TrackPointExtension>
        </extensions>
      </trkpt>
      <trkpt lat="37.98027151264250278472900390625" lon="-107.73561635054647922515869140625">
        <ele>3516.800048828125</ele>
        <time>2026-08-15T13:33:53.000Z</time>
        <extensions>
          <ns3:TrackPointExtension>
            <ns3:hr>113</ns3:hr>
            <ns3:cad>0</ns3:cad>
          </ns3:TrackPointExtension>
        </extensions>
      </trkpt>
      <trkpt lat="37.980275787413120269775390625" lon="-107.73558198474347591400146484375">
        <ele>3517</ele>
        <time>2026-08-15T13:33:59.000Z</time>
        <extensions>
          <ns3:TrackPointExtension>
            <ns3:hr>112</ns3:hr>
            <ns3:cad>0</ns3:cad>
          </ns3:TrackPointExtension>
        </extensions>
      </trkpt>
      <trkpt lat="37.98027570359408855438232421875" lon="-107.73557938635349273681640625">
        <ele>3517.199951171875</ele>
        <time>2026-08-15T13:34:00.000Z</time>
        <extensions>
          <ns3:TrackPointExtension>
            <ns3:hr>112</ns3:hr>
            <ns3:cad>0</ns3:cad>
          </ns3:TrackPointExtension>
        </extensions>
      </trkpt>
      <trkpt lat="37.9802848398685455322265625" lon="-107.73556287400424480438232421875">
        <ele>3518.199951171875</ele>
        <time>2026-08-15T13:34:06.000Z</time>
        <extensions>
          <ns3:TrackPointExtension>
            <ns3:hr>112</ns3:hr>
            <ns3:cad>0</ns3:cad>
          </ns3:TrackPointExtension>
        </extensions>
      </trkpt>
      <trkpt lat="37.980289198458194732666015625" lon="-107.735551893711090087890625">
        <ele>3518.60009765625</ele>
        <time>2026-08-15T13:34:08.000Z</time>
        <extensions>
          <ns3:TrackPointExtension>
            <ns3:hr>113</ns3:hr>
            <ns3:cad>0</ns3:cad>
          </ns3:TrackPointExtension>
        </extensions>
      </trkpt>
      <trkpt lat="37.9802964068949222564697265625" lon="-107.73549783043563365936279296875">
        <ele>3519.39990234375</ele>
        <time>2026-08-15T13:34:13.000Z</time>
        <extensions>
          <ns3:TrackPointExtension>
            <ns3:hr>111</ns3:hr>
            <ns3:cad>40</ns3:cad>
          </ns3:TrackPointExtension>
        </extensions>
      </trkpt>
      <trkpt lat="37.98029883764684200286865234375" lon="-107.735487520694732666015625">
        <ele>3519.39990234375</ele>
        <time>2026-08-15T13:34:14.000Z</time>
        <extensions>
          <ns3:TrackPointExtension>
            <ns3:hr>111</ns3:hr>
            <ns3:cad>41</ns3:cad>
          </ns3:TrackPointExtension>
        </extensions>
      </trkpt>
      <trkpt lat="37.98031996004283428192138671875" lon="-107.73543563671410083770751953125">
        <ele>3520.39990234375</ele>
        <time>2026-08-15T13:34:20.000Z</time>
        <extensions>
          <ns3:TrackPointExtension>
            <ns3:hr>110</ns3:hr>
            <ns3:cad>73</ns3:cad>
          </ns3:TrackPointExtension>
        </extensions>
      </trkpt>
      <trkpt lat="37.98032197169959545135498046875" lon="-107.73542507551610469818115234375">
        <ele>3520.800048828125</ele>
        <time>2026-08-15T13:34:21.000Z</time>
        <extensions>
          <ns3:TrackPointExtension>
            <ns3:hr>110</ns3:hr>
            <ns3:cad>73</ns3:cad>
          </ns3:TrackPointExtension>
        </extensions>
      </trkpt>
      <trkpt lat="37.9803299345076084136962890625" lon="-107.7353837527334690093994140625">
        <ele>3521.60009765625</ele>
        <time>2026-08-15T13:34:25.000Z</time>
        <extensions>
          <ns3:TrackPointExtension>
            <ns3:hr>110</ns3:hr>
            <ns3:cad>0</ns3:cad>
          </ns3:TrackPointExtension>
        </extensions>
      </trkpt>
      <trkpt lat="37.98033186234533786773681640625" lon="-107.73536506108939647674560546875">
        <ele>3521.800048828125</ele>
        <time>2026-08-15T13:34:27.000Z</time>
        <extensions>
          <ns3:TrackPointExtension>
            <ns3:hr>110</ns3:hr>
            <ns3:cad>0</ns3:cad>
          </ns3:TrackPointExtension>
        </extensions>
      </trkpt>
      <trkpt lat="37.98033605329692363739013671875" lon="-107.7353317849338054656982421875">
        <ele>3522</ele>
        <time>2026-08-15T13:34:33.000Z</time>
        <extensions>
          <ns3:TrackPointExtension>
            <ns3:hr>112</ns3:hr>
            <ns3:cad>0</ns3:cad>
          </ns3:TrackPointExtension>
        </extensions>
      </trkpt>
      <trkpt lat="37.9803384840488433837890625" lon="-107.73532449267804622650146484375">
        <ele>3522.199951171875</ele>
        <time>2026-08-15T13:34:34.000Z</time>
        <extensions>
          <ns3:TrackPointExtension>
            <ns3:hr>112</ns3:hr>
            <ns3:cad>0</ns3:cad>
          </ns3:TrackPointExtension>
        </extensions>
      </trkpt>
      <trkpt lat="37.98034376464784145355224609375" lon="-107.73531527258455753326416015625">
        <ele>3522.60009765625</ele>
        <time>2026-08-15T13:34:35.000Z</time>
        <extensions>
          <ns3:TrackPointExtension>
            <ns3:hr>112</ns3:hr>
            <ns3:cad>0</ns3:cad>
          </ns3:TrackPointExtension>
        </extensions>
      </trkpt>
      <trkpt lat="37.98035030253231525421142578125" lon="-107.735287360846996307373046875">
        <ele>3523.800048828125</ele>
        <time>2026-08-15T13:34:38.000Z</time>
        <extensions>
          <ns3:TrackPointExtension>
            <ns3:hr>114</ns3:hr>
            <ns3:cad>50</ns3:cad>
          </ns3:TrackPointExtension>
        </extensions>
      </trkpt>
      <trkpt lat="37.980356253683567047119140625" lon="-107.7352590300142765045166015625">
        <ele>3524.39990234375</ele>
        <time>2026-08-15T13:34:40.000Z</time>
        <extensions>
          <ns3:TrackPointExtension>
            <ns3:hr>115</ns3:hr>
            <ns3:cad>0</ns3:cad>
          </ns3:TrackPointExtension>
        </extensions>
      </trkpt>
      <trkpt lat="37.9803617857396602630615234375" lon="-107.73521997034549713134765625">
        <ele>3525</ele>
        <time>2026-08-15T13:34:44.000Z</time>
        <extensions>
          <ns3:TrackPointExtension>
            <ns3:hr>116</ns3:hr>
            <ns3:cad>48</ns3:cad>
          </ns3:TrackPointExtension>
        </extensions>
      </trkpt>
      <trkpt lat="37.980366647243499755859375" lon="-107.735206224024295806884765625">
        <ele>3525.60009765625</ele>
        <time>2026-08-15T13:34:46.000Z</time>
        <extensions>
          <ns3:TrackPointExtension>
            <ns3:hr>116</ns3:hr>
            <ns3:cad>48</ns3:cad>
          </ns3:TrackPointExtension>
        </extensions>
      </trkpt>
      <trkpt lat="37.98036488704383373260498046875" lon="-107.735187448561191558837890625">
        <ele>3526</ele>
        <time>2026-08-15T13:34:48.000Z</time>
        <extensions>
          <ns3:TrackPointExtension>
            <ns3:hr>117</ns3:hr>
            <ns3:cad>0</ns3:cad>
          </ns3:TrackPointExtension>
        </extensions>
      </trkpt>
      <trkpt lat="37.9803715087473392486572265625" lon="-107.73511511273682117462158203125">
        <ele>3526.199951171875</ele>
        <time>2026-08-15T13:34:54.000Z</time>
        <extensions>
          <ns3:TrackPointExtension>
            <ns3:hr>120</ns3:hr>
            <ns3:cad>0</ns3:cad>
          </ns3:TrackPointExtension>
        </extensions>
      </trkpt>
      <trkpt lat="37.98038165085017681121826171875" lon="-107.73508242331445217132568359375">
        <ele>3527.199951171875</ele>
        <time>2026-08-15T13:34:59.000Z</time>
        <extensions>
          <ns3:TrackPointExtension>
            <ns3:hr>122</ns3:hr>
            <ns3:cad>52</ns3:cad>
          </ns3:TrackPointExtension>
        </extensions>
      </trkpt>
      <trkpt lat="37.9803872667253017425537109375" lon="-107.73506649769842624664306640625">
        <ele>3527.39990234375</ele>
        <time>2026-08-15T13:35:01.000Z</time>
        <extensions>
          <ns3:TrackPointExtension>
            <ns3:hr>122</ns3:hr>
            <ns3:cad>52</ns3:cad>
          </ns3:TrackPointExtension>
        </extensions>
      </trkpt>
      <trkpt lat="37.98040243797004222869873046875" lon="-107.7350085787475109100341796875">
        <ele>3528.199951171875</ele>
        <time>2026-08-15T13:35:06.000Z</time>
        <extensions>
          <ns3:TrackPointExtension>
            <ns3:hr>121</ns3:hr>
            <ns3:cad>47</ns3:cad>
          </ns3:TrackPointExtension>
        </extensions>
      </trkpt>
      <trkpt lat="37.980405874550342559814453125" lon="-107.73499667644500732421875">
        <ele>3528.199951171875</ele>
        <time>2026-08-15T13:35:07.000Z</time>
        <extensions>
          <ns3:TrackPointExtension>
            <ns3:hr>121</ns3:hr>
            <ns3:cad>47</ns3:cad>
          </ns3:TrackPointExtension>
        </extensions>
      </trkpt>
      <trkpt lat="37.9804218001663684844970703125" lon="-107.73494093678891658782958984375">
        <ele>3528.800048828125</ele>
        <time>2026-08-15T13:35:11.000Z</time>
        <extensions>
          <ns3:TrackPointExtension>
            <ns3:hr>121</ns3:hr>
            <ns3:cad>0</ns3:cad>
          </ns3:TrackPointExtension>
        </extensions>
      </trkpt>
      <trkpt lat="37.98042632639408111572265625" lon="-107.73491612635552883148193359375">
        <ele>3529.199951171875</ele>
        <time>2026-08-15T13:35:13.000Z</time>
        <extensions>
          <ns3:TrackPointExtension>
            <ns3:hr>121</ns3:hr>
            <ns3:cad>0</ns3:cad>
          </ns3:TrackPointExtension>
        </extensions>
      </trkpt>
      <trkpt lat="37.98043034970760345458984375" lon="-107.7348550222814083099365234375">
        <ele>3530.199951171875</ele>
        <time>2026-08-15T13:35:18.000Z</time>
        <extensions>
          <ns3:TrackPointExtension>
            <ns3:hr>121</ns3:hr>
            <ns3:cad>0</ns3:cad>
          </ns3:TrackPointExtension>
        </extensions>
      </trkpt>
      <trkpt lat="37.98043177463114261627197265625" lon="-107.7348385937511920928955078125">
        <ele>3530.199951171875</ele>
        <time>2026-08-15T13:35:19.000Z</time>
        <extensions>
          <ns3:TrackPointExtension>
            <ns3:hr>121</ns3:hr>
            <ns3:cad>0</ns3:cad>
          </ns3:TrackPointExtension>
        </extensions>
      </trkpt>
      <trkpt lat="37.9804378934204578399658203125" lon="-107.7347673475742340087890625">
        <ele>3530</ele>
        <time>2026-08-15T13:35:24.000Z</time>
        <extensions>
          <ns3:TrackPointExtension>
            <ns3:hr>121</ns3:hr>
            <ns3:cad>0</ns3:cad>
          </ns3:TrackPointExtension>
        </extensions>
      </trkpt>
      <trkpt lat="37.980434708297252655029296875" lon="-107.73474765010178089141845703125">
        <ele>3530.39990234375</ele>
        <time>2026-08-15T13:35:30.000Z</time>
        <extensions>
          <ns3:TrackPointExtension>
            <ns3:hr>120</ns3:hr>
            <ns3:cad>0</ns3:cad>
          </ns3:TrackPointExtension>
        </extensions>
      </trkpt>
      <trkpt lat="37.980434708297252655029296875" lon="-107.734747566282749176025390625">
        <ele>3530.60009765625</ele>
        <time>2026-08-15T13:35:31.000Z</time>
        <extensions>
          <ns3:TrackPointExtension>
            <ns3:hr>120</ns3:hr>
            <ns3:cad>0</ns3:cad>
          </ns3:TrackPointExtension>
        </extensions>
      </trkpt>
      <trkpt lat="37.980434708297252655029296875" lon="-107.734747566282749176025390625">
        <ele>3530.39990234375</ele>
        <time>2026-08-15T13:35:34.000Z</time>
        <extensions>
          <ns3:TrackPointExtension>
            <ns3:hr>117</ns3:hr>
            <ns3:cad>0</ns3:cad>
          </ns3:TrackPointExtension>
        </extensions>
      </trkpt>
      <trkpt lat="37.980434708297252655029296875" lon="-107.734747566282749176025390625">
        <ele>3530.60009765625</ele>
        <time>2026-08-15T13:35:36.000Z</time>
        <extensions>
          <ns3:TrackPointExtension>
            <ns3:hr>114</ns3:hr>
            <ns3:cad>0</ns3:cad>
          </ns3:TrackPointExtension>
        </extensions>
      </trkpt>
      <trkpt lat="37.980434708297252655029296875" lon="-107.734747566282749176025390625">
        <ele>3530.60009765625</ele>
        <time>2026-08-15T13:35:42.000Z</time>
        <extensions>
          <ns3:TrackPointExtension>
            <ns3:hr>113</ns3:hr>
            <ns3:cad>0</ns3:cad>
          </ns3:TrackPointExtension>
        </extensions>
      </trkpt>
      <trkpt lat="37.980431020259857177734375" lon="-107.73473675362765789031982421875">
        <ele>3530.39990234375</ele>
        <time>2026-08-15T13:35:47.000Z</time>
        <extensions>
          <ns3:TrackPointExtension>
            <ns3:hr>110</ns3:hr>
            <ns3:cad>0</ns3:cad>
          </ns3:TrackPointExtension>
        </extensions>
      </trkpt>
      <trkpt lat="37.980432696640491485595703125" lon="-107.734731473028659820556640625">
        <ele>3530.39990234375</ele>
        <time>2026-08-15T13:35:48.000Z</time>
        <extensions>
          <ns3:TrackPointExtension>
            <ns3:hr>107</ns3:hr>
            <ns3:cad>0</ns3:cad>
          </ns3:TrackPointExtension>
        </extensions>
      </trkpt>
      <trkpt lat="37.980441749095916748046875" lon="-107.73471571505069732666015625">
        <ele>3530.60009765625</ele>
        <time>2026-08-15T13:35:50.000Z</time>
        <extensions>
          <ns3:TrackPointExtension>
            <ns3:hr>104</ns3:hr>
            <ns3:cad>0</ns3:cad>
          </ns3:TrackPointExtension>
        </extensions>
      </trkpt>
      <trkpt lat="37.9804533161222934722900390625" lon="-107.7347031421959400177001953125">
        <ele>3531</ele>
        <time>2026-08-15T13:35:55.000Z</time>
        <extensions>
          <ns3:TrackPointExtension>
            <ns3:hr>103</ns3:hr>
            <ns3:cad>0</ns3:cad>
          </ns3:TrackPointExtension>
        </extensions>
      </trkpt>
      <trkpt lat="37.98046228475868701934814453125" lon="-107.73468621075153350830078125">
        <ele>3531.39990234375</ele>
        <time>2026-08-15T13:35:57.000Z</time>
        <extensions>
          <ns3:TrackPointExtension>
            <ns3:hr>102</ns3:hr>
            <ns3:cad>0</ns3:cad>
          </ns3:TrackPointExtension>
        </extensions>
      </trkpt>
      <trkpt lat="37.9804804734885692596435546875" lon="-107.73465628735721111297607421875">
        <ele>3531.800048828125</ele>
        <time>2026-08-15T13:36:02.000Z</time>
        <extensions>
          <ns3:TrackPointExtension>
            <ns3:hr>100</ns3:hr>
            <ns3:cad>0</ns3:cad>
          </ns3:TrackPointExtension>
        </extensions>
      </trkpt>
      <trkpt lat="37.9805012606084346771240234375" lon="-107.73463684134185314178466796875">
        <ele>3532.39990234375</ele>
        <time>2026-08-15T13:36:08.000Z</time>
        <extensions>
          <ns3:TrackPointExtension>
            <ns3:hr>99</ns3:hr>
            <ns3:cad>45</ns3:cad>
          </ns3:TrackPointExtension>
        </extensions>
      </trkpt>
      <trkpt lat="37.98050402663648128509521484375" lon="-107.73463466204702854156494140625">
        <ele>3532.800048828125</ele>
        <time>2026-08-15T13:36:09.000Z</time>
        <extensions>
          <ns3:TrackPointExtension>
            <ns3:hr>99</ns3:hr>
            <ns3:cad>45</ns3:cad>
          </ns3:TrackPointExtension>
        </extensions>
      </trkpt>
      <trkpt lat="37.98051483929157257080078125" lon="-107.73461605422198772430419921875">
        <ele>3533.800048828125</ele>
        <time>2026-08-15T13:36:12.000Z</time>
        <extensions>
          <ns3:TrackPointExtension>
            <ns3:hr>100</ns3:hr>
            <ns3:cad>48</ns3:cad>
          </ns3:TrackPointExtension>
        </extensions>
      </trkpt>
      <trkpt lat="37.98053336329758167266845703125" lon="-107.73458973504602909088134765625">
        <ele>3534.60009765625</ele>
        <time>2026-08-15T13:36:16.000Z</time>
        <extensions>
          <ns3:TrackPointExtension>
            <ns3:hr>99</ns3:hr>
            <ns3:cad>49</ns3:cad>
          </ns3:TrackPointExtension>
        </extensions>
      </trkpt>
      <trkpt lat="37.9805423319339752197265625" lon="-107.73457699455320835113525390625">
        <ele>3534.800048828125</ele>
        <time>2026-08-15T13:36:18.000Z</time>
        <extensions>
          <ns3:TrackPointExtension>
            <ns3:hr>99</ns3:hr>
            <ns3:cad>46</ns3:cad>
          </ns3:TrackPointExtension>
        </extensions>
      </trkpt>
      <trkpt lat="37.980557419359683990478515625" lon="-107.73455117829144001007080078125">
        <ele>3535.800048828125</ele>
        <time>2026-08-15T13:36:23.000Z</time>
        <extensions>
          <ns3:TrackPointExtension>
            <ns3:hr>101</ns3:hr>
            <ns3:cad>46</ns3:cad>
          </ns3:TrackPointExtension>
        </extensions>
      </trkpt>
      <trkpt lat="37.98055817373096942901611328125" lon="-107.73455017246305942535400390625">
        <ele>3536</ele>
        <time>2026-08-15T13:36:24.000Z</time>
        <extensions>
          <ns3:TrackPointExtension>
            <ns3:hr>101</ns3:hr>
            <ns3:cad>0</ns3:cad>
          </ns3:TrackPointExtension>
        </extensions>
      </trkpt>
      <trkpt lat="37.98055917955935001373291015625" lon="-107.73454916663467884063720703125">
        <ele>3536</ele>
        <time>2026-08-15T13:36:30.000Z</time>
        <extensions>
          <ns3:TrackPointExtension>
            <ns3:hr>100</ns3:hr>
            <ns3:cad>0</ns3:cad>
          </ns3:TrackPointExtension>
        </extensions>
      </trkpt>
      <trkpt lat="37.98055917955935001373291015625" lon="-107.73454916663467884063720703125">
        <ele>3535.800048828125</ele>
        <time>2026-08-15T13:36:35.000Z</time>
        <extensions>
          <ns3:TrackPointExtension>
            <ns3:hr>101</ns3:hr>
            <ns3:cad>0</ns3:cad>
          </ns3:TrackPointExtension>
        </extensions>
      </trkpt>
      <trkpt lat="37.98055917955935001373291015625" lon="-107.73454916663467884063720703125">
        <ele>3535.800048828125</ele>
        <time>2026-08-15T13:36:37.000Z</time>
        <extensions>
          <ns3:TrackPointExtension>
            <ns3:hr>105</ns3:hr>
            <ns3:cad>0</ns3:cad>
          </ns3:TrackPointExtension>
        </extensions>
      </trkpt>
      <trkpt lat="37.98055917955935001373291015625" lon="-107.73454916663467884063720703125">
        <ele>3535.800048828125</ele>
        <time>2026-08-15T13:36:38.000Z</time>
        <extensions>
          <ns3:TrackPointExtension>
            <ns3:hr>111</ns3:hr>
            <ns3:cad>0</ns3:cad>
          </ns3:TrackPointExtension>
        </extensions>
      </trkpt>
      <trkpt lat="37.98055917955935001373291015625" lon="-107.73454916663467884063720703125">
        <ele>3535.60009765625</ele>
        <time>2026-08-15T13:36:40.000Z</time>
        <extensions>
          <ns3:TrackPointExtension>
            <ns3:hr>114</ns3:hr>
            <ns3:cad>0</ns3:cad>
          </ns3:TrackPointExtension>
        </extensions>
      </trkpt>
      <trkpt lat="37.980570830404758453369140625" lon="-107.7345163933932781219482421875">
        <ele>3535.800048828125</ele>
        <time>2026-08-15T13:36:46.000Z</time>
        <extensions>
          <ns3:TrackPointExtension>
            <ns3:hr>112</ns3:hr>
            <ns3:cad>0</ns3:cad>
          </ns3:TrackPointExtension>
        </extensions>
      </trkpt>
      <trkpt lat="37.98057426698505878448486328125" lon="-107.734511531889438629150390625">
        <ele>3536</ele>
        <time>2026-08-15T13:36:47.000Z</time>
        <extensions>
          <ns3:TrackPointExtension>
            <ns3:hr>111</ns3:hr>
            <ns3:cad>0</ns3:cad>
          </ns3:TrackPointExtension>
        </extensions>
      </trkpt>
      <trkpt lat="37.9805906116962432861328125" lon="-107.7344832010567188262939453125">
        <ele>3537</ele>
        <time>2026-08-15T13:36:52.000Z</time>
        <extensions>
          <ns3:TrackPointExtension>
            <ns3:hr>109</ns3:hr>
            <ns3:cad>0</ns3:cad>
          </ns3:TrackPointExtension>
        </extensions>
      </trkpt>
      <trkpt lat="37.9806011728942394256591796875" lon="-107.7344614081084728240966796875">
        <ele>3537.39990234375</ele>
        <time>2026-08-15T13:36:55.000Z</time>
        <extensions>
          <ns3:TrackPointExtension>
            <ns3:hr>109</ns3:hr>
            <ns3:cad>44</ns3:cad>
          </ns3:TrackPointExtension>
        </extensions>
      </trkpt>
      <trkpt lat="37.98061533831059932708740234375" lon="-107.734437771141529083251953125">
        <ele>3537.60009765625</ele>
        <time>2026-08-15T13:37:01.000Z</time>
        <extensions>
          <ns3:TrackPointExtension>
            <ns3:hr>111</ns3:hr>
            <ns3:cad>68</ns3:cad>
          </ns3:TrackPointExtension>
        </extensions>
      </trkpt>
      <trkpt lat="37.9806155897676944732666015625" lon="-107.7344349212944507598876953125">
        <ele>3537.800048828125</ele>
        <time>2026-08-15T13:37:02.000Z</time>
        <extensions>
          <ns3:TrackPointExtension>
            <ns3:hr>112</ns3:hr>
            <ns3:cad>0</ns3:cad>
          </ns3:TrackPointExtension>
        </extensions>
      </trkpt>
      <trkpt lat="37.9806142486631870269775390625" lon="-107.73443265818059444427490234375">
        <ele>3538.199951171875</ele>
        <time>2026-08-15T13:37:03.000Z</time>
        <extensions>
          <ns3:TrackPointExtension>
            <ns3:hr>111</ns3:hr>
            <ns3:cad>0</ns3:cad>
          </ns3:TrackPointExtension>
        </extensions>
      </trkpt>
      <trkpt lat="37.9806357063353061676025390625" lon="-107.73440466262400150299072265625">
        <ele>3538.60009765625</ele>
        <time>2026-08-15T13:37:09.000Z</time>
        <extensions>
          <ns3:TrackPointExtension>
            <ns3:hr>110</ns3:hr>
            <ns3:cad>0</ns3:cad>
          </ns3:TrackPointExtension>
        </extensions>
      </trkpt>
      <trkpt lat="37.98065355978906154632568359375" lon="-107.73438370786607265472412109375">
        <ele>3539</ele>
        <time>2026-08-15T13:37:13.000Z</time>
        <extensions>
          <ns3:TrackPointExtension>
            <ns3:hr>107</ns3:hr>
            <ns3:cad>70</ns3:cad>
          </ns3:TrackPointExtension>
        </extensions>
      </trkpt>
      <trkpt lat="37.9806538112461566925048828125" lon="-107.73436929099261760711669921875">
        <ele>3539.39990234375</ele>
        <time>2026-08-15T13:37:15.000Z</time>
        <extensions>
          <ns3:TrackPointExtension>
            <ns3:hr>107</ns3:hr>
            <ns3:cad>0</ns3:cad>
          </ns3:TrackPointExtension>
        </extensions>
      </trkpt>
      <trkpt lat="37.98068122006952762603759765625" lon="-107.7343390323221683502197265625">
        <ele>3540.199951171875</ele>
        <time>2026-08-15T13:37:20.000Z</time>
        <extensions>
          <ns3:TrackPointExtension>
            <ns3:hr>109</ns3:hr>
            <ns3:cad>52</ns3:cad>
          </ns3:TrackPointExtension>
        </extensions>
      </trkpt>
      <trkpt lat="37.98068691976368427276611328125" lon="-107.73433593101799488067626953125">
        <ele>3540.39990234375</ele>
        <time>2026-08-15T13:37:21.000Z</time>
        <extensions>
          <ns3:TrackPointExtension>
            <ns3:hr>110</ns3:hr>
            <ns3:cad>52</ns3:cad>
          </ns3:TrackPointExtension>
        </extensions>
      </trkpt>
      <trkpt lat="37.98071944154798984527587890625" lon="-107.73430533707141876220703125">
        <ele>3541.199951171875</ele>
        <time>2026-08-15T13:37:25.000Z</time>
        <extensions>
          <ns3:TrackPointExtension>
            <ns3:hr>113</ns3:hr>
            <ns3:cad>51</ns3:cad>
          </ns3:TrackPointExtension>
        </extensions>
      </trkpt>
      <trkpt lat="37.98072338104248046875" lon="-107.7343014813959598541259765625">
        <ele>3541.39990234375</ele>
        <time>2026-08-15T13:37:26.000Z</time>
        <extensions>
          <ns3:TrackPointExtension>
            <ns3:hr>114</ns3:hr>
            <ns3:cad>51</ns3:cad>
          </ns3:TrackPointExtension>
        </extensions>
      </trkpt>
      <trkpt lat="37.980726063251495361328125" lon="-107.73429452441632747650146484375">
        <ele>3541.800048828125</ele>
        <time>2026-08-15T13:37:27.000Z</time>
        <extensions>
          <ns3:TrackPointExtension>
            <ns3:hr>115</ns3:hr>
            <ns3:cad>51</ns3:cad>
          </ns3:TrackPointExtension>
        </extensions>
      </trkpt>
      <trkpt lat="37.98075129278004169464111328125" lon="-107.7342625893652439117431640625">
        <ele>3542.60009765625</ele>
        <time>2026-08-15T13:37:31.000Z</time>
        <extensions>
          <ns3:TrackPointExtension>
            <ns3:hr>118</ns3:hr>
            <ns3:cad>50</ns3:cad>
          </ns3:TrackPointExtension>
        </extensions>
      </trkpt>
      <trkpt lat="37.98076252453029155731201171875" lon="-107.7342505194246768951416015625">
        <ele>3543</ele>
        <time>2026-08-15T13:37:33.000Z</time>
        <extensions>
          <ns3:TrackPointExtension>
            <ns3:hr>119</ns3:hr>
            <ns3:cad>49</ns3:cad>
          </ns3:TrackPointExtension>
        </extensions>
      </trkpt>
      <trkpt lat="37.9807704873383045196533203125" lon="-107.7342350967228412628173828125">
        <ele>3543.60009765625</ele>
        <time>2026-08-15T13:37:35.000Z</time>
        <extensions>
          <ns3:TrackPointExtension>
            <ns3:hr>119</ns3:hr>
            <ns3:cad>50</ns3:cad>
          </ns3:TrackPointExtension>
        </extensions>
      </trkpt>
      <trkpt lat="37.980801165103912353515625" lon="-107.73418874479830265045166015625">
        <ele>3544.60009765625</ele>
        <time>2026-08-15T13:37:40.000Z</time>
        <extensions>
          <ns3:TrackPointExtension>
            <ns3:hr>123</ns3:hr>
            <ns3:cad>50</ns3:cad>
          </ns3:TrackPointExtension>
        </extensions>
      </trkpt>
      <trkpt lat="37.98083293251693248748779296875" lon="-107.7341335080564022064208984375">
        <ele>3545.800048828125</ele>
        <time>2026-08-15T13:37:45.000Z</time>
        <extensions>
          <ns3:TrackPointExtension>
            <ns3:hr>123</ns3:hr>
            <ns3:cad>50</ns3:cad>
          </ns3:TrackPointExtension>
        </extensions>
      </trkpt>
      <trkpt lat="37.9808373749256134033203125" lon="-107.73412437178194522857666015625">
        <ele>3545.800048828125</ele>
        <time>2026-08-15T13:37:46.000Z</time>
        <extensions>
          <ns3:TrackPointExtension>
            <ns3:hr>123</ns3:hr>
            <ns3:cad>50</ns3:cad>
          </ns3:TrackPointExtension>
        </extensions>
      </trkpt>
      <trkpt lat="37.9808653704822063446044921875" lon="-107.73408581502735614776611328125">
        <ele>3546.199951171875</ele>
        <time>2026-08-15T13:37:50.000Z</time>
        <extensions>
          <ns3:TrackPointExtension>
            <ns3:hr>120</ns3:hr>
            <ns3:cad>50</ns3:cad>
          </ns3:TrackPointExtension>
        </extensions>
      </trkpt>
      <trkpt lat="37.98087065108120441436767578125" lon="-107.73406586609780788421630859375">
        <ele>3546.60009765625</ele>
        <time>2026-08-15T13:37:52.000Z</time>
        <extensions>
          <ns3:TrackPointExtension>
            <ns3:hr>117</ns3:hr>
            <ns3:cad>47</ns3:cad>
          </ns3:TrackPointExtension>
        </extensions>
      </trkpt>
      <trkpt lat="37.98087568022310733795166015625" lon="-107.73405731655657291412353515625">
        <ele>3546.800048828125</ele>
        <time>2026-08-15T13:37:53.000Z</time>
        <extensions>
          <ns3:TrackPointExtension>
            <ns3:hr>116</ns3:hr>
            <ns3:cad>47</ns3:cad>
          </ns3:TrackPointExtension>
        </extensions>
      </trkpt>
      <trkpt lat="37.98090216703712940216064453125" lon="-107.73400870151817798614501953125">
        <ele>3547.800048828125</ele>
        <time>2026-08-15T13:37:58.000Z</time>
        <extensions>
          <ns3:TrackPointExtension>
            <ns3:hr>114</ns3:hr>
            <ns3:cad>45</ns3:cad>
          </ns3:TrackPointExtension>
        </extensions>
      </trkpt>
      <trkpt lat="37.9809099622070789337158203125" lon="-107.7339921891689300537109375">
        <ele>3548.199951171875</ele>
        <time>2026-08-15T13:38:00.000Z</time>
        <extensions>
          <ns3:TrackPointExtension>
            <ns3:hr>114</ns3:hr>
            <ns3:cad>47</ns3:cad>
          </ns3:TrackPointExtension>
        </extensions>
      </trkpt>
      <trkpt lat="37.9809227026998996734619140625" lon="-107.73395975120365619659423828125">
        <ele>3549</ele>
        <time>2026-08-15T13:38:04.000Z</time>
        <extensions>
          <ns3:TrackPointExtension>
            <ns3:hr>113</ns3:hr>
            <ns3:cad>47</ns3:cad>
          </ns3:TrackPointExtension>
        </extensions>
      </trkpt>
      <trkpt lat="37.98094022087752819061279296875" lon="-107.73394315503537654876708984375">
        <ele>3549.199951171875</ele>
        <time>2026-08-15T13:38:06.000Z</time>
        <extensions>
          <ns3:TrackPointExtension>
            <ns3:hr>113</ns3:hr>
            <ns3:cad>46</ns3:cad>
          </ns3:TrackPointExtension>
        </extensions>
      </trkpt>
      <trkpt lat="37.98095547594130039215087890625" lon="-107.7339293248951435089111328125">
        <ele>3549.60009765625</ele>
        <time>2026-08-15T13:38:11.000Z</time>
        <extensions>
          <ns3:TrackPointExtension>
            <ns3:hr>115</ns3:hr>
            <ns3:cad>0</ns3:cad>
          </ns3:TrackPointExtension>
        </extensions>
      </trkpt>
      <trkpt lat="37.98095882870256900787353515625" lon="-107.7339304983615875244140625">
        <ele>3550.199951171875</ele>
        <time>2026-08-15T13:38:13.000Z</time>
        <extensions>
          <ns3:TrackPointExtension>
            <ns3:hr>116</ns3:hr>
            <ns3:cad>0</ns3:cad>
          </ns3:TrackPointExtension>
        </extensions>
      </trkpt>
      <trkpt lat="37.9809505306184291839599609375" lon="-107.7339551411569118499755859375">
        <ele>3550.800048828125</ele>
        <time>2026-08-15T13:38:17.000Z</time>
        <extensions>
          <ns3:TrackPointExtension>
            <ns3:hr>118</ns3:hr>
            <ns3:cad>0</ns3:cad>
          </ns3:TrackPointExtension>
        </extensions>
      </trkpt>
      <trkpt lat="37.98095212318003177642822265625" lon="-107.7339732460677623748779296875">
        <ele>3551.199951171875</ele>
        <time>2026-08-15T13:38:19.000Z</time>
        <extensions>
          <ns3:TrackPointExtension>
            <ns3:hr>119</ns3:hr>
            <ns3:cad>42</ns3:cad>
          </ns3:TrackPointExtension>
        </extensions>
      </trkpt>
      <trkpt lat="37.980948351323604583740234375" lon="-107.734031416475772857666015625">
        <ele>3552.199951171875</ele>
        <time>2026-08-15T13:38:24.000Z</time>
        <extensions>
          <ns3:TrackPointExtension>
            <ns3:hr>119</ns3:hr>
            <ns3:cad>46</ns3:cad>
          </ns3:TrackPointExtension>
        </extensions>
      </trkpt>
      <trkpt lat="37.9809419810771942138671875" lon="-107.73407424800097942352294921875">
        <ele>3552.39990234375</ele>
        <time>2026-08-15T13:38:28.000Z</time>
        <extensions>
          <ns3:TrackPointExtension>
            <ns3:hr>122</ns3:hr>
            <ns3:cad>46</ns3:cad>
          </ns3:TrackPointExtension>
        </extensions>
      </trkpt>
      <trkpt lat="37.98093770630657672882080078125" lon="-107.734101153910160064697265625">
        <ele>3552.39990234375</ele>
        <time>2026-08-15T13:38:30.000Z</time>
        <extensions>
          <ns3:TrackPointExtension>
            <ns3:hr>128</ns3:hr>
            <ns3:cad>46</ns3:cad>
          </ns3:TrackPointExtension>
        </extensions>
      </trkpt>
      <trkpt lat="37.98093552701175212860107421875" lon="-107.7341170795261859893798828125">
        <ele>3552.39990234375</ele>
        <time>2026-08-15T13:38:31.000Z</time>
        <extensions>
          <ns3:TrackPointExtension>
            <ns3:hr>132</ns3:hr>
            <ns3:cad>46</ns3:cad>
          </ns3:TrackPointExtension>
        </extensions>
      </trkpt>
      <trkpt lat="37.98093452118337154388427734375" lon="-107.734141051769256591796875">
        <ele>3552.800048828125</ele>
        <time>2026-08-15T13:38:33.000Z</time>
        <extensions>
          <ns3:TrackPointExtension>
            <ns3:hr>134</ns3:hr>
            <ns3:cad>47</ns3:cad>
          </ns3:TrackPointExtension>
        </extensions>
      </trkpt>
      <trkpt lat="37.9809339344501495361328125" lon="-107.73416359908878803253173828125">
        <ele>3553.199951171875</ele>
        <time>2026-08-15T13:38:35.000Z</time>
        <extensions>
          <ns3:TrackPointExtension>
            <ns3:hr>136</ns3:hr>
            <ns3:cad>48</ns3:cad>
          </ns3:TrackPointExtension>
        </extensions>
      </trkpt>
      <trkpt lat="37.9809310846030712127685546875" lon="-107.73420986719429492950439453125">
        <ele>3554.60009765625</ele>
        <time>2026-08-15T13:38:39.000Z</time>
        <extensions>
          <ns3:TrackPointExtension>
            <ns3:hr>137</ns3:hr>
            <ns3:cad>47</ns3:cad>
          </ns3:TrackPointExtension>
        </extensions>
      </trkpt>
      <trkpt lat="37.98093133606016635894775390625" lon="-107.73423316888511180877685546875">
        <ele>3555.199951171875</ele>
        <time>2026-08-15T13:38:42.000Z</time>
        <extensions>
          <ns3:TrackPointExtension>
            <ns3:hr>137</ns3:hr>
            <ns3:cad>47</ns3:cad>
          </ns3:TrackPointExtension>
        </extensions>
      </trkpt>
      <trkpt lat="37.9809398017823696136474609375" lon="-107.734270133078098297119140625">
        <ele>3555.60009765625</ele>
        <time>2026-08-15T13:38:46.000Z</time>
        <extensions>
          <ns3:TrackPointExtension>
            <ns3:hr>134</ns3:hr>
            <ns3:cad>48</ns3:cad>
          </ns3:TrackPointExtension>
        </extensions>
      </trkpt>
      <trkpt lat="37.980940304696559906005859375" lon="-107.73427474312484264373779296875">
        <ele>3555.800048828125</ele>
        <time>2026-08-15T13:38:47.000Z</time>
        <extensions>
          <ns3:TrackPointExtension>
            <ns3:hr>133</ns3:hr>
            <ns3:cad>48</ns3:cad>
          </ns3:TrackPointExtension>
        </extensions>
      </trkpt>
      <trkpt lat="37.98094072379171848297119140625" lon="-107.73429687134921550750732421875">
        <ele>3556.199951171875</ele>
        <time>2026-08-15T13:38:49.000Z</time>
        <extensions>
          <ns3:TrackPointExtension>
            <ns3:hr>131</ns3:hr>
            <ns3:cad>48</ns3:cad>
          </ns3:TrackPointExtension>
        </extensions>
      </trkpt>
      <trkpt lat="37.98093871213495731353759765625" lon="-107.7343323267996311187744140625">
        <ele>3556.800048828125</ele>
        <time>2026-08-15T13:38:52.000Z</time>
        <extensions>
          <ns3:TrackPointExtension>
            <ns3:hr>130</ns3:hr>
            <ns3:cad>48</ns3:cad>
          </ns3:TrackPointExtension>
        </extensions>
      </trkpt>
      <trkpt lat="37.9809387959539890289306640625" lon="-107.73438446223735809326171875">
        <ele>3557.199951171875</ele>
        <time>2026-08-15T13:38:56.000Z</time>
        <extensions>
          <ns3:TrackPointExtension>
            <ns3:hr>127</ns3:hr>
            <ns3:cad>48</ns3:cad>
          </ns3:TrackPointExtension>
        </extensions>
      </trkpt>
      <trkpt lat="37.98093653284013271331787109375" lon="-107.73440365679562091827392578125">
        <ele>3557.60009765625</ele>
        <time>2026-08-15T13:38:58.000Z</time>
        <extensions>
          <ns3:TrackPointExtension>
            <ns3:hr>124</ns3:hr>
            <ns3:cad>48</ns3:cad>
          </ns3:TrackPointExtension>
        </extensions>
      </trkpt>
      <trkpt lat="37.98093804158270359039306640625" lon="-107.734423689544200897216796875">
        <ele>3558</ele>
        <time>2026-08-15T13:39:00.000Z</time>
        <extensions>
          <ns3:TrackPointExtension>
            <ns3:hr>124</ns3:hr>
            <ns3:cad>50</ns3:cad>
          </ns3:TrackPointExtension>
        </extensions>
      </trkpt>
      <trkpt lat="37.98094206489622592926025390625" lon="-107.734446488320827484130859375">
        <ele>3559.199951171875</ele>
        <time>2026-08-15T13:39:05.000Z</time>
        <extensions>
          <ns3:TrackPointExtension>
            <ns3:hr>123</ns3:hr>
            <ns3:cad>48</ns3:cad>
          </ns3:TrackPointExtension>
        </extensions>
      </trkpt>
      <trkpt lat="37.98093921504914760589599609375" lon="-107.73445445112884044647216796875">
        <ele>3559.60009765625</ele>
        <time>2026-08-15T13:39:06.000Z</time>
        <extensions>
          <ns3:TrackPointExtension>
            <ns3:hr>123</ns3:hr>
            <ns3:cad>49</ns3:cad>
          </ns3:TrackPointExtension>
        </extensions>
      </trkpt>
      <trkpt lat="37.98093284480273723602294921875" lon="-107.734506167471408843994140625">
        <ele>3560.39990234375</ele>
        <time>2026-08-15T13:39:11.000Z</time>
        <extensions>
          <ns3:TrackPointExtension>
            <ns3:hr>125</ns3:hr>
            <ns3:cad>46</ns3:cad>
          </ns3:TrackPointExtension>
        </extensions>
      </trkpt>
      <trkpt lat="37.98093267716467380523681640625" lon="-107.73451513610780239105224609375">
        <ele>3560.39990234375</ele>
        <time>2026-08-15T13:39:12.000Z</time>
        <extensions>
          <ns3:TrackPointExtension>
            <ns3:hr>124</ns3:hr>
            <ns3:cad>46</ns3:cad>
          </ns3:TrackPointExtension>
        </extensions>
      </trkpt>
      <trkpt lat="37.9809391312301158905029296875" lon="-107.73454606533050537109375">
        <ele>3561.39990234375</ele>
        <time>2026-08-15T13:39:17.000Z</time>
        <extensions>
          <ns3:TrackPointExtension>
            <ns3:hr>125</ns3:hr>
            <ns3:cad>48</ns3:cad>
          </ns3:TrackPointExtension>
        </extensions>
      </trkpt>
      <trkpt lat="37.98095094971358776092529296875" lon="-107.73458152078092098236083984375">
        <ele>3562.39990234375</ele>
        <time>2026-08-15T13:39:22.000Z</time>
        <extensions>
          <ns3:TrackPointExtension>
            <ns3:hr>125</ns3:hr>
            <ns3:cad>48</ns3:cad>
          </ns3:TrackPointExtension>
        </extensions>
      </trkpt>
      <trkpt lat="37.9809558950364589691162109375" lon="-107.73460264317691326141357421875">
        <ele>3562.800048828125</ele>
        <time>2026-08-15T13:39:24.000Z</time>
        <extensions>
          <ns3:TrackPointExtension>
            <ns3:hr>123</ns3:hr>
            <ns3:cad>48</ns3:cad>
          </ns3:TrackPointExtension>
        </extensions>
      </trkpt>
      <trkpt lat="37.980962432920932769775390625" lon="-107.73463600315153598785400390625">
        <ele>3563.60009765625</ele>
        <time>2026-08-15T13:39:29.000Z</time>
        <extensions>
          <ns3:TrackPointExtension>
            <ns3:hr>120</ns3:hr>
            <ns3:cad>48</ns3:cad>
          </ns3:TrackPointExtension>
        </extensions>
      </trkpt>
      <trkpt lat="37.98095338046550750732421875" lon="-107.73466366343200206756591796875">
        <ele>3563.800048828125</ele>
        <time>2026-08-15T13:39:32.000Z</time>
        <extensions>
          <ns3:TrackPointExtension>
            <ns3:hr>120</ns3:hr>
            <ns3:cad>0</ns3:cad>
          </ns3:TrackPointExtension>
        </extensions>
      </trkpt>
      <trkpt lat="37.98094692640006542205810546875" lon="-107.7347269468009471893310546875">
        <ele>3563.800048828125</ele>
        <time>2026-08-15T13:39:38.000Z</time>
        <extensions>
          <ns3:TrackPointExtension>
            <ns3:hr>121</ns3:hr>
            <ns3:cad>0</ns3:cad>
          </ns3:TrackPointExtension>
        </extensions>
      </trkpt>
      <trkpt lat="37.980945669114589691162109375" lon="-107.73473289795219898223876953125">
        <ele>3563.800048828125</ele>
        <time>2026-08-15T13:39:39.000Z</time>
        <extensions>
          <ns3:TrackPointExtension>
            <ns3:hr>121</ns3:hr>
            <ns3:cad>0</ns3:cad>
          </ns3:TrackPointExtension>
        </extensions>
      </trkpt>
      <trkpt lat="37.98094843514263629913330078125" lon="-107.73479257710278034210205078125">
        <ele>3564.39990234375</ele>
        <time>2026-08-15T13:39:45.000Z</time>
        <extensions>
          <ns3:TrackPointExtension>
            <ns3:hr>122</ns3:hr>
            <ns3:cad>0</ns3:cad>
          </ns3:TrackPointExtension>
        </extensions>
      </trkpt>
      <trkpt lat="37.9809485189616680145263671875" lon="-107.73481805808842182159423828125">
        <ele>3564.60009765625</ele>
        <time>2026-08-15T13:39:47.000Z</time>
        <extensions>
          <ns3:TrackPointExtension>
            <ns3:hr>123</ns3:hr>
            <ns3:cad>0</ns3:cad>
          </ns3:TrackPointExtension>
        </extensions>
      </trkpt>
      <trkpt lat="37.98094709403812885284423828125" lon="-107.73488142527639865875244140625">
        <ele>3565</ele>
        <time>2026-08-15T13:39:53.000Z</time>
        <extensions>
          <ns3:TrackPointExtension>
            <ns3:hr>125</ns3:hr>
            <ns3:cad>0</ns3:cad>
          </ns3:TrackPointExtension>
        </extensions>
      </trkpt>
      <trkpt lat="37.98094022087752819061279296875" lon="-107.73491411469876766204833984375">
        <ele>3565</ele>
        <time>2026-08-15T13:39:55.000Z</time>
        <extensions>
          <ns3:TrackPointExtension>
            <ns3:hr>125</ns3:hr>
            <ns3:cad>47</ns3:cad>
          </ns3:TrackPointExtension>
        </extensions>
      </trkpt>
      <trkpt lat="37.98094457946717739105224609375" lon="-107.73496088571846485137939453125">
        <ele>3565.39990234375</ele>
        <time>2026-08-15T13:40:01.000Z</time>
        <extensions>
          <ns3:TrackPointExtension>
            <ns3:hr>123</ns3:hr>
            <ns3:cad>0</ns3:cad>
          </ns3:TrackPointExtension>
        </extensions>
      </trkpt>
      <trkpt lat="37.9809404723346233367919921875" lon="-107.73500078357756137847900390625">
        <ele>3565</ele>
        <time>2026-08-15T13:40:06.000Z</time>
        <extensions>
          <ns3:TrackPointExtension>
            <ns3:hr>121</ns3:hr>
            <ns3:cad>0</ns3:cad>
          </ns3:TrackPointExtension>
        </extensions>
      </trkpt>
      <trkpt lat="37.9809398017823696136474609375" lon="-107.7350327186286449432373046875">
        <ele>3564.60009765625</ele>
        <time>2026-08-15T13:40:12.000Z</time>
        <extensions>
          <ns3:TrackPointExtension>
            <ns3:hr>121</ns3:hr>
            <ns3:cad>0</ns3:cad>
          </ns3:TrackPointExtension>
        </extensions>
      </trkpt>
      <trkpt lat="37.98093971796333789825439453125" lon="-107.7350328862667083740234375">
        <ele>3564.60009765625</ele>
        <time>2026-08-15T13:40:13.000Z</time>
        <extensions>
          <ns3:TrackPointExtension>
            <ns3:hr>120</ns3:hr>
            <ns3:cad>0</ns3:cad>
          </ns3:TrackPointExtension>
        </extensions>
      </trkpt>
      <trkpt lat="37.98093468882143497467041015625" lon="-107.7350382506847381591796875">
        <ele>3564.60009765625</ele>
        <time>2026-08-15T13:40:19.000Z</time>
        <extensions>
          <ns3:TrackPointExtension>
            <ns3:hr>118</ns3:hr>
            <ns3:cad>0</ns3:cad>
          </ns3:TrackPointExtension>
        </extensions>
      </trkpt>
      <trkpt lat="37.980931587517261505126953125" lon="-107.73504051379859447479248046875">
        <ele>3564.39990234375</ele>
        <time>2026-08-15T13:40:22.000Z</time>
        <extensions>
          <ns3:TrackPointExtension>
            <ns3:hr>116</ns3:hr>
            <ns3:cad>0</ns3:cad>
          </ns3:TrackPointExtension>
        </extensions>
      </trkpt>
      <trkpt lat="37.98092521727085113525390625" lon="-107.73504319600760936737060546875">
        <ele>3564.39990234375</ele>
        <time>2026-08-15T13:40:28.000Z</time>
        <extensions>
          <ns3:TrackPointExtension>
            <ns3:hr>114</ns3:hr>
            <ns3:cad>0</ns3:cad>
          </ns3:TrackPointExtension>
        </extensions>
      </trkpt>
      <trkpt lat="37.98092521727085113525390625" lon="-107.73504319600760936737060546875">
        <ele>3564.39990234375</ele>
        <time>2026-08-15T13:40:29.000Z</time>
        <extensions>
          <ns3:TrackPointExtension>
            <ns3:hr>113</ns3:hr>
            <ns3:cad>0</ns3:cad>
          </ns3:TrackPointExtension>
        </extensions>
      </trkpt>
      <trkpt lat="37.98093183897435665130615234375" lon="-107.735099606215953826904296875">
        <ele>3564.199951171875</ele>
        <time>2026-08-15T13:40:35.000Z</time>
        <extensions>
          <ns3:TrackPointExtension>
            <ns3:hr>111</ns3:hr>
            <ns3:cad>47</ns3:cad>
          </ns3:TrackPointExtension>
        </extensions>
      </trkpt>
      <trkpt lat="37.980932928621768951416015625" lon="-107.7351125143468379974365234375">
        <ele>3564.60009765625</ele>
        <time>2026-08-15T13:40:36.000Z</time>
        <extensions>
          <ns3:TrackPointExtension>
            <ns3:hr>111</ns3:hr>
            <ns3:cad>0</ns3:cad>
          </ns3:TrackPointExtension>
        </extensions>
      </trkpt>
      <trkpt lat="37.980959080159664154052734375" lon="-107.7351195551455020904541015625">
        <ele>3565.39990234375</ele>
        <time>2026-08-15T13:40:42.000Z</time>
        <extensions>
          <ns3:TrackPointExtension>
            <ns3:hr>109</ns3:hr>
            <ns3:cad>41</ns3:cad>
          </ns3:TrackPointExtension>
        </extensions>
      </trkpt>
      <trkpt lat="37.9809656180441379547119140625" lon="-107.73511293344199657440185546875">
        <ele>3565.800048828125</ele>
        <time>2026-08-15T13:40:43.000Z</time>
        <extensions>
          <ns3:TrackPointExtension>
            <ns3:hr>110</ns3:hr>
            <ns3:cad>41</ns3:cad>
          </ns3:TrackPointExtension>
        </extensions>
      </trkpt>
      <trkpt lat="37.98098020255565643310546875" lon="-107.73508074693381786346435546875">
        <ele>3566.800048828125</ele>
        <time>2026-08-15T13:40:47.000Z</time>
        <extensions>
          <ns3:TrackPointExtension>
            <ns3:hr>112</ns3:hr>
            <ns3:cad>46</ns3:cad>
          </ns3:TrackPointExtension>
        </extensions>
      </trkpt>
      <trkpt lat="37.980983220040798187255859375" lon="-107.7350722812116146087646484375">
        <ele>3567</ele>
        <time>2026-08-15T13:40:48.000Z</time>
        <extensions>
          <ns3:TrackPointExtension>
            <ns3:hr>112</ns3:hr>
            <ns3:cad>46</ns3:cad>
          </ns3:TrackPointExtension>
        </extensions>
      </trkpt>
      <trkpt lat="37.98100191168487071990966796875" lon="-107.7350357361137866973876953125">
        <ele>3568</ele>
        <time>2026-08-15T13:40:53.000Z</time>
        <extensions>
          <ns3:TrackPointExtension>
            <ns3:hr>112</ns3:hr>
            <ns3:cad>45</ns3:cad>
          </ns3:TrackPointExtension>
        </extensions>
      </trkpt>
      <trkpt lat="37.9810098744928836822509765625" lon="-107.73501939140260219573974609375">
        <ele>3568</ele>
        <time>2026-08-15T13:40:55.000Z</time>
        <extensions>
          <ns3:TrackPointExtension>
            <ns3:hr>112</ns3:hr>
            <ns3:cad>0</ns3:cad>
          </ns3:TrackPointExtension>
        </extensions>
      </trkpt>
      <trkpt lat="37.98102722503244876861572265625" lon="-107.734966836869716644287109375">
        <ele>3569.199951171875</ele>
        <time>2026-08-15T13:41:01.000Z</time>
        <extensions>
          <ns3:TrackPointExtension>
            <ns3:hr>112</ns3:hr>
            <ns3:cad>0</ns3:cad>
          </ns3:TrackPointExtension>
        </extensions>
      </trkpt>
      <trkpt lat="37.98104130662977695465087890625" lon="-107.73492450825870037078857421875">
        <ele>3570</ele>
        <time>2026-08-15T13:41:07.000Z</time>
        <extensions>
          <ns3:TrackPointExtension>
            <ns3:hr>110</ns3:hr>
            <ns3:cad>0</ns3:cad>
          </ns3:TrackPointExtension>
        </extensions>
      </trkpt>
      <trkpt lat="37.98104667104780673980712890625" lon="-107.73491210304200649261474609375">
        <ele>3570.199951171875</ele>
        <time>2026-08-15T13:41:09.000Z</time>
        <extensions>
          <ns3:TrackPointExtension>
            <ns3:hr>110</ns3:hr>
            <ns3:cad>0</ns3:cad>
          </ns3:TrackPointExtension>
        </extensions>
      </trkpt>
      <trkpt lat="37.9810665361583232879638671875" lon="-107.7348801679909229278564453125">
        <ele>3571.199951171875</ele>
        <time>2026-08-15T13:41:13.000Z</time>
        <extensions>
          <ns3:TrackPointExtension>
            <ns3:hr>112</ns3:hr>
            <ns3:cad>0</ns3:cad>
          </ns3:TrackPointExtension>
        </extensions>
      </trkpt>
      <trkpt lat="37.9810729064047336578369140625" lon="-107.7348744682967662811279296875">
        <ele>3571.39990234375</ele>
        <time>2026-08-15T13:41:14.000Z</time>
        <extensions>
          <ns3:TrackPointExtension>
            <ns3:hr>113</ns3:hr>
            <ns3:cad>0</ns3:cad>
          </ns3:TrackPointExtension>
        </extensions>
      </trkpt>
      <trkpt lat="37.9810841381549835205078125" lon="-107.73485812358558177947998046875">
        <ele>3572.60009765625</ele>
        <time>2026-08-15T13:41:18.000Z</time>
        <extensions>
          <ns3:TrackPointExtension>
            <ns3:hr>115</ns3:hr>
            <ns3:cad>43</ns3:cad>
          </ns3:TrackPointExtension>
        </extensions>
      </trkpt>
      <trkpt lat="37.98109729774296283721923828125" lon="-107.73483381606638431549072265625">
        <ele>3573.39990234375</ele>
        <time>2026-08-15T13:41:23.000Z</time>
        <extensions>
          <ns3:TrackPointExtension>
            <ns3:hr>117</ns3:hr>
            <ns3:cad>41</ns3:cad>
          </ns3:TrackPointExtension>
        </extensions>
      </trkpt>
      <trkpt lat="37.98110148869454860687255859375" lon="-107.7348231710493564605712890625">
        <ele>3573.60009765625</ele>
        <time>2026-08-15T13:41:24.000Z</time>
        <extensions>
          <ns3:TrackPointExtension>
            <ns3:hr>117</ns3:hr>
            <ns3:cad>0</ns3:cad>
          </ns3:TrackPointExtension>
        </extensions>
      </trkpt>
      <trkpt lat="37.981122024357318878173828125" lon="-107.734787464141845703125">
        <ele>3574</ele>
        <time>2026-08-15T13:41:29.000Z</time>
        <extensions>
          <ns3:TrackPointExtension>
            <ns3:hr>118</ns3:hr>
            <ns3:cad>0</ns3:cad>
          </ns3:TrackPointExtension>
        </extensions>
      </trkpt>
      <trkpt lat="37.98113350756466388702392578125" lon="-107.7347534336149692535400390625">
        <ele>3574.60009765625</ele>
        <time>2026-08-15T13:41:33.000Z</time>
        <extensions>
          <ns3:TrackPointExtension>
            <ns3:hr>120</ns3:hr>
            <ns3:cad>0</ns3:cad>
          </ns3:TrackPointExtension>
        </extensions>
      </trkpt>
      <trkpt lat="37.981136105954647064208984375" lon="-107.73473692126572132110595703125">
        <ele>3574.800048828125</ele>
        <time>2026-08-15T13:41:34.000Z</time>
        <extensions>
          <ns3:TrackPointExtension>
            <ns3:hr>123</ns3:hr>
            <ns3:cad>0</ns3:cad>
          </ns3:TrackPointExtension>
        </extensions>
      </trkpt>
      <trkpt lat="37.98113803379237651824951171875" lon="-107.73472636006772518157958984375">
        <ele>3574.800048828125</ele>
        <time>2026-08-15T13:41:35.000Z</time>
        <extensions>
          <ns3:TrackPointExtension>
            <ns3:hr>128</ns3:hr>
            <ns3:cad>0</ns3:cad>
          </ns3:TrackPointExtension>
        </extensions>
      </trkpt>
      <trkpt lat="37.98113803379237651824951171875" lon="-107.73470926098525524139404296875">
        <ele>3574.800048828125</ele>
        <time>2026-08-15T13:41:36.000Z</time>
        <extensions>
          <ns3:TrackPointExtension>
            <ns3:hr>128</ns3:hr>
            <ns3:cad>0</ns3:cad>
          </ns3:TrackPointExtension>
        </extensions>
      </trkpt>
      <trkpt lat="37.98114272765815258026123046875" lon="-107.734650671482086181640625">
        <ele>3575</ele>
        <time>2026-08-15T13:41:40.000Z</time>
        <extensions>
          <ns3:TrackPointExtension>
            <ns3:hr>131</ns3:hr>
            <ns3:cad>0</ns3:cad>
          </ns3:TrackPointExtension>
        </extensions>
      </trkpt>
      <trkpt lat="37.98115395940840244293212890625" lon="-107.7345908246934413909912109375">
        <ele>3575</ele>
        <time>2026-08-15T13:41:45.000Z</time>
        <extensions>
          <ns3:TrackPointExtension>
            <ns3:hr>130</ns3:hr>
            <ns3:cad>51</ns3:cad>
          </ns3:TrackPointExtension>
        </extensions>
      </trkpt>
      <trkpt lat="37.98117105849087238311767578125" lon="-107.7345475740730762481689453125">
        <ele>3575</ele>
        <time>2026-08-15T13:41:51.000Z</time>
        <extensions>
          <ns3:TrackPointExtension>
            <ns3:hr>128</ns3:hr>
            <ns3:cad>51</ns3:cad>
          </ns3:TrackPointExtension>
        </extensions>
      </trkpt>
      <trkpt lat="37.98117122612893581390380859375" lon="-107.73454137146472930908203125">
        <ele>3575</ele>
        <time>2026-08-15T13:41:52.000Z</time>
        <extensions>
          <ns3:TrackPointExtension>
            <ns3:hr>128</ns3:hr>
            <ns3:cad>51</ns3:cad>
          </ns3:TrackPointExtension>
        </extensions>
      </trkpt>
      <trkpt lat="37.9811986349523067474365234375" lon="-107.73446668870747089385986328125">
        <ele>3575.60009765625</ele>
        <time>2026-08-15T13:41:58.000Z</time>
        <extensions>
          <ns3:TrackPointExtension>
            <ns3:hr>128</ns3:hr>
            <ns3:cad>49</ns3:cad>
          </ns3:TrackPointExtension>
        </extensions>
      </trkpt>
      <trkpt lat="37.9812117107212543487548828125" lon="-107.7344181574881076812744140625">
        <ele>3575.199951171875</ele>
        <time>2026-08-15T13:42:02.000Z</time>
        <extensions>
          <ns3:TrackPointExtension>
            <ns3:hr>125</ns3:hr>
            <ns3:cad>0</ns3:cad>
          </ns3:TrackPointExtension>
        </extensions>
      </trkpt>
      <trkpt lat="37.9812140576541423797607421875" lon="-107.7343869768083095550537109375">
        <ele>3575</ele>
        <time>2026-08-15T13:42:04.000Z</time>
        <extensions>
          <ns3:TrackPointExtension>
            <ns3:hr>124</ns3:hr>
            <ns3:cad>0</ns3:cad>
          </ns3:TrackPointExtension>
        </extensions>
      </trkpt>
      <trkpt lat="37.98123157583177089691162109375" lon="-107.7343135513365268707275390625">
        <ele>3575.39990234375</ele>
        <time>2026-08-15T13:42:10.000Z</time>
        <extensions>
          <ns3:TrackPointExtension>
            <ns3:hr>122</ns3:hr>
            <ns3:cad>52</ns3:cad>
          </ns3:TrackPointExtension>
        </extensions>
      </trkpt>
      <trkpt lat="37.98124766908586025238037109375" lon="-107.73425395600497722625732421875">
        <ele>3575.39990234375</ele>
        <time>2026-08-15T13:42:16.000Z</time>
        <extensions>
          <ns3:TrackPointExtension>
            <ns3:hr>120</ns3:hr>
            <ns3:cad>48</ns3:cad>
          </ns3:TrackPointExtension>
        </extensions>
      </trkpt>
      <trkpt lat="37.981260158121585845947265625" lon="-107.73422260768711566925048828125">
        <ele>3574.60009765625</ele>
        <time>2026-08-15T13:42:20.000Z</time>
        <extensions>
          <ns3:TrackPointExtension>
            <ns3:hr>117</ns3:hr>
            <ns3:cad>0</ns3:cad>
          </ns3:TrackPointExtension>
        </extensions>
      </trkpt>
      <trkpt lat="37.98126745037734508514404296875" lon="-107.73421355523169040679931640625">
        <ele>3574.800048828125</ele>
        <time>2026-08-15T13:42:22.000Z</time>
        <extensions>
          <ns3:TrackPointExtension>
            <ns3:hr>117</ns3:hr>
            <ns3:cad>49</ns3:cad>
          </ns3:TrackPointExtension>
        </extensions>
      </trkpt>
      <trkpt lat="37.98129267990589141845703125" lon="-107.73419125936925411224365234375">
        <ele>3576</ele>
        <time>2026-08-15T13:42:28.000Z</time>
        <extensions>
          <ns3:TrackPointExtension>
            <ns3:hr>115</ns3:hr>
            <ns3:cad>79</ns3:cad>
          </ns3:TrackPointExtension>
        </extensions>
      </trkpt>
      <trkpt lat="37.9813049174845218658447265625" lon="-107.73416544310748577117919921875">
        <ele>3576.60009765625</ele>
        <time>2026-08-15T13:42:34.000Z</time>
        <extensions>
          <ns3:TrackPointExtension>
            <ns3:hr>113</ns3:hr>
            <ns3:cad>79</ns3:cad>
          </ns3:TrackPointExtension>
        </extensions>
      </trkpt>
      <trkpt lat="37.9813122935593128204345703125" lon="-107.73414080031216144561767578125">
        <ele>3576.800048828125</ele>
        <time>2026-08-15T13:42:36.000Z</time>
        <extensions>
          <ns3:TrackPointExtension>
            <ns3:hr>113</ns3:hr>
            <ns3:cad>0</ns3:cad>
          </ns3:TrackPointExtension>
        </extensions>
      </trkpt>
      <trkpt lat="37.981310449540615081787109375" lon="-107.73410375230014324188232421875">
        <ele>3576.39990234375</ele>
        <time>2026-08-15T13:42:41.000Z</time>
        <extensions>
          <ns3:TrackPointExtension>
            <ns3:hr>113</ns3:hr>
            <ns3:cad>0</ns3:cad>
          </ns3:TrackPointExtension>
        </extensions>
      </trkpt>
      <trkpt lat="37.98132545314729213714599609375" lon="-107.7340708114206790924072265625">
        <ele>3575.60009765625</ele>
        <time>2026-08-15T13:42:45.000Z</time>
        <extensions>
          <ns3:TrackPointExtension>
            <ns3:hr>110</ns3:hr>
            <ns3:cad>0</ns3:cad>
          </ns3:TrackPointExtension>
        </extensions>
      </trkpt>
      <trkpt lat="37.98133148811757564544677734375" lon="-107.73404826410114765167236328125">
        <ele>3575.800048828125</ele>
        <time>2026-08-15T13:42:49.000Z</time>
        <extensions>
          <ns3:TrackPointExtension>
            <ns3:hr>109</ns3:hr>
            <ns3:cad>0</ns3:cad>
          </ns3:TrackPointExtension>
        </extensions>
      </trkpt>
      <trkpt lat="37.9813498444855213165283203125" lon="-107.734026052057743072509765625">
        <ele>3576.39990234375</ele>
        <time>2026-08-15T13:42:55.000Z</time>
        <extensions>
          <ns3:TrackPointExtension>
            <ns3:hr>106</ns3:hr>
            <ns3:cad>0</ns3:cad>
          </ns3:TrackPointExtension>
        </extensions>
      </trkpt>
      <trkpt lat="37.9813495092093944549560546875" lon="-107.734028398990631103515625">
        <ele>3576.39990234375</ele>
        <time>2026-08-15T13:42:56.000Z</time>
        <extensions>
          <ns3:TrackPointExtension>
            <ns3:hr>105</ns3:hr>
            <ns3:cad>0</ns3:cad>
          </ns3:TrackPointExtension>
        </extensions>
      </trkpt>
      <trkpt lat="37.98137004487216472625732421875" lon="-107.73399981670081615447998046875">
        <ele>3576.39990234375</ele>
        <time>2026-08-15T13:43:01.000Z</time>
        <extensions>
          <ns3:TrackPointExtension>
            <ns3:hr>105</ns3:hr>
            <ns3:cad>0</ns3:cad>
          </ns3:TrackPointExtension>
        </extensions>
      </trkpt>
      <trkpt lat="37.9813645966351032257080078125" lon="-107.7339879982173442840576171875">
        <ele>3575.60009765625</ele>
        <time>2026-08-15T13:43:07.000Z</time>
        <extensions>
          <ns3:TrackPointExtension>
            <ns3:hr>103</ns3:hr>
            <ns3:cad>0</ns3:cad>
          </ns3:TrackPointExtension>
        </extensions>
      </trkpt>
      <trkpt lat="37.98136451281607151031494140625" lon="-107.73397416807711124420166015625">
        <ele>3575.39990234375</ele>
        <time>2026-08-15T13:43:08.000Z</time>
        <extensions>
          <ns3:TrackPointExtension>
            <ns3:hr>103</ns3:hr>
            <ns3:cad>0</ns3:cad>
          </ns3:TrackPointExtension>
        </extensions>
      </trkpt>
      <trkpt lat="37.98136400990188121795654296875" lon="-107.73395597934722900390625">
        <ele>3575</ele>
        <time>2026-08-15T13:43:10.000Z</time>
        <extensions>
          <ns3:TrackPointExtension>
            <ns3:hr>106</ns3:hr>
            <ns3:cad>0</ns3:cad>
          </ns3:TrackPointExtension>
        </extensions>
      </trkpt>
      <trkpt lat="37.9813642613589763641357421875" lon="-107.733948267996311187744140625">
        <ele>3575.199951171875</ele>
        <time>2026-08-15T13:43:14.000Z</time>
        <extensions>
          <ns3:TrackPointExtension>
            <ns3:hr>105</ns3:hr>
            <ns3:cad>0</ns3:cad>
          </ns3:TrackPointExtension>
        </extensions>
      </trkpt>
      <trkpt lat="37.98139669932425022125244140625" lon="-107.73392152972519397735595703125">
        <ele>3576.60009765625</ele>
        <time>2026-08-15T13:43:20.000Z</time>
        <extensions>
          <ns3:TrackPointExtension>
            <ns3:hr>105</ns3:hr>
            <ns3:cad>0</ns3:cad>
          </ns3:TrackPointExtension>
        </extensions>
      </trkpt>
      <trkpt lat="37.98141044564545154571533203125" lon="-107.73386755026876926422119140625">
        <ele>3576.199951171875</ele>
        <time>2026-08-15T13:43:26.000Z</time>
        <extensions>
          <ns3:TrackPointExtension>
            <ns3:hr>106</ns3:hr>
            <ns3:cad>0</ns3:cad>
          </ns3:TrackPointExtension>
        </extensions>
      </trkpt>
      <trkpt lat="37.981431819498538970947265625" lon="-107.73384667932987213134765625">
        <ele>3576.60009765625</ele>
        <time>2026-08-15T13:43:31.000Z</time>
        <extensions>
          <ns3:TrackPointExtension>
            <ns3:hr>104</ns3:hr>
            <ns3:cad>0</ns3:cad>
          </ns3:TrackPointExtension>
        </extensions>
      </trkpt>
      <trkpt lat="37.98143760301172733306884765625" lon="-107.73383771069347858428955078125">
        <ele>3576.800048828125</ele>
        <time>2026-08-15T13:43:32.000Z</time>
        <extensions>
          <ns3:TrackPointExtension>
            <ns3:hr>104</ns3:hr>
            <ns3:cad>0</ns3:cad>
          </ns3:TrackPointExtension>
        </extensions>
      </trkpt>
      <trkpt lat="37.9814658500254154205322265625" lon="-107.73381625302135944366455078125">
        <ele>3577.39990234375</ele>
        <time>2026-08-15T13:43:37.000Z</time>
        <extensions>
          <ns3:TrackPointExtension>
            <ns3:hr>103</ns3:hr>
            <ns3:cad>0</ns3:cad>
          </ns3:TrackPointExtension>
        </extensions>
      </trkpt>
      <trkpt lat="37.98148177564144134521484375" lon="-107.733798064291477203369140625">
        <ele>3578</ele>
        <time>2026-08-15T13:43:40.000Z</time>
        <extensions>
          <ns3:TrackPointExtension>
            <ns3:hr>104</ns3:hr>
            <ns3:cad>0</ns3:cad>
          </ns3:TrackPointExtension>
        </extensions>
      </trkpt>
      <trkpt lat="37.9814930073916912078857421875" lon="-107.73378842510282993316650390625">
        <ele>3579</ele>
        <time>2026-08-15T13:43:43.000Z</time>
        <extensions>
          <ns3:TrackPointExtension>
            <ns3:hr>104</ns3:hr>
            <ns3:cad>0</ns3:cad>
          </ns3:TrackPointExtension>
        </extensions>
      </trkpt>
      <trkpt lat="37.98151354305446147918701171875" lon="-107.73378507234156131744384765625">
        <ele>3579.199951171875</ele>
        <time>2026-08-15T13:43:49.000Z</time>
        <extensions>
          <ns3:TrackPointExtension>
            <ns3:hr>106</ns3:hr>
            <ns3:cad>0</ns3:cad>
          </ns3:TrackPointExtension>
        </extensions>
      </trkpt>
      <trkpt lat="37.98151806928217411041259765625" lon="-107.73379035294055938720703125">
        <ele>3579.199951171875</ele>
        <time>2026-08-15T13:43:50.000Z</time>
        <extensions>
          <ns3:TrackPointExtension>
            <ns3:hr>105</ns3:hr>
            <ns3:cad>0</ns3:cad>
          </ns3:TrackPointExtension>
        </extensions>
      </trkpt>
      <trkpt lat="37.98153718002140522003173828125" lon="-107.7337955497205257415771484375">
        <ele>3580</ele>
        <time>2026-08-15T13:43:56.000Z</time>
        <extensions>
          <ns3:TrackPointExtension>
            <ns3:hr>104</ns3:hr>
            <ns3:cad>0</ns3:cad>
          </ns3:TrackPointExtension>
        </extensions>
      </trkpt>
      <trkpt lat="37.98154271207749843597412109375" lon="-107.73379328660666942596435546875">
        <ele>3580.39990234375</ele>
        <time>2026-08-15T13:43:57.000Z</time>
        <extensions>
          <ns3:TrackPointExtension>
            <ns3:hr>104</ns3:hr>
            <ns3:cad>0</ns3:cad>
          </ns3:TrackPointExtension>
        </extensions>
      </trkpt>
      <trkpt lat="37.98155796714127063751220703125" lon="-107.7337883412837982177734375">
        <ele>3581.199951171875</ele>
        <time>2026-08-15T13:44:02.000Z</time>
        <extensions>
          <ns3:TrackPointExtension>
            <ns3:hr>105</ns3:hr>
            <ns3:cad>0</ns3:cad>
          </ns3:TrackPointExtension>
        </extensions>
      </trkpt>
      <trkpt lat="37.98155796714127063751220703125" lon="-107.7337883412837982177734375">
        <ele>3581.39990234375</ele>
        <time>2026-08-15T13:44:03.000Z</time>
        <extensions>
          <ns3:TrackPointExtension>
            <ns3:hr>111</ns3:hr>
            <ns3:cad>0</ns3:cad>
          </ns3:TrackPointExtension>
        </extensions>
      </trkpt>
      <trkpt lat="37.98155796714127063751220703125" lon="-107.7337883412837982177734375">
        <ele>3581.39990234375</ele>
        <time>2026-08-15T13:44:04.000Z</time>
        <extensions>
          <ns3:TrackPointExtension>
            <ns3:hr>113</ns3:hr>
            <ns3:cad>0</ns3:cad>
          </ns3:TrackPointExtension>
        </extensions>
      </trkpt>
      <trkpt lat="37.98155796714127063751220703125" lon="-107.7337883412837982177734375">
        <ele>3581</ele>
        <time>2026-08-15T13:44:07.000Z</time>
        <extensions>
          <ns3:TrackPointExtension>
            <ns3:hr>116</ns3:hr>
            <ns3:cad>0</ns3:cad>
          </ns3:TrackPointExtension>
        </extensions>
      </trkpt>
      <trkpt lat="37.98155796714127063751220703125" lon="-107.7337883412837982177734375">
        <ele>3580.60009765625</ele>
        <time>2026-08-15T13:44:11.000Z</time>
        <extensions>
          <ns3:TrackPointExtension>
            <ns3:hr>119</ns3:hr>
            <ns3:cad>0</ns3:cad>
          </ns3:TrackPointExtension>
        </extensions>
      </trkpt>
      <trkpt lat="37.98155796714127063751220703125" lon="-107.7337883412837982177734375">
        <ele>3580.800048828125</ele>
        <time>2026-08-15T13:44:16.000Z</time>
        <extensions>
          <ns3:TrackPointExtension>
            <ns3:hr>116</ns3:hr>
            <ns3:cad>0</ns3:cad>
          </ns3:TrackPointExtension>
        </extensions>
      </trkpt>
      <trkpt lat="37.98155796714127063751220703125" lon="-107.7337883412837982177734375">
        <ele>3580.800048828125</ele>
        <time>2026-08-15T13:44:19.000Z</time>
        <extensions>
          <ns3:TrackPointExtension>
            <ns3:hr>114</ns3:hr>
            <ns3:cad>0</ns3:cad>
          </ns3:TrackPointExtension>
        </extensions>
      </trkpt>
      <trkpt lat="37.98155796714127063751220703125" lon="-107.7337883412837982177734375">
        <ele>3580.800048828125</ele>
        <time>2026-08-15T13:44:25.000Z</time>
        <extensions>
          <ns3:TrackPointExtension>
            <ns3:hr>114</ns3:hr>
            <ns3:cad>0</ns3:cad>
          </ns3:TrackPointExtension>
        </extensions>
      </trkpt>
      <trkpt lat="37.98157607205212116241455078125" lon="-107.73378021083772182464599609375">
        <ele>3581.60009765625</ele>
        <time>2026-08-15T13:44:28.000Z</time>
        <extensions>
          <ns3:TrackPointExtension>
            <ns3:hr>111</ns3:hr>
            <ns3:cad>0</ns3:cad>
          </ns3:TrackPointExtension>
        </extensions>
      </trkpt>
      <trkpt lat="37.9815885610878467559814453125" lon="-107.73378138430416584014892578125">
        <ele>3582.199951171875</ele>
        <time>2026-08-15T13:44:30.000Z</time>
        <extensions>
          <ns3:TrackPointExtension>
            <ns3:hr>110</ns3:hr>
            <ns3:cad>0</ns3:cad>
          </ns3:TrackPointExtension>
        </extensions>
      </trkpt>
      <trkpt lat="37.9815942607820034027099609375" lon="-107.73378289304673671722412109375">
        <ele>3582.39990234375</ele>
        <time>2026-08-15T13:44:31.000Z</time>
        <extensions>
          <ns3:TrackPointExtension>
            <ns3:hr>111</ns3:hr>
            <ns3:cad>0</ns3:cad>
          </ns3:TrackPointExtension>
        </extensions>
      </trkpt>
      <trkpt lat="37.981617562472820281982421875" lon="-107.7337831445038318634033203125">
        <ele>3583.39990234375</ele>
        <time>2026-08-15T13:44:35.000Z</time>
        <extensions>
          <ns3:TrackPointExtension>
            <ns3:hr>110</ns3:hr>
            <ns3:cad>0</ns3:cad>
          </ns3:TrackPointExtension>
        </extensions>
      </trkpt>
      <trkpt lat="37.9816230945289134979248046875" lon="-107.73378188721835613250732421875">
        <ele>3583.60009765625</ele>
        <time>2026-08-15T13:44:36.000Z</time>
        <extensions>
          <ns3:TrackPointExtension>
            <ns3:hr>109</ns3:hr>
            <ns3:cad>0</ns3:cad>
          </ns3:TrackPointExtension>
        </extensions>
      </trkpt>
      <trkpt lat="37.98164580948650836944580078125" lon="-107.7337878383696079254150390625">
        <ele>3584</ele>
        <time>2026-08-15T13:44:42.000Z</time>
        <extensions>
          <ns3:TrackPointExtension>
            <ns3:hr>113</ns3:hr>
            <ns3:cad>0</ns3:cad>
          </ns3:TrackPointExtension>
        </extensions>
      </trkpt>
      <trkpt lat="37.98165100626647472381591796875" lon="-107.73378230631351470947265625">
        <ele>3584.199951171875</ele>
        <time>2026-08-15T13:44:43.000Z</time>
        <extensions>
          <ns3:TrackPointExtension>
            <ns3:hr>113</ns3:hr>
            <ns3:cad>0</ns3:cad>
          </ns3:TrackPointExtension>
        </extensions>
      </trkpt>
      <trkpt lat="37.98166039399802684783935546875" lon="-107.73377903737127780914306640625">
        <ele>3584.60009765625</ele>
        <time>2026-08-15T13:44:44.000Z</time>
        <extensions>
          <ns3:TrackPointExtension>
            <ns3:hr>113</ns3:hr>
            <ns3:cad>0</ns3:cad>
          </ns3:TrackPointExtension>
        </extensions>
      </trkpt>
      <trkpt lat="37.98167145811021327972412109375" lon="-107.73378641344606876373291015625">
        <ele>3585.39990234375</ele>
        <time>2026-08-15T13:44:47.000Z</time>
        <extensions>
          <ns3:TrackPointExtension>
            <ns3:hr>111</ns3:hr>
            <ns3:cad>0</ns3:cad>
          </ns3:TrackPointExtension>
        </extensions>
      </trkpt>
      <trkpt lat="37.98168000765144824981689453125" lon="-107.73378272540867328643798828125">
        <ele>3585.60009765625</ele>
        <time>2026-08-15T13:44:49.000Z</time>
        <extensions>
          <ns3:TrackPointExtension>
            <ns3:hr>113</ns3:hr>
            <ns3:cad>0</ns3:cad>
          </ns3:TrackPointExtension>
        </extensions>
      </trkpt>
      <trkpt lat="37.98168755136430263519287109375" lon="-107.73379412479698657989501953125">
        <ele>3586.800048828125</ele>
        <time>2026-08-15T13:44:55.000Z</time>
        <extensions>
          <ns3:TrackPointExtension>
            <ns3:hr>115</ns3:hr>
            <ns3:cad>0</ns3:cad>
          </ns3:TrackPointExtension>
        </extensions>
      </trkpt>
      <trkpt lat="37.98168562352657318115234375" lon="-107.73380183614790439605712890625">
        <ele>3587.800048828125</ele>
        <time>2026-08-15T13:44:58.000Z</time>
        <extensions>
          <ns3:TrackPointExtension>
            <ns3:hr>116</ns3:hr>
            <ns3:cad>0</ns3:cad>
          </ns3:TrackPointExtension>
        </extensions>
      </trkpt>
      <trkpt lat="37.981685958802700042724609375" lon="-107.73380619473755359649658203125">
        <ele>3588.39990234375</ele>
        <time>2026-08-15T13:45:02.000Z</time>
        <extensions>
          <ns3:TrackPointExtension>
            <ns3:hr>116</ns3:hr>
            <ns3:cad>0</ns3:cad>
          </ns3:TrackPointExtension>
        </extensions>
      </trkpt>
      <trkpt lat="37.981690652668476104736328125" lon="-107.73381809704005718231201171875">
        <ele>3588.800048828125</ele>
        <time>2026-08-15T13:45:07.000Z</time>
        <extensions>
          <ns3:TrackPointExtension>
            <ns3:hr>117</ns3:hr>
            <ns3:cad>0</ns3:cad>
          </ns3:TrackPointExtension>
        </extensions>
      </trkpt>
      <trkpt lat="37.98169123940169811248779296875" lon="-107.7338166721165180206298828125">
        <ele>3589</ele>
        <time>2026-08-15T13:45:08.000Z</time>
        <extensions>
          <ns3:TrackPointExtension>
            <ns3:hr>117</ns3:hr>
            <ns3:cad>0</ns3:cad>
          </ns3:TrackPointExtension>
        </extensions>
      </trkpt>
      <trkpt lat="37.98168855719268321990966796875" lon="-107.7338146604597568511962890625">
        <ele>3589.39990234375</ele>
        <time>2026-08-15T13:45:14.000Z</time>
        <extensions>
          <ns3:TrackPointExtension>
            <ns3:hr>117</ns3:hr>
            <ns3:cad>0</ns3:cad>
          </ns3:TrackPointExtension>
        </extensions>
      </trkpt>
      <trkpt lat="37.98168922774493694305419921875" lon="-107.7338210307061672210693359375">
        <ele>3589.800048828125</ele>
        <time>2026-08-15T13:45:16.000Z</time>
        <extensions>
          <ns3:TrackPointExtension>
            <ns3:hr>114</ns3:hr>
            <ns3:cad>0</ns3:cad>
          </ns3:TrackPointExtension>
        </extensions>
      </trkpt>
      <trkpt lat="37.9816921614110469818115234375" lon="-107.733822874724864959716796875">
        <ele>3590</ele>
        <time>2026-08-15T13:45:17.000Z</time>
        <extensions>
          <ns3:TrackPointExtension>
            <ns3:hr>115</ns3:hr>
            <ns3:cad>0</ns3:cad>
          </ns3:TrackPointExtension>
        </extensions>
      </trkpt>
      <trkpt lat="37.98170448280870914459228515625" lon="-107.7338203601539134979248046875">
        <ele>3590.60009765625</ele>
        <time>2026-08-15T13:45:22.000Z</time>
        <extensions>
          <ns3:TrackPointExtension>
            <ns3:hr>112</ns3:hr>
            <ns3:cad>0</ns3:cad>
          </ns3:TrackPointExtension>
        </extensions>
      </trkpt>
      <trkpt lat="37.98170817084610462188720703125" lon="-107.73382983170449733734130859375">
        <ele>3591</ele>
        <time>2026-08-15T13:45:25.000Z</time>
        <extensions>
          <ns3:TrackPointExtension>
            <ns3:hr>112</ns3:hr>
            <ns3:cad>0</ns3:cad>
          </ns3:TrackPointExtension>
        </extensions>
      </trkpt>
      <trkpt lat="37.981698699295520782470703125" lon="-107.7338540554046630859375">
        <ele>3591.800048828125</ele>
        <time>2026-08-15T13:45:29.000Z</time>
        <extensions>
          <ns3:TrackPointExtension>
            <ns3:hr>114</ns3:hr>
            <ns3:cad>0</ns3:cad>
          </ns3:TrackPointExtension>
        </extensions>
      </trkpt>
      <trkpt lat="37.98169157467782497406005859375" lon="-107.73388314060866832733154296875">
        <ele>3592.199951171875</ele>
        <time>2026-08-15T13:45:31.000Z</time>
        <extensions>
          <ns3:TrackPointExtension>
            <ns3:hr>113</ns3:hr>
            <ns3:cad>0</ns3:cad>
          </ns3:TrackPointExtension>
        </extensions>
      </trkpt>
      <trkpt lat="37.98167514614760875701904296875" lon="-107.733912058174610137939453125">
        <ele>3593</ele>
        <time>2026-08-15T13:45:35.000Z</time>
        <extensions>
          <ns3:TrackPointExtension>
            <ns3:hr>114</ns3:hr>
            <ns3:cad>79</ns3:cad>
          </ns3:TrackPointExtension>
        </extensions>
      </trkpt>
      <trkpt lat="37.9816375114023685455322265625" lon="-107.73397852666676044464111328125">
        <ele>3592.60009765625</ele>
        <time>2026-08-15T13:45:39.000Z</time>
        <extensions>
          <ns3:TrackPointExtension>
            <ns3:hr>111</ns3:hr>
            <ns3:cad>79</ns3:cad>
          </ns3:TrackPointExtension>
        </extensions>
      </trkpt>
      <trkpt lat="37.98162393271923065185546875" lon="-107.73400283418595790863037109375">
        <ele>3592.199951171875</ele>
        <time>2026-08-15T13:45:41.000Z</time>
        <extensions>
          <ns3:TrackPointExtension>
            <ns3:hr>112</ns3:hr>
            <ns3:cad>49</ns3:cad>
          </ns3:TrackPointExtension>
        </extensions>
      </trkpt>
      <trkpt lat="37.98161127604544162750244140625" lon="-107.73406435735523700714111328125">
        <ele>3592.39990234375</ele>
        <time>2026-08-15T13:45:47.000Z</time>
        <extensions>
          <ns3:TrackPointExtension>
            <ns3:hr>114</ns3:hr>
            <ns3:cad>0</ns3:cad>
          </ns3:TrackPointExtension>
        </extensions>
      </trkpt>
      <trkpt lat="37.98160473816096782684326171875" lon="-107.7340672910213470458984375">
        <ele>3592.60009765625</ele>
        <time>2026-08-15T13:45:48.000Z</time>
        <extensions>
          <ns3:TrackPointExtension>
            <ns3:hr>114</ns3:hr>
            <ns3:cad>0</ns3:cad>
          </ns3:TrackPointExtension>
        </extensions>
      </trkpt>
      <trkpt lat="37.98156299628317356109619140625" lon="-107.7341080270707607269287109375">
        <ele>3592.199951171875</ele>
        <time>2026-08-15T13:45:53.000Z</time>
        <extensions>
          <ns3:TrackPointExtension>
            <ns3:hr>114</ns3:hr>
            <ns3:cad>41</ns3:cad>
          </ns3:TrackPointExtension>
        </extensions>
      </trkpt>
      <trkpt lat="37.98154187388718128204345703125" lon="-107.7341589890420436859130859375">
        <ele>3592.39990234375</ele>
        <time>2026-08-15T13:45:59.000Z</time>
        <extensions>
          <ns3:TrackPointExtension>
            <ns3:hr>115</ns3:hr>
            <ns3:cad>51</ns3:cad>
          </ns3:TrackPointExtension>
        </extensions>
      </trkpt>
      <trkpt lat="37.981545142829418182373046875" lon="-107.73416862823069095611572265625">
        <ele>3592.39990234375</ele>
        <time>2026-08-15T13:46:00.000Z</time>
        <extensions>
          <ns3:TrackPointExtension>
            <ns3:hr>116</ns3:hr>
            <ns3:cad>51</ns3:cad>
          </ns3:TrackPointExtension>
        </extensions>
      </trkpt>
      <trkpt lat="37.9815500043332576751708984375" lon="-107.73421950638294219970703125">
        <ele>3592.60009765625</ele>
        <time>2026-08-15T13:46:06.000Z</time>
        <extensions>
          <ns3:TrackPointExtension>
            <ns3:hr>117</ns3:hr>
            <ns3:cad>0</ns3:cad>
          </ns3:TrackPointExtension>
        </extensions>
      </trkpt>
      <trkpt lat="37.98155017197132110595703125" lon="-107.7342515252530574798583984375">
        <ele>3593.199951171875</ele>
        <time>2026-08-15T13:46:11.000Z</time>
        <extensions>
          <ns3:TrackPointExtension>
            <ns3:hr>120</ns3:hr>
            <ns3:cad>0</ns3:cad>
          </ns3:TrackPointExtension>
        </extensions>
      </trkpt>
      <trkpt lat="37.981550507247447967529296875" lon="-107.734262086451053619384765625">
        <ele>3594</ele>
        <time>2026-08-15T13:46:14.000Z</time>
        <extensions>
          <ns3:TrackPointExtension>
            <ns3:hr>121</ns3:hr>
            <ns3:cad>0</ns3:cad>
          </ns3:TrackPointExtension>
        </extensions>
      </trkpt>
      <trkpt lat="37.98155075870454311370849609375" lon="-107.73426921106874942779541015625">
        <ele>3594.199951171875</ele>
        <time>2026-08-15T13:46:15.000Z</time>
        <extensions>
          <ns3:TrackPointExtension>
            <ns3:hr>122</ns3:hr>
            <ns3:cad>0</ns3:cad>
          </ns3:TrackPointExtension>
        </extensions>
      </trkpt>
      <trkpt lat="37.9815449751913547515869140625" lon="-107.73429418914020061492919921875">
        <ele>3595</ele>
        <time>2026-08-15T13:46:21.000Z</time>
        <extensions>
          <ns3:TrackPointExtension>
            <ns3:hr>123</ns3:hr>
            <ns3:cad>75</ns3:cad>
          </ns3:TrackPointExtension>
        </extensions>
      </trkpt>
      <trkpt lat="37.98154321499168872833251953125" lon="-107.73429251275956630706787109375">
        <ele>3595</ele>
        <time>2026-08-15T13:46:24.000Z</time>
        <extensions>
          <ns3:TrackPointExtension>
            <ns3:hr>122</ns3:hr>
            <ns3:cad>0</ns3:cad>
          </ns3:TrackPointExtension>
        </extensions>
      </trkpt>
      <trkpt lat="37.98154321499168872833251953125" lon="-107.73429251275956630706787109375">
        <ele>3594.800048828125</ele>
        <time>2026-08-15T13:46:27.000Z</time>
        <extensions>
          <ns3:TrackPointExtension>
            <ns3:hr>118</ns3:hr>
            <ns3:cad>0</ns3:cad>
          </ns3:TrackPointExtension>
        </extensions>
      </trkpt>
      <trkpt lat="37.98154321499168872833251953125" lon="-107.73429251275956630706787109375">
        <ele>3594.60009765625</ele>
        <time>2026-08-15T13:46:30.000Z</time>
        <extensions>
          <ns3:TrackPointExtension>
            <ns3:hr>115</ns3:hr>
            <ns3:cad>0</ns3:cad>
          </ns3:TrackPointExtension>
        </extensions>
      </trkpt>
      <trkpt lat="37.98154321499168872833251953125" lon="-107.73429251275956630706787109375">
        <ele>3594.39990234375</ele>
        <time>2026-08-15T13:46:32.000Z</time>
        <extensions>
          <ns3:TrackPointExtension>
            <ns3:hr>112</ns3:hr>
            <ns3:cad>0</ns3:cad>
          </ns3:TrackPointExtension>
        </extensions>
      </trkpt>
      <trkpt lat="37.98154321499168872833251953125" lon="-107.73429251275956630706787109375">
        <ele>3594.39990234375</ele>
        <time>2026-08-15T13:46:37.000Z</time>
        <extensions>
          <ns3:TrackPointExtension>
            <ns3:hr>109</ns3:hr>
            <ns3:cad>0</ns3:cad>
          </ns3:TrackPointExtension>
        </extensions>
      </trkpt>
      <trkpt lat="37.98154321499168872833251953125" lon="-107.73429251275956630706787109375">
        <ele>3594.800048828125</ele>
        <time>2026-08-15T13:46:41.000Z</time>
        <extensions>
          <ns3:TrackPointExtension>
            <ns3:hr>109</ns3:hr>
            <ns3:cad>0</ns3:cad>
          </ns3:TrackPointExtension>
        </extensions>
      </trkpt>
      <trkpt lat="37.98153835348784923553466796875" lon="-107.73430659435689449310302734375">
        <ele>3594.800048828125</ele>
        <time>2026-08-15T13:46:47.000Z</time>
        <extensions>
          <ns3:TrackPointExtension>
            <ns3:hr>106</ns3:hr>
            <ns3:cad>0</ns3:cad>
          </ns3:TrackPointExtension>
        </extensions>
      </trkpt>
      <trkpt lat="37.98155176453292369842529296875" lon="-107.7343194186687469482421875">
        <ele>3595.39990234375</ele>
        <time>2026-08-15T13:46:50.000Z</time>
        <extensions>
          <ns3:TrackPointExtension>
            <ns3:hr>105</ns3:hr>
            <ns3:cad>0</ns3:cad>
          </ns3:TrackPointExtension>
        </extensions>
      </trkpt>
      <trkpt lat="37.9815634153783321380615234375" lon="-107.73432671092450618743896484375">
        <ele>3595.800048828125</ele>
        <time>2026-08-15T13:46:52.000Z</time>
        <extensions>
          <ns3:TrackPointExtension>
            <ns3:hr>105</ns3:hr>
            <ns3:cad>0</ns3:cad>
          </ns3:TrackPointExtension>
        </extensions>
      </trkpt>
      <trkpt lat="37.9815721325576305389404296875" lon="-107.73433693684637546539306640625">
        <ele>3596.39990234375</ele>
        <time>2026-08-15T13:46:58.000Z</time>
        <extensions>
          <ns3:TrackPointExtension>
            <ns3:hr>105</ns3:hr>
            <ns3:cad>41</ns3:cad>
          </ns3:TrackPointExtension>
        </extensions>
      </trkpt>
      <trkpt lat="37.98158730380237102508544921875" lon="-107.73434129543602466583251953125">
        <ele>3597</ele>
        <time>2026-08-15T13:47:02.000Z</time>
        <extensions>
          <ns3:TrackPointExtension>
            <ns3:hr>109</ns3:hr>
            <ns3:cad>0</ns3:cad>
          </ns3:TrackPointExtension>
        </extensions>
      </trkpt>
      <trkpt lat="37.9815872199833393096923828125" lon="-107.73434129543602466583251953125">
        <ele>3597.60009765625</ele>
        <time>2026-08-15T13:47:05.000Z</time>
        <extensions>
          <ns3:TrackPointExtension>
            <ns3:hr>111</ns3:hr>
            <ns3:cad>0</ns3:cad>
          </ns3:TrackPointExtension>
        </extensions>
      </trkpt>
      <trkpt lat="37.9815872199833393096923828125" lon="-107.73434129543602466583251953125">
        <ele>3597.800048828125</ele>
        <time>2026-08-15T13:47:06.000Z</time>
        <extensions>
          <ns3:TrackPointExtension>
            <ns3:hr>112</ns3:hr>
            <ns3:cad>0</ns3:cad>
          </ns3:TrackPointExtension>
        </extensions>
      </trkpt>
      <trkpt lat="37.9815872199833393096923828125" lon="-107.73434129543602466583251953125">
        <ele>3597.800048828125</ele>
        <time>2026-08-15T13:47:11.000Z</time>
        <extensions>
          <ns3:TrackPointExtension>
            <ns3:hr>115</ns3:hr>
            <ns3:cad>0</ns3:cad>
          </ns3:TrackPointExtension>
        </extensions>
      </trkpt>
      <trkpt lat="37.9815872199833393096923828125" lon="-107.73434129543602466583251953125">
        <ele>3597.60009765625</ele>
        <time>2026-08-15T13:47:13.000Z</time>
        <extensions>
          <ns3:TrackPointExtension>
            <ns3:hr>111</ns3:hr>
            <ns3:cad>0</ns3:cad>
          </ns3:TrackPointExtension>
        </extensions>
      </trkpt>
      <trkpt lat="37.9815872199833393096923828125" lon="-107.73434129543602466583251953125">
        <ele>3597.60009765625</ele>
        <time>2026-08-15T13:47:14.000Z</time>
        <extensions>
          <ns3:TrackPointExtension>
            <ns3:hr>107</ns3:hr>
            <ns3:cad>0</ns3:cad>
          </ns3:TrackPointExtension>
        </extensions>
      </trkpt>
      <trkpt lat="37.9815872199833393096923828125" lon="-107.73434129543602466583251953125">
        <ele>3598</ele>
        <time>2026-08-15T13:47:17.000Z</time>
        <extensions>
          <ns3:TrackPointExtension>
            <ns3:hr>105</ns3:hr>
            <ns3:cad>0</ns3:cad>
          </ns3:TrackPointExtension>
        </extensions>
      </trkpt>
      <trkpt lat="37.9815872199833393096923828125" lon="-107.73434129543602466583251953125">
        <ele>3597.800048828125</ele>
        <time>2026-08-15T13:47:23.000Z</time>
        <extensions>
          <ns3:TrackPointExtension>
            <ns3:hr>104</ns3:hr>
            <ns3:cad>0</ns3:cad>
          </ns3:TrackPointExtension>
        </extensions>
      </trkpt>
      <trkpt lat="37.9815872199833393096923828125" lon="-107.73434129543602466583251953125">
        <ele>3596.800048828125</ele>
        <time>2026-08-15T13:47:29.000Z</time>
        <extensions>
          <ns3:TrackPointExtension>
            <ns3:hr>104</ns3:hr>
            <ns3:cad>0</ns3:cad>
          </ns3:TrackPointExtension>
        </extensions>
      </trkpt>
      <trkpt lat="37.9815872199833393096923828125" lon="-107.73434129543602466583251953125">
        <ele>3597.800048828125</ele>
        <time>2026-08-15T13:47:35.000Z</time>
        <extensions>
          <ns3:TrackPointExtension>
            <ns3:hr>104</ns3:hr>
            <ns3:cad>0</ns3:cad>
          </ns3:TrackPointExtension>
        </extensions>
      </trkpt>
      <trkpt lat="37.9815872199833393096923828125" lon="-107.73434129543602466583251953125">
        <ele>3597.800048828125</ele>
        <time>2026-08-15T13:47:38.000Z</time>
        <extensions>
          <ns3:TrackPointExtension>
            <ns3:hr>104</ns3:hr>
            <ns3:cad>0</ns3:cad>
          </ns3:TrackPointExtension>
        </extensions>
      </trkpt>
      <trkpt lat="37.9816127009689807891845703125" lon="-107.7343413792550563812255859375">
        <ele>3598.60009765625</ele>
        <time>2026-08-15T13:47:43.000Z</time>
        <extensions>
          <ns3:TrackPointExtension>
            <ns3:hr>106</ns3:hr>
            <ns3:cad>0</ns3:cad>
          </ns3:TrackPointExtension>
        </extensions>
      </trkpt>
      <trkpt lat="37.9816177301108837127685546875" lon="-107.73434079252183437347412109375">
        <ele>3598.800048828125</ele>
        <time>2026-08-15T13:47:44.000Z</time>
        <extensions>
          <ns3:TrackPointExtension>
            <ns3:hr>106</ns3:hr>
            <ns3:cad>0</ns3:cad>
          </ns3:TrackPointExtension>
        </extensions>
      </trkpt>
      <trkpt lat="37.98162954859435558319091796875" lon="-107.73433827795088291168212890625">
        <ele>3599.39990234375</ele>
        <time>2026-08-15T13:47:47.000Z</time>
        <extensions>
          <ns3:TrackPointExtension>
            <ns3:hr>102</ns3:hr>
            <ns3:cad>0</ns3:cad>
          </ns3:TrackPointExtension>
        </extensions>
      </trkpt>
      <trkpt lat="37.98163005150854587554931640625" lon="-107.73432620801031589508056640625">
        <ele>3599.60009765625</ele>
        <time>2026-08-15T13:47:50.000Z</time>
        <extensions>
          <ns3:TrackPointExtension>
            <ns3:hr>102</ns3:hr>
            <ns3:cad>0</ns3:cad>
          </ns3:TrackPointExtension>
        </extensions>
      </trkpt>
      <trkpt lat="37.981641031801700592041015625" lon="-107.7343128807842731475830078125">
        <ele>3600.800048828125</ele>
        <time>2026-08-15T13:47:53.000Z</time>
        <extensions>
          <ns3:TrackPointExtension>
            <ns3:hr>102</ns3:hr>
            <ns3:cad>0</ns3:cad>
          </ns3:TrackPointExtension>
        </extensions>
      </trkpt>
      <trkpt lat="37.9816596396267414093017578125" lon="-107.73430625908076763153076171875">
        <ele>3601.800048828125</ele>
        <time>2026-08-15T13:47:56.000Z</time>
        <extensions>
          <ns3:TrackPointExtension>
            <ns3:hr>103</ns3:hr>
            <ns3:cad>0</ns3:cad>
          </ns3:TrackPointExtension>
        </extensions>
      </trkpt>
      <trkpt lat="37.98167355358600616455078125" lon="-107.73429930210113525390625">
        <ele>3602.199951171875</ele>
        <time>2026-08-15T13:47:59.000Z</time>
        <extensions>
          <ns3:TrackPointExtension>
            <ns3:hr>105</ns3:hr>
            <ns3:cad>49</ns3:cad>
          </ns3:TrackPointExtension>
        </extensions>
      </trkpt>
      <trkpt lat="37.98168084584176540374755859375" lon="-107.7342987991869449615478515625">
        <ele>3602.199951171875</ele>
        <time>2026-08-15T13:48:00.000Z</time>
        <extensions>
          <ns3:TrackPointExtension>
            <ns3:hr>108</ns3:hr>
            <ns3:cad>49</ns3:cad>
          </ns3:TrackPointExtension>
        </extensions>
      </trkpt>
      <trkpt lat="37.98168939538300037384033203125" lon="-107.734291590750217437744140625">
        <ele>3602.60009765625</ele>
        <time>2026-08-15T13:48:04.000Z</time>
        <extensions>
          <ns3:TrackPointExtension>
            <ns3:hr>111</ns3:hr>
            <ns3:cad>0</ns3:cad>
          </ns3:TrackPointExtension>
        </extensions>
      </trkpt>
      <trkpt lat="37.98169207759201526641845703125" lon="-107.7342920936644077301025390625">
        <ele>3602.800048828125</ele>
        <time>2026-08-15T13:48:05.000Z</time>
        <extensions>
          <ns3:TrackPointExtension>
            <ns3:hr>111</ns3:hr>
            <ns3:cad>0</ns3:cad>
          </ns3:TrackPointExtension>
        </extensions>
      </trkpt>
      <trkpt lat="37.98169811256229877471923828125" lon="-107.7342944405972957611083984375">
        <ele>3602.800048828125</ele>
        <time>2026-08-15T13:48:06.000Z</time>
        <extensions>
          <ns3:TrackPointExtension>
            <ns3:hr>111</ns3:hr>
            <ns3:cad>0</ns3:cad>
          </ns3:TrackPointExtension>
        </extensions>
      </trkpt>
      <trkpt lat="37.98171789385378360748291015625" lon="-107.73427440784871578216552734375">
        <ele>3603.60009765625</ele>
        <time>2026-08-15T13:48:10.000Z</time>
        <extensions>
          <ns3:TrackPointExtension>
            <ns3:hr>107</ns3:hr>
            <ns3:cad>0</ns3:cad>
          </ns3:TrackPointExtension>
        </extensions>
      </trkpt>
      <trkpt lat="37.98174320720136165618896484375" lon="-107.73424289189279079437255859375">
        <ele>3603.800048828125</ele>
        <time>2026-08-15T13:48:14.000Z</time>
        <extensions>
          <ns3:TrackPointExtension>
            <ns3:hr>105</ns3:hr>
            <ns3:cad>63</ns3:cad>
          </ns3:TrackPointExtension>
        </extensions>
      </trkpt>
      <trkpt lat="37.98174865543842315673828125" lon="-107.73424071259796619415283203125">
        <ele>3603.800048828125</ele>
        <time>2026-08-15T13:48:16.000Z</time>
        <extensions>
          <ns3:TrackPointExtension>
            <ns3:hr>106</ns3:hr>
            <ns3:cad>63</ns3:cad>
          </ns3:TrackPointExtension>
        </extensions>
      </trkpt>
      <trkpt lat="37.981763072311878204345703125" lon="-107.734231241047382354736328125">
        <ele>3604</ele>
        <time>2026-08-15T13:48:19.000Z</time>
        <extensions>
          <ns3:TrackPointExtension>
            <ns3:hr>109</ns3:hr>
            <ns3:cad>0</ns3:cad>
          </ns3:TrackPointExtension>
        </extensions>
      </trkpt>
      <trkpt lat="37.981767095625400543212890625" lon="-107.7342282235622406005859375">
        <ele>3604.199951171875</ele>
        <time>2026-08-15T13:48:20.000Z</time>
        <extensions>
          <ns3:TrackPointExtension>
            <ns3:hr>115</ns3:hr>
            <ns3:cad>0</ns3:cad>
          </ns3:TrackPointExtension>
        </extensions>
      </trkpt>
      <trkpt lat="37.98177170567214488983154296875" lon="-107.7342257089912891387939453125">
        <ele>3604.39990234375</ele>
        <time>2026-08-15T13:48:21.000Z</time>
        <extensions>
          <ns3:TrackPointExtension>
            <ns3:hr>118</ns3:hr>
            <ns3:cad>0</ns3:cad>
          </ns3:TrackPointExtension>
        </extensions>
      </trkpt>
      <trkpt lat="37.981771118938922882080078125" lon="-107.73422755300998687744140625">
        <ele>3604.800048828125</ele>
        <time>2026-08-15T13:48:22.000Z</time>
        <extensions>
          <ns3:TrackPointExtension>
            <ns3:hr>119</ns3:hr>
            <ns3:cad>0</ns3:cad>
          </ns3:TrackPointExtension>
        </extensions>
      </trkpt>
      <trkpt lat="37.981771118938922882080078125" lon="-107.73422755300998687744140625">
        <ele>3605.199951171875</ele>
        <time>2026-08-15T13:48:23.000Z</time>
        <extensions>
          <ns3:TrackPointExtension>
            <ns3:hr>119</ns3:hr>
            <ns3:cad>0</ns3:cad>
          </ns3:TrackPointExtension>
        </extensions>
      </trkpt>
      <trkpt lat="37.981790564954280853271484375" lon="-107.734217159450054168701171875">
        <ele>3605.800048828125</ele>
        <time>2026-08-15T13:48:28.000Z</time>
        <extensions>
          <ns3:TrackPointExtension>
            <ns3:hr>117</ns3:hr>
            <ns3:cad>0</ns3:cad>
          </ns3:TrackPointExtension>
        </extensions>
      </trkpt>
      <trkpt lat="37.98179366625845432281494140625" lon="-107.73421405814588069915771484375">
        <ele>3606.199951171875</ele>
        <time>2026-08-15T13:48:32.000Z</time>
        <extensions>
          <ns3:TrackPointExtension>
            <ns3:hr>114</ns3:hr>
            <ns3:cad>0</ns3:cad>
          </ns3:TrackPointExtension>
        </extensions>
      </trkpt>
      <trkpt lat="37.9818138666450977325439453125" lon="-107.734207771718502044677734375">
        <ele>3606.60009765625</ele>
        <time>2026-08-15T13:48:34.000Z</time>
        <extensions>
          <ns3:TrackPointExtension>
            <ns3:hr>115</ns3:hr>
            <ns3:cad>0</ns3:cad>
          </ns3:TrackPointExtension>
        </extensions>
      </trkpt>
      <trkpt lat="37.98183909617364406585693359375" lon="-107.73418706841766834259033203125">
        <ele>3607.199951171875</ele>
        <time>2026-08-15T13:48:40.000Z</time>
        <extensions>
          <ns3:TrackPointExtension>
            <ns3:hr>115</ns3:hr>
            <ns3:cad>0</ns3:cad>
          </ns3:TrackPointExtension>
        </extensions>
      </trkpt>
      <trkpt lat="37.981848232448101043701171875" lon="-107.73418472148478031158447265625">
        <ele>3607.199951171875</ele>
        <time>2026-08-15T13:48:43.000Z</time>
        <extensions>
          <ns3:TrackPointExtension>
            <ns3:hr>115</ns3:hr>
            <ns3:cad>0</ns3:cad>
          </ns3:TrackPointExtension>
        </extensions>
      </trkpt>
      <trkpt lat="37.98185619525611400604248046875" lon="-107.73418690077960491180419921875">
        <ele>3608</ele>
        <time>2026-08-15T13:48:48.000Z</time>
        <extensions>
          <ns3:TrackPointExtension>
            <ns3:hr>114</ns3:hr>
            <ns3:cad>0</ns3:cad>
          </ns3:TrackPointExtension>
        </extensions>
      </trkpt>
      <trkpt lat="37.981848232448101043701171875" lon="-107.73418472148478031158447265625">
        <ele>3608.39990234375</ele>
        <time>2026-08-15T13:48:50.000Z</time>
        <extensions>
          <ns3:TrackPointExtension>
            <ns3:hr>113</ns3:hr>
            <ns3:cad>0</ns3:cad>
          </ns3:TrackPointExtension>
        </extensions>
      </trkpt>
      <trkpt lat="37.981848232448101043701171875" lon="-107.73418472148478031158447265625">
        <ele>3608.800048828125</ele>
        <time>2026-08-15T13:48:55.000Z</time>
        <extensions>
          <ns3:TrackPointExtension>
            <ns3:hr>112</ns3:hr>
            <ns3:cad>0</ns3:cad>
          </ns3:TrackPointExtension>
        </extensions>
      </trkpt>
      <trkpt lat="37.981848232448101043701171875" lon="-107.73418472148478031158447265625">
        <ele>3609</ele>
        <time>2026-08-15T13:48:59.000Z</time>
        <extensions>
          <ns3:TrackPointExtension>
            <ns3:hr>109</ns3:hr>
            <ns3:cad>0</ns3:cad>
          </ns3:TrackPointExtension>
        </extensions>
      </trkpt>
      <trkpt lat="37.981848232448101043701171875" lon="-107.73418472148478031158447265625">
        <ele>3609</ele>
        <time>2026-08-15T13:49:01.000Z</time>
        <extensions>
          <ns3:TrackPointExtension>
            <ns3:hr>106</ns3:hr>
            <ns3:cad>0</ns3:cad>
          </ns3:TrackPointExtension>
        </extensions>
      </trkpt>
      <trkpt lat="37.981848232448101043701171875" lon="-107.73418472148478031158447265625">
        <ele>3608.800048828125</ele>
        <time>2026-08-15T13:49:03.000Z</time>
        <extensions>
          <ns3:TrackPointExtension>
            <ns3:hr>105</ns3:hr>
            <ns3:cad>0</ns3:cad>
          </ns3:TrackPointExtension>
        </extensions>
      </trkpt>
      <trkpt lat="37.981848232448101043701171875" lon="-107.73418472148478031158447265625">
        <ele>3608.60009765625</ele>
        <time>2026-08-15T13:49:09.000Z</time>
        <extensions>
          <ns3:TrackPointExtension>
            <ns3:hr>106</ns3:hr>
            <ns3:cad>0</ns3:cad>
          </ns3:TrackPointExtension>
        </extensions>
      </trkpt>
      <trkpt lat="37.981848232448101043701171875" lon="-107.73418472148478031158447265625">
        <ele>3608.39990234375</ele>
        <time>2026-08-15T13:49:12.000Z</time>
        <extensions>
          <ns3:TrackPointExtension>
            <ns3:hr>109</ns3:hr>
            <ns3:cad>0</ns3:cad>
          </ns3:TrackPointExtension>
        </extensions>
      </trkpt>
      <trkpt lat="37.981848232448101043701171875" lon="-107.73418472148478031158447265625">
        <ele>3608.60009765625</ele>
        <time>2026-08-15T13:49:14.000Z</time>
        <extensions>
          <ns3:TrackPointExtension>
            <ns3:hr>114</ns3:hr>
            <ns3:cad>0</ns3:cad>
          </ns3:TrackPointExtension>
        </extensions>
      </trkpt>
      <trkpt lat="37.981856279075145721435546875" lon="-107.73419402539730072021484375">
        <ele>3608.800048828125</ele>
        <time>2026-08-15T13:49:15.000Z</time>
        <extensions>
          <ns3:TrackPointExtension>
            <ns3:hr>114</ns3:hr>
            <ns3:cad>0</ns3:cad>
          </ns3:TrackPointExtension>
        </extensions>
      </trkpt>
      <trkpt lat="37.98186625353991985321044921875" lon="-107.73421741090714931488037109375">
        <ele>3609.60009765625</ele>
        <time>2026-08-15T13:49:18.000Z</time>
        <extensions>
          <ns3:TrackPointExtension>
            <ns3:hr>113</ns3:hr>
            <ns3:cad>0</ns3:cad>
          </ns3:TrackPointExtension>
        </extensions>
      </trkpt>
      <trkpt lat="37.98187228851020336151123046875" lon="-107.73423450998961925506591796875">
        <ele>3610.199951171875</ele>
        <time>2026-08-15T13:49:23.000Z</time>
        <extensions>
          <ns3:TrackPointExtension>
            <ns3:hr>111</ns3:hr>
            <ns3:cad>0</ns3:cad>
          </ns3:TrackPointExtension>
        </extensions>
      </trkpt>
      <trkpt lat="37.98187111504375934600830078125" lon="-107.73423425853252410888671875">
        <ele>3610.60009765625</ele>
        <time>2026-08-15T13:49:25.000Z</time>
        <extensions>
          <ns3:TrackPointExtension>
            <ns3:hr>108</ns3:hr>
            <ns3:cad>0</ns3:cad>
          </ns3:TrackPointExtension>
        </extensions>
      </trkpt>
      <trkpt lat="37.98187111504375934600830078125" lon="-107.73423425853252410888671875">
        <ele>3610.60009765625</ele>
        <time>2026-08-15T13:49:26.000Z</time>
        <extensions>
          <ns3:TrackPointExtension>
            <ns3:hr>105</ns3:hr>
            <ns3:cad>0</ns3:cad>
          </ns3:TrackPointExtension>
        </extensions>
      </trkpt>
      <trkpt lat="37.98187111504375934600830078125" lon="-107.73423425853252410888671875">
        <ele>3611</ele>
        <time>2026-08-15T13:49:28.000Z</time>
        <extensions>
          <ns3:TrackPointExtension>
            <ns3:hr>102</ns3:hr>
            <ns3:cad>0</ns3:cad>
          </ns3:TrackPointExtension>
        </extensions>
      </trkpt>
      <trkpt lat="37.98187111504375934600830078125" lon="-107.73423425853252410888671875">
        <ele>3611.199951171875</ele>
        <time>2026-08-15T13:49:30.000Z</time>
        <extensions>
          <ns3:TrackPointExtension>
            <ns3:hr>102</ns3:hr>
            <ns3:cad>0</ns3:cad>
          </ns3:TrackPointExtension>
        </extensions>
      </trkpt>
      <trkpt lat="37.98187430016696453094482421875" lon="-107.73424322716891765594482421875">
        <ele>3611.60009765625</ele>
        <time>2026-08-15T13:49:32.000Z</time>
        <extensions>
          <ns3:TrackPointExtension>
            <ns3:hr>102</ns3:hr>
            <ns3:cad>0</ns3:cad>
          </ns3:TrackPointExtension>
        </extensions>
      </trkpt>
      <trkpt lat="37.981876395642757415771484375" lon="-107.73425362072885036468505859375">
        <ele>3612.199951171875</ele>
        <time>2026-08-15T13:49:36.000Z</time>
        <extensions>
          <ns3:TrackPointExtension>
            <ns3:hr>104</ns3:hr>
            <ns3:cad>0</ns3:cad>
          </ns3:TrackPointExtension>
        </extensions>
      </trkpt>
      <trkpt lat="37.981884442269802093505859375" lon="-107.73426334373652935028076171875">
        <ele>3612.800048828125</ele>
        <time>2026-08-15T13:49:40.000Z</time>
        <extensions>
          <ns3:TrackPointExtension>
            <ns3:hr>107</ns3:hr>
            <ns3:cad>0</ns3:cad>
          </ns3:TrackPointExtension>
        </extensions>
      </trkpt>
      <trkpt lat="37.9818913154304027557373046875" lon="-107.73426921106874942779541015625">
        <ele>3613.39990234375</ele>
        <time>2026-08-15T13:49:42.000Z</time>
        <extensions>
          <ns3:TrackPointExtension>
            <ns3:hr>109</ns3:hr>
            <ns3:cad>0</ns3:cad>
          </ns3:TrackPointExtension>
        </extensions>
      </trkpt>
      <trkpt lat="37.98190179280936717987060546875" lon="-107.73428346030414104461669921875">
        <ele>3613.800048828125</ele>
        <time>2026-08-15T13:49:44.000Z</time>
        <extensions>
          <ns3:TrackPointExtension>
            <ns3:hr>110</ns3:hr>
            <ns3:cad>0</ns3:cad>
          </ns3:TrackPointExtension>
        </extensions>
      </trkpt>
      <trkpt lat="37.98191034235060214996337890625" lon="-107.73430005647242069244384765625">
        <ele>3614.39990234375</ele>
        <time>2026-08-15T13:49:47.000Z</time>
        <extensions>
          <ns3:TrackPointExtension>
            <ns3:hr>107</ns3:hr>
            <ns3:cad>0</ns3:cad>
          </ns3:TrackPointExtension>
        </extensions>
      </trkpt>
      <trkpt lat="37.98191403038799762725830078125" lon="-107.73430223576724529266357421875">
        <ele>3614.800048828125</ele>
        <time>2026-08-15T13:49:49.000Z</time>
        <extensions>
          <ns3:TrackPointExtension>
            <ns3:hr>105</ns3:hr>
            <ns3:cad>0</ns3:cad>
          </ns3:TrackPointExtension>
        </extensions>
      </trkpt>
      <trkpt lat="37.98192090354859828948974609375" lon="-107.734304331243038177490234375">
        <ele>3615</ele>
        <time>2026-08-15T13:49:50.000Z</time>
        <extensions>
          <ns3:TrackPointExtension>
            <ns3:hr>105</ns3:hr>
            <ns3:cad>0</ns3:cad>
          </ns3:TrackPointExtension>
        </extensions>
      </trkpt>
      <trkpt lat="37.9819395951926708221435546875" lon="-107.73429888300597667694091796875">
        <ele>3615.39990234375</ele>
        <time>2026-08-15T13:49:54.000Z</time>
        <extensions>
          <ns3:TrackPointExtension>
            <ns3:hr>105</ns3:hr>
            <ns3:cad>0</ns3:cad>
          </ns3:TrackPointExtension>
        </extensions>
      </trkpt>
      <trkpt lat="37.98197052441537380218505859375" lon="-107.73429150693118572235107421875">
        <ele>3616</ele>
        <time>2026-08-15T13:49:58.000Z</time>
        <extensions>
          <ns3:TrackPointExtension>
            <ns3:hr>104</ns3:hr>
            <ns3:cad>0</ns3:cad>
          </ns3:TrackPointExtension>
        </extensions>
      </trkpt>
      <trkpt lat="37.98197655938565731048583984375" lon="-107.7342843823134899139404296875">
        <ele>3616.199951171875</ele>
        <time>2026-08-15T13:49:59.000Z</time>
        <extensions>
          <ns3:TrackPointExtension>
            <ns3:hr>104</ns3:hr>
            <ns3:cad>0</ns3:cad>
          </ns3:TrackPointExtension>
        </extensions>
      </trkpt>
      <trkpt lat="37.98201620578765869140625" lon="-107.73426468484103679656982421875">
        <ele>3616.39990234375</ele>
        <time>2026-08-15T13:50:04.000Z</time>
        <extensions>
          <ns3:TrackPointExtension>
            <ns3:hr>106</ns3:hr>
            <ns3:cad>0</ns3:cad>
          </ns3:TrackPointExtension>
        </extensions>
      </trkpt>
      <trkpt lat="37.98205132596194744110107421875" lon="-107.7342528663575649261474609375">
        <ele>3617</ele>
        <time>2026-08-15T13:50:09.000Z</time>
        <extensions>
          <ns3:TrackPointExtension>
            <ns3:hr>108</ns3:hr>
            <ns3:cad>0</ns3:cad>
          </ns3:TrackPointExtension>
        </extensions>
      </trkpt>
      <trkpt lat="37.9820753820240497589111328125" lon="-107.734241299331188201904296875">
        <ele>3617.39990234375</ele>
        <time>2026-08-15T13:50:12.000Z</time>
        <extensions>
          <ns3:TrackPointExtension>
            <ns3:hr>107</ns3:hr>
            <ns3:cad>71</ns3:cad>
          </ns3:TrackPointExtension>
        </extensions>
      </trkpt>
      <trkpt lat="37.98213346861302852630615234375" lon="-107.73422084748744964599609375">
        <ele>3616.39990234375</ele>
        <time>2026-08-15T13:50:18.000Z</time>
        <extensions>
          <ns3:TrackPointExtension>
            <ns3:hr>106</ns3:hr>
            <ns3:cad>52</ns3:cad>
          </ns3:TrackPointExtension>
        </extensions>
      </trkpt>
      <trkpt lat="37.98214084468781948089599609375" lon="-107.7342188358306884765625">
        <ele>3616.39990234375</ele>
        <time>2026-08-15T13:50:19.000Z</time>
        <extensions>
          <ns3:TrackPointExtension>
            <ns3:hr>106</ns3:hr>
            <ns3:cad>52</ns3:cad>
          </ns3:TrackPointExtension>
        </extensions>
      </trkpt>
      <trkpt lat="37.98219800926744937896728515625" lon="-107.73422227241098880767822265625">
        <ele>3616.800048828125</ele>
        <time>2026-08-15T13:50:25.000Z</time>
        <extensions>
          <ns3:TrackPointExtension>
            <ns3:hr>104</ns3:hr>
            <ns3:cad>0</ns3:cad>
          </ns3:TrackPointExtension>
        </extensions>
      </trkpt>
      <trkpt lat="37.98223136924207210540771484375" lon="-107.73422646336257457733154296875">
        <ele>3618.199951171875</ele>
        <time>2026-08-15T13:50:30.000Z</time>
        <extensions>
          <ns3:TrackPointExtension>
            <ns3:hr>104</ns3:hr>
            <ns3:cad>48</ns3:cad>
          </ns3:TrackPointExtension>
        </extensions>
      </trkpt>
      <trkpt lat="37.98224712722003459930419921875" lon="-107.73422545753419399261474609375">
        <ele>3618.60009765625</ele>
        <time>2026-08-15T13:50:32.000Z</time>
        <extensions>
          <ns3:TrackPointExtension>
            <ns3:hr>104</ns3:hr>
            <ns3:cad>48</ns3:cad>
          </ns3:TrackPointExtension>
        </extensions>
      </trkpt>
      <trkpt lat="37.98229037784039974212646484375" lon="-107.734211124479770660400390625">
        <ele>3618.60009765625</ele>
        <time>2026-08-15T13:50:38.000Z</time>
        <extensions>
          <ns3:TrackPointExtension>
            <ns3:hr>104</ns3:hr>
            <ns3:cad>47</ns3:cad>
          </ns3:TrackPointExtension>
        </extensions>
      </trkpt>
      <trkpt lat="37.982300184667110443115234375" lon="-107.7342082746326923370361328125">
        <ele>3618.60009765625</ele>
        <time>2026-08-15T13:50:39.000Z</time>
        <extensions>
          <ns3:TrackPointExtension>
            <ns3:hr>103</ns3:hr>
            <ns3:cad>47</ns3:cad>
          </ns3:TrackPointExtension>
        </extensions>
      </trkpt>
      <trkpt lat="37.9823449440300464630126953125" lon="-107.7341918461024761199951171875">
        <ele>3617.60009765625</ele>
        <time>2026-08-15T13:50:45.000Z</time>
        <extensions>
          <ns3:TrackPointExtension>
            <ns3:hr>104</ns3:hr>
            <ns3:cad>0</ns3:cad>
          </ns3:TrackPointExtension>
        </extensions>
      </trkpt>
      <trkpt lat="37.98236682079732418060302734375" lon="-107.73417793214321136474609375">
        <ele>3618.199951171875</ele>
        <time>2026-08-15T13:50:48.000Z</time>
        <extensions>
          <ns3:TrackPointExtension>
            <ns3:hr>103</ns3:hr>
            <ns3:cad>0</ns3:cad>
          </ns3:TrackPointExtension>
        </extensions>
      </trkpt>
      <trkpt lat="37.9824225604534149169921875" lon="-107.73415119387209415435791015625">
        <ele>3618.800048828125</ele>
        <time>2026-08-15T13:50:54.000Z</time>
        <extensions>
          <ns3:TrackPointExtension>
            <ns3:hr>101</ns3:hr>
            <ns3:cad>45</ns3:cad>
          </ns3:TrackPointExtension>
        </extensions>
      </trkpt>
      <trkpt lat="37.98244158737361431121826171875" lon="-107.73414381779730319976806640625">
        <ele>3618.800048828125</ele>
        <time>2026-08-15T13:50:56.000Z</time>
        <extensions>
          <ns3:TrackPointExtension>
            <ns3:hr>100</ns3:hr>
            <ns3:cad>46</ns3:cad>
          </ns3:TrackPointExtension>
        </extensions>
      </trkpt>
      <trkpt lat="37.9824860952794551849365234375" lon="-107.73412940092384815216064453125">
        <ele>3619.39990234375</ele>
        <time>2026-08-15T13:51:01.000Z</time>
        <extensions>
          <ns3:TrackPointExtension>
            <ns3:hr>97</ns3:hr>
            <ns3:cad>48</ns3:cad>
          </ns3:TrackPointExtension>
        </extensions>
      </trkpt>
      <trkpt lat="37.98250235617160797119140625" lon="-107.7341184206306934356689453125">
        <ele>3619.800048828125</ele>
        <time>2026-08-15T13:51:03.000Z</time>
        <extensions>
          <ns3:TrackPointExtension>
            <ns3:hr>96</ns3:hr>
            <ns3:cad>50</ns3:cad>
          </ns3:TrackPointExtension>
        </extensions>
      </trkpt>
      <trkpt lat="37.98253881745040416717529296875" lon="-107.7340731583535671234130859375">
        <ele>3619.199951171875</ele>
        <time>2026-08-15T13:51:09.000Z</time>
        <extensions>
          <ns3:TrackPointExtension>
            <ns3:hr>95</ns3:hr>
            <ns3:cad>0</ns3:cad>
          </ns3:TrackPointExtension>
        </extensions>
      </trkpt>
      <trkpt lat="37.9825477860867977142333984375" lon="-107.7340661175549030303955078125">
        <ele>3619.39990234375</ele>
        <time>2026-08-15T13:51:10.000Z</time>
        <extensions>
          <ns3:TrackPointExtension>
            <ns3:hr>95</ns3:hr>
            <ns3:cad>0</ns3:cad>
          </ns3:TrackPointExtension>
        </extensions>
      </trkpt>
      <trkpt lat="37.98257770948112010955810546875" lon="-107.73405128158628940582275390625">
        <ele>3620.60009765625</ele>
        <time>2026-08-15T13:51:15.000Z</time>
        <extensions>
          <ns3:TrackPointExtension>
            <ns3:hr>95</ns3:hr>
            <ns3:cad>0</ns3:cad>
          </ns3:TrackPointExtension>
        </extensions>
      </trkpt>
      <trkpt lat="37.9825866781175136566162109375" lon="-107.7340486831963062286376953125">
        <ele>3620.800048828125</ele>
        <time>2026-08-15T13:51:17.000Z</time>
        <extensions>
          <ns3:TrackPointExtension>
            <ns3:hr>96</ns3:hr>
            <ns3:cad>0</ns3:cad>
          </ns3:TrackPointExtension>
        </extensions>
      </trkpt>
      <trkpt lat="37.98262707889080047607421875" lon="-107.73402999155223369598388671875">
        <ele>3620.800048828125</ele>
        <time>2026-08-15T13:51:22.000Z</time>
        <extensions>
          <ns3:TrackPointExtension>
            <ns3:hr>99</ns3:hr>
            <ns3:cad>41</ns3:cad>
          </ns3:TrackPointExtension>
        </extensions>
      </trkpt>
      <trkpt lat="37.98263520933687686920166015625" lon="-107.7340278960764408111572265625">
        <ele>3620.60009765625</ele>
        <time>2026-08-15T13:51:23.000Z</time>
        <extensions>
          <ns3:TrackPointExtension>
            <ns3:hr>100</ns3:hr>
            <ns3:cad>0</ns3:cad>
          </ns3:TrackPointExtension>
        </extensions>
      </trkpt>
      <trkpt lat="37.9826775379478931427001953125" lon="-107.7339975535869598388671875">
        <ele>3620.199951171875</ele>
        <time>2026-08-15T13:51:29.000Z</time>
        <extensions>
          <ns3:TrackPointExtension>
            <ns3:hr>101</ns3:hr>
            <ns3:cad>0</ns3:cad>
          </ns3:TrackPointExtension>
        </extensions>
      </trkpt>
      <trkpt lat="37.9827000014483928680419921875" lon="-107.73396746255457401275634765625">
        <ele>3619.800048828125</ele>
        <time>2026-08-15T13:51:32.000Z</time>
        <extensions>
          <ns3:TrackPointExtension>
            <ns3:hr>97</ns3:hr>
            <ns3:cad>0</ns3:cad>
          </ns3:TrackPointExtension>
        </extensions>
      </trkpt>
      <trkpt lat="37.982713915407657623291015625" lon="-107.7339544706046581268310546875">
        <ele>3619.60009765625</ele>
        <time>2026-08-15T13:51:34.000Z</time>
        <extensions>
          <ns3:TrackPointExtension>
            <ns3:hr>95</ns3:hr>
            <ns3:cad>0</ns3:cad>
          </ns3:TrackPointExtension>
        </extensions>
      </trkpt>
      <trkpt lat="37.9827157594263553619384765625" lon="-107.7339564822614192962646484375">
        <ele>3619.60009765625</ele>
        <time>2026-08-15T13:51:35.000Z</time>
        <extensions>
          <ns3:TrackPointExtension>
            <ns3:hr>94</ns3:hr>
            <ns3:cad>47</ns3:cad>
          </ns3:TrackPointExtension>
        </extensions>
      </trkpt>
      <trkpt lat="37.98272430896759033203125" lon="-107.7339561469852924346923828125">
        <ele>3620</ele>
        <time>2026-08-15T13:51:36.000Z</time>
        <extensions>
          <ns3:TrackPointExtension>
            <ns3:hr>94</ns3:hr>
            <ns3:cad>47</ns3:cad>
          </ns3:TrackPointExtension>
        </extensions>
      </trkpt>
      <trkpt lat="37.982746772468090057373046875" lon="-107.7339497767388820648193359375">
        <ele>3620.800048828125</ele>
        <time>2026-08-15T13:51:39.000Z</time>
        <extensions>
          <ns3:TrackPointExtension>
            <ns3:hr>95</ns3:hr>
            <ns3:cad>49</ns3:cad>
          </ns3:TrackPointExtension>
        </extensions>
      </trkpt>
      <trkpt lat="37.98275372944772243499755859375" lon="-107.73394634015858173370361328125">
        <ele>3621</ele>
        <time>2026-08-15T13:51:40.000Z</time>
        <extensions>
          <ns3:TrackPointExtension>
            <ns3:hr>96</ns3:hr>
            <ns3:cad>49</ns3:cad>
          </ns3:TrackPointExtension>
        </extensions>
      </trkpt>
      <trkpt lat="37.9827811382710933685302734375" lon="-107.73393192328512668609619140625">
        <ele>3621.60009765625</ele>
        <time>2026-08-15T13:51:43.000Z</time>
        <extensions>
          <ns3:TrackPointExtension>
            <ns3:hr>101</ns3:hr>
            <ns3:cad>0</ns3:cad>
          </ns3:TrackPointExtension>
        </extensions>
      </trkpt>
      <trkpt lat="37.982785999774932861328125" lon="-107.733929492533206939697265625">
        <ele>3621.60009765625</ele>
        <time>2026-08-15T13:51:44.000Z</time>
        <extensions>
          <ns3:TrackPointExtension>
            <ns3:hr>104</ns3:hr>
            <ns3:cad>0</ns3:cad>
          </ns3:TrackPointExtension>
        </extensions>
      </trkpt>
      <trkpt lat="37.98279681243002414703369140625" lon="-107.733925469219684600830078125">
        <ele>3621.800048828125</ele>
        <time>2026-08-15T13:51:45.000Z</time>
        <extensions>
          <ns3:TrackPointExtension>
            <ns3:hr>107</ns3:hr>
            <ns3:cad>0</ns3:cad>
          </ns3:TrackPointExtension>
        </extensions>
      </trkpt>
      <trkpt lat="37.98280335031449794769287109375" lon="-107.73392169736325740814208984375">
        <ele>3622</ele>
        <time>2026-08-15T13:51:46.000Z</time>
        <extensions>
          <ns3:TrackPointExtension>
            <ns3:hr>107</ns3:hr>
            <ns3:cad>0</ns3:cad>
          </ns3:TrackPointExtension>
        </extensions>
      </trkpt>
      <trkpt lat="37.982825897634029388427734375" lon="-107.73389806039631366729736328125">
        <ele>3622.60009765625</ele>
        <time>2026-08-15T13:51:50.000Z</time>
        <extensions>
          <ns3:TrackPointExtension>
            <ns3:hr>104</ns3:hr>
            <ns3:cad>0</ns3:cad>
          </ns3:TrackPointExtension>
        </extensions>
      </trkpt>
      <trkpt lat="37.98283503390848636627197265625" lon="-107.73388557136058807373046875">
        <ele>3622.800048828125</ele>
        <time>2026-08-15T13:51:52.000Z</time>
        <extensions>
          <ns3:TrackPointExtension>
            <ns3:hr>102</ns3:hr>
            <ns3:cad>0</ns3:cad>
          </ns3:TrackPointExtension>
        </extensions>
      </trkpt>
      <trkpt lat="37.982847690582275390625" lon="-107.7338786981999874114990234375">
        <ele>3623</ele>
        <time>2026-08-15T13:51:54.000Z</time>
        <extensions>
          <ns3:TrackPointExtension>
            <ns3:hr>100</ns3:hr>
            <ns3:cad>0</ns3:cad>
          </ns3:TrackPointExtension>
        </extensions>
      </trkpt>
      <trkpt lat="37.98288214020431041717529296875" lon="-107.73383988998830318450927734375">
        <ele>3623.800048828125</ele>
        <time>2026-08-15T13:51:58.000Z</time>
        <extensions>
          <ns3:TrackPointExtension>
            <ns3:hr>99</ns3:hr>
            <ns3:cad>0</ns3:cad>
          </ns3:TrackPointExtension>
        </extensions>
      </trkpt>
      <trkpt lat="37.9829175956547260284423828125" lon="-107.733815498650074005126953125">
        <ele>3624</ele>
        <time>2026-08-15T13:52:02.000Z</time>
        <extensions>
          <ns3:TrackPointExtension>
            <ns3:hr>100</ns3:hr>
            <ns3:cad>0</ns3:cad>
          </ns3:TrackPointExtension>
        </extensions>
      </trkpt>
      <trkpt lat="37.98294567503035068511962890625" lon="-107.7338042668998241424560546875">
        <ele>3624.60009765625</ele>
        <time>2026-08-15T13:52:05.000Z</time>
        <extensions>
          <ns3:TrackPointExtension>
            <ns3:hr>103</ns3:hr>
            <ns3:cad>0</ns3:cad>
          </ns3:TrackPointExtension>
        </extensions>
      </trkpt>
      <trkpt lat="37.9829608462750911712646484375" lon="-107.73378591053187847137451171875">
        <ele>3624.800048828125</ele>
        <time>2026-08-15T13:52:08.000Z</time>
        <extensions>
          <ns3:TrackPointExtension>
            <ns3:hr>106</ns3:hr>
            <ns3:cad>0</ns3:cad>
          </ns3:TrackPointExtension>
        </extensions>
      </trkpt>
      <trkpt lat="37.98297442495822906494140625" lon="-107.7337750978767871856689453125">
        <ele>3625.199951171875</ele>
        <time>2026-08-15T13:52:11.000Z</time>
        <extensions>
          <ns3:TrackPointExtension>
            <ns3:hr>107</ns3:hr>
            <ns3:cad>0</ns3:cad>
          </ns3:TrackPointExtension>
        </extensions>
      </trkpt>
      <trkpt lat="37.98300183378159999847412109375" lon="-107.733759172260761260986328125">
        <ele>3626.199951171875</ele>
        <time>2026-08-15T13:52:15.000Z</time>
        <extensions>
          <ns3:TrackPointExtension>
            <ns3:hr>107</ns3:hr>
            <ns3:cad>0</ns3:cad>
          </ns3:TrackPointExtension>
        </extensions>
      </trkpt>
      <trkpt lat="37.98302815295755863189697265625" lon="-107.7337382175028324127197265625">
        <ele>3627.39990234375</ele>
        <time>2026-08-15T13:52:19.000Z</time>
        <extensions>
          <ns3:TrackPointExtension>
            <ns3:hr>106</ns3:hr>
            <ns3:cad>0</ns3:cad>
          </ns3:TrackPointExtension>
        </extensions>
      </trkpt>
      <trkpt lat="37.98307291232049465179443359375" lon="-107.7337181009352207183837890625">
        <ele>3627.199951171875</ele>
        <time>2026-08-15T13:52:25.000Z</time>
        <extensions>
          <ns3:TrackPointExtension>
            <ns3:hr>104</ns3:hr>
            <ns3:cad>0</ns3:cad>
          </ns3:TrackPointExtension>
        </extensions>
      </trkpt>
      <trkpt lat="37.98307626508176326751708984375" lon="-107.73371282033622264862060546875">
        <ele>3627.39990234375</ele>
        <time>2026-08-15T13:52:26.000Z</time>
        <extensions>
          <ns3:TrackPointExtension>
            <ns3:hr>104</ns3:hr>
            <ns3:cad>0</ns3:cad>
          </ns3:TrackPointExtension>
        </extensions>
      </trkpt>
      <trkpt lat="37.98312194645404815673828125" lon="-107.7336818911135196685791015625">
        <ele>3628</ele>
        <time>2026-08-15T13:52:32.000Z</time>
        <extensions>
          <ns3:TrackPointExtension>
            <ns3:hr>104</ns3:hr>
            <ns3:cad>0</ns3:cad>
          </ns3:TrackPointExtension>
        </extensions>
      </trkpt>
      <trkpt lat="37.98313460312783718109130859375" lon="-107.73366856388747692108154296875">
        <ele>3628</ele>
        <time>2026-08-15T13:52:34.000Z</time>
        <extensions>
          <ns3:TrackPointExtension>
            <ns3:hr>104</ns3:hr>
            <ns3:cad>0</ns3:cad>
          </ns3:TrackPointExtension>
        </extensions>
      </trkpt>
      <trkpt lat="37.9831861518323421478271484375" lon="-107.7336426638066768646240234375">
        <ele>3627.39990234375</ele>
        <time>2026-08-15T13:52:40.000Z</time>
        <extensions>
          <ns3:TrackPointExtension>
            <ns3:hr>103</ns3:hr>
            <ns3:cad>0</ns3:cad>
          </ns3:TrackPointExtension>
        </extensions>
      </trkpt>
      <trkpt lat="37.98319838941097259521484375" lon="-107.73364174179732799530029296875">
        <ele>3627.39990234375</ele>
        <time>2026-08-15T13:52:41.000Z</time>
        <extensions>
          <ns3:TrackPointExtension>
            <ns3:hr>104</ns3:hr>
            <ns3:cad>0</ns3:cad>
          </ns3:TrackPointExtension>
        </extensions>
      </trkpt>
      <trkpt lat="37.98321724869310855865478515625" lon="-107.7336315996944904327392578125">
        <ele>3627.60009765625</ele>
        <time>2026-08-15T13:52:43.000Z</time>
        <extensions>
          <ns3:TrackPointExtension>
            <ns3:hr>108</ns3:hr>
            <ns3:cad>66</ns3:cad>
          </ns3:TrackPointExtension>
        </extensions>
      </trkpt>
      <trkpt lat="37.98324742354452610015869140625" lon="-107.73362950421869754791259765625">
        <ele>3627.800048828125</ele>
        <time>2026-08-15T13:52:46.000Z</time>
        <extensions>
          <ns3:TrackPointExtension>
            <ns3:hr>109</ns3:hr>
            <ns3:cad>66</ns3:cad>
          </ns3:TrackPointExtension>
        </extensions>
      </trkpt>
      <trkpt lat="37.98325471580028533935546875" lon="-107.73362916894257068634033203125">
        <ele>3627.800048828125</ele>
        <time>2026-08-15T13:52:47.000Z</time>
        <extensions>
          <ns3:TrackPointExtension>
            <ns3:hr>105</ns3:hr>
            <ns3:cad>66</ns3:cad>
          </ns3:TrackPointExtension>
        </extensions>
      </trkpt>
      <trkpt lat="37.9832642711699008941650390625" lon="-107.73362916894257068634033203125">
        <ele>3628</ele>
        <time>2026-08-15T13:52:48.000Z</time>
        <extensions>
          <ns3:TrackPointExtension>
            <ns3:hr>102</ns3:hr>
            <ns3:cad>0</ns3:cad>
          </ns3:TrackPointExtension>
        </extensions>
      </trkpt>
      <trkpt lat="37.9832755029201507568359375" lon="-107.73362849839031696319580078125">
        <ele>3628</ele>
        <time>2026-08-15T13:52:49.000Z</time>
        <extensions>
          <ns3:TrackPointExtension>
            <ns3:hr>99</ns3:hr>
            <ns3:cad>0</ns3:cad>
          </ns3:TrackPointExtension>
        </extensions>
      </trkpt>
      <trkpt lat="37.98330022953450679779052734375" lon="-107.73361911065876483917236328125">
        <ele>3628</ele>
        <time>2026-08-15T13:52:51.000Z</time>
        <extensions>
          <ns3:TrackPointExtension>
            <ns3:hr>96</ns3:hr>
            <ns3:cad>0</ns3:cad>
          </ns3:TrackPointExtension>
        </extensions>
      </trkpt>
      <trkpt lat="37.9833195917308330535888671875" lon="-107.733606956899166107177734375">
        <ele>3627.60009765625</ele>
        <time>2026-08-15T13:52:53.000Z</time>
        <extensions>
          <ns3:TrackPointExtension>
            <ns3:hr>95</ns3:hr>
            <ns3:cad>0</ns3:cad>
          </ns3:TrackPointExtension>
        </extensions>
      </trkpt>
      <trkpt lat="37.98334247432649135589599609375" lon="-107.73355431854724884033203125">
        <ele>3628.39990234375</ele>
        <time>2026-08-15T13:52:59.000Z</time>
        <extensions>
          <ns3:TrackPointExtension>
            <ns3:hr>94</ns3:hr>
            <ns3:cad>0</ns3:cad>
          </ns3:TrackPointExtension>
        </extensions>
      </trkpt>
      <trkpt lat="37.98334280960261821746826171875" lon="-107.733542919158935546875">
        <ele>3628.60009765625</ele>
        <time>2026-08-15T13:53:00.000Z</time>
        <extensions>
          <ns3:TrackPointExtension>
            <ns3:hr>94</ns3:hr>
            <ns3:cad>0</ns3:cad>
          </ns3:TrackPointExtension>
        </extensions>
      </trkpt>
      <trkpt lat="37.9833734035491943359375" lon="-107.73350293748080730438232421875">
        <ele>3629.199951171875</ele>
        <time>2026-08-15T13:53:05.000Z</time>
        <extensions>
          <ns3:TrackPointExtension>
            <ns3:hr>91</ns3:hr>
            <ns3:cad>43</ns3:cad>
          </ns3:TrackPointExtension>
        </extensions>
      </trkpt>
      <trkpt lat="37.9833809472620487213134765625" lon="-107.73349941708147525787353515625">
        <ele>3629.39990234375</ele>
        <time>2026-08-15T13:53:06.000Z</time>
        <extensions>
          <ns3:TrackPointExtension>
            <ns3:hr>91</ns3:hr>
            <ns3:cad>43</ns3:cad>
          </ns3:TrackPointExtension>
        </extensions>
      </trkpt>
      <trkpt lat="37.98342880792915821075439453125" lon="-107.73346136324107646942138671875">
        <ele>3630.39990234375</ele>
        <time>2026-08-15T13:53:12.000Z</time>
        <extensions>
          <ns3:TrackPointExtension>
            <ns3:hr>90</ns3:hr>
            <ns3:cad>45</ns3:cad>
          </ns3:TrackPointExtension>
        </extensions>
      </trkpt>
      <trkpt lat="37.98343635164201259613037109375" lon="-107.7334508858621120452880859375">
        <ele>3630.60009765625</ele>
        <time>2026-08-15T13:53:13.000Z</time>
        <extensions>
          <ns3:TrackPointExtension>
            <ns3:hr>90</ns3:hr>
            <ns3:cad>45</ns3:cad>
          </ns3:TrackPointExtension>
        </extensions>
      </trkpt>
      <trkpt lat="37.98344305716454982757568359375" lon="-107.73344024084508419036865234375">
        <ele>3630.60009765625</ele>
        <time>2026-08-15T13:53:14.000Z</time>
        <extensions>
          <ns3:TrackPointExtension>
            <ns3:hr>90</ns3:hr>
            <ns3:cad>45</ns3:cad>
          </ns3:TrackPointExtension>
        </extensions>
      </trkpt>
      <trkpt lat="37.9834929294884204864501953125" lon="-107.7333945594727993011474609375">
        <ele>3631</ele>
        <time>2026-08-15T13:53:20.000Z</time>
        <extensions>
          <ns3:TrackPointExtension>
            <ns3:hr>91</ns3:hr>
            <ns3:cad>41</ns3:cad>
          </ns3:TrackPointExtension>
        </extensions>
      </trkpt>
      <trkpt lat="37.9834999702870845794677734375" lon="-107.73338022641837596893310546875">
        <ele>3631.199951171875</ele>
        <time>2026-08-15T13:53:21.000Z</time>
        <extensions>
          <ns3:TrackPointExtension>
            <ns3:hr>91</ns3:hr>
            <ns3:cad>53</ns3:cad>
          </ns3:TrackPointExtension>
        </extensions>
      </trkpt>
      <trkpt lat="37.98352670855820178985595703125" lon="-107.7333362214267253875732421875">
        <ele>3631.800048828125</ele>
        <time>2026-08-15T13:53:27.000Z</time>
        <extensions>
          <ns3:TrackPointExtension>
            <ns3:hr>95</ns3:hr>
            <ns3:cad>47</ns3:cad>
          </ns3:TrackPointExtension>
        </extensions>
      </trkpt>
      <trkpt lat="37.98353123478591442108154296875" lon="-107.73332825861871242523193359375">
        <ele>3632</ele>
        <time>2026-08-15T13:53:28.000Z</time>
        <extensions>
          <ns3:TrackPointExtension>
            <ns3:hr>96</ns3:hr>
            <ns3:cad>47</ns3:cad>
          </ns3:TrackPointExtension>
        </extensions>
      </trkpt>
      <trkpt lat="37.98354439437389373779296875" lon="-107.7333176136016845703125">
        <ele>3632.199951171875</ele>
        <time>2026-08-15T13:53:31.000Z</time>
        <extensions>
          <ns3:TrackPointExtension>
            <ns3:hr>99</ns3:hr>
            <ns3:cad>47</ns3:cad>
          </ns3:TrackPointExtension>
        </extensions>
      </trkpt>
      <trkpt lat="37.98355252481997013092041015625" lon="-107.73329774849116802215576171875">
        <ele>3632</ele>
        <time>2026-08-15T13:53:34.000Z</time>
        <extensions>
          <ns3:TrackPointExtension>
            <ns3:hr>99</ns3:hr>
            <ns3:cad>0</ns3:cad>
          </ns3:TrackPointExtension>
        </extensions>
      </trkpt>
      <trkpt lat="37.9835807718336582183837890625" lon="-107.7332762070000171661376953125">
        <ele>3633</ele>
        <time>2026-08-15T13:53:37.000Z</time>
        <extensions>
          <ns3:TrackPointExtension>
            <ns3:hr>98</ns3:hr>
            <ns3:cad>0</ns3:cad>
          </ns3:TrackPointExtension>
        </extensions>
      </trkpt>
      <trkpt lat="37.9835874773561954498291015625" lon="-107.73326187394559383392333984375">
        <ele>3633.199951171875</ele>
        <time>2026-08-15T13:53:39.000Z</time>
        <extensions>
          <ns3:TrackPointExtension>
            <ns3:hr>99</ns3:hr>
            <ns3:cad>0</ns3:cad>
          </ns3:TrackPointExtension>
        </extensions>
      </trkpt>
      <trkpt lat="37.9836082644760608673095703125" lon="-107.73323153145611286163330078125">
        <ele>3633.60009765625</ele>
        <time>2026-08-15T13:53:45.000Z</time>
        <extensions>
          <ns3:TrackPointExtension>
            <ns3:hr>101</ns3:hr>
            <ns3:cad>0</ns3:cad>
          </ns3:TrackPointExtension>
        </extensions>
      </trkpt>
      <trkpt lat="37.98361203633248805999755859375" lon="-107.73322298191487789154052734375">
        <ele>3634.39990234375</ele>
        <time>2026-08-15T13:53:47.000Z</time>
        <extensions>
          <ns3:TrackPointExtension>
            <ns3:hr>102</ns3:hr>
            <ns3:cad>42</ns3:cad>
          </ns3:TrackPointExtension>
        </extensions>
      </trkpt>
      <trkpt lat="37.98362896777689456939697265625" lon="-107.7332009375095367431640625">
        <ele>3635.39990234375</ele>
        <time>2026-08-15T13:53:50.000Z</time>
        <extensions>
          <ns3:TrackPointExtension>
            <ns3:hr>102</ns3:hr>
            <ns3:cad>77</ns3:cad>
          </ns3:TrackPointExtension>
        </extensions>
      </trkpt>
      <trkpt lat="37.983654029667377471923828125" lon="-107.73315492086112499237060546875">
        <ele>3635.60009765625</ele>
        <time>2026-08-15T13:53:54.000Z</time>
        <extensions>
          <ns3:TrackPointExtension>
            <ns3:hr>103</ns3:hr>
            <ns3:cad>78</ns3:cad>
          </ns3:TrackPointExtension>
        </extensions>
      </trkpt>
      <trkpt lat="37.98369954340159893035888671875" lon="-107.733113765716552734375">
        <ele>3635.60009765625</ele>
        <time>2026-08-15T13:53:59.000Z</time>
        <extensions>
          <ns3:TrackPointExtension>
            <ns3:hr>106</ns3:hr>
            <ns3:cad>50</ns3:cad>
          </ns3:TrackPointExtension>
        </extensions>
      </trkpt>
      <trkpt lat="37.9837078414857387542724609375" lon="-107.73310840129852294921875">
        <ele>3635.60009765625</ele>
        <time>2026-08-15T13:54:00.000Z</time>
        <extensions>
          <ns3:TrackPointExtension>
            <ns3:hr>107</ns3:hr>
            <ns3:cad>50</ns3:cad>
          </ns3:TrackPointExtension>
        </extensions>
      </trkpt>
      <trkpt lat="37.98374078236520290374755859375" lon="-107.7330804057419300079345703125">
        <ele>3636.199951171875</ele>
        <time>2026-08-15T13:54:04.000Z</time>
        <extensions>
          <ns3:TrackPointExtension>
            <ns3:hr>111</ns3:hr>
            <ns3:cad>49</ns3:cad>
          </ns3:TrackPointExtension>
        </extensions>
      </trkpt>
      <trkpt lat="37.98376928083598613739013671875" lon="-107.73305316455662250518798828125">
        <ele>3636.39990234375</ele>
        <time>2026-08-15T13:54:08.000Z</time>
        <extensions>
          <ns3:TrackPointExtension>
            <ns3:hr>113</ns3:hr>
            <ns3:cad>43</ns3:cad>
          </ns3:TrackPointExtension>
        </extensions>
      </trkpt>
      <trkpt lat="37.98378336243331432342529296875" lon="-107.7330294437706470489501953125">
        <ele>3636.60009765625</ele>
        <time>2026-08-15T13:54:10.000Z</time>
        <extensions>
          <ns3:TrackPointExtension>
            <ns3:hr>112</ns3:hr>
            <ns3:cad>47</ns3:cad>
          </ns3:TrackPointExtension>
        </extensions>
      </trkpt>
      <trkpt lat="37.9838141240179538726806640625" lon="-107.732992060482501983642578125">
        <ele>3637.39990234375</ele>
        <time>2026-08-15T13:54:15.000Z</time>
        <extensions>
          <ns3:TrackPointExtension>
            <ns3:hr>110</ns3:hr>
            <ns3:cad>45</ns3:cad>
          </ns3:TrackPointExtension>
        </extensions>
      </trkpt>
      <trkpt lat="37.98385745845735073089599609375" lon="-107.73292710073292255401611328125">
        <ele>3637.60009765625</ele>
        <time>2026-08-15T13:54:21.000Z</time>
        <extensions>
          <ns3:TrackPointExtension>
            <ns3:hr>109</ns3:hr>
            <ns3:cad>48</ns3:cad>
          </ns3:TrackPointExtension>
        </extensions>
      </trkpt>
      <trkpt lat="37.98386533744633197784423828125" lon="-107.73291603662073612213134765625">
        <ele>3637.60009765625</ele>
        <time>2026-08-15T13:54:22.000Z</time>
        <extensions>
          <ns3:TrackPointExtension>
            <ns3:hr>109</ns3:hr>
            <ns3:cad>50</ns3:cad>
          </ns3:TrackPointExtension>
        </extensions>
      </trkpt>
      <trkpt lat="37.98387221060693264007568359375" lon="-107.73290664888918399810791015625">
        <ele>3637.60009765625</ele>
        <time>2026-08-15T13:54:23.000Z</time>
        <extensions>
          <ns3:TrackPointExtension>
            <ns3:hr>108</ns3:hr>
            <ns3:cad>52</ns3:cad>
          </ns3:TrackPointExtension>
        </extensions>
      </trkpt>
      <trkpt lat="37.98391412012279033660888671875" lon="-107.73284512571990489959716796875">
        <ele>3637.800048828125</ele>
        <time>2026-08-15T13:54:29.000Z</time>
        <extensions>
          <ns3:TrackPointExtension>
            <ns3:hr>107</ns3:hr>
            <ns3:cad>50</ns3:cad>
          </ns3:TrackPointExtension>
        </extensions>
      </trkpt>
      <trkpt lat="37.98391747288405895233154296875" lon="-107.73283481597900390625">
        <ele>3637.800048828125</ele>
        <time>2026-08-15T13:54:30.000Z</time>
        <extensions>
          <ns3:TrackPointExtension>
            <ns3:hr>107</ns3:hr>
            <ns3:cad>47</ns3:cad>
          </ns3:TrackPointExtension>
        </extensions>
      </trkpt>
      <trkpt lat="37.98394345678389072418212890625" lon="-107.73277119733393192291259765625">
        <ele>3638</ele>
        <time>2026-08-15T13:54:36.000Z</time>
        <extensions>
          <ns3:TrackPointExtension>
            <ns3:hr>106</ns3:hr>
            <ns3:cad>50</ns3:cad>
          </ns3:TrackPointExtension>
        </extensions>
      </trkpt>
      <trkpt lat="37.98394882120192050933837890625" lon="-107.73276248015463352203369140625">
        <ele>3638</ele>
        <time>2026-08-15T13:54:37.000Z</time>
        <extensions>
          <ns3:TrackPointExtension>
            <ns3:hr>107</ns3:hr>
            <ns3:cad>50</ns3:cad>
          </ns3:TrackPointExtension>
        </extensions>
      </trkpt>
      <trkpt lat="37.98399408347904682159423828125" lon="-107.7327126078307628631591796875">
        <ele>3637.800048828125</ele>
        <time>2026-08-15T13:54:43.000Z</time>
        <extensions>
          <ns3:TrackPointExtension>
            <ns3:hr>108</ns3:hr>
            <ns3:cad>50</ns3:cad>
          </ns3:TrackPointExtension>
        </extensions>
      </trkpt>
      <trkpt lat="37.9840008728206157684326171875" lon="-107.73270833306014537811279296875">
        <ele>3637.800048828125</ele>
        <time>2026-08-15T13:54:44.000Z</time>
        <extensions>
          <ns3:TrackPointExtension>
            <ns3:hr>108</ns3:hr>
            <ns3:cad>50</ns3:cad>
          </ns3:TrackPointExtension>
        </extensions>
      </trkpt>
      <trkpt lat="37.9840484820306301116943359375" lon="-107.73266114294528961181640625">
        <ele>3638.39990234375</ele>
        <time>2026-08-15T13:54:50.000Z</time>
        <extensions>
          <ns3:TrackPointExtension>
            <ns3:hr>107</ns3:hr>
            <ns3:cad>50</ns3:cad>
          </ns3:TrackPointExtension>
        </extensions>
      </trkpt>
      <trkpt lat="37.98405560664832592010498046875" lon="-107.732648067176342010498046875">
        <ele>3638.199951171875</ele>
        <time>2026-08-15T13:54:51.000Z</time>
        <extensions>
          <ns3:TrackPointExtension>
            <ns3:hr>107</ns3:hr>
            <ns3:cad>50</ns3:cad>
          </ns3:TrackPointExtension>
        </extensions>
      </trkpt>
      <trkpt lat="37.984093911945819854736328125" lon="-107.73258495144546031951904296875">
        <ele>3638.800048828125</ele>
        <time>2026-08-15T13:54:57.000Z</time>
        <extensions>
          <ns3:TrackPointExtension>
            <ns3:hr>105</ns3:hr>
            <ns3:cad>0</ns3:cad>
          </ns3:TrackPointExtension>
        </extensions>
      </trkpt>
      <trkpt lat="37.98409986309707164764404296875" lon="-107.73257271386682987213134765625">
        <ele>3638.800048828125</ele>
        <time>2026-08-15T13:54:58.000Z</time>
        <extensions>
          <ns3:TrackPointExtension>
            <ns3:hr>104</ns3:hr>
            <ns3:cad>0</ns3:cad>
          </ns3:TrackPointExtension>
        </extensions>
      </trkpt>
      <trkpt lat="37.98414076678454875946044921875" lon="-107.73251823149621486663818359375">
        <ele>3639.39990234375</ele>
        <time>2026-08-15T13:55:04.000Z</time>
        <extensions>
          <ns3:TrackPointExtension>
            <ns3:hr>103</ns3:hr>
            <ns3:cad>50</ns3:cad>
          </ns3:TrackPointExtension>
        </extensions>
      </trkpt>
      <trkpt lat="37.98415618948638439178466796875" lon="-107.7324822731316089630126953125">
        <ele>3639.800048828125</ele>
        <time>2026-08-15T13:55:07.000Z</time>
        <extensions>
          <ns3:TrackPointExtension>
            <ns3:hr>101</ns3:hr>
            <ns3:cad>44</ns3:cad>
          </ns3:TrackPointExtension>
        </extensions>
      </trkpt>
      <trkpt lat="37.9841581173241138458251953125" lon="-107.732466347515583038330078125">
        <ele>3639.800048828125</ele>
        <time>2026-08-15T13:55:08.000Z</time>
        <extensions>
          <ns3:TrackPointExtension>
            <ns3:hr>101</ns3:hr>
            <ns3:cad>44</ns3:cad>
          </ns3:TrackPointExtension>
        </extensions>
      </trkpt>
      <trkpt lat="37.9841742105782032012939453125" lon="-107.73242116905748844146728515625">
        <ele>3640</ele>
        <time>2026-08-15T13:55:12.000Z</time>
        <extensions>
          <ns3:TrackPointExtension>
            <ns3:hr>98</ns3:hr>
            <ns3:cad>48</ns3:cad>
          </ns3:TrackPointExtension>
        </extensions>
      </trkpt>
      <trkpt lat="37.98418418504297733306884765625" lon="-107.73239803500473499298095703125">
        <ele>3640</ele>
        <time>2026-08-15T13:55:15.000Z</time>
        <extensions>
          <ns3:TrackPointExtension>
            <ns3:hr>97</ns3:hr>
            <ns3:cad>50</ns3:cad>
          </ns3:TrackPointExtension>
        </extensions>
      </trkpt>
      <trkpt lat="37.9842117615044116973876953125" lon="-107.7323478274047374725341796875">
        <ele>3641</ele>
        <time>2026-08-15T13:55:21.000Z</time>
        <extensions>
          <ns3:TrackPointExtension>
            <ns3:hr>97</ns3:hr>
            <ns3:cad>48</ns3:cad>
          </ns3:TrackPointExtension>
        </extensions>
      </trkpt>
      <trkpt lat="37.9842278547585010528564453125" lon="-107.73230977356433868408203125">
        <ele>3641.39990234375</ele>
        <time>2026-08-15T13:55:24.000Z</time>
        <extensions>
          <ns3:TrackPointExtension>
            <ns3:hr>99</ns3:hr>
            <ns3:cad>46</ns3:cad>
          </ns3:TrackPointExtension>
        </extensions>
      </trkpt>
      <trkpt lat="37.98425006680190563201904296875" lon="-107.73226090706884860992431640625">
        <ele>3641.800048828125</ele>
        <time>2026-08-15T13:55:30.000Z</time>
        <extensions>
          <ns3:TrackPointExtension>
            <ns3:hr>99</ns3:hr>
            <ns3:cad>47</ns3:cad>
          </ns3:TrackPointExtension>
        </extensions>
      </trkpt>
      <trkpt lat="37.9842613823711872100830078125" lon="-107.7322448976337909698486328125">
        <ele>3642.199951171875</ele>
        <time>2026-08-15T13:55:33.000Z</time>
        <extensions>
          <ns3:TrackPointExtension>
            <ns3:hr>99</ns3:hr>
            <ns3:cad>0</ns3:cad>
          </ns3:TrackPointExtension>
        </extensions>
      </trkpt>
      <trkpt lat="37.984262220561504364013671875" lon="-107.73224414326250553131103515625">
        <ele>3642.39990234375</ele>
        <time>2026-08-15T13:55:34.000Z</time>
        <extensions>
          <ns3:TrackPointExtension>
            <ns3:hr>99</ns3:hr>
            <ns3:cad>0</ns3:cad>
          </ns3:TrackPointExtension>
        </extensions>
      </trkpt>
      <trkpt lat="37.98427772708237171173095703125" lon="-107.73220650851726531982421875">
        <ele>3643.199951171875</ele>
        <time>2026-08-15T13:55:38.000Z</time>
        <extensions>
          <ns3:TrackPointExtension>
            <ns3:hr>98</ns3:hr>
            <ns3:cad>41</ns3:cad>
          </ns3:TrackPointExtension>
        </extensions>
      </trkpt>
      <trkpt lat="37.984287701547145843505859375" lon="-107.73219435475766658782958984375">
        <ele>3643.39990234375</ele>
        <time>2026-08-15T13:55:39.000Z</time>
        <extensions>
          <ns3:TrackPointExtension>
            <ns3:hr>99</ns3:hr>
            <ns3:cad>41</ns3:cad>
          </ns3:TrackPointExtension>
        </extensions>
      </trkpt>
      <trkpt lat="37.984307818114757537841796875" lon="-107.7321334183216094970703125">
        <ele>3643.800048828125</ele>
        <time>2026-08-15T13:55:45.000Z</time>
        <extensions>
          <ns3:TrackPointExtension>
            <ns3:hr>100</ns3:hr>
            <ns3:cad>0</ns3:cad>
          </ns3:TrackPointExtension>
        </extensions>
      </trkpt>
      <trkpt lat="37.98432148061692714691162109375" lon="-107.73210433311760425567626953125">
        <ele>3644.199951171875</ele>
        <time>2026-08-15T13:55:49.000Z</time>
        <extensions>
          <ns3:TrackPointExtension>
            <ns3:hr>101</ns3:hr>
            <ns3:cad>41</ns3:cad>
          </ns3:TrackPointExtension>
        </extensions>
      </trkpt>
      <trkpt lat="37.98433271236717700958251953125" lon="-107.73210718296468257904052734375">
        <ele>3644.39990234375</ele>
        <time>2026-08-15T13:55:52.000Z</time>
        <extensions>
          <ns3:TrackPointExtension>
            <ns3:hr>102</ns3:hr>
            <ns3:cad>0</ns3:cad>
          </ns3:TrackPointExtension>
        </extensions>
      </trkpt>
      <trkpt lat="37.98433430492877960205078125" lon="-107.7320843003690242767333984375">
        <ele>3645</ele>
        <time>2026-08-15T13:55:58.000Z</time>
        <extensions>
          <ns3:TrackPointExtension>
            <ns3:hr>103</ns3:hr>
            <ns3:cad>69</ns3:cad>
          </ns3:TrackPointExtension>
        </extensions>
      </trkpt>
      <trkpt lat="37.98433690331876277923583984375" lon="-107.73207834921777248382568359375">
        <ele>3645.39990234375</ele>
        <time>2026-08-15T13:55:59.000Z</time>
        <extensions>
          <ns3:TrackPointExtension>
            <ns3:hr>102</ns3:hr>
            <ns3:cad>69</ns3:cad>
          </ns3:TrackPointExtension>
        </extensions>
      </trkpt>
      <trkpt lat="37.98434478230774402618408203125" lon="-107.7320665307343006134033203125">
        <ele>3646.199951171875</ele>
        <time>2026-08-15T13:56:02.000Z</time>
        <extensions>
          <ns3:TrackPointExtension>
            <ns3:hr>103</ns3:hr>
            <ns3:cad>0</ns3:cad>
          </ns3:TrackPointExtension>
        </extensions>
      </trkpt>
      <trkpt lat="37.98434545285999774932861328125" lon="-107.732064686715602874755859375">
        <ele>3646.39990234375</ele>
        <time>2026-08-15T13:56:04.000Z</time>
        <extensions>
          <ns3:TrackPointExtension>
            <ns3:hr>103</ns3:hr>
            <ns3:cad>78</ns3:cad>
          </ns3:TrackPointExtension>
        </extensions>
      </trkpt>
      <trkpt lat="37.98436221666634082794189453125" lon="-107.73204423487186431884765625">
        <ele>3647</ele>
        <time>2026-08-15T13:56:08.000Z</time>
        <extensions>
          <ns3:TrackPointExtension>
            <ns3:hr>103</ns3:hr>
            <ns3:cad>0</ns3:cad>
          </ns3:TrackPointExtension>
        </extensions>
      </trkpt>
      <trkpt lat="37.984363473951816558837890625" lon="-107.73202487267553806304931640625">
        <ele>3647.60009765625</ele>
        <time>2026-08-15T13:56:11.000Z</time>
        <extensions>
          <ns3:TrackPointExtension>
            <ns3:hr>104</ns3:hr>
            <ns3:cad>0</ns3:cad>
          </ns3:TrackPointExtension>
        </extensions>
      </trkpt>
      <trkpt lat="37.984372191131114959716796875" lon="-107.7319934405386447906494140625">
        <ele>3648.199951171875</ele>
        <time>2026-08-15T13:56:14.000Z</time>
        <extensions>
          <ns3:TrackPointExtension>
            <ns3:hr>104</ns3:hr>
            <ns3:cad>44</ns3:cad>
          </ns3:TrackPointExtension>
        </extensions>
      </trkpt>
      <trkpt lat="37.98439021222293376922607421875" lon="-107.73194876499474048614501953125">
        <ele>3648.199951171875</ele>
        <time>2026-08-15T13:56:20.000Z</time>
        <extensions>
          <ns3:TrackPointExtension>
            <ns3:hr>104</ns3:hr>
            <ns3:cad>43</ns3:cad>
          </ns3:TrackPointExtension>
        </extensions>
      </trkpt>
      <trkpt lat="37.98439222387969493865966796875" lon="-107.731945328414440155029296875">
        <ele>3648.39990234375</ele>
        <time>2026-08-15T13:56:21.000Z</time>
        <extensions>
          <ns3:TrackPointExtension>
            <ns3:hr>104</ns3:hr>
            <ns3:cad>43</ns3:cad>
          </ns3:TrackPointExtension>
        </extensions>
      </trkpt>
      <trkpt lat="37.9844033718109130859375" lon="-107.73193149827420711517333984375">
        <ele>3648.60009765625</ele>
        <time>2026-08-15T13:56:23.000Z</time>
        <extensions>
          <ns3:TrackPointExtension>
            <ns3:hr>104</ns3:hr>
            <ns3:cad>0</ns3:cad>
          </ns3:TrackPointExtension>
        </extensions>
      </trkpt>
      <trkpt lat="37.98441301099956035614013671875" lon="-107.73190434090793132781982421875">
        <ele>3649</ele>
        <time>2026-08-15T13:56:26.000Z</time>
        <extensions>
          <ns3:TrackPointExtension>
            <ns3:hr>103</ns3:hr>
            <ns3:cad>0</ns3:cad>
          </ns3:TrackPointExtension>
        </extensions>
      </trkpt>
      <trkpt lat="37.98442013561725616455078125" lon="-107.73187701590359210968017578125">
        <ele>3649.60009765625</ele>
        <time>2026-08-15T13:56:29.000Z</time>
        <extensions>
          <ns3:TrackPointExtension>
            <ns3:hr>102</ns3:hr>
            <ns3:cad>0</ns3:cad>
          </ns3:TrackPointExtension>
        </extensions>
      </trkpt>
      <trkpt lat="37.9844249971210956573486328125" lon="-107.7318526245653629302978515625">
        <ele>3650</ele>
        <time>2026-08-15T13:56:32.000Z</time>
        <extensions>
          <ns3:TrackPointExtension>
            <ns3:hr>103</ns3:hr>
            <ns3:cad>0</ns3:cad>
          </ns3:TrackPointExtension>
        </extensions>
      </trkpt>
      <trkpt lat="37.98442726023495197296142578125" lon="-107.73183745332062244415283203125">
        <ele>3649.800048828125</ele>
        <time>2026-08-15T13:56:35.000Z</time>
        <extensions>
          <ns3:TrackPointExtension>
            <ns3:hr>106</ns3:hr>
            <ns3:cad>0</ns3:cad>
          </ns3:TrackPointExtension>
        </extensions>
      </trkpt>
      <trkpt lat="37.98443899489939212799072265625" lon="-107.7317927777767181396484375">
        <ele>3649.60009765625</ele>
        <time>2026-08-15T13:56:38.000Z</time>
        <extensions>
          <ns3:TrackPointExtension>
            <ns3:hr>108</ns3:hr>
            <ns3:cad>0</ns3:cad>
          </ns3:TrackPointExtension>
        </extensions>
      </trkpt>
      <trkpt lat="37.984472103416919708251953125" lon="-107.73172211833298206329345703125">
        <ele>3650</ele>
        <time>2026-08-15T13:56:44.000Z</time>
        <extensions>
          <ns3:TrackPointExtension>
            <ns3:hr>109</ns3:hr>
            <ns3:cad>0</ns3:cad>
          </ns3:TrackPointExtension>
        </extensions>
      </trkpt>
      <trkpt lat="37.98447537235915660858154296875" lon="-107.7317151613533496856689453125">
        <ele>3650</ele>
        <time>2026-08-15T13:56:45.000Z</time>
        <extensions>
          <ns3:TrackPointExtension>
            <ns3:hr>109</ns3:hr>
            <ns3:cad>0</ns3:cad>
          </ns3:TrackPointExtension>
        </extensions>
      </trkpt>
      <trkpt lat="37.98448777757585048675537109375" lon="-107.7317108027637004852294921875">
        <ele>3650.199951171875</ele>
        <time>2026-08-15T13:56:47.000Z</time>
        <extensions>
          <ns3:TrackPointExtension>
            <ns3:hr>109</ns3:hr>
            <ns3:cad>0</ns3:cad>
          </ns3:TrackPointExtension>
        </extensions>
      </trkpt>
      <trkpt lat="37.98449414782226085662841796875" lon="-107.73169630207121372222900390625">
        <ele>3651</ele>
        <time>2026-08-15T13:56:50.000Z</time>
        <extensions>
          <ns3:TrackPointExtension>
            <ns3:hr>108</ns3:hr>
            <ns3:cad>0</ns3:cad>
          </ns3:TrackPointExtension>
        </extensions>
      </trkpt>
      <trkpt lat="37.9845111630856990814208984375" lon="-107.731685154139995574951171875">
        <ele>3652</ele>
        <time>2026-08-15T13:56:54.000Z</time>
        <extensions>
          <ns3:TrackPointExtension>
            <ns3:hr>109</ns3:hr>
            <ns3:cad>43</ns3:cad>
          </ns3:TrackPointExtension>
        </extensions>
      </trkpt>
      <trkpt lat="37.98451929353177547454833984375" lon="-107.73167409002780914306640625">
        <ele>3652.39990234375</ele>
        <time>2026-08-15T13:56:56.000Z</time>
        <extensions>
          <ns3:TrackPointExtension>
            <ns3:hr>104</ns3:hr>
            <ns3:cad>0</ns3:cad>
          </ns3:TrackPointExtension>
        </extensions>
      </trkpt>
      <trkpt lat="37.9845296032726764678955078125" lon="-107.73165422491729259490966796875">
        <ele>3652.60009765625</ele>
        <time>2026-08-15T13:56:58.000Z</time>
        <extensions>
          <ns3:TrackPointExtension>
            <ns3:hr>101</ns3:hr>
            <ns3:cad>0</ns3:cad>
          </ns3:TrackPointExtension>
        </extensions>
      </trkpt>
      <trkpt lat="37.9845369793474674224853515625" lon="-107.73164031095802783966064453125">
        <ele>3652.800048828125</ele>
        <time>2026-08-15T13:56:59.000Z</time>
        <extensions>
          <ns3:TrackPointExtension>
            <ns3:hr>98</ns3:hr>
            <ns3:cad>0</ns3:cad>
          </ns3:TrackPointExtension>
        </extensions>
      </trkpt>
      <trkpt lat="37.9845460318028926849365234375" lon="-107.73161985911428928375244140625">
        <ele>3652.800048828125</ele>
        <time>2026-08-15T13:57:01.000Z</time>
        <extensions>
          <ns3:TrackPointExtension>
            <ns3:hr>95</ns3:hr>
            <ns3:cad>0</ns3:cad>
          </ns3:TrackPointExtension>
        </extensions>
      </trkpt>
      <trkpt lat="37.984556257724761962890625" lon="-107.7315964736044406890869140625">
        <ele>3652.60009765625</ele>
        <time>2026-08-15T13:57:03.000Z</time>
        <extensions>
          <ns3:TrackPointExtension>
            <ns3:hr>94</ns3:hr>
            <ns3:cad>0</ns3:cad>
          </ns3:TrackPointExtension>
        </extensions>
      </trkpt>
      <trkpt lat="37.9845594428479671478271484375" lon="-107.7315820567309856414794921875">
        <ele>3653</ele>
        <time>2026-08-15T13:57:09.000Z</time>
        <extensions>
          <ns3:TrackPointExtension>
            <ns3:hr>94</ns3:hr>
            <ns3:cad>0</ns3:cad>
          </ns3:TrackPointExtension>
        </extensions>
      </trkpt>
      <trkpt lat="37.9845594428479671478271484375" lon="-107.7315820567309856414794921875">
        <ele>3653.199951171875</ele>
        <time>2026-08-15T13:57:10.000Z</time>
        <extensions>
          <ns3:TrackPointExtension>
            <ns3:hr>94</ns3:hr>
            <ns3:cad>0</ns3:cad>
          </ns3:TrackPointExtension>
        </extensions>
      </trkpt>
      <trkpt lat="37.9845594428479671478271484375" lon="-107.7315820567309856414794921875">
        <ele>3652.60009765625</ele>
        <time>2026-08-15T13:57:16.000Z</time>
        <extensions>
          <ns3:TrackPointExtension>
            <ns3:hr>97</ns3:hr>
            <ns3:cad>0</ns3:cad>
          </ns3:TrackPointExtension>
        </extensions>
      </trkpt>
      <trkpt lat="37.98455818556249141693115234375" lon="-107.731575183570384979248046875">
        <ele>3652.60009765625</ele>
        <time>2026-08-15T13:57:18.000Z</time>
        <extensions>
          <ns3:TrackPointExtension>
            <ns3:hr>101</ns3:hr>
            <ns3:cad>0</ns3:cad>
          </ns3:TrackPointExtension>
        </extensions>
      </trkpt>
      <trkpt lat="37.98457310535013675689697265625" lon="-107.73154274560511112213134765625">
        <ele>3653</ele>
        <time>2026-08-15T13:57:21.000Z</time>
        <extensions>
          <ns3:TrackPointExtension>
            <ns3:hr>103</ns3:hr>
            <ns3:cad>0</ns3:cad>
          </ns3:TrackPointExtension>
        </extensions>
      </trkpt>
      <trkpt lat="37.9845963232219219207763671875" lon="-107.73150117136538028717041015625">
        <ele>3653</ele>
        <time>2026-08-15T13:57:26.000Z</time>
        <extensions>
          <ns3:TrackPointExtension>
            <ns3:hr>103</ns3:hr>
            <ns3:cad>0</ns3:cad>
          </ns3:TrackPointExtension>
        </extensions>
      </trkpt>
      <trkpt lat="37.9846204631030559539794921875" lon="-107.7314479462802410125732421875">
        <ele>3653.800048828125</ele>
        <time>2026-08-15T13:57:32.000Z</time>
        <extensions>
          <ns3:TrackPointExtension>
            <ns3:hr>104</ns3:hr>
            <ns3:cad>0</ns3:cad>
          </ns3:TrackPointExtension>
        </extensions>
      </trkpt>
      <trkpt lat="37.98462658189237117767333984375" lon="-107.73143847472965717315673828125">
        <ele>3654</ele>
        <time>2026-08-15T13:57:33.000Z</time>
        <extensions>
          <ns3:TrackPointExtension>
            <ns3:hr>103</ns3:hr>
            <ns3:cad>0</ns3:cad>
          </ns3:TrackPointExtension>
        </extensions>
      </trkpt>
      <trkpt lat="37.98467050306499004364013671875" lon="-107.73139220662415027618408203125">
        <ele>3654.199951171875</ele>
        <time>2026-08-15T13:57:39.000Z</time>
        <extensions>
          <ns3:TrackPointExtension>
            <ns3:hr>104</ns3:hr>
            <ns3:cad>55</ns3:cad>
          </ns3:TrackPointExtension>
        </extensions>
      </trkpt>
      <trkpt lat="37.9846771247684955596923828125" lon="-107.73138550110161304473876953125">
        <ele>3654.39990234375</ele>
        <time>2026-08-15T13:57:40.000Z</time>
        <extensions>
          <ns3:TrackPointExtension>
            <ns3:hr>104</ns3:hr>
            <ns3:cad>55</ns3:cad>
          </ns3:TrackPointExtension>
        </extensions>
      </trkpt>
      <trkpt lat="37.984701432287693023681640625" lon="-107.7313520573079586029052734375">
        <ele>3655</ele>
        <time>2026-08-15T13:57:44.000Z</time>
        <extensions>
          <ns3:TrackPointExtension>
            <ns3:hr>106</ns3:hr>
            <ns3:cad>0</ns3:cad>
          </ns3:TrackPointExtension>
        </extensions>
      </trkpt>
      <trkpt lat="37.98471660353243350982666015625" lon="-107.7313341200351715087890625">
        <ele>3655.39990234375</ele>
        <time>2026-08-15T13:57:47.000Z</time>
        <extensions>
          <ns3:TrackPointExtension>
            <ns3:hr>106</ns3:hr>
            <ns3:cad>45</ns3:cad>
          </ns3:TrackPointExtension>
        </extensions>
      </trkpt>
      <trkpt lat="37.98475549556314945220947265625" lon="-107.7313046157360076904296875">
        <ele>3656.199951171875</ele>
        <time>2026-08-15T13:57:52.000Z</time>
        <extensions>
          <ns3:TrackPointExtension>
            <ns3:hr>106</ns3:hr>
            <ns3:cad>47</ns3:cad>
          </ns3:TrackPointExtension>
        </extensions>
      </trkpt>
      <trkpt lat="37.984761111438274383544921875" lon="-107.73129723966121673583984375">
        <ele>3656.39990234375</ele>
        <time>2026-08-15T13:57:53.000Z</time>
        <extensions>
          <ns3:TrackPointExtension>
            <ns3:hr>107</ns3:hr>
            <ns3:cad>47</ns3:cad>
          </ns3:TrackPointExtension>
        </extensions>
      </trkpt>
      <trkpt lat="37.9847917892038822174072265625" lon="-107.73123730905354022979736328125">
        <ele>3657.199951171875</ele>
        <time>2026-08-15T13:57:59.000Z</time>
        <extensions>
          <ns3:TrackPointExtension>
            <ns3:hr>108</ns3:hr>
            <ns3:cad>50</ns3:cad>
          </ns3:TrackPointExtension>
        </extensions>
      </trkpt>
      <trkpt lat="37.9847968183457851409912109375" lon="-107.731228508055210113525390625">
        <ele>3657.199951171875</ele>
        <time>2026-08-15T13:58:00.000Z</time>
        <extensions>
          <ns3:TrackPointExtension>
            <ns3:hr>108</ns3:hr>
            <ns3:cad>50</ns3:cad>
          </ns3:TrackPointExtension>
        </extensions>
      </trkpt>
      <trkpt lat="37.9848360456526279449462890625" lon="-107.731178216636180877685546875">
        <ele>3657.60009765625</ele>
        <time>2026-08-15T13:58:06.000Z</time>
        <extensions>
          <ns3:TrackPointExtension>
            <ns3:hr>107</ns3:hr>
            <ns3:cad>48</ns3:cad>
          </ns3:TrackPointExtension>
        </extensions>
      </trkpt>
      <trkpt lat="37.9848417453467845916748046875" lon="-107.731170840561389923095703125">
        <ele>3658.199951171875</ele>
        <time>2026-08-15T13:58:11.000Z</time>
        <extensions>
          <ns3:TrackPointExtension>
            <ns3:hr>108</ns3:hr>
            <ns3:cad>0</ns3:cad>
          </ns3:TrackPointExtension>
        </extensions>
      </trkpt>
      <trkpt lat="37.9848400689661502838134765625" lon="-107.73117117583751678466796875">
        <ele>3658</ele>
        <time>2026-08-15T13:58:12.000Z</time>
        <extensions>
          <ns3:TrackPointExtension>
            <ns3:hr>107</ns3:hr>
            <ns3:cad>0</ns3:cad>
          </ns3:TrackPointExtension>
        </extensions>
      </trkpt>
      <trkpt lat="37.98485037870705127716064453125" lon="-107.73114460520446300506591796875">
        <ele>3658</ele>
        <time>2026-08-15T13:58:16.000Z</time>
        <extensions>
          <ns3:TrackPointExtension>
            <ns3:hr>104</ns3:hr>
            <ns3:cad>0</ns3:cad>
          </ns3:TrackPointExtension>
        </extensions>
      </trkpt>
      <trkpt lat="37.9848477803170680999755859375" lon="-107.73114460520446300506591796875">
        <ele>3658.199951171875</ele>
        <time>2026-08-15T13:58:19.000Z</time>
        <extensions>
          <ns3:TrackPointExtension>
            <ns3:hr>101</ns3:hr>
            <ns3:cad>0</ns3:cad>
          </ns3:TrackPointExtension>
        </extensions>
      </trkpt>
      <trkpt lat="37.98485867679119110107421875" lon="-107.73112918250262737274169921875">
        <ele>3658</ele>
        <time>2026-08-15T13:58:23.000Z</time>
        <extensions>
          <ns3:TrackPointExtension>
            <ns3:hr>98</ns3:hr>
            <ns3:cad>0</ns3:cad>
          </ns3:TrackPointExtension>
        </extensions>
      </trkpt>
      <trkpt lat="37.98486546613276004791259765625" lon="-107.73112960159778594970703125">
        <ele>3658.199951171875</ele>
        <time>2026-08-15T13:58:24.000Z</time>
        <extensions>
          <ns3:TrackPointExtension>
            <ns3:hr>100</ns3:hr>
            <ns3:cad>0</ns3:cad>
          </ns3:TrackPointExtension>
        </extensions>
      </trkpt>
      <trkpt lat="37.98487745225429534912109375" lon="-107.73112700320780277252197265625">
        <ele>3658.39990234375</ele>
        <time>2026-08-15T13:58:26.000Z</time>
        <extensions>
          <ns3:TrackPointExtension>
            <ns3:hr>103</ns3:hr>
            <ns3:cad>0</ns3:cad>
          </ns3:TrackPointExtension>
        </extensions>
      </trkpt>
      <trkpt lat="37.98488776199519634246826171875" lon="-107.7311187051236629486083984375">
        <ele>3659</ele>
        <time>2026-08-15T13:58:31.000Z</time>
        <extensions>
          <ns3:TrackPointExtension>
            <ns3:hr>103</ns3:hr>
            <ns3:cad>0</ns3:cad>
          </ns3:TrackPointExtension>
        </extensions>
      </trkpt>
      <trkpt lat="37.9848940484225749969482421875" lon="-107.731111161410808563232421875">
        <ele>3659</ele>
        <time>2026-08-15T13:58:37.000Z</time>
        <extensions>
          <ns3:TrackPointExtension>
            <ns3:hr>105</ns3:hr>
            <ns3:cad>0</ns3:cad>
          </ns3:TrackPointExtension>
        </extensions>
      </trkpt>
      <trkpt lat="37.98489890992641448974609375" lon="-107.73110755719244480133056640625">
        <ele>3659.199951171875</ele>
        <time>2026-08-15T13:58:39.000Z</time>
        <extensions>
          <ns3:TrackPointExtension>
            <ns3:hr>107</ns3:hr>
            <ns3:cad>0</ns3:cad>
          </ns3:TrackPointExtension>
        </extensions>
      </trkpt>
      <trkpt lat="37.9849017597734928131103515625" lon="-107.7311066351830959320068359375">
        <ele>3659.199951171875</ele>
        <time>2026-08-15T13:58:40.000Z</time>
        <extensions>
          <ns3:TrackPointExtension>
            <ns3:hr>107</ns3:hr>
            <ns3:cad>0</ns3:cad>
          </ns3:TrackPointExtension>
        </extensions>
      </trkpt>
      <trkpt lat="37.9849275760352611541748046875" lon="-107.73109070956707000732421875">
        <ele>3659.39990234375</ele>
        <time>2026-08-15T13:58:44.000Z</time>
        <extensions>
          <ns3:TrackPointExtension>
            <ns3:hr>104</ns3:hr>
            <ns3:cad>0</ns3:cad>
          </ns3:TrackPointExtension>
        </extensions>
      </trkpt>
      <trkpt lat="37.98493755050003528594970703125" lon="-107.73108660243451595306396484375">
        <ele>3659.39990234375</ele>
        <time>2026-08-15T13:58:46.000Z</time>
        <extensions>
          <ns3:TrackPointExtension>
            <ns3:hr>101</ns3:hr>
            <ns3:cad>0</ns3:cad>
          </ns3:TrackPointExtension>
        </extensions>
      </trkpt>
      <trkpt lat="37.984954230487346649169921875" lon="-107.7310784719884395599365234375">
        <ele>3659.199951171875</ele>
        <time>2026-08-15T13:58:48.000Z</time>
        <extensions>
          <ns3:TrackPointExtension>
            <ns3:hr>99</ns3:hr>
            <ns3:cad>79</ns3:cad>
          </ns3:TrackPointExtension>
        </extensions>
      </trkpt>
      <trkpt lat="37.98497258685529232025146484375" lon="-107.7310657314956188201904296875">
        <ele>3659.199951171875</ele>
        <time>2026-08-15T13:58:51.000Z</time>
        <extensions>
          <ns3:TrackPointExtension>
            <ns3:hr>96</ns3:hr>
            <ns3:cad>79</ns3:cad>
          </ns3:TrackPointExtension>
        </extensions>
      </trkpt>
      <trkpt lat="37.98500175587832927703857421875" lon="-107.73105223663151264190673828125">
        <ele>3659</ele>
        <time>2026-08-15T13:58:55.000Z</time>
        <extensions>
          <ns3:TrackPointExtension>
            <ns3:hr>96</ns3:hr>
            <ns3:cad>0</ns3:cad>
          </ns3:TrackPointExtension>
        </extensions>
      </trkpt>
      <trkpt lat="37.98504819162189960479736328125" lon="-107.73104888387024402618408203125">
        <ele>3658.800048828125</ele>
        <time>2026-08-15T13:59:01.000Z</time>
        <extensions>
          <ns3:TrackPointExtension>
            <ns3:hr>96</ns3:hr>
            <ns3:cad>0</ns3:cad>
          </ns3:TrackPointExtension>
        </extensions>
      </trkpt>
      <trkpt lat="37.985098063945770263671875" lon="-107.7310469560325145721435546875">
        <ele>3659.39990234375</ele>
        <time>2026-08-15T13:59:07.000Z</time>
        <extensions>
          <ns3:TrackPointExtension>
            <ns3:hr>97</ns3:hr>
            <ns3:cad>0</ns3:cad>
          </ns3:TrackPointExtension>
        </extensions>
      </trkpt>
      <trkpt lat="37.98515413887798786163330078125" lon="-107.7310506440699100494384765625">
        <ele>3658.800048828125</ele>
        <time>2026-08-15T13:59:13.000Z</time>
        <extensions>
          <ns3:TrackPointExtension>
            <ns3:hr>97</ns3:hr>
            <ns3:cad>0</ns3:cad>
          </ns3:TrackPointExtension>
        </extensions>
      </trkpt>
      <trkpt lat="37.98521499149501323699951171875" lon="-107.7310664020478725433349609375">
        <ele>3659.199951171875</ele>
        <time>2026-08-15T13:59:19.000Z</time>
        <extensions>
          <ns3:TrackPointExtension>
            <ns3:hr>95</ns3:hr>
            <ns3:cad>45</ns3:cad>
          </ns3:TrackPointExtension>
        </extensions>
      </trkpt>
      <trkpt lat="37.985279448330402374267578125" lon="-107.73105156607925891876220703125">
        <ele>3659.60009765625</ele>
        <time>2026-08-15T13:59:25.000Z</time>
        <extensions>
          <ns3:TrackPointExtension>
            <ns3:hr>95</ns3:hr>
            <ns3:cad>45</ns3:cad>
          </ns3:TrackPointExtension>
        </extensions>
      </trkpt>
      <trkpt lat="37.985329069197177886962890625" lon="-107.731050811707973480224609375">
        <ele>3659.60009765625</ele>
        <time>2026-08-15T13:59:30.000Z</time>
        <extensions>
          <ns3:TrackPointExtension>
            <ns3:hr>98</ns3:hr>
            <ns3:cad>0</ns3:cad>
          </ns3:TrackPointExtension>
        </extensions>
      </trkpt>
      <trkpt lat="37.9853366129100322723388671875" lon="-107.7310523204505443572998046875">
        <ele>3659.800048828125</ele>
        <time>2026-08-15T13:59:31.000Z</time>
        <extensions>
          <ns3:TrackPointExtension>
            <ns3:hr>99</ns3:hr>
            <ns3:cad>45</ns3:cad>
          </ns3:TrackPointExtension>
        </extensions>
      </trkpt>
      <trkpt lat="37.98534725792706012725830078125" lon="-107.731054164469242095947265625">
        <ele>3660</ele>
        <time>2026-08-15T13:59:32.000Z</time>
        <extensions>
          <ns3:TrackPointExtension>
            <ns3:hr>103</ns3:hr>
            <ns3:cad>45</ns3:cad>
          </ns3:TrackPointExtension>
        </extensions>
      </trkpt>
      <trkpt lat="37.98535698093473911285400390625" lon="-107.731053829193115234375">
        <ele>3660.199951171875</ele>
        <time>2026-08-15T13:59:33.000Z</time>
        <extensions>
          <ns3:TrackPointExtension>
            <ns3:hr>106</ns3:hr>
            <ns3:cad>45</ns3:cad>
          </ns3:TrackPointExtension>
        </extensions>
      </trkpt>
      <trkpt lat="37.9853667877614498138427734375" lon="-107.7310471236705780029296875">
        <ele>3660.199951171875</ele>
        <time>2026-08-15T13:59:34.000Z</time>
        <extensions>
          <ns3:TrackPointExtension>
            <ns3:hr>106</ns3:hr>
            <ns3:cad>45</ns3:cad>
          </ns3:TrackPointExtension>
        </extensions>
      </trkpt>
      <trkpt lat="37.9854073561728000640869140625" lon="-107.7310291863977909088134765625">
        <ele>3660.199951171875</ele>
        <time>2026-08-15T13:59:38.000Z</time>
        <extensions>
          <ns3:TrackPointExtension>
            <ns3:hr>107</ns3:hr>
            <ns3:cad>0</ns3:cad>
          </ns3:TrackPointExtension>
        </extensions>
      </trkpt>
      <trkpt lat="37.98544717021286487579345703125" lon="-107.73103849031031131744384765625">
        <ele>3661</ele>
        <time>2026-08-15T13:59:43.000Z</time>
        <extensions>
          <ns3:TrackPointExtension>
            <ns3:hr>106</ns3:hr>
            <ns3:cad>0</ns3:cad>
          </ns3:TrackPointExtension>
        </extensions>
      </trkpt>
      <trkpt lat="37.9854579828679561614990234375" lon="-107.73103312589228153228759765625">
        <ele>3661.39990234375</ele>
        <time>2026-08-15T13:59:44.000Z</time>
        <extensions>
          <ns3:TrackPointExtension>
            <ns3:hr>106</ns3:hr>
            <ns3:cad>0</ns3:cad>
          </ns3:TrackPointExtension>
        </extensions>
      </trkpt>
      <trkpt lat="37.9854908399283885955810546875" lon="-107.73099976591765880584716796875">
        <ele>3661.39990234375</ele>
        <time>2026-08-15T13:59:48.000Z</time>
        <extensions>
          <ns3:TrackPointExtension>
            <ns3:hr>104</ns3:hr>
            <ns3:cad>50</ns3:cad>
          </ns3:TrackPointExtension>
        </extensions>
      </trkpt>
      <trkpt lat="37.98554909415543079376220703125" lon="-107.730976045131683349609375">
        <ele>3662.39990234375</ele>
        <time>2026-08-15T13:59:54.000Z</time>
        <extensions>
          <ns3:TrackPointExtension>
            <ns3:hr>105</ns3:hr>
            <ns3:cad>50</ns3:cad>
          </ns3:TrackPointExtension>
        </extensions>
      </trkpt>
      <trkpt lat="37.9855582304298877716064453125" lon="-107.73097244091331958770751953125">
        <ele>3662.60009765625</ele>
        <time>2026-08-15T13:59:55.000Z</time>
        <extensions>
          <ns3:TrackPointExtension>
            <ns3:hr>105</ns3:hr>
            <ns3:cad>50</ns3:cad>
          </ns3:TrackPointExtension>
        </extensions>
      </trkpt>
      <trkpt lat="37.985603325068950653076171875" lon="-107.7309478819370269775390625">
        <ele>3663</ele>
        <time>2026-08-15T14:00:01.000Z</time>
        <extensions>
          <ns3:TrackPointExtension>
            <ns3:hr>107</ns3:hr>
            <ns3:cad>47</ns3:cad>
          </ns3:TrackPointExtension>
        </extensions>
      </trkpt>
      <trkpt lat="37.9856128804385662078857421875" lon="-107.73094494827091693878173828125">
        <ele>3663.199951171875</ele>
        <time>2026-08-15T14:00:02.000Z</time>
        <extensions>
          <ns3:TrackPointExtension>
            <ns3:hr>108</ns3:hr>
            <ns3:cad>47</ns3:cad>
          </ns3:TrackPointExtension>
        </extensions>
      </trkpt>
      <trkpt lat="37.985650599002838134765625" lon="-107.7309239096939563751220703125">
        <ele>3663.39990234375</ele>
        <time>2026-08-15T14:00:06.000Z</time>
        <extensions>
          <ns3:TrackPointExtension>
            <ns3:hr>109</ns3:hr>
            <ns3:cad>44</ns3:cad>
          </ns3:TrackPointExtension>
        </extensions>
      </trkpt>
      <trkpt lat="37.9856739006936550140380859375" lon="-107.73090907372534275054931640625">
        <ele>3663.800048828125</ele>
        <time>2026-08-15T14:00:09.000Z</time>
        <extensions>
          <ns3:TrackPointExtension>
            <ns3:hr>110</ns3:hr>
            <ns3:cad>45</ns3:cad>
          </ns3:TrackPointExtension>
        </extensions>
      </trkpt>
      <trkpt lat="37.98570399172604084014892578125" lon="-107.73090857081115245819091796875">
        <ele>3664.39990234375</ele>
        <time>2026-08-15T14:00:13.000Z</time>
        <extensions>
          <ns3:TrackPointExtension>
            <ns3:hr>110</ns3:hr>
            <ns3:cad>46</ns3:cad>
          </ns3:TrackPointExtension>
        </extensions>
      </trkpt>
      <trkpt lat="37.98573131673038005828857421875" lon="-107.7308969199657440185546875">
        <ele>3665.199951171875</ele>
        <time>2026-08-15T14:00:17.000Z</time>
        <extensions>
          <ns3:TrackPointExtension>
            <ns3:hr>112</ns3:hr>
            <ns3:cad>44</ns3:cad>
          </ns3:TrackPointExtension>
        </extensions>
      </trkpt>
      <trkpt lat="37.9857500083744525909423828125" lon="-107.730887867510318756103515625">
        <ele>3665.60009765625</ele>
        <time>2026-08-15T14:00:19.000Z</time>
        <extensions>
          <ns3:TrackPointExtension>
            <ns3:hr>112</ns3:hr>
            <ns3:cad>47</ns3:cad>
          </ns3:TrackPointExtension>
        </extensions>
      </trkpt>
      <trkpt lat="37.98581245355308055877685546875" lon="-107.73087680339813232421875">
        <ele>3666.39990234375</ele>
        <time>2026-08-15T14:00:25.000Z</time>
        <extensions>
          <ns3:TrackPointExtension>
            <ns3:hr>111</ns3:hr>
            <ns3:cad>48</ns3:cad>
          </ns3:TrackPointExtension>
        </extensions>
      </trkpt>
      <trkpt lat="37.9858343303203582763671875" lon="-107.73086699657142162322998046875">
        <ele>3666.60009765625</ele>
        <time>2026-08-15T14:00:27.000Z</time>
        <extensions>
          <ns3:TrackPointExtension>
            <ns3:hr>110</ns3:hr>
            <ns3:cad>0</ns3:cad>
          </ns3:TrackPointExtension>
        </extensions>
      </trkpt>
      <trkpt lat="37.98587028868496417999267578125" lon="-107.7308424375951290130615234375">
        <ele>3667</ele>
        <time>2026-08-15T14:00:31.000Z</time>
        <extensions>
          <ns3:TrackPointExtension>
            <ns3:hr>110</ns3:hr>
            <ns3:cad>43</ns3:cad>
          </ns3:TrackPointExtension>
        </extensions>
      </trkpt>
      <trkpt lat="37.98590197227895259857177734375" lon="-107.73082693107426166534423828125">
        <ele>3667.60009765625</ele>
        <time>2026-08-15T14:00:35.000Z</time>
        <extensions>
          <ns3:TrackPointExtension>
            <ns3:hr>110</ns3:hr>
            <ns3:cad>0</ns3:cad>
          </ns3:TrackPointExtension>
        </extensions>
      </trkpt>
      <trkpt lat="37.985934577882289886474609375" lon="-107.73079172708094120025634765625">
        <ele>3668.39990234375</ele>
        <time>2026-08-15T14:00:40.000Z</time>
        <extensions>
          <ns3:TrackPointExtension>
            <ns3:hr>110</ns3:hr>
            <ns3:cad>46</ns3:cad>
          </ns3:TrackPointExtension>
        </extensions>
      </trkpt>
      <trkpt lat="37.9859749786555767059326171875" lon="-107.73076616227626800537109375">
        <ele>3668.199951171875</ele>
        <time>2026-08-15T14:00:46.000Z</time>
        <extensions>
          <ns3:TrackPointExtension>
            <ns3:hr>109</ns3:hr>
            <ns3:cad>45</ns3:cad>
          </ns3:TrackPointExtension>
        </extensions>
      </trkpt>
      <trkpt lat="37.9859803430736064910888671875" lon="-107.73076624609529972076416015625">
        <ele>3668.199951171875</ele>
        <time>2026-08-15T14:00:47.000Z</time>
        <extensions>
          <ns3:TrackPointExtension>
            <ns3:hr>108</ns3:hr>
            <ns3:cad>45</ns3:cad>
          </ns3:TrackPointExtension>
        </extensions>
      </trkpt>
      <trkpt lat="37.9860068298876285552978515625" lon="-107.7307556010782718658447265625">
        <ele>3668.60009765625</ele>
        <time>2026-08-15T14:00:52.000Z</time>
        <extensions>
          <ns3:TrackPointExtension>
            <ns3:hr>111</ns3:hr>
            <ns3:cad>0</ns3:cad>
          </ns3:TrackPointExtension>
        </extensions>
      </trkpt>
      <trkpt lat="37.9860145412385463714599609375" lon="-107.73074897937476634979248046875">
        <ele>3668.800048828125</ele>
        <time>2026-08-15T14:00:53.000Z</time>
        <extensions>
          <ns3:TrackPointExtension>
            <ns3:hr>111</ns3:hr>
            <ns3:cad>0</ns3:cad>
          </ns3:TrackPointExtension>
        </extensions>
      </trkpt>
      <trkpt lat="37.9860249347984790802001953125" lon="-107.73074110038578510284423828125">
        <ele>3668.800048828125</ele>
        <time>2026-08-15T14:00:54.000Z</time>
        <extensions>
          <ns3:TrackPointExtension>
            <ns3:hr>111</ns3:hr>
            <ns3:cad>0</ns3:cad>
          </ns3:TrackPointExtension>
        </extensions>
      </trkpt>
      <trkpt lat="37.98608436249196529388427734375" lon="-107.7306796610355377197265625">
        <ele>3668.39990234375</ele>
        <time>2026-08-15T14:01:00.000Z</time>
        <extensions>
          <ns3:TrackPointExtension>
            <ns3:hr>109</ns3:hr>
            <ns3:cad>51</ns3:cad>
          </ns3:TrackPointExtension>
        </extensions>
      </trkpt>
      <trkpt lat="37.98611202277243137359619140625" lon="-107.7306509949266910552978515625">
        <ele>3668.199951171875</ele>
        <time>2026-08-15T14:01:03.000Z</time>
        <extensions>
          <ns3:TrackPointExtension>
            <ns3:hr>109</ns3:hr>
            <ns3:cad>51</ns3:cad>
          </ns3:TrackPointExtension>
        </extensions>
      </trkpt>
      <trkpt lat="37.98613985069096088409423828125" lon="-107.7306231670081615447998046875">
        <ele>3668.199951171875</ele>
        <time>2026-08-15T14:01:07.000Z</time>
        <extensions>
          <ns3:TrackPointExtension>
            <ns3:hr>106</ns3:hr>
            <ns3:cad>53</ns3:cad>
          </ns3:TrackPointExtension>
        </extensions>
      </trkpt>
      <trkpt lat="37.98616382293403148651123046875" lon="-107.73059341125190258026123046875">
        <ele>3668</ele>
        <time>2026-08-15T14:01:10.000Z</time>
        <extensions>
          <ns3:TrackPointExtension>
            <ns3:hr>103</ns3:hr>
            <ns3:cad>0</ns3:cad>
          </ns3:TrackPointExtension>
        </extensions>
      </trkpt>
      <trkpt lat="37.98619047738611698150634765625" lon="-107.7305661700665950775146484375">
        <ele>3668.199951171875</ele>
        <time>2026-08-15T14:01:14.000Z</time>
        <extensions>
          <ns3:TrackPointExtension>
            <ns3:hr>100</ns3:hr>
            <ns3:cad>0</ns3:cad>
          </ns3:TrackPointExtension>
        </extensions>
      </trkpt>
      <trkpt lat="37.986207492649555206298828125" lon="-107.7305447123944759368896484375">
        <ele>3668.60009765625</ele>
        <time>2026-08-15T14:01:16.000Z</time>
        <extensions>
          <ns3:TrackPointExtension>
            <ns3:hr>99</ns3:hr>
            <ns3:cad>0</ns3:cad>
          </ns3:TrackPointExtension>
        </extensions>
      </trkpt>
      <trkpt lat="37.986254431307315826416015625" lon="-107.7305088378489017486572265625">
        <ele>3668.60009765625</ele>
        <time>2026-08-15T14:01:22.000Z</time>
        <extensions>
          <ns3:TrackPointExtension>
            <ns3:hr>96</ns3:hr>
            <ns3:cad>54</ns3:cad>
          </ns3:TrackPointExtension>
        </extensions>
      </trkpt>
      <trkpt lat="37.9862683452665805816650390625" lon="-107.73049651645123958587646484375">
        <ele>3668.800048828125</ele>
        <time>2026-08-15T14:01:24.000Z</time>
        <extensions>
          <ns3:TrackPointExtension>
            <ns3:hr>97</ns3:hr>
            <ns3:cad>54</ns3:cad>
          </ns3:TrackPointExtension>
        </extensions>
      </trkpt>
      <trkpt lat="37.9863209836184978485107421875" lon="-107.73045728914439678192138671875">
        <ele>3669</ele>
        <time>2026-08-15T14:01:30.000Z</time>
        <extensions>
          <ns3:TrackPointExtension>
            <ns3:hr>95</ns3:hr>
            <ns3:cad>51</ns3:cad>
          </ns3:TrackPointExtension>
        </extensions>
      </trkpt>
      <trkpt lat="37.9863286949694156646728515625" lon="-107.730452008545398712158203125">
        <ele>3669.199951171875</ele>
        <time>2026-08-15T14:01:31.000Z</time>
        <extensions>
          <ns3:TrackPointExtension>
            <ns3:hr>95</ns3:hr>
            <ns3:cad>51</ns3:cad>
          </ns3:TrackPointExtension>
        </extensions>
      </trkpt>
      <trkpt lat="37.986384518444538116455078125" lon="-107.73041051812469959259033203125">
        <ele>3669.199951171875</ele>
        <time>2026-08-15T14:01:37.000Z</time>
        <extensions>
          <ns3:TrackPointExtension>
            <ns3:hr>94</ns3:hr>
            <ns3:cad>46</ns3:cad>
          </ns3:TrackPointExtension>
        </extensions>
      </trkpt>
      <trkpt lat="37.98641578294336795806884765625" lon="-107.7303881384432315826416015625">
        <ele>3669.199951171875</ele>
        <time>2026-08-15T14:01:40.000Z</time>
        <extensions>
          <ns3:TrackPointExtension>
            <ns3:hr>94</ns3:hr>
            <ns3:cad>44</ns3:cad>
          </ns3:TrackPointExtension>
        </extensions>
      </trkpt>
      <trkpt lat="37.98646607436239719390869140625" lon="-107.73035653866827487945556640625">
        <ele>3669.39990234375</ele>
        <time>2026-08-15T14:01:46.000Z</time>
        <extensions>
          <ns3:TrackPointExtension>
            <ns3:hr>94</ns3:hr>
            <ns3:cad>47</ns3:cad>
          </ns3:TrackPointExtension>
        </extensions>
      </trkpt>
      <trkpt lat="37.98648275434970855712890625" lon="-107.73034463636577129364013671875">
        <ele>3669.199951171875</ele>
        <time>2026-08-15T14:01:48.000Z</time>
        <extensions>
          <ns3:TrackPointExtension>
            <ns3:hr>95</ns3:hr>
            <ns3:cad>48</ns3:cad>
          </ns3:TrackPointExtension>
        </extensions>
      </trkpt>
      <trkpt lat="37.98652625642716884613037109375" lon="-107.73030306212604045867919921875">
        <ele>3669.39990234375</ele>
        <time>2026-08-15T14:01:54.000Z</time>
        <extensions>
          <ns3:TrackPointExtension>
            <ns3:hr>95</ns3:hr>
            <ns3:cad>0</ns3:cad>
          </ns3:TrackPointExtension>
        </extensions>
      </trkpt>
      <trkpt lat="37.98655710183084011077880859375" lon="-107.73027841933071613311767578125">
        <ele>3669.199951171875</ele>
        <time>2026-08-15T14:01:59.000Z</time>
        <extensions>
          <ns3:TrackPointExtension>
            <ns3:hr>98</ns3:hr>
            <ns3:cad>0</ns3:cad>
          </ns3:TrackPointExtension>
        </extensions>
      </trkpt>
      <trkpt lat="37.98656213097274303436279296875" lon="-107.73027523420751094818115234375">
        <ele>3669</ele>
        <time>2026-08-15T14:02:00.000Z</time>
        <extensions>
          <ns3:TrackPointExtension>
            <ns3:hr>98</ns3:hr>
            <ns3:cad>0</ns3:cad>
          </ns3:TrackPointExtension>
        </extensions>
      </trkpt>
      <trkpt lat="37.98659465275704860687255859375" lon="-107.73024556227028369903564453125">
        <ele>3669.800048828125</ele>
        <time>2026-08-15T14:02:05.000Z</time>
        <extensions>
          <ns3:TrackPointExtension>
            <ns3:hr>98</ns3:hr>
            <ns3:cad>0</ns3:cad>
          </ns3:TrackPointExtension>
        </extensions>
      </trkpt>
      <trkpt lat="37.98661887645721435546875" lon="-107.7302277088165283203125">
        <ele>3670.60009765625</ele>
        <time>2026-08-15T14:02:08.000Z</time>
        <extensions>
          <ns3:TrackPointExtension>
            <ns3:hr>98</ns3:hr>
            <ns3:cad>44</ns3:cad>
          </ns3:TrackPointExtension>
        </extensions>
      </trkpt>
      <trkpt lat="37.98664041794836521148681640625" lon="-107.73021555505692958831787109375">
        <ele>3670.800048828125</ele>
        <time>2026-08-15T14:02:11.000Z</time>
        <extensions>
          <ns3:TrackPointExtension>
            <ns3:hr>98</ns3:hr>
            <ns3:cad>44</ns3:cad>
          </ns3:TrackPointExtension>
        </extensions>
      </trkpt>
      <trkpt lat="37.98665517009794712066650390625" lon="-107.73021203465759754180908203125">
        <ele>3670.800048828125</ele>
        <time>2026-08-15T14:02:16.000Z</time>
        <extensions>
          <ns3:TrackPointExtension>
            <ns3:hr>100</ns3:hr>
            <ns3:cad>0</ns3:cad>
          </ns3:TrackPointExtension>
        </extensions>
      </trkpt>
      <trkpt lat="37.98666707240045070648193359375" lon="-107.7302037365734577178955078125">
        <ele>3671</ele>
        <time>2026-08-15T14:02:22.000Z</time>
        <extensions>
          <ns3:TrackPointExtension>
            <ns3:hr>99</ns3:hr>
            <ns3:cad>0</ns3:cad>
          </ns3:TrackPointExtension>
        </extensions>
      </trkpt>
      <trkpt lat="37.9866646416485309600830078125" lon="-107.730201222002506256103515625">
        <ele>3671</ele>
        <time>2026-08-15T14:02:23.000Z</time>
        <extensions>
          <ns3:TrackPointExtension>
            <ns3:hr>98</ns3:hr>
            <ns3:cad>0</ns3:cad>
          </ns3:TrackPointExtension>
        </extensions>
      </trkpt>
      <trkpt lat="37.98666053451597690582275390625" lon="-107.73019912652671337127685546875">
        <ele>3671</ele>
        <time>2026-08-15T14:02:26.000Z</time>
        <extensions>
          <ns3:TrackPointExtension>
            <ns3:hr>95</ns3:hr>
            <ns3:cad>0</ns3:cad>
          </ns3:TrackPointExtension>
        </extensions>
      </trkpt>
      <trkpt lat="37.986656092107295989990234375" lon="-107.73020130582153797149658203125">
        <ele>3671.199951171875</ele>
        <time>2026-08-15T14:02:29.000Z</time>
        <extensions>
          <ns3:TrackPointExtension>
            <ns3:hr>94</ns3:hr>
            <ns3:cad>0</ns3:cad>
          </ns3:TrackPointExtension>
        </extensions>
      </trkpt>
      <trkpt lat="37.9866616241633892059326171875" lon="-107.730198539793491363525390625">
        <ele>3671.199951171875</ele>
        <time>2026-08-15T14:02:35.000Z</time>
        <extensions>
          <ns3:TrackPointExtension>
            <ns3:hr>92</ns3:hr>
            <ns3:cad>42</ns3:cad>
          </ns3:TrackPointExtension>
        </extensions>
      </trkpt>
      <trkpt lat="37.98666271381080150604248046875" lon="-107.73019862361252307891845703125">
        <ele>3671</ele>
        <time>2026-08-15T14:02:36.000Z</time>
        <extensions>
          <ns3:TrackPointExtension>
            <ns3:hr>91</ns3:hr>
            <ns3:cad>42</ns3:cad>
          </ns3:TrackPointExtension>
        </extensions>
      </trkpt>
      <trkpt lat="37.98667260445654392242431640625" lon="-107.7302158065140247344970703125">
        <ele>3671.39990234375</ele>
        <time>2026-08-15T14:02:41.000Z</time>
        <extensions>
          <ns3:TrackPointExtension>
            <ns3:hr>89</ns3:hr>
            <ns3:cad>42</ns3:cad>
          </ns3:TrackPointExtension>
        </extensions>
      </trkpt>
      <trkpt lat="37.9866720177233219146728515625" lon="-107.73021161556243896484375">
        <ele>3670.39990234375</ele>
        <time>2026-08-15T14:02:47.000Z</time>
        <extensions>
          <ns3:TrackPointExtension>
            <ns3:hr>89</ns3:hr>
            <ns3:cad>0</ns3:cad>
          </ns3:TrackPointExtension>
        </extensions>
      </trkpt>
      <trkpt lat="37.98667176626622676849365234375" lon="-107.73021270520985126495361328125">
        <ele>3670.39990234375</ele>
        <time>2026-08-15T14:02:48.000Z</time>
        <extensions>
          <ns3:TrackPointExtension>
            <ns3:hr>90</ns3:hr>
            <ns3:cad>0</ns3:cad>
          </ns3:TrackPointExtension>
        </extensions>
      </trkpt>
      <trkpt lat="37.98666112124919891357421875" lon="-107.7302070893347263336181640625">
        <ele>3670.800048828125</ele>
        <time>2026-08-15T14:02:54.000Z</time>
        <extensions>
          <ns3:TrackPointExtension>
            <ns3:hr>89</ns3:hr>
            <ns3:cad>0</ns3:cad>
          </ns3:TrackPointExtension>
        </extensions>
      </trkpt>
      <trkpt lat="37.9866612888872623443603515625" lon="-107.73020960390567779541015625">
        <ele>3671</ele>
        <time>2026-08-15T14:02:55.000Z</time>
        <extensions>
          <ns3:TrackPointExtension>
            <ns3:hr>89</ns3:hr>
            <ns3:cad>0</ns3:cad>
          </ns3:TrackPointExtension>
        </extensions>
      </trkpt>
      <trkpt lat="37.98667176626622676849365234375" lon="-107.7302080951631069183349609375">
        <ele>3670.800048828125</ele>
        <time>2026-08-15T14:03:01.000Z</time>
        <extensions>
          <ns3:TrackPointExtension>
            <ns3:hr>90</ns3:hr>
            <ns3:cad>0</ns3:cad>
          </ns3:TrackPointExtension>
        </extensions>
      </trkpt>
      <trkpt lat="37.98666489310562610626220703125" lon="-107.7302156388759613037109375">
        <ele>3670.39990234375</ele>
        <time>2026-08-15T14:03:04.000Z</time>
        <extensions>
          <ns3:TrackPointExtension>
            <ns3:hr>91</ns3:hr>
            <ns3:cad>0</ns3:cad>
          </ns3:TrackPointExtension>
        </extensions>
      </trkpt>
      <trkpt lat="37.9866686649620532989501953125" lon="-107.73021622560918331146240234375">
        <ele>3670.60009765625</ele>
        <time>2026-08-15T14:03:10.000Z</time>
        <extensions>
          <ns3:TrackPointExtension>
            <ns3:hr>91</ns3:hr>
            <ns3:cad>0</ns3:cad>
          </ns3:TrackPointExtension>
        </extensions>
      </trkpt>
      <trkpt lat="37.98666656948626041412353515625" lon="-107.7302121184766292572021484375">
        <ele>3670.199951171875</ele>
        <time>2026-08-15T14:03:12.000Z</time>
        <extensions>
          <ns3:TrackPointExtension>
            <ns3:hr>92</ns3:hr>
            <ns3:cad>0</ns3:cad>
          </ns3:TrackPointExtension>
        </extensions>
      </trkpt>
      <trkpt lat="37.98667855560779571533203125" lon="-107.7302020601928234100341796875">
        <ele>3670.60009765625</ele>
        <time>2026-08-15T14:03:18.000Z</time>
        <extensions>
          <ns3:TrackPointExtension>
            <ns3:hr>91</ns3:hr>
            <ns3:cad>0</ns3:cad>
          </ns3:TrackPointExtension>
        </extensions>
      </trkpt>
      <trkpt lat="37.98669355921447277069091796875" lon="-107.73019359447062015533447265625">
        <ele>3670.39990234375</ele>
        <time>2026-08-15T14:03:20.000Z</time>
        <extensions>
          <ns3:TrackPointExtension>
            <ns3:hr>90</ns3:hr>
            <ns3:cad>0</ns3:cad>
          </ns3:TrackPointExtension>
        </extensions>
      </trkpt>
      <trkpt lat="37.98674167133867740631103515625" lon="-107.730187810957431793212890625">
        <ele>3671.800048828125</ele>
        <time>2026-08-15T14:03:26.000Z</time>
        <extensions>
          <ns3:TrackPointExtension>
            <ns3:hr>90</ns3:hr>
            <ns3:cad>0</ns3:cad>
          </ns3:TrackPointExtension>
        </extensions>
      </trkpt>
      <trkpt lat="37.98674804158508777618408203125" lon="-107.7301889844238758087158203125">
        <ele>3672.199951171875</ele>
        <time>2026-08-15T14:03:27.000Z</time>
        <extensions>
          <ns3:TrackPointExtension>
            <ns3:hr>90</ns3:hr>
            <ns3:cad>0</ns3:cad>
          </ns3:TrackPointExtension>
        </extensions>
      </trkpt>
      <trkpt lat="37.986778132617473602294921875" lon="-107.73020834662020206451416015625">
        <ele>3673</ele>
        <time>2026-08-15T14:03:32.000Z</time>
        <extensions>
          <ns3:TrackPointExtension>
            <ns3:hr>92</ns3:hr>
            <ns3:cad>59</ns3:cad>
          </ns3:TrackPointExtension>
        </extensions>
      </trkpt>
      <trkpt lat="37.986784167587757110595703125" lon="-107.730208933353424072265625">
        <ele>3673.199951171875</ele>
        <time>2026-08-15T14:03:33.000Z</time>
        <extensions>
          <ns3:TrackPointExtension>
            <ns3:hr>93</ns3:hr>
            <ns3:cad>59</ns3:cad>
          </ns3:TrackPointExtension>
        </extensions>
      </trkpt>
      <trkpt lat="37.98681895248591899871826171875" lon="-107.7302044071257114410400390625">
        <ele>3673.60009765625</ele>
        <time>2026-08-15T14:03:37.000Z</time>
        <extensions>
          <ns3:TrackPointExtension>
            <ns3:hr>97</ns3:hr>
            <ns3:cad>0</ns3:cad>
          </ns3:TrackPointExtension>
        </extensions>
      </trkpt>
      <trkpt lat="37.98682917840778827667236328125" lon="-107.73020449094474315643310546875">
        <ele>3674</ele>
        <time>2026-08-15T14:03:39.000Z</time>
        <extensions>
          <ns3:TrackPointExtension>
            <ns3:hr>99</ns3:hr>
            <ns3:cad>0</ns3:cad>
          </ns3:TrackPointExtension>
        </extensions>
      </trkpt>
      <trkpt lat="37.9868356324732303619384765625" lon="-107.73020214401185512542724609375">
        <ele>3674.199951171875</ele>
        <time>2026-08-15T14:03:40.000Z</time>
        <extensions>
          <ns3:TrackPointExtension>
            <ns3:hr>99</ns3:hr>
            <ns3:cad>0</ns3:cad>
          </ns3:TrackPointExtension>
        </extensions>
      </trkpt>
      <trkpt lat="37.98683605156838893890380859375" lon="-107.73020423948764801025390625">
        <ele>3674</ele>
        <time>2026-08-15T14:03:46.000Z</time>
        <extensions>
          <ns3:TrackPointExtension>
            <ns3:hr>97</ns3:hr>
            <ns3:cad>0</ns3:cad>
          </ns3:TrackPointExtension>
        </extensions>
      </trkpt>
      <trkpt lat="37.98683605156838893890380859375" lon="-107.73020423948764801025390625">
        <ele>3674.39990234375</ele>
        <time>2026-08-15T14:03:52.000Z</time>
        <extensions>
          <ns3:TrackPointExtension>
            <ns3:hr>99</ns3:hr>
            <ns3:cad>0</ns3:cad>
          </ns3:TrackPointExtension>
        </extensions>
      </trkpt>
      <trkpt lat="37.98683605156838893890380859375" lon="-107.73020423948764801025390625">
        <ele>3674.39990234375</ele>
        <time>2026-08-15T14:03:58.000Z</time>
        <extensions>
          <ns3:TrackPointExtension>
            <ns3:hr>99</ns3:hr>
            <ns3:cad>0</ns3:cad>
          </ns3:TrackPointExtension>
        </extensions>
      </trkpt>
      <trkpt lat="37.98683605156838893890380859375" lon="-107.73020423948764801025390625">
        <ele>3674.60009765625</ele>
        <time>2026-08-15T14:04:04.000Z</time>
        <extensions>
          <ns3:TrackPointExtension>
            <ns3:hr>99</ns3:hr>
            <ns3:cad>0</ns3:cad>
          </ns3:TrackPointExtension>
        </extensions>
      </trkpt>
      <trkpt lat="37.98683605156838893890380859375" lon="-107.73020423948764801025390625">
        <ele>3674.39990234375</ele>
        <time>2026-08-15T14:04:10.000Z</time>
        <extensions>
          <ns3:TrackPointExtension>
            <ns3:hr>100</ns3:hr>
            <ns3:cad>0</ns3:cad>
          </ns3:TrackPointExtension>
        </extensions>
      </trkpt>
      <trkpt lat="37.98683605156838893890380859375" lon="-107.73020423948764801025390625">
        <ele>3674.39990234375</ele>
        <time>2026-08-15T14:04:14.000Z</time>
        <extensions>
          <ns3:TrackPointExtension>
            <ns3:hr>99</ns3:hr>
            <ns3:cad>0</ns3:cad>
          </ns3:TrackPointExtension>
        </extensions>
      </trkpt>
      <trkpt lat="37.98683605156838893890380859375" lon="-107.73020423948764801025390625">
        <ele>3674</ele>
        <time>2026-08-15T14:04:20.000Z</time>
        <extensions>
          <ns3:TrackPointExtension>
            <ns3:hr>100</ns3:hr>
            <ns3:cad>0</ns3:cad>
          </ns3:TrackPointExtension>
        </extensions>
      </trkpt>
      <trkpt lat="37.98683605156838893890380859375" lon="-107.73020423948764801025390625">
        <ele>3674.199951171875</ele>
        <time>2026-08-15T14:04:24.000Z</time>
        <extensions>
          <ns3:TrackPointExtension>
            <ns3:hr>97</ns3:hr>
            <ns3:cad>0</ns3:cad>
          </ns3:TrackPointExtension>
        </extensions>
      </trkpt>
      <trkpt lat="37.98683605156838893890380859375" lon="-107.73020423948764801025390625">
        <ele>3674.199951171875</ele>
        <time>2026-08-15T14:04:29.000Z</time>
        <extensions>
          <ns3:TrackPointExtension>
            <ns3:hr>94</ns3:hr>
            <ns3:cad>0</ns3:cad>
          </ns3:TrackPointExtension>
        </extensions>
      </trkpt>
      <trkpt lat="37.98683605156838893890380859375" lon="-107.73020423948764801025390625">
        <ele>3673.39990234375</ele>
        <time>2026-08-15T14:04:35.000Z</time>
        <extensions>
          <ns3:TrackPointExtension>
            <ns3:hr>93</ns3:hr>
            <ns3:cad>0</ns3:cad>
          </ns3:TrackPointExtension>
        </extensions>
      </trkpt>
      <trkpt lat="37.98683605156838893890380859375" lon="-107.73020423948764801025390625">
        <ele>3673.199951171875</ele>
        <time>2026-08-15T14:04:36.000Z</time>
        <extensions>
          <ns3:TrackPointExtension>
            <ns3:hr>93</ns3:hr>
            <ns3:cad>0</ns3:cad>
          </ns3:TrackPointExtension>
        </extensions>
      </trkpt>
      <trkpt lat="37.98683605156838893890380859375" lon="-107.73020423948764801025390625">
        <ele>3673.60009765625</ele>
        <time>2026-08-15T14:04:42.000Z</time>
        <extensions>
          <ns3:TrackPointExtension>
            <ns3:hr>94</ns3:hr>
            <ns3:cad>0</ns3:cad>
          </ns3:TrackPointExtension>
        </extensions>
      </trkpt>
      <trkpt lat="37.98683605156838893890380859375" lon="-107.73020423948764801025390625">
        <ele>3673.39990234375</ele>
        <time>2026-08-15T14:04:46.000Z</time>
        <extensions>
          <ns3:TrackPointExtension>
            <ns3:hr>96</ns3:hr>
            <ns3:cad>0</ns3:cad>
          </ns3:TrackPointExtension>
        </extensions>
      </trkpt>
      <trkpt lat="37.98683605156838893890380859375" lon="-107.73020423948764801025390625">
        <ele>3673.39990234375</ele>
        <time>2026-08-15T14:04:49.000Z</time>
        <extensions>
          <ns3:TrackPointExtension>
            <ns3:hr>99</ns3:hr>
            <ns3:cad>0</ns3:cad>
          </ns3:TrackPointExtension>
        </extensions>
      </trkpt>
      <trkpt lat="37.98683605156838893890380859375" lon="-107.73020423948764801025390625">
        <ele>3673.60009765625</ele>
        <time>2026-08-15T14:04:52.000Z</time>
        <extensions>
          <ns3:TrackPointExtension>
            <ns3:hr>102</ns3:hr>
            <ns3:cad>0</ns3:cad>
          </ns3:TrackPointExtension>
        </extensions>
      </trkpt>
      <trkpt lat="37.98683605156838893890380859375" lon="-107.73020423948764801025390625">
        <ele>3673.60009765625</ele>
        <time>2026-08-15T14:04:53.000Z</time>
        <extensions>
          <ns3:TrackPointExtension>
            <ns3:hr>98</ns3:hr>
            <ns3:cad>0</ns3:cad>
          </ns3:TrackPointExtension>
        </extensions>
      </trkpt>
      <trkpt lat="37.98683605156838893890380859375" lon="-107.73020423948764801025390625">
        <ele>3673.60009765625</ele>
        <time>2026-08-15T14:04:54.000Z</time>
        <extensions>
          <ns3:TrackPointExtension>
            <ns3:hr>95</ns3:hr>
            <ns3:cad>0</ns3:cad>
          </ns3:TrackPointExtension>
        </extensions>
      </trkpt>
      <trkpt lat="37.9868373088538646697998046875" lon="-107.73022167384624481201171875">
        <ele>3673.39990234375</ele>
        <time>2026-08-15T14:05:00.000Z</time>
        <extensions>
          <ns3:TrackPointExtension>
            <ns3:hr>96</ns3:hr>
            <ns3:cad>0</ns3:cad>
          </ns3:TrackPointExtension>
        </extensions>
      </trkpt>
      <trkpt lat="37.98683814704418182373046875" lon="-107.7302315644919872283935546875">
        <ele>3673.800048828125</ele>
        <time>2026-08-15T14:05:01.000Z</time>
        <extensions>
          <ns3:TrackPointExtension>
            <ns3:hr>96</ns3:hr>
            <ns3:cad>0</ns3:cad>
          </ns3:TrackPointExtension>
        </extensions>
      </trkpt>
      <trkpt lat="37.9868379794061183929443359375" lon="-107.73025075905025005340576171875">
        <ele>3674.39990234375</ele>
        <time>2026-08-15T14:05:03.000Z</time>
        <extensions>
          <ns3:TrackPointExtension>
            <ns3:hr>96</ns3:hr>
            <ns3:cad>0</ns3:cad>
          </ns3:TrackPointExtension>
        </extensions>
      </trkpt>
      <trkpt lat="37.9868455231189727783203125" lon="-107.73028193973004817962646484375">
        <ele>3675.39990234375</ele>
        <time>2026-08-15T14:05:08.000Z</time>
        <extensions>
          <ns3:TrackPointExtension>
            <ns3:hr>98</ns3:hr>
            <ns3:cad>44</ns3:cad>
          </ns3:TrackPointExtension>
        </extensions>
      </trkpt>
      <trkpt lat="37.98683873377740383148193359375" lon="-107.7302826941013336181640625">
        <ele>3675.800048828125</ele>
        <time>2026-08-15T14:05:11.000Z</time>
        <extensions>
          <ns3:TrackPointExtension>
            <ns3:hr>101</ns3:hr>
            <ns3:cad>0</ns3:cad>
          </ns3:TrackPointExtension>
        </extensions>
      </trkpt>
      <trkpt lat="37.98681979067623615264892578125" lon="-107.73029685951769351959228515625">
        <ele>3676.39990234375</ele>
        <time>2026-08-15T14:05:14.000Z</time>
        <extensions>
          <ns3:TrackPointExtension>
            <ns3:hr>102</ns3:hr>
            <ns3:cad>0</ns3:cad>
          </ns3:TrackPointExtension>
        </extensions>
      </trkpt>
      <trkpt lat="37.9868178628385066986083984375" lon="-107.73030272684991359710693359375">
        <ele>3676.60009765625</ele>
        <time>2026-08-15T14:05:15.000Z</time>
        <extensions>
          <ns3:TrackPointExtension>
            <ns3:hr>102</ns3:hr>
            <ns3:cad>0</ns3:cad>
          </ns3:TrackPointExtension>
        </extensions>
      </trkpt>
      <trkpt lat="37.98681878484785556793212890625" lon="-107.73030289448797702789306640625">
        <ele>3676.60009765625</ele>
        <time>2026-08-15T14:05:21.000Z</time>
        <extensions>
          <ns3:TrackPointExtension>
            <ns3:hr>101</ns3:hr>
            <ns3:cad>0</ns3:cad>
          </ns3:TrackPointExtension>
        </extensions>
      </trkpt>
      <trkpt lat="37.98681878484785556793212890625" lon="-107.73030289448797702789306640625">
        <ele>3676.60009765625</ele>
        <time>2026-08-15T14:05:24.000Z</time>
        <extensions>
          <ns3:TrackPointExtension>
            <ns3:hr>99</ns3:hr>
            <ns3:cad>0</ns3:cad>
          </ns3:TrackPointExtension>
        </extensions>
      </trkpt>
      <trkpt lat="37.98681878484785556793212890625" lon="-107.73030289448797702789306640625">
        <ele>3676.60009765625</ele>
        <time>2026-08-15T14:05:28.000Z</time>
        <extensions>
          <ns3:TrackPointExtension>
            <ns3:hr>95</ns3:hr>
            <ns3:cad>0</ns3:cad>
          </ns3:TrackPointExtension>
        </extensions>
      </trkpt>
      <trkpt lat="37.98681878484785556793212890625" lon="-107.73030289448797702789306640625">
        <ele>3676</ele>
        <time>2026-08-15T14:05:34.000Z</time>
        <extensions>
          <ns3:TrackPointExtension>
            <ns3:hr>95</ns3:hr>
            <ns3:cad>0</ns3:cad>
          </ns3:TrackPointExtension>
        </extensions>
      </trkpt>
      <trkpt lat="37.98681878484785556793212890625" lon="-107.73030289448797702789306640625">
        <ele>3676.199951171875</ele>
        <time>2026-08-15T14:05:39.000Z</time>
        <extensions>
          <ns3:TrackPointExtension>
            <ns3:hr>95</ns3:hr>
            <ns3:cad>0</ns3:cad>
          </ns3:TrackPointExtension>
        </extensions>
      </trkpt>
      <trkpt lat="37.98681878484785556793212890625" lon="-107.73030289448797702789306640625">
        <ele>3676.199951171875</ele>
        <time>2026-08-15T14:05:45.000Z</time>
        <extensions>
          <ns3:TrackPointExtension>
            <ns3:hr>92</ns3:hr>
            <ns3:cad>0</ns3:cad>
          </ns3:TrackPointExtension>
        </extensions>
      </trkpt>
      <trkpt lat="37.98681878484785556793212890625" lon="-107.73030289448797702789306640625">
        <ele>3675.60009765625</ele>
        <time>2026-08-15T14:05:51.000Z</time>
        <extensions>
          <ns3:TrackPointExtension>
            <ns3:hr>90</ns3:hr>
            <ns3:cad>0</ns3:cad>
          </ns3:TrackPointExtension>
        </extensions>
      </trkpt>
      <trkpt lat="37.98682046122848987579345703125" lon="-107.73030624724924564361572265625">
        <ele>3675.800048828125</ele>
        <time>2026-08-15T14:05:55.000Z</time>
        <extensions>
          <ns3:TrackPointExtension>
            <ns3:hr>89</ns3:hr>
            <ns3:cad>0</ns3:cad>
          </ns3:TrackPointExtension>
        </extensions>
      </trkpt>
      <trkpt lat="37.98681878484785556793212890625" lon="-107.73030289448797702789306640625">
        <ele>3676</ele>
        <time>2026-08-15T14:06:01.000Z</time>
        <extensions>
          <ns3:TrackPointExtension>
            <ns3:hr>86</ns3:hr>
            <ns3:cad>0</ns3:cad>
          </ns3:TrackPointExtension>
        </extensions>
      </trkpt>
      <trkpt lat="37.98681878484785556793212890625" lon="-107.73030289448797702789306640625">
        <ele>3675.800048828125</ele>
        <time>2026-08-15T14:06:03.000Z</time>
        <extensions>
          <ns3:TrackPointExtension>
            <ns3:hr>86</ns3:hr>
            <ns3:cad>0</ns3:cad>
          </ns3:TrackPointExtension>
        </extensions>
      </trkpt>
      <trkpt lat="37.986831776797771453857421875" lon="-107.730310857295989990234375">
        <ele>3675.39990234375</ele>
        <time>2026-08-15T14:06:08.000Z</time>
        <extensions>
          <ns3:TrackPointExtension>
            <ns3:hr>87</ns3:hr>
            <ns3:cad>0</ns3:cad>
          </ns3:TrackPointExtension>
        </extensions>
      </trkpt>
      <trkpt lat="37.9868460260331630706787109375" lon="-107.73030742071568965911865234375">
        <ele>3675.199951171875</ele>
        <time>2026-08-15T14:06:12.000Z</time>
        <extensions>
          <ns3:TrackPointExtension>
            <ns3:hr>90</ns3:hr>
            <ns3:cad>0</ns3:cad>
          </ns3:TrackPointExtension>
        </extensions>
      </trkpt>
      <trkpt lat="37.98685080371797084808349609375" lon="-107.730304487049579620361328125">
        <ele>3675.199951171875</ele>
        <time>2026-08-15T14:06:13.000Z</time>
        <extensions>
          <ns3:TrackPointExtension>
            <ns3:hr>90</ns3:hr>
            <ns3:cad>0</ns3:cad>
          </ns3:TrackPointExtension>
        </extensions>
      </trkpt>
      <trkpt lat="37.98686035908758640289306640625" lon="-107.730273306369781494140625">
        <ele>3674.199951171875</ele>
        <time>2026-08-15T14:06:17.000Z</time>
        <extensions>
          <ns3:TrackPointExtension>
            <ns3:hr>89</ns3:hr>
            <ns3:cad>0</ns3:cad>
          </ns3:TrackPointExtension>
        </extensions>
      </trkpt>
      <trkpt lat="37.98687972128391265869140625" lon="-107.73022569715976715087890625">
        <ele>3673.199951171875</ele>
        <time>2026-08-15T14:06:21.000Z</time>
        <extensions>
          <ns3:TrackPointExtension>
            <ns3:hr>89</ns3:hr>
            <ns3:cad>0</ns3:cad>
          </ns3:TrackPointExtension>
        </extensions>
      </trkpt>
      <trkpt lat="37.98688114620745182037353515625" lon="-107.7301941812038421630859375">
        <ele>3672</ele>
        <time>2026-08-15T14:06:25.000Z</time>
        <extensions>
          <ns3:TrackPointExtension>
            <ns3:hr>88</ns3:hr>
            <ns3:cad>0</ns3:cad>
          </ns3:TrackPointExtension>
        </extensions>
      </trkpt>
      <trkpt lat="37.98688181675970554351806640625" lon="-107.7301896549761295318603515625">
        <ele>3671.800048828125</ele>
        <time>2026-08-15T14:06:26.000Z</time>
        <extensions>
          <ns3:TrackPointExtension>
            <ns3:hr>88</ns3:hr>
            <ns3:cad>0</ns3:cad>
          </ns3:TrackPointExtension>
        </extensions>
      </trkpt>
      <trkpt lat="37.9868909530341625213623046875" lon="-107.73013374768197536468505859375">
        <ele>3671</ele>
        <time>2026-08-15T14:06:32.000Z</time>
        <extensions>
          <ns3:TrackPointExtension>
            <ns3:hr>86</ns3:hr>
            <ns3:cad>0</ns3:cad>
          </ns3:TrackPointExtension>
        </extensions>
      </trkpt>
      <trkpt lat="37.98689086921513080596923828125" lon="-107.7301276288926601409912109375">
        <ele>3670.800048828125</ele>
        <time>2026-08-15T14:06:33.000Z</time>
        <extensions>
          <ns3:TrackPointExtension>
            <ns3:hr>86</ns3:hr>
            <ns3:cad>0</ns3:cad>
          </ns3:TrackPointExtension>
        </extensions>
      </trkpt>
      <trkpt lat="37.98689288087189197540283203125" lon="-107.7301229350268840789794921875">
        <ele>3670.60009765625</ele>
        <time>2026-08-15T14:06:34.000Z</time>
        <extensions>
          <ns3:TrackPointExtension>
            <ns3:hr>86</ns3:hr>
            <ns3:cad>0</ns3:cad>
          </ns3:TrackPointExtension>
        </extensions>
      </trkpt>
      <trkpt lat="37.9869097284972667694091796875" lon="-107.73009435273706912994384765625">
        <ele>3669.800048828125</ele>
        <time>2026-08-15T14:06:38.000Z</time>
        <extensions>
          <ns3:TrackPointExtension>
            <ns3:hr>86</ns3:hr>
            <ns3:cad>0</ns3:cad>
          </ns3:TrackPointExtension>
        </extensions>
      </trkpt>
      <trkpt lat="37.9869217984378337860107421875" lon="-107.73006719537079334259033203125">
        <ele>3669.39990234375</ele>
        <time>2026-08-15T14:06:41.000Z</time>
        <extensions>
          <ns3:TrackPointExtension>
            <ns3:hr>87</ns3:hr>
            <ns3:cad>0</ns3:cad>
          </ns3:TrackPointExtension>
        </extensions>
      </trkpt>
      <trkpt lat="37.98692800104618072509765625" lon="-107.7300345897674560546875">
        <ele>3668.800048828125</ele>
        <time>2026-08-15T14:06:44.000Z</time>
        <extensions>
          <ns3:TrackPointExtension>
            <ns3:hr>87</ns3:hr>
            <ns3:cad>0</ns3:cad>
          </ns3:TrackPointExtension>
        </extensions>
      </trkpt>
      <trkpt lat="37.98695591278374195098876953125" lon="-107.7299891598522663116455078125">
        <ele>3667.800048828125</ele>
        <time>2026-08-15T14:06:49.000Z</time>
        <extensions>
          <ns3:TrackPointExtension>
            <ns3:hr>86</ns3:hr>
            <ns3:cad>0</ns3:cad>
          </ns3:TrackPointExtension>
        </extensions>
      </trkpt>
      <trkpt lat="37.98695750534534454345703125" lon="-107.72997616790235042572021484375">
        <ele>3667.60009765625</ele>
        <time>2026-08-15T14:06:51.000Z</time>
        <extensions>
          <ns3:TrackPointExtension>
            <ns3:hr>87</ns3:hr>
            <ns3:cad>0</ns3:cad>
          </ns3:TrackPointExtension>
        </extensions>
      </trkpt>
      <trkpt lat="37.9869583435356616973876953125" lon="-107.72998019121587276458740234375">
        <ele>3667.199951171875</ele>
        <time>2026-08-15T14:06:56.000Z</time>
        <extensions>
          <ns3:TrackPointExtension>
            <ns3:hr>86</ns3:hr>
            <ns3:cad>0</ns3:cad>
          </ns3:TrackPointExtension>
        </extensions>
      </trkpt>
      <trkpt lat="37.98695608042180538177490234375" lon="-107.72997952066361904144287109375">
        <ele>3666.60009765625</ele>
        <time>2026-08-15T14:06:59.000Z</time>
        <extensions>
          <ns3:TrackPointExtension>
            <ns3:hr>85</ns3:hr>
            <ns3:cad>0</ns3:cad>
          </ns3:TrackPointExtension>
        </extensions>
      </trkpt>
      <trkpt lat="37.9869556613266468048095703125" lon="-107.729988656938076019287109375">
        <ele>3665.800048828125</ele>
        <time>2026-08-15T14:07:02.000Z</time>
        <extensions>
          <ns3:TrackPointExtension>
            <ns3:hr>84</ns3:hr>
            <ns3:cad>0</ns3:cad>
          </ns3:TrackPointExtension>
        </extensions>
      </trkpt>
      <trkpt lat="37.986957170069217681884765625" lon="-107.7299945242702960968017578125">
        <ele>3665.60009765625</ele>
        <time>2026-08-15T14:07:04.000Z</time>
        <extensions>
          <ns3:TrackPointExtension>
            <ns3:hr>83</ns3:hr>
            <ns3:cad>0</ns3:cad>
          </ns3:TrackPointExtension>
        </extensions>
      </trkpt>
      <trkpt lat="37.98696211539208889007568359375" lon="-107.73000148124992847442626953125">
        <ele>3665.39990234375</ele>
        <time>2026-08-15T14:07:07.000Z</time>
        <extensions>
          <ns3:TrackPointExtension>
            <ns3:hr>86</ns3:hr>
            <ns3:cad>0</ns3:cad>
          </ns3:TrackPointExtension>
        </extensions>
      </trkpt>
      <trkpt lat="37.98695960082113742828369140625" lon="-107.7299983799457550048828125">
        <ele>3665.60009765625</ele>
        <time>2026-08-15T14:07:09.000Z</time>
        <extensions>
          <ns3:TrackPointExtension>
            <ns3:hr>85</ns3:hr>
            <ns3:cad>0</ns3:cad>
          </ns3:TrackPointExtension>
        </extensions>
      </trkpt>
      <trkpt lat="37.98695976845920085906982421875" lon="-107.7299988828599452972412109375">
        <ele>3664.60009765625</ele>
        <time>2026-08-15T14:07:15.000Z</time>
        <extensions>
          <ns3:TrackPointExtension>
            <ns3:hr>84</ns3:hr>
            <ns3:cad>0</ns3:cad>
          </ns3:TrackPointExtension>
        </extensions>
      </trkpt>
      <trkpt lat="37.98695976845920085906982421875" lon="-107.7299988828599452972412109375">
        <ele>3664</ele>
        <time>2026-08-15T14:07:17.000Z</time>
        <extensions>
          <ns3:TrackPointExtension>
            <ns3:hr>82</ns3:hr>
            <ns3:cad>0</ns3:cad>
          </ns3:TrackPointExtension>
        </extensions>
      </trkpt>
      <trkpt lat="37.98695976845920085906982421875" lon="-107.7299988828599452972412109375">
        <ele>3663.800048828125</ele>
        <time>2026-08-15T14:07:23.000Z</time>
        <extensions>
          <ns3:TrackPointExtension>
            <ns3:hr>80</ns3:hr>
            <ns3:cad>0</ns3:cad>
          </ns3:TrackPointExtension>
        </extensions>
      </trkpt>
      <trkpt lat="37.98695976845920085906982421875" lon="-107.7299988828599452972412109375">
        <ele>3663.39990234375</ele>
        <time>2026-08-15T14:07:24.000Z</time>
        <extensions>
          <ns3:TrackPointExtension>
            <ns3:hr>80</ns3:hr>
            <ns3:cad>0</ns3:cad>
          </ns3:TrackPointExtension>
        </extensions>
      </trkpt>
      <trkpt lat="37.98695976845920085906982421875" lon="-107.7299988828599452972412109375">
        <ele>3663.199951171875</ele>
        <time>2026-08-15T14:07:25.000Z</time>
        <extensions>
          <ns3:TrackPointExtension>
            <ns3:hr>80</ns3:hr>
            <ns3:cad>52</ns3:cad>
          </ns3:TrackPointExtension>
        </extensions>
      </trkpt>
      <trkpt lat="37.9869747720658779144287109375" lon="-107.730054371058940887451171875">
        <ele>3663.199951171875</ele>
        <time>2026-08-15T14:07:31.000Z</time>
        <extensions>
          <ns3:TrackPointExtension>
            <ns3:hr>78</ns3:hr>
            <ns3:cad>0</ns3:cad>
          </ns3:TrackPointExtension>
        </extensions>
      </trkpt>
      <trkpt lat="37.9869798012077808380126953125" lon="-107.73007222451269626617431640625">
        <ele>3662.39990234375</ele>
        <time>2026-08-15T14:07:35.000Z</time>
        <extensions>
          <ns3:TrackPointExtension>
            <ns3:hr>77</ns3:hr>
            <ns3:cad>0</ns3:cad>
          </ns3:TrackPointExtension>
        </extensions>
      </trkpt>
      <trkpt lat="37.98698390834033489227294921875" lon="-107.73009519092738628387451171875">
        <ele>3662</ele>
        <time>2026-08-15T14:07:38.000Z</time>
        <extensions>
          <ns3:TrackPointExtension>
            <ns3:hr>77</ns3:hr>
            <ns3:cad>0</ns3:cad>
          </ns3:TrackPointExtension>
        </extensions>
      </trkpt>
      <trkpt lat="37.986983321607112884521484375" lon="-107.7300984598696231842041015625">
        <ele>3662.199951171875</ele>
        <time>2026-08-15T14:07:44.000Z</time>
        <extensions>
          <ns3:TrackPointExtension>
            <ns3:hr>77</ns3:hr>
            <ns3:cad>0</ns3:cad>
          </ns3:TrackPointExtension>
        </extensions>
      </trkpt>
      <trkpt lat="37.9869858361780643463134765625" lon="-107.730107344686985015869140625">
        <ele>3662.199951171875</ele>
        <time>2026-08-15T14:07:46.000Z</time>
        <extensions>
          <ns3:TrackPointExtension>
            <ns3:hr>76</ns3:hr>
            <ns3:cad>0</ns3:cad>
          </ns3:TrackPointExtension>
        </extensions>
      </trkpt>
      <trkpt lat="37.98699438571929931640625" lon="-107.73011614568531513214111328125">
        <ele>3662</ele>
        <time>2026-08-15T14:07:50.000Z</time>
        <extensions>
          <ns3:TrackPointExtension>
            <ns3:hr>76</ns3:hr>
            <ns3:cad>44</ns3:cad>
          </ns3:TrackPointExtension>
        </extensions>
      </trkpt>
      <trkpt lat="37.986998073756694793701171875" lon="-107.730123437941074371337890625">
        <ele>3661.60009765625</ele>
        <time>2026-08-15T14:07:52.000Z</time>
        <extensions>
          <ns3:TrackPointExtension>
            <ns3:hr>79</ns3:hr>
            <ns3:cad>44</ns3:cad>
          </ns3:TrackPointExtension>
        </extensions>
      </trkpt>
      <trkpt lat="37.9870143346488475799560546875" lon="-107.730139531195163726806640625">
        <ele>3661.39990234375</ele>
        <time>2026-08-15T14:07:55.000Z</time>
        <extensions>
          <ns3:TrackPointExtension>
            <ns3:hr>82</ns3:hr>
            <ns3:cad>0</ns3:cad>
          </ns3:TrackPointExtension>
        </extensions>
      </trkpt>
      <trkpt lat="37.98701710067689418792724609375" lon="-107.73014615289866924285888671875">
        <ele>3661.39990234375</ele>
        <time>2026-08-15T14:07:56.000Z</time>
        <extensions>
          <ns3:TrackPointExtension>
            <ns3:hr>83</ns3:hr>
            <ns3:cad>0</ns3:cad>
          </ns3:TrackPointExtension>
        </extensions>
      </trkpt>
      <trkpt lat="37.9870212078094482421875" lon="-107.73014447651803493499755859375">
        <ele>3661.199951171875</ele>
        <time>2026-08-15T14:07:57.000Z</time>
        <extensions>
          <ns3:TrackPointExtension>
            <ns3:hr>83</ns3:hr>
            <ns3:cad>0</ns3:cad>
          </ns3:TrackPointExtension>
        </extensions>
      </trkpt>
      <trkpt lat="37.98703252337872982025146484375" lon="-107.73015922866761684417724609375">
        <ele>3660.199951171875</ele>
        <time>2026-08-15T14:08:03.000Z</time>
        <extensions>
          <ns3:TrackPointExtension>
            <ns3:hr>84</ns3:hr>
            <ns3:cad>0</ns3:cad>
          </ns3:TrackPointExtension>
        </extensions>
      </trkpt>
      <trkpt lat="37.9870334453880786895751953125" lon="-107.73016870021820068359375">
        <ele>3659.800048828125</ele>
        <time>2026-08-15T14:08:05.000Z</time>
        <extensions>
          <ns3:TrackPointExtension>
            <ns3:hr>84</ns3:hr>
            <ns3:cad>0</ns3:cad>
          </ns3:TrackPointExtension>
        </extensions>
      </trkpt>
      <trkpt lat="37.9870391450822353363037109375" lon="-107.73019242100417613983154296875">
        <ele>3658.800048828125</ele>
        <time>2026-08-15T14:08:08.000Z</time>
        <extensions>
          <ns3:TrackPointExtension>
            <ns3:hr>84</ns3:hr>
            <ns3:cad>0</ns3:cad>
          </ns3:TrackPointExtension>
        </extensions>
      </trkpt>
      <trkpt lat="37.98705263994634151458740234375" lon="-107.73023164831101894378662109375">
        <ele>3658.199951171875</ele>
        <time>2026-08-15T14:08:12.000Z</time>
        <extensions>
          <ns3:TrackPointExtension>
            <ns3:hr>84</ns3:hr>
            <ns3:cad>0</ns3:cad>
          </ns3:TrackPointExtension>
        </extensions>
      </trkpt>
      <trkpt lat="37.9870907776057720184326171875" lon="-107.730259560048580169677734375">
        <ele>3657.800048828125</ele>
        <time>2026-08-15T14:08:17.000Z</time>
        <extensions>
          <ns3:TrackPointExtension>
            <ns3:hr>85</ns3:hr>
            <ns3:cad>0</ns3:cad>
          </ns3:TrackPointExtension>
        </extensions>
      </trkpt>
      <trkpt lat="37.9871028475463390350341796875" lon="-107.73026458919048309326171875">
        <ele>3657.39990234375</ele>
        <time>2026-08-15T14:08:19.000Z</time>
        <extensions>
          <ns3:TrackPointExtension>
            <ns3:hr>87</ns3:hr>
            <ns3:cad>0</ns3:cad>
          </ns3:TrackPointExtension>
        </extensions>
      </trkpt>
      <trkpt lat="37.98711240291595458984375" lon="-107.7302687801420688629150390625">
        <ele>3657</ele>
        <time>2026-08-15T14:08:22.000Z</time>
        <extensions>
          <ns3:TrackPointExtension>
            <ns3:hr>90</ns3:hr>
            <ns3:cad>0</ns3:cad>
          </ns3:TrackPointExtension>
        </extensions>
      </trkpt>
      <trkpt lat="37.98712623305618762969970703125" lon="-107.73028696887195110321044921875">
        <ele>3657</ele>
        <time>2026-08-15T14:08:25.000Z</time>
        <extensions>
          <ns3:TrackPointExtension>
            <ns3:hr>90</ns3:hr>
            <ns3:cad>0</ns3:cad>
          </ns3:TrackPointExtension>
        </extensions>
      </trkpt>
      <trkpt lat="37.98713612370193004608154296875" lon="-107.73030423559248447418212890625">
        <ele>3656.60009765625</ele>
        <time>2026-08-15T14:08:28.000Z</time>
        <extensions>
          <ns3:TrackPointExtension>
            <ns3:hr>90</ns3:hr>
            <ns3:cad>0</ns3:cad>
          </ns3:TrackPointExtension>
        </extensions>
      </trkpt>
      <trkpt lat="37.98717099241912364959716796875" lon="-107.7303401939570903778076171875">
        <ele>3655.60009765625</ele>
        <time>2026-08-15T14:08:33.000Z</time>
        <extensions>
          <ns3:TrackPointExtension>
            <ns3:hr>90</ns3:hr>
            <ns3:cad>0</ns3:cad>
          </ns3:TrackPointExtension>
        </extensions>
      </trkpt>
      <trkpt lat="37.98718138597905635833740234375" lon="-107.73034228943288326263427734375">
        <ele>3655</ele>
        <time>2026-08-15T14:08:39.000Z</time>
        <extensions>
          <ns3:TrackPointExtension>
            <ns3:hr>89</ns3:hr>
            <ns3:cad>0</ns3:cad>
          </ns3:TrackPointExtension>
        </extensions>
      </trkpt>
      <trkpt lat="37.98718993552029132843017578125" lon="-107.73035352118313312530517578125">
        <ele>3654.39990234375</ele>
        <time>2026-08-15T14:08:43.000Z</time>
        <extensions>
          <ns3:TrackPointExtension>
            <ns3:hr>89</ns3:hr>
            <ns3:cad>0</ns3:cad>
          </ns3:TrackPointExtension>
        </extensions>
      </trkpt>
      <trkpt lat="37.98719488084316253662109375" lon="-107.73036357946693897247314453125">
        <ele>3653.199951171875</ele>
        <time>2026-08-15T14:08:46.000Z</time>
        <extensions>
          <ns3:TrackPointExtension>
            <ns3:hr>90</ns3:hr>
            <ns3:cad>0</ns3:cad>
          </ns3:TrackPointExtension>
        </extensions>
      </trkpt>
      <trkpt lat="37.98719479702413082122802734375" lon="-107.7303666807711124420166015625">
        <ele>3653</ele>
        <time>2026-08-15T14:08:47.000Z</time>
        <extensions>
          <ns3:TrackPointExtension>
            <ns3:hr>91</ns3:hr>
            <ns3:cad>0</ns3:cad>
          </ns3:TrackPointExtension>
        </extensions>
      </trkpt>
      <trkpt lat="37.9872022569179534912109375" lon="-107.73038000799715518951416015625">
        <ele>3652.800048828125</ele>
        <time>2026-08-15T14:08:53.000Z</time>
        <extensions>
          <ns3:TrackPointExtension>
            <ns3:hr>89</ns3:hr>
            <ns3:cad>0</ns3:cad>
          </ns3:TrackPointExtension>
        </extensions>
      </trkpt>
      <trkpt lat="37.98720921389758586883544921875" lon="-107.73038922809064388275146484375">
        <ele>3652.800048828125</ele>
        <time>2026-08-15T14:08:55.000Z</time>
        <extensions>
          <ns3:TrackPointExtension>
            <ns3:hr>88</ns3:hr>
            <ns3:cad>0</ns3:cad>
          </ns3:TrackPointExtension>
        </extensions>
      </trkpt>
      <trkpt lat="37.987217009067535400390625" lon="-107.73039735853672027587890625">
        <ele>3652.199951171875</ele>
        <time>2026-08-15T14:08:58.000Z</time>
        <extensions>
          <ns3:TrackPointExtension>
            <ns3:hr>86</ns3:hr>
            <ns3:cad>0</ns3:cad>
          </ns3:TrackPointExtension>
        </extensions>
      </trkpt>
      <trkpt lat="37.9872272349894046783447265625" lon="-107.73041303269565105438232421875">
        <ele>3651.199951171875</ele>
        <time>2026-08-15T14:09:03.000Z</time>
        <extensions>
          <ns3:TrackPointExtension>
            <ns3:hr>86</ns3:hr>
            <ns3:cad>0</ns3:cad>
          </ns3:TrackPointExtension>
        </extensions>
      </trkpt>
      <trkpt lat="37.98723603598773479461669921875" lon="-107.73043935187160968780517578125">
        <ele>3650</ele>
        <time>2026-08-15T14:09:07.000Z</time>
        <extensions>
          <ns3:TrackPointExtension>
            <ns3:hr>86</ns3:hr>
            <ns3:cad>0</ns3:cad>
          </ns3:TrackPointExtension>
        </extensions>
      </trkpt>
      <trkpt lat="37.9872403107583522796630859375" lon="-107.730467431247234344482421875">
        <ele>3649.39990234375</ele>
        <time>2026-08-15T14:09:10.000Z</time>
        <extensions>
          <ns3:TrackPointExtension>
            <ns3:hr>86</ns3:hr>
            <ns3:cad>0</ns3:cad>
          </ns3:TrackPointExtension>
        </extensions>
      </trkpt>
      <trkpt lat="37.98724793829023838043212890625" lon="-107.7304816804826259613037109375">
        <ele>3649</ele>
        <time>2026-08-15T14:09:12.000Z</time>
        <extensions>
          <ns3:TrackPointExtension>
            <ns3:hr>87</ns3:hr>
            <ns3:cad>0</ns3:cad>
          </ns3:TrackPointExtension>
        </extensions>
      </trkpt>
      <trkpt lat="37.98726621083915233612060546875" lon="-107.7305433712899684906005859375">
        <ele>3648</ele>
        <time>2026-08-15T14:09:17.000Z</time>
        <extensions>
          <ns3:TrackPointExtension>
            <ns3:hr>86</ns3:hr>
            <ns3:cad>0</ns3:cad>
          </ns3:TrackPointExtension>
        </extensions>
      </trkpt>
      <trkpt lat="37.98726118169724941253662109375" lon="-107.73060849867761135101318359375">
        <ele>3647.60009765625</ele>
        <time>2026-08-15T14:09:23.000Z</time>
        <extensions>
          <ns3:TrackPointExtension>
            <ns3:hr>86</ns3:hr>
            <ns3:cad>0</ns3:cad>
          </ns3:TrackPointExtension>
        </extensions>
      </trkpt>
      <trkpt lat="37.9872604273259639739990234375" lon="-107.73061704821884632110595703125">
        <ele>3647.60009765625</ele>
        <time>2026-08-15T14:09:24.000Z</time>
        <extensions>
          <ns3:TrackPointExtension>
            <ns3:hr>86</ns3:hr>
            <ns3:cad>0</ns3:cad>
          </ns3:TrackPointExtension>
        </extensions>
      </trkpt>
      <trkpt lat="37.987257577478885650634765625" lon="-107.7306179702281951904296875">
        <ele>3647.39990234375</ele>
        <time>2026-08-15T14:09:29.000Z</time>
        <extensions>
          <ns3:TrackPointExtension>
            <ns3:hr>88</ns3:hr>
            <ns3:cad>0</ns3:cad>
          </ns3:TrackPointExtension>
        </extensions>
      </trkpt>
      <trkpt lat="37.98725062049925327301025390625" lon="-107.73064454086124897003173828125">
        <ele>3647</ele>
        <time>2026-08-15T14:09:33.000Z</time>
        <extensions>
          <ns3:TrackPointExtension>
            <ns3:hr>90</ns3:hr>
            <ns3:cad>0</ns3:cad>
          </ns3:TrackPointExtension>
        </extensions>
      </trkpt>
      <trkpt lat="37.98724894411861896514892578125" lon="-107.7306553535163402557373046875">
        <ele>3646.60009765625</ele>
        <time>2026-08-15T14:09:34.000Z</time>
        <extensions>
          <ns3:TrackPointExtension>
            <ns3:hr>88</ns3:hr>
            <ns3:cad>19</ns3:cad>
          </ns3:TrackPointExtension>
        </extensions>
      </trkpt>
      <trkpt lat="37.9872451722621917724609375" lon="-107.730682007968425750732421875">
        <ele>3645.800048828125</ele>
        <time>2026-08-15T14:09:38.000Z</time>
        <extensions>
          <ns3:TrackPointExtension>
            <ns3:hr>88</ns3:hr>
            <ns3:cad>0</ns3:cad>
          </ns3:TrackPointExtension>
        </extensions>
      </trkpt>
      <trkpt lat="37.98724542371928691864013671875" lon="-107.730720229446887969970703125">
        <ele>3645</ele>
        <time>2026-08-15T14:09:42.000Z</time>
        <extensions>
          <ns3:TrackPointExtension>
            <ns3:hr>88</ns3:hr>
            <ns3:cad>0</ns3:cad>
          </ns3:TrackPointExtension>
        </extensions>
      </trkpt>
      <trkpt lat="37.98724173568189144134521484375" lon="-107.7307333052158355712890625">
        <ele>3644.60009765625</ele>
        <time>2026-08-15T14:09:44.000Z</time>
        <extensions>
          <ns3:TrackPointExtension>
            <ns3:hr>89</ns3:hr>
            <ns3:cad>0</ns3:cad>
          </ns3:TrackPointExtension>
        </extensions>
      </trkpt>
      <trkpt lat="37.98723268322646617889404296875" lon="-107.7307753823697566986083984375">
        <ele>3644</ele>
        <time>2026-08-15T14:09:48.000Z</time>
        <extensions>
          <ns3:TrackPointExtension>
            <ns3:hr>88</ns3:hr>
            <ns3:cad>0</ns3:cad>
          </ns3:TrackPointExtension>
        </extensions>
      </trkpt>
      <trkpt lat="37.98722983337938785552978515625" lon="-107.73079021833837032318115234375">
        <ele>3643.60009765625</ele>
        <time>2026-08-15T14:09:50.000Z</time>
        <extensions>
          <ns3:TrackPointExtension>
            <ns3:hr>89</ns3:hr>
            <ns3:cad>0</ns3:cad>
          </ns3:TrackPointExtension>
        </extensions>
      </trkpt>
      <trkpt lat="37.9872292466461658477783203125" lon="-107.73083531297743320465087890625">
        <ele>3642.60009765625</ele>
        <time>2026-08-15T14:09:56.000Z</time>
        <extensions>
          <ns3:TrackPointExtension>
            <ns3:hr>91</ns3:hr>
            <ns3:cad>0</ns3:cad>
          </ns3:TrackPointExtension>
        </extensions>
      </trkpt>
      <trkpt lat="37.98722581006586551666259765625" lon="-107.730875797569751739501953125">
        <ele>3641.39990234375</ele>
        <time>2026-08-15T14:10:02.000Z</time>
        <extensions>
          <ns3:TrackPointExtension>
            <ns3:hr>90</ns3:hr>
            <ns3:cad>0</ns3:cad>
          </ns3:TrackPointExtension>
        </extensions>
      </trkpt>
      <trkpt lat="37.9872215352952480316162109375" lon="-107.73089398629963397979736328125">
        <ele>3641.199951171875</ele>
        <time>2026-08-15T14:10:04.000Z</time>
        <extensions>
          <ns3:TrackPointExtension>
            <ns3:hr>89</ns3:hr>
            <ns3:cad>0</ns3:cad>
          </ns3:TrackPointExtension>
        </extensions>
      </trkpt>
      <trkpt lat="37.987211644649505615234375" lon="-107.7309371531009674072265625">
        <ele>3640.199951171875</ele>
        <time>2026-08-15T14:10:08.000Z</time>
        <extensions>
          <ns3:TrackPointExtension>
            <ns3:hr>89</ns3:hr>
            <ns3:cad>0</ns3:cad>
          </ns3:TrackPointExtension>
        </extensions>
      </trkpt>
      <trkpt lat="37.9871963895857334136962890625" lon="-107.7309601195156574249267578125">
        <ele>3640.199951171875</ele>
        <time>2026-08-15T14:10:11.000Z</time>
        <extensions>
          <ns3:TrackPointExtension>
            <ns3:hr>89</ns3:hr>
            <ns3:cad>0</ns3:cad>
          </ns3:TrackPointExtension>
        </extensions>
      </trkpt>
      <trkpt lat="37.98719756305217742919921875" lon="-107.7309748716652393341064453125">
        <ele>3640.39990234375</ele>
        <time>2026-08-15T14:10:12.000Z</time>
        <extensions>
          <ns3:TrackPointExtension>
            <ns3:hr>89</ns3:hr>
            <ns3:cad>0</ns3:cad>
          </ns3:TrackPointExtension>
        </extensions>
      </trkpt>
      <trkpt lat="37.98719345591962337493896484375" lon="-107.73098987527191638946533203125">
        <ele>3640</ele>
        <time>2026-08-15T14:10:16.000Z</time>
        <extensions>
          <ns3:TrackPointExtension>
            <ns3:hr>89</ns3:hr>
            <ns3:cad>0</ns3:cad>
          </ns3:TrackPointExtension>
        </extensions>
      </trkpt>
      <trkpt lat="37.987200580537319183349609375" lon="-107.7310057170689105987548828125">
        <ele>3639</ele>
        <time>2026-08-15T14:10:21.000Z</time>
        <extensions>
          <ns3:TrackPointExtension>
            <ns3:hr>88</ns3:hr>
            <ns3:cad>0</ns3:cad>
          </ns3:TrackPointExtension>
        </extensions>
      </trkpt>
      <trkpt lat="37.9872049391269683837890625" lon="-107.73101560771465301513671875">
        <ele>3638.39990234375</ele>
        <time>2026-08-15T14:10:24.000Z</time>
        <extensions>
          <ns3:TrackPointExtension>
            <ns3:hr>85</ns3:hr>
            <ns3:cad>0</ns3:cad>
          </ns3:TrackPointExtension>
        </extensions>
      </trkpt>
      <trkpt lat="37.987209297716617584228515625" lon="-107.73102742619812488555908203125">
        <ele>3638</ele>
        <time>2026-08-15T14:10:26.000Z</time>
        <extensions>
          <ns3:TrackPointExtension>
            <ns3:hr>84</ns3:hr>
            <ns3:cad>0</ns3:cad>
          </ns3:TrackPointExtension>
        </extensions>
      </trkpt>
      <trkpt lat="37.98721273429691791534423828125" lon="-107.73103304207324981689453125">
        <ele>3637.60009765625</ele>
        <time>2026-08-15T14:10:29.000Z</time>
        <extensions>
          <ns3:TrackPointExtension>
            <ns3:hr>83</ns3:hr>
            <ns3:cad>0</ns3:cad>
          </ns3:TrackPointExtension>
        </extensions>
      </trkpt>
      <trkpt lat="37.987216673791408538818359375" lon="-107.731048129498958587646484375">
        <ele>3637</ele>
        <time>2026-08-15T14:10:34.000Z</time>
        <extensions>
          <ns3:TrackPointExtension>
            <ns3:hr>84</ns3:hr>
            <ns3:cad>0</ns3:cad>
          </ns3:TrackPointExtension>
        </extensions>
      </trkpt>
      <trkpt lat="37.9872138239443302154541015625" lon="-107.73106028325855731964111328125">
        <ele>3636.60009765625</ele>
        <time>2026-08-15T14:10:36.000Z</time>
        <extensions>
          <ns3:TrackPointExtension>
            <ns3:hr>85</ns3:hr>
            <ns3:cad>0</ns3:cad>
          </ns3:TrackPointExtension>
        </extensions>
      </trkpt>
      <trkpt lat="37.98721357248723506927490234375" lon="-107.73109070956707000732421875">
        <ele>3635.60009765625</ele>
        <time>2026-08-15T14:10:39.000Z</time>
        <extensions>
          <ns3:TrackPointExtension>
            <ns3:hr>85</ns3:hr>
            <ns3:cad>0</ns3:cad>
          </ns3:TrackPointExtension>
        </extensions>
      </trkpt>
      <trkpt lat="37.98721390776336193084716796875" lon="-107.73110873065888881683349609375">
        <ele>3635</ele>
        <time>2026-08-15T14:10:43.000Z</time>
        <extensions>
          <ns3:TrackPointExtension>
            <ns3:hr>84</ns3:hr>
            <ns3:cad>0</ns3:cad>
          </ns3:TrackPointExtension>
        </extensions>
      </trkpt>
      <trkpt lat="37.9872143268585205078125" lon="-107.7311197109520435333251953125">
        <ele>3634.60009765625</ele>
        <time>2026-08-15T14:10:46.000Z</time>
        <extensions>
          <ns3:TrackPointExtension>
            <ns3:hr>83</ns3:hr>
            <ns3:cad>0</ns3:cad>
          </ns3:TrackPointExtension>
        </extensions>
      </trkpt>
      <trkpt lat="37.987219356000423431396484375" lon="-107.7311525680124759674072265625">
        <ele>3633.60009765625</ele>
        <time>2026-08-15T14:10:50.000Z</time>
        <extensions>
          <ns3:TrackPointExtension>
            <ns3:hr>84</ns3:hr>
            <ns3:cad>0</ns3:cad>
          </ns3:TrackPointExtension>
        </extensions>
      </trkpt>
      <trkpt lat="37.98722865991294384002685546875" lon="-107.731178216636180877685546875">
        <ele>3632.39990234375</ele>
        <time>2026-08-15T14:10:55.000Z</time>
        <extensions>
          <ns3:TrackPointExtension>
            <ns3:hr>85</ns3:hr>
            <ns3:cad>0</ns3:cad>
          </ns3:TrackPointExtension>
        </extensions>
      </trkpt>
      <trkpt lat="37.987229414284229278564453125" lon="-107.73118651472032070159912109375">
        <ele>3632.199951171875</ele>
        <time>2026-08-15T14:10:57.000Z</time>
        <extensions>
          <ns3:TrackPointExtension>
            <ns3:hr>85</ns3:hr>
            <ns3:cad>0</ns3:cad>
          </ns3:TrackPointExtension>
        </extensions>
      </trkpt>
      <trkpt lat="37.987220026552677154541015625" lon="-107.73122859187424182891845703125">
        <ele>3631.39990234375</ele>
        <time>2026-08-15T14:11:03.000Z</time>
        <extensions>
          <ns3:TrackPointExtension>
            <ns3:hr>84</ns3:hr>
            <ns3:cad>0</ns3:cad>
          </ns3:TrackPointExtension>
        </extensions>
      </trkpt>
      <trkpt lat="37.98722513951361179351806640625" lon="-107.73123898543417453765869140625">
        <ele>3630.60009765625</ele>
        <time>2026-08-15T14:11:08.000Z</time>
        <extensions>
          <ns3:TrackPointExtension>
            <ns3:hr>85</ns3:hr>
            <ns3:cad>0</ns3:cad>
          </ns3:TrackPointExtension>
        </extensions>
      </trkpt>
      <trkpt lat="37.9872356168925762176513671875" lon="-107.731258682906627655029296875">
        <ele>3630.199951171875</ele>
        <time>2026-08-15T14:11:12.000Z</time>
        <extensions>
          <ns3:TrackPointExtension>
            <ns3:hr>85</ns3:hr>
            <ns3:cad>0</ns3:cad>
          </ns3:TrackPointExtension>
        </extensions>
      </trkpt>
      <trkpt lat="37.9872532188892364501953125" lon="-107.7312930487096309661865234375">
        <ele>3629.39990234375</ele>
        <time>2026-08-15T14:11:16.000Z</time>
        <extensions>
          <ns3:TrackPointExtension>
            <ns3:hr>85</ns3:hr>
            <ns3:cad>0</ns3:cad>
          </ns3:TrackPointExtension>
        </extensions>
      </trkpt>
      <trkpt lat="37.98725330270826816558837890625" lon="-107.73129447363317012786865234375">
        <ele>3629.199951171875</ele>
        <time>2026-08-15T14:11:17.000Z</time>
        <extensions>
          <ns3:TrackPointExtension>
            <ns3:hr>85</ns3:hr>
            <ns3:cad>0</ns3:cad>
          </ns3:TrackPointExtension>
        </extensions>
      </trkpt>
      <trkpt lat="37.98726730048656463623046875" lon="-107.731289528310298919677734375">
        <ele>3628.60009765625</ele>
        <time>2026-08-15T14:11:22.000Z</time>
        <extensions>
          <ns3:TrackPointExtension>
            <ns3:hr>87</ns3:hr>
            <ns3:cad>0</ns3:cad>
          </ns3:TrackPointExtension>
        </extensions>
      </trkpt>
      <trkpt lat="37.98727408982813358306884765625" lon="-107.7312903665006160736083984375">
        <ele>3628</ele>
        <time>2026-08-15T14:11:25.000Z</time>
        <extensions>
          <ns3:TrackPointExtension>
            <ns3:hr>87</ns3:hr>
            <ns3:cad>0</ns3:cad>
          </ns3:TrackPointExtension>
        </extensions>
      </trkpt>
      <trkpt lat="37.98727643676102161407470703125" lon="-107.73128525353968143463134765625">
        <ele>3627.39990234375</ele>
        <time>2026-08-15T14:11:28.000Z</time>
        <extensions>
          <ns3:TrackPointExtension>
            <ns3:hr>88</ns3:hr>
            <ns3:cad>0</ns3:cad>
          </ns3:TrackPointExtension>
        </extensions>
      </trkpt>
      <trkpt lat="37.98728716559708118438720703125" lon="-107.73129883222281932830810546875">
        <ele>3627</ele>
        <time>2026-08-15T14:11:30.000Z</time>
        <extensions>
          <ns3:TrackPointExtension>
            <ns3:hr>88</ns3:hr>
            <ns3:cad>0</ns3:cad>
          </ns3:TrackPointExtension>
        </extensions>
      </trkpt>
      <trkpt lat="37.98729890026152133941650390625" lon="-107.73130704648792743682861328125">
        <ele>3626.39990234375</ele>
        <time>2026-08-15T14:11:33.000Z</time>
        <extensions>
          <ns3:TrackPointExtension>
            <ns3:hr>89</ns3:hr>
            <ns3:cad>0</ns3:cad>
          </ns3:TrackPointExtension>
        </extensions>
      </trkpt>
      <trkpt lat="37.9873063601553440093994140625" lon="-107.731327749788761138916015625">
        <ele>3626.199951171875</ele>
        <time>2026-08-15T14:11:38.000Z</time>
        <extensions>
          <ns3:TrackPointExtension>
            <ns3:hr>90</ns3:hr>
            <ns3:cad>0</ns3:cad>
          </ns3:TrackPointExtension>
        </extensions>
      </trkpt>
      <trkpt lat="37.9873122274875640869140625" lon="-107.73133219219744205474853515625">
        <ele>3625.800048828125</ele>
        <time>2026-08-15T14:11:39.000Z</time>
        <extensions>
          <ns3:TrackPointExtension>
            <ns3:hr>90</ns3:hr>
            <ns3:cad>0</ns3:cad>
          </ns3:TrackPointExtension>
        </extensions>
      </trkpt>
      <trkpt lat="37.98731734044849872589111328125" lon="-107.73135717026889324188232421875">
        <ele>3624.60009765625</ele>
        <time>2026-08-15T14:11:44.000Z</time>
        <extensions>
          <ns3:TrackPointExtension>
            <ns3:hr>90</ns3:hr>
            <ns3:cad>0</ns3:cad>
          </ns3:TrackPointExtension>
        </extensions>
      </trkpt>
      <trkpt lat="37.98733645118772983551025390625" lon="-107.73139991797506809234619140625">
        <ele>3623.60009765625</ele>
        <time>2026-08-15T14:11:50.000Z</time>
        <extensions>
          <ns3:TrackPointExtension>
            <ns3:hr>90</ns3:hr>
            <ns3:cad>0</ns3:cad>
          </ns3:TrackPointExtension>
        </extensions>
      </trkpt>
      <trkpt lat="37.98734265379607677459716796875" lon="-107.73140989243984222412109375">
        <ele>3623.199951171875</ele>
        <time>2026-08-15T14:11:51.000Z</time>
        <extensions>
          <ns3:TrackPointExtension>
            <ns3:hr>90</ns3:hr>
            <ns3:cad>0</ns3:cad>
          </ns3:TrackPointExtension>
        </extensions>
      </trkpt>
      <trkpt lat="37.9873516224324703216552734375" lon="-107.7314253151416778564453125">
        <ele>3622.800048828125</ele>
        <time>2026-08-15T14:11:56.000Z</time>
        <extensions>
          <ns3:TrackPointExtension>
            <ns3:hr>89</ns3:hr>
            <ns3:cad>0</ns3:cad>
          </ns3:TrackPointExtension>
        </extensions>
      </trkpt>
      <trkpt lat="37.9873712360858917236328125" lon="-107.7314360439777374267578125">
        <ele>3622.39990234375</ele>
        <time>2026-08-15T14:11:59.000Z</time>
        <extensions>
          <ns3:TrackPointExtension>
            <ns3:hr>89</ns3:hr>
            <ns3:cad>0</ns3:cad>
          </ns3:TrackPointExtension>
        </extensions>
      </trkpt>
      <trkpt lat="37.98740199767053127288818359375" lon="-107.7314445935189723968505859375">
        <ele>3621.199951171875</ele>
        <time>2026-08-15T14:12:03.000Z</time>
        <extensions>
          <ns3:TrackPointExtension>
            <ns3:hr>89</ns3:hr>
            <ns3:cad>0</ns3:cad>
          </ns3:TrackPointExtension>
        </extensions>
      </trkpt>
      <trkpt lat="37.98742881976068019866943359375" lon="-107.73144450969994068145751953125">
        <ele>3620.199951171875</ele>
        <time>2026-08-15T14:12:07.000Z</time>
        <extensions>
          <ns3:TrackPointExtension>
            <ns3:hr>91</ns3:hr>
            <ns3:cad>0</ns3:cad>
          </ns3:TrackPointExtension>
        </extensions>
      </trkpt>
      <trkpt lat="37.98744558356702327728271484375" lon="-107.73147384636104106903076171875">
        <ele>3619.199951171875</ele>
        <time>2026-08-15T14:12:10.000Z</time>
        <extensions>
          <ns3:TrackPointExtension>
            <ns3:hr>92</ns3:hr>
            <ns3:cad>64</ns3:cad>
          </ns3:TrackPointExtension>
        </extensions>
      </trkpt>
      <trkpt lat="37.98745103180408477783203125" lon="-107.7314834855496883392333984375">
        <ele>3619</ele>
        <time>2026-08-15T14:12:11.000Z</time>
        <extensions>
          <ns3:TrackPointExtension>
            <ns3:hr>92</ns3:hr>
            <ns3:cad>64</ns3:cad>
          </ns3:TrackPointExtension>
        </extensions>
      </trkpt>
      <trkpt lat="37.987474836409091949462890625" lon="-107.731502763926982879638671875">
        <ele>3619</ele>
        <time>2026-08-15T14:12:14.000Z</time>
        <extensions>
          <ns3:TrackPointExtension>
            <ns3:hr>89</ns3:hr>
            <ns3:cad>57</ns3:cad>
          </ns3:TrackPointExtension>
        </extensions>
      </trkpt>
      <trkpt lat="37.98750073648989200592041015625" lon="-107.7315106429159641265869140625">
        <ele>3619</ele>
        <time>2026-08-15T14:12:17.000Z</time>
        <extensions>
          <ns3:TrackPointExtension>
            <ns3:hr>89</ns3:hr>
            <ns3:cad>0</ns3:cad>
          </ns3:TrackPointExtension>
        </extensions>
      </trkpt>
      <trkpt lat="37.987534515559673309326171875" lon="-107.7315200306475162506103515625">
        <ele>3617.800048828125</ele>
        <time>2026-08-15T14:12:21.000Z</time>
        <extensions>
          <ns3:TrackPointExtension>
            <ns3:hr>88</ns3:hr>
            <ns3:cad>0</ns3:cad>
          </ns3:TrackPointExtension>
        </extensions>
      </trkpt>
      <trkpt lat="37.98754750750958919525146484375" lon="-107.73152262903749942779541015625">
        <ele>3617.39990234375</ele>
        <time>2026-08-15T14:12:23.000Z</time>
        <extensions>
          <ns3:TrackPointExtension>
            <ns3:hr>88</ns3:hr>
            <ns3:cad>53</ns3:cad>
          </ns3:TrackPointExtension>
        </extensions>
      </trkpt>
      <trkpt lat="37.98756829462945461273193359375" lon="-107.7315366268157958984375">
        <ele>3616.800048828125</ele>
        <time>2026-08-15T14:12:27.000Z</time>
        <extensions>
          <ns3:TrackPointExtension>
            <ns3:hr>90</ns3:hr>
            <ns3:cad>0</ns3:cad>
          </ns3:TrackPointExtension>
        </extensions>
      </trkpt>
      <trkpt lat="37.9875916801393032073974609375" lon="-107.73154324851930141448974609375">
        <ele>3616</ele>
        <time>2026-08-15T14:12:31.000Z</time>
        <extensions>
          <ns3:TrackPointExtension>
            <ns3:hr>90</ns3:hr>
            <ns3:cad>0</ns3:cad>
          </ns3:TrackPointExtension>
        </extensions>
      </trkpt>
      <trkpt lat="37.98760551027953624725341796875" lon="-107.7315569110214710235595703125">
        <ele>3615.60009765625</ele>
        <time>2026-08-15T14:12:33.000Z</time>
        <extensions>
          <ns3:TrackPointExtension>
            <ns3:hr>89</ns3:hr>
            <ns3:cad>0</ns3:cad>
          </ns3:TrackPointExtension>
        </extensions>
      </trkpt>
      <trkpt lat="37.98763451166450977325439453125" lon="-107.7315860800445079803466796875">
        <ele>3615.199951171875</ele>
        <time>2026-08-15T14:12:38.000Z</time>
        <extensions>
          <ns3:TrackPointExtension>
            <ns3:hr>90</ns3:hr>
            <ns3:cad>0</ns3:cad>
          </ns3:TrackPointExtension>
        </extensions>
      </trkpt>
      <trkpt lat="37.98765144310891628265380859375" lon="-107.7315840683877468109130859375">
        <ele>3614.60009765625</ele>
        <time>2026-08-15T14:12:40.000Z</time>
        <extensions>
          <ns3:TrackPointExtension>
            <ns3:hr>89</ns3:hr>
            <ns3:cad>0</ns3:cad>
          </ns3:TrackPointExtension>
        </extensions>
      </trkpt>
      <trkpt lat="37.9876687936484813690185546875" lon="-107.7315941266715526580810546875">
        <ele>3614</ele>
        <time>2026-08-15T14:12:43.000Z</time>
        <extensions>
          <ns3:TrackPointExtension>
            <ns3:hr>86</ns3:hr>
            <ns3:cad>0</ns3:cad>
          </ns3:TrackPointExtension>
        </extensions>
      </trkpt>
      <trkpt lat="37.98767499625682830810546875" lon="-107.73160426877439022064208984375">
        <ele>3613.800048828125</ele>
        <time>2026-08-15T14:12:44.000Z</time>
        <extensions>
          <ns3:TrackPointExtension>
            <ns3:hr>84</ns3:hr>
            <ns3:cad>0</ns3:cad>
          </ns3:TrackPointExtension>
        </extensions>
      </trkpt>
      <trkpt lat="37.987680695950984954833984375" lon="-107.73161105811595916748046875">
        <ele>3613.60009765625</ele>
        <time>2026-08-15T14:12:45.000Z</time>
        <extensions>
          <ns3:TrackPointExtension>
            <ns3:hr>83</ns3:hr>
            <ns3:cad>54</ns3:cad>
          </ns3:TrackPointExtension>
        </extensions>
      </trkpt>
      <trkpt lat="37.9877113737165927886962890625" lon="-107.73161709308624267578125">
        <ele>3612.60009765625</ele>
        <time>2026-08-15T14:12:50.000Z</time>
        <extensions>
          <ns3:TrackPointExtension>
            <ns3:hr>83</ns3:hr>
            <ns3:cad>54</ns3:cad>
          </ns3:TrackPointExtension>
        </extensions>
      </trkpt>
      <trkpt lat="37.98773123882710933685302734375" lon="-107.7316239662468433380126953125">
        <ele>3611.800048828125</ele>
        <time>2026-08-15T14:12:53.000Z</time>
        <extensions>
          <ns3:TrackPointExtension>
            <ns3:hr>83</ns3:hr>
            <ns3:cad>0</ns3:cad>
          </ns3:TrackPointExtension>
        </extensions>
      </trkpt>
      <trkpt lat="37.9877408780157566070556640625" lon="-107.73163327015936374664306640625">
        <ele>3611.199951171875</ele>
        <time>2026-08-15T14:12:55.000Z</time>
        <extensions>
          <ns3:TrackPointExtension>
            <ns3:hr>83</ns3:hr>
            <ns3:cad>0</ns3:cad>
          </ns3:TrackPointExtension>
        </extensions>
      </trkpt>
      <trkpt lat="37.9877750761806964874267578125" lon="-107.7316653728485107421875">
        <ele>3610.199951171875</ele>
        <time>2026-08-15T14:13:00.000Z</time>
        <extensions>
          <ns3:TrackPointExtension>
            <ns3:hr>84</ns3:hr>
            <ns3:cad>0</ns3:cad>
          </ns3:TrackPointExtension>
        </extensions>
      </trkpt>
      <trkpt lat="37.98778362572193145751953125" lon="-107.73166897706687450408935546875">
        <ele>3610</ele>
        <time>2026-08-15T14:13:01.000Z</time>
        <extensions>
          <ns3:TrackPointExtension>
            <ns3:hr>84</ns3:hr>
            <ns3:cad>65</ns3:cad>
          </ns3:TrackPointExtension>
        </extensions>
      </trkpt>
      <trkpt lat="37.987828887999057769775390625" lon="-107.731695882976055145263671875">
        <ele>3609.199951171875</ele>
        <time>2026-08-15T14:13:07.000Z</time>
        <extensions>
          <ns3:TrackPointExtension>
            <ns3:hr>84</ns3:hr>
            <ns3:cad>65</ns3:cad>
          </ns3:TrackPointExtension>
        </extensions>
      </trkpt>
      <trkpt lat="37.98783861100673675537109375" lon="-107.7317010797560214996337890625">
        <ele>3609</ele>
        <time>2026-08-15T14:13:08.000Z</time>
        <extensions>
          <ns3:TrackPointExtension>
            <ns3:hr>84</ns3:hr>
            <ns3:cad>55</ns3:cad>
          </ns3:TrackPointExtension>
        </extensions>
      </trkpt>
      <trkpt lat="37.98784741200506687164306640625" lon="-107.7317037619650363922119140625">
        <ele>3608.800048828125</ele>
        <time>2026-08-15T14:13:09.000Z</time>
        <extensions>
          <ns3:TrackPointExtension>
            <ns3:hr>84</ns3:hr>
            <ns3:cad>55</ns3:cad>
          </ns3:TrackPointExtension>
        </extensions>
      </trkpt>
      <trkpt lat="37.98786484636366367340087890625" lon="-107.73172027431428432464599609375">
        <ele>3608</ele>
        <time>2026-08-15T14:13:12.000Z</time>
        <extensions>
          <ns3:TrackPointExtension>
            <ns3:hr>84</ns3:hr>
            <ns3:cad>55</ns3:cad>
          </ns3:TrackPointExtension>
        </extensions>
      </trkpt>
      <trkpt lat="37.9878850467503070831298828125" lon="-107.73172580637037754058837890625">
        <ele>3607.60009765625</ele>
        <time>2026-08-15T14:13:14.000Z</time>
        <extensions>
          <ns3:TrackPointExtension>
            <ns3:hr>84</ns3:hr>
            <ns3:cad>0</ns3:cad>
          </ns3:TrackPointExtension>
        </extensions>
      </trkpt>
      <trkpt lat="37.98791379667818546295166015625" lon="-107.73176553659141063690185546875">
        <ele>3606.800048828125</ele>
        <time>2026-08-15T14:13:19.000Z</time>
        <extensions>
          <ns3:TrackPointExtension>
            <ns3:hr>86</ns3:hr>
            <ns3:cad>59</ns3:cad>
          </ns3:TrackPointExtension>
        </extensions>
      </trkpt>
      <trkpt lat="37.98793257214128971099853515625" lon="-107.7317900955677032470703125">
        <ele>3605.60009765625</ele>
        <time>2026-08-15T14:13:23.000Z</time>
        <extensions>
          <ns3:TrackPointExtension>
            <ns3:hr>90</ns3:hr>
            <ns3:cad>57</ns3:cad>
          </ns3:TrackPointExtension>
        </extensions>
      </trkpt>
      <trkpt lat="37.9879410378634929656982421875" lon="-107.73181599564850330352783203125">
        <ele>3605</ele>
        <time>2026-08-15T14:13:26.000Z</time>
        <extensions>
          <ns3:TrackPointExtension>
            <ns3:hr>91</ns3:hr>
            <ns3:cad>0</ns3:cad>
          </ns3:TrackPointExtension>
        </extensions>
      </trkpt>
      <trkpt lat="37.98794615082442760467529296875" lon="-107.73185824044048786163330078125">
        <ele>3604.39990234375</ele>
        <time>2026-08-15T14:13:29.000Z</time>
        <extensions>
          <ns3:TrackPointExtension>
            <ns3:hr>90</ns3:hr>
            <ns3:cad>0</ns3:cad>
          </ns3:TrackPointExtension>
        </extensions>
      </trkpt>
      <trkpt lat="37.98796475864946842193603515625" lon="-107.73190341889858245849609375">
        <ele>3603.800048828125</ele>
        <time>2026-08-15T14:13:33.000Z</time>
        <extensions>
          <ns3:TrackPointExtension>
            <ns3:hr>89</ns3:hr>
            <ns3:cad>48</ns3:cad>
          </ns3:TrackPointExtension>
        </extensions>
      </trkpt>
      <trkpt lat="37.987993173301219940185546875" lon="-107.7319602482020854949951171875">
        <ele>3604.39990234375</ele>
        <time>2026-08-15T14:13:39.000Z</time>
        <extensions>
          <ns3:TrackPointExtension>
            <ns3:hr>89</ns3:hr>
            <ns3:cad>43</ns3:cad>
          </ns3:TrackPointExtension>
        </extensions>
      </trkpt>
      <trkpt lat="37.9880082607269287109375" lon="-107.73201095871627330780029296875">
        <ele>3604.39990234375</ele>
        <time>2026-08-15T14:13:43.000Z</time>
        <extensions>
          <ns3:TrackPointExtension>
            <ns3:hr>86</ns3:hr>
            <ns3:cad>0</ns3:cad>
          </ns3:TrackPointExtension>
        </extensions>
      </trkpt>
      <trkpt lat="37.9880082607269287109375" lon="-107.732025794684886932373046875">
        <ele>3604.39990234375</ele>
        <time>2026-08-15T14:13:44.000Z</time>
        <extensions>
          <ns3:TrackPointExtension>
            <ns3:hr>83</ns3:hr>
            <ns3:cad>0</ns3:cad>
          </ns3:TrackPointExtension>
        </extensions>
      </trkpt>
      <trkpt lat="37.98800893127918243408203125" lon="-107.73205035366117954254150390625">
        <ele>3604.39990234375</ele>
        <time>2026-08-15T14:13:46.000Z</time>
        <extensions>
          <ns3:TrackPointExtension>
            <ns3:hr>82</ns3:hr>
            <ns3:cad>55</ns3:cad>
          </ns3:TrackPointExtension>
        </extensions>
      </trkpt>
      <trkpt lat="37.9880122840404510498046875" lon="-107.7321188338100910186767578125">
        <ele>3604.199951171875</ele>
        <time>2026-08-15T14:13:52.000Z</time>
        <extensions>
          <ns3:TrackPointExtension>
            <ns3:hr>80</ns3:hr>
            <ns3:cad>0</ns3:cad>
          </ns3:TrackPointExtension>
        </extensions>
      </trkpt>
      <trkpt lat="37.98800717107951641082763671875" lon="-107.7321718074381351470947265625">
        <ele>3604.60009765625</ele>
        <time>2026-08-15T14:13:57.000Z</time>
        <extensions>
          <ns3:TrackPointExtension>
            <ns3:hr>81</ns3:hr>
            <ns3:cad>0</ns3:cad>
          </ns3:TrackPointExtension>
        </extensions>
      </trkpt>
      <trkpt lat="37.98800633288919925689697265625" lon="-107.732175998389720916748046875">
        <ele>3604.60009765625</ele>
        <time>2026-08-15T14:13:58.000Z</time>
        <extensions>
          <ns3:TrackPointExtension>
            <ns3:hr>80</ns3:hr>
            <ns3:cad>0</ns3:cad>
          </ns3:TrackPointExtension>
        </extensions>
      </trkpt>
      <trkpt lat="37.98800817690789699554443359375" lon="-107.732210196554660797119140625">
        <ele>3605.60009765625</ele>
        <time>2026-08-15T14:14:03.000Z</time>
        <extensions>
          <ns3:TrackPointExtension>
            <ns3:hr>79</ns3:hr>
            <ns3:cad>0</ns3:cad>
          </ns3:TrackPointExtension>
        </extensions>
      </trkpt>
      <trkpt lat="37.98800163902342319488525390625" lon="-107.73221799172461032867431640625">
        <ele>3605.800048828125</ele>
        <time>2026-08-15T14:14:04.000Z</time>
        <extensions>
          <ns3:TrackPointExtension>
            <ns3:hr>79</ns3:hr>
            <ns3:cad>0</ns3:cad>
          </ns3:TrackPointExtension>
        </extensions>
      </trkpt>
      <trkpt lat="37.98798370175063610076904296875" lon="-107.7322378568351268768310546875">
        <ele>3606.60009765625</ele>
        <time>2026-08-15T14:14:08.000Z</time>
        <extensions>
          <ns3:TrackPointExtension>
            <ns3:hr>81</ns3:hr>
            <ns3:cad>0</ns3:cad>
          </ns3:TrackPointExtension>
        </extensions>
      </trkpt>
      <trkpt lat="37.987977750599384307861328125" lon="-107.732263170182704925537109375">
        <ele>3607.199951171875</ele>
        <time>2026-08-15T14:14:11.000Z</time>
        <extensions>
          <ns3:TrackPointExtension>
            <ns3:hr>84</ns3:hr>
            <ns3:cad>0</ns3:cad>
          </ns3:TrackPointExtension>
        </extensions>
      </trkpt>
      <trkpt lat="37.9879816062748432159423828125" lon="-107.73228026926517486572265625">
        <ele>3607.800048828125</ele>
        <time>2026-08-15T14:14:14.000Z</time>
        <extensions>
          <ns3:TrackPointExtension>
            <ns3:hr>87</ns3:hr>
            <ns3:cad>0</ns3:cad>
          </ns3:TrackPointExtension>
        </extensions>
      </trkpt>
      <trkpt lat="37.98797272145748138427734375" lon="-107.73230315186083316802978515625">
        <ele>3608.199951171875</ele>
        <time>2026-08-15T14:14:18.000Z</time>
        <extensions>
          <ns3:TrackPointExtension>
            <ns3:hr>90</ns3:hr>
            <ns3:cad>0</ns3:cad>
          </ns3:TrackPointExtension>
        </extensions>
      </trkpt>
      <trkpt lat="37.9879668541252613067626953125" lon="-107.73233257234096527099609375">
        <ele>3609</ele>
        <time>2026-08-15T14:14:21.000Z</time>
        <extensions>
          <ns3:TrackPointExtension>
            <ns3:hr>92</ns3:hr>
            <ns3:cad>0</ns3:cad>
          </ns3:TrackPointExtension>
        </extensions>
      </trkpt>
      <trkpt lat="37.98796509392559528350830078125" lon="-107.7323384396731853485107421875">
        <ele>3609.800048828125</ele>
        <time>2026-08-15T14:14:24.000Z</time>
        <extensions>
          <ns3:TrackPointExtension>
            <ns3:hr>94</ns3:hr>
            <ns3:cad>0</ns3:cad>
          </ns3:TrackPointExtension>
        </extensions>
      </trkpt>
      <trkpt lat="37.9879653453826904296875" lon="-107.73233651183545589447021484375">
        <ele>3610</ele>
        <time>2026-08-15T14:14:25.000Z</time>
        <extensions>
          <ns3:TrackPointExtension>
            <ns3:hr>94</ns3:hr>
            <ns3:cad>0</ns3:cad>
          </ns3:TrackPointExtension>
        </extensions>
      </trkpt>
      <trkpt lat="37.9879653453826904296875" lon="-107.73233634419739246368408203125">
        <ele>3610.800048828125</ele>
        <time>2026-08-15T14:14:31.000Z</time>
        <extensions>
          <ns3:TrackPointExtension>
            <ns3:hr>95</ns3:hr>
            <ns3:cad>0</ns3:cad>
          </ns3:TrackPointExtension>
        </extensions>
      </trkpt>
      <trkpt lat="37.9879653453826904296875" lon="-107.73233634419739246368408203125">
        <ele>3610.60009765625</ele>
        <time>2026-08-15T14:14:34.000Z</time>
        <extensions>
          <ns3:TrackPointExtension>
            <ns3:hr>99</ns3:hr>
            <ns3:cad>0</ns3:cad>
          </ns3:TrackPointExtension>
        </extensions>
      </trkpt>
      <trkpt lat="37.9879653453826904296875" lon="-107.73233634419739246368408203125">
        <ele>3610.60009765625</ele>
        <time>2026-08-15T14:14:35.000Z</time>
        <extensions>
          <ns3:TrackPointExtension>
            <ns3:hr>102</ns3:hr>
            <ns3:cad>0</ns3:cad>
          </ns3:TrackPointExtension>
        </extensions>
      </trkpt>
      <trkpt lat="37.9879653453826904296875" lon="-107.73233634419739246368408203125">
        <ele>3610.39990234375</ele>
        <time>2026-08-15T14:14:36.000Z</time>
        <extensions>
          <ns3:TrackPointExtension>
            <ns3:hr>107</ns3:hr>
            <ns3:cad>0</ns3:cad>
          </ns3:TrackPointExtension>
        </extensions>
      </trkpt>
      <trkpt lat="37.9879653453826904296875" lon="-107.73233634419739246368408203125">
        <ele>3610.39990234375</ele>
        <time>2026-08-15T14:14:37.000Z</time>
        <extensions>
          <ns3:TrackPointExtension>
            <ns3:hr>110</ns3:hr>
            <ns3:cad>0</ns3:cad>
          </ns3:TrackPointExtension>
        </extensions>
      </trkpt>
      <trkpt lat="37.9879653453826904296875" lon="-107.73233634419739246368408203125">
        <ele>3610.199951171875</ele>
        <time>2026-08-15T14:14:40.000Z</time>
        <extensions>
          <ns3:TrackPointExtension>
            <ns3:hr>111</ns3:hr>
            <ns3:cad>0</ns3:cad>
          </ns3:TrackPointExtension>
        </extensions>
      </trkpt>
      <trkpt lat="37.9879653453826904296875" lon="-107.73233634419739246368408203125">
        <ele>3610.199951171875</ele>
        <time>2026-08-15T14:14:46.000Z</time>
        <extensions>
          <ns3:TrackPointExtension>
            <ns3:hr>109</ns3:hr>
            <ns3:cad>0</ns3:cad>
          </ns3:TrackPointExtension>
        </extensions>
      </trkpt>
      <trkpt lat="37.9879653453826904296875" lon="-107.73233634419739246368408203125">
        <ele>3609.800048828125</ele>
        <time>2026-08-15T14:14:49.000Z</time>
        <extensions>
          <ns3:TrackPointExtension>
            <ns3:hr>108</ns3:hr>
            <ns3:cad>0</ns3:cad>
          </ns3:TrackPointExtension>
        </extensions>
      </trkpt>
      <trkpt lat="37.98797179944813251495361328125" lon="-107.73235109634697437286376953125">
        <ele>3610.39990234375</ele>
        <time>2026-08-15T14:14:55.000Z</time>
        <extensions>
          <ns3:TrackPointExtension>
            <ns3:hr>109</ns3:hr>
            <ns3:cad>0</ns3:cad>
          </ns3:TrackPointExtension>
        </extensions>
      </trkpt>
      <trkpt lat="37.9879752360284328460693359375" lon="-107.732369787991046905517578125">
        <ele>3611</ele>
        <time>2026-08-15T14:14:58.000Z</time>
        <extensions>
          <ns3:TrackPointExtension>
            <ns3:hr>109</ns3:hr>
            <ns3:cad>0</ns3:cad>
          </ns3:TrackPointExtension>
        </extensions>
      </trkpt>
      <trkpt lat="37.98797666095197200775146484375" lon="-107.7323719672858715057373046875">
        <ele>3611.199951171875</ele>
        <time>2026-08-15T14:15:00.000Z</time>
        <extensions>
          <ns3:TrackPointExtension>
            <ns3:hr>108</ns3:hr>
            <ns3:cad>44</ns3:cad>
          </ns3:TrackPointExtension>
        </extensions>
      </trkpt>
      <trkpt lat="37.9879774153232574462890625" lon="-107.73240122012794017791748046875">
        <ele>3612</ele>
        <time>2026-08-15T14:15:03.000Z</time>
        <extensions>
          <ns3:TrackPointExtension>
            <ns3:hr>105</ns3:hr>
            <ns3:cad>44</ns3:cad>
          </ns3:TrackPointExtension>
        </extensions>
      </trkpt>
      <trkpt lat="37.98797531984746456146240234375" lon="-107.732408009469509124755859375">
        <ele>3612.39990234375</ele>
        <time>2026-08-15T14:15:04.000Z</time>
        <extensions>
          <ns3:TrackPointExtension>
            <ns3:hr>105</ns3:hr>
            <ns3:cad>44</ns3:cad>
          </ns3:TrackPointExtension>
        </extensions>
      </trkpt>
      <trkpt lat="37.98795587383210659027099609375" lon="-107.73244245909154415130615234375">
        <ele>3613</ele>
        <time>2026-08-15T14:15:10.000Z</time>
        <extensions>
          <ns3:TrackPointExtension>
            <ns3:hr>107</ns3:hr>
            <ns3:cad>44</ns3:cad>
          </ns3:TrackPointExtension>
        </extensions>
      </trkpt>
      <trkpt lat="37.98795168288052082061767578125" lon="-107.73244648240506649017333984375">
        <ele>3613</ele>
        <time>2026-08-15T14:15:11.000Z</time>
        <extensions>
          <ns3:TrackPointExtension>
            <ns3:hr>107</ns3:hr>
            <ns3:cad>44</ns3:cad>
          </ns3:TrackPointExtension>
        </extensions>
      </trkpt>
      <trkpt lat="37.987943552434444427490234375" lon="-107.732457630336284637451171875">
        <ele>3613.39990234375</ele>
        <time>2026-08-15T14:15:13.000Z</time>
        <extensions>
          <ns3:TrackPointExtension>
            <ns3:hr>107</ns3:hr>
            <ns3:cad>44</ns3:cad>
          </ns3:TrackPointExtension>
        </extensions>
      </trkpt>
      <trkpt lat="37.9879282973706722259521484375" lon="-107.73248604498803615570068359375">
        <ele>3614.199951171875</ele>
        <time>2026-08-15T14:15:19.000Z</time>
        <extensions>
          <ns3:TrackPointExtension>
            <ns3:hr>109</ns3:hr>
            <ns3:cad>20</ns3:cad>
          </ns3:TrackPointExtension>
        </extensions>
      </trkpt>
      <trkpt lat="37.98791949637234210968017578125" lon="-107.73249476216733455657958984375">
        <ele>3614.39990234375</ele>
        <time>2026-08-15T14:15:21.000Z</time>
        <extensions>
          <ns3:TrackPointExtension>
            <ns3:hr>109</ns3:hr>
            <ns3:cad>0</ns3:cad>
          </ns3:TrackPointExtension>
        </extensions>
      </trkpt>
      <trkpt lat="37.987881861627101898193359375" lon="-107.73250414989888668060302734375">
        <ele>3615.800048828125</ele>
        <time>2026-08-15T14:15:27.000Z</time>
        <extensions>
          <ns3:TrackPointExtension>
            <ns3:hr>110</ns3:hr>
            <ns3:cad>0</ns3:cad>
          </ns3:TrackPointExtension>
        </extensions>
      </trkpt>
      <trkpt lat="37.9878615774214267730712890625" lon="-107.7325208298861980438232421875">
        <ele>3616.800048828125</ele>
        <time>2026-08-15T14:15:31.000Z</time>
        <extensions>
          <ns3:TrackPointExtension>
            <ns3:hr>113</ns3:hr>
            <ns3:cad>40</ns3:cad>
          </ns3:TrackPointExtension>
        </extensions>
      </trkpt>
      <trkpt lat="37.98785914666950702667236328125" lon="-107.7325261943042278289794921875">
        <ele>3616.800048828125</ele>
        <time>2026-08-15T14:15:32.000Z</time>
        <extensions>
          <ns3:TrackPointExtension>
            <ns3:hr>113</ns3:hr>
            <ns3:cad>0</ns3:cad>
          </ns3:TrackPointExtension>
        </extensions>
      </trkpt>
      <trkpt lat="37.98785629682242870330810546875" lon="-107.73252745158970355987548828125">
        <ele>3617</ele>
        <time>2026-08-15T14:15:33.000Z</time>
        <extensions>
          <ns3:TrackPointExtension>
            <ns3:hr>114</ns3:hr>
            <ns3:cad>0</ns3:cad>
          </ns3:TrackPointExtension>
        </extensions>
      </trkpt>
      <trkpt lat="37.987838275730609893798828125" lon="-107.73255310021340847015380859375">
        <ele>3618</ele>
        <time>2026-08-15T14:15:37.000Z</time>
        <extensions>
          <ns3:TrackPointExtension>
            <ns3:hr>116</ns3:hr>
            <ns3:cad>0</ns3:cad>
          </ns3:TrackPointExtension>
        </extensions>
      </trkpt>
      <trkpt lat="37.98782922327518463134765625" lon="-107.7325587160885334014892578125">
        <ele>3618</ele>
        <time>2026-08-15T14:15:39.000Z</time>
        <extensions>
          <ns3:TrackPointExtension>
            <ns3:hr>117</ns3:hr>
            <ns3:cad>47</ns3:cad>
          </ns3:TrackPointExtension>
        </extensions>
      </trkpt>
      <trkpt lat="37.9878169856965541839599609375" lon="-107.73258067667484283447265625">
        <ele>3618.199951171875</ele>
        <time>2026-08-15T14:15:44.000Z</time>
        <extensions>
          <ns3:TrackPointExtension>
            <ns3:hr>118</ns3:hr>
            <ns3:cad>0</ns3:cad>
          </ns3:TrackPointExtension>
        </extensions>
      </trkpt>
      <trkpt lat="37.987817823886871337890625" lon="-107.73260456509888172149658203125">
        <ele>3619.199951171875</ele>
        <time>2026-08-15T14:15:47.000Z</time>
        <extensions>
          <ns3:TrackPointExtension>
            <ns3:hr>118</ns3:hr>
            <ns3:cad>0</ns3:cad>
          </ns3:TrackPointExtension>
        </extensions>
      </trkpt>
      <trkpt lat="37.9878069274127483367919921875" lon="-107.732631303369998931884765625">
        <ele>3620.199951171875</ele>
        <time>2026-08-15T14:15:50.000Z</time>
        <extensions>
          <ns3:TrackPointExtension>
            <ns3:hr>119</ns3:hr>
            <ns3:cad>0</ns3:cad>
          </ns3:TrackPointExtension>
        </extensions>
      </trkpt>
      <trkpt lat="37.9878018982708454132080078125" lon="-107.7326435409486293792724609375">
        <ele>3620.39990234375</ele>
        <time>2026-08-15T14:15:51.000Z</time>
        <extensions>
          <ns3:TrackPointExtension>
            <ns3:hr>120</ns3:hr>
            <ns3:cad>0</ns3:cad>
          </ns3:TrackPointExtension>
        </extensions>
      </trkpt>
      <trkpt lat="37.98777985386550426483154296875" lon="-107.732676900923252105712890625">
        <ele>3621.39990234375</ele>
        <time>2026-08-15T14:15:56.000Z</time>
        <extensions>
          <ns3:TrackPointExtension>
            <ns3:hr>122</ns3:hr>
            <ns3:cad>43</ns3:cad>
          </ns3:TrackPointExtension>
        </extensions>
      </trkpt>
      <trkpt lat="37.9877750761806964874267578125" lon="-107.732699029147624969482421875">
        <ele>3621.60009765625</ele>
        <time>2026-08-15T14:15:58.000Z</time>
        <extensions>
          <ns3:TrackPointExtension>
            <ns3:hr>123</ns3:hr>
            <ns3:cad>41</ns3:cad>
          </ns3:TrackPointExtension>
        </extensions>
      </trkpt>
      <trkpt lat="37.98774062655866146087646484375" lon="-107.73272191174328327178955078125">
        <ele>3622.199951171875</ele>
        <time>2026-08-15T14:16:04.000Z</time>
        <extensions>
          <ns3:TrackPointExtension>
            <ns3:hr>125</ns3:hr>
            <ns3:cad>44</ns3:cad>
          </ns3:TrackPointExtension>
        </extensions>
      </trkpt>
      <trkpt lat="37.98770659603178501129150390625" lon="-107.73274688981473445892333984375">
        <ele>3622.60009765625</ele>
        <time>2026-08-15T14:16:09.000Z</time>
        <extensions>
          <ns3:TrackPointExtension>
            <ns3:hr>125</ns3:hr>
            <ns3:cad>0</ns3:cad>
          </ns3:TrackPointExtension>
        </extensions>
      </trkpt>
      <trkpt lat="37.98768974840641021728515625" lon="-107.73277245461940765380859375">
        <ele>3623.800048828125</ele>
        <time>2026-08-15T14:16:12.000Z</time>
        <extensions>
          <ns3:TrackPointExtension>
            <ns3:hr>127</ns3:hr>
            <ns3:cad>0</ns3:cad>
          </ns3:TrackPointExtension>
        </extensions>
      </trkpt>
      <trkpt lat="37.98768044449388980865478515625" lon="-107.73283406160771846771240234375">
        <ele>3624.800048828125</ele>
        <time>2026-08-15T14:16:17.000Z</time>
        <extensions>
          <ns3:TrackPointExtension>
            <ns3:hr>126</ns3:hr>
            <ns3:cad>0</ns3:cad>
          </ns3:TrackPointExtension>
        </extensions>
      </trkpt>
      <trkpt lat="37.98768463544547557830810546875" lon="-107.7328551001846790313720703125">
        <ele>3624.60009765625</ele>
        <time>2026-08-15T14:16:19.000Z</time>
        <extensions>
          <ns3:TrackPointExtension>
            <ns3:hr>126</ns3:hr>
            <ns3:cad>79</ns3:cad>
          </ns3:TrackPointExtension>
        </extensions>
      </trkpt>
      <trkpt lat="37.98770181834697723388671875" lon="-107.73291989229619503021240234375">
        <ele>3624.199951171875</ele>
        <time>2026-08-15T14:16:25.000Z</time>
        <extensions>
          <ns3:TrackPointExtension>
            <ns3:hr>124</ns3:hr>
            <ns3:cad>43</ns3:cad>
          </ns3:TrackPointExtension>
        </extensions>
      </trkpt>
      <trkpt lat="37.98770718276500701904296875" lon="-107.732965908944606781005859375">
        <ele>3624.800048828125</ele>
        <time>2026-08-15T14:16:30.000Z</time>
        <extensions>
          <ns3:TrackPointExtension>
            <ns3:hr>123</ns3:hr>
            <ns3:cad>0</ns3:cad>
          </ns3:TrackPointExtension>
        </extensions>
      </trkpt>
      <trkpt lat="37.9877147264778614044189453125" lon="-107.73303790949285030364990234375">
        <ele>3624.60009765625</ele>
        <time>2026-08-15T14:16:36.000Z</time>
        <extensions>
          <ns3:TrackPointExtension>
            <ns3:hr>120</ns3:hr>
            <ns3:cad>40</ns3:cad>
          </ns3:TrackPointExtension>
        </extensions>
      </trkpt>
      <trkpt lat="37.9877210967242717742919921875" lon="-107.733044363558292388916015625">
        <ele>3624.39990234375</ele>
        <time>2026-08-15T14:16:37.000Z</time>
        <extensions>
          <ns3:TrackPointExtension>
            <ns3:hr>119</ns3:hr>
            <ns3:cad>40</ns3:cad>
          </ns3:TrackPointExtension>
        </extensions>
      </trkpt>
      <trkpt lat="37.98773425631225109100341796875" lon="-107.733127176761627197265625">
        <ele>3624.39990234375</ele>
        <time>2026-08-15T14:16:43.000Z</time>
        <extensions>
          <ns3:TrackPointExtension>
            <ns3:hr>118</ns3:hr>
            <ns3:cad>55</ns3:cad>
          </ns3:TrackPointExtension>
        </extensions>
      </trkpt>
      <trkpt lat="37.98774649389088153839111328125" lon="-107.733179815113544464111328125">
        <ele>3624.199951171875</ele>
        <time>2026-08-15T14:16:48.000Z</time>
        <extensions>
          <ns3:TrackPointExtension>
            <ns3:hr>117</ns3:hr>
            <ns3:cad>55</ns3:cad>
          </ns3:TrackPointExtension>
        </extensions>
      </trkpt>
      <trkpt lat="37.98776962794363498687744140625" lon="-107.73324360139667987823486328125">
        <ele>3625.60009765625</ele>
        <time>2026-08-15T14:16:54.000Z</time>
        <extensions>
          <ns3:TrackPointExtension>
            <ns3:hr>115</ns3:hr>
            <ns3:cad>47</ns3:cad>
          </ns3:TrackPointExtension>
        </extensions>
      </trkpt>
      <trkpt lat="37.9877780936658382415771484375" lon="-107.73328584618866443634033203125">
        <ele>3626</ele>
        <time>2026-08-15T14:16:58.000Z</time>
        <extensions>
          <ns3:TrackPointExtension>
            <ns3:hr>115</ns3:hr>
            <ns3:cad>0</ns3:cad>
          </ns3:TrackPointExtension>
        </extensions>
      </trkpt>
      <trkpt lat="37.98779167234897613525390625" lon="-107.73330914787948131561279296875">
        <ele>3626.39990234375</ele>
        <time>2026-08-15T14:17:00.000Z</time>
        <extensions>
          <ns3:TrackPointExtension>
            <ns3:hr>115</ns3:hr>
            <ns3:cad>0</ns3:cad>
          </ns3:TrackPointExtension>
        </extensions>
      </trkpt>
      <trkpt lat="37.98779695294797420501708984375" lon="-107.73333278484642505645751953125">
        <ele>3627</ele>
        <time>2026-08-15T14:17:02.000Z</time>
        <extensions>
          <ns3:TrackPointExtension>
            <ns3:hr>115</ns3:hr>
            <ns3:cad>0</ns3:cad>
          </ns3:TrackPointExtension>
        </extensions>
      </trkpt>
      <trkpt lat="37.98781388439238071441650390625" lon="-107.733376957476139068603515625">
        <ele>3627.39990234375</ele>
        <time>2026-08-15T14:17:07.000Z</time>
        <extensions>
          <ns3:TrackPointExtension>
            <ns3:hr>115</ns3:hr>
            <ns3:cad>48</ns3:cad>
          </ns3:TrackPointExtension>
        </extensions>
      </trkpt>
      <trkpt lat="37.98782209865748882293701171875" lon="-107.733394391834735870361328125">
        <ele>3628.199951171875</ele>
        <time>2026-08-15T14:17:10.000Z</time>
        <extensions>
          <ns3:TrackPointExtension>
            <ns3:hr>113</ns3:hr>
            <ns3:cad>46</ns3:cad>
          </ns3:TrackPointExtension>
        </extensions>
      </trkpt>
      <trkpt lat="37.9878406226634979248046875" lon="-107.73342733271420001983642578125">
        <ele>3629.199951171875</ele>
        <time>2026-08-15T14:17:14.000Z</time>
        <extensions>
          <ns3:TrackPointExtension>
            <ns3:hr>112</ns3:hr>
            <ns3:cad>46</ns3:cad>
          </ns3:TrackPointExtension>
        </extensions>
      </trkpt>
      <trkpt lat="37.98784397542476654052734375" lon="-107.733434624969959259033203125">
        <ele>3629.39990234375</ele>
        <time>2026-08-15T14:17:15.000Z</time>
        <extensions>
          <ns3:TrackPointExtension>
            <ns3:hr>111</ns3:hr>
            <ns3:cad>46</ns3:cad>
          </ns3:TrackPointExtension>
        </extensions>
      </trkpt>
      <trkpt lat="37.98786786384880542755126953125" lon="-107.73348818533122539520263671875">
        <ele>3630.39990234375</ele>
        <time>2026-08-15T14:17:21.000Z</time>
        <extensions>
          <ns3:TrackPointExtension>
            <ns3:hr>109</ns3:hr>
            <ns3:cad>0</ns3:cad>
          </ns3:TrackPointExtension>
        </extensions>
      </trkpt>
      <trkpt lat="37.987881191074848175048828125" lon="-107.7335434220731258392333984375">
        <ele>3631.39990234375</ele>
        <time>2026-08-15T14:17:26.000Z</time>
        <extensions>
          <ns3:TrackPointExtension>
            <ns3:hr>110</ns3:hr>
            <ns3:cad>45</ns3:cad>
          </ns3:TrackPointExtension>
        </extensions>
      </trkpt>
      <trkpt lat="37.98788580112159252166748046875" lon="-107.733554653823375701904296875">
        <ele>3631.60009765625</ele>
        <time>2026-08-15T14:17:27.000Z</time>
        <extensions>
          <ns3:TrackPointExtension>
            <ns3:hr>110</ns3:hr>
            <ns3:cad>45</ns3:cad>
          </ns3:TrackPointExtension>
        </extensions>
      </trkpt>
      <trkpt lat="37.9879065044224262237548828125" lon="-107.733591534197330474853515625">
        <ele>3632.199951171875</ele>
        <time>2026-08-15T14:17:32.000Z</time>
        <extensions>
          <ns3:TrackPointExtension>
            <ns3:hr>113</ns3:hr>
            <ns3:cad>47</ns3:cad>
          </ns3:TrackPointExtension>
        </extensions>
      </trkpt>
      <trkpt lat="37.98791212029755115509033203125" lon="-107.73360234685242176055908203125">
        <ele>3632.60009765625</ele>
        <time>2026-08-15T14:17:34.000Z</time>
        <extensions>
          <ns3:TrackPointExtension>
            <ns3:hr>114</ns3:hr>
            <ns3:cad>0</ns3:cad>
          </ns3:TrackPointExtension>
        </extensions>
      </trkpt>
      <trkpt lat="37.987925112247467041015625" lon="-107.73364073596894741058349609375">
        <ele>3633.800048828125</ele>
        <time>2026-08-15T14:17:40.000Z</time>
        <extensions>
          <ns3:TrackPointExtension>
            <ns3:hr>116</ns3:hr>
            <ns3:cad>0</ns3:cad>
          </ns3:TrackPointExtension>
        </extensions>
      </trkpt>
      <trkpt lat="37.9879209212958812713623046875" lon="-107.73368163965642452239990234375">
        <ele>3634.199951171875</ele>
        <time>2026-08-15T14:17:46.000Z</time>
        <extensions>
          <ns3:TrackPointExtension>
            <ns3:hr>117</ns3:hr>
            <ns3:cad>0</ns3:cad>
          </ns3:TrackPointExtension>
        </extensions>
      </trkpt>
      <trkpt lat="37.98792066983878612518310546875" lon="-107.733688764274120330810546875">
        <ele>3634.39990234375</ele>
        <time>2026-08-15T14:17:47.000Z</time>
        <extensions>
          <ns3:TrackPointExtension>
            <ns3:hr>116</ns3:hr>
            <ns3:cad>0</ns3:cad>
          </ns3:TrackPointExtension>
        </extensions>
      </trkpt>
      <trkpt lat="37.9879225976765155792236328125" lon="-107.73370494134724140167236328125">
        <ele>3634.800048828125</ele>
        <time>2026-08-15T14:17:49.000Z</time>
        <extensions>
          <ns3:TrackPointExtension>
            <ns3:hr>117</ns3:hr>
            <ns3:cad>0</ns3:cad>
          </ns3:TrackPointExtension>
        </extensions>
      </trkpt>
      <trkpt lat="37.98792402260005474090576171875" lon="-107.7337253093719482421875">
        <ele>3635.39990234375</ele>
        <time>2026-08-15T14:17:52.000Z</time>
        <extensions>
          <ns3:TrackPointExtension>
            <ns3:hr>116</ns3:hr>
            <ns3:cad>0</ns3:cad>
          </ns3:TrackPointExtension>
        </extensions>
      </trkpt>
      <trkpt lat="37.98792720772325992584228515625" lon="-107.7337378822267055511474609375">
        <ele>3635.800048828125</ele>
        <time>2026-08-15T14:17:54.000Z</time>
        <extensions>
          <ns3:TrackPointExtension>
            <ns3:hr>113</ns3:hr>
            <ns3:cad>43</ns3:cad>
          </ns3:TrackPointExtension>
        </extensions>
      </trkpt>
      <trkpt lat="37.98792452551424503326416015625" lon="-107.7337668836116790771484375">
        <ele>3636.39990234375</ele>
        <time>2026-08-15T14:17:58.000Z</time>
        <extensions>
          <ns3:TrackPointExtension>
            <ns3:hr>112</ns3:hr>
            <ns3:cad>43</ns3:cad>
          </ns3:TrackPointExtension>
        </extensions>
      </trkpt>
      <trkpt lat="37.987930811941623687744140625" lon="-107.733787000179290771484375">
        <ele>3637</ele>
        <time>2026-08-15T14:18:00.000Z</time>
        <extensions>
          <ns3:TrackPointExtension>
            <ns3:hr>111</ns3:hr>
            <ns3:cad>43</ns3:cad>
          </ns3:TrackPointExtension>
        </extensions>
      </trkpt>
      <trkpt lat="37.987930811941623687744140625" lon="-107.73383134044706821441650390625">
        <ele>3638</ele>
        <time>2026-08-15T14:18:05.000Z</time>
        <extensions>
          <ns3:TrackPointExtension>
            <ns3:hr>111</ns3:hr>
            <ns3:cad>0</ns3:cad>
          </ns3:TrackPointExtension>
        </extensions>
      </trkpt>
      <trkpt lat="37.98792972229421138763427734375" lon="-107.73383419029414653778076171875">
        <ele>3638.199951171875</ele>
        <time>2026-08-15T14:18:06.000Z</time>
        <extensions>
          <ns3:TrackPointExtension>
            <ns3:hr>112</ns3:hr>
            <ns3:cad>0</ns3:cad>
          </ns3:TrackPointExtension>
        </extensions>
      </trkpt>
      <trkpt lat="37.98793290741741657257080078125" lon="-107.73386855609714984893798828125">
        <ele>3639</ele>
        <time>2026-08-15T14:18:10.000Z</time>
        <extensions>
          <ns3:TrackPointExtension>
            <ns3:hr>115</ns3:hr>
            <ns3:cad>44</ns3:cad>
          </ns3:TrackPointExtension>
        </extensions>
      </trkpt>
      <trkpt lat="37.9879383556544780731201171875" lon="-107.7338763512670993804931640625">
        <ele>3639.199951171875</ele>
        <time>2026-08-15T14:18:11.000Z</time>
        <extensions>
          <ns3:TrackPointExtension>
            <ns3:hr>116</ns3:hr>
            <ns3:cad>0</ns3:cad>
          </ns3:TrackPointExtension>
        </extensions>
      </trkpt>
      <trkpt lat="37.98793592490255832672119140625" lon="-107.7339068613946437835693359375">
        <ele>3640.199951171875</ele>
        <time>2026-08-15T14:18:15.000Z</time>
        <extensions>
          <ns3:TrackPointExtension>
            <ns3:hr>120</ns3:hr>
            <ns3:cad>0</ns3:cad>
          </ns3:TrackPointExtension>
        </extensions>
      </trkpt>
      <trkpt lat="37.98793709836900234222412109375" lon="-107.7339142374694347381591796875">
        <ele>3640.39990234375</ele>
        <time>2026-08-15T14:18:16.000Z</time>
        <extensions>
          <ns3:TrackPointExtension>
            <ns3:hr>124</ns3:hr>
            <ns3:cad>0</ns3:cad>
          </ns3:TrackPointExtension>
        </extensions>
      </trkpt>
      <trkpt lat="37.98793827183544635772705078125" lon="-107.73392689414322376251220703125">
        <ele>3640.60009765625</ele>
        <time>2026-08-15T14:18:17.000Z</time>
        <extensions>
          <ns3:TrackPointExtension>
            <ns3:hr>127</ns3:hr>
            <ns3:cad>0</ns3:cad>
          </ns3:TrackPointExtension>
        </extensions>
      </trkpt>
      <trkpt lat="37.98793877474963665008544921875" lon="-107.7339330129325389862060546875">
        <ele>3640.800048828125</ele>
        <time>2026-08-15T14:18:18.000Z</time>
        <extensions>
          <ns3:TrackPointExtension>
            <ns3:hr>127</ns3:hr>
            <ns3:cad>0</ns3:cad>
          </ns3:TrackPointExtension>
        </extensions>
      </trkpt>
      <trkpt lat="37.987940199673175811767578125" lon="-107.73395572789013385772705078125">
        <ele>3641.199951171875</ele>
        <time>2026-08-15T14:18:21.000Z</time>
        <extensions>
          <ns3:TrackPointExtension>
            <ns3:hr>127</ns3:hr>
            <ns3:cad>40</ns3:cad>
          </ns3:TrackPointExtension>
        </extensions>
      </trkpt>
      <trkpt lat="37.9879299737513065338134765625" lon="-107.73396394215524196624755859375">
        <ele>3641.60009765625</ele>
        <time>2026-08-15T14:18:24.000Z</time>
        <extensions>
          <ns3:TrackPointExtension>
            <ns3:hr>127</ns3:hr>
            <ns3:cad>0</ns3:cad>
          </ns3:TrackPointExtension>
        </extensions>
      </trkpt>
      <trkpt lat="37.9879249446094036102294921875" lon="-107.73399210534989833831787109375">
        <ele>3642.199951171875</ele>
        <time>2026-08-15T14:18:27.000Z</time>
        <extensions>
          <ns3:TrackPointExtension>
            <ns3:hr>126</ns3:hr>
            <ns3:cad>0</ns3:cad>
          </ns3:TrackPointExtension>
        </extensions>
      </trkpt>
      <trkpt lat="37.98791849054396152496337890625" lon="-107.73400937207043170928955078125">
        <ele>3642.60009765625</ele>
        <time>2026-08-15T14:18:29.000Z</time>
        <extensions>
          <ns3:TrackPointExtension>
            <ns3:hr>126</ns3:hr>
            <ns3:cad>0</ns3:cad>
          </ns3:TrackPointExtension>
        </extensions>
      </trkpt>
      <trkpt lat="37.9879145510494709014892578125" lon="-107.73405849002301692962646484375">
        <ele>3642.60009765625</ele>
        <time>2026-08-15T14:18:35.000Z</time>
        <extensions>
          <ns3:TrackPointExtension>
            <ns3:hr>125</ns3:hr>
            <ns3:cad>0</ns3:cad>
          </ns3:TrackPointExtension>
        </extensions>
      </trkpt>
      <trkpt lat="37.9879155568778514862060546875" lon="-107.73406871594488620758056640625">
        <ele>3642.39990234375</ele>
        <time>2026-08-15T14:18:36.000Z</time>
        <extensions>
          <ns3:TrackPointExtension>
            <ns3:hr>125</ns3:hr>
            <ns3:cad>0</ns3:cad>
          </ns3:TrackPointExtension>
        </extensions>
      </trkpt>
      <trkpt lat="37.9879266209900379180908203125" lon="-107.73411221802234649658203125">
        <ele>3641.60009765625</ele>
        <time>2026-08-15T14:18:42.000Z</time>
        <extensions>
          <ns3:TrackPointExtension>
            <ns3:hr>126</ns3:hr>
            <ns3:cad>49</ns3:cad>
          </ns3:TrackPointExtension>
        </extensions>
      </trkpt>
      <trkpt lat="37.98793944530189037322998046875" lon="-107.7341154031455516815185546875">
        <ele>3641.60009765625</ele>
        <time>2026-08-15T14:18:48.000Z</time>
        <extensions>
          <ns3:TrackPointExtension>
            <ns3:hr>124</ns3:hr>
            <ns3:cad>0</ns3:cad>
          </ns3:TrackPointExtension>
        </extensions>
      </trkpt>
      <trkpt lat="37.98793944530189037322998046875" lon="-107.7341154031455516815185546875">
        <ele>3641.39990234375</ele>
        <time>2026-08-15T14:18:51.000Z</time>
        <extensions>
          <ns3:TrackPointExtension>
            <ns3:hr>121</ns3:hr>
            <ns3:cad>0</ns3:cad>
          </ns3:TrackPointExtension>
        </extensions>
      </trkpt>
      <trkpt lat="37.98793944530189037322998046875" lon="-107.7341154031455516815185546875">
        <ele>3641.60009765625</ele>
        <time>2026-08-15T14:18:54.000Z</time>
        <extensions>
          <ns3:TrackPointExtension>
            <ns3:hr>117</ns3:hr>
            <ns3:cad>0</ns3:cad>
          </ns3:TrackPointExtension>
        </extensions>
      </trkpt>
      <trkpt lat="37.98793944530189037322998046875" lon="-107.7341154031455516815185546875">
        <ele>3641.60009765625</ele>
        <time>2026-08-15T14:18:57.000Z</time>
        <extensions>
          <ns3:TrackPointExtension>
            <ns3:hr>114</ns3:hr>
            <ns3:cad>0</ns3:cad>
          </ns3:TrackPointExtension>
        </extensions>
      </trkpt>
      <trkpt lat="37.98793944530189037322998046875" lon="-107.7341154031455516815185546875">
        <ele>3641.800048828125</ele>
        <time>2026-08-15T14:19:03.000Z</time>
        <extensions>
          <ns3:TrackPointExtension>
            <ns3:hr>111</ns3:hr>
            <ns3:cad>0</ns3:cad>
          </ns3:TrackPointExtension>
        </extensions>
      </trkpt>
      <trkpt lat="37.98793944530189037322998046875" lon="-107.7341154031455516815185546875">
        <ele>3642.199951171875</ele>
        <time>2026-08-15T14:19:09.000Z</time>
        <extensions>
          <ns3:TrackPointExtension>
            <ns3:hr>108</ns3:hr>
            <ns3:cad>0</ns3:cad>
          </ns3:TrackPointExtension>
        </extensions>
      </trkpt>
      <trkpt lat="37.9879329912364482879638671875" lon="-107.73412336595356464385986328125">
        <ele>3642.800048828125</ele>
        <time>2026-08-15T14:19:13.000Z</time>
        <extensions>
          <ns3:TrackPointExtension>
            <ns3:hr>106</ns3:hr>
            <ns3:cad>0</ns3:cad>
          </ns3:TrackPointExtension>
        </extensions>
      </trkpt>
      <trkpt lat="37.9879219271242618560791015625" lon="-107.73414574563503265380859375">
        <ele>3643.199951171875</ele>
        <time>2026-08-15T14:19:18.000Z</time>
        <extensions>
          <ns3:TrackPointExtension>
            <ns3:hr>105</ns3:hr>
            <ns3:cad>0</ns3:cad>
          </ns3:TrackPointExtension>
        </extensions>
      </trkpt>
      <trkpt lat="37.9879210889339447021484375" lon="-107.73414650000631809234619140625">
        <ele>3643.39990234375</ele>
        <time>2026-08-15T14:19:19.000Z</time>
        <extensions>
          <ns3:TrackPointExtension>
            <ns3:hr>106</ns3:hr>
            <ns3:cad>0</ns3:cad>
          </ns3:TrackPointExtension>
        </extensions>
      </trkpt>
      <trkpt lat="37.9879018105566501617431640625" lon="-107.7341854758560657501220703125">
        <ele>3643.39990234375</ele>
        <time>2026-08-15T14:19:24.000Z</time>
        <extensions>
          <ns3:TrackPointExtension>
            <ns3:hr>103</ns3:hr>
            <ns3:cad>0</ns3:cad>
          </ns3:TrackPointExtension>
        </extensions>
      </trkpt>
      <trkpt lat="37.9879004694521427154541015625" lon="-107.7341985516250133514404296875">
        <ele>3643.39990234375</ele>
        <time>2026-08-15T14:19:25.000Z</time>
        <extensions>
          <ns3:TrackPointExtension>
            <ns3:hr>103</ns3:hr>
            <ns3:cad>0</ns3:cad>
          </ns3:TrackPointExtension>
        </extensions>
      </trkpt>
      <trkpt lat="37.9879282973706722259521484375" lon="-107.73422361351549625396728515625">
        <ele>3644.199951171875</ele>
        <time>2026-08-15T14:19:30.000Z</time>
        <extensions>
          <ns3:TrackPointExtension>
            <ns3:hr>103</ns3:hr>
            <ns3:cad>0</ns3:cad>
          </ns3:TrackPointExtension>
        </extensions>
      </trkpt>
      <trkpt lat="37.987935505807399749755859375" lon="-107.73423383943736553192138671875">
        <ele>3645.60009765625</ele>
        <time>2026-08-15T14:19:33.000Z</time>
        <extensions>
          <ns3:TrackPointExtension>
            <ns3:hr>103</ns3:hr>
            <ns3:cad>0</ns3:cad>
          </ns3:TrackPointExtension>
        </extensions>
      </trkpt>
      <trkpt lat="37.98793860711157321929931640625" lon="-107.73425663821399211883544921875">
        <ele>3646.800048828125</ele>
        <time>2026-08-15T14:19:36.000Z</time>
        <extensions>
          <ns3:TrackPointExtension>
            <ns3:hr>104</ns3:hr>
            <ns3:cad>0</ns3:cad>
          </ns3:TrackPointExtension>
        </extensions>
      </trkpt>
      <trkpt lat="37.98794045113027095794677734375" lon="-107.73425948806107044219970703125">
        <ele>3647</ele>
        <time>2026-08-15T14:19:37.000Z</time>
        <extensions>
          <ns3:TrackPointExtension>
            <ns3:hr>104</ns3:hr>
            <ns3:cad>0</ns3:cad>
          </ns3:TrackPointExtension>
        </extensions>
      </trkpt>
      <trkpt lat="37.987948246300220489501953125" lon="-107.734276838600635528564453125">
        <ele>3647.39990234375</ele>
        <time>2026-08-15T14:19:43.000Z</time>
        <extensions>
          <ns3:TrackPointExtension>
            <ns3:hr>105</ns3:hr>
            <ns3:cad>0</ns3:cad>
          </ns3:TrackPointExtension>
        </extensions>
      </trkpt>
      <trkpt lat="37.98794849775731563568115234375" lon="-107.734284885227680206298828125">
        <ele>3647.60009765625</ele>
        <time>2026-08-15T14:19:45.000Z</time>
        <extensions>
          <ns3:TrackPointExtension>
            <ns3:hr>106</ns3:hr>
            <ns3:cad>0</ns3:cad>
          </ns3:TrackPointExtension>
        </extensions>
      </trkpt>
      <trkpt lat="37.98795620910823345184326171875" lon="-107.7342964522540569305419921875">
        <ele>3648</ele>
        <time>2026-08-15T14:19:49.000Z</time>
        <extensions>
          <ns3:TrackPointExtension>
            <ns3:hr>106</ns3:hr>
            <ns3:cad>0</ns3:cad>
          </ns3:TrackPointExtension>
        </extensions>
      </trkpt>
      <trkpt lat="37.9879698716104030609130859375" lon="-107.7343071810901165008544921875">
        <ele>3648.199951171875</ele>
        <time>2026-08-15T14:19:51.000Z</time>
        <extensions>
          <ns3:TrackPointExtension>
            <ns3:hr>105</ns3:hr>
            <ns3:cad>0</ns3:cad>
          </ns3:TrackPointExtension>
        </extensions>
      </trkpt>
      <trkpt lat="37.98800918273627758026123046875" lon="-107.73433442227542400360107421875">
        <ele>3648.199951171875</ele>
        <time>2026-08-15T14:19:57.000Z</time>
        <extensions>
          <ns3:TrackPointExtension>
            <ns3:hr>105</ns3:hr>
            <ns3:cad>46</ns3:cad>
          </ns3:TrackPointExtension>
        </extensions>
      </trkpt>
      <trkpt lat="37.98801840282976627349853515625" lon="-107.7343423850834369659423828125">
        <ele>3648.199951171875</ele>
        <time>2026-08-15T14:19:58.000Z</time>
        <extensions>
          <ns3:TrackPointExtension>
            <ns3:hr>105</ns3:hr>
            <ns3:cad>46</ns3:cad>
          </ns3:TrackPointExtension>
        </extensions>
      </trkpt>
      <trkpt lat="37.98805452883243560791015625" lon="-107.73438043892383575439453125">
        <ele>3649</ele>
        <time>2026-08-15T14:20:03.000Z</time>
        <extensions>
          <ns3:TrackPointExtension>
            <ns3:hr>106</ns3:hr>
            <ns3:cad>45</ns3:cad>
          </ns3:TrackPointExtension>
        </extensions>
      </trkpt>
      <trkpt lat="37.98810021020472049713134765625" lon="-107.73440835066139698028564453125">
        <ele>3649.60009765625</ele>
        <time>2026-08-15T14:20:08.000Z</time>
        <extensions>
          <ns3:TrackPointExtension>
            <ns3:hr>106</ns3:hr>
            <ns3:cad>46</ns3:cad>
          </ns3:TrackPointExtension>
        </extensions>
      </trkpt>
      <trkpt lat="37.98812803812325000762939453125" lon="-107.73442595265805721282958984375">
        <ele>3650</ele>
        <time>2026-08-15T14:20:11.000Z</time>
        <extensions>
          <ns3:TrackPointExtension>
            <ns3:hr>107</ns3:hr>
            <ns3:cad>46</ns3:cad>
          </ns3:TrackPointExtension>
        </extensions>
      </trkpt>
      <trkpt lat="37.98814572393894195556640625" lon="-107.734434418380260467529296875">
        <ele>3650.199951171875</ele>
        <time>2026-08-15T14:20:13.000Z</time>
        <extensions>
          <ns3:TrackPointExtension>
            <ns3:hr>111</ns3:hr>
            <ns3:cad>47</ns3:cad>
          </ns3:TrackPointExtension>
        </extensions>
      </trkpt>
      <trkpt lat="37.988154105842113494873046875" lon="-107.7344429679214954376220703125">
        <ele>3650.39990234375</ele>
        <time>2026-08-15T14:20:14.000Z</time>
        <extensions>
          <ns3:TrackPointExtension>
            <ns3:hr>116</ns3:hr>
            <ns3:cad>47</ns3:cad>
          </ns3:TrackPointExtension>
        </extensions>
      </trkpt>
      <trkpt lat="37.98817195929586887359619140625" lon="-107.7344577200710773468017578125">
        <ele>3650.199951171875</ele>
        <time>2026-08-15T14:20:16.000Z</time>
        <extensions>
          <ns3:TrackPointExtension>
            <ns3:hr>119</ns3:hr>
            <ns3:cad>47</ns3:cad>
          </ns3:TrackPointExtension>
        </extensions>
      </trkpt>
      <trkpt lat="37.988182269036769866943359375" lon="-107.73446434177458286285400390625">
        <ele>3650.199951171875</ele>
        <time>2026-08-15T14:20:17.000Z</time>
        <extensions>
          <ns3:TrackPointExtension>
            <ns3:hr>119</ns3:hr>
            <ns3:cad>47</ns3:cad>
          </ns3:TrackPointExtension>
        </extensions>
      </trkpt>
      <trkpt lat="37.9882335662841796875" lon="-107.73446752689778804779052734375">
        <ele>3650.60009765625</ele>
        <time>2026-08-15T14:20:23.000Z</time>
        <extensions>
          <ns3:TrackPointExtension>
            <ns3:hr>121</ns3:hr>
            <ns3:cad>0</ns3:cad>
          </ns3:TrackPointExtension>
        </extensions>
      </trkpt>
      <trkpt lat="37.988240607082843780517578125" lon="-107.734467945992946624755859375">
        <ele>3650.800048828125</ele>
        <time>2026-08-15T14:20:24.000Z</time>
        <extensions>
          <ns3:TrackPointExtension>
            <ns3:hr>121</ns3:hr>
            <ns3:cad>0</ns3:cad>
          </ns3:TrackPointExtension>
        </extensions>
      </trkpt>
      <trkpt lat="37.9882494919002056121826171875" lon="-107.73448797874152660369873046875">
        <ele>3651.199951171875</ele>
        <time>2026-08-15T14:20:28.000Z</time>
        <extensions>
          <ns3:TrackPointExtension>
            <ns3:hr>122</ns3:hr>
            <ns3:cad>46</ns3:cad>
          </ns3:TrackPointExtension>
        </extensions>
      </trkpt>
      <trkpt lat="37.98825460486114025115966796875" lon="-107.7344959415495395660400390625">
        <ele>3651.60009765625</ele>
        <time>2026-08-15T14:20:30.000Z</time>
        <extensions>
          <ns3:TrackPointExtension>
            <ns3:hr>121</ns3:hr>
            <ns3:cad>43</ns3:cad>
          </ns3:TrackPointExtension>
        </extensions>
      </trkpt>
      <trkpt lat="37.98826131038367748260498046875" lon="-107.73449887521564960479736328125">
        <ele>3652.199951171875</ele>
        <time>2026-08-15T14:20:32.000Z</time>
        <extensions>
          <ns3:TrackPointExtension>
            <ns3:hr>120</ns3:hr>
            <ns3:cad>43</ns3:cad>
          </ns3:TrackPointExtension>
        </extensions>
      </trkpt>
      <trkpt lat="37.988280169665813446044921875" lon="-107.73450088687241077423095703125">
        <ele>3653.199951171875</ele>
        <time>2026-08-15T14:20:36.000Z</time>
        <extensions>
          <ns3:TrackPointExtension>
            <ns3:hr>117</ns3:hr>
            <ns3:cad>79</ns3:cad>
          </ns3:TrackPointExtension>
        </extensions>
      </trkpt>
      <trkpt lat="37.98828226514160633087158203125" lon="-107.7345086820423603057861328125">
        <ele>3653.39990234375</ele>
        <time>2026-08-15T14:20:37.000Z</time>
        <extensions>
          <ns3:TrackPointExtension>
            <ns3:hr>118</ns3:hr>
            <ns3:cad>0</ns3:cad>
          </ns3:TrackPointExtension>
        </extensions>
      </trkpt>
      <trkpt lat="37.9882843606173992156982421875" lon="-107.73451278917491436004638671875">
        <ele>3653.800048828125</ele>
        <time>2026-08-15T14:20:38.000Z</time>
        <extensions>
          <ns3:TrackPointExtension>
            <ns3:hr>118</ns3:hr>
            <ns3:cad>0</ns3:cad>
          </ns3:TrackPointExtension>
        </extensions>
      </trkpt>
      <trkpt lat="37.98829592764377593994140625" lon="-107.73451580666005611419677734375">
        <ele>3654.60009765625</ele>
        <time>2026-08-15T14:20:41.000Z</time>
        <extensions>
          <ns3:TrackPointExtension>
            <ns3:hr>118</ns3:hr>
            <ns3:cad>79</ns3:cad>
          </ns3:TrackPointExtension>
        </extensions>
      </trkpt>
      <trkpt lat="37.98830254934728145599365234375" lon="-107.73452267982065677642822265625">
        <ele>3655.199951171875</ele>
        <time>2026-08-15T14:20:45.000Z</time>
        <extensions>
          <ns3:TrackPointExtension>
            <ns3:hr>116</ns3:hr>
            <ns3:cad>0</ns3:cad>
          </ns3:TrackPointExtension>
        </extensions>
      </trkpt>
      <trkpt lat="37.98830531537532806396484375" lon="-107.7345351688563823699951171875">
        <ele>3655.60009765625</ele>
        <time>2026-08-15T14:20:47.000Z</time>
        <extensions>
          <ns3:TrackPointExtension>
            <ns3:hr>115</ns3:hr>
            <ns3:cad>0</ns3:cad>
          </ns3:TrackPointExtension>
        </extensions>
      </trkpt>
      <trkpt lat="37.9883262701332569122314453125" lon="-107.73459325544536113739013671875">
        <ele>3656.199951171875</ele>
        <time>2026-08-15T14:20:53.000Z</time>
        <extensions>
          <ns3:TrackPointExtension>
            <ns3:hr>116</ns3:hr>
            <ns3:cad>76</ns3:cad>
          </ns3:TrackPointExtension>
        </extensions>
      </trkpt>
      <trkpt lat="37.98834797926247119903564453125" lon="-107.73463650606572628021240234375">
        <ele>3656.60009765625</ele>
        <time>2026-08-15T14:20:58.000Z</time>
        <extensions>
          <ns3:TrackPointExtension>
            <ns3:hr>117</ns3:hr>
            <ns3:cad>43</ns3:cad>
          </ns3:TrackPointExtension>
        </extensions>
      </trkpt>
      <trkpt lat="37.988354600965976715087890625" lon="-107.7346458099782466888427734375">
        <ele>3656.60009765625</ele>
        <time>2026-08-15T14:20:59.000Z</time>
        <extensions>
          <ns3:TrackPointExtension>
            <ns3:hr>117</ns3:hr>
            <ns3:cad>43</ns3:cad>
          </ns3:TrackPointExtension>
        </extensions>
      </trkpt>
      <trkpt lat="37.98839475028216838836669921875" lon="-107.73470523767173290252685546875">
        <ele>3657</ele>
        <time>2026-08-15T14:21:05.000Z</time>
        <extensions>
          <ns3:TrackPointExtension>
            <ns3:hr>117</ns3:hr>
            <ns3:cad>48</ns3:cad>
          </ns3:TrackPointExtension>
        </extensions>
      </trkpt>
      <trkpt lat="37.98840028233826160430908203125" lon="-107.7347148768603801727294921875">
        <ele>3657</ele>
        <time>2026-08-15T14:21:06.000Z</time>
        <extensions>
          <ns3:TrackPointExtension>
            <ns3:hr>117</ns3:hr>
            <ns3:cad>50</ns3:cad>
          </ns3:TrackPointExtension>
        </extensions>
      </trkpt>
      <trkpt lat="37.98843003809452056884765625" lon="-107.73477204144001007080078125">
        <ele>3657</ele>
        <time>2026-08-15T14:21:12.000Z</time>
        <extensions>
          <ns3:TrackPointExtension>
            <ns3:hr>115</ns3:hr>
            <ns3:cad>50</ns3:cad>
          </ns3:TrackPointExtension>
        </extensions>
      </trkpt>
      <trkpt lat="37.9884432815015316009521484375" lon="-107.73479224182665348052978515625">
        <ele>3657.199951171875</ele>
        <time>2026-08-15T14:21:14.000Z</time>
        <extensions>
          <ns3:TrackPointExtension>
            <ns3:hr>114</ns3:hr>
            <ns3:cad>48</ns3:cad>
          </ns3:TrackPointExtension>
        </extensions>
      </trkpt>
      <trkpt lat="37.9884694330394268035888671875" lon="-107.734847478568553924560546875">
        <ele>3657.60009765625</ele>
        <time>2026-08-15T14:21:19.000Z</time>
        <extensions>
          <ns3:TrackPointExtension>
            <ns3:hr>111</ns3:hr>
            <ns3:cad>51</ns3:cad>
          </ns3:TrackPointExtension>
        </extensions>
      </trkpt>
      <trkpt lat="37.98848058097064495086669921875" lon="-107.7348670922219753265380859375">
        <ele>3657.60009765625</ele>
        <time>2026-08-15T14:21:21.000Z</time>
        <extensions>
          <ns3:TrackPointExtension>
            <ns3:hr>111</ns3:hr>
            <ns3:cad>48</ns3:cad>
          </ns3:TrackPointExtension>
        </extensions>
      </trkpt>
      <trkpt lat="37.988516874611377716064453125" lon="-107.734925933182239532470703125">
        <ele>3658.199951171875</ele>
        <time>2026-08-15T14:21:27.000Z</time>
        <extensions>
          <ns3:TrackPointExtension>
            <ns3:hr>113</ns3:hr>
            <ns3:cad>49</ns3:cad>
          </ns3:TrackPointExtension>
        </extensions>
      </trkpt>
      <trkpt lat="37.9885250888764858245849609375" lon="-107.734948061406612396240234375">
        <ele>3658.39990234375</ele>
        <time>2026-08-15T14:21:29.000Z</time>
        <extensions>
          <ns3:TrackPointExtension>
            <ns3:hr>114</ns3:hr>
            <ns3:cad>49</ns3:cad>
          </ns3:TrackPointExtension>
        </extensions>
      </trkpt>
      <trkpt lat="37.98853975720703601837158203125" lon="-107.7349991910159587860107421875">
        <ele>3658.60009765625</ele>
        <time>2026-08-15T14:21:33.000Z</time>
        <extensions>
          <ns3:TrackPointExtension>
            <ns3:hr>115</ns3:hr>
            <ns3:cad>51</ns3:cad>
          </ns3:TrackPointExtension>
        </extensions>
      </trkpt>
      <trkpt lat="37.9885505698621273040771484375" lon="-107.73503565229475498199462890625">
        <ele>3658.60009765625</ele>
        <time>2026-08-15T14:21:36.000Z</time>
        <extensions>
          <ns3:TrackPointExtension>
            <ns3:hr>115</ns3:hr>
            <ns3:cad>46</ns3:cad>
          </ns3:TrackPointExtension>
        </extensions>
      </trkpt>
      <trkpt lat="37.988551072776317596435546875" lon="-107.7351213991641998291015625">
        <ele>3658.60009765625</ele>
        <time>2026-08-15T14:21:42.000Z</time>
        <extensions>
          <ns3:TrackPointExtension>
            <ns3:hr>114</ns3:hr>
            <ns3:cad>50</ns3:cad>
          </ns3:TrackPointExtension>
        </extensions>
      </trkpt>
      <trkpt lat="37.98854780383408069610595703125" lon="-107.73514646105468273162841796875">
        <ele>3658.60009765625</ele>
        <time>2026-08-15T14:21:44.000Z</time>
        <extensions>
          <ns3:TrackPointExtension>
            <ns3:hr>113</ns3:hr>
            <ns3:cad>50</ns3:cad>
          </ns3:TrackPointExtension>
        </extensions>
      </trkpt>
      <trkpt lat="37.9885408468544483184814453125" lon="-107.73522592149674892425537109375">
        <ele>3658.60009765625</ele>
        <time>2026-08-15T14:21:50.000Z</time>
        <extensions>
          <ns3:TrackPointExtension>
            <ns3:hr>111</ns3:hr>
            <ns3:cad>52</ns3:cad>
          </ns3:TrackPointExtension>
        </extensions>
      </trkpt>
      <trkpt lat="37.98854059539735317230224609375" lon="-107.7352555096149444580078125">
        <ele>3658.39990234375</ele>
        <time>2026-08-15T14:21:52.000Z</time>
        <extensions>
          <ns3:TrackPointExtension>
            <ns3:hr>111</ns3:hr>
            <ns3:cad>52</ns3:cad>
          </ns3:TrackPointExtension>
        </extensions>
      </trkpt>
      <trkpt lat="37.9885433614253997802734375" lon="-107.7353304438292980194091796875">
        <ele>3657.800048828125</ele>
        <time>2026-08-15T14:21:58.000Z</time>
        <extensions>
          <ns3:TrackPointExtension>
            <ns3:hr>109</ns3:hr>
            <ns3:cad>48</ns3:cad>
          </ns3:TrackPointExtension>
        </extensions>
      </trkpt>
      <trkpt lat="37.98854327760636806488037109375" lon="-107.73534066975116729736328125">
        <ele>3658</ele>
        <time>2026-08-15T14:22:00.000Z</time>
        <extensions>
          <ns3:TrackPointExtension>
            <ns3:hr>109</ns3:hr>
            <ns3:cad>0</ns3:cad>
          </ns3:TrackPointExtension>
        </extensions>
      </trkpt>
      <trkpt lat="37.9885433614253997802734375" lon="-107.73534041829407215118408203125">
        <ele>3658.39990234375</ele>
        <time>2026-08-15T14:22:03.000Z</time>
        <extensions>
          <ns3:TrackPointExtension>
            <ns3:hr>112</ns3:hr>
            <ns3:cad>0</ns3:cad>
          </ns3:TrackPointExtension>
        </extensions>
      </trkpt>
      <trkpt lat="37.9885462112724781036376953125" lon="-107.73534477688372135162353515625">
        <ele>3658.199951171875</ele>
        <time>2026-08-15T14:22:09.000Z</time>
        <extensions>
          <ns3:TrackPointExtension>
            <ns3:hr>110</ns3:hr>
            <ns3:cad>0</ns3:cad>
          </ns3:TrackPointExtension>
        </extensions>
      </trkpt>
      <trkpt lat="37.9885433614253997802734375" lon="-107.73534041829407215118408203125">
        <ele>3658</ele>
        <time>2026-08-15T14:22:11.000Z</time>
        <extensions>
          <ns3:TrackPointExtension>
            <ns3:hr>110</ns3:hr>
            <ns3:cad>0</ns3:cad>
          </ns3:TrackPointExtension>
        </extensions>
      </trkpt>
      <trkpt lat="37.9885519109666347503662109375" lon="-107.7353964932262897491455078125">
        <ele>3657.60009765625</ele>
        <time>2026-08-15T14:22:17.000Z</time>
        <extensions>
          <ns3:TrackPointExtension>
            <ns3:hr>111</ns3:hr>
            <ns3:cad>52</ns3:cad>
          </ns3:TrackPointExtension>
        </extensions>
      </trkpt>
      <trkpt lat="37.9885540902614593505859375" lon="-107.73540780879557132720947265625">
        <ele>3657.39990234375</ele>
        <time>2026-08-15T14:22:18.000Z</time>
        <extensions>
          <ns3:TrackPointExtension>
            <ns3:hr>111</ns3:hr>
            <ns3:cad>52</ns3:cad>
          </ns3:TrackPointExtension>
        </extensions>
      </trkpt>
      <trkpt lat="37.98855744302272796630859375" lon="-107.73542960174381732940673828125">
        <ele>3657</ele>
        <time>2026-08-15T14:22:20.000Z</time>
        <extensions>
          <ns3:TrackPointExtension>
            <ns3:hr>108</ns3:hr>
            <ns3:cad>52</ns3:cad>
          </ns3:TrackPointExtension>
        </extensions>
      </trkpt>
      <trkpt lat="37.98856255598366260528564453125" lon="-107.73544133640825748443603515625">
        <ele>3656.800048828125</ele>
        <time>2026-08-15T14:22:21.000Z</time>
        <extensions>
          <ns3:TrackPointExtension>
            <ns3:hr>104</ns3:hr>
            <ns3:cad>54</ns3:cad>
          </ns3:TrackPointExtension>
        </extensions>
      </trkpt>
      <trkpt lat="37.9885686747729778289794921875" lon="-107.73545843549072742462158203125">
        <ele>3656.800048828125</ele>
        <time>2026-08-15T14:22:23.000Z</time>
        <extensions>
          <ns3:TrackPointExtension>
            <ns3:hr>100</ns3:hr>
            <ns3:cad>56</ns3:cad>
          </ns3:TrackPointExtension>
        </extensions>
      </trkpt>
      <trkpt lat="37.988575212657451629638671875" lon="-107.73546832613646984100341796875">
        <ele>3657.39990234375</ele>
        <time>2026-08-15T14:22:25.000Z</time>
        <extensions>
          <ns3:TrackPointExtension>
            <ns3:hr>98</ns3:hr>
            <ns3:cad>52</ns3:cad>
          </ns3:TrackPointExtension>
        </extensions>
      </trkpt>
      <trkpt lat="37.98858292400836944580078125" lon="-107.73549967445433139801025390625">
        <ele>3658.60009765625</ele>
        <time>2026-08-15T14:22:29.000Z</time>
        <extensions>
          <ns3:TrackPointExtension>
            <ns3:hr>98</ns3:hr>
            <ns3:cad>52</ns3:cad>
          </ns3:TrackPointExtension>
        </extensions>
      </trkpt>
      <trkpt lat="37.98860178329050540924072265625" lon="-107.7355128340423107147216796875">
        <ele>3659.800048828125</ele>
        <time>2026-08-15T14:22:32.000Z</time>
        <extensions>
          <ns3:TrackPointExtension>
            <ns3:hr>98</ns3:hr>
            <ns3:cad>0</ns3:cad>
          </ns3:TrackPointExtension>
        </extensions>
      </trkpt>
      <trkpt lat="37.9886206425726413726806640625" lon="-107.7355317771434783935546875">
        <ele>3660.800048828125</ele>
        <time>2026-08-15T14:22:37.000Z</time>
        <extensions>
          <ns3:TrackPointExtension>
            <ns3:hr>99</ns3:hr>
            <ns3:cad>41</ns3:cad>
          </ns3:TrackPointExtension>
        </extensions>
      </trkpt>
      <trkpt lat="37.98863380216062068939208984375" lon="-107.7355463616549968719482421875">
        <ele>3661.60009765625</ele>
        <time>2026-08-15T14:22:40.000Z</time>
        <extensions>
          <ns3:TrackPointExtension>
            <ns3:hr>98</ns3:hr>
            <ns3:cad>0</ns3:cad>
          </ns3:TrackPointExtension>
        </extensions>
      </trkpt>
      <trkpt lat="37.9886407591402530670166015625" lon="-107.73554694838821887969970703125">
        <ele>3661.800048828125</ele>
        <time>2026-08-15T14:22:41.000Z</time>
        <extensions>
          <ns3:TrackPointExtension>
            <ns3:hr>98</ns3:hr>
            <ns3:cad>0</ns3:cad>
          </ns3:TrackPointExtension>
        </extensions>
      </trkpt>
      <trkpt lat="37.98865676857531070709228515625" lon="-107.73554183542728424072265625">
        <ele>3662.60009765625</ele>
        <time>2026-08-15T14:22:44.000Z</time>
        <extensions>
          <ns3:TrackPointExtension>
            <ns3:hr>95</ns3:hr>
            <ns3:cad>0</ns3:cad>
          </ns3:TrackPointExtension>
        </extensions>
      </trkpt>
      <trkpt lat="37.9886667430400848388671875" lon="-107.73554074577987194061279296875">
        <ele>3663</ele>
        <time>2026-08-15T14:22:46.000Z</time>
        <extensions>
          <ns3:TrackPointExtension>
            <ns3:hr>95</ns3:hr>
            <ns3:cad>0</ns3:cad>
          </ns3:TrackPointExtension>
        </extensions>
      </trkpt>
      <trkpt lat="37.98868007026612758636474609375" lon="-107.73554242216050624847412109375">
        <ele>3663.199951171875</ele>
        <time>2026-08-15T14:22:47.000Z</time>
        <extensions>
          <ns3:TrackPointExtension>
            <ns3:hr>95</ns3:hr>
            <ns3:cad>0</ns3:cad>
          </ns3:TrackPointExtension>
        </extensions>
      </trkpt>
      <trkpt lat="37.98871058039367198944091796875" lon="-107.73556153289973735809326171875">
        <ele>3663.39990234375</ele>
        <time>2026-08-15T14:22:52.000Z</time>
        <extensions>
          <ns3:TrackPointExtension>
            <ns3:hr>95</ns3:hr>
            <ns3:cad>71</ns3:cad>
          </ns3:TrackPointExtension>
        </extensions>
      </trkpt>
      <trkpt lat="37.9887192137539386749267578125" lon="-107.73555885069072246551513671875">
        <ele>3664.199951171875</ele>
        <time>2026-08-15T14:22:55.000Z</time>
        <extensions>
          <ns3:TrackPointExtension>
            <ns3:hr>98</ns3:hr>
            <ns3:cad>0</ns3:cad>
          </ns3:TrackPointExtension>
        </extensions>
      </trkpt>
      <trkpt lat="37.98872767947614192962646484375" lon="-107.73555734194815158843994140625">
        <ele>3665</ele>
        <time>2026-08-15T14:22:57.000Z</time>
        <extensions>
          <ns3:TrackPointExtension>
            <ns3:hr>99</ns3:hr>
            <ns3:cad>0</ns3:cad>
          </ns3:TrackPointExtension>
        </extensions>
      </trkpt>
      <trkpt lat="37.9887269251048564910888671875" lon="-107.7355591021478176116943359375">
        <ele>3665.39990234375</ele>
        <time>2026-08-15T14:22:58.000Z</time>
        <extensions>
          <ns3:TrackPointExtension>
            <ns3:hr>102</ns3:hr>
            <ns3:cad>0</ns3:cad>
          </ns3:TrackPointExtension>
        </extensions>
      </trkpt>
      <trkpt lat="37.98874192871153354644775390625" lon="-107.7355611138045787811279296875">
        <ele>3665.800048828125</ele>
        <time>2026-08-15T14:23:00.000Z</time>
        <extensions>
          <ns3:TrackPointExtension>
            <ns3:hr>105</ns3:hr>
            <ns3:cad>0</ns3:cad>
          </ns3:TrackPointExtension>
        </extensions>
      </trkpt>
      <trkpt lat="37.9887497238814830780029296875" lon="-107.7355644665658473968505859375">
        <ele>3666</ele>
        <time>2026-08-15T14:23:02.000Z</time>
        <extensions>
          <ns3:TrackPointExtension>
            <ns3:hr>108</ns3:hr>
            <ns3:cad>0</ns3:cad>
          </ns3:TrackPointExtension>
        </extensions>
      </trkpt>
      <trkpt lat="37.98875190317630767822265625" lon="-107.73556471802294254302978515625">
        <ele>3666.199951171875</ele>
        <time>2026-08-15T14:23:03.000Z</time>
        <extensions>
          <ns3:TrackPointExtension>
            <ns3:hr>108</ns3:hr>
            <ns3:cad>0</ns3:cad>
          </ns3:TrackPointExtension>
        </extensions>
      </trkpt>
      <trkpt lat="37.98875458538532257080078125" lon="-107.7355654723942279815673828125">
        <ele>3666.39990234375</ele>
        <time>2026-08-15T14:23:04.000Z</time>
        <extensions>
          <ns3:TrackPointExtension>
            <ns3:hr>108</ns3:hr>
            <ns3:cad>0</ns3:cad>
          </ns3:TrackPointExtension>
        </extensions>
      </trkpt>
      <trkpt lat="37.98876129090785980224609375" lon="-107.7355748601257801055908203125">
        <ele>3667.199951171875</ele>
        <time>2026-08-15T14:23:09.000Z</time>
        <extensions>
          <ns3:TrackPointExtension>
            <ns3:hr>105</ns3:hr>
            <ns3:cad>0</ns3:cad>
          </ns3:TrackPointExtension>
        </extensions>
      </trkpt>
      <trkpt lat="37.9887695051729679107666015625" lon="-107.735579721629619598388671875">
        <ele>3667.800048828125</ele>
        <time>2026-08-15T14:23:11.000Z</time>
        <extensions>
          <ns3:TrackPointExtension>
            <ns3:hr>107</ns3:hr>
            <ns3:cad>0</ns3:cad>
          </ns3:TrackPointExtension>
        </extensions>
      </trkpt>
      <trkpt lat="37.9887778870761394500732421875" lon="-107.7355832420289516448974609375">
        <ele>3668</ele>
        <time>2026-08-15T14:23:12.000Z</time>
        <extensions>
          <ns3:TrackPointExtension>
            <ns3:hr>109</ns3:hr>
            <ns3:cad>0</ns3:cad>
          </ns3:TrackPointExtension>
        </extensions>
      </trkpt>
      <trkpt lat="37.98878408968448638916015625" lon="-107.73559053428471088409423828125">
        <ele>3668.39990234375</ele>
        <time>2026-08-15T14:23:15.000Z</time>
        <extensions>
          <ns3:TrackPointExtension>
            <ns3:hr>112</ns3:hr>
            <ns3:cad>0</ns3:cad>
          </ns3:TrackPointExtension>
        </extensions>
      </trkpt>
      <trkpt lat="37.98878367058932781219482421875" lon="-107.735591121017932891845703125">
        <ele>3668.39990234375</ele>
        <time>2026-08-15T14:23:20.000Z</time>
        <extensions>
          <ns3:TrackPointExtension>
            <ns3:hr>114</ns3:hr>
            <ns3:cad>0</ns3:cad>
          </ns3:TrackPointExtension>
        </extensions>
      </trkpt>
      <trkpt lat="37.98878584988415241241455078125" lon="-107.7356120757758617401123046875">
        <ele>3669</ele>
        <time>2026-08-15T14:23:24.000Z</time>
        <extensions>
          <ns3:TrackPointExtension>
            <ns3:hr>114</ns3:hr>
            <ns3:cad>0</ns3:cad>
          </ns3:TrackPointExtension>
        </extensions>
      </trkpt>
      <trkpt lat="37.9887902922928333282470703125" lon="-107.735615931451320648193359375">
        <ele>3669.199951171875</ele>
        <time>2026-08-15T14:23:25.000Z</time>
        <extensions>
          <ns3:TrackPointExtension>
            <ns3:hr>114</ns3:hr>
            <ns3:cad>0</ns3:cad>
          </ns3:TrackPointExtension>
        </extensions>
      </trkpt>
      <trkpt lat="37.988797836005687713623046875" lon="-107.73564451374113559722900390625">
        <ele>3670</ele>
        <time>2026-08-15T14:23:29.000Z</time>
        <extensions>
          <ns3:TrackPointExtension>
            <ns3:hr>113</ns3:hr>
            <ns3:cad>0</ns3:cad>
          </ns3:TrackPointExtension>
        </extensions>
      </trkpt>
      <trkpt lat="37.98880931921303272247314453125" lon="-107.73568340577185153961181640625">
        <ele>3670.39990234375</ele>
        <time>2026-08-15T14:23:32.000Z</time>
        <extensions>
          <ns3:TrackPointExtension>
            <ns3:hr>112</ns3:hr>
            <ns3:cad>70</ns3:cad>
          </ns3:TrackPointExtension>
        </extensions>
      </trkpt>
      <trkpt lat="37.98882507719099521636962890625" lon="-107.735715843737125396728515625">
        <ele>3671</ele>
        <time>2026-08-15T14:23:37.000Z</time>
        <extensions>
          <ns3:TrackPointExtension>
            <ns3:hr>112</ns3:hr>
            <ns3:cad>0</ns3:cad>
          </ns3:TrackPointExtension>
        </extensions>
      </trkpt>
      <trkpt lat="37.9888258315622806549072265625" lon="-107.735721878707408905029296875">
        <ele>3671.199951171875</ele>
        <time>2026-08-15T14:23:38.000Z</time>
        <extensions>
          <ns3:TrackPointExtension>
            <ns3:hr>113</ns3:hr>
            <ns3:cad>0</ns3:cad>
          </ns3:TrackPointExtension>
        </extensions>
      </trkpt>
      <trkpt lat="37.98883178271353244781494140625" lon="-107.73575641214847564697265625">
        <ele>3671.39990234375</ele>
        <time>2026-08-15T14:23:44.000Z</time>
        <extensions>
          <ns3:TrackPointExtension>
            <ns3:hr>114</ns3:hr>
            <ns3:cad>0</ns3:cad>
          </ns3:TrackPointExtension>
        </extensions>
      </trkpt>
      <trkpt lat="37.98884175717830657958984375" lon="-107.7357570827007293701171875">
        <ele>3671.60009765625</ele>
        <time>2026-08-15T14:23:45.000Z</time>
        <extensions>
          <ns3:TrackPointExtension>
            <ns3:hr>114</ns3:hr>
            <ns3:cad>0</ns3:cad>
          </ns3:TrackPointExtension>
        </extensions>
      </trkpt>
      <trkpt lat="37.98885659314692020416259765625" lon="-107.73576487787067890167236328125">
        <ele>3672.199951171875</ele>
        <time>2026-08-15T14:23:47.000Z</time>
        <extensions>
          <ns3:TrackPointExtension>
            <ns3:hr>114</ns3:hr>
            <ns3:cad>0</ns3:cad>
          </ns3:TrackPointExtension>
        </extensions>
      </trkpt>
      <trkpt lat="37.98887620680034160614013671875" lon="-107.7357726730406284332275390625">
        <ele>3673.199951171875</ele>
        <time>2026-08-15T14:23:51.000Z</time>
        <extensions>
          <ns3:TrackPointExtension>
            <ns3:hr>112</ns3:hr>
            <ns3:cad>0</ns3:cad>
          </ns3:TrackPointExtension>
        </extensions>
      </trkpt>
      <trkpt lat="37.98888324759900569915771484375" lon="-107.73577393032610416412353515625">
        <ele>3673.39990234375</ele>
        <time>2026-08-15T14:23:53.000Z</time>
        <extensions>
          <ns3:TrackPointExtension>
            <ns3:hr>112</ns3:hr>
            <ns3:cad>0</ns3:cad>
          </ns3:TrackPointExtension>
        </extensions>
      </trkpt>
      <trkpt lat="37.98891476355493068695068359375" lon="-107.73579790256917476654052734375">
        <ele>3674</ele>
        <time>2026-08-15T14:23:59.000Z</time>
        <extensions>
          <ns3:TrackPointExtension>
            <ns3:hr>114</ns3:hr>
            <ns3:cad>0</ns3:cad>
          </ns3:TrackPointExtension>
        </extensions>
      </trkpt>
      <trkpt lat="37.98892213962972164154052734375" lon="-107.7358098886907100677490234375">
        <ele>3674</ele>
        <time>2026-08-15T14:24:05.000Z</time>
        <extensions>
          <ns3:TrackPointExtension>
            <ns3:hr>117</ns3:hr>
            <ns3:cad>0</ns3:cad>
          </ns3:TrackPointExtension>
        </extensions>
      </trkpt>
      <trkpt lat="37.98892213962972164154052734375" lon="-107.7358098886907100677490234375">
        <ele>3673.800048828125</ele>
        <time>2026-08-15T14:24:06.000Z</time>
        <extensions>
          <ns3:TrackPointExtension>
            <ns3:hr>118</ns3:hr>
            <ns3:cad>0</ns3:cad>
          </ns3:TrackPointExtension>
        </extensions>
      </trkpt>
      <trkpt lat="37.98892213962972164154052734375" lon="-107.7358098886907100677490234375">
        <ele>3673.39990234375</ele>
        <time>2026-08-15T14:24:12.000Z</time>
        <extensions>
          <ns3:TrackPointExtension>
            <ns3:hr>118</ns3:hr>
            <ns3:cad>0</ns3:cad>
          </ns3:TrackPointExtension>
        </extensions>
      </trkpt>
      <trkpt lat="37.98893454484641551971435546875" lon="-107.735825143754482269287109375">
        <ele>3673.39990234375</ele>
        <time>2026-08-15T14:24:18.000Z</time>
        <extensions>
          <ns3:TrackPointExtension>
            <ns3:hr>116</ns3:hr>
            <ns3:cad>0</ns3:cad>
          </ns3:TrackPointExtension>
        </extensions>
      </trkpt>
      <trkpt lat="37.9889403283596038818359375" lon="-107.7358263172209262847900390625">
        <ele>3673.39990234375</ele>
        <time>2026-08-15T14:24:19.000Z</time>
        <extensions>
          <ns3:TrackPointExtension>
            <ns3:hr>117</ns3:hr>
            <ns3:cad>0</ns3:cad>
          </ns3:TrackPointExtension>
        </extensions>
      </trkpt>
      <trkpt lat="37.98895432613790035247802734375" lon="-107.73584400303661823272705078125">
        <ele>3673.60009765625</ele>
        <time>2026-08-15T14:24:21.000Z</time>
        <extensions>
          <ns3:TrackPointExtension>
            <ns3:hr>120</ns3:hr>
            <ns3:cad>0</ns3:cad>
          </ns3:TrackPointExtension>
        </extensions>
      </trkpt>
      <trkpt lat="37.98896119929850101470947265625" lon="-107.73585087619721889495849609375">
        <ele>3673.60009765625</ele>
        <time>2026-08-15T14:24:22.000Z</time>
        <extensions>
          <ns3:TrackPointExtension>
            <ns3:hr>123</ns3:hr>
            <ns3:cad>0</ns3:cad>
          </ns3:TrackPointExtension>
        </extensions>
      </trkpt>
      <trkpt lat="37.9889656417071819305419921875" lon="-107.735854648053646087646484375">
        <ele>3673.60009765625</ele>
        <time>2026-08-15T14:24:23.000Z</time>
        <extensions>
          <ns3:TrackPointExtension>
            <ns3:hr>127</ns3:hr>
            <ns3:cad>0</ns3:cad>
          </ns3:TrackPointExtension>
        </extensions>
      </trkpt>
      <trkpt lat="37.9889726825058460235595703125" lon="-107.73585959337651729583740234375">
        <ele>3673.60009765625</ele>
        <time>2026-08-15T14:24:24.000Z</time>
        <extensions>
          <ns3:TrackPointExtension>
            <ns3:hr>131</ns3:hr>
            <ns3:cad>0</ns3:cad>
          </ns3:TrackPointExtension>
        </extensions>
      </trkpt>
      <trkpt lat="37.98897695727646350860595703125" lon="-107.7358695678412914276123046875">
        <ele>3673.60009765625</ele>
        <time>2026-08-15T14:24:25.000Z</time>
        <extensions>
          <ns3:TrackPointExtension>
            <ns3:hr>134</ns3:hr>
            <ns3:cad>44</ns3:cad>
          </ns3:TrackPointExtension>
        </extensions>
      </trkpt>
      <trkpt lat="37.9890082217752933502197265625" lon="-107.73592681623995304107666015625">
        <ele>3673.800048828125</ele>
        <time>2026-08-15T14:24:31.000Z</time>
        <extensions>
          <ns3:TrackPointExtension>
            <ns3:hr>135</ns3:hr>
            <ns3:cad>0</ns3:cad>
          </ns3:TrackPointExtension>
        </extensions>
      </trkpt>
      <trkpt lat="37.989044599235057830810546875" lon="-107.73594693280756473541259765625">
        <ele>3673.199951171875</ele>
        <time>2026-08-15T14:24:37.000Z</time>
        <extensions>
          <ns3:TrackPointExtension>
            <ns3:hr>133</ns3:hr>
            <ns3:cad>0</ns3:cad>
          </ns3:TrackPointExtension>
        </extensions>
      </trkpt>
      <trkpt lat="37.98906161449849605560302734375" lon="-107.735956571996212005615234375">
        <ele>3672.39990234375</ele>
        <time>2026-08-15T14:24:43.000Z</time>
        <extensions>
          <ns3:TrackPointExtension>
            <ns3:hr>130</ns3:hr>
            <ns3:cad>41</ns3:cad>
          </ns3:TrackPointExtension>
        </extensions>
      </trkpt>
      <trkpt lat="37.98906362615525722503662109375" lon="-107.73595489561557769775390625">
        <ele>3671.800048828125</ele>
        <time>2026-08-15T14:24:46.000Z</time>
        <extensions>
          <ns3:TrackPointExtension>
            <ns3:hr>126</ns3:hr>
            <ns3:cad>0</ns3:cad>
          </ns3:TrackPointExtension>
        </extensions>
      </trkpt>
      <trkpt lat="37.98906362615525722503662109375" lon="-107.73595489561557769775390625">
        <ele>3672.60009765625</ele>
        <time>2026-08-15T14:24:52.000Z</time>
        <extensions>
          <ns3:TrackPointExtension>
            <ns3:hr>124</ns3:hr>
            <ns3:cad>0</ns3:cad>
          </ns3:TrackPointExtension>
        </extensions>
      </trkpt>
      <trkpt lat="37.98906362615525722503662109375" lon="-107.73595489561557769775390625">
        <ele>3672.60009765625</ele>
        <time>2026-08-15T14:24:53.000Z</time>
        <extensions>
          <ns3:TrackPointExtension>
            <ns3:hr>123</ns3:hr>
            <ns3:cad>0</ns3:cad>
          </ns3:TrackPointExtension>
        </extensions>
      </trkpt>
      <trkpt lat="37.98906362615525722503662109375" lon="-107.73595489561557769775390625">
        <ele>3672.60009765625</ele>
        <time>2026-08-15T14:24:54.000Z</time>
        <extensions>
          <ns3:TrackPointExtension>
            <ns3:hr>118</ns3:hr>
            <ns3:cad>0</ns3:cad>
          </ns3:TrackPointExtension>
        </extensions>
      </trkpt>
      <trkpt lat="37.98906362615525722503662109375" lon="-107.73595489561557769775390625">
        <ele>3672.60009765625</ele>
        <time>2026-08-15T14:24:55.000Z</time>
        <extensions>
          <ns3:TrackPointExtension>
            <ns3:hr>115</ns3:hr>
            <ns3:cad>0</ns3:cad>
          </ns3:TrackPointExtension>
        </extensions>
      </trkpt>
      <trkpt lat="37.98906362615525722503662109375" lon="-107.73595489561557769775390625">
        <ele>3672.39990234375</ele>
        <time>2026-08-15T14:25:00.000Z</time>
        <extensions>
          <ns3:TrackPointExtension>
            <ns3:hr>112</ns3:hr>
            <ns3:cad>0</ns3:cad>
          </ns3:TrackPointExtension>
        </extensions>
      </trkpt>
      <trkpt lat="37.98906362615525722503662109375" lon="-107.73595489561557769775390625">
        <ele>3672.60009765625</ele>
        <time>2026-08-15T14:25:06.000Z</time>
        <extensions>
          <ns3:TrackPointExtension>
            <ns3:hr>111</ns3:hr>
            <ns3:cad>0</ns3:cad>
          </ns3:TrackPointExtension>
        </extensions>
      </trkpt>
      <trkpt lat="37.98906479962170124053955078125" lon="-107.7359555661678314208984375">
        <ele>3672.60009765625</ele>
        <time>2026-08-15T14:25:07.000Z</time>
        <extensions>
          <ns3:TrackPointExtension>
            <ns3:hr>111</ns3:hr>
            <ns3:cad>0</ns3:cad>
          </ns3:TrackPointExtension>
        </extensions>
      </trkpt>
      <trkpt lat="37.98906362615525722503662109375" lon="-107.73595489561557769775390625">
        <ele>3672.39990234375</ele>
        <time>2026-08-15T14:25:11.000Z</time>
        <extensions>
          <ns3:TrackPointExtension>
            <ns3:hr>108</ns3:hr>
            <ns3:cad>0</ns3:cad>
          </ns3:TrackPointExtension>
        </extensions>
      </trkpt>
      <trkpt lat="37.98906362615525722503662109375" lon="-107.73595489561557769775390625">
        <ele>3672.39990234375</ele>
        <time>2026-08-15T14:25:15.000Z</time>
        <extensions>
          <ns3:TrackPointExtension>
            <ns3:hr>107</ns3:hr>
            <ns3:cad>0</ns3:cad>
          </ns3:TrackPointExtension>
        </extensions>
      </trkpt>
      <trkpt lat="37.98906580545008182525634765625" lon="-107.73595950566232204437255859375">
        <ele>3672.199951171875</ele>
        <time>2026-08-15T14:25:21.000Z</time>
        <extensions>
          <ns3:TrackPointExtension>
            <ns3:hr>109</ns3:hr>
            <ns3:cad>0</ns3:cad>
          </ns3:TrackPointExtension>
        </extensions>
      </trkpt>
      <trkpt lat="37.9890672303736209869384765625" lon="-107.73596671409904956817626953125">
        <ele>3672.39990234375</ele>
        <time>2026-08-15T14:25:22.000Z</time>
        <extensions>
          <ns3:TrackPointExtension>
            <ns3:hr>109</ns3:hr>
            <ns3:cad>0</ns3:cad>
          </ns3:TrackPointExtension>
        </extensions>
      </trkpt>
      <trkpt lat="37.9890663921833038330078125" lon="-107.73599688895046710968017578125">
        <ele>3673.60009765625</ele>
        <time>2026-08-15T14:25:25.000Z</time>
        <extensions>
          <ns3:TrackPointExtension>
            <ns3:hr>111</ns3:hr>
            <ns3:cad>0</ns3:cad>
          </ns3:TrackPointExtension>
        </extensions>
      </trkpt>
      <trkpt lat="37.9890719242393970489501953125" lon="-107.7360298298299312591552734375">
        <ele>3674.39990234375</ele>
        <time>2026-08-15T14:25:30.000Z</time>
        <extensions>
          <ns3:TrackPointExtension>
            <ns3:hr>111</ns3:hr>
            <ns3:cad>0</ns3:cad>
          </ns3:TrackPointExtension>
        </extensions>
      </trkpt>
      <trkpt lat="37.989070080220699310302734375" lon="-107.7360449172556400299072265625">
        <ele>3674.60009765625</ele>
        <time>2026-08-15T14:25:32.000Z</time>
        <extensions>
          <ns3:TrackPointExtension>
            <ns3:hr>110</ns3:hr>
            <ns3:cad>0</ns3:cad>
          </ns3:TrackPointExtension>
        </extensions>
      </trkpt>
      <trkpt lat="37.9890749417245388031005859375" lon="-107.73606277070939540863037109375">
        <ele>3675.39990234375</ele>
        <time>2026-08-15T14:25:34.000Z</time>
        <extensions>
          <ns3:TrackPointExtension>
            <ns3:hr>110</ns3:hr>
            <ns3:cad>0</ns3:cad>
          </ns3:TrackPointExtension>
        </extensions>
      </trkpt>
      <trkpt lat="37.9890819825232028961181640625" lon="-107.73606645874679088592529296875">
        <ele>3675.800048828125</ele>
        <time>2026-08-15T14:25:35.000Z</time>
        <extensions>
          <ns3:TrackPointExtension>
            <ns3:hr>111</ns3:hr>
            <ns3:cad>0</ns3:cad>
          </ns3:TrackPointExtension>
        </extensions>
      </trkpt>
      <trkpt lat="37.98909656703472137451171875" lon="-107.736081294715404510498046875">
        <ele>3676.800048828125</ele>
        <time>2026-08-15T14:25:39.000Z</time>
        <extensions>
          <ns3:TrackPointExtension>
            <ns3:hr>113</ns3:hr>
            <ns3:cad>0</ns3:cad>
          </ns3:TrackPointExtension>
        </extensions>
      </trkpt>
      <trkpt lat="37.98909681849181652069091796875" lon="-107.7360861562192440032958984375">
        <ele>3676.800048828125</ele>
        <time>2026-08-15T14:25:40.000Z</time>
        <extensions>
          <ns3:TrackPointExtension>
            <ns3:hr>114</ns3:hr>
            <ns3:cad>0</ns3:cad>
          </ns3:TrackPointExtension>
        </extensions>
      </trkpt>
      <trkpt lat="37.9890970699489116668701171875" lon="-107.73610451258718967437744140625">
        <ele>3677.199951171875</ele>
        <time>2026-08-15T14:25:44.000Z</time>
        <extensions>
          <ns3:TrackPointExtension>
            <ns3:hr>117</ns3:hr>
            <ns3:cad>0</ns3:cad>
          </ns3:TrackPointExtension>
        </extensions>
      </trkpt>
      <trkpt lat="37.98910469748079776763916015625" lon="-107.736129574477672576904296875">
        <ele>3677.800048828125</ele>
        <time>2026-08-15T14:25:47.000Z</time>
        <extensions>
          <ns3:TrackPointExtension>
            <ns3:hr>119</ns3:hr>
            <ns3:cad>0</ns3:cad>
          </ns3:TrackPointExtension>
        </extensions>
      </trkpt>
      <trkpt lat="37.98911458812654018402099609375" lon="-107.7361605875194072723388671875">
        <ele>3678.39990234375</ele>
        <time>2026-08-15T14:25:52.000Z</time>
        <extensions>
          <ns3:TrackPointExtension>
            <ns3:hr>120</ns3:hr>
            <ns3:cad>0</ns3:cad>
          </ns3:TrackPointExtension>
        </extensions>
      </trkpt>
      <trkpt lat="37.9891285859048366546630859375" lon="-107.7361957915127277374267578125">
        <ele>3678.800048828125</ele>
        <time>2026-08-15T14:25:58.000Z</time>
        <extensions>
          <ns3:TrackPointExtension>
            <ns3:hr>118</ns3:hr>
            <ns3:cad>0</ns3:cad>
          </ns3:TrackPointExtension>
        </extensions>
      </trkpt>
      <trkpt lat="37.98913017846643924713134765625" lon="-107.73620224557816982269287109375">
        <ele>3679</ele>
        <time>2026-08-15T14:25:59.000Z</time>
        <extensions>
          <ns3:TrackPointExtension>
            <ns3:hr>117</ns3:hr>
            <ns3:cad>0</ns3:cad>
          </ns3:TrackPointExtension>
        </extensions>
      </trkpt>
      <trkpt lat="37.9891259036958217620849609375" lon="-107.7362206019461154937744140625">
        <ele>3679.60009765625</ele>
        <time>2026-08-15T14:26:02.000Z</time>
        <extensions>
          <ns3:TrackPointExtension>
            <ns3:hr>120</ns3:hr>
            <ns3:cad>0</ns3:cad>
          </ns3:TrackPointExtension>
        </extensions>
      </trkpt>
      <trkpt lat="37.989126406610012054443359375" lon="-107.73622713983058929443359375">
        <ele>3680</ele>
        <time>2026-08-15T14:26:04.000Z</time>
        <extensions>
          <ns3:TrackPointExtension>
            <ns3:hr>122</ns3:hr>
            <ns3:cad>0</ns3:cad>
          </ns3:TrackPointExtension>
        </extensions>
      </trkpt>
      <trkpt lat="37.98912866972386837005615234375" lon="-107.73623057641088962554931640625">
        <ele>3680.39990234375</ele>
        <time>2026-08-15T14:26:05.000Z</time>
        <extensions>
          <ns3:TrackPointExtension>
            <ns3:hr>122</ns3:hr>
            <ns3:cad>0</ns3:cad>
          </ns3:TrackPointExtension>
        </extensions>
      </trkpt>
      <trkpt lat="37.98913788981735706329345703125" lon="-107.73626611568033695220947265625">
        <ele>3681</ele>
        <time>2026-08-15T14:26:11.000Z</time>
        <extensions>
          <ns3:TrackPointExtension>
            <ns3:hr>121</ns3:hr>
            <ns3:cad>0</ns3:cad>
          </ns3:TrackPointExtension>
        </extensions>
      </trkpt>
      <trkpt lat="37.98913872800767421722412109375" lon="-107.73626728914678096771240234375">
        <ele>3681.199951171875</ele>
        <time>2026-08-15T14:26:12.000Z</time>
        <extensions>
          <ns3:TrackPointExtension>
            <ns3:hr>120</ns3:hr>
            <ns3:cad>0</ns3:cad>
          </ns3:TrackPointExtension>
        </extensions>
      </trkpt>
      <trkpt lat="37.98915079794824123382568359375" lon="-107.736276090145111083984375">
        <ele>3681.800048828125</ele>
        <time>2026-08-15T14:26:14.000Z</time>
        <extensions>
          <ns3:TrackPointExtension>
            <ns3:hr>116</ns3:hr>
            <ns3:cad>0</ns3:cad>
          </ns3:TrackPointExtension>
        </extensions>
      </trkpt>
      <trkpt lat="37.9891644604504108428955078125" lon="-107.736284472048282623291015625">
        <ele>3682.199951171875</ele>
        <time>2026-08-15T14:26:16.000Z</time>
        <extensions>
          <ns3:TrackPointExtension>
            <ns3:hr>114</ns3:hr>
            <ns3:cad>0</ns3:cad>
          </ns3:TrackPointExtension>
        </extensions>
      </trkpt>
      <trkpt lat="37.98917041160166263580322265625" lon="-107.736289501190185546875">
        <ele>3682.39990234375</ele>
        <time>2026-08-15T14:26:17.000Z</time>
        <extensions>
          <ns3:TrackPointExtension>
            <ns3:hr>113</ns3:hr>
            <ns3:cad>0</ns3:cad>
          </ns3:TrackPointExtension>
        </extensions>
      </trkpt>
      <trkpt lat="37.9891999997198581695556640625" lon="-107.736293859779834747314453125">
        <ele>3682.60009765625</ele>
        <time>2026-08-15T14:26:23.000Z</time>
        <extensions>
          <ns3:TrackPointExtension>
            <ns3:hr>115</ns3:hr>
            <ns3:cad>0</ns3:cad>
          </ns3:TrackPointExtension>
        </extensions>
      </trkpt>
      <trkpt lat="37.98921483568847179412841796875" lon="-107.73627986200153827667236328125">
        <ele>3683.39990234375</ele>
        <time>2026-08-15T14:26:27.000Z</time>
        <extensions>
          <ns3:TrackPointExtension>
            <ns3:hr>116</ns3:hr>
            <ns3:cad>0</ns3:cad>
          </ns3:TrackPointExtension>
        </extensions>
      </trkpt>
      <trkpt lat="37.98922455869615077972412109375" lon="-107.7362774312496185302734375">
        <ele>3683.60009765625</ele>
        <time>2026-08-15T14:26:29.000Z</time>
        <extensions>
          <ns3:TrackPointExtension>
            <ns3:hr>116</ns3:hr>
            <ns3:cad>0</ns3:cad>
          </ns3:TrackPointExtension>
        </extensions>
      </trkpt>
      <trkpt lat="37.98923830501735210418701171875" lon="-107.73627885617315769195556640625">
        <ele>3684.39990234375</ele>
        <time>2026-08-15T14:26:35.000Z</time>
        <extensions>
          <ns3:TrackPointExtension>
            <ns3:hr>116</ns3:hr>
            <ns3:cad>0</ns3:cad>
          </ns3:TrackPointExtension>
        </extensions>
      </trkpt>
      <trkpt lat="37.98923964612185955047607421875" lon="-107.736277095973491668701171875">
        <ele>3684.60009765625</ele>
        <time>2026-08-15T14:26:36.000Z</time>
        <extensions>
          <ns3:TrackPointExtension>
            <ns3:hr>116</ns3:hr>
            <ns3:cad>0</ns3:cad>
          </ns3:TrackPointExtension>
        </extensions>
      </trkpt>
      <trkpt lat="37.98925003968179225921630859375" lon="-107.7362769283354282379150390625">
        <ele>3685.60009765625</ele>
        <time>2026-08-15T14:26:41.000Z</time>
        <extensions>
          <ns3:TrackPointExtension>
            <ns3:hr>116</ns3:hr>
            <ns3:cad>0</ns3:cad>
          </ns3:TrackPointExtension>
        </extensions>
      </trkpt>
      <trkpt lat="37.9892663843929767608642578125" lon="-107.73627181537449359893798828125">
        <ele>3686.199951171875</ele>
        <time>2026-08-15T14:26:44.000Z</time>
        <extensions>
          <ns3:TrackPointExtension>
            <ns3:hr>115</ns3:hr>
            <ns3:cad>0</ns3:cad>
          </ns3:TrackPointExtension>
        </extensions>
      </trkpt>
      <trkpt lat="37.98928029835224151611328125" lon="-107.73626200854778289794921875">
        <ele>3686.60009765625</ele>
        <time>2026-08-15T14:26:50.000Z</time>
        <extensions>
          <ns3:TrackPointExtension>
            <ns3:hr>112</ns3:hr>
            <ns3:cad>40</ns3:cad>
          </ns3:TrackPointExtension>
        </extensions>
      </trkpt>
      <trkpt lat="37.98928339965641498565673828125" lon="-107.73626343347132205963134765625">
        <ele>3686.800048828125</ele>
        <time>2026-08-15T14:26:51.000Z</time>
        <extensions>
          <ns3:TrackPointExtension>
            <ns3:hr>112</ns3:hr>
            <ns3:cad>40</ns3:cad>
          </ns3:TrackPointExtension>
        </extensions>
      </trkpt>
      <trkpt lat="37.98930846154689788818359375" lon="-107.73627139627933502197265625">
        <ele>3687.39990234375</ele>
        <time>2026-08-15T14:26:56.000Z</time>
        <extensions>
          <ns3:TrackPointExtension>
            <ns3:hr>112</ns3:hr>
            <ns3:cad>79</ns3:cad>
          </ns3:TrackPointExtension>
        </extensions>
      </trkpt>
      <trkpt lat="37.98933000303804874420166015625" lon="-107.73627768270671367645263671875">
        <ele>3687.800048828125</ele>
        <time>2026-08-15T14:26:59.000Z</time>
        <extensions>
          <ns3:TrackPointExtension>
            <ns3:hr>112</ns3:hr>
            <ns3:cad>0</ns3:cad>
          </ns3:TrackPointExtension>
        </extensions>
      </trkpt>
      <trkpt lat="37.989334948360919952392578125" lon="-107.73627919144928455352783203125">
        <ele>3688.39990234375</ele>
        <time>2026-08-15T14:27:02.000Z</time>
        <extensions>
          <ns3:TrackPointExtension>
            <ns3:hr>115</ns3:hr>
            <ns3:cad>0</ns3:cad>
          </ns3:TrackPointExtension>
        </extensions>
      </trkpt>
      <trkpt lat="37.98934056423604488372802734375" lon="-107.736281789839267730712890625">
        <ele>3688.60009765625</ele>
        <time>2026-08-15T14:27:03.000Z</time>
        <extensions>
          <ns3:TrackPointExtension>
            <ns3:hr>116</ns3:hr>
            <ns3:cad>0</ns3:cad>
          </ns3:TrackPointExtension>
        </extensions>
      </trkpt>
      <trkpt lat="37.98935917206108570098876953125" lon="-107.736292518675327301025390625">
        <ele>3688.39990234375</ele>
        <time>2026-08-15T14:27:06.000Z</time>
        <extensions>
          <ns3:TrackPointExtension>
            <ns3:hr>119</ns3:hr>
            <ns3:cad>0</ns3:cad>
          </ns3:TrackPointExtension>
        </extensions>
      </trkpt>
      <trkpt lat="37.9893659614026546478271484375" lon="-107.73629419505596160888671875">
        <ele>3688.39990234375</ele>
        <time>2026-08-15T14:27:09.000Z</time>
        <extensions>
          <ns3:TrackPointExtension>
            <ns3:hr>120</ns3:hr>
            <ns3:cad>0</ns3:cad>
          </ns3:TrackPointExtension>
        </extensions>
      </trkpt>
      <trkpt lat="37.98936671577394008636474609375" lon="-107.73630567826330661773681640625">
        <ele>3688.60009765625</ele>
        <time>2026-08-15T14:27:13.000Z</time>
        <extensions>
          <ns3:TrackPointExtension>
            <ns3:hr>117</ns3:hr>
            <ns3:cad>0</ns3:cad>
          </ns3:TrackPointExtension>
        </extensions>
      </trkpt>
      <trkpt lat="37.98936570994555950164794921875" lon="-107.73630567826330661773681640625">
        <ele>3688.39990234375</ele>
        <time>2026-08-15T14:27:15.000Z</time>
        <extensions>
          <ns3:TrackPointExtension>
            <ns3:hr>116</ns3:hr>
            <ns3:cad>0</ns3:cad>
          </ns3:TrackPointExtension>
        </extensions>
      </trkpt>
      <trkpt lat="37.98939068801701068878173828125" lon="-107.73634037934243679046630859375">
        <ele>3688.800048828125</ele>
        <time>2026-08-15T14:27:21.000Z</time>
        <extensions>
          <ns3:TrackPointExtension>
            <ns3:hr>113</ns3:hr>
            <ns3:cad>0</ns3:cad>
          </ns3:TrackPointExtension>
        </extensions>
      </trkpt>
      <trkpt lat="37.989393286406993865966796875" lon="-107.73634473793208599090576171875">
        <ele>3688.800048828125</ele>
        <time>2026-08-15T14:27:23.000Z</time>
        <extensions>
          <ns3:TrackPointExtension>
            <ns3:hr>112</ns3:hr>
            <ns3:cad>0</ns3:cad>
          </ns3:TrackPointExtension>
        </extensions>
      </trkpt>
      <trkpt lat="37.989392615854740142822265625" lon="-107.73634247481822967529296875">
        <ele>3688.60009765625</ele>
        <time>2026-08-15T14:27:28.000Z</time>
        <extensions>
          <ns3:TrackPointExtension>
            <ns3:hr>112</ns3:hr>
            <ns3:cad>0</ns3:cad>
          </ns3:TrackPointExtension>
        </extensions>
      </trkpt>
      <trkpt lat="37.989392615854740142822265625" lon="-107.73634247481822967529296875">
        <ele>3688.39990234375</ele>
        <time>2026-08-15T14:27:34.000Z</time>
        <extensions>
          <ns3:TrackPointExtension>
            <ns3:hr>114</ns3:hr>
            <ns3:cad>0</ns3:cad>
          </ns3:TrackPointExtension>
        </extensions>
      </trkpt>
      <trkpt lat="37.989392615854740142822265625" lon="-107.73634247481822967529296875">
        <ele>3688.60009765625</ele>
        <time>2026-08-15T14:27:37.000Z</time>
        <extensions>
          <ns3:TrackPointExtension>
            <ns3:hr>118</ns3:hr>
            <ns3:cad>0</ns3:cad>
          </ns3:TrackPointExtension>
        </extensions>
      </trkpt>
      <trkpt lat="37.989392615854740142822265625" lon="-107.73634247481822967529296875">
        <ele>3688.60009765625</ele>
        <time>2026-08-15T14:27:39.000Z</time>
        <extensions>
          <ns3:TrackPointExtension>
            <ns3:hr>121</ns3:hr>
            <ns3:cad>0</ns3:cad>
          </ns3:TrackPointExtension>
        </extensions>
      </trkpt>
      <trkpt lat="37.989392615854740142822265625" lon="-107.73634247481822967529296875">
        <ele>3688.39990234375</ele>
        <time>2026-08-15T14:27:41.000Z</time>
        <extensions>
          <ns3:TrackPointExtension>
            <ns3:hr>121</ns3:hr>
            <ns3:cad>0</ns3:cad>
          </ns3:TrackPointExtension>
        </extensions>
      </trkpt>
      <trkpt lat="37.989392615854740142822265625" lon="-107.73634247481822967529296875">
        <ele>3688.60009765625</ele>
        <time>2026-08-15T14:27:44.000Z</time>
        <extensions>
          <ns3:TrackPointExtension>
            <ns3:hr>118</ns3:hr>
            <ns3:cad>0</ns3:cad>
          </ns3:TrackPointExtension>
        </extensions>
      </trkpt>
      <trkpt lat="37.989392615854740142822265625" lon="-107.73634247481822967529296875">
        <ele>3688.800048828125</ele>
        <time>2026-08-15T14:27:46.000Z</time>
        <extensions>
          <ns3:TrackPointExtension>
            <ns3:hr>112</ns3:hr>
            <ns3:cad>0</ns3:cad>
          </ns3:TrackPointExtension>
        </extensions>
      </trkpt>
      <trkpt lat="37.989392615854740142822265625" lon="-107.73634247481822967529296875">
        <ele>3688.800048828125</ele>
        <time>2026-08-15T14:27:47.000Z</time>
        <extensions>
          <ns3:TrackPointExtension>
            <ns3:hr>107</ns3:hr>
            <ns3:cad>0</ns3:cad>
          </ns3:TrackPointExtension>
        </extensions>
      </trkpt>
      <trkpt lat="37.989392615854740142822265625" lon="-107.73634247481822967529296875">
        <ele>3688.800048828125</ele>
        <time>2026-08-15T14:27:49.000Z</time>
        <extensions>
          <ns3:TrackPointExtension>
            <ns3:hr>104</ns3:hr>
            <ns3:cad>0</ns3:cad>
          </ns3:TrackPointExtension>
        </extensions>
      </trkpt>
      <trkpt lat="37.98939152620732784271240234375" lon="-107.73633954115211963653564453125">
        <ele>3688.800048828125</ele>
        <time>2026-08-15T14:27:50.000Z</time>
        <extensions>
          <ns3:TrackPointExtension>
            <ns3:hr>104</ns3:hr>
            <ns3:cad>0</ns3:cad>
          </ns3:TrackPointExtension>
        </extensions>
      </trkpt>
      <trkpt lat="37.9894115589559078216552734375" lon="-107.73637055419385433197021484375">
        <ele>3689.60009765625</ele>
        <time>2026-08-15T14:27:56.000Z</time>
        <extensions>
          <ns3:TrackPointExtension>
            <ns3:hr>105</ns3:hr>
            <ns3:cad>0</ns3:cad>
          </ns3:TrackPointExtension>
        </extensions>
      </trkpt>
      <trkpt lat="37.98941851593554019927978515625" lon="-107.73637290112674236297607421875">
        <ele>3689.800048828125</ele>
        <time>2026-08-15T14:27:57.000Z</time>
        <extensions>
          <ns3:TrackPointExtension>
            <ns3:hr>104</ns3:hr>
            <ns3:cad>0</ns3:cad>
          </ns3:TrackPointExtension>
        </extensions>
      </trkpt>
      <trkpt lat="37.98942505382001399993896484375" lon="-107.73637793026864528656005859375">
        <ele>3690</ele>
        <time>2026-08-15T14:28:00.000Z</time>
        <extensions>
          <ns3:TrackPointExtension>
            <ns3:hr>104</ns3:hr>
            <ns3:cad>0</ns3:cad>
          </ns3:TrackPointExtension>
        </extensions>
      </trkpt>
      <trkpt lat="37.9894330166280269622802734375" lon="-107.73638111539185047149658203125">
        <ele>3690.60009765625</ele>
        <time>2026-08-15T14:28:04.000Z</time>
        <extensions>
          <ns3:TrackPointExtension>
            <ns3:hr>105</ns3:hr>
            <ns3:cad>0</ns3:cad>
          </ns3:TrackPointExtension>
        </extensions>
      </trkpt>
      <trkpt lat="37.9894350282847881317138671875" lon="-107.73638396523892879486083984375">
        <ele>3691</ele>
        <time>2026-08-15T14:28:06.000Z</time>
        <extensions>
          <ns3:TrackPointExtension>
            <ns3:hr>104</ns3:hr>
            <ns3:cad>0</ns3:cad>
          </ns3:TrackPointExtension>
        </extensions>
      </trkpt>
      <trkpt lat="37.9894494451582431793212890625" lon="-107.736391089856624603271484375">
        <ele>3691.39990234375</ele>
        <time>2026-08-15T14:28:11.000Z</time>
        <extensions>
          <ns3:TrackPointExtension>
            <ns3:hr>101</ns3:hr>
            <ns3:cad>0</ns3:cad>
          </ns3:TrackPointExtension>
        </extensions>
      </trkpt>
      <trkpt lat="37.98945573158562183380126953125" lon="-107.73640357889235019683837890625">
        <ele>3691.39990234375</ele>
        <time>2026-08-15T14:28:17.000Z</time>
        <extensions>
          <ns3:TrackPointExtension>
            <ns3:hr>103</ns3:hr>
            <ns3:cad>0</ns3:cad>
          </ns3:TrackPointExtension>
        </extensions>
      </trkpt>
      <trkpt lat="37.98948238603770732879638671875" lon="-107.73641698993742465972900390625">
        <ele>3692.199951171875</ele>
        <time>2026-08-15T14:28:22.000Z</time>
        <extensions>
          <ns3:TrackPointExtension>
            <ns3:hr>102</ns3:hr>
            <ns3:cad>0</ns3:cad>
          </ns3:TrackPointExtension>
        </extensions>
      </trkpt>
      <trkpt lat="37.98949412070214748382568359375" lon="-107.73641799576580524444580078125">
        <ele>3692.800048828125</ele>
        <time>2026-08-15T14:28:26.000Z</time>
        <extensions>
          <ns3:TrackPointExtension>
            <ns3:hr>105</ns3:hr>
            <ns3:cad>0</ns3:cad>
          </ns3:TrackPointExtension>
        </extensions>
      </trkpt>
      <trkpt lat="37.989494539797306060791015625" lon="-107.73642017506062984466552734375">
        <ele>3692.800048828125</ele>
        <time>2026-08-15T14:28:28.000Z</time>
        <extensions>
          <ns3:TrackPointExtension>
            <ns3:hr>116</ns3:hr>
            <ns3:cad>0</ns3:cad>
          </ns3:TrackPointExtension>
        </extensions>
      </trkpt>
      <trkpt lat="37.989496886730194091796875" lon="-107.736421935260295867919921875">
        <ele>3692.800048828125</ele>
        <time>2026-08-15T14:28:29.000Z</time>
        <extensions>
          <ns3:TrackPointExtension>
            <ns3:hr>134</ns3:hr>
            <ns3:cad>0</ns3:cad>
          </ns3:TrackPointExtension>
        </extensions>
      </trkpt>
      <trkpt lat="37.98949847929179668426513671875" lon="-107.7364227734506130218505859375">
        <ele>3692.800048828125</ele>
        <time>2026-08-15T14:28:30.000Z</time>
        <extensions>
          <ns3:TrackPointExtension>
            <ns3:hr>137</ns3:hr>
            <ns3:cad>0</ns3:cad>
          </ns3:TrackPointExtension>
        </extensions>
      </trkpt>
      <trkpt lat="37.9895131476223468780517578125" lon="-107.73642654530704021453857421875">
        <ele>3693.199951171875</ele>
        <time>2026-08-15T14:28:34.000Z</time>
        <extensions>
          <ns3:TrackPointExtension>
            <ns3:hr>139</ns3:hr>
            <ns3:cad>0</ns3:cad>
          </ns3:TrackPointExtension>
        </extensions>
      </trkpt>
      <trkpt lat="37.98952731303870677947998046875" lon="-107.73643408901989459991455078125">
        <ele>3693.39990234375</ele>
        <time>2026-08-15T14:28:36.000Z</time>
        <extensions>
          <ns3:TrackPointExtension>
            <ns3:hr>139</ns3:hr>
            <ns3:cad>57</ns3:cad>
          </ns3:TrackPointExtension>
        </extensions>
      </trkpt>
      <trkpt lat="37.98953552730381488800048828125" lon="-107.73643207736313343048095703125">
        <ele>3694.199951171875</ele>
        <time>2026-08-15T14:28:42.000Z</time>
        <extensions>
          <ns3:TrackPointExtension>
            <ns3:hr>138</ns3:hr>
            <ns3:cad>0</ns3:cad>
          </ns3:TrackPointExtension>
        </extensions>
      </trkpt>
      <trkpt lat="37.98953569494187831878662109375" lon="-107.73643224500119686126708984375">
        <ele>3694</ele>
        <time>2026-08-15T14:28:44.000Z</time>
        <extensions>
          <ns3:TrackPointExtension>
            <ns3:hr>139</ns3:hr>
            <ns3:cad>0</ns3:cad>
          </ns3:TrackPointExtension>
        </extensions>
      </trkpt>
      <trkpt lat="37.98953569494187831878662109375" lon="-107.73643224500119686126708984375">
        <ele>3693.800048828125</ele>
        <time>2026-08-15T14:28:48.000Z</time>
        <extensions>
          <ns3:TrackPointExtension>
            <ns3:hr>136</ns3:hr>
            <ns3:cad>0</ns3:cad>
          </ns3:TrackPointExtension>
        </extensions>
      </trkpt>
      <trkpt lat="37.98954994417726993560791015625" lon="-107.73643635213375091552734375">
        <ele>3694</ele>
        <time>2026-08-15T14:28:51.000Z</time>
        <extensions>
          <ns3:TrackPointExtension>
            <ns3:hr>135</ns3:hr>
            <ns3:cad>64</ns3:cad>
          </ns3:TrackPointExtension>
        </extensions>
      </trkpt>
      <trkpt lat="37.989566959440708160400390625" lon="-107.736446075141429901123046875">
        <ele>3693.800048828125</ele>
        <time>2026-08-15T14:28:57.000Z</time>
        <extensions>
          <ns3:TrackPointExtension>
            <ns3:hr>133</ns3:hr>
            <ns3:cad>0</ns3:cad>
          </ns3:TrackPointExtension>
        </extensions>
      </trkpt>
      <trkpt lat="37.9895718209445476531982421875" lon="-107.73645152337849140167236328125">
        <ele>3694</ele>
        <time>2026-08-15T14:29:00.000Z</time>
        <extensions>
          <ns3:TrackPointExtension>
            <ns3:hr>133</ns3:hr>
            <ns3:cad>0</ns3:cad>
          </ns3:TrackPointExtension>
        </extensions>
      </trkpt>
      <trkpt lat="37.989583723247051239013671875" lon="-107.7364596538245677947998046875">
        <ele>3694</ele>
        <time>2026-08-15T14:29:06.000Z</time>
        <extensions>
          <ns3:TrackPointExtension>
            <ns3:hr>133</ns3:hr>
            <ns3:cad>0</ns3:cad>
          </ns3:TrackPointExtension>
        </extensions>
      </trkpt>
      <trkpt lat="37.98958866856992244720458984375" lon="-107.7364666946232318878173828125">
        <ele>3694</ele>
        <time>2026-08-15T14:29:08.000Z</time>
        <extensions>
          <ns3:TrackPointExtension>
            <ns3:hr>132</ns3:hr>
            <ns3:cad>0</ns3:cad>
          </ns3:TrackPointExtension>
        </extensions>
      </trkpt>
      <trkpt lat="37.9895909316837787628173828125" lon="-107.7364705502986907958984375">
        <ele>3693.800048828125</ele>
        <time>2026-08-15T14:29:11.000Z</time>
        <extensions>
          <ns3:TrackPointExtension>
            <ns3:hr>129</ns3:hr>
            <ns3:cad>0</ns3:cad>
          </ns3:TrackPointExtension>
        </extensions>
      </trkpt>
      <trkpt lat="37.9895909316837787628173828125" lon="-107.7364705502986907958984375">
        <ele>3694.39990234375</ele>
        <time>2026-08-15T14:29:14.000Z</time>
        <extensions>
          <ns3:TrackPointExtension>
            <ns3:hr>127</ns3:hr>
            <ns3:cad>0</ns3:cad>
          </ns3:TrackPointExtension>
        </extensions>
      </trkpt>
      <trkpt lat="37.9895909316837787628173828125" lon="-107.7364705502986907958984375">
        <ele>3694.800048828125</ele>
        <time>2026-08-15T14:29:17.000Z</time>
        <extensions>
          <ns3:TrackPointExtension>
            <ns3:hr>128</ns3:hr>
            <ns3:cad>0</ns3:cad>
          </ns3:TrackPointExtension>
        </extensions>
      </trkpt>
      <trkpt lat="37.9895909316837787628173828125" lon="-107.7364705502986907958984375">
        <ele>3695.39990234375</ele>
        <time>2026-08-15T14:29:23.000Z</time>
        <extensions>
          <ns3:TrackPointExtension>
            <ns3:hr>127</ns3:hr>
            <ns3:cad>0</ns3:cad>
          </ns3:TrackPointExtension>
        </extensions>
      </trkpt>
      <trkpt lat="37.9895909316837787628173828125" lon="-107.7364705502986907958984375">
        <ele>3695.39990234375</ele>
        <time>2026-08-15T14:29:25.000Z</time>
        <extensions>
          <ns3:TrackPointExtension>
            <ns3:hr>127</ns3:hr>
            <ns3:cad>0</ns3:cad>
          </ns3:TrackPointExtension>
        </extensions>
      </trkpt>
      <trkpt lat="37.98959135077893733978271484375" lon="-107.7364921756088733673095703125">
        <ele>3695.39990234375</ele>
        <time>2026-08-15T14:29:29.000Z</time>
        <extensions>
          <ns3:TrackPointExtension>
            <ns3:hr>130</ns3:hr>
            <ns3:cad>0</ns3:cad>
          </ns3:TrackPointExtension>
        </extensions>
      </trkpt>
      <trkpt lat="37.98959084786474704742431640625" lon="-107.7364925108850002288818359375">
        <ele>3695.39990234375</ele>
        <time>2026-08-15T14:29:32.000Z</time>
        <extensions>
          <ns3:TrackPointExtension>
            <ns3:hr>130</ns3:hr>
            <ns3:cad>0</ns3:cad>
          </ns3:TrackPointExtension>
        </extensions>
      </trkpt>
      <trkpt lat="37.9895952902734279632568359375" lon="-107.736512124538421630859375">
        <ele>3696.199951171875</ele>
        <time>2026-08-15T14:29:38.000Z</time>
        <extensions>
          <ns3:TrackPointExtension>
            <ns3:hr>129</ns3:hr>
            <ns3:cad>50</ns3:cad>
          </ns3:TrackPointExtension>
        </extensions>
      </trkpt>
      <trkpt lat="37.9896028339862823486328125" lon="-107.736520506441593170166015625">
        <ele>3696.199951171875</ele>
        <time>2026-08-15T14:29:40.000Z</time>
        <extensions>
          <ns3:TrackPointExtension>
            <ns3:hr>129</ns3:hr>
            <ns3:cad>50</ns3:cad>
          </ns3:TrackPointExtension>
        </extensions>
      </trkpt>
      <trkpt lat="37.98960761167109012603759765625" lon="-107.7365314029157161712646484375">
        <ele>3696.39990234375</ele>
        <time>2026-08-15T14:29:42.000Z</time>
        <extensions>
          <ns3:TrackPointExtension>
            <ns3:hr>127</ns3:hr>
            <ns3:cad>0</ns3:cad>
          </ns3:TrackPointExtension>
        </extensions>
      </trkpt>
      <trkpt lat="37.98961431719362735748291015625" lon="-107.73654221557080745697021484375">
        <ele>3697.60009765625</ele>
        <time>2026-08-15T14:29:47.000Z</time>
        <extensions>
          <ns3:TrackPointExtension>
            <ns3:hr>126</ns3:hr>
            <ns3:cad>0</ns3:cad>
          </ns3:TrackPointExtension>
        </extensions>
      </trkpt>
      <trkpt lat="37.989620603621006011962890625" lon="-107.7365542016923427581787109375">
        <ele>3698</ele>
        <time>2026-08-15T14:29:49.000Z</time>
        <extensions>
          <ns3:TrackPointExtension>
            <ns3:hr>128</ns3:hr>
            <ns3:cad>0</ns3:cad>
          </ns3:TrackPointExtension>
        </extensions>
      </trkpt>
      <trkpt lat="37.98961213789880275726318359375" lon="-107.73655428551137447357177734375">
        <ele>3697.60009765625</ele>
        <time>2026-08-15T14:29:55.000Z</time>
        <extensions>
          <ns3:TrackPointExtension>
            <ns3:hr>129</ns3:hr>
            <ns3:cad>0</ns3:cad>
          </ns3:TrackPointExtension>
        </extensions>
      </trkpt>
      <trkpt lat="37.98961331136524677276611328125" lon="-107.7365552075207233428955078125">
        <ele>3697.60009765625</ele>
        <time>2026-08-15T14:29:56.000Z</time>
        <extensions>
          <ns3:TrackPointExtension>
            <ns3:hr>130</ns3:hr>
            <ns3:cad>0</ns3:cad>
          </ns3:TrackPointExtension>
        </extensions>
      </trkpt>
      <trkpt lat="37.98961331136524677276611328125" lon="-107.7365552075207233428955078125">
        <ele>3697.800048828125</ele>
        <time>2026-08-15T14:29:58.000Z</time>
        <extensions>
          <ns3:TrackPointExtension>
            <ns3:hr>134</ns3:hr>
            <ns3:cad>0</ns3:cad>
          </ns3:TrackPointExtension>
        </extensions>
      </trkpt>
      <trkpt lat="37.98960442654788494110107421875" lon="-107.7365669421851634979248046875">
        <ele>3698.39990234375</ele>
        <time>2026-08-15T14:30:04.000Z</time>
        <extensions>
          <ns3:TrackPointExtension>
            <ns3:hr>136</ns3:hr>
            <ns3:cad>0</ns3:cad>
          </ns3:TrackPointExtension>
        </extensions>
      </trkpt>
      <trkpt lat="37.98960442654788494110107421875" lon="-107.7365669421851634979248046875">
        <ele>3698.39990234375</ele>
        <time>2026-08-15T14:30:05.000Z</time>
        <extensions>
          <ns3:TrackPointExtension>
            <ns3:hr>136</ns3:hr>
            <ns3:cad>0</ns3:cad>
          </ns3:TrackPointExtension>
        </extensions>
      </trkpt>
      <trkpt lat="37.98960442654788494110107421875" lon="-107.7365669421851634979248046875">
        <ele>3698.800048828125</ele>
        <time>2026-08-15T14:30:11.000Z</time>
        <extensions>
          <ns3:TrackPointExtension>
            <ns3:hr>137</ns3:hr>
            <ns3:cad>0</ns3:cad>
          </ns3:TrackPointExtension>
        </extensions>
      </trkpt>
      <trkpt lat="37.98960442654788494110107421875" lon="-107.7365669421851634979248046875">
        <ele>3698.800048828125</ele>
        <time>2026-08-15T14:30:12.000Z</time>
        <extensions>
          <ns3:TrackPointExtension>
            <ns3:hr>137</ns3:hr>
            <ns3:cad>0</ns3:cad>
          </ns3:TrackPointExtension>
        </extensions>
      </trkpt>
      <trkpt lat="37.98959889449179172515869140625" lon="-107.73658747784793376922607421875">
        <ele>3699.800048828125</ele>
        <time>2026-08-15T14:30:17.000Z</time>
        <extensions>
          <ns3:TrackPointExtension>
            <ns3:hr>135</ns3:hr>
            <ns3:cad>0</ns3:cad>
          </ns3:TrackPointExtension>
        </extensions>
      </trkpt>
      <trkpt lat="37.98959637992084026336669921875" lon="-107.736599631607532501220703125">
        <ele>3700.199951171875</ele>
        <time>2026-08-15T14:30:19.000Z</time>
        <extensions>
          <ns3:TrackPointExtension>
            <ns3:hr>134</ns3:hr>
            <ns3:cad>0</ns3:cad>
          </ns3:TrackPointExtension>
        </extensions>
      </trkpt>
      <trkpt lat="37.989599816501140594482421875" lon="-107.73660910315811634063720703125">
        <ele>3699.60009765625</ele>
        <time>2026-08-15T14:30:25.000Z</time>
        <extensions>
          <ns3:TrackPointExtension>
            <ns3:hr>136</ns3:hr>
            <ns3:cad>0</ns3:cad>
          </ns3:TrackPointExtension>
        </extensions>
      </trkpt>
      <trkpt lat="37.989595122635364532470703125" lon="-107.7366127073764801025390625">
        <ele>3699.800048828125</ele>
        <time>2026-08-15T14:30:27.000Z</time>
        <extensions>
          <ns3:TrackPointExtension>
            <ns3:hr>137</ns3:hr>
            <ns3:cad>0</ns3:cad>
          </ns3:TrackPointExtension>
        </extensions>
      </trkpt>
      <trkpt lat="37.9895939491689205169677734375" lon="-107.73661346174776554107666015625">
        <ele>3700.199951171875</ele>
        <time>2026-08-15T14:30:33.000Z</time>
        <extensions>
          <ns3:TrackPointExtension>
            <ns3:hr>136</ns3:hr>
            <ns3:cad>0</ns3:cad>
          </ns3:TrackPointExtension>
        </extensions>
      </trkpt>
      <trkpt lat="37.9896001517772674560546875" lon="-107.7366259507834911346435546875">
        <ele>3700.199951171875</ele>
        <time>2026-08-15T14:30:35.000Z</time>
        <extensions>
          <ns3:TrackPointExtension>
            <ns3:hr>136</ns3:hr>
            <ns3:cad>0</ns3:cad>
          </ns3:TrackPointExtension>
        </extensions>
      </trkpt>
      <trkpt lat="37.98960576765239238739013671875" lon="-107.7366314828395843505859375">
        <ele>3701</ele>
        <time>2026-08-15T14:30:39.000Z</time>
        <extensions>
          <ns3:TrackPointExtension>
            <ns3:hr>135</ns3:hr>
            <ns3:cad>0</ns3:cad>
          </ns3:TrackPointExtension>
        </extensions>
      </trkpt>
      <trkpt lat="37.98962152563035488128662109375" lon="-107.736646570265293121337890625">
        <ele>3702</ele>
        <time>2026-08-15T14:30:42.000Z</time>
        <extensions>
          <ns3:TrackPointExtension>
            <ns3:hr>134</ns3:hr>
            <ns3:cad>0</ns3:cad>
          </ns3:TrackPointExtension>
        </extensions>
      </trkpt>
      <trkpt lat="37.98962370492517948150634765625" lon="-107.73665436543524265289306640625">
        <ele>3702.199951171875</ele>
        <time>2026-08-15T14:30:43.000Z</time>
        <extensions>
          <ns3:TrackPointExtension>
            <ns3:hr>134</ns3:hr>
            <ns3:cad>0</ns3:cad>
          </ns3:TrackPointExtension>
        </extensions>
      </trkpt>
      <trkpt lat="37.98961951397359371185302734375" lon="-107.736651264131069183349609375">
        <ele>3702.60009765625</ele>
        <time>2026-08-15T14:30:46.000Z</time>
        <extensions>
          <ns3:TrackPointExtension>
            <ns3:hr>131</ns3:hr>
            <ns3:cad>0</ns3:cad>
          </ns3:TrackPointExtension>
        </extensions>
      </trkpt>
      <trkpt lat="37.9896204359829425811767578125" lon="-107.7366594783961772918701171875">
        <ele>3702.60009765625</ele>
        <time>2026-08-15T14:30:49.000Z</time>
        <extensions>
          <ns3:TrackPointExtension>
            <ns3:hr>131</ns3:hr>
            <ns3:cad>0</ns3:cad>
          </ns3:TrackPointExtension>
        </extensions>
      </trkpt>
      <trkpt lat="37.98962018452584743499755859375" lon="-107.73666040040552616119384765625">
        <ele>3702.60009765625</ele>
        <time>2026-08-15T14:30:55.000Z</time>
        <extensions>
          <ns3:TrackPointExtension>
            <ns3:hr>130</ns3:hr>
            <ns3:cad>0</ns3:cad>
          </ns3:TrackPointExtension>
        </extensions>
      </trkpt>
      <trkpt lat="37.98962018452584743499755859375" lon="-107.7366725541651248931884765625">
        <ele>3703.199951171875</ele>
        <time>2026-08-15T14:30:57.000Z</time>
        <extensions>
          <ns3:TrackPointExtension>
            <ns3:hr>129</ns3:hr>
            <ns3:cad>0</ns3:cad>
          </ns3:TrackPointExtension>
        </extensions>
      </trkpt>
      <trkpt lat="37.98962420783936977386474609375" lon="-107.736685462296009063720703125">
        <ele>3703.60009765625</ele>
        <time>2026-08-15T14:31:03.000Z</time>
        <extensions>
          <ns3:TrackPointExtension>
            <ns3:hr>130</ns3:hr>
            <ns3:cad>0</ns3:cad>
          </ns3:TrackPointExtension>
        </extensions>
      </trkpt>
      <trkpt lat="37.98962496221065521240234375" lon="-107.7366863004863262176513671875">
        <ele>3703.60009765625</ele>
        <time>2026-08-15T14:31:04.000Z</time>
        <extensions>
          <ns3:TrackPointExtension>
            <ns3:hr>131</ns3:hr>
            <ns3:cad>0</ns3:cad>
          </ns3:TrackPointExtension>
        </extensions>
      </trkpt>
      <trkpt lat="37.98962496221065521240234375" lon="-107.7366863004863262176513671875">
        <ele>3703.60009765625</ele>
        <time>2026-08-15T14:31:05.000Z</time>
        <extensions>
          <ns3:TrackPointExtension>
            <ns3:hr>136</ns3:hr>
            <ns3:cad>0</ns3:cad>
          </ns3:TrackPointExtension>
        </extensions>
      </trkpt>
      <trkpt lat="37.98962630331516265869140625" lon="-107.7366896532475948333740234375">
        <ele>3703.60009765625</ele>
        <time>2026-08-15T14:31:06.000Z</time>
        <extensions>
          <ns3:TrackPointExtension>
            <ns3:hr>145</ns3:hr>
            <ns3:cad>0</ns3:cad>
          </ns3:TrackPointExtension>
        </extensions>
      </trkpt>
      <trkpt lat="37.98962496221065521240234375" lon="-107.7366863004863262176513671875">
        <ele>3703.800048828125</ele>
        <time>2026-08-15T14:31:07.000Z</time>
        <extensions>
          <ns3:TrackPointExtension>
            <ns3:hr>151</ns3:hr>
            <ns3:cad>0</ns3:cad>
          </ns3:TrackPointExtension>
        </extensions>
      </trkpt>
      <trkpt lat="37.98962496221065521240234375" lon="-107.7366863004863262176513671875">
        <ele>3703.800048828125</ele>
        <time>2026-08-15T14:31:08.000Z</time>
        <extensions>
          <ns3:TrackPointExtension>
            <ns3:hr>151</ns3:hr>
            <ns3:cad>0</ns3:cad>
          </ns3:TrackPointExtension>
        </extensions>
      </trkpt>
      <trkpt lat="37.98962496221065521240234375" lon="-107.7366863004863262176513671875">
        <ele>3704</ele>
        <time>2026-08-15T14:31:11.000Z</time>
        <extensions>
          <ns3:TrackPointExtension>
            <ns3:hr>152</ns3:hr>
            <ns3:cad>0</ns3:cad>
          </ns3:TrackPointExtension>
        </extensions>
      </trkpt>
      <trkpt lat="37.989640049636363983154296875" lon="-107.736705243587493896484375">
        <ele>3704.39990234375</ele>
        <time>2026-08-15T14:31:14.000Z</time>
        <extensions>
          <ns3:TrackPointExtension>
            <ns3:hr>153</ns3:hr>
            <ns3:cad>0</ns3:cad>
          </ns3:TrackPointExtension>
        </extensions>
      </trkpt>
      <trkpt lat="37.989652454853057861328125" lon="-107.73670331574976444244384765625">
        <ele>3704.800048828125</ele>
        <time>2026-08-15T14:31:17.000Z</time>
        <extensions>
          <ns3:TrackPointExtension>
            <ns3:hr>153</ns3:hr>
            <ns3:cad>0</ns3:cad>
          </ns3:TrackPointExtension>
        </extensions>
      </trkpt>
      <trkpt lat="37.9896512813866138458251953125" lon="-107.73670398630201816558837890625">
        <ele>3704.60009765625</ele>
        <time>2026-08-15T14:31:20.000Z</time>
        <extensions>
          <ns3:TrackPointExtension>
            <ns3:hr>150</ns3:hr>
            <ns3:cad>0</ns3:cad>
          </ns3:TrackPointExtension>
        </extensions>
      </trkpt>
      <trkpt lat="37.9896512813866138458251953125" lon="-107.73670398630201816558837890625">
        <ele>3704.60009765625</ele>
        <time>2026-08-15T14:31:22.000Z</time>
        <extensions>
          <ns3:TrackPointExtension>
            <ns3:hr>147</ns3:hr>
            <ns3:cad>0</ns3:cad>
          </ns3:TrackPointExtension>
        </extensions>
      </trkpt>
      <trkpt lat="37.98963569104671478271484375" lon="-107.73673499934375286102294921875">
        <ele>3704.800048828125</ele>
        <time>2026-08-15T14:31:28.000Z</time>
        <extensions>
          <ns3:TrackPointExtension>
            <ns3:hr>145</ns3:hr>
            <ns3:cad>0</ns3:cad>
          </ns3:TrackPointExtension>
        </extensions>
      </trkpt>
      <trkpt lat="37.98963300883769989013671875" lon="-107.7367345802485942840576171875">
        <ele>3704.800048828125</ele>
        <time>2026-08-15T14:31:31.000Z</time>
        <extensions>
          <ns3:TrackPointExtension>
            <ns3:hr>142</ns3:hr>
            <ns3:cad>0</ns3:cad>
          </ns3:TrackPointExtension>
        </extensions>
      </trkpt>
      <trkpt lat="37.9896358586847782135009765625" lon="-107.73674069903790950775146484375">
        <ele>3705.199951171875</ele>
        <time>2026-08-15T14:31:34.000Z</time>
        <extensions>
          <ns3:TrackPointExtension>
            <ns3:hr>141</ns3:hr>
            <ns3:cad>0</ns3:cad>
          </ns3:TrackPointExtension>
        </extensions>
      </trkpt>
      <trkpt lat="37.9896435700356960296630859375" lon="-107.73675008676946163177490234375">
        <ele>3705.39990234375</ele>
        <time>2026-08-15T14:31:36.000Z</time>
        <extensions>
          <ns3:TrackPointExtension>
            <ns3:hr>139</ns3:hr>
            <ns3:cad>0</ns3:cad>
          </ns3:TrackPointExtension>
        </extensions>
      </trkpt>
      <trkpt lat="37.98965237103402614593505859375" lon="-107.7367677725851535797119140625">
        <ele>3705.39990234375</ele>
        <time>2026-08-15T14:31:40.000Z</time>
        <extensions>
          <ns3:TrackPointExtension>
            <ns3:hr>138</ns3:hr>
            <ns3:cad>0</ns3:cad>
          </ns3:TrackPointExtension>
        </extensions>
      </trkpt>
      <trkpt lat="37.989662848412990570068359375" lon="-107.73680255748331546783447265625">
        <ele>3706</ele>
        <time>2026-08-15T14:31:46.000Z</time>
        <extensions>
          <ns3:TrackPointExtension>
            <ns3:hr>136</ns3:hr>
            <ns3:cad>0</ns3:cad>
          </ns3:TrackPointExtension>
        </extensions>
      </trkpt>
      <trkpt lat="37.98967097885906696319580078125" lon="-107.73681580089032649993896484375">
        <ele>3706.60009765625</ele>
        <time>2026-08-15T14:31:49.000Z</time>
        <extensions>
          <ns3:TrackPointExtension>
            <ns3:hr>135</ns3:hr>
            <ns3:cad>0</ns3:cad>
          </ns3:TrackPointExtension>
        </extensions>
      </trkpt>
      <trkpt lat="37.98968036659061908721923828125" lon="-107.73683172650635242462158203125">
        <ele>3707.199951171875</ele>
        <time>2026-08-15T14:31:52.000Z</time>
        <extensions>
          <ns3:TrackPointExtension>
            <ns3:hr>136</ns3:hr>
            <ns3:cad>0</ns3:cad>
          </ns3:TrackPointExtension>
        </extensions>
      </trkpt>
      <trkpt lat="37.98969076015055179595947265625" lon="-107.7368432097136974334716796875">
        <ele>3707.60009765625</ele>
        <time>2026-08-15T14:31:57.000Z</time>
        <extensions>
          <ns3:TrackPointExtension>
            <ns3:hr>136</ns3:hr>
            <ns3:cad>0</ns3:cad>
          </ns3:TrackPointExtension>
        </extensions>
      </trkpt>
      <trkpt lat="37.9896915145218372344970703125" lon="-107.736841030418872833251953125">
        <ele>3707.60009765625</ele>
        <time>2026-08-15T14:31:59.000Z</time>
        <extensions>
          <ns3:TrackPointExtension>
            <ns3:hr>136</ns3:hr>
            <ns3:cad>0</ns3:cad>
          </ns3:TrackPointExtension>
        </extensions>
      </trkpt>
      <trkpt lat="37.9897025786340236663818359375" lon="-107.73685586638748645782470703125">
        <ele>3707.39990234375</ele>
        <time>2026-08-15T14:32:05.000Z</time>
        <extensions>
          <ns3:TrackPointExtension>
            <ns3:hr>136</ns3:hr>
            <ns3:cad>0</ns3:cad>
          </ns3:TrackPointExtension>
        </extensions>
      </trkpt>
      <trkpt lat="37.98971070908010005950927734375" lon="-107.73686324246227741241455078125">
        <ele>3707.800048828125</ele>
        <time>2026-08-15T14:32:09.000Z</time>
        <extensions>
          <ns3:TrackPointExtension>
            <ns3:hr>135</ns3:hr>
            <ns3:cad>0</ns3:cad>
          </ns3:TrackPointExtension>
        </extensions>
      </trkpt>
      <trkpt lat="37.9897243715822696685791015625" lon="-107.7368831075727939605712890625">
        <ele>3708.39990234375</ele>
        <time>2026-08-15T14:32:15.000Z</time>
        <extensions>
          <ns3:TrackPointExtension>
            <ns3:hr>136</ns3:hr>
            <ns3:cad>0</ns3:cad>
          </ns3:TrackPointExtension>
        </extensions>
      </trkpt>
      <trkpt lat="37.98972361721098423004150390625" lon="-107.73688855580985546112060546875">
        <ele>3708.60009765625</ele>
        <time>2026-08-15T14:32:16.000Z</time>
        <extensions>
          <ns3:TrackPointExtension>
            <ns3:hr>136</ns3:hr>
            <ns3:cad>0</ns3:cad>
          </ns3:TrackPointExtension>
        </extensions>
      </trkpt>
      <trkpt lat="37.9897257126867771148681640625" lon="-107.73688822053372859954833984375">
        <ele>3708.60009765625</ele>
        <time>2026-08-15T14:32:17.000Z</time>
        <extensions>
          <ns3:TrackPointExtension>
            <ns3:hr>136</ns3:hr>
            <ns3:cad>0</ns3:cad>
          </ns3:TrackPointExtension>
        </extensions>
      </trkpt>
      <trkpt lat="37.9897441528737545013427734375" lon="-107.7369075827300548553466796875">
        <ele>3709</ele>
        <time>2026-08-15T14:32:23.000Z</time>
        <extensions>
          <ns3:TrackPointExtension>
            <ns3:hr>142</ns3:hr>
            <ns3:cad>0</ns3:cad>
          </ns3:TrackPointExtension>
        </extensions>
      </trkpt>
      <trkpt lat="37.989744655787944793701171875" lon="-107.73691018112003803253173828125">
        <ele>3709.199951171875</ele>
        <time>2026-08-15T14:32:24.000Z</time>
        <extensions>
          <ns3:TrackPointExtension>
            <ns3:hr>143</ns3:hr>
            <ns3:cad>0</ns3:cad>
          </ns3:TrackPointExtension>
        </extensions>
      </trkpt>
      <trkpt lat="37.9897468350827693939208984375" lon="-107.73691168986260890960693359375">
        <ele>3709.60009765625</ele>
        <time>2026-08-15T14:32:27.000Z</time>
        <extensions>
          <ns3:TrackPointExtension>
            <ns3:hr>146</ns3:hr>
            <ns3:cad>0</ns3:cad>
          </ns3:TrackPointExtension>
        </extensions>
      </trkpt>
      <trkpt lat="37.989749349653720855712890625" lon="-107.73691738955676555633544921875">
        <ele>3709.199951171875</ele>
        <time>2026-08-15T14:32:31.000Z</time>
        <extensions>
          <ns3:TrackPointExtension>
            <ns3:hr>147</ns3:hr>
            <ns3:cad>0</ns3:cad>
          </ns3:TrackPointExtension>
        </extensions>
      </trkpt>
      <trkpt lat="37.98975831829011440277099609375" lon="-107.73693566210567951202392578125">
        <ele>3709.60009765625</ele>
        <time>2026-08-15T14:32:34.000Z</time>
        <extensions>
          <ns3:TrackPointExtension>
            <ns3:hr>146</ns3:hr>
            <ns3:cad>0</ns3:cad>
          </ns3:TrackPointExtension>
        </extensions>
      </trkpt>
      <trkpt lat="37.98976284451782703399658203125" lon="-107.7369367517530918121337890625">
        <ele>3710.39990234375</ele>
        <time>2026-08-15T14:32:38.000Z</time>
        <extensions>
          <ns3:TrackPointExtension>
            <ns3:hr>145</ns3:hr>
            <ns3:cad>0</ns3:cad>
          </ns3:TrackPointExtension>
        </extensions>
      </trkpt>
      <trkpt lat="37.98977457918226718902587890625" lon="-107.7369417808949947357177734375">
        <ele>3710.800048828125</ele>
        <time>2026-08-15T14:32:43.000Z</time>
        <extensions>
          <ns3:TrackPointExtension>
            <ns3:hr>144</ns3:hr>
            <ns3:cad>0</ns3:cad>
          </ns3:TrackPointExtension>
        </extensions>
      </trkpt>
      <trkpt lat="37.989777512848377227783203125" lon="-107.73694437928497791290283203125">
        <ele>3710.800048828125</ele>
        <time>2026-08-15T14:32:44.000Z</time>
        <extensions>
          <ns3:TrackPointExtension>
            <ns3:hr>143</ns3:hr>
            <ns3:cad>0</ns3:cad>
          </ns3:TrackPointExtension>
        </extensions>
      </trkpt>
      <trkpt lat="37.98977877013385295867919921875" lon="-107.736946642398834228515625">
        <ele>3711.60009765625</ele>
        <time>2026-08-15T14:32:50.000Z</time>
        <extensions>
          <ns3:TrackPointExtension>
            <ns3:hr>143</ns3:hr>
            <ns3:cad>0</ns3:cad>
          </ns3:TrackPointExtension>
        </extensions>
      </trkpt>
      <trkpt lat="37.9897793568670749664306640625" lon="-107.73694840259850025177001953125">
        <ele>3711.60009765625</ele>
        <time>2026-08-15T14:32:52.000Z</time>
        <extensions>
          <ns3:TrackPointExtension>
            <ns3:hr>143</ns3:hr>
            <ns3:cad>0</ns3:cad>
          </ns3:TrackPointExtension>
        </extensions>
      </trkpt>
      <trkpt lat="37.98978849314153194427490234375" lon="-107.73697086609899997711181640625">
        <ele>3711.60009765625</ele>
        <time>2026-08-15T14:32:58.000Z</time>
        <extensions>
          <ns3:TrackPointExtension>
            <ns3:hr>143</ns3:hr>
            <ns3:cad>0</ns3:cad>
          </ns3:TrackPointExtension>
        </extensions>
      </trkpt>
      <trkpt lat="37.9897892475128173828125" lon="-107.73697807453572750091552734375">
        <ele>3711.800048828125</ele>
        <time>2026-08-15T14:32:59.000Z</time>
        <extensions>
          <ns3:TrackPointExtension>
            <ns3:hr>144</ns3:hr>
            <ns3:cad>0</ns3:cad>
          </ns3:TrackPointExtension>
        </extensions>
      </trkpt>
      <trkpt lat="37.98979436047375202178955078125" lon="-107.736984193325042724609375">
        <ele>3712</ele>
        <time>2026-08-15T14:33:00.000Z</time>
        <extensions>
          <ns3:TrackPointExtension>
            <ns3:hr>143</ns3:hr>
            <ns3:cad>0</ns3:cad>
          </ns3:TrackPointExtension>
        </extensions>
      </trkpt>
      <trkpt lat="37.9898075200617313385009765625" lon="-107.7370051480829715728759765625">
        <ele>3712.60009765625</ele>
        <time>2026-08-15T14:33:06.000Z</time>
        <extensions>
          <ns3:TrackPointExtension>
            <ns3:hr>145</ns3:hr>
            <ns3:cad>0</ns3:cad>
          </ns3:TrackPointExtension>
        </extensions>
      </trkpt>
      <trkpt lat="37.98981581814587116241455078125" lon="-107.73701545782387256622314453125">
        <ele>3712.800048828125</ele>
        <time>2026-08-15T14:33:08.000Z</time>
        <extensions>
          <ns3:TrackPointExtension>
            <ns3:hr>144</ns3:hr>
            <ns3:cad>0</ns3:cad>
          </ns3:TrackPointExtension>
        </extensions>
      </trkpt>
      <trkpt lat="37.98981699161231517791748046875" lon="-107.737020738422870635986328125">
        <ele>3713</ele>
        <time>2026-08-15T14:33:09.000Z</time>
        <extensions>
          <ns3:TrackPointExtension>
            <ns3:hr>144</ns3:hr>
            <ns3:cad>0</ns3:cad>
          </ns3:TrackPointExtension>
        </extensions>
      </trkpt>
      <trkpt lat="37.989829815924167633056640625" lon="-107.73703641258180141448974609375">
        <ele>3713.199951171875</ele>
        <time>2026-08-15T14:33:14.000Z</time>
        <extensions>
          <ns3:TrackPointExtension>
            <ns3:hr>144</ns3:hr>
            <ns3:cad>0</ns3:cad>
          </ns3:TrackPointExtension>
        </extensions>
      </trkpt>
      <trkpt lat="37.989828474819660186767578125" lon="-107.73703314363956451416015625">
        <ele>3714</ele>
        <time>2026-08-15T14:33:20.000Z</time>
        <extensions>
          <ns3:TrackPointExtension>
            <ns3:hr>145</ns3:hr>
            <ns3:cad>0</ns3:cad>
          </ns3:TrackPointExtension>
        </extensions>
      </trkpt>
      <trkpt lat="37.989828474819660186767578125" lon="-107.73703314363956451416015625">
        <ele>3714</ele>
        <time>2026-08-15T14:33:21.000Z</time>
        <extensions>
          <ns3:TrackPointExtension>
            <ns3:hr>145</ns3:hr>
            <ns3:cad>0</ns3:cad>
          </ns3:TrackPointExtension>
        </extensions>
      </trkpt>
      <trkpt lat="37.989828474819660186767578125" lon="-107.73703314363956451416015625">
        <ele>3714.199951171875</ele>
        <time>2026-08-15T14:33:22.000Z</time>
        <extensions>
          <ns3:TrackPointExtension>
            <ns3:hr>144</ns3:hr>
            <ns3:cad>0</ns3:cad>
          </ns3:TrackPointExtension>
        </extensions>
      </trkpt>
      <trkpt lat="37.989833839237689971923828125" lon="-107.7370581217110157012939453125">
        <ele>3714.199951171875</ele>
        <time>2026-08-15T14:33:25.000Z</time>
        <extensions>
          <ns3:TrackPointExtension>
            <ns3:hr>138</ns3:hr>
            <ns3:cad>0</ns3:cad>
          </ns3:TrackPointExtension>
        </extensions>
      </trkpt>
      <trkpt lat="37.9898397065699100494384765625" lon="-107.7370688505470752716064453125">
        <ele>3714.60009765625</ele>
        <time>2026-08-15T14:33:27.000Z</time>
        <extensions>
          <ns3:TrackPointExtension>
            <ns3:hr>135</ns3:hr>
            <ns3:cad>66</ns3:cad>
          </ns3:TrackPointExtension>
        </extensions>
      </trkpt>
      <trkpt lat="37.98984490334987640380859375" lon="-107.737075388431549072265625">
        <ele>3714.60009765625</ele>
        <time>2026-08-15T14:33:28.000Z</time>
        <extensions>
          <ns3:TrackPointExtension>
            <ns3:hr>134</ns3:hr>
            <ns3:cad>0</ns3:cad>
          </ns3:TrackPointExtension>
        </extensions>
      </trkpt>
      <trkpt lat="37.98985487781465053558349609375" lon="-107.73708008229732513427734375">
        <ele>3715.199951171875</ele>
        <time>2026-08-15T14:33:30.000Z</time>
        <extensions>
          <ns3:TrackPointExtension>
            <ns3:hr>134</ns3:hr>
            <ns3:cad>0</ns3:cad>
          </ns3:TrackPointExtension>
        </extensions>
      </trkpt>
      <trkpt lat="37.98987633548676967620849609375" lon="-107.737119980156421661376953125">
        <ele>3716</ele>
        <time>2026-08-15T14:33:36.000Z</time>
        <extensions>
          <ns3:TrackPointExtension>
            <ns3:hr>136</ns3:hr>
            <ns3:cad>0</ns3:cad>
          </ns3:TrackPointExtension>
        </extensions>
      </trkpt>
      <trkpt lat="37.98989226110279560089111328125" lon="-107.7371426112949848175048828125">
        <ele>3716</ele>
        <time>2026-08-15T14:33:42.000Z</time>
        <extensions>
          <ns3:TrackPointExtension>
            <ns3:hr>137</ns3:hr>
            <ns3:cad>0</ns3:cad>
          </ns3:TrackPointExtension>
        </extensions>
      </trkpt>
      <trkpt lat="37.98989762552082538604736328125" lon="-107.73715845309197902679443359375">
        <ele>3716.199951171875</ele>
        <time>2026-08-15T14:33:45.000Z</time>
        <extensions>
          <ns3:TrackPointExtension>
            <ns3:hr>138</ns3:hr>
            <ns3:cad>0</ns3:cad>
          </ns3:TrackPointExtension>
        </extensions>
      </trkpt>
      <trkpt lat="37.98990265466272830963134765625" lon="-107.7371613867580890655517578125">
        <ele>3716.199951171875</ele>
        <time>2026-08-15T14:33:46.000Z</time>
        <extensions>
          <ns3:TrackPointExtension>
            <ns3:hr>138</ns3:hr>
            <ns3:cad>0</ns3:cad>
          </ns3:TrackPointExtension>
        </extensions>
      </trkpt>
      <trkpt lat="37.98992763273417949676513671875" lon="-107.73718602955341339111328125">
        <ele>3716.199951171875</ele>
        <time>2026-08-15T14:33:51.000Z</time>
        <extensions>
          <ns3:TrackPointExtension>
            <ns3:hr>137</ns3:hr>
            <ns3:cad>0</ns3:cad>
          </ns3:TrackPointExtension>
        </extensions>
      </trkpt>
      <trkpt lat="37.989960573613643646240234375" lon="-107.7371969260275363922119140625">
        <ele>3716.199951171875</ele>
        <time>2026-08-15T14:33:57.000Z</time>
        <extensions>
          <ns3:TrackPointExtension>
            <ns3:hr>136</ns3:hr>
            <ns3:cad>0</ns3:cad>
          </ns3:TrackPointExtension>
        </extensions>
      </trkpt>
      <trkpt lat="37.98996426165103912353515625" lon="-107.7372026257216930389404296875">
        <ele>3716.39990234375</ele>
        <time>2026-08-15T14:33:58.000Z</time>
        <extensions>
          <ns3:TrackPointExtension>
            <ns3:hr>136</ns3:hr>
            <ns3:cad>0</ns3:cad>
          </ns3:TrackPointExtension>
        </extensions>
      </trkpt>
      <trkpt lat="37.9899966157972812652587890625" lon="-107.73721947334706783294677734375">
        <ele>3717.39990234375</ele>
        <time>2026-08-15T14:34:04.000Z</time>
        <extensions>
          <ns3:TrackPointExtension>
            <ns3:hr>137</ns3:hr>
            <ns3:cad>0</ns3:cad>
          </ns3:TrackPointExtension>
        </extensions>
      </trkpt>
      <trkpt lat="37.99000742845237255096435546875" lon="-107.73722198791801929473876953125">
        <ele>3717.800048828125</ele>
        <time>2026-08-15T14:34:10.000Z</time>
        <extensions>
          <ns3:TrackPointExtension>
            <ns3:hr>136</ns3:hr>
            <ns3:cad>0</ns3:cad>
          </ns3:TrackPointExtension>
        </extensions>
      </trkpt>
      <trkpt lat="37.9900100268423557281494140625" lon="-107.7372227422893047332763671875">
        <ele>3717.60009765625</ele>
        <time>2026-08-15T14:34:12.000Z</time>
        <extensions>
          <ns3:TrackPointExtension>
            <ns3:hr>136</ns3:hr>
            <ns3:cad>0</ns3:cad>
          </ns3:TrackPointExtension>
        </extensions>
      </trkpt>
      <trkpt lat="37.99000047147274017333984375" lon="-107.73722031153738498687744140625">
        <ele>3717.60009765625</ele>
        <time>2026-08-15T14:34:18.000Z</time>
        <extensions>
          <ns3:TrackPointExtension>
            <ns3:hr>135</ns3:hr>
            <ns3:cad>0</ns3:cad>
          </ns3:TrackPointExtension>
        </extensions>
      </trkpt>
      <trkpt lat="37.99000047147274017333984375" lon="-107.73722031153738498687744140625">
        <ele>3717.60009765625</ele>
        <time>2026-08-15T14:34:21.000Z</time>
        <extensions>
          <ns3:TrackPointExtension>
            <ns3:hr>132</ns3:hr>
            <ns3:cad>0</ns3:cad>
          </ns3:TrackPointExtension>
        </extensions>
      </trkpt>
      <trkpt lat="37.99000047147274017333984375" lon="-107.73722031153738498687744140625">
        <ele>3717.60009765625</ele>
        <time>2026-08-15T14:34:22.000Z</time>
        <extensions>
          <ns3:TrackPointExtension>
            <ns3:hr>128</ns3:hr>
            <ns3:cad>0</ns3:cad>
          </ns3:TrackPointExtension>
        </extensions>
      </trkpt>
      <trkpt lat="37.99000047147274017333984375" lon="-107.73722031153738498687744140625">
        <ele>3717.60009765625</ele>
        <time>2026-08-15T14:34:23.000Z</time>
        <extensions>
          <ns3:TrackPointExtension>
            <ns3:hr>121</ns3:hr>
            <ns3:cad>0</ns3:cad>
          </ns3:TrackPointExtension>
        </extensions>
      </trkpt>
      <trkpt lat="37.99000047147274017333984375" lon="-107.73722031153738498687744140625">
        <ele>3717.39990234375</ele>
        <time>2026-08-15T14:34:24.000Z</time>
        <extensions>
          <ns3:TrackPointExtension>
            <ns3:hr>114</ns3:hr>
            <ns3:cad>0</ns3:cad>
          </ns3:TrackPointExtension>
        </extensions>
      </trkpt>
      <trkpt lat="37.99000047147274017333984375" lon="-107.73722031153738498687744140625">
        <ele>3717.39990234375</ele>
        <time>2026-08-15T14:34:25.000Z</time>
        <extensions>
          <ns3:TrackPointExtension>
            <ns3:hr>110</ns3:hr>
            <ns3:cad>0</ns3:cad>
          </ns3:TrackPointExtension>
        </extensions>
      </trkpt>
      <trkpt lat="37.99000047147274017333984375" lon="-107.73722031153738498687744140625">
        <ele>3717.60009765625</ele>
        <time>2026-08-15T14:34:29.000Z</time>
        <extensions>
          <ns3:TrackPointExtension>
            <ns3:hr>107</ns3:hr>
            <ns3:cad>0</ns3:cad>
          </ns3:TrackPointExtension>
        </extensions>
      </trkpt>
      <trkpt lat="37.99000047147274017333984375" lon="-107.73722031153738498687744140625">
        <ele>3717.800048828125</ele>
        <time>2026-08-15T14:34:30.000Z</time>
        <extensions>
          <ns3:TrackPointExtension>
            <ns3:hr>107</ns3:hr>
            <ns3:cad>0</ns3:cad>
          </ns3:TrackPointExtension>
        </extensions>
      </trkpt>
      <trkpt lat="37.99000047147274017333984375" lon="-107.73722031153738498687744140625">
        <ele>3717.199951171875</ele>
        <time>2026-08-15T14:34:36.000Z</time>
        <extensions>
          <ns3:TrackPointExtension>
            <ns3:hr>108</ns3:hr>
            <ns3:cad>0</ns3:cad>
          </ns3:TrackPointExtension>
        </extensions>
      </trkpt>
      <trkpt lat="37.99002620391547679901123046875" lon="-107.737223915755748748779296875">
        <ele>3717.199951171875</ele>
        <time>2026-08-15T14:34:41.000Z</time>
        <extensions>
          <ns3:TrackPointExtension>
            <ns3:hr>108</ns3:hr>
            <ns3:cad>0</ns3:cad>
          </ns3:TrackPointExtension>
        </extensions>
      </trkpt>
      <trkpt lat="37.99006207846105098724365234375" lon="-107.73725333623588085174560546875">
        <ele>3717.39990234375</ele>
        <time>2026-08-15T14:34:47.000Z</time>
        <extensions>
          <ns3:TrackPointExtension>
            <ns3:hr>107</ns3:hr>
            <ns3:cad>0</ns3:cad>
          </ns3:TrackPointExtension>
        </extensions>
      </trkpt>
      <trkpt lat="37.990073226392269134521484375" lon="-107.73728099651634693145751953125">
        <ele>3717.60009765625</ele>
        <time>2026-08-15T14:34:52.000Z</time>
        <extensions>
          <ns3:TrackPointExtension>
            <ns3:hr>104</ns3:hr>
            <ns3:cad>0</ns3:cad>
          </ns3:TrackPointExtension>
        </extensions>
      </trkpt>
      <trkpt lat="37.9900750704109668731689453125" lon="-107.7372864447534084320068359375">
        <ele>3717.60009765625</ele>
        <time>2026-08-15T14:34:53.000Z</time>
        <extensions>
          <ns3:TrackPointExtension>
            <ns3:hr>104</ns3:hr>
            <ns3:cad>0</ns3:cad>
          </ns3:TrackPointExtension>
        </extensions>
      </trkpt>
      <trkpt lat="37.990092001855373382568359375" lon="-107.73729306645691394805908203125">
        <ele>3718</ele>
        <time>2026-08-15T14:34:59.000Z</time>
        <extensions>
          <ns3:TrackPointExtension>
            <ns3:hr>103</ns3:hr>
            <ns3:cad>0</ns3:cad>
          </ns3:TrackPointExtension>
        </extensions>
      </trkpt>
      <trkpt lat="37.99010164104402065277099609375" lon="-107.73728971369564533233642578125">
        <ele>3718.199951171875</ele>
        <time>2026-08-15T14:35:05.000Z</time>
        <extensions>
          <ns3:TrackPointExtension>
            <ns3:hr>101</ns3:hr>
            <ns3:cad>0</ns3:cad>
          </ns3:TrackPointExtension>
        </extensions>
      </trkpt>
      <trkpt lat="37.99010449089109897613525390625" lon="-107.73729734122753143310546875">
        <ele>3718</ele>
        <time>2026-08-15T14:35:06.000Z</time>
        <extensions>
          <ns3:TrackPointExtension>
            <ns3:hr>98</ns3:hr>
            <ns3:cad>0</ns3:cad>
          </ns3:TrackPointExtension>
        </extensions>
      </trkpt>
      <trkpt lat="37.9901092685759067535400390625" lon="-107.7373020350933074951171875">
        <ele>3717.800048828125</ele>
        <time>2026-08-15T14:35:07.000Z</time>
        <extensions>
          <ns3:TrackPointExtension>
            <ns3:hr>94</ns3:hr>
            <ns3:cad>0</ns3:cad>
          </ns3:TrackPointExtension>
        </extensions>
      </trkpt>
      <trkpt lat="37.99011220224201679229736328125" lon="-107.73730547167360782623291015625">
        <ele>3717.800048828125</ele>
        <time>2026-08-15T14:35:08.000Z</time>
        <extensions>
          <ns3:TrackPointExtension>
            <ns3:hr>89</ns3:hr>
            <ns3:cad>0</ns3:cad>
          </ns3:TrackPointExtension>
        </extensions>
      </trkpt>
      <trkpt lat="37.990118153393268585205078125" lon="-107.737307734787464141845703125">
        <ele>3718</ele>
        <time>2026-08-15T14:35:10.000Z</time>
        <extensions>
          <ns3:TrackPointExtension>
            <ns3:hr>86</ns3:hr>
            <ns3:cad>0</ns3:cad>
          </ns3:TrackPointExtension>
        </extensions>
      </trkpt>
      <trkpt lat="37.99012276344001293182373046875" lon="-107.737316451966762542724609375">
        <ele>3718.199951171875</ele>
        <time>2026-08-15T14:35:12.000Z</time>
        <extensions>
          <ns3:TrackPointExtension>
            <ns3:hr>85</ns3:hr>
            <ns3:cad>0</ns3:cad>
          </ns3:TrackPointExtension>
        </extensions>
      </trkpt>
      <trkpt lat="37.99013567157089710235595703125" lon="-107.7373327128589153289794921875">
        <ele>3718.39990234375</ele>
        <time>2026-08-15T14:35:15.000Z</time>
        <extensions>
          <ns3:TrackPointExtension>
            <ns3:hr>85</ns3:hr>
            <ns3:cad>0</ns3:cad>
          </ns3:TrackPointExtension>
        </extensions>
      </trkpt>
      <trkpt lat="37.99015344120562076568603515625" lon="-107.73734117858111858367919921875">
        <ele>3718.800048828125</ele>
        <time>2026-08-15T14:35:18.000Z</time>
        <extensions>
          <ns3:TrackPointExtension>
            <ns3:hr>85</ns3:hr>
            <ns3:cad>0</ns3:cad>
          </ns3:TrackPointExtension>
        </extensions>
      </trkpt>
      <trkpt lat="37.9901756532490253448486328125" lon="-107.737356014549732208251953125">
        <ele>3718.800048828125</ele>
        <time>2026-08-15T14:35:24.000Z</time>
        <extensions>
          <ns3:TrackPointExtension>
            <ns3:hr>85</ns3:hr>
            <ns3:cad>0</ns3:cad>
          </ns3:TrackPointExtension>
        </extensions>
      </trkpt>
      <trkpt lat="37.99017607234418392181396484375" lon="-107.7373595349490642547607421875">
        <ele>3719.199951171875</ele>
        <time>2026-08-15T14:35:30.000Z</time>
        <extensions>
          <ns3:TrackPointExtension>
            <ns3:hr>86</ns3:hr>
            <ns3:cad>0</ns3:cad>
          </ns3:TrackPointExtension>
        </extensions>
      </trkpt>
      <trkpt lat="37.99017607234418392181396484375" lon="-107.7373595349490642547607421875">
        <ele>3719.39990234375</ele>
        <time>2026-08-15T14:35:32.000Z</time>
        <extensions>
          <ns3:TrackPointExtension>
            <ns3:hr>89</ns3:hr>
            <ns3:cad>0</ns3:cad>
          </ns3:TrackPointExtension>
        </extensions>
      </trkpt>
      <trkpt lat="37.99017607234418392181396484375" lon="-107.7373595349490642547607421875">
        <ele>3719.39990234375</ele>
        <time>2026-08-15T14:35:33.000Z</time>
        <extensions>
          <ns3:TrackPointExtension>
            <ns3:hr>89</ns3:hr>
            <ns3:cad>0</ns3:cad>
          </ns3:TrackPointExtension>
        </extensions>
      </trkpt>
      <trkpt lat="37.99017607234418392181396484375" lon="-107.7373595349490642547607421875">
        <ele>3719.60009765625</ele>
        <time>2026-08-15T14:35:34.000Z</time>
        <extensions>
          <ns3:TrackPointExtension>
            <ns3:hr>90</ns3:hr>
            <ns3:cad>0</ns3:cad>
          </ns3:TrackPointExtension>
        </extensions>
      </trkpt>
      <trkpt lat="37.99017607234418392181396484375" lon="-107.7373595349490642547607421875">
        <ele>3719.60009765625</ele>
        <time>2026-08-15T14:35:36.000Z</time>
        <extensions>
          <ns3:TrackPointExtension>
            <ns3:hr>93</ns3:hr>
            <ns3:cad>0</ns3:cad>
          </ns3:TrackPointExtension>
        </extensions>
      </trkpt>
      <trkpt lat="37.99017607234418392181396484375" lon="-107.7373595349490642547607421875">
        <ele>3719.199951171875</ele>
        <time>2026-08-15T14:35:42.000Z</time>
        <extensions>
          <ns3:TrackPointExtension>
            <ns3:hr>94</ns3:hr>
            <ns3:cad>0</ns3:cad>
          </ns3:TrackPointExtension>
        </extensions>
      </trkpt>
      <trkpt lat="37.99017607234418392181396484375" lon="-107.7373595349490642547607421875">
        <ele>3719.199951171875</ele>
        <time>2026-08-15T14:35:43.000Z</time>
        <extensions>
          <ns3:TrackPointExtension>
            <ns3:hr>95</ns3:hr>
            <ns3:cad>0</ns3:cad>
          </ns3:TrackPointExtension>
        </extensions>
      </trkpt>
      <trkpt lat="37.99017607234418392181396484375" lon="-107.7373595349490642547607421875">
        <ele>3719.800048828125</ele>
        <time>2026-08-15T14:35:49.000Z</time>
        <extensions>
          <ns3:TrackPointExtension>
            <ns3:hr>94</ns3:hr>
            <ns3:cad>0</ns3:cad>
          </ns3:TrackPointExtension>
        </extensions>
      </trkpt>
      <trkpt lat="37.99017607234418392181396484375" lon="-107.7373595349490642547607421875">
        <ele>3719.60009765625</ele>
        <time>2026-08-15T14:35:54.000Z</time>
        <extensions>
          <ns3:TrackPointExtension>
            <ns3:hr>92</ns3:hr>
            <ns3:cad>0</ns3:cad>
          </ns3:TrackPointExtension>
        </extensions>
      </trkpt>
      <trkpt lat="37.99017607234418392181396484375" lon="-107.7373595349490642547607421875">
        <ele>3719.800048828125</ele>
        <time>2026-08-15T14:36:00.000Z</time>
        <extensions>
          <ns3:TrackPointExtension>
            <ns3:hr>90</ns3:hr>
            <ns3:cad>0</ns3:cad>
          </ns3:TrackPointExtension>
        </extensions>
      </trkpt>
      <trkpt lat="37.99017607234418392181396484375" lon="-107.7373595349490642547607421875">
        <ele>3720</ele>
        <time>2026-08-15T14:36:05.000Z</time>
        <extensions>
          <ns3:TrackPointExtension>
            <ns3:hr>91</ns3:hr>
            <ns3:cad>0</ns3:cad>
          </ns3:TrackPointExtension>
        </extensions>
      </trkpt>
      <trkpt lat="37.99017607234418392181396484375" lon="-107.7373595349490642547607421875">
        <ele>3719</ele>
        <time>2026-08-15T14:36:11.000Z</time>
        <extensions>
          <ns3:TrackPointExtension>
            <ns3:hr>89</ns3:hr>
            <ns3:cad>0</ns3:cad>
          </ns3:TrackPointExtension>
        </extensions>
      </trkpt>
      <trkpt lat="37.99017607234418392181396484375" lon="-107.7373595349490642547607421875">
        <ele>3719.39990234375</ele>
        <time>2026-08-15T14:36:15.000Z</time>
        <extensions>
          <ns3:TrackPointExtension>
            <ns3:hr>92</ns3:hr>
            <ns3:cad>0</ns3:cad>
          </ns3:TrackPointExtension>
        </extensions>
      </trkpt>
      <trkpt lat="37.99017607234418392181396484375" lon="-107.7373595349490642547607421875">
        <ele>3719.60009765625</ele>
        <time>2026-08-15T14:36:17.000Z</time>
        <extensions>
          <ns3:TrackPointExtension>
            <ns3:hr>95</ns3:hr>
            <ns3:cad>0</ns3:cad>
          </ns3:TrackPointExtension>
        </extensions>
      </trkpt>
      <trkpt lat="37.99017623998224735260009765625" lon="-107.7373652346432209014892578125">
        <ele>3719.60009765625</ele>
        <time>2026-08-15T14:36:18.000Z</time>
        <extensions>
          <ns3:TrackPointExtension>
            <ns3:hr>95</ns3:hr>
            <ns3:cad>0</ns3:cad>
          </ns3:TrackPointExtension>
        </extensions>
      </trkpt>
      <trkpt lat="37.99017607234418392181396484375" lon="-107.7373595349490642547607421875">
        <ele>3720.39990234375</ele>
        <time>2026-08-15T14:36:24.000Z</time>
        <extensions>
          <ns3:TrackPointExtension>
            <ns3:hr>97</ns3:hr>
            <ns3:cad>0</ns3:cad>
          </ns3:TrackPointExtension>
        </extensions>
      </trkpt>
      <trkpt lat="37.99017607234418392181396484375" lon="-107.7373595349490642547607421875">
        <ele>3720.39990234375</ele>
        <time>2026-08-15T14:36:25.000Z</time>
        <extensions>
          <ns3:TrackPointExtension>
            <ns3:hr>97</ns3:hr>
            <ns3:cad>0</ns3:cad>
          </ns3:TrackPointExtension>
        </extensions>
      </trkpt>
      <trkpt lat="37.99017607234418392181396484375" lon="-107.7373595349490642547607421875">
        <ele>3720.39990234375</ele>
        <time>2026-08-15T14:36:31.000Z</time>
        <extensions>
          <ns3:TrackPointExtension>
            <ns3:hr>98</ns3:hr>
            <ns3:cad>0</ns3:cad>
          </ns3:TrackPointExtension>
        </extensions>
      </trkpt>
      <trkpt lat="37.99017607234418392181396484375" lon="-107.7373595349490642547607421875">
        <ele>3720.60009765625</ele>
        <time>2026-08-15T14:36:37.000Z</time>
        <extensions>
          <ns3:TrackPointExtension>
            <ns3:hr>99</ns3:hr>
            <ns3:cad>0</ns3:cad>
          </ns3:TrackPointExtension>
        </extensions>
      </trkpt>
      <trkpt lat="37.99017607234418392181396484375" lon="-107.7373595349490642547607421875">
        <ele>3720.39990234375</ele>
        <time>2026-08-15T14:36:43.000Z</time>
        <extensions>
          <ns3:TrackPointExtension>
            <ns3:hr>99</ns3:hr>
            <ns3:cad>0</ns3:cad>
          </ns3:TrackPointExtension>
        </extensions>
      </trkpt>
      <trkpt lat="37.99017607234418392181396484375" lon="-107.7373595349490642547607421875">
        <ele>3720.199951171875</ele>
        <time>2026-08-15T14:36:48.000Z</time>
        <extensions>
          <ns3:TrackPointExtension>
            <ns3:hr>96</ns3:hr>
            <ns3:cad>0</ns3:cad>
          </ns3:TrackPointExtension>
        </extensions>
      </trkpt>
      <trkpt lat="37.99017607234418392181396484375" lon="-107.7373595349490642547607421875">
        <ele>3720.60009765625</ele>
        <time>2026-08-15T14:36:54.000Z</time>
        <extensions>
          <ns3:TrackPointExtension>
            <ns3:hr>95</ns3:hr>
            <ns3:cad>0</ns3:cad>
          </ns3:TrackPointExtension>
        </extensions>
      </trkpt>
      <trkpt lat="37.99017607234418392181396484375" lon="-107.7373595349490642547607421875">
        <ele>3720.60009765625</ele>
        <time>2026-08-15T14:36:55.000Z</time>
        <extensions>
          <ns3:TrackPointExtension>
            <ns3:hr>95</ns3:hr>
            <ns3:cad>0</ns3:cad>
          </ns3:TrackPointExtension>
        </extensions>
      </trkpt>
      <trkpt lat="37.99017607234418392181396484375" lon="-107.7373595349490642547607421875">
        <ele>3721.199951171875</ele>
        <time>2026-08-15T14:37:01.000Z</time>
        <extensions>
          <ns3:TrackPointExtension>
            <ns3:hr>95</ns3:hr>
            <ns3:cad>0</ns3:cad>
          </ns3:TrackPointExtension>
        </extensions>
      </trkpt>
      <trkpt lat="37.99017607234418392181396484375" lon="-107.7373595349490642547607421875">
        <ele>3721.199951171875</ele>
        <time>2026-08-15T14:37:07.000Z</time>
        <extensions>
          <ns3:TrackPointExtension>
            <ns3:hr>95</ns3:hr>
            <ns3:cad>0</ns3:cad>
          </ns3:TrackPointExtension>
        </extensions>
      </trkpt>
      <trkpt lat="37.99017607234418392181396484375" lon="-107.7373595349490642547607421875">
        <ele>3721.39990234375</ele>
        <time>2026-08-15T14:37:10.000Z</time>
        <extensions>
          <ns3:TrackPointExtension>
            <ns3:hr>94</ns3:hr>
            <ns3:cad>0</ns3:cad>
          </ns3:TrackPointExtension>
        </extensions>
      </trkpt>
      <trkpt lat="37.99017607234418392181396484375" lon="-107.7373595349490642547607421875">
        <ele>3721.60009765625</ele>
        <time>2026-08-15T14:37:13.000Z</time>
        <extensions>
          <ns3:TrackPointExtension>
            <ns3:hr>91</ns3:hr>
            <ns3:cad>0</ns3:cad>
          </ns3:TrackPointExtension>
        </extensions>
      </trkpt>
      <trkpt lat="37.99017607234418392181396484375" lon="-107.7373595349490642547607421875">
        <ele>3721.800048828125</ele>
        <time>2026-08-15T14:37:19.000Z</time>
        <extensions>
          <ns3:TrackPointExtension>
            <ns3:hr>92</ns3:hr>
            <ns3:cad>0</ns3:cad>
          </ns3:TrackPointExtension>
        </extensions>
      </trkpt>
      <trkpt lat="37.99017607234418392181396484375" lon="-107.7373595349490642547607421875">
        <ele>3722.199951171875</ele>
        <time>2026-08-15T14:37:25.000Z</time>
        <extensions>
          <ns3:TrackPointExtension>
            <ns3:hr>92</ns3:hr>
            <ns3:cad>0</ns3:cad>
          </ns3:TrackPointExtension>
        </extensions>
      </trkpt>
      <trkpt lat="37.99017607234418392181396484375" lon="-107.7373595349490642547607421875">
        <ele>3722</ele>
        <time>2026-08-15T14:37:29.000Z</time>
        <extensions>
          <ns3:TrackPointExtension>
            <ns3:hr>92</ns3:hr>
            <ns3:cad>0</ns3:cad>
          </ns3:TrackPointExtension>
        </extensions>
      </trkpt>
      <trkpt lat="37.99017607234418392181396484375" lon="-107.7373595349490642547607421875">
        <ele>3722.39990234375</ele>
        <time>2026-08-15T14:37:35.000Z</time>
        <extensions>
          <ns3:TrackPointExtension>
            <ns3:hr>92</ns3:hr>
            <ns3:cad>0</ns3:cad>
          </ns3:TrackPointExtension>
        </extensions>
      </trkpt>
      <trkpt lat="37.99017607234418392181396484375" lon="-107.7373595349490642547607421875">
        <ele>3722.39990234375</ele>
        <time>2026-08-15T14:37:37.000Z</time>
        <extensions>
          <ns3:TrackPointExtension>
            <ns3:hr>95</ns3:hr>
            <ns3:cad>0</ns3:cad>
          </ns3:TrackPointExtension>
        </extensions>
      </trkpt>
      <trkpt lat="37.99017439596354961395263671875" lon="-107.73735643364489078521728515625">
        <ele>3722</ele>
        <time>2026-08-15T14:37:40.000Z</time>
        <extensions>
          <ns3:TrackPointExtension>
            <ns3:hr>94</ns3:hr>
            <ns3:cad>0</ns3:cad>
          </ns3:TrackPointExtension>
        </extensions>
      </trkpt>
      <trkpt lat="37.99017976038157939910888671875" lon="-107.73735391907393932342529296875">
        <ele>3722.199951171875</ele>
        <time>2026-08-15T14:37:43.000Z</time>
        <extensions>
          <ns3:TrackPointExtension>
            <ns3:hr>91</ns3:hr>
            <ns3:cad>0</ns3:cad>
          </ns3:TrackPointExtension>
        </extensions>
      </trkpt>
      <trkpt lat="37.99017489887773990631103515625" lon="-107.73735190741717815399169921875">
        <ele>3722.39990234375</ele>
        <time>2026-08-15T14:37:46.000Z</time>
        <extensions>
          <ns3:TrackPointExtension>
            <ns3:hr>91</ns3:hr>
            <ns3:cad>40</ns3:cad>
          </ns3:TrackPointExtension>
        </extensions>
      </trkpt>
      <trkpt lat="37.99017607234418392181396484375" lon="-107.7373595349490642547607421875">
        <ele>3722</ele>
        <time>2026-08-15T14:37:49.000Z</time>
        <extensions>
          <ns3:TrackPointExtension>
            <ns3:hr>94</ns3:hr>
            <ns3:cad>0</ns3:cad>
          </ns3:TrackPointExtension>
        </extensions>
      </trkpt>
      <trkpt lat="37.99017607234418392181396484375" lon="-107.7373595349490642547607421875">
        <ele>3722.39990234375</ele>
        <time>2026-08-15T14:37:55.000Z</time>
        <extensions>
          <ns3:TrackPointExtension>
            <ns3:hr>95</ns3:hr>
            <ns3:cad>0</ns3:cad>
          </ns3:TrackPointExtension>
        </extensions>
      </trkpt>
      <trkpt lat="37.99017607234418392181396484375" lon="-107.7373595349490642547607421875">
        <ele>3722.60009765625</ele>
        <time>2026-08-15T14:37:56.000Z</time>
        <extensions>
          <ns3:TrackPointExtension>
            <ns3:hr>95</ns3:hr>
            <ns3:cad>0</ns3:cad>
          </ns3:TrackPointExtension>
        </extensions>
      </trkpt>
      <trkpt lat="37.99017607234418392181396484375" lon="-107.7373595349490642547607421875">
        <ele>3722.800048828125</ele>
        <time>2026-08-15T14:37:57.000Z</time>
        <extensions>
          <ns3:TrackPointExtension>
            <ns3:hr>95</ns3:hr>
            <ns3:cad>0</ns3:cad>
          </ns3:TrackPointExtension>
        </extensions>
      </trkpt>
      <trkpt lat="37.99017607234418392181396484375" lon="-107.7373595349490642547607421875">
        <ele>3722.800048828125</ele>
        <time>2026-08-15T14:38:00.000Z</time>
        <extensions>
          <ns3:TrackPointExtension>
            <ns3:hr>99</ns3:hr>
            <ns3:cad>0</ns3:cad>
          </ns3:TrackPointExtension>
        </extensions>
      </trkpt>
      <trkpt lat="37.9901786707341670989990234375" lon="-107.73735827766358852386474609375">
        <ele>3722.800048828125</ele>
        <time>2026-08-15T14:38:04.000Z</time>
        <extensions>
          <ns3:TrackPointExtension>
            <ns3:hr>98</ns3:hr>
            <ns3:cad>0</ns3:cad>
          </ns3:TrackPointExtension>
        </extensions>
      </trkpt>
      <trkpt lat="37.99017749726772308349609375" lon="-107.73735542781651020050048828125">
        <ele>3722.39990234375</ele>
        <time>2026-08-15T14:38:10.000Z</time>
        <extensions>
          <ns3:TrackPointExtension>
            <ns3:hr>98</ns3:hr>
            <ns3:cad>45</ns3:cad>
          </ns3:TrackPointExtension>
        </extensions>
      </trkpt>
      <trkpt lat="37.99017607234418392181396484375" lon="-107.7373595349490642547607421875">
        <ele>3722.60009765625</ele>
        <time>2026-08-15T14:38:16.000Z</time>
        <extensions>
          <ns3:TrackPointExtension>
            <ns3:hr>98</ns3:hr>
            <ns3:cad>0</ns3:cad>
          </ns3:TrackPointExtension>
        </extensions>
      </trkpt>
      <trkpt lat="37.99017607234418392181396484375" lon="-107.7373595349490642547607421875">
        <ele>3722.60009765625</ele>
        <time>2026-08-15T14:38:17.000Z</time>
        <extensions>
          <ns3:TrackPointExtension>
            <ns3:hr>98</ns3:hr>
            <ns3:cad>0</ns3:cad>
          </ns3:TrackPointExtension>
        </extensions>
      </trkpt>
      <trkpt lat="37.99017607234418392181396484375" lon="-107.7373595349490642547607421875">
        <ele>3722.60009765625</ele>
        <time>2026-08-15T14:38:23.000Z</time>
        <extensions>
          <ns3:TrackPointExtension>
            <ns3:hr>98</ns3:hr>
            <ns3:cad>0</ns3:cad>
          </ns3:TrackPointExtension>
        </extensions>
      </trkpt>
      <trkpt lat="37.99017607234418392181396484375" lon="-107.7373595349490642547607421875">
        <ele>3722.800048828125</ele>
        <time>2026-08-15T14:38:24.000Z</time>
        <extensions>
          <ns3:TrackPointExtension>
            <ns3:hr>98</ns3:hr>
            <ns3:cad>0</ns3:cad>
          </ns3:TrackPointExtension>
        </extensions>
      </trkpt>
      <trkpt lat="37.99017607234418392181396484375" lon="-107.7373595349490642547607421875">
        <ele>3723</ele>
        <time>2026-08-15T14:38:30.000Z</time>
        <extensions>
          <ns3:TrackPointExtension>
            <ns3:hr>96</ns3:hr>
            <ns3:cad>0</ns3:cad>
          </ns3:TrackPointExtension>
        </extensions>
      </trkpt>
      <trkpt lat="37.99017607234418392181396484375" lon="-107.7373595349490642547607421875">
        <ele>3723</ele>
        <time>2026-08-15T14:38:31.000Z</time>
        <extensions>
          <ns3:TrackPointExtension>
            <ns3:hr>95</ns3:hr>
            <ns3:cad>0</ns3:cad>
          </ns3:TrackPointExtension>
        </extensions>
      </trkpt>
      <trkpt lat="37.99017607234418392181396484375" lon="-107.7373595349490642547607421875">
        <ele>3722.800048828125</ele>
        <time>2026-08-15T14:38:32.000Z</time>
        <extensions>
          <ns3:TrackPointExtension>
            <ns3:hr>91</ns3:hr>
            <ns3:cad>0</ns3:cad>
          </ns3:TrackPointExtension>
        </extensions>
      </trkpt>
      <trkpt lat="37.99017607234418392181396484375" lon="-107.7373595349490642547607421875">
        <ele>3722.800048828125</ele>
        <time>2026-08-15T14:38:33.000Z</time>
        <extensions>
          <ns3:TrackPointExtension>
            <ns3:hr>87</ns3:hr>
            <ns3:cad>0</ns3:cad>
          </ns3:TrackPointExtension>
        </extensions>
      </trkpt>
      <trkpt lat="37.99018093384802341461181640625" lon="-107.73735844530165195465087890625">
        <ele>3722.800048828125</ele>
        <time>2026-08-15T14:38:34.000Z</time>
        <extensions>
          <ns3:TrackPointExtension>
            <ns3:hr>87</ns3:hr>
            <ns3:cad>0</ns3:cad>
          </ns3:TrackPointExtension>
        </extensions>
      </trkpt>
      <trkpt lat="37.99017607234418392181396484375" lon="-107.7373595349490642547607421875">
        <ele>3722.199951171875</ele>
        <time>2026-08-15T14:38:38.000Z</time>
        <extensions>
          <ns3:TrackPointExtension>
            <ns3:hr>89</ns3:hr>
            <ns3:cad>0</ns3:cad>
          </ns3:TrackPointExtension>
        </extensions>
      </trkpt>
      <trkpt lat="37.99017607234418392181396484375" lon="-107.7373595349490642547607421875">
        <ele>3722.39990234375</ele>
        <time>2026-08-15T14:38:43.000Z</time>
        <extensions>
          <ns3:TrackPointExtension>
            <ns3:hr>85</ns3:hr>
            <ns3:cad>0</ns3:cad>
          </ns3:TrackPointExtension>
        </extensions>
      </trkpt>
      <trkpt lat="37.99017607234418392181396484375" lon="-107.7373595349490642547607421875">
        <ele>3722.60009765625</ele>
        <time>2026-08-15T14:38:49.000Z</time>
        <extensions>
          <ns3:TrackPointExtension>
            <ns3:hr>84</ns3:hr>
            <ns3:cad>0</ns3:cad>
          </ns3:TrackPointExtension>
        </extensions>
      </trkpt>
      <trkpt lat="37.99017607234418392181396484375" lon="-107.7373595349490642547607421875">
        <ele>3722.60009765625</ele>
        <time>2026-08-15T14:38:51.000Z</time>
        <extensions>
          <ns3:TrackPointExtension>
            <ns3:hr>84</ns3:hr>
            <ns3:cad>0</ns3:cad>
          </ns3:TrackPointExtension>
        </extensions>
      </trkpt>
      <trkpt lat="37.99017607234418392181396484375" lon="-107.7373595349490642547607421875">
        <ele>3722.60009765625</ele>
        <time>2026-08-15T14:38:57.000Z</time>
        <extensions>
          <ns3:TrackPointExtension>
            <ns3:hr>86</ns3:hr>
            <ns3:cad>0</ns3:cad>
          </ns3:TrackPointExtension>
        </extensions>
      </trkpt>
      <trkpt lat="37.99019099213182926177978515625" lon="-107.73737202398478984832763671875">
        <ele>3722.39990234375</ele>
        <time>2026-08-15T14:39:02.000Z</time>
        <extensions>
          <ns3:TrackPointExtension>
            <ns3:hr>84</ns3:hr>
            <ns3:cad>0</ns3:cad>
          </ns3:TrackPointExtension>
        </extensions>
      </trkpt>
      <trkpt lat="37.9902125336229801177978515625" lon="-107.73738157935440540313720703125">
        <ele>3723</ele>
        <time>2026-08-15T14:39:06.000Z</time>
        <extensions>
          <ns3:TrackPointExtension>
            <ns3:hr>81</ns3:hr>
            <ns3:cad>0</ns3:cad>
          </ns3:TrackPointExtension>
        </extensions>
      </trkpt>
      <trkpt lat="37.990215718746185302734375" lon="-107.7373851835727691650390625">
        <ele>3723</ele>
        <time>2026-08-15T14:39:07.000Z</time>
        <extensions>
          <ns3:TrackPointExtension>
            <ns3:hr>81</ns3:hr>
            <ns3:cad>0</ns3:cad>
          </ns3:TrackPointExtension>
        </extensions>
      </trkpt>
      <trkpt lat="37.99026408232748508453369140625" lon="-107.737390883266925811767578125">
        <ele>3723.800048828125</ele>
        <time>2026-08-15T14:39:13.000Z</time>
        <extensions>
          <ns3:TrackPointExtension>
            <ns3:hr>80</ns3:hr>
            <ns3:cad>0</ns3:cad>
          </ns3:TrackPointExtension>
        </extensions>
      </trkpt>
      <trkpt lat="37.9902725480496883392333984375" lon="-107.7373933978378772735595703125">
        <ele>3723.800048828125</ele>
        <time>2026-08-15T14:39:14.000Z</time>
        <extensions>
          <ns3:TrackPointExtension>
            <ns3:hr>80</ns3:hr>
            <ns3:cad>0</ns3:cad>
          </ns3:TrackPointExtension>
        </extensions>
      </trkpt>
      <trkpt lat="37.99029626883566379547119140625" lon="-107.73739968426525592803955078125">
        <ele>3724.199951171875</ele>
        <time>2026-08-15T14:39:20.000Z</time>
        <extensions>
          <ns3:TrackPointExtension>
            <ns3:hr>81</ns3:hr>
            <ns3:cad>0</ns3:cad>
          </ns3:TrackPointExtension>
        </extensions>
      </trkpt>
      <trkpt lat="37.99030649475753307342529296875" lon="-107.737407647073268890380859375">
        <ele>3724.39990234375</ele>
        <time>2026-08-15T14:39:23.000Z</time>
        <extensions>
          <ns3:TrackPointExtension>
            <ns3:hr>83</ns3:hr>
            <ns3:cad>0</ns3:cad>
          </ns3:TrackPointExtension>
        </extensions>
      </trkpt>
      <trkpt lat="37.99034270457923412322998046875" lon="-107.7374225668609142303466796875">
        <ele>3724.199951171875</ele>
        <time>2026-08-15T14:39:29.000Z</time>
        <extensions>
          <ns3:TrackPointExtension>
            <ns3:hr>86</ns3:hr>
            <ns3:cad>0</ns3:cad>
          </ns3:TrackPointExtension>
        </extensions>
      </trkpt>
      <trkpt lat="37.99035452306270599365234375" lon="-107.737431786954402923583984375">
        <ele>3724.60009765625</ele>
        <time>2026-08-15T14:39:32.000Z</time>
        <extensions>
          <ns3:TrackPointExtension>
            <ns3:hr>89</ns3:hr>
            <ns3:cad>0</ns3:cad>
          </ns3:TrackPointExtension>
        </extensions>
      </trkpt>
      <trkpt lat="37.9903577081859111785888671875" lon="-107.7374334633350372314453125">
        <ele>3724.800048828125</ele>
        <time>2026-08-15T14:39:33.000Z</time>
        <extensions>
          <ns3:TrackPointExtension>
            <ns3:hr>91</ns3:hr>
            <ns3:cad>0</ns3:cad>
          </ns3:TrackPointExtension>
        </extensions>
      </trkpt>
      <trkpt lat="37.99037237651646137237548828125" lon="-107.7374400012195110321044921875">
        <ele>3725.39990234375</ele>
        <time>2026-08-15T14:39:35.000Z</time>
        <extensions>
          <ns3:TrackPointExtension>
            <ns3:hr>96</ns3:hr>
            <ns3:cad>0</ns3:cad>
          </ns3:TrackPointExtension>
        </extensions>
      </trkpt>
      <trkpt lat="37.99038696102797985076904296875" lon="-107.7374413423240184783935546875">
        <ele>3725.39990234375</ele>
        <time>2026-08-15T14:39:37.000Z</time>
        <extensions>
          <ns3:TrackPointExtension>
            <ns3:hr>99</ns3:hr>
            <ns3:cad>0</ns3:cad>
          </ns3:TrackPointExtension>
        </extensions>
      </trkpt>
      <trkpt lat="37.990401796996593475341796875" lon="-107.73744544945657253265380859375">
        <ele>3725.199951171875</ele>
        <time>2026-08-15T14:39:39.000Z</time>
        <extensions>
          <ns3:TrackPointExtension>
            <ns3:hr>100</ns3:hr>
            <ns3:cad>0</ns3:cad>
          </ns3:TrackPointExtension>
        </extensions>
      </trkpt>
      <trkpt lat="37.9904227517545223236083984375" lon="-107.73745517246425151824951171875">
        <ele>3726</ele>
        <time>2026-08-15T14:39:43.000Z</time>
        <extensions>
          <ns3:TrackPointExtension>
            <ns3:hr>100</ns3:hr>
            <ns3:cad>0</ns3:cad>
          </ns3:TrackPointExtension>
        </extensions>
      </trkpt>
      <trkpt lat="37.99042182974517345428466796875" lon="-107.737453915178775787353515625">
        <ele>3727</ele>
        <time>2026-08-15T14:39:46.000Z</time>
        <extensions>
          <ns3:TrackPointExtension>
            <ns3:hr>101</ns3:hr>
            <ns3:cad>0</ns3:cad>
          </ns3:TrackPointExtension>
        </extensions>
      </trkpt>
      <trkpt lat="37.99042182974517345428466796875" lon="-107.737453915178775787353515625">
        <ele>3727.199951171875</ele>
        <time>2026-08-15T14:39:47.000Z</time>
        <extensions>
          <ns3:TrackPointExtension>
            <ns3:hr>102</ns3:hr>
            <ns3:cad>0</ns3:cad>
          </ns3:TrackPointExtension>
        </extensions>
      </trkpt>
      <trkpt lat="37.99043054692447185516357421875" lon="-107.737455256283283233642578125">
        <ele>3727</ele>
        <time>2026-08-15T14:39:50.000Z</time>
        <extensions>
          <ns3:TrackPointExtension>
            <ns3:hr>105</ns3:hr>
            <ns3:cad>0</ns3:cad>
          </ns3:TrackPointExtension>
        </extensions>
      </trkpt>
      <trkpt lat="37.9904465563595294952392578125" lon="-107.7374654822051525115966796875">
        <ele>3726.60009765625</ele>
        <time>2026-08-15T14:39:53.000Z</time>
        <extensions>
          <ns3:TrackPointExtension>
            <ns3:hr>106</ns3:hr>
            <ns3:cad>0</ns3:cad>
          </ns3:TrackPointExtension>
        </extensions>
      </trkpt>
      <trkpt lat="37.99046793021261692047119140625" lon="-107.73746942169964313507080078125">
        <ele>3727.199951171875</ele>
        <time>2026-08-15T14:39:59.000Z</time>
        <extensions>
          <ns3:TrackPointExtension>
            <ns3:hr>106</ns3:hr>
            <ns3:cad>0</ns3:cad>
          </ns3:TrackPointExtension>
        </extensions>
      </trkpt>
      <trkpt lat="37.990486957132816314697265625" lon="-107.737487442791461944580078125">
        <ele>3727.60009765625</ele>
        <time>2026-08-15T14:40:05.000Z</time>
        <extensions>
          <ns3:TrackPointExtension>
            <ns3:hr>106</ns3:hr>
            <ns3:cad>0</ns3:cad>
          </ns3:TrackPointExtension>
        </extensions>
      </trkpt>
      <trkpt lat="37.9904914833605289459228515625" lon="-107.73749121464788913726806640625">
        <ele>3727.800048828125</ele>
        <time>2026-08-15T14:40:06.000Z</time>
        <extensions>
          <ns3:TrackPointExtension>
            <ns3:hr>106</ns3:hr>
            <ns3:cad>0</ns3:cad>
          </ns3:TrackPointExtension>
        </extensions>
      </trkpt>
      <trkpt lat="37.9905002005398273468017578125" lon="-107.737494818866252899169921875">
        <ele>3728.199951171875</ele>
        <time>2026-08-15T14:40:08.000Z</time>
        <extensions>
          <ns3:TrackPointExtension>
            <ns3:hr>104</ns3:hr>
            <ns3:cad>0</ns3:cad>
          </ns3:TrackPointExtension>
        </extensions>
      </trkpt>
      <trkpt lat="37.99052593298256397247314453125" lon="-107.737518288195133209228515625">
        <ele>3728.60009765625</ele>
        <time>2026-08-15T14:40:14.000Z</time>
        <extensions>
          <ns3:TrackPointExtension>
            <ns3:hr>103</ns3:hr>
            <ns3:cad>0</ns3:cad>
          </ns3:TrackPointExtension>
        </extensions>
      </trkpt>
      <trkpt lat="37.990541942417621612548828125" lon="-107.73753697983920574188232421875">
        <ele>3729.199951171875</ele>
        <time>2026-08-15T14:40:18.000Z</time>
        <extensions>
          <ns3:TrackPointExtension>
            <ns3:hr>104</ns3:hr>
            <ns3:cad>0</ns3:cad>
          </ns3:TrackPointExtension>
        </extensions>
      </trkpt>
      <trkpt lat="37.99054336734116077423095703125" lon="-107.7375315316021442413330078125">
        <ele>3729.60009765625</ele>
        <time>2026-08-15T14:40:21.000Z</time>
        <extensions>
          <ns3:TrackPointExtension>
            <ns3:hr>105</ns3:hr>
            <ns3:cad>0</ns3:cad>
          </ns3:TrackPointExtension>
        </extensions>
      </trkpt>
      <trkpt lat="37.9905434511601924896240234375" lon="-107.73753094486892223358154296875">
        <ele>3729.800048828125</ele>
        <time>2026-08-15T14:40:24.000Z</time>
        <extensions>
          <ns3:TrackPointExtension>
            <ns3:hr>102</ns3:hr>
            <ns3:cad>0</ns3:cad>
          </ns3:TrackPointExtension>
        </extensions>
      </trkpt>
      <trkpt lat="37.99054286442697048187255859375" lon="-107.7375278435647487640380859375">
        <ele>3730</ele>
        <time>2026-08-15T14:40:29.000Z</time>
        <extensions>
          <ns3:TrackPointExtension>
            <ns3:hr>99</ns3:hr>
            <ns3:cad>0</ns3:cad>
          </ns3:TrackPointExtension>
        </extensions>
      </trkpt>
      <trkpt lat="37.99055258743464946746826171875" lon="-107.73753480054438114166259765625">
        <ele>3730</ele>
        <time>2026-08-15T14:40:31.000Z</time>
        <extensions>
          <ns3:TrackPointExtension>
            <ns3:hr>98</ns3:hr>
            <ns3:cad>0</ns3:cad>
          </ns3:TrackPointExtension>
        </extensions>
      </trkpt>
      <trkpt lat="37.99057639203965663909912109375" lon="-107.737542428076267242431640625">
        <ele>3730.39990234375</ele>
        <time>2026-08-15T14:40:35.000Z</time>
        <extensions>
          <ns3:TrackPointExtension>
            <ns3:hr>96</ns3:hr>
            <ns3:cad>0</ns3:cad>
          </ns3:TrackPointExtension>
        </extensions>
      </trkpt>
      <trkpt lat="37.9905991069972515106201171875" lon="-107.737558186054229736328125">
        <ele>3731</ele>
        <time>2026-08-15T14:40:38.000Z</time>
        <extensions>
          <ns3:TrackPointExtension>
            <ns3:hr>95</ns3:hr>
            <ns3:cad>0</ns3:cad>
          </ns3:TrackPointExtension>
        </extensions>
      </trkpt>
      <trkpt lat="37.99062668345868587493896484375" lon="-107.7375734411180019378662109375">
        <ele>3731.39990234375</ele>
        <time>2026-08-15T14:40:42.000Z</time>
        <extensions>
          <ns3:TrackPointExtension>
            <ns3:hr>97</ns3:hr>
            <ns3:cad>0</ns3:cad>
          </ns3:TrackPointExtension>
        </extensions>
      </trkpt>
      <trkpt lat="37.99064663238823413848876953125" lon="-107.737582661211490631103515625">
        <ele>3732</ele>
        <time>2026-08-15T14:40:45.000Z</time>
        <extensions>
          <ns3:TrackPointExtension>
            <ns3:hr>100</ns3:hr>
            <ns3:cad>0</ns3:cad>
          </ns3:TrackPointExtension>
        </extensions>
      </trkpt>
      <trkpt lat="37.99065467901527881622314453125" lon="-107.737592048943042755126953125">
        <ele>3732.39990234375</ele>
        <time>2026-08-15T14:40:47.000Z</time>
        <extensions>
          <ns3:TrackPointExtension>
            <ns3:hr>103</ns3:hr>
            <ns3:cad>0</ns3:cad>
          </ns3:TrackPointExtension>
        </extensions>
      </trkpt>
      <trkpt lat="37.9906581155955791473388671875" lon="-107.7375928871333599090576171875">
        <ele>3732.39990234375</ele>
        <time>2026-08-15T14:40:49.000Z</time>
        <extensions>
          <ns3:TrackPointExtension>
            <ns3:hr>106</ns3:hr>
            <ns3:cad>0</ns3:cad>
          </ns3:TrackPointExtension>
        </extensions>
      </trkpt>
      <trkpt lat="37.9906730353832244873046875" lon="-107.737592719495296478271484375">
        <ele>3732.39990234375</ele>
        <time>2026-08-15T14:40:52.000Z</time>
        <extensions>
          <ns3:TrackPointExtension>
            <ns3:hr>107</ns3:hr>
            <ns3:cad>0</ns3:cad>
          </ns3:TrackPointExtension>
        </extensions>
      </trkpt>
      <trkpt lat="37.99067881889641284942626953125" lon="-107.73759950883686542510986328125">
        <ele>3733</ele>
        <time>2026-08-15T14:40:54.000Z</time>
        <extensions>
          <ns3:TrackPointExtension>
            <ns3:hr>107</ns3:hr>
            <ns3:cad>0</ns3:cad>
          </ns3:TrackPointExtension>
        </extensions>
      </trkpt>
      <trkpt lat="37.9906916432082653045654296875" lon="-107.737602777779102325439453125">
        <ele>3733.60009765625</ele>
        <time>2026-08-15T14:40:58.000Z</time>
        <extensions>
          <ns3:TrackPointExtension>
            <ns3:hr>108</ns3:hr>
            <ns3:cad>0</ns3:cad>
          </ns3:TrackPointExtension>
        </extensions>
      </trkpt>
      <trkpt lat="37.99069189466536045074462890625" lon="-107.7376012690365314483642578125">
        <ele>3734</ele>
        <time>2026-08-15T14:41:02.000Z</time>
        <extensions>
          <ns3:TrackPointExtension>
            <ns3:hr>107</ns3:hr>
            <ns3:cad>0</ns3:cad>
          </ns3:TrackPointExtension>
        </extensions>
      </trkpt>
      <trkpt lat="37.99069189466536045074462890625" lon="-107.7376012690365314483642578125">
        <ele>3734</ele>
        <time>2026-08-15T14:41:08.000Z</time>
        <extensions>
          <ns3:TrackPointExtension>
            <ns3:hr>107</ns3:hr>
            <ns3:cad>0</ns3:cad>
          </ns3:TrackPointExtension>
        </extensions>
      </trkpt>
      <trkpt lat="37.99071771092712879180908203125" lon="-107.73759649135172367095947265625">
        <ele>3733.800048828125</ele>
        <time>2026-08-15T14:41:13.000Z</time>
        <extensions>
          <ns3:TrackPointExtension>
            <ns3:hr>106</ns3:hr>
            <ns3:cad>0</ns3:cad>
          </ns3:TrackPointExtension>
        </extensions>
      </trkpt>
      <trkpt lat="37.990731038153171539306640625" lon="-107.73760872893035411834716796875">
        <ele>3734.60009765625</ele>
        <time>2026-08-15T14:41:18.000Z</time>
        <extensions>
          <ns3:TrackPointExtension>
            <ns3:hr>104</ns3:hr>
            <ns3:cad>0</ns3:cad>
          </ns3:TrackPointExtension>
        </extensions>
      </trkpt>
      <trkpt lat="37.990745119750499725341796875" lon="-107.73762524127960205078125">
        <ele>3735.60009765625</ele>
        <time>2026-08-15T14:41:23.000Z</time>
        <extensions>
          <ns3:TrackPointExtension>
            <ns3:hr>103</ns3:hr>
            <ns3:cad>0</ns3:cad>
          </ns3:TrackPointExtension>
        </extensions>
      </trkpt>
      <trkpt lat="37.9907513223588466644287109375" lon="-107.73763387463986873626708984375">
        <ele>3736.199951171875</ele>
        <time>2026-08-15T14:41:25.000Z</time>
        <extensions>
          <ns3:TrackPointExtension>
            <ns3:hr>102</ns3:hr>
            <ns3:cad>0</ns3:cad>
          </ns3:TrackPointExtension>
        </extensions>
      </trkpt>
      <trkpt lat="37.99075744114816188812255859375" lon="-107.73764041252434253692626953125">
        <ele>3736.800048828125</ele>
        <time>2026-08-15T14:41:27.000Z</time>
        <extensions>
          <ns3:TrackPointExtension>
            <ns3:hr>102</ns3:hr>
            <ns3:cad>0</ns3:cad>
          </ns3:TrackPointExtension>
        </extensions>
      </trkpt>
      <trkpt lat="37.99076867289841175079345703125" lon="-107.73765382356941699981689453125">
        <ele>3737.199951171875</ele>
        <time>2026-08-15T14:41:31.000Z</time>
        <extensions>
          <ns3:TrackPointExtension>
            <ns3:hr>102</ns3:hr>
            <ns3:cad>0</ns3:cad>
          </ns3:TrackPointExtension>
        </extensions>
      </trkpt>
      <trkpt lat="37.99079616554081439971923828125" lon="-107.7376686595380306243896484375">
        <ele>3737.800048828125</ele>
        <time>2026-08-15T14:41:36.000Z</time>
        <extensions>
          <ns3:TrackPointExtension>
            <ns3:hr>105</ns3:hr>
            <ns3:cad>0</ns3:cad>
          </ns3:TrackPointExtension>
        </extensions>
      </trkpt>
      <trkpt lat="37.990802787244319915771484375" lon="-107.73767008446156978607177734375">
        <ele>3737.800048828125</ele>
        <time>2026-08-15T14:41:37.000Z</time>
        <extensions>
          <ns3:TrackPointExtension>
            <ns3:hr>105</ns3:hr>
            <ns3:cad>0</ns3:cad>
          </ns3:TrackPointExtension>
        </extensions>
      </trkpt>
      <trkpt lat="37.99080781638622283935546875" lon="-107.73766941390931606292724609375">
        <ele>3738</ele>
        <time>2026-08-15T14:41:38.000Z</time>
        <extensions>
          <ns3:TrackPointExtension>
            <ns3:hr>106</ns3:hr>
            <ns3:cad>0</ns3:cad>
          </ns3:TrackPointExtension>
        </extensions>
      </trkpt>
      <trkpt lat="37.9908307828009128570556640625" lon="-107.7376824058592319488525390625">
        <ele>3738.60009765625</ele>
        <time>2026-08-15T14:41:44.000Z</time>
        <extensions>
          <ns3:TrackPointExtension>
            <ns3:hr>106</ns3:hr>
            <ns3:cad>0</ns3:cad>
          </ns3:TrackPointExtension>
        </extensions>
      </trkpt>
      <trkpt lat="37.99083522520959377288818359375" lon="-107.73768399842083454132080078125">
        <ele>3738.39990234375</ele>
        <time>2026-08-15T14:41:45.000Z</time>
        <extensions>
          <ns3:TrackPointExtension>
            <ns3:hr>106</ns3:hr>
            <ns3:cad>0</ns3:cad>
          </ns3:TrackPointExtension>
        </extensions>
      </trkpt>
      <trkpt lat="37.99083271063864231109619140625" lon="-107.73768064565956592559814453125">
        <ele>3738.199951171875</ele>
        <time>2026-08-15T14:41:51.000Z</time>
        <extensions>
          <ns3:TrackPointExtension>
            <ns3:hr>108</ns3:hr>
            <ns3:cad>0</ns3:cad>
          </ns3:TrackPointExtension>
        </extensions>
      </trkpt>
      <trkpt lat="37.99083639867603778839111328125" lon="-107.7376803942024707794189453125">
        <ele>3738.199951171875</ele>
        <time>2026-08-15T14:41:57.000Z</time>
        <extensions>
          <ns3:TrackPointExtension>
            <ns3:hr>109</ns3:hr>
            <ns3:cad>0</ns3:cad>
          </ns3:TrackPointExtension>
        </extensions>
      </trkpt>
      <trkpt lat="37.99083807505667209625244140625" lon="-107.73767477832734584808349609375">
        <ele>3738.60009765625</ele>
        <time>2026-08-15T14:41:58.000Z</time>
        <extensions>
          <ns3:TrackPointExtension>
            <ns3:hr>109</ns3:hr>
            <ns3:cad>0</ns3:cad>
          </ns3:TrackPointExtension>
        </extensions>
      </trkpt>
      <trkpt lat="37.99083522520959377288818359375" lon="-107.73767628706991672515869140625">
        <ele>3739</ele>
        <time>2026-08-15T14:42:00.000Z</time>
        <extensions>
          <ns3:TrackPointExtension>
            <ns3:hr>108</ns3:hr>
            <ns3:cad>0</ns3:cad>
          </ns3:TrackPointExtension>
        </extensions>
      </trkpt>
      <trkpt lat="37.99083991907536983489990234375" lon="-107.7376891113817691802978515625">
        <ele>3739.39990234375</ele>
        <time>2026-08-15T14:42:05.000Z</time>
        <extensions>
          <ns3:TrackPointExtension>
            <ns3:hr>108</ns3:hr>
            <ns3:cad>0</ns3:cad>
          </ns3:TrackPointExtension>
        </extensions>
      </trkpt>
      <trkpt lat="37.9908643104135990142822265625" lon="-107.7377041988074779510498046875">
        <ele>3739.199951171875</ele>
        <time>2026-08-15T14:42:10.000Z</time>
        <extensions>
          <ns3:TrackPointExtension>
            <ns3:hr>108</ns3:hr>
            <ns3:cad>56</ns3:cad>
          </ns3:TrackPointExtension>
        </extensions>
      </trkpt>
      <trkpt lat="37.99087478779256343841552734375" lon="-107.7377129159867763519287109375">
        <ele>3738.800048828125</ele>
        <time>2026-08-15T14:42:16.000Z</time>
        <extensions>
          <ns3:TrackPointExtension>
            <ns3:hr>107</ns3:hr>
            <ns3:cad>0</ns3:cad>
          </ns3:TrackPointExtension>
        </extensions>
      </trkpt>
      <trkpt lat="37.9908807389438152313232421875" lon="-107.7377155981957912445068359375">
        <ele>3739.199951171875</ele>
        <time>2026-08-15T14:42:22.000Z</time>
        <extensions>
          <ns3:TrackPointExtension>
            <ns3:hr>109</ns3:hr>
            <ns3:cad>0</ns3:cad>
          </ns3:TrackPointExtension>
        </extensions>
      </trkpt>
      <trkpt lat="37.9908804036676883697509765625" lon="-107.73771333508193492889404296875">
        <ele>3739.39990234375</ele>
        <time>2026-08-15T14:42:26.000Z</time>
        <extensions>
          <ns3:TrackPointExtension>
            <ns3:hr>109</ns3:hr>
            <ns3:cad>0</ns3:cad>
          </ns3:TrackPointExtension>
        </extensions>
      </trkpt>
      <trkpt lat="37.9908981733024120330810546875" lon="-107.73772154934704303741455078125">
        <ele>3740</ele>
        <time>2026-08-15T14:42:31.000Z</time>
        <extensions>
          <ns3:TrackPointExtension>
            <ns3:hr>109</ns3:hr>
            <ns3:cad>0</ns3:cad>
          </ns3:TrackPointExtension>
        </extensions>
      </trkpt>
      <trkpt lat="37.9909065552055835723876953125" lon="-107.73772473447024822235107421875">
        <ele>3740.199951171875</ele>
        <time>2026-08-15T14:42:33.000Z</time>
        <extensions>
          <ns3:TrackPointExtension>
            <ns3:hr>111</ns3:hr>
            <ns3:cad>0</ns3:cad>
          </ns3:TrackPointExtension>
        </extensions>
      </trkpt>
      <trkpt lat="37.99090831540524959564208984375" lon="-107.73772381246089935302734375">
        <ele>3740</ele>
        <time>2026-08-15T14:42:35.000Z</time>
        <extensions>
          <ns3:TrackPointExtension>
            <ns3:hr>118</ns3:hr>
            <ns3:cad>0</ns3:cad>
          </ns3:TrackPointExtension>
        </extensions>
      </trkpt>
      <trkpt lat="37.99090839922428131103515625" lon="-107.73772406391799449920654296875">
        <ele>3740.199951171875</ele>
        <time>2026-08-15T14:42:36.000Z</time>
        <extensions>
          <ns3:TrackPointExtension>
            <ns3:hr>125</ns3:hr>
            <ns3:cad>0</ns3:cad>
          </ns3:TrackPointExtension>
        </extensions>
      </trkpt>
      <trkpt lat="37.99090839922428131103515625" lon="-107.73772406391799449920654296875">
        <ele>3740.199951171875</ele>
        <time>2026-08-15T14:42:37.000Z</time>
        <extensions>
          <ns3:TrackPointExtension>
            <ns3:hr>124</ns3:hr>
            <ns3:cad>0</ns3:cad>
          </ns3:TrackPointExtension>
        </extensions>
      </trkpt>
      <trkpt lat="37.99091552384197711944580078125" lon="-107.73771937005221843719482421875">
        <ele>3740.199951171875</ele>
        <time>2026-08-15T14:42:41.000Z</time>
        <extensions>
          <ns3:TrackPointExtension>
            <ns3:hr>122</ns3:hr>
            <ns3:cad>0</ns3:cad>
          </ns3:TrackPointExtension>
        </extensions>
      </trkpt>
      <trkpt lat="37.990918792784214019775390625" lon="-107.737718783318996429443359375">
        <ele>3740.199951171875</ele>
        <time>2026-08-15T14:42:42.000Z</time>
        <extensions>
          <ns3:TrackPointExtension>
            <ns3:hr>119</ns3:hr>
            <ns3:cad>0</ns3:cad>
          </ns3:TrackPointExtension>
        </extensions>
      </trkpt>
      <trkpt lat="37.9909303598105907440185546875" lon="-107.73771383799612522125244140625">
        <ele>3740.199951171875</ele>
        <time>2026-08-15T14:42:43.000Z</time>
        <extensions>
          <ns3:TrackPointExtension>
            <ns3:hr>107</ns3:hr>
            <ns3:cad>0</ns3:cad>
          </ns3:TrackPointExtension>
        </extensions>
      </trkpt>
      <trkpt lat="37.99094201065599918365478515625" lon="-107.7377166040241718292236328125">
        <ele>3740.199951171875</ele>
        <time>2026-08-15T14:42:44.000Z</time>
        <extensions>
          <ns3:TrackPointExtension>
            <ns3:hr>99</ns3:hr>
            <ns3:cad>0</ns3:cad>
          </ns3:TrackPointExtension>
        </extensions>
      </trkpt>
      <trkpt lat="37.990947626531124114990234375" lon="-107.7377199567854404449462890625">
        <ele>3740.199951171875</ele>
        <time>2026-08-15T14:42:46.000Z</time>
        <extensions>
          <ns3:TrackPointExtension>
            <ns3:hr>96</ns3:hr>
            <ns3:cad>0</ns3:cad>
          </ns3:TrackPointExtension>
        </extensions>
      </trkpt>
      <trkpt lat="37.99095173366367816925048828125" lon="-107.73771383799612522125244140625">
        <ele>3740.199951171875</ele>
        <time>2026-08-15T14:42:47.000Z</time>
        <extensions>
          <ns3:TrackPointExtension>
            <ns3:hr>96</ns3:hr>
            <ns3:cad>0</ns3:cad>
          </ns3:TrackPointExtension>
        </extensions>
      </trkpt>
      <trkpt lat="37.9909734427928924560546875" lon="-107.737709395587444305419921875">
        <ele>3740.199951171875</ele>
        <time>2026-08-15T14:42:53.000Z</time>
        <extensions>
          <ns3:TrackPointExtension>
            <ns3:hr>95</ns3:hr>
            <ns3:cad>0</ns3:cad>
          </ns3:TrackPointExtension>
        </extensions>
      </trkpt>
      <trkpt lat="37.9909836687147617340087890625" lon="-107.7377142570912837982177734375">
        <ele>3740.39990234375</ele>
        <time>2026-08-15T14:42:54.000Z</time>
        <extensions>
          <ns3:TrackPointExtension>
            <ns3:hr>96</ns3:hr>
            <ns3:cad>0</ns3:cad>
          </ns3:TrackPointExtension>
        </extensions>
      </trkpt>
      <trkpt lat="37.99100655131042003631591796875" lon="-107.73771040141582489013671875">
        <ele>3741.199951171875</ele>
        <time>2026-08-15T14:42:57.000Z</time>
        <extensions>
          <ns3:TrackPointExtension>
            <ns3:hr>98</ns3:hr>
            <ns3:cad>0</ns3:cad>
          </ns3:TrackPointExtension>
        </extensions>
      </trkpt>
      <trkpt lat="37.99103789962828159332275390625" lon="-107.73769858293235301971435546875">
        <ele>3742</ele>
        <time>2026-08-15T14:43:01.000Z</time>
        <extensions>
          <ns3:TrackPointExtension>
            <ns3:hr>100</ns3:hr>
            <ns3:cad>0</ns3:cad>
          </ns3:TrackPointExtension>
        </extensions>
      </trkpt>
      <trkpt lat="37.9910473711788654327392578125" lon="-107.73769791238009929656982421875">
        <ele>3742.39990234375</ele>
        <time>2026-08-15T14:43:03.000Z</time>
        <extensions>
          <ns3:TrackPointExtension>
            <ns3:hr>100</ns3:hr>
            <ns3:cad>0</ns3:cad>
          </ns3:TrackPointExtension>
        </extensions>
      </trkpt>
      <trkpt lat="37.99105986021459102630615234375" lon="-107.73769673891365528106689453125">
        <ele>3742.60009765625</ele>
        <time>2026-08-15T14:43:06.000Z</time>
        <extensions>
          <ns3:TrackPointExtension>
            <ns3:hr>96</ns3:hr>
            <ns3:cad>41</ns3:cad>
          </ns3:TrackPointExtension>
        </extensions>
      </trkpt>
      <trkpt lat="37.99107846803963184356689453125" lon="-107.7376968227326869964599609375">
        <ele>3743.199951171875</ele>
        <time>2026-08-15T14:43:10.000Z</time>
        <extensions>
          <ns3:TrackPointExtension>
            <ns3:hr>95</ns3:hr>
            <ns3:cad>0</ns3:cad>
          </ns3:TrackPointExtension>
        </extensions>
      </trkpt>
      <trkpt lat="37.99108182080090045928955078125" lon="-107.737696655094623565673828125">
        <ele>3743.60009765625</ele>
        <time>2026-08-15T14:43:11.000Z</time>
        <extensions>
          <ns3:TrackPointExtension>
            <ns3:hr>95</ns3:hr>
            <ns3:cad>0</ns3:cad>
          </ns3:TrackPointExtension>
        </extensions>
      </trkpt>
      <trkpt lat="37.9911033622920513153076171875" lon="-107.73769958876073360443115234375">
        <ele>3744.60009765625</ele>
        <time>2026-08-15T14:43:16.000Z</time>
        <extensions>
          <ns3:TrackPointExtension>
            <ns3:hr>95</ns3:hr>
            <ns3:cad>0</ns3:cad>
          </ns3:TrackPointExtension>
        </extensions>
      </trkpt>
      <trkpt lat="37.9911063797771930694580078125" lon="-107.73770059458911418914794921875">
        <ele>3744.800048828125</ele>
        <time>2026-08-15T14:43:17.000Z</time>
        <extensions>
          <ns3:TrackPointExtension>
            <ns3:hr>95</ns3:hr>
            <ns3:cad>0</ns3:cad>
          </ns3:TrackPointExtension>
        </extensions>
      </trkpt>
      <trkpt lat="37.99111031927168369293212890625" lon="-107.73770998232066631317138671875">
        <ele>3745.199951171875</ele>
        <time>2026-08-15T14:43:18.000Z</time>
        <extensions>
          <ns3:TrackPointExtension>
            <ns3:hr>96</ns3:hr>
            <ns3:cad>0</ns3:cad>
          </ns3:TrackPointExtension>
        </extensions>
      </trkpt>
      <trkpt lat="37.99111601896584033966064453125" lon="-107.737716771662235260009765625">
        <ele>3745.60009765625</ele>
        <time>2026-08-15T14:43:19.000Z</time>
        <extensions>
          <ns3:TrackPointExtension>
            <ns3:hr>96</ns3:hr>
            <ns3:cad>0</ns3:cad>
          </ns3:TrackPointExtension>
        </extensions>
      </trkpt>
      <trkpt lat="37.99113915301859378814697265625" lon="-107.7377280034124851226806640625">
        <ele>3746.39990234375</ele>
        <time>2026-08-15T14:43:24.000Z</time>
        <extensions>
          <ns3:TrackPointExtension>
            <ns3:hr>97</ns3:hr>
            <ns3:cad>0</ns3:cad>
          </ns3:TrackPointExtension>
        </extensions>
      </trkpt>
      <trkpt lat="37.99115038476884365081787109375" lon="-107.73773546330630779266357421875">
        <ele>3746.800048828125</ele>
        <time>2026-08-15T14:43:26.000Z</time>
        <extensions>
          <ns3:TrackPointExtension>
            <ns3:hr>98</ns3:hr>
            <ns3:cad>0</ns3:cad>
          </ns3:TrackPointExtension>
        </extensions>
      </trkpt>
      <trkpt lat="37.9911751113831996917724609375" lon="-107.7377430908381938934326171875">
        <ele>3747.39990234375</ele>
        <time>2026-08-15T14:43:31.000Z</time>
        <extensions>
          <ns3:TrackPointExtension>
            <ns3:hr>101</ns3:hr>
            <ns3:cad>76</ns3:cad>
          </ns3:TrackPointExtension>
        </extensions>
      </trkpt>
      <trkpt lat="37.9911881871521472930908203125" lon="-107.73774334229528903961181640625">
        <ele>3747.800048828125</ele>
        <time>2026-08-15T14:43:33.000Z</time>
        <extensions>
          <ns3:TrackPointExtension>
            <ns3:hr>101</ns3:hr>
            <ns3:cad>76</ns3:cad>
          </ns3:TrackPointExtension>
        </extensions>
      </trkpt>
      <trkpt lat="37.99120939336717128753662109375" lon="-107.7377565018832683563232421875">
        <ele>3748.800048828125</ele>
        <time>2026-08-15T14:43:36.000Z</time>
        <extensions>
          <ns3:TrackPointExtension>
            <ns3:hr>103</ns3:hr>
            <ns3:cad>0</ns3:cad>
          </ns3:TrackPointExtension>
        </extensions>
      </trkpt>
      <trkpt lat="37.9912143386900424957275390625" lon="-107.7377625368535518646240234375">
        <ele>3749.199951171875</ele>
        <time>2026-08-15T14:43:37.000Z</time>
        <extensions>
          <ns3:TrackPointExtension>
            <ns3:hr>103</ns3:hr>
            <ns3:cad>0</ns3:cad>
          </ns3:TrackPointExtension>
        </extensions>
      </trkpt>
      <trkpt lat="37.99124141223728656768798828125" lon="-107.73778340779244899749755859375">
        <ele>3749.39990234375</ele>
        <time>2026-08-15T14:43:43.000Z</time>
        <extensions>
          <ns3:TrackPointExtension>
            <ns3:hr>105</ns3:hr>
            <ns3:cad>0</ns3:cad>
          </ns3:TrackPointExtension>
        </extensions>
      </trkpt>
      <trkpt lat="37.99124769866466522216796875" lon="-107.7377819828689098358154296875">
        <ele>3749.60009765625</ele>
        <time>2026-08-15T14:43:44.000Z</time>
        <extensions>
          <ns3:TrackPointExtension>
            <ns3:hr>106</ns3:hr>
            <ns3:cad>0</ns3:cad>
          </ns3:TrackPointExtension>
        </extensions>
      </trkpt>
      <trkpt lat="37.9912565834820270538330078125" lon="-107.7377873472869396209716796875">
        <ele>3750.39990234375</ele>
        <time>2026-08-15T14:43:47.000Z</time>
        <extensions>
          <ns3:TrackPointExtension>
            <ns3:hr>109</ns3:hr>
            <ns3:cad>0</ns3:cad>
          </ns3:TrackPointExtension>
        </extensions>
      </trkpt>
      <trkpt lat="37.99127058126032352447509765625" lon="-107.73779614828526973724365234375">
        <ele>3751.199951171875</ele>
        <time>2026-08-15T14:43:50.000Z</time>
        <extensions>
          <ns3:TrackPointExtension>
            <ns3:hr>110</ns3:hr>
            <ns3:cad>0</ns3:cad>
          </ns3:TrackPointExtension>
        </extensions>
      </trkpt>
      <trkpt lat="37.991277873516082763671875" lon="-107.7378017641603946685791015625">
        <ele>3751.39990234375</ele>
        <time>2026-08-15T14:43:52.000Z</time>
        <extensions>
          <ns3:TrackPointExtension>
            <ns3:hr>110</ns3:hr>
            <ns3:cad>0</ns3:cad>
          </ns3:TrackPointExtension>
        </extensions>
      </trkpt>
      <trkpt lat="37.99129790626466274261474609375" lon="-107.73781559430062770843505859375">
        <ele>3752.39990234375</ele>
        <time>2026-08-15T14:43:58.000Z</time>
        <extensions>
          <ns3:TrackPointExtension>
            <ns3:hr>111</ns3:hr>
            <ns3:cad>0</ns3:cad>
          </ns3:TrackPointExtension>
        </extensions>
      </trkpt>
      <trkpt lat="37.99129941500723361968994140625" lon="-107.73781760595738887786865234375">
        <ele>3752.60009765625</ele>
        <time>2026-08-15T14:43:59.000Z</time>
        <extensions>
          <ns3:TrackPointExtension>
            <ns3:hr>111</ns3:hr>
            <ns3:cad>0</ns3:cad>
          </ns3:TrackPointExtension>
        </extensions>
      </trkpt>
      <trkpt lat="37.9913221299648284912109375" lon="-107.73783369921147823333740234375">
        <ele>3753.39990234375</ele>
        <time>2026-08-15T14:44:05.000Z</time>
        <extensions>
          <ns3:TrackPointExtension>
            <ns3:hr>111</ns3:hr>
            <ns3:cad>0</ns3:cad>
          </ns3:TrackPointExtension>
        </extensions>
      </trkpt>
      <trkpt lat="37.991324476897716522216796875" lon="-107.73783185519278049468994140625">
        <ele>3753.60009765625</ele>
        <time>2026-08-15T14:44:07.000Z</time>
        <extensions>
          <ns3:TrackPointExtension>
            <ns3:hr>110</ns3:hr>
            <ns3:cad>0</ns3:cad>
          </ns3:TrackPointExtension>
        </extensions>
      </trkpt>
      <trkpt lat="37.9913457669317722320556640625" lon="-107.73784878663718700408935546875">
        <ele>3754.60009765625</ele>
        <time>2026-08-15T14:44:13.000Z</time>
        <extensions>
          <ns3:TrackPointExtension>
            <ns3:hr>111</ns3:hr>
            <ns3:cad>0</ns3:cad>
          </ns3:TrackPointExtension>
        </extensions>
      </trkpt>
      <trkpt lat="37.991344593465328216552734375" lon="-107.73784828372299671173095703125">
        <ele>3754.800048828125</ele>
        <time>2026-08-15T14:44:14.000Z</time>
        <extensions>
          <ns3:TrackPointExtension>
            <ns3:hr>112</ns3:hr>
            <ns3:cad>0</ns3:cad>
          </ns3:TrackPointExtension>
        </extensions>
      </trkpt>
      <trkpt lat="37.9913558252155780792236328125" lon="-107.737863622605800628662109375">
        <ele>3755.39990234375</ele>
        <time>2026-08-15T14:44:18.000Z</time>
        <extensions>
          <ns3:TrackPointExtension>
            <ns3:hr>114</ns3:hr>
            <ns3:cad>0</ns3:cad>
          </ns3:TrackPointExtension>
        </extensions>
      </trkpt>
      <trkpt lat="37.99136110581457614898681640625" lon="-107.73786990903317928314208984375">
        <ele>3755.800048828125</ele>
        <time>2026-08-15T14:44:21.000Z</time>
        <extensions>
          <ns3:TrackPointExtension>
            <ns3:hr>115</ns3:hr>
            <ns3:cad>0</ns3:cad>
          </ns3:TrackPointExtension>
        </extensions>
      </trkpt>
      <trkpt lat="37.99137334339320659637451171875" lon="-107.7378733456134796142578125">
        <ele>3756.800048828125</ele>
        <time>2026-08-15T14:44:24.000Z</time>
        <extensions>
          <ns3:TrackPointExtension>
            <ns3:hr>115</ns3:hr>
            <ns3:cad>0</ns3:cad>
          </ns3:TrackPointExtension>
        </extensions>
      </trkpt>
      <trkpt lat="37.99137644469738006591796875" lon="-107.73787057958543300628662109375">
        <ele>3757</ele>
        <time>2026-08-15T14:44:25.000Z</time>
        <extensions>
          <ns3:TrackPointExtension>
            <ns3:hr>115</ns3:hr>
            <ns3:cad>0</ns3:cad>
          </ns3:TrackPointExtension>
        </extensions>
      </trkpt>
      <trkpt lat="37.9913903586566448211669921875" lon="-107.7378748543560504913330078125">
        <ele>3758.199951171875</ele>
        <time>2026-08-15T14:44:31.000Z</time>
        <extensions>
          <ns3:TrackPointExtension>
            <ns3:hr>115</ns3:hr>
            <ns3:cad>0</ns3:cad>
          </ns3:TrackPointExtension>
        </extensions>
      </trkpt>
      <trkpt lat="37.99139547161757946014404296875" lon="-107.73788281716406345367431640625">
        <ele>3758.39990234375</ele>
        <time>2026-08-15T14:44:32.000Z</time>
        <extensions>
          <ns3:TrackPointExtension>
            <ns3:hr>115</ns3:hr>
            <ns3:cad>0</ns3:cad>
          </ns3:TrackPointExtension>
        </extensions>
      </trkpt>
      <trkpt lat="37.9914255626499652862548828125" lon="-107.73790041916072368621826171875">
        <ele>3759.199951171875</ele>
        <time>2026-08-15T14:44:38.000Z</time>
        <extensions>
          <ns3:TrackPointExtension>
            <ns3:hr>113</ns3:hr>
            <ns3:cad>0</ns3:cad>
          </ns3:TrackPointExtension>
        </extensions>
      </trkpt>
      <trkpt lat="37.9914295859634876251220703125" lon="-107.73790360428392887115478515625">
        <ele>3759.39990234375</ele>
        <time>2026-08-15T14:44:39.000Z</time>
        <extensions>
          <ns3:TrackPointExtension>
            <ns3:hr>113</ns3:hr>
            <ns3:cad>0</ns3:cad>
          </ns3:TrackPointExtension>
        </extensions>
      </trkpt>
      <trkpt lat="37.99143813550472259521484375" lon="-107.73791617713868618011474609375">
        <ele>3759.800048828125</ele>
        <time>2026-08-15T14:44:41.000Z</time>
        <extensions>
          <ns3:TrackPointExtension>
            <ns3:hr>113</ns3:hr>
            <ns3:cad>0</ns3:cad>
          </ns3:TrackPointExtension>
        </extensions>
      </trkpt>
      <trkpt lat="37.99145213328301906585693359375" lon="-107.7379308454692363739013671875">
        <ele>3760.39990234375</ele>
        <time>2026-08-15T14:44:46.000Z</time>
        <extensions>
          <ns3:TrackPointExtension>
            <ns3:hr>114</ns3:hr>
            <ns3:cad>0</ns3:cad>
          </ns3:TrackPointExtension>
        </extensions>
      </trkpt>
      <trkpt lat="37.991454564034938812255859375" lon="-107.737933360040187835693359375">
        <ele>3760.39990234375</ele>
        <time>2026-08-15T14:44:47.000Z</time>
        <extensions>
          <ns3:TrackPointExtension>
            <ns3:hr>114</ns3:hr>
            <ns3:cad>0</ns3:cad>
          </ns3:TrackPointExtension>
        </extensions>
      </trkpt>
      <trkpt lat="37.99146629869937896728515625" lon="-107.73794869892299175262451171875">
        <ele>3761.60009765625</ele>
        <time>2026-08-15T14:44:52.000Z</time>
        <extensions>
          <ns3:TrackPointExtension>
            <ns3:hr>111</ns3:hr>
            <ns3:cad>0</ns3:cad>
          </ns3:TrackPointExtension>
        </extensions>
      </trkpt>
      <trkpt lat="37.99146587960422039031982421875" lon="-107.73795288987457752227783203125">
        <ele>3762.39990234375</ele>
        <time>2026-08-15T14:44:54.000Z</time>
        <extensions>
          <ns3:TrackPointExtension>
            <ns3:hr>111</ns3:hr>
            <ns3:cad>0</ns3:cad>
          </ns3:TrackPointExtension>
        </extensions>
      </trkpt>
      <trkpt lat="37.99146571196615695953369140625" lon="-107.737955152988433837890625">
        <ele>3762.60009765625</ele>
        <time>2026-08-15T14:44:55.000Z</time>
        <extensions>
          <ns3:TrackPointExtension>
            <ns3:hr>111</ns3:hr>
            <ns3:cad>0</ns3:cad>
          </ns3:TrackPointExtension>
        </extensions>
      </trkpt>
      <trkpt lat="37.9914644546806812286376953125" lon="-107.737964875996112823486328125">
        <ele>3762.60009765625</ele>
        <time>2026-08-15T14:44:59.000Z</time>
        <extensions>
          <ns3:TrackPointExtension>
            <ns3:hr>113</ns3:hr>
            <ns3:cad>0</ns3:cad>
          </ns3:TrackPointExtension>
        </extensions>
      </trkpt>
      <trkpt lat="37.9914637841284275054931640625" lon="-107.73797853849828243255615234375">
        <ele>3762.60009765625</ele>
        <time>2026-08-15T14:45:02.000Z</time>
        <extensions>
          <ns3:TrackPointExtension>
            <ns3:hr>116</ns3:hr>
            <ns3:cad>0</ns3:cad>
          </ns3:TrackPointExtension>
        </extensions>
      </trkpt>
      <trkpt lat="37.991469986736774444580078125" lon="-107.7379967272281646728515625">
        <ele>3763.39990234375</ele>
        <time>2026-08-15T14:45:05.000Z</time>
        <extensions>
          <ns3:TrackPointExtension>
            <ns3:hr>117</ns3:hr>
            <ns3:cad>0</ns3:cad>
          </ns3:TrackPointExtension>
        </extensions>
      </trkpt>
      <trkpt lat="37.99147023819386959075927734375" lon="-107.73800368420779705047607421875">
        <ele>3763.800048828125</ele>
        <time>2026-08-15T14:45:06.000Z</time>
        <extensions>
          <ns3:TrackPointExtension>
            <ns3:hr>117</ns3:hr>
            <ns3:cad>0</ns3:cad>
          </ns3:TrackPointExtension>
        </extensions>
      </trkpt>
      <trkpt lat="37.99147141166031360626220703125" lon="-107.73801483213901519775390625">
        <ele>3764.60009765625</ele>
        <time>2026-08-15T14:45:11.000Z</time>
        <extensions>
          <ns3:TrackPointExtension>
            <ns3:hr>120</ns3:hr>
            <ns3:cad>0</ns3:cad>
          </ns3:TrackPointExtension>
        </extensions>
      </trkpt>
      <trkpt lat="37.991471327841281890869140625" lon="-107.7380190230906009674072265625">
        <ele>3764.800048828125</ele>
        <time>2026-08-15T14:45:12.000Z</time>
        <extensions>
          <ns3:TrackPointExtension>
            <ns3:hr>121</ns3:hr>
            <ns3:cad>0</ns3:cad>
          </ns3:TrackPointExtension>
        </extensions>
      </trkpt>
      <trkpt lat="37.9914728365838527679443359375" lon="-107.738026566803455352783203125">
        <ele>3765</ele>
        <time>2026-08-15T14:45:13.000Z</time>
        <extensions>
          <ns3:TrackPointExtension>
            <ns3:hr>121</ns3:hr>
            <ns3:cad>0</ns3:cad>
          </ns3:TrackPointExtension>
        </extensions>
      </trkpt>
      <trkpt lat="37.99146738834679126739501953125" lon="-107.7380491979420185089111328125">
        <ele>3765.60009765625</ele>
        <time>2026-08-15T14:45:19.000Z</time>
        <extensions>
          <ns3:TrackPointExtension>
            <ns3:hr>120</ns3:hr>
            <ns3:cad>0</ns3:cad>
          </ns3:TrackPointExtension>
        </extensions>
      </trkpt>
      <trkpt lat="37.99147007055580615997314453125" lon="-107.738054059445858001708984375">
        <ele>3765.800048828125</ele>
        <time>2026-08-15T14:45:20.000Z</time>
        <extensions>
          <ns3:TrackPointExtension>
            <ns3:hr>119</ns3:hr>
            <ns3:cad>0</ns3:cad>
          </ns3:TrackPointExtension>
        </extensions>
      </trkpt>
      <trkpt lat="37.99146839417517185211181640625" lon="-107.73806118406355381011962890625">
        <ele>3766</ele>
        <time>2026-08-15T14:45:21.000Z</time>
        <extensions>
          <ns3:TrackPointExtension>
            <ns3:hr>118</ns3:hr>
            <ns3:cad>0</ns3:cad>
          </ns3:TrackPointExtension>
        </extensions>
      </trkpt>
      <trkpt lat="37.99146629869937896728515625" lon="-107.7380706556141376495361328125">
        <ele>3766.199951171875</ele>
        <time>2026-08-15T14:45:22.000Z</time>
        <extensions>
          <ns3:TrackPointExtension>
            <ns3:hr>114</ns3:hr>
            <ns3:cad>0</ns3:cad>
          </ns3:TrackPointExtension>
        </extensions>
      </trkpt>
      <trkpt lat="37.991469986736774444580078125" lon="-107.73807627148926258087158203125">
        <ele>3766.800048828125</ele>
        <time>2026-08-15T14:45:24.000Z</time>
        <extensions>
          <ns3:TrackPointExtension>
            <ns3:hr>112</ns3:hr>
            <ns3:cad>0</ns3:cad>
          </ns3:TrackPointExtension>
        </extensions>
      </trkpt>
      <trkpt lat="37.991473339498043060302734375" lon="-107.73809672333300113677978515625">
        <ele>3767.60009765625</ele>
        <time>2026-08-15T14:45:27.000Z</time>
        <extensions>
          <ns3:TrackPointExtension>
            <ns3:hr>110</ns3:hr>
            <ns3:cad>0</ns3:cad>
          </ns3:TrackPointExtension>
        </extensions>
      </trkpt>
      <trkpt lat="37.99147300422191619873046875" lon="-107.73810594342648983001708984375">
        <ele>3768.199951171875</ele>
        <time>2026-08-15T14:45:29.000Z</time>
        <extensions>
          <ns3:TrackPointExtension>
            <ns3:hr>108</ns3:hr>
            <ns3:cad>0</ns3:cad>
          </ns3:TrackPointExtension>
        </extensions>
      </trkpt>
      <trkpt lat="37.991481386125087738037109375" lon="-107.73813963867723941802978515625">
        <ele>3769.199951171875</ele>
        <time>2026-08-15T14:45:33.000Z</time>
        <extensions>
          <ns3:TrackPointExtension>
            <ns3:hr>108</ns3:hr>
            <ns3:cad>0</ns3:cad>
          </ns3:TrackPointExtension>
        </extensions>
      </trkpt>
      <trkpt lat="37.99148666672408580780029296875" lon="-107.7381605096161365509033203125">
        <ele>3769.60009765625</ele>
        <time>2026-08-15T14:45:35.000Z</time>
        <extensions>
          <ns3:TrackPointExtension>
            <ns3:hr>109</ns3:hr>
            <ns3:cad>0</ns3:cad>
          </ns3:TrackPointExtension>
        </extensions>
      </trkpt>
      <trkpt lat="37.99149286933243274688720703125" lon="-107.73819780908524990081787109375">
        <ele>3770.39990234375</ele>
        <time>2026-08-15T14:45:41.000Z</time>
        <extensions>
          <ns3:TrackPointExtension>
            <ns3:hr>109</ns3:hr>
            <ns3:cad>0</ns3:cad>
          </ns3:TrackPointExtension>
        </extensions>
      </trkpt>
      <trkpt lat="37.99148901365697383880615234375" lon="-107.7382215298712253570556640625">
        <ele>3771</ele>
        <time>2026-08-15T14:45:47.000Z</time>
        <extensions>
          <ns3:TrackPointExtension>
            <ns3:hr>109</ns3:hr>
            <ns3:cad>0</ns3:cad>
          </ns3:TrackPointExtension>
        </extensions>
      </trkpt>
      <trkpt lat="37.991486750543117523193359375" lon="-107.73822563700377941131591796875">
        <ele>3771.39990234375</ele>
        <time>2026-08-15T14:45:49.000Z</time>
        <extensions>
          <ns3:TrackPointExtension>
            <ns3:hr>109</ns3:hr>
            <ns3:cad>0</ns3:cad>
          </ns3:TrackPointExtension>
        </extensions>
      </trkpt>
      <trkpt lat="37.991488091647624969482421875" lon="-107.73822605609893798828125">
        <ele>3771.60009765625</ele>
        <time>2026-08-15T14:45:50.000Z</time>
        <extensions>
          <ns3:TrackPointExtension>
            <ns3:hr>109</ns3:hr>
            <ns3:cad>0</ns3:cad>
          </ns3:TrackPointExtension>
        </extensions>
      </trkpt>
      <trkpt lat="37.99147970974445343017578125" lon="-107.73824592120945453643798828125">
        <ele>3772.800048828125</ele>
        <time>2026-08-15T14:45:55.000Z</time>
        <extensions>
          <ns3:TrackPointExtension>
            <ns3:hr>110</ns3:hr>
            <ns3:cad>0</ns3:cad>
          </ns3:TrackPointExtension>
        </extensions>
      </trkpt>
      <trkpt lat="37.9914738424122333526611328125" lon="-107.73824860341846942901611328125">
        <ele>3773</ele>
        <time>2026-08-15T14:45:56.000Z</time>
        <extensions>
          <ns3:TrackPointExtension>
            <ns3:hr>110</ns3:hr>
            <ns3:cad>0</ns3:cad>
          </ns3:TrackPointExtension>
        </extensions>
      </trkpt>
      <trkpt lat="37.99145280383527278900146484375" lon="-107.73826469667255878448486328125">
        <ele>3773.800048828125</ele>
        <time>2026-08-15T14:45:59.000Z</time>
        <extensions>
          <ns3:TrackPointExtension>
            <ns3:hr>112</ns3:hr>
            <ns3:cad>0</ns3:cad>
          </ns3:TrackPointExtension>
        </extensions>
      </trkpt>
      <trkpt lat="37.991453893482685089111328125" lon="-107.73829436860978603363037109375">
        <ele>3774.800048828125</ele>
        <time>2026-08-15T14:46:02.000Z</time>
        <extensions>
          <ns3:TrackPointExtension>
            <ns3:hr>114</ns3:hr>
            <ns3:cad>0</ns3:cad>
          </ns3:TrackPointExtension>
        </extensions>
      </trkpt>
      <trkpt lat="37.991448529064655303955078125" lon="-107.73830191232264041900634765625">
        <ele>3775</ele>
        <time>2026-08-15T14:46:03.000Z</time>
        <extensions>
          <ns3:TrackPointExtension>
            <ns3:hr>115</ns3:hr>
            <ns3:cad>0</ns3:cad>
          </ns3:TrackPointExtension>
        </extensions>
      </trkpt>
      <trkpt lat="37.991443164646625518798828125" lon="-107.738353125751018524169921875">
        <ele>3775.60009765625</ele>
        <time>2026-08-15T14:46:07.000Z</time>
        <extensions>
          <ns3:TrackPointExtension>
            <ns3:hr>115</ns3:hr>
            <ns3:cad>0</ns3:cad>
          </ns3:TrackPointExtension>
        </extensions>
      </trkpt>
      <trkpt lat="37.99143721349537372589111328125" lon="-107.73837483488023281097412109375">
        <ele>3776.199951171875</ele>
        <time>2026-08-15T14:46:10.000Z</time>
        <extensions>
          <ns3:TrackPointExtension>
            <ns3:hr>116</ns3:hr>
            <ns3:cad>0</ns3:cad>
          </ns3:TrackPointExtension>
        </extensions>
      </trkpt>
      <trkpt lat="37.99144911579787731170654296875" lon="-107.73841716349124908447265625">
        <ele>3776.800048828125</ele>
        <time>2026-08-15T14:46:14.000Z</time>
        <extensions>
          <ns3:TrackPointExtension>
            <ns3:hr>117</ns3:hr>
            <ns3:cad>0</ns3:cad>
          </ns3:TrackPointExtension>
        </extensions>
      </trkpt>
      <trkpt lat="37.9914543963968753814697265625" lon="-107.73843728005886077880859375">
        <ele>3777.199951171875</ele>
        <time>2026-08-15T14:46:16.000Z</time>
        <extensions>
          <ns3:TrackPointExtension>
            <ns3:hr>116</ns3:hr>
            <ns3:cad>0</ns3:cad>
          </ns3:TrackPointExtension>
        </extensions>
      </trkpt>
      <trkpt lat="37.99145833589136600494384765625" lon="-107.73844859562814235687255859375">
        <ele>3777.39990234375</ele>
        <time>2026-08-15T14:46:21.000Z</time>
        <extensions>
          <ns3:TrackPointExtension>
            <ns3:hr>113</ns3:hr>
            <ns3:cad>0</ns3:cad>
          </ns3:TrackPointExtension>
        </extensions>
      </trkpt>
      <trkpt lat="37.9914562404155731201171875" lon="-107.738477848470211029052734375">
        <ele>3778</ele>
        <time>2026-08-15T14:46:27.000Z</time>
        <extensions>
          <ns3:TrackPointExtension>
            <ns3:hr>113</ns3:hr>
            <ns3:cad>0</ns3:cad>
          </ns3:TrackPointExtension>
        </extensions>
      </trkpt>
      <trkpt lat="37.99145691096782684326171875" lon="-107.73848597891628742218017578125">
        <ele>3778</ele>
        <time>2026-08-15T14:46:28.000Z</time>
        <extensions>
          <ns3:TrackPointExtension>
            <ns3:hr>114</ns3:hr>
            <ns3:cad>0</ns3:cad>
          </ns3:TrackPointExtension>
        </extensions>
      </trkpt>
      <trkpt lat="37.9914641194045543670654296875" lon="-107.73849804885685443878173828125">
        <ele>3778.199951171875</ele>
        <time>2026-08-15T14:46:30.000Z</time>
        <extensions>
          <ns3:TrackPointExtension>
            <ns3:hr>113</ns3:hr>
            <ns3:cad>0</ns3:cad>
          </ns3:TrackPointExtension>
        </extensions>
      </trkpt>
      <trkpt lat="37.99146872945129871368408203125" lon="-107.73851950652897357940673828125">
        <ele>3778.60009765625</ele>
        <time>2026-08-15T14:46:36.000Z</time>
        <extensions>
          <ns3:TrackPointExtension>
            <ns3:hr>115</ns3:hr>
            <ns3:cad>0</ns3:cad>
          </ns3:TrackPointExtension>
        </extensions>
      </trkpt>
      <trkpt lat="37.99146872945129871368408203125" lon="-107.73851950652897357940673828125">
        <ele>3778.60009765625</ele>
        <time>2026-08-15T14:46:42.000Z</time>
        <extensions>
          <ns3:TrackPointExtension>
            <ns3:hr>115</ns3:hr>
            <ns3:cad>0</ns3:cad>
          </ns3:TrackPointExtension>
        </extensions>
      </trkpt>
      <trkpt lat="37.99146872945129871368408203125" lon="-107.73851950652897357940673828125">
        <ele>3778.39990234375</ele>
        <time>2026-08-15T14:46:43.000Z</time>
        <extensions>
          <ns3:TrackPointExtension>
            <ns3:hr>118</ns3:hr>
            <ns3:cad>0</ns3:cad>
          </ns3:TrackPointExtension>
        </extensions>
      </trkpt>
      <trkpt lat="37.99146872945129871368408203125" lon="-107.73851950652897357940673828125">
        <ele>3778.60009765625</ele>
        <time>2026-08-15T14:46:48.000Z</time>
        <extensions>
          <ns3:TrackPointExtension>
            <ns3:hr>116</ns3:hr>
            <ns3:cad>0</ns3:cad>
          </ns3:TrackPointExtension>
        </extensions>
      </trkpt>
      <trkpt lat="37.99146872945129871368408203125" lon="-107.73851950652897357940673828125">
        <ele>3779</ele>
        <time>2026-08-15T14:46:54.000Z</time>
        <extensions>
          <ns3:TrackPointExtension>
            <ns3:hr>114</ns3:hr>
            <ns3:cad>0</ns3:cad>
          </ns3:TrackPointExtension>
        </extensions>
      </trkpt>
      <trkpt lat="37.99146872945129871368408203125" lon="-107.73851950652897357940673828125">
        <ele>3778.60009765625</ele>
        <time>2026-08-15T14:47:00.000Z</time>
        <extensions>
          <ns3:TrackPointExtension>
            <ns3:hr>112</ns3:hr>
            <ns3:cad>0</ns3:cad>
          </ns3:TrackPointExtension>
        </extensions>
      </trkpt>
      <trkpt lat="37.99146872945129871368408203125" lon="-107.73851950652897357940673828125">
        <ele>3778.800048828125</ele>
        <time>2026-08-15T14:47:06.000Z</time>
        <extensions>
          <ns3:TrackPointExtension>
            <ns3:hr>109</ns3:hr>
            <ns3:cad>0</ns3:cad>
          </ns3:TrackPointExtension>
        </extensions>
      </trkpt>
      <trkpt lat="37.99146872945129871368408203125" lon="-107.73851950652897357940673828125">
        <ele>3778.39990234375</ele>
        <time>2026-08-15T14:47:12.000Z</time>
        <extensions>
          <ns3:TrackPointExtension>
            <ns3:hr>108</ns3:hr>
            <ns3:cad>0</ns3:cad>
          </ns3:TrackPointExtension>
        </extensions>
      </trkpt>
      <trkpt lat="37.99146872945129871368408203125" lon="-107.73851950652897357940673828125">
        <ele>3778.60009765625</ele>
        <time>2026-08-15T14:47:13.000Z</time>
        <extensions>
          <ns3:TrackPointExtension>
            <ns3:hr>107</ns3:hr>
            <ns3:cad>0</ns3:cad>
          </ns3:TrackPointExtension>
        </extensions>
      </trkpt>
      <trkpt lat="37.99146872945129871368408203125" lon="-107.73851950652897357940673828125">
        <ele>3778.800048828125</ele>
        <time>2026-08-15T14:47:17.000Z</time>
        <extensions>
          <ns3:TrackPointExtension>
            <ns3:hr>104</ns3:hr>
            <ns3:cad>0</ns3:cad>
          </ns3:TrackPointExtension>
        </extensions>
      </trkpt>
      <trkpt lat="37.991498149931430816650390625" lon="-107.73853627033531665802001953125">
        <ele>3779.39990234375</ele>
        <time>2026-08-15T14:47:22.000Z</time>
        <extensions>
          <ns3:TrackPointExtension>
            <ns3:hr>101</ns3:hr>
            <ns3:cad>0</ns3:cad>
          </ns3:TrackPointExtension>
        </extensions>
      </trkpt>
      <trkpt lat="37.99152237363159656524658203125" lon="-107.7385492622852325439453125">
        <ele>3780</ele>
        <time>2026-08-15T14:47:25.000Z</time>
        <extensions>
          <ns3:TrackPointExtension>
            <ns3:hr>98</ns3:hr>
            <ns3:cad>46</ns3:cad>
          </ns3:TrackPointExtension>
        </extensions>
      </trkpt>
      <trkpt lat="37.99154936335980892181396484375" lon="-107.73855839855968952178955078125">
        <ele>3780.39990234375</ele>
        <time>2026-08-15T14:47:28.000Z</time>
        <extensions>
          <ns3:TrackPointExtension>
            <ns3:hr>97</ns3:hr>
            <ns3:cad>49</ns3:cad>
          </ns3:TrackPointExtension>
        </extensions>
      </trkpt>
      <trkpt lat="37.99157383851706981658935546875" lon="-107.7385734021663665771484375">
        <ele>3780.60009765625</ele>
        <time>2026-08-15T14:47:31.000Z</time>
        <extensions>
          <ns3:TrackPointExtension>
            <ns3:hr>97</ns3:hr>
            <ns3:cad>48</ns3:cad>
          </ns3:TrackPointExtension>
        </extensions>
      </trkpt>
      <trkpt lat="37.99162647686898708343505859375" lon="-107.73859075270593166351318359375">
        <ele>3781.60009765625</ele>
        <time>2026-08-15T14:47:36.000Z</time>
        <extensions>
          <ns3:TrackPointExtension>
            <ns3:hr>96</ns3:hr>
            <ns3:cad>47</ns3:cad>
          </ns3:TrackPointExtension>
        </extensions>
      </trkpt>
      <trkpt lat="37.991647683084011077880859375" lon="-107.73860081098973751068115234375">
        <ele>3782.39990234375</ele>
        <time>2026-08-15T14:47:39.000Z</time>
        <extensions>
          <ns3:TrackPointExtension>
            <ns3:hr>97</ns3:hr>
            <ns3:cad>45</ns3:cad>
          </ns3:TrackPointExtension>
        </extensions>
      </trkpt>
      <trkpt lat="37.991663776338100433349609375" lon="-107.7386054210364818572998046875">
        <ele>3782.60009765625</ele>
        <time>2026-08-15T14:47:41.000Z</time>
        <extensions>
          <ns3:TrackPointExtension>
            <ns3:hr>97</ns3:hr>
            <ns3:cad>43</ns3:cad>
          </ns3:TrackPointExtension>
        </extensions>
      </trkpt>
      <trkpt lat="37.991700656712055206298828125" lon="-107.7386003918945789337158203125">
        <ele>3781.60009765625</ele>
        <time>2026-08-15T14:47:45.000Z</time>
        <extensions>
          <ns3:TrackPointExtension>
            <ns3:hr>99</ns3:hr>
            <ns3:cad>45</ns3:cad>
          </ns3:TrackPointExtension>
        </extensions>
      </trkpt>
      <trkpt lat="37.99172379076480865478515625" lon="-107.7386044152081012725830078125">
        <ele>3781</ele>
        <time>2026-08-15T14:47:47.000Z</time>
        <extensions>
          <ns3:TrackPointExtension>
            <ns3:hr>100</ns3:hr>
            <ns3:cad>45</ns3:cad>
          </ns3:TrackPointExtension>
        </extensions>
      </trkpt>
      <trkpt lat="37.99175438471138477325439453125" lon="-107.73862428031861782073974609375">
        <ele>3782.199951171875</ele>
        <time>2026-08-15T14:47:51.000Z</time>
        <extensions>
          <ns3:TrackPointExtension>
            <ns3:hr>99</ns3:hr>
            <ns3:cad>45</ns3:cad>
          </ns3:TrackPointExtension>
        </extensions>
      </trkpt>
      <trkpt lat="37.99176159314811229705810546875" lon="-107.73863450624048709869384765625">
        <ele>3782.60009765625</ele>
        <time>2026-08-15T14:47:52.000Z</time>
        <extensions>
          <ns3:TrackPointExtension>
            <ns3:hr>98</ns3:hr>
            <ns3:cad>45</ns3:cad>
          </ns3:TrackPointExtension>
        </extensions>
      </trkpt>
      <trkpt lat="37.99176930449903011322021484375" lon="-107.738649845123291015625">
        <ele>3783.60009765625</ele>
        <time>2026-08-15T14:47:54.000Z</time>
        <extensions>
          <ns3:TrackPointExtension>
            <ns3:hr>97</ns3:hr>
            <ns3:cad>45</ns3:cad>
          </ns3:TrackPointExtension>
        </extensions>
      </trkpt>
      <trkpt lat="37.991785816848278045654296875" lon="-107.738697789609432220458984375">
        <ele>3784.39990234375</ele>
        <time>2026-08-15T14:47:59.000Z</time>
        <extensions>
          <ns3:TrackPointExtension>
            <ns3:hr>94</ns3:hr>
            <ns3:cad>0</ns3:cad>
          </ns3:TrackPointExtension>
        </extensions>
      </trkpt>
      <trkpt lat="37.99178925342857837677001953125" lon="-107.7387043274939060211181640625">
        <ele>3784.60009765625</ele>
        <time>2026-08-15T14:48:00.000Z</time>
        <extensions>
          <ns3:TrackPointExtension>
            <ns3:hr>93</ns3:hr>
            <ns3:cad>0</ns3:cad>
          </ns3:TrackPointExtension>
        </extensions>
      </trkpt>
      <trkpt lat="37.99179486930370330810546875" lon="-107.73871086537837982177734375">
        <ele>3784.800048828125</ele>
        <time>2026-08-15T14:48:01.000Z</time>
        <extensions>
          <ns3:TrackPointExtension>
            <ns3:hr>92</ns3:hr>
            <ns3:cad>0</ns3:cad>
          </ns3:TrackPointExtension>
        </extensions>
      </trkpt>
      <trkpt lat="37.9918268881738185882568359375" lon="-107.738757468760013580322265625">
        <ele>3784.800048828125</ele>
        <time>2026-08-15T14:48:07.000Z</time>
        <extensions>
          <ns3:TrackPointExtension>
            <ns3:hr>90</ns3:hr>
            <ns3:cad>0</ns3:cad>
          </ns3:TrackPointExtension>
        </extensions>
      </trkpt>
      <trkpt lat="37.991846166551113128662109375" lon="-107.73878068663179874420166015625">
        <ele>3785.39990234375</ele>
        <time>2026-08-15T14:48:10.000Z</time>
        <extensions>
          <ns3:TrackPointExtension>
            <ns3:hr>92</ns3:hr>
            <ns3:cad>43</ns3:cad>
          </ns3:TrackPointExtension>
        </extensions>
      </trkpt>
      <trkpt lat="37.9918505251407623291015625" lon="-107.73878454230725765228271484375">
        <ele>3785.800048828125</ele>
        <time>2026-08-15T14:48:11.000Z</time>
        <extensions>
          <ns3:TrackPointExtension>
            <ns3:hr>93</ns3:hr>
            <ns3:cad>0</ns3:cad>
          </ns3:TrackPointExtension>
        </extensions>
      </trkpt>
      <trkpt lat="37.99187055788934230804443359375" lon="-107.7388112805783748626708984375">
        <ele>3787</ele>
        <time>2026-08-15T14:48:15.000Z</time>
        <extensions>
          <ns3:TrackPointExtension>
            <ns3:hr>96</ns3:hr>
            <ns3:cad>0</ns3:cad>
          </ns3:TrackPointExtension>
        </extensions>
      </trkpt>
      <trkpt lat="37.991879694163799285888671875" lon="-107.73882477544248104095458984375">
        <ele>3787.39990234375</ele>
        <time>2026-08-15T14:48:17.000Z</time>
        <extensions>
          <ns3:TrackPointExtension>
            <ns3:hr>100</ns3:hr>
            <ns3:cad>0</ns3:cad>
          </ns3:TrackPointExtension>
        </extensions>
      </trkpt>
      <trkpt lat="37.99189486540853977203369140625" lon="-107.73883986286818981170654296875">
        <ele>3788</ele>
        <time>2026-08-15T14:48:19.000Z</time>
        <extensions>
          <ns3:TrackPointExtension>
            <ns3:hr>102</ns3:hr>
            <ns3:cad>0</ns3:cad>
          </ns3:TrackPointExtension>
        </extensions>
      </trkpt>
      <trkpt lat="37.99191045574843883514404296875" lon="-107.7388471551239490509033203125">
        <ele>3788.199951171875</ele>
        <time>2026-08-15T14:48:21.000Z</time>
        <extensions>
          <ns3:TrackPointExtension>
            <ns3:hr>105</ns3:hr>
            <ns3:cad>0</ns3:cad>
          </ns3:TrackPointExtension>
        </extensions>
      </trkpt>
      <trkpt lat="37.99191556870937347412109375" lon="-107.7388515137135982513427734375">
        <ele>3788.199951171875</ele>
        <time>2026-08-15T14:48:22.000Z</time>
        <extensions>
          <ns3:TrackPointExtension>
            <ns3:hr>106</ns3:hr>
            <ns3:cad>0</ns3:cad>
          </ns3:TrackPointExtension>
        </extensions>
      </trkpt>
      <trkpt lat="37.99193970859050750732421875" lon="-107.7388806827366352081298828125">
        <ele>3788.199951171875</ele>
        <time>2026-08-15T14:48:27.000Z</time>
        <extensions>
          <ns3:TrackPointExtension>
            <ns3:hr>109</ns3:hr>
            <ns3:cad>0</ns3:cad>
          </ns3:TrackPointExtension>
        </extensions>
      </trkpt>
      <trkpt lat="37.99194867722690105438232421875" lon="-107.73889820091426372528076171875">
        <ele>3788.39990234375</ele>
        <time>2026-08-15T14:48:29.000Z</time>
        <extensions>
          <ns3:TrackPointExtension>
            <ns3:hr>110</ns3:hr>
            <ns3:cad>0</ns3:cad>
          </ns3:TrackPointExtension>
        </extensions>
      </trkpt>
      <trkpt lat="37.991994358599185943603515625" lon="-107.7389557845890522003173828125">
        <ele>3788.800048828125</ele>
        <time>2026-08-15T14:48:35.000Z</time>
        <extensions>
          <ns3:TrackPointExtension>
            <ns3:hr>109</ns3:hr>
            <ns3:cad>0</ns3:cad>
          </ns3:TrackPointExtension>
        </extensions>
      </trkpt>
      <trkpt lat="37.99204389564692974090576171875" lon="-107.739021666347980499267578125">
        <ele>3789.199951171875</ele>
        <time>2026-08-15T14:48:41.000Z</time>
        <extensions>
          <ns3:TrackPointExtension>
            <ns3:hr>108</ns3:hr>
            <ns3:cad>48</ns3:cad>
          </ns3:TrackPointExtension>
        </extensions>
      </trkpt>
      <trkpt lat="37.992082871496677398681640625" lon="-107.73907036520540714263916015625">
        <ele>3789.800048828125</ele>
        <time>2026-08-15T14:48:47.000Z</time>
        <extensions>
          <ns3:TrackPointExtension>
            <ns3:hr>106</ns3:hr>
            <ns3:cad>50</ns3:cad>
          </ns3:TrackPointExtension>
        </extensions>
      </trkpt>
      <trkpt lat="37.9921162314713001251220703125" lon="-107.73913876153528690338134765625">
        <ele>3790</ele>
        <time>2026-08-15T14:48:53.000Z</time>
        <extensions>
          <ns3:TrackPointExtension>
            <ns3:hr>106</ns3:hr>
            <ns3:cad>0</ns3:cad>
          </ns3:TrackPointExtension>
        </extensions>
      </trkpt>
      <trkpt lat="37.99212503246963024139404296875" lon="-107.73915150202810764312744140625">
        <ele>3790.199951171875</ele>
        <time>2026-08-15T14:48:54.000Z</time>
        <extensions>
          <ns3:TrackPointExtension>
            <ns3:hr>106</ns3:hr>
            <ns3:cad>0</ns3:cad>
          </ns3:TrackPointExtension>
        </extensions>
      </trkpt>
      <trkpt lat="37.992128469049930572509765625" lon="-107.73915837518870830535888671875">
        <ele>3790.199951171875</ele>
        <time>2026-08-15T14:48:55.000Z</time>
        <extensions>
          <ns3:TrackPointExtension>
            <ns3:hr>106</ns3:hr>
            <ns3:cad>0</ns3:cad>
          </ns3:TrackPointExtension>
        </extensions>
      </trkpt>
      <trkpt lat="37.9921521060168743133544921875" lon="-107.7392005361616611480712890625">
        <ele>3790.800048828125</ele>
        <time>2026-08-15T14:48:59.000Z</time>
        <extensions>
          <ns3:TrackPointExtension>
            <ns3:hr>107</ns3:hr>
            <ns3:cad>0</ns3:cad>
          </ns3:TrackPointExtension>
        </extensions>
      </trkpt>
      <trkpt lat="37.992169372737407684326171875" lon="-107.739234231412410736083984375">
        <ele>3791.199951171875</ele>
        <time>2026-08-15T14:49:02.000Z</time>
        <extensions>
          <ns3:TrackPointExtension>
            <ns3:hr>105</ns3:hr>
            <ns3:cad>47</ns3:cad>
          </ns3:TrackPointExtension>
        </extensions>
      </trkpt>
      <trkpt lat="37.9921762458980083465576171875" lon="-107.7392466366291046142578125">
        <ele>3791.60009765625</ele>
        <time>2026-08-15T14:49:04.000Z</time>
        <extensions>
          <ns3:TrackPointExtension>
            <ns3:hr>104</ns3:hr>
            <ns3:cad>47</ns3:cad>
          </ns3:TrackPointExtension>
        </extensions>
      </trkpt>
      <trkpt lat="37.99219409935176372528076171875" lon="-107.7392957545816898345947265625">
        <ele>3792</ele>
        <time>2026-08-15T14:49:09.000Z</time>
        <extensions>
          <ns3:TrackPointExtension>
            <ns3:hr>104</ns3:hr>
            <ns3:cad>0</ns3:cad>
          </ns3:TrackPointExtension>
        </extensions>
      </trkpt>
      <trkpt lat="37.99220549874007701873779296875" lon="-107.739308662712574005126953125">
        <ele>3792.39990234375</ele>
        <time>2026-08-15T14:49:11.000Z</time>
        <extensions>
          <ns3:TrackPointExtension>
            <ns3:hr>104</ns3:hr>
            <ns3:cad>0</ns3:cad>
          </ns3:TrackPointExtension>
        </extensions>
      </trkpt>
      <trkpt lat="37.99220818094909191131591796875" lon="-107.73935384117066860198974609375">
        <ele>3792.60009765625</ele>
        <time>2026-08-15T14:49:15.000Z</time>
        <extensions>
          <ns3:TrackPointExtension>
            <ns3:hr>102</ns3:hr>
            <ns3:cad>0</ns3:cad>
          </ns3:TrackPointExtension>
        </extensions>
      </trkpt>
      <trkpt lat="37.992232739925384521484375" lon="-107.7393980138003826141357421875">
        <ele>3793</ele>
        <time>2026-08-15T14:49:21.000Z</time>
        <extensions>
          <ns3:TrackPointExtension>
            <ns3:hr>102</ns3:hr>
            <ns3:cad>0</ns3:cad>
          </ns3:TrackPointExtension>
        </extensions>
      </trkpt>
      <trkpt lat="37.99223399721086025238037109375" lon="-107.7394000254571437835693359375">
        <ele>3793.199951171875</ele>
        <time>2026-08-15T14:49:22.000Z</time>
        <extensions>
          <ns3:TrackPointExtension>
            <ns3:hr>103</ns3:hr>
            <ns3:cad>0</ns3:cad>
          </ns3:TrackPointExtension>
        </extensions>
      </trkpt>
      <trkpt lat="37.99223366193473339080810546875" lon="-107.7394063957035541534423828125">
        <ele>3793.199951171875</ele>
        <time>2026-08-15T14:49:23.000Z</time>
        <extensions>
          <ns3:TrackPointExtension>
            <ns3:hr>103</ns3:hr>
            <ns3:cad>0</ns3:cad>
          </ns3:TrackPointExtension>
        </extensions>
      </trkpt>
      <trkpt lat="37.99224070273339748382568359375" lon="-107.73942190222442150115966796875">
        <ele>3793.39990234375</ele>
        <time>2026-08-15T14:49:25.000Z</time>
        <extensions>
          <ns3:TrackPointExtension>
            <ns3:hr>103</ns3:hr>
            <ns3:cad>0</ns3:cad>
          </ns3:TrackPointExtension>
        </extensions>
      </trkpt>
      <trkpt lat="37.99225478433072566986083984375" lon="-107.73944721557199954986572265625">
        <ele>3794.39990234375</ele>
        <time>2026-08-15T14:49:28.000Z</time>
        <extensions>
          <ns3:TrackPointExtension>
            <ns3:hr>103</ns3:hr>
            <ns3:cad>0</ns3:cad>
          </ns3:TrackPointExtension>
        </extensions>
      </trkpt>
      <trkpt lat="37.9922560416162014007568359375" lon="-107.7394545078277587890625">
        <ele>3794.60009765625</ele>
        <time>2026-08-15T14:49:29.000Z</time>
        <extensions>
          <ns3:TrackPointExtension>
            <ns3:hr>103</ns3:hr>
            <ns3:cad>0</ns3:cad>
          </ns3:TrackPointExtension>
        </extensions>
      </trkpt>
      <trkpt lat="37.99226065166294574737548828125" lon="-107.73949683643877506256103515625">
        <ele>3795.39990234375</ele>
        <time>2026-08-15T14:49:34.000Z</time>
        <extensions>
          <ns3:TrackPointExtension>
            <ns3:hr>104</ns3:hr>
            <ns3:cad>0</ns3:cad>
          </ns3:TrackPointExtension>
        </extensions>
      </trkpt>
      <trkpt lat="37.9922590591013431549072265625" lon="-107.73952759802341461181640625">
        <ele>3795.800048828125</ele>
        <time>2026-08-15T14:49:37.000Z</time>
        <extensions>
          <ns3:TrackPointExtension>
            <ns3:hr>104</ns3:hr>
            <ns3:cad>0</ns3:cad>
          </ns3:TrackPointExtension>
        </extensions>
      </trkpt>
      <trkpt lat="37.99225646071135997772216796875" lon="-107.73954628966748714447021484375">
        <ele>3796.199951171875</ele>
        <time>2026-08-15T14:49:39.000Z</time>
        <extensions>
          <ns3:TrackPointExtension>
            <ns3:hr>103</ns3:hr>
            <ns3:cad>0</ns3:cad>
          </ns3:TrackPointExtension>
        </extensions>
      </trkpt>
      <trkpt lat="37.99226316623389720916748046875" lon="-107.73956087417900562286376953125">
        <ele>3797</ele>
        <time>2026-08-15T14:49:42.000Z</time>
        <extensions>
          <ns3:TrackPointExtension>
            <ns3:hr>103</ns3:hr>
            <ns3:cad>0</ns3:cad>
          </ns3:TrackPointExtension>
        </extensions>
      </trkpt>
      <trkpt lat="37.99226232804358005523681640625" lon="-107.73956523276865482330322265625">
        <ele>3797</ele>
        <time>2026-08-15T14:49:44.000Z</time>
        <extensions>
          <ns3:TrackPointExtension>
            <ns3:hr>103</ns3:hr>
            <ns3:cad>0</ns3:cad>
          </ns3:TrackPointExtension>
        </extensions>
      </trkpt>
      <trkpt lat="37.99228462390601634979248046875" lon="-107.73962591774761676788330078125">
        <ele>3797.60009765625</ele>
        <time>2026-08-15T14:49:50.000Z</time>
        <extensions>
          <ns3:TrackPointExtension>
            <ns3:hr>107</ns3:hr>
            <ns3:cad>46</ns3:cad>
          </ns3:TrackPointExtension>
        </extensions>
      </trkpt>
      <trkpt lat="37.99228169023990631103515625" lon="-107.739639580249786376953125">
        <ele>3798</ele>
        <time>2026-08-15T14:49:52.000Z</time>
        <extensions>
          <ns3:TrackPointExtension>
            <ns3:hr>108</ns3:hr>
            <ns3:cad>46</ns3:cad>
          </ns3:TrackPointExtension>
        </extensions>
      </trkpt>
      <trkpt lat="37.99228579737246036529541015625" lon="-107.7396677434444427490234375">
        <ele>3798.800048828125</ele>
        <time>2026-08-15T14:49:55.000Z</time>
        <extensions>
          <ns3:TrackPointExtension>
            <ns3:hr>109</ns3:hr>
            <ns3:cad>0</ns3:cad>
          </ns3:TrackPointExtension>
        </extensions>
      </trkpt>
      <trkpt lat="37.992286719381809234619140625" lon="-107.73968023248016834259033203125">
        <ele>3799.199951171875</ele>
        <time>2026-08-15T14:49:57.000Z</time>
        <extensions>
          <ns3:TrackPointExtension>
            <ns3:hr>109</ns3:hr>
            <ns3:cad>0</ns3:cad>
          </ns3:TrackPointExtension>
        </extensions>
      </trkpt>
      <trkpt lat="37.99230105243623256683349609375" lon="-107.73969967849552631378173828125">
        <ele>3800.199951171875</ele>
        <time>2026-08-15T14:50:01.000Z</time>
        <extensions>
          <ns3:TrackPointExtension>
            <ns3:hr>108</ns3:hr>
            <ns3:cad>0</ns3:cad>
          </ns3:TrackPointExtension>
        </extensions>
      </trkpt>
      <trkpt lat="37.99230457283556461334228515625" lon="-107.73971912451088428497314453125">
        <ele>3801</ele>
        <time>2026-08-15T14:50:04.000Z</time>
        <extensions>
          <ns3:TrackPointExtension>
            <ns3:hr>111</ns3:hr>
            <ns3:cad>0</ns3:cad>
          </ns3:TrackPointExtension>
        </extensions>
      </trkpt>
      <trkpt lat="37.9923046566545963287353515625" lon="-107.7397252433001995086669921875">
        <ele>3801.199951171875</ele>
        <time>2026-08-15T14:50:05.000Z</time>
        <extensions>
          <ns3:TrackPointExtension>
            <ns3:hr>111</ns3:hr>
            <ns3:cad>0</ns3:cad>
          </ns3:TrackPointExtension>
        </extensions>
      </trkpt>
      <trkpt lat="37.99230448901653289794921875" lon="-107.7397389896214008331298828125">
        <ele>3801.60009765625</ele>
        <time>2026-08-15T14:50:07.000Z</time>
        <extensions>
          <ns3:TrackPointExtension>
            <ns3:hr>111</ns3:hr>
            <ns3:cad>0</ns3:cad>
          </ns3:TrackPointExtension>
        </extensions>
      </trkpt>
      <trkpt lat="37.992303483188152313232421875" lon="-107.73976589553058147430419921875">
        <ele>3802.39990234375</ele>
        <time>2026-08-15T14:50:11.000Z</time>
        <extensions>
          <ns3:TrackPointExtension>
            <ns3:hr>112</ns3:hr>
            <ns3:cad>0</ns3:cad>
          </ns3:TrackPointExtension>
        </extensions>
      </trkpt>
      <trkpt lat="37.992299459874629974365234375" lon="-107.7397839166224002838134765625">
        <ele>3803</ele>
        <time>2026-08-15T14:50:13.000Z</time>
        <extensions>
          <ns3:TrackPointExtension>
            <ns3:hr>112</ns3:hr>
            <ns3:cad>0</ns3:cad>
          </ns3:TrackPointExtension>
        </extensions>
      </trkpt>
      <trkpt lat="37.99230339936912059783935546875" lon="-107.73979858495295047760009765625">
        <ele>3803.39990234375</ele>
        <time>2026-08-15T14:50:15.000Z</time>
        <extensions>
          <ns3:TrackPointExtension>
            <ns3:hr>112</ns3:hr>
            <ns3:cad>0</ns3:cad>
          </ns3:TrackPointExtension>
        </extensions>
      </trkpt>
      <trkpt lat="37.99230406992137432098388671875" lon="-107.73982255719602108001708984375">
        <ele>3804</ele>
        <time>2026-08-15T14:50:20.000Z</time>
        <extensions>
          <ns3:TrackPointExtension>
            <ns3:hr>112</ns3:hr>
            <ns3:cad>0</ns3:cad>
          </ns3:TrackPointExtension>
        </extensions>
      </trkpt>
      <trkpt lat="37.992302812635898590087890625" lon="-107.73983043618500232696533203125">
        <ele>3804.60009765625</ele>
        <time>2026-08-15T14:50:22.000Z</time>
        <extensions>
          <ns3:TrackPointExtension>
            <ns3:hr>112</ns3:hr>
            <ns3:cad>0</ns3:cad>
          </ns3:TrackPointExtension>
        </extensions>
      </trkpt>
      <trkpt lat="37.99230574630200862884521484375" lon="-107.7398395724594593048095703125">
        <ele>3805</ele>
        <time>2026-08-15T14:50:24.000Z</time>
        <extensions>
          <ns3:TrackPointExtension>
            <ns3:hr>116</ns3:hr>
            <ns3:cad>0</ns3:cad>
          </ns3:TrackPointExtension>
        </extensions>
      </trkpt>
      <trkpt lat="37.9923133738338947296142578125" lon="-107.739850468933582305908203125">
        <ele>3805.39990234375</ele>
        <time>2026-08-15T14:50:27.000Z</time>
        <extensions>
          <ns3:TrackPointExtension>
            <ns3:hr>118</ns3:hr>
            <ns3:cad>0</ns3:cad>
          </ns3:TrackPointExtension>
        </extensions>
      </trkpt>
      <trkpt lat="37.9923140443861484527587890625" lon="-107.73985642008483409881591796875">
        <ele>3805.60009765625</ele>
        <time>2026-08-15T14:50:29.000Z</time>
        <extensions>
          <ns3:TrackPointExtension>
            <ns3:hr>116</ns3:hr>
            <ns3:cad>0</ns3:cad>
          </ns3:TrackPointExtension>
        </extensions>
      </trkpt>
      <trkpt lat="37.9923023097217082977294921875" lon="-107.73989179171621799468994140625">
        <ele>3806.60009765625</ele>
        <time>2026-08-15T14:50:34.000Z</time>
        <extensions>
          <ns3:TrackPointExtension>
            <ns3:hr>114</ns3:hr>
            <ns3:cad>0</ns3:cad>
          </ns3:TrackPointExtension>
        </extensions>
      </trkpt>
      <trkpt lat="37.99230088479816913604736328125" lon="-107.73989514447748661041259765625">
        <ele>3806.60009765625</ele>
        <time>2026-08-15T14:50:35.000Z</time>
        <extensions>
          <ns3:TrackPointExtension>
            <ns3:hr>113</ns3:hr>
            <ns3:cad>0</ns3:cad>
          </ns3:TrackPointExtension>
        </extensions>
      </trkpt>
      <trkpt lat="37.9923049919307231903076171875" lon="-107.73990151472389698028564453125">
        <ele>3807.39990234375</ele>
        <time>2026-08-15T14:50:39.000Z</time>
        <extensions>
          <ns3:TrackPointExtension>
            <ns3:hr>110</ns3:hr>
            <ns3:cad>0</ns3:cad>
          </ns3:TrackPointExtension>
        </extensions>
      </trkpt>
      <trkpt lat="37.99230792559683322906494140625" lon="-107.7398930490016937255859375">
        <ele>3807.39990234375</ele>
        <time>2026-08-15T14:50:41.000Z</time>
        <extensions>
          <ns3:TrackPointExtension>
            <ns3:hr>109</ns3:hr>
            <ns3:cad>0</ns3:cad>
          </ns3:TrackPointExtension>
        </extensions>
      </trkpt>
      <trkpt lat="37.9923091828823089599609375" lon="-107.73989983834326267242431640625">
        <ele>3807.199951171875</ele>
        <time>2026-08-15T14:50:47.000Z</time>
        <extensions>
          <ns3:TrackPointExtension>
            <ns3:hr>110</ns3:hr>
            <ns3:cad>0</ns3:cad>
          </ns3:TrackPointExtension>
        </extensions>
      </trkpt>
      <trkpt lat="37.99230675213038921356201171875" lon="-107.73993336595594882965087890625">
        <ele>3807.800048828125</ele>
        <time>2026-08-15T14:50:50.000Z</time>
        <extensions>
          <ns3:TrackPointExtension>
            <ns3:hr>110</ns3:hr>
            <ns3:cad>0</ns3:cad>
          </ns3:TrackPointExtension>
        </extensions>
      </trkpt>
      <trkpt lat="37.99230960197746753692626953125" lon="-107.739930264651775360107421875">
        <ele>3808.39990234375</ele>
        <time>2026-08-15T14:50:54.000Z</time>
        <extensions>
          <ns3:TrackPointExtension>
            <ns3:hr>113</ns3:hr>
            <ns3:cad>0</ns3:cad>
          </ns3:TrackPointExtension>
        </extensions>
      </trkpt>
      <trkpt lat="37.99230960197746753692626953125" lon="-107.739930264651775360107421875">
        <ele>3808.199951171875</ele>
        <time>2026-08-15T14:50:58.000Z</time>
        <extensions>
          <ns3:TrackPointExtension>
            <ns3:hr>115</ns3:hr>
            <ns3:cad>0</ns3:cad>
          </ns3:TrackPointExtension>
        </extensions>
      </trkpt>
      <trkpt lat="37.99230960197746753692626953125" lon="-107.739930264651775360107421875">
        <ele>3808.199951171875</ele>
        <time>2026-08-15T14:51:01.000Z</time>
        <extensions>
          <ns3:TrackPointExtension>
            <ns3:hr>119</ns3:hr>
            <ns3:cad>0</ns3:cad>
          </ns3:TrackPointExtension>
        </extensions>
      </trkpt>
      <trkpt lat="37.99230960197746753692626953125" lon="-107.739930264651775360107421875">
        <ele>3808.199951171875</ele>
        <time>2026-08-15T14:51:07.000Z</time>
        <extensions>
          <ns3:TrackPointExtension>
            <ns3:hr>120</ns3:hr>
            <ns3:cad>0</ns3:cad>
          </ns3:TrackPointExtension>
        </extensions>
      </trkpt>
      <trkpt lat="37.99230339936912059783935546875" lon="-107.7399371378123760223388671875">
        <ele>3808.199951171875</ele>
        <time>2026-08-15T14:51:13.000Z</time>
        <extensions>
          <ns3:TrackPointExtension>
            <ns3:hr>118</ns3:hr>
            <ns3:cad>0</ns3:cad>
          </ns3:TrackPointExtension>
        </extensions>
      </trkpt>
      <trkpt lat="37.99230038188397884368896484375" lon="-107.73995985276997089385986328125">
        <ele>3808.60009765625</ele>
        <time>2026-08-15T14:51:16.000Z</time>
        <extensions>
          <ns3:TrackPointExtension>
            <ns3:hr>114</ns3:hr>
            <ns3:cad>0</ns3:cad>
          </ns3:TrackPointExtension>
        </extensions>
      </trkpt>
      <trkpt lat="37.99230004660785198211669921875" lon="-107.7399683184921741485595703125">
        <ele>3808.800048828125</ele>
        <time>2026-08-15T14:51:17.000Z</time>
        <extensions>
          <ns3:TrackPointExtension>
            <ns3:hr>114</ns3:hr>
            <ns3:cad>0</ns3:cad>
          </ns3:TrackPointExtension>
        </extensions>
      </trkpt>
      <trkpt lat="37.99230289645493030548095703125" lon="-107.73998667486011981964111328125">
        <ele>3810</ele>
        <time>2026-08-15T14:51:20.000Z</time>
        <extensions>
          <ns3:TrackPointExtension>
            <ns3:hr>114</ns3:hr>
            <ns3:cad>0</ns3:cad>
          </ns3:TrackPointExtension>
        </extensions>
      </trkpt>
      <trkpt lat="37.99228915013372898101806640625" lon="-107.74002925492823123931884765625">
        <ele>3811.199951171875</ele>
        <time>2026-08-15T14:51:24.000Z</time>
        <extensions>
          <ns3:TrackPointExtension>
            <ns3:hr>113</ns3:hr>
            <ns3:cad>62</ns3:cad>
          </ns3:TrackPointExtension>
        </extensions>
      </trkpt>
      <trkpt lat="37.99228345043957233428955078125" lon="-107.74004417471587657928466796875">
        <ele>3811.60009765625</ele>
        <time>2026-08-15T14:51:26.000Z</time>
        <extensions>
          <ns3:TrackPointExtension>
            <ns3:hr>114</ns3:hr>
            <ns3:cad>66</ns3:cad>
          </ns3:TrackPointExtension>
        </extensions>
      </trkpt>
      <trkpt lat="37.99227791838347911834716796875" lon="-107.74009161628782749176025390625">
        <ele>3812.39990234375</ele>
        <time>2026-08-15T14:51:32.000Z</time>
        <extensions>
          <ns3:TrackPointExtension>
            <ns3:hr>114</ns3:hr>
            <ns3:cad>79</ns3:cad>
          </ns3:TrackPointExtension>
        </extensions>
      </trkpt>
      <trkpt lat="37.9922637529671192169189453125" lon="-107.74010418914258480072021484375">
        <ele>3813</ele>
        <time>2026-08-15T14:51:34.000Z</time>
        <extensions>
          <ns3:TrackPointExtension>
            <ns3:hr>114</ns3:hr>
            <ns3:cad>79</ns3:cad>
          </ns3:TrackPointExtension>
        </extensions>
      </trkpt>
      <trkpt lat="37.99225579015910625457763671875" lon="-107.7401289157569408416748046875">
        <ele>3813.60009765625</ele>
        <time>2026-08-15T14:51:36.000Z</time>
        <extensions>
          <ns3:TrackPointExtension>
            <ns3:hr>114</ns3:hr>
            <ns3:cad>79</ns3:cad>
          </ns3:TrackPointExtension>
        </extensions>
      </trkpt>
      <trkpt lat="37.99226182512938976287841796875" lon="-107.74019957520067691802978515625">
        <ele>3814</ele>
        <time>2026-08-15T14:51:41.000Z</time>
        <extensions>
          <ns3:TrackPointExtension>
            <ns3:hr>112</ns3:hr>
            <ns3:cad>72</ns3:cad>
          </ns3:TrackPointExtension>
        </extensions>
      </trkpt>
      <trkpt lat="37.9922547005116939544677734375" lon="-107.74020661599934101104736328125">
        <ele>3814.39990234375</ele>
        <time>2026-08-15T14:51:44.000Z</time>
        <extensions>
          <ns3:TrackPointExtension>
            <ns3:hr>112</ns3:hr>
            <ns3:cad>0</ns3:cad>
          </ns3:TrackPointExtension>
        </extensions>
      </trkpt>
      <trkpt lat="37.99224522896111011505126953125" lon="-107.74022555910050868988037109375">
        <ele>3814.60009765625</ele>
        <time>2026-08-15T14:51:46.000Z</time>
        <extensions>
          <ns3:TrackPointExtension>
            <ns3:hr>112</ns3:hr>
            <ns3:cad>0</ns3:cad>
          </ns3:TrackPointExtension>
        </extensions>
      </trkpt>
      <trkpt lat="37.9922308959066867828369140625" lon="-107.74030284024775028228759765625">
        <ele>3815.39990234375</ele>
        <time>2026-08-15T14:51:52.000Z</time>
        <extensions>
          <ns3:TrackPointExtension>
            <ns3:hr>112</ns3:hr>
            <ns3:cad>0</ns3:cad>
          </ns3:TrackPointExtension>
        </extensions>
      </trkpt>
      <trkpt lat="37.9922298900783061981201171875" lon="-107.740309797227382659912109375">
        <ele>3815.60009765625</ele>
        <time>2026-08-15T14:51:53.000Z</time>
        <extensions>
          <ns3:TrackPointExtension>
            <ns3:hr>112</ns3:hr>
            <ns3:cad>0</ns3:cad>
          </ns3:TrackPointExtension>
        </extensions>
      </trkpt>
      <trkpt lat="37.99222829751670360565185546875" lon="-107.74031574837863445281982421875">
        <ele>3815.800048828125</ele>
        <time>2026-08-15T14:51:54.000Z</time>
        <extensions>
          <ns3:TrackPointExtension>
            <ns3:hr>112</ns3:hr>
            <ns3:cad>0</ns3:cad>
          </ns3:TrackPointExtension>
        </extensions>
      </trkpt>
      <trkpt lat="37.99222896806895732879638671875" lon="-107.74037844501435756683349609375">
        <ele>3816.60009765625</ele>
        <time>2026-08-15T14:52:00.000Z</time>
        <extensions>
          <ns3:TrackPointExtension>
            <ns3:hr>111</ns3:hr>
            <ns3:cad>45</ns3:cad>
          </ns3:TrackPointExtension>
        </extensions>
      </trkpt>
      <trkpt lat="37.99223014153540134429931640625" lon="-107.74039604701101779937744140625">
        <ele>3817</ele>
        <time>2026-08-15T14:52:02.000Z</time>
        <extensions>
          <ns3:TrackPointExtension>
            <ns3:hr>111</ns3:hr>
            <ns3:cad>45</ns3:cad>
          </ns3:TrackPointExtension>
        </extensions>
      </trkpt>
      <trkpt lat="37.99224137328565120697021484375" lon="-107.74045656435191631317138671875">
        <ele>3817.800048828125</ele>
        <time>2026-08-15T14:52:07.000Z</time>
        <extensions>
          <ns3:TrackPointExtension>
            <ns3:hr>110</ns3:hr>
            <ns3:cad>0</ns3:cad>
          </ns3:TrackPointExtension>
        </extensions>
      </trkpt>
      <trkpt lat="37.9922463186085224151611328125" lon="-107.7404670417308807373046875">
        <ele>3818.199951171875</ele>
        <time>2026-08-15T14:52:09.000Z</time>
        <extensions>
          <ns3:TrackPointExtension>
            <ns3:hr>111</ns3:hr>
            <ns3:cad>0</ns3:cad>
          </ns3:TrackPointExtension>
        </extensions>
      </trkpt>
      <trkpt lat="37.99225847236812114715576171875" lon="-107.74050098843872547149658203125">
        <ele>3818.800048828125</ele>
        <time>2026-08-15T14:52:14.000Z</time>
        <extensions>
          <ns3:TrackPointExtension>
            <ns3:hr>111</ns3:hr>
            <ns3:cad>0</ns3:cad>
          </ns3:TrackPointExtension>
        </extensions>
      </trkpt>
      <trkpt lat="37.99225981347262859344482421875" lon="-107.74050903506577014923095703125">
        <ele>3818.800048828125</ele>
        <time>2026-08-15T14:52:15.000Z</time>
        <extensions>
          <ns3:TrackPointExtension>
            <ns3:hr>108</ns3:hr>
            <ns3:cad>0</ns3:cad>
          </ns3:TrackPointExtension>
        </extensions>
      </trkpt>
      <trkpt lat="37.9922536946833133697509765625" lon="-107.74052194319665431976318359375">
        <ele>3819.199951171875</ele>
        <time>2026-08-15T14:52:17.000Z</time>
        <extensions>
          <ns3:TrackPointExtension>
            <ns3:hr>104</ns3:hr>
            <ns3:cad>0</ns3:cad>
          </ns3:TrackPointExtension>
        </extensions>
      </trkpt>
      <trkpt lat="37.99223768524825572967529296875" lon="-107.740540467202663421630859375">
        <ele>3819.800048828125</ele>
        <time>2026-08-15T14:52:21.000Z</time>
        <extensions>
          <ns3:TrackPointExtension>
            <ns3:hr>103</ns3:hr>
            <ns3:cad>0</ns3:cad>
          </ns3:TrackPointExtension>
        </extensions>
      </trkpt>
      <trkpt lat="37.9922251962125301361083984375" lon="-107.74057474918663501739501953125">
        <ele>3820.199951171875</ele>
        <time>2026-08-15T14:52:26.000Z</time>
        <extensions>
          <ns3:TrackPointExtension>
            <ns3:hr>105</ns3:hr>
            <ns3:cad>0</ns3:cad>
          </ns3:TrackPointExtension>
        </extensions>
      </trkpt>
      <trkpt lat="37.9922231845557689666748046875" lon="-107.7405791915953159332275390625">
        <ele>3820.39990234375</ele>
        <time>2026-08-15T14:52:27.000Z</time>
        <extensions>
          <ns3:TrackPointExtension>
            <ns3:hr>105</ns3:hr>
            <ns3:cad>0</ns3:cad>
          </ns3:TrackPointExtension>
        </extensions>
      </trkpt>
      <trkpt lat="37.99220700748264789581298828125" lon="-107.74062386713922023773193359375">
        <ele>3821.199951171875</ele>
        <time>2026-08-15T14:52:32.000Z</time>
        <extensions>
          <ns3:TrackPointExtension>
            <ns3:hr>106</ns3:hr>
            <ns3:cad>0</ns3:cad>
          </ns3:TrackPointExtension>
        </extensions>
      </trkpt>
      <trkpt lat="37.9922126233577728271484375" lon="-107.74063476361334323883056640625">
        <ele>3821.60009765625</ele>
        <time>2026-08-15T14:52:35.000Z</time>
        <extensions>
          <ns3:TrackPointExtension>
            <ns3:hr>106</ns3:hr>
            <ns3:cad>0</ns3:cad>
          </ns3:TrackPointExtension>
        </extensions>
      </trkpt>
      <trkpt lat="37.99220860004425048828125" lon="-107.74064700119197368621826171875">
        <ele>3821.60009765625</ele>
        <time>2026-08-15T14:52:36.000Z</time>
        <extensions>
          <ns3:TrackPointExtension>
            <ns3:hr>107</ns3:hr>
            <ns3:cad>45</ns3:cad>
          </ns3:TrackPointExtension>
        </extensions>
      </trkpt>
      <trkpt lat="37.99217683263123035430908203125" lon="-107.740679942071437835693359375">
        <ele>3822.39990234375</ele>
        <time>2026-08-15T14:52:42.000Z</time>
        <extensions>
          <ns3:TrackPointExtension>
            <ns3:hr>107</ns3:hr>
            <ns3:cad>40</ns3:cad>
          </ns3:TrackPointExtension>
        </extensions>
      </trkpt>
      <trkpt lat="37.9921742342412471771240234375" lon="-107.74068572558462619781494140625">
        <ele>3822.60009765625</ele>
        <time>2026-08-15T14:52:43.000Z</time>
        <extensions>
          <ns3:TrackPointExtension>
            <ns3:hr>108</ns3:hr>
            <ns3:cad>40</ns3:cad>
          </ns3:TrackPointExtension>
        </extensions>
      </trkpt>
      <trkpt lat="37.99216845072805881500244140625" lon="-107.7407240308821201324462890625">
        <ele>3823.60009765625</ele>
        <time>2026-08-15T14:52:47.000Z</time>
        <extensions>
          <ns3:TrackPointExtension>
            <ns3:hr>111</ns3:hr>
            <ns3:cad>40</ns3:cad>
          </ns3:TrackPointExtension>
        </extensions>
      </trkpt>
      <trkpt lat="37.9921675287187099456787109375" lon="-107.740730233490467071533203125">
        <ele>3823.800048828125</ele>
        <time>2026-08-15T14:52:48.000Z</time>
        <extensions>
          <ns3:TrackPointExtension>
            <ns3:hr>112</ns3:hr>
            <ns3:cad>0</ns3:cad>
          </ns3:TrackPointExtension>
        </extensions>
      </trkpt>
      <trkpt lat="37.99216526560485363006591796875" lon="-107.74073970504105091094970703125">
        <ele>3824</ele>
        <time>2026-08-15T14:52:49.000Z</time>
        <extensions>
          <ns3:TrackPointExtension>
            <ns3:hr>114</ns3:hr>
            <ns3:cad>0</ns3:cad>
          </ns3:TrackPointExtension>
        </extensions>
      </trkpt>
      <trkpt lat="37.99216057173907756805419921875" lon="-107.740755714476108551025390625">
        <ele>3824.39990234375</ele>
        <time>2026-08-15T14:52:51.000Z</time>
        <extensions>
          <ns3:TrackPointExtension>
            <ns3:hr>118</ns3:hr>
            <ns3:cad>0</ns3:cad>
          </ns3:TrackPointExtension>
        </extensions>
      </trkpt>
      <trkpt lat="37.99215696752071380615234375" lon="-107.74076619185507297515869140625">
        <ele>3824.800048828125</ele>
        <time>2026-08-15T14:52:53.000Z</time>
        <extensions>
          <ns3:TrackPointExtension>
            <ns3:hr>120</ns3:hr>
            <ns3:cad>0</ns3:cad>
          </ns3:TrackPointExtension>
        </extensions>
      </trkpt>
      <trkpt lat="37.99215671606361865997314453125" lon="-107.740775831043720245361328125">
        <ele>3825</ele>
        <time>2026-08-15T14:52:55.000Z</time>
        <extensions>
          <ns3:TrackPointExtension>
            <ns3:hr>121</ns3:hr>
            <ns3:cad>0</ns3:cad>
          </ns3:TrackPointExtension>
        </extensions>
      </trkpt>
      <trkpt lat="37.9921346716582775115966796875" lon="-107.74077490903437137603759765625">
        <ele>3825.800048828125</ele>
        <time>2026-08-15T14:53:00.000Z</time>
        <extensions>
          <ns3:TrackPointExtension>
            <ns3:hr>120</ns3:hr>
            <ns3:cad>0</ns3:cad>
          </ns3:TrackPointExtension>
        </extensions>
      </trkpt>
      <trkpt lat="37.9921276308596134185791015625" lon="-107.74077608250081539154052734375">
        <ele>3826</ele>
        <time>2026-08-15T14:53:01.000Z</time>
        <extensions>
          <ns3:TrackPointExtension>
            <ns3:hr>120</ns3:hr>
            <ns3:cad>0</ns3:cad>
          </ns3:TrackPointExtension>
        </extensions>
      </trkpt>
      <trkpt lat="37.9920917563140392303466796875" lon="-107.74078060872852802276611328125">
        <ele>3827</ele>
        <time>2026-08-15T14:53:07.000Z</time>
        <extensions>
          <ns3:TrackPointExtension>
            <ns3:hr>122</ns3:hr>
            <ns3:cad>60</ns3:cad>
          </ns3:TrackPointExtension>
        </extensions>
      </trkpt>
      <trkpt lat="37.9920570552349090576171875" lon="-107.74079284630715847015380859375">
        <ele>3827.60009765625</ele>
        <time>2026-08-15T14:53:13.000Z</time>
        <extensions>
          <ns3:TrackPointExtension>
            <ns3:hr>123</ns3:hr>
            <ns3:cad>45</ns3:cad>
          </ns3:TrackPointExtension>
        </extensions>
      </trkpt>
      <trkpt lat="37.9920508526265621185302734375" lon="-107.74079921655356884002685546875">
        <ele>3827.800048828125</ele>
        <time>2026-08-15T14:53:14.000Z</time>
        <extensions>
          <ns3:TrackPointExtension>
            <ns3:hr>122</ns3:hr>
            <ns3:cad>45</ns3:cad>
          </ns3:TrackPointExtension>
        </extensions>
      </trkpt>
      <trkpt lat="37.99203786067664623260498046875" lon="-107.74080961011350154876708984375">
        <ele>3828</ele>
        <time>2026-08-15T14:53:16.000Z</time>
        <extensions>
          <ns3:TrackPointExtension>
            <ns3:hr>121</ns3:hr>
            <ns3:cad>0</ns3:cad>
          </ns3:TrackPointExtension>
        </extensions>
      </trkpt>
      <trkpt lat="37.99202310852706432342529296875" lon="-107.7408283017575740814208984375">
        <ele>3828.39990234375</ele>
        <time>2026-08-15T14:53:18.000Z</time>
        <extensions>
          <ns3:TrackPointExtension>
            <ns3:hr>118</ns3:hr>
            <ns3:cad>0</ns3:cad>
          </ns3:TrackPointExtension>
        </extensions>
      </trkpt>
      <trkpt lat="37.99201657064259052276611328125" lon="-107.740835510194301605224609375">
        <ele>3828.60009765625</ele>
        <time>2026-08-15T14:53:19.000Z</time>
        <extensions>
          <ns3:TrackPointExtension>
            <ns3:hr>117</ns3:hr>
            <ns3:cad>0</ns3:cad>
          </ns3:TrackPointExtension>
        </extensions>
      </trkpt>
      <trkpt lat="37.99197952263057231903076171875" lon="-107.74088068865239620208740234375">
        <ele>3829.199951171875</ele>
        <time>2026-08-15T14:53:25.000Z</time>
        <extensions>
          <ns3:TrackPointExtension>
            <ns3:hr>117</ns3:hr>
            <ns3:cad>0</ns3:cad>
          </ns3:TrackPointExtension>
        </extensions>
      </trkpt>
      <trkpt lat="37.99195236526429653167724609375" lon="-107.7409188263118267059326171875">
        <ele>3829.800048828125</ele>
        <time>2026-08-15T14:53:30.000Z</time>
        <extensions>
          <ns3:TrackPointExtension>
            <ns3:hr>114</ns3:hr>
            <ns3:cad>0</ns3:cad>
          </ns3:TrackPointExtension>
        </extensions>
      </trkpt>
      <trkpt lat="37.99195035360753536224365234375" lon="-107.74092561565339565277099609375">
        <ele>3830</ele>
        <time>2026-08-15T14:53:31.000Z</time>
        <extensions>
          <ns3:TrackPointExtension>
            <ns3:hr>113</ns3:hr>
            <ns3:cad>0</ns3:cad>
          </ns3:TrackPointExtension>
        </extensions>
      </trkpt>
      <trkpt lat="37.99194582737982273101806640625" lon="-107.7409288845956325531005859375">
        <ele>3830.199951171875</ele>
        <time>2026-08-15T14:53:32.000Z</time>
        <extensions>
          <ns3:TrackPointExtension>
            <ns3:hr>113</ns3:hr>
            <ns3:cad>0</ns3:cad>
          </ns3:TrackPointExtension>
        </extensions>
      </trkpt>
      <trkpt lat="37.9919043369591236114501953125" lon="-107.7409697882831096649169921875">
        <ele>3831</ele>
        <time>2026-08-15T14:53:38.000Z</time>
        <extensions>
          <ns3:TrackPointExtension>
            <ns3:hr>111</ns3:hr>
            <ns3:cad>0</ns3:cad>
          </ns3:TrackPointExtension>
        </extensions>
      </trkpt>
      <trkpt lat="37.99189050681889057159423828125" lon="-107.74098026566207408905029296875">
        <ele>3831.199951171875</ele>
        <time>2026-08-15T14:53:40.000Z</time>
        <extensions>
          <ns3:TrackPointExtension>
            <ns3:hr>112</ns3:hr>
            <ns3:cad>0</ns3:cad>
          </ns3:TrackPointExtension>
        </extensions>
      </trkpt>
      <trkpt lat="37.99185312353074550628662109375" lon="-107.74102888070046901702880859375">
        <ele>3832.199951171875</ele>
        <time>2026-08-15T14:53:46.000Z</time>
        <extensions>
          <ns3:TrackPointExtension>
            <ns3:hr>112</ns3:hr>
            <ns3:cad>0</ns3:cad>
          </ns3:TrackPointExtension>
        </extensions>
      </trkpt>
      <trkpt lat="37.9918211884796619415283203125" lon="-107.7410720475018024444580078125">
        <ele>3833.199951171875</ele>
        <time>2026-08-15T14:53:52.000Z</time>
        <extensions>
          <ns3:TrackPointExtension>
            <ns3:hr>113</ns3:hr>
            <ns3:cad>0</ns3:cad>
          </ns3:TrackPointExtension>
        </extensions>
      </trkpt>
      <trkpt lat="37.99181490205228328704833984375" lon="-107.7410814352333545684814453125">
        <ele>3833.39990234375</ele>
        <time>2026-08-15T14:53:53.000Z</time>
        <extensions>
          <ns3:TrackPointExtension>
            <ns3:hr>112</ns3:hr>
            <ns3:cad>0</ns3:cad>
          </ns3:TrackPointExtension>
        </extensions>
      </trkpt>
      <trkpt lat="37.991803921759128570556640625" lon="-107.741098701953887939453125">
        <ele>3834.199951171875</ele>
        <time>2026-08-15T14:53:59.000Z</time>
        <extensions>
          <ns3:TrackPointExtension>
            <ns3:hr>111</ns3:hr>
            <ns3:cad>0</ns3:cad>
          </ns3:TrackPointExtension>
        </extensions>
      </trkpt>
      <trkpt lat="37.99179621040821075439453125" lon="-107.7411035634577274322509765625">
        <ele>3834.39990234375</ele>
        <time>2026-08-15T14:54:01.000Z</time>
        <extensions>
          <ns3:TrackPointExtension>
            <ns3:hr>113</ns3:hr>
            <ns3:cad>0</ns3:cad>
          </ns3:TrackPointExtension>
        </extensions>
      </trkpt>
      <trkpt lat="37.991766370832920074462890625" lon="-107.74112619459629058837890625">
        <ele>3835</ele>
        <time>2026-08-15T14:54:05.000Z</time>
        <extensions>
          <ns3:TrackPointExtension>
            <ns3:hr>112</ns3:hr>
            <ns3:cad>0</ns3:cad>
          </ns3:TrackPointExtension>
        </extensions>
      </trkpt>
      <trkpt lat="37.991741560399532318115234375" lon="-107.741151340305805206298828125">
        <ele>3835.60009765625</ele>
        <time>2026-08-15T14:54:08.000Z</time>
        <extensions>
          <ns3:TrackPointExtension>
            <ns3:hr>111</ns3:hr>
            <ns3:cad>0</ns3:cad>
          </ns3:TrackPointExtension>
        </extensions>
      </trkpt>
      <trkpt lat="37.99173443578183650970458984375" lon="-107.741164751350879669189453125">
        <ele>3835.800048828125</ele>
        <time>2026-08-15T14:54:12.000Z</time>
        <extensions>
          <ns3:TrackPointExtension>
            <ns3:hr>112</ns3:hr>
            <ns3:cad>0</ns3:cad>
          </ns3:TrackPointExtension>
        </extensions>
      </trkpt>
      <trkpt lat="37.9917088709771633148193359375" lon="-107.741184197366237640380859375">
        <ele>3836.199951171875</ele>
        <time>2026-08-15T14:54:17.000Z</time>
        <extensions>
          <ns3:TrackPointExtension>
            <ns3:hr>110</ns3:hr>
            <ns3:cad>0</ns3:cad>
          </ns3:TrackPointExtension>
        </extensions>
      </trkpt>
      <trkpt lat="37.991698645055294036865234375" lon="-107.74119702167809009552001953125">
        <ele>3837</ele>
        <time>2026-08-15T14:54:19.000Z</time>
        <extensions>
          <ns3:TrackPointExtension>
            <ns3:hr>110</ns3:hr>
            <ns3:cad>0</ns3:cad>
          </ns3:TrackPointExtension>
        </extensions>
      </trkpt>
      <trkpt lat="37.9916723258793354034423828125" lon="-107.7412480674684047698974609375">
        <ele>3837.60009765625</ele>
        <time>2026-08-15T14:54:25.000Z</time>
        <extensions>
          <ns3:TrackPointExtension>
            <ns3:hr>110</ns3:hr>
            <ns3:cad>0</ns3:cad>
          </ns3:TrackPointExtension>
        </extensions>
      </trkpt>
      <trkpt lat="37.99167014658451080322265625" lon="-107.741262651979923248291015625">
        <ele>3838</ele>
        <time>2026-08-15T14:54:27.000Z</time>
        <extensions>
          <ns3:TrackPointExtension>
            <ns3:hr>107</ns3:hr>
            <ns3:cad>0</ns3:cad>
          </ns3:TrackPointExtension>
        </extensions>
      </trkpt>
      <trkpt lat="37.99165782518684864044189453125" lon="-107.74127195589244365692138671875">
        <ele>3838.60009765625</ele>
        <time>2026-08-15T14:54:30.000Z</time>
        <extensions>
          <ns3:TrackPointExtension>
            <ns3:hr>104</ns3:hr>
            <ns3:cad>0</ns3:cad>
          </ns3:TrackPointExtension>
        </extensions>
      </trkpt>
      <trkpt lat="37.991647683084011077880859375" lon="-107.741281092166900634765625">
        <ele>3839.199951171875</ele>
        <time>2026-08-15T14:54:32.000Z</time>
        <extensions>
          <ns3:TrackPointExtension>
            <ns3:hr>103</ns3:hr>
            <ns3:cad>0</ns3:cad>
          </ns3:TrackPointExtension>
        </extensions>
      </trkpt>
      <trkpt lat="37.99162530340254306793212890625" lon="-107.741306908428668975830078125">
        <ele>3840.199951171875</ele>
        <time>2026-08-15T14:54:37.000Z</time>
        <extensions>
          <ns3:TrackPointExtension>
            <ns3:hr>103</ns3:hr>
            <ns3:cad>0</ns3:cad>
          </ns3:TrackPointExtension>
        </extensions>
      </trkpt>
      <trkpt lat="37.99162463285028934478759765625" lon="-107.74131520651280879974365234375">
        <ele>3840.39990234375</ele>
        <time>2026-08-15T14:54:38.000Z</time>
        <extensions>
          <ns3:TrackPointExtension>
            <ns3:hr>103</ns3:hr>
            <ns3:cad>0</ns3:cad>
          </ns3:TrackPointExtension>
        </extensions>
      </trkpt>
      <trkpt lat="37.99161851406097412109375" lon="-107.7413499914109706878662109375">
        <ele>3841.39990234375</ele>
        <time>2026-08-15T14:54:43.000Z</time>
        <extensions>
          <ns3:TrackPointExtension>
            <ns3:hr>103</ns3:hr>
            <ns3:cad>68</ns3:cad>
          </ns3:TrackPointExtension>
        </extensions>
      </trkpt>
      <trkpt lat="37.99162597395479679107666015625" lon="-107.7413530088961124420166015625">
        <ele>3841.199951171875</ele>
        <time>2026-08-15T14:54:49.000Z</time>
        <extensions>
          <ns3:TrackPointExtension>
            <ns3:hr>103</ns3:hr>
            <ns3:cad>0</ns3:cad>
          </ns3:TrackPointExtension>
        </extensions>
      </trkpt>
      <trkpt lat="37.99162597395479679107666015625" lon="-107.7413530088961124420166015625">
        <ele>3841.199951171875</ele>
        <time>2026-08-15T14:54:50.000Z</time>
        <extensions>
          <ns3:TrackPointExtension>
            <ns3:hr>102</ns3:hr>
            <ns3:cad>0</ns3:cad>
          </ns3:TrackPointExtension>
        </extensions>
      </trkpt>
      <trkpt lat="37.99162597395479679107666015625" lon="-107.7413530088961124420166015625">
        <ele>3841.199951171875</ele>
        <time>2026-08-15T14:54:56.000Z</time>
        <extensions>
          <ns3:TrackPointExtension>
            <ns3:hr>102</ns3:hr>
            <ns3:cad>0</ns3:cad>
          </ns3:TrackPointExtension>
        </extensions>
      </trkpt>
      <trkpt lat="37.99162597395479679107666015625" lon="-107.7413530088961124420166015625">
        <ele>3841.199951171875</ele>
        <time>2026-08-15T14:54:59.000Z</time>
        <extensions>
          <ns3:TrackPointExtension>
            <ns3:hr>109</ns3:hr>
            <ns3:cad>0</ns3:cad>
          </ns3:TrackPointExtension>
        </extensions>
      </trkpt>
      <trkpt lat="37.99162597395479679107666015625" lon="-107.7413530088961124420166015625">
        <ele>3841</ele>
        <time>2026-08-15T14:55:00.000Z</time>
        <extensions>
          <ns3:TrackPointExtension>
            <ns3:hr>118</ns3:hr>
            <ns3:cad>0</ns3:cad>
          </ns3:TrackPointExtension>
        </extensions>
      </trkpt>
      <trkpt lat="37.99162597395479679107666015625" lon="-107.7413530088961124420166015625">
        <ele>3841</ele>
        <time>2026-08-15T14:55:01.000Z</time>
        <extensions>
          <ns3:TrackPointExtension>
            <ns3:hr>122</ns3:hr>
            <ns3:cad>0</ns3:cad>
          </ns3:TrackPointExtension>
        </extensions>
      </trkpt>
      <trkpt lat="37.99162597395479679107666015625" lon="-107.7413530088961124420166015625">
        <ele>3841</ele>
        <time>2026-08-15T14:55:02.000Z</time>
        <extensions>
          <ns3:TrackPointExtension>
            <ns3:hr>125</ns3:hr>
            <ns3:cad>0</ns3:cad>
          </ns3:TrackPointExtension>
        </extensions>
      </trkpt>
      <trkpt lat="37.99162597395479679107666015625" lon="-107.7413530088961124420166015625">
        <ele>3841</ele>
        <time>2026-08-15T14:55:04.000Z</time>
        <extensions>
          <ns3:TrackPointExtension>
            <ns3:hr>127</ns3:hr>
            <ns3:cad>0</ns3:cad>
          </ns3:TrackPointExtension>
        </extensions>
      </trkpt>
      <trkpt lat="37.99162597395479679107666015625" lon="-107.7413530088961124420166015625">
        <ele>3841.39990234375</ele>
        <time>2026-08-15T14:55:10.000Z</time>
        <extensions>
          <ns3:TrackPointExtension>
            <ns3:hr>127</ns3:hr>
            <ns3:cad>0</ns3:cad>
          </ns3:TrackPointExtension>
        </extensions>
      </trkpt>
      <trkpt lat="37.99162597395479679107666015625" lon="-107.7413530088961124420166015625">
        <ele>3841.39990234375</ele>
        <time>2026-08-15T14:55:12.000Z</time>
        <extensions>
          <ns3:TrackPointExtension>
            <ns3:hr>126</ns3:hr>
            <ns3:cad>0</ns3:cad>
          </ns3:TrackPointExtension>
        </extensions>
      </trkpt>
      <trkpt lat="37.991608791053295135498046875" lon="-107.74133767001330852508544921875">
        <ele>3841.39990234375</ele>
        <time>2026-08-15T14:55:17.000Z</time>
        <extensions>
          <ns3:TrackPointExtension>
            <ns3:hr>123</ns3:hr>
            <ns3:cad>0</ns3:cad>
          </ns3:TrackPointExtension>
        </extensions>
      </trkpt>
      <trkpt lat="37.99160887487232685089111328125" lon="-107.74133347906172275543212890625">
        <ele>3841.60009765625</ele>
        <time>2026-08-15T14:55:19.000Z</time>
        <extensions>
          <ns3:TrackPointExtension>
            <ns3:hr>122</ns3:hr>
            <ns3:cad>0</ns3:cad>
          </ns3:TrackPointExtension>
        </extensions>
      </trkpt>
      <trkpt lat="37.99160887487232685089111328125" lon="-107.74133347906172275543212890625">
        <ele>3842</ele>
        <time>2026-08-15T14:55:24.000Z</time>
        <extensions>
          <ns3:TrackPointExtension>
            <ns3:hr>119</ns3:hr>
            <ns3:cad>0</ns3:cad>
          </ns3:TrackPointExtension>
        </extensions>
      </trkpt>
      <trkpt lat="37.99160887487232685089111328125" lon="-107.74133347906172275543212890625">
        <ele>3842</ele>
        <time>2026-08-15T14:55:26.000Z</time>
        <extensions>
          <ns3:TrackPointExtension>
            <ns3:hr>116</ns3:hr>
            <ns3:cad>0</ns3:cad>
          </ns3:TrackPointExtension>
        </extensions>
      </trkpt>
      <trkpt lat="37.99160887487232685089111328125" lon="-107.74133347906172275543212890625">
        <ele>3841.199951171875</ele>
        <time>2026-08-15T14:55:31.000Z</time>
        <extensions>
          <ns3:TrackPointExtension>
            <ns3:hr>113</ns3:hr>
            <ns3:cad>0</ns3:cad>
          </ns3:TrackPointExtension>
        </extensions>
      </trkpt>
      <trkpt lat="37.99160887487232685089111328125" lon="-107.74133347906172275543212890625">
        <ele>3841.199951171875</ele>
        <time>2026-08-15T14:55:33.000Z</time>
        <extensions>
          <ns3:TrackPointExtension>
            <ns3:hr>111</ns3:hr>
            <ns3:cad>0</ns3:cad>
          </ns3:TrackPointExtension>
        </extensions>
      </trkpt>
      <trkpt lat="37.99160887487232685089111328125" lon="-107.74133347906172275543212890625">
        <ele>3841.39990234375</ele>
        <time>2026-08-15T14:55:36.000Z</time>
        <extensions>
          <ns3:TrackPointExtension>
            <ns3:hr>108</ns3:hr>
            <ns3:cad>0</ns3:cad>
          </ns3:TrackPointExtension>
        </extensions>
      </trkpt>
      <trkpt lat="37.99160887487232685089111328125" lon="-107.74133347906172275543212890625">
        <ele>3841.199951171875</ele>
        <time>2026-08-15T14:55:42.000Z</time>
        <extensions>
          <ns3:TrackPointExtension>
            <ns3:hr>105</ns3:hr>
            <ns3:cad>0</ns3:cad>
          </ns3:TrackPointExtension>
        </extensions>
      </trkpt>
      <trkpt lat="37.99160887487232685089111328125" lon="-107.74133347906172275543212890625">
        <ele>3841</ele>
        <time>2026-08-15T14:55:45.000Z</time>
        <extensions>
          <ns3:TrackPointExtension>
            <ns3:hr>104</ns3:hr>
            <ns3:cad>0</ns3:cad>
          </ns3:TrackPointExtension>
        </extensions>
      </trkpt>
      <trkpt lat="37.99159144051373004913330078125" lon="-107.74138309992849826812744140625">
        <ele>3841.39990234375</ele>
        <time>2026-08-15T14:55:51.000Z</time>
        <extensions>
          <ns3:TrackPointExtension>
            <ns3:hr>103</ns3:hr>
            <ns3:cad>0</ns3:cad>
          </ns3:TrackPointExtension>
        </extensions>
      </trkpt>
      <trkpt lat="37.99157434143126010894775390625" lon="-107.74144403636455535888671875">
        <ele>3842.60009765625</ele>
        <time>2026-08-15T14:55:57.000Z</time>
        <extensions>
          <ns3:TrackPointExtension>
            <ns3:hr>102</ns3:hr>
            <ns3:cad>0</ns3:cad>
          </ns3:TrackPointExtension>
        </extensions>
      </trkpt>
      <trkpt lat="37.991571240127086639404296875" lon="-107.74145484901964664459228515625">
        <ele>3842.60009765625</ele>
        <time>2026-08-15T14:55:58.000Z</time>
        <extensions>
          <ns3:TrackPointExtension>
            <ns3:hr>101</ns3:hr>
            <ns3:cad>0</ns3:cad>
          </ns3:TrackPointExtension>
        </extensions>
      </trkpt>
      <trkpt lat="37.99154408276081085205078125" lon="-107.7414834313094615936279296875">
        <ele>3843.800048828125</ele>
        <time>2026-08-15T14:56:03.000Z</time>
        <extensions>
          <ns3:TrackPointExtension>
            <ns3:hr>101</ns3:hr>
            <ns3:cad>0</ns3:cad>
          </ns3:TrackPointExtension>
        </extensions>
      </trkpt>
      <trkpt lat="37.99154366366565227508544921875" lon="-107.74149089120328426361083984375">
        <ele>3844</ele>
        <time>2026-08-15T14:56:04.000Z</time>
        <extensions>
          <ns3:TrackPointExtension>
            <ns3:hr>100</ns3:hr>
            <ns3:cad>0</ns3:cad>
          </ns3:TrackPointExtension>
        </extensions>
      </trkpt>
      <trkpt lat="37.9915318451821804046630859375" lon="-107.7415028773248195648193359375">
        <ele>3845</ele>
        <time>2026-08-15T14:56:07.000Z</time>
        <extensions>
          <ns3:TrackPointExtension>
            <ns3:hr>101</ns3:hr>
            <ns3:cad>62</ns3:cad>
          </ns3:TrackPointExtension>
        </extensions>
      </trkpt>
      <trkpt lat="37.99152069725096225738525390625" lon="-107.74153246544301509857177734375">
        <ele>3845.39990234375</ele>
        <time>2026-08-15T14:56:11.000Z</time>
        <extensions>
          <ns3:TrackPointExtension>
            <ns3:hr>104</ns3:hr>
            <ns3:cad>0</ns3:cad>
          </ns3:TrackPointExtension>
        </extensions>
      </trkpt>
      <trkpt lat="37.9915117286145687103271484375" lon="-107.741557024419307708740234375">
        <ele>3846</ele>
        <time>2026-08-15T14:56:14.000Z</time>
        <extensions>
          <ns3:TrackPointExtension>
            <ns3:hr>107</ns3:hr>
            <ns3:cad>0</ns3:cad>
          </ns3:TrackPointExtension>
        </extensions>
      </trkpt>
      <trkpt lat="37.9915060289204120635986328125" lon="-107.74157990701496601104736328125">
        <ele>3846.800048828125</ele>
        <time>2026-08-15T14:56:17.000Z</time>
        <extensions>
          <ns3:TrackPointExtension>
            <ns3:hr>108</ns3:hr>
            <ns3:cad>0</ns3:cad>
          </ns3:TrackPointExtension>
        </extensions>
      </trkpt>
      <trkpt lat="37.991500832140445709228515625" lon="-107.7415940724313259124755859375">
        <ele>3847</ele>
        <time>2026-08-15T14:56:19.000Z</time>
        <extensions>
          <ns3:TrackPointExtension>
            <ns3:hr>109</ns3:hr>
            <ns3:cad>0</ns3:cad>
          </ns3:TrackPointExtension>
        </extensions>
      </trkpt>
      <trkpt lat="37.99148599617183208465576171875" lon="-107.74161645211279392242431640625">
        <ele>3848.199951171875</ele>
        <time>2026-08-15T14:56:24.000Z</time>
        <extensions>
          <ns3:TrackPointExtension>
            <ns3:hr>109</ns3:hr>
            <ns3:cad>0</ns3:cad>
          </ns3:TrackPointExtension>
        </extensions>
      </trkpt>
      <trkpt lat="37.991449870169162750244140625" lon="-107.7416472136974334716796875">
        <ele>3849</ele>
        <time>2026-08-15T14:56:30.000Z</time>
        <extensions>
          <ns3:TrackPointExtension>
            <ns3:hr>109</ns3:hr>
            <ns3:cad>20</ns3:cad>
          </ns3:TrackPointExtension>
        </extensions>
      </trkpt>
      <trkpt lat="37.9914455115795135498046875" lon="-107.74165819399058818817138671875">
        <ele>3849</ele>
        <time>2026-08-15T14:56:31.000Z</time>
        <extensions>
          <ns3:TrackPointExtension>
            <ns3:hr>109</ns3:hr>
            <ns3:cad>20</ns3:cad>
          </ns3:TrackPointExtension>
        </extensions>
      </trkpt>
      <trkpt lat="37.99143251962959766387939453125" lon="-107.74168937467038631439208984375">
        <ele>3849.199951171875</ele>
        <time>2026-08-15T14:56:37.000Z</time>
        <extensions>
          <ns3:TrackPointExtension>
            <ns3:hr>110</ns3:hr>
            <ns3:cad>0</ns3:cad>
          </ns3:TrackPointExtension>
        </extensions>
      </trkpt>
      <trkpt lat="37.99141441471874713897705078125" lon="-107.74169758893549442291259765625">
        <ele>3850.39990234375</ele>
        <time>2026-08-15T14:56:41.000Z</time>
        <extensions>
          <ns3:TrackPointExtension>
            <ns3:hr>113</ns3:hr>
            <ns3:cad>0</ns3:cad>
          </ns3:TrackPointExtension>
        </extensions>
      </trkpt>
      <trkpt lat="37.991406284272670745849609375" lon="-107.74170496501028537750244140625">
        <ele>3850.800048828125</ele>
        <time>2026-08-15T14:56:42.000Z</time>
        <extensions>
          <ns3:TrackPointExtension>
            <ns3:hr>113</ns3:hr>
            <ns3:cad>0</ns3:cad>
          </ns3:TrackPointExtension>
        </extensions>
      </trkpt>
      <trkpt lat="37.99139027483761310577392578125" lon="-107.74174067191779613494873046875">
        <ele>3851</ele>
        <time>2026-08-15T14:56:46.000Z</time>
        <extensions>
          <ns3:TrackPointExtension>
            <ns3:hr>116</ns3:hr>
            <ns3:cad>0</ns3:cad>
          </ns3:TrackPointExtension>
        </extensions>
      </trkpt>
      <trkpt lat="37.991386838257312774658203125" lon="-107.741747796535491943359375">
        <ele>3851.199951171875</ele>
        <time>2026-08-15T14:56:48.000Z</time>
        <extensions>
          <ns3:TrackPointExtension>
            <ns3:hr>117</ns3:hr>
            <ns3:cad>0</ns3:cad>
          </ns3:TrackPointExtension>
        </extensions>
      </trkpt>
      <trkpt lat="37.99138004891574382781982421875" lon="-107.7417677454650402069091796875">
        <ele>3851.60009765625</ele>
        <time>2026-08-15T14:56:50.000Z</time>
        <extensions>
          <ns3:TrackPointExtension>
            <ns3:hr>117</ns3:hr>
            <ns3:cad>0</ns3:cad>
          </ns3:TrackPointExtension>
        </extensions>
      </trkpt>
      <trkpt lat="37.99136412329971790313720703125" lon="-107.74179548956453800201416015625">
        <ele>3851.60009765625</ele>
        <time>2026-08-15T14:56:54.000Z</time>
        <extensions>
          <ns3:TrackPointExtension>
            <ns3:hr>118</ns3:hr>
            <ns3:cad>0</ns3:cad>
          </ns3:TrackPointExtension>
        </extensions>
      </trkpt>
      <trkpt lat="37.9913343675434589385986328125" lon="-107.7418617904186248779296875">
        <ele>3852.60009765625</ele>
        <time>2026-08-15T14:57:00.000Z</time>
        <extensions>
          <ns3:TrackPointExtension>
            <ns3:hr>116</ns3:hr>
            <ns3:cad>0</ns3:cad>
          </ns3:TrackPointExtension>
        </extensions>
      </trkpt>
      <trkpt lat="37.99129405058920383453369140625" lon="-107.7419129200279712677001953125">
        <ele>3852.39990234375</ele>
        <time>2026-08-15T14:57:06.000Z</time>
        <extensions>
          <ns3:TrackPointExtension>
            <ns3:hr>115</ns3:hr>
            <ns3:cad>52</ns3:cad>
          </ns3:TrackPointExtension>
        </extensions>
      </trkpt>
      <trkpt lat="37.991245351731777191162109375" lon="-107.74192825891077518463134765625">
        <ele>3853</ele>
        <time>2026-08-15T14:57:11.000Z</time>
        <extensions>
          <ns3:TrackPointExtension>
            <ns3:hr>116</ns3:hr>
            <ns3:cad>52</ns3:cad>
          </ns3:TrackPointExtension>
        </extensions>
      </trkpt>
      <trkpt lat="37.9912012629210948944091796875" lon="-107.74194820784032344818115234375">
        <ele>3853.60009765625</ele>
        <time>2026-08-15T14:57:16.000Z</time>
        <extensions>
          <ns3:TrackPointExtension>
            <ns3:hr>117</ns3:hr>
            <ns3:cad>0</ns3:cad>
          </ns3:TrackPointExtension>
        </extensions>
      </trkpt>
      <trkpt lat="37.99119045026600360870361328125" lon="-107.74194401688873767852783203125">
        <ele>3853.60009765625</ele>
        <time>2026-08-15T14:57:17.000Z</time>
        <extensions>
          <ns3:TrackPointExtension>
            <ns3:hr>117</ns3:hr>
            <ns3:cad>49</ns3:cad>
          </ns3:TrackPointExtension>
        </extensions>
      </trkpt>
      <trkpt lat="37.99117385409772396087646484375" lon="-107.74196329526603221893310546875">
        <ele>3853.800048828125</ele>
        <time>2026-08-15T14:57:20.000Z</time>
        <extensions>
          <ns3:TrackPointExtension>
            <ns3:hr>116</ns3:hr>
            <ns3:cad>0</ns3:cad>
          </ns3:TrackPointExtension>
        </extensions>
      </trkpt>
      <trkpt lat="37.99116228707134723663330078125" lon="-107.741974107921123504638671875">
        <ele>3853.800048828125</ele>
        <time>2026-08-15T14:57:22.000Z</time>
        <extensions>
          <ns3:TrackPointExtension>
            <ns3:hr>118</ns3:hr>
            <ns3:cad>0</ns3:cad>
          </ns3:TrackPointExtension>
        </extensions>
      </trkpt>
      <trkpt lat="37.99114502035081386566162109375" lon="-107.74201425723731517791748046875">
        <ele>3854.800048828125</ele>
        <time>2026-08-15T14:57:28.000Z</time>
        <extensions>
          <ns3:TrackPointExtension>
            <ns3:hr>118</ns3:hr>
            <ns3:cad>0</ns3:cad>
          </ns3:TrackPointExtension>
        </extensions>
      </trkpt>
      <trkpt lat="37.99112691543996334075927734375" lon="-107.7420490421354770660400390625">
        <ele>3855.800048828125</ele>
        <time>2026-08-15T14:57:33.000Z</time>
        <extensions>
          <ns3:TrackPointExtension>
            <ns3:hr>116</ns3:hr>
            <ns3:cad>0</ns3:cad>
          </ns3:TrackPointExtension>
        </extensions>
      </trkpt>
      <trkpt lat="37.991118617355823516845703125" lon="-107.74205499328672885894775390625">
        <ele>3856</ele>
        <time>2026-08-15T14:57:34.000Z</time>
        <extensions>
          <ns3:TrackPointExtension>
            <ns3:hr>116</ns3:hr>
            <ns3:cad>43</ns3:cad>
          </ns3:TrackPointExtension>
        </extensions>
      </trkpt>
      <trkpt lat="37.9911036975681781768798828125" lon="-107.7420748583972454071044921875">
        <ele>3857</ele>
        <time>2026-08-15T14:57:38.000Z</time>
        <extensions>
          <ns3:TrackPointExtension>
            <ns3:hr>115</ns3:hr>
            <ns3:cad>0</ns3:cad>
          </ns3:TrackPointExtension>
        </extensions>
      </trkpt>
      <trkpt lat="37.9911016859114170074462890625" lon="-107.74207510985434055328369140625">
        <ele>3857.39990234375</ele>
        <time>2026-08-15T14:57:39.000Z</time>
        <extensions>
          <ns3:TrackPointExtension>
            <ns3:hr>115</ns3:hr>
            <ns3:cad>0</ns3:cad>
          </ns3:TrackPointExtension>
        </extensions>
      </trkpt>
      <trkpt lat="37.99106790684163570404052734375" lon="-107.74211081676185131072998046875">
        <ele>3858</ele>
        <time>2026-08-15T14:57:45.000Z</time>
        <extensions>
          <ns3:TrackPointExtension>
            <ns3:hr>112</ns3:hr>
            <ns3:cad>0</ns3:cad>
          </ns3:TrackPointExtension>
        </extensions>
      </trkpt>
      <trkpt lat="37.99106606282293796539306640625" lon="-107.74212154559791088104248046875">
        <ele>3858.199951171875</ele>
        <time>2026-08-15T14:57:46.000Z</time>
        <extensions>
          <ns3:TrackPointExtension>
            <ns3:hr>113</ns3:hr>
            <ns3:cad>0</ns3:cad>
          </ns3:TrackPointExtension>
        </extensions>
      </trkpt>
      <trkpt lat="37.99106933176517486572265625" lon="-107.74212858639657497406005859375">
        <ele>3859</ele>
        <time>2026-08-15T14:57:51.000Z</time>
        <extensions>
          <ns3:TrackPointExtension>
            <ns3:hr>112</ns3:hr>
            <ns3:cad>0</ns3:cad>
          </ns3:TrackPointExtension>
        </extensions>
      </trkpt>
      <trkpt lat="37.991063296794891357421875" lon="-107.74213294498622417449951171875">
        <ele>3859.39990234375</ele>
        <time>2026-08-15T14:57:53.000Z</time>
        <extensions>
          <ns3:TrackPointExtension>
            <ns3:hr>111</ns3:hr>
            <ns3:cad>0</ns3:cad>
          </ns3:TrackPointExtension>
        </extensions>
      </trkpt>
      <trkpt lat="37.99106405116617679595947265625" lon="-107.74214350618422031402587890625">
        <ele>3860</ele>
        <time>2026-08-15T14:57:56.000Z</time>
        <extensions>
          <ns3:TrackPointExtension>
            <ns3:hr>107</ns3:hr>
            <ns3:cad>0</ns3:cad>
          </ns3:TrackPointExtension>
        </extensions>
      </trkpt>
      <trkpt lat="37.99106036312878131866455078125" lon="-107.742151133716106414794921875">
        <ele>3860.199951171875</ele>
        <time>2026-08-15T14:57:58.000Z</time>
        <extensions>
          <ns3:TrackPointExtension>
            <ns3:hr>106</ns3:hr>
            <ns3:cad>0</ns3:cad>
          </ns3:TrackPointExtension>
        </extensions>
      </trkpt>
      <trkpt lat="37.99106086604297161102294921875" lon="-107.7421600185334682464599609375">
        <ele>3860.39990234375</ele>
        <time>2026-08-15T14:57:59.000Z</time>
        <extensions>
          <ns3:TrackPointExtension>
            <ns3:hr>106</ns3:hr>
            <ns3:cad>0</ns3:cad>
          </ns3:TrackPointExtension>
        </extensions>
      </trkpt>
      <trkpt lat="37.9910483770072460174560546875" lon="-107.742161862552165985107421875">
        <ele>3861.199951171875</ele>
        <time>2026-08-15T14:58:03.000Z</time>
        <extensions>
          <ns3:TrackPointExtension>
            <ns3:hr>106</ns3:hr>
            <ns3:cad>0</ns3:cad>
          </ns3:TrackPointExtension>
        </extensions>
      </trkpt>
      <trkpt lat="37.991038821637630462646484375" lon="-107.74216932244598865509033203125">
        <ele>3861.60009765625</ele>
        <time>2026-08-15T14:58:04.000Z</time>
        <extensions>
          <ns3:TrackPointExtension>
            <ns3:hr>105</ns3:hr>
            <ns3:cad>0</ns3:cad>
          </ns3:TrackPointExtension>
        </extensions>
      </trkpt>
      <trkpt lat="37.99102507531642913818359375" lon="-107.742198072373867034912109375">
        <ele>3862.39990234375</ele>
        <time>2026-08-15T14:58:08.000Z</time>
        <extensions>
          <ns3:TrackPointExtension>
            <ns3:hr>107</ns3:hr>
            <ns3:cad>0</ns3:cad>
          </ns3:TrackPointExtension>
        </extensions>
      </trkpt>
      <trkpt lat="37.9910198785364627838134765625" lon="-107.74220402352511882781982421875">
        <ele>3862.60009765625</ele>
        <time>2026-08-15T14:58:09.000Z</time>
        <extensions>
          <ns3:TrackPointExtension>
            <ns3:hr>107</ns3:hr>
            <ns3:cad>0</ns3:cad>
          </ns3:TrackPointExtension>
        </extensions>
      </trkpt>
      <trkpt lat="37.99101510085165500640869140625" lon="-107.74221776984632015228271484375">
        <ele>3862.800048828125</ele>
        <time>2026-08-15T14:58:11.000Z</time>
        <extensions>
          <ns3:TrackPointExtension>
            <ns3:hr>104</ns3:hr>
            <ns3:cad>0</ns3:cad>
          </ns3:TrackPointExtension>
        </extensions>
      </trkpt>
      <trkpt lat="37.9910118319094181060791015625" lon="-107.7422287501394748687744140625">
        <ele>3863.199951171875</ele>
        <time>2026-08-15T14:58:13.000Z</time>
        <extensions>
          <ns3:TrackPointExtension>
            <ns3:hr>101</ns3:hr>
            <ns3:cad>0</ns3:cad>
          </ns3:TrackPointExtension>
        </extensions>
      </trkpt>
      <trkpt lat="37.99101300537586212158203125" lon="-107.74223822169005870819091796875">
        <ele>3863.800048828125</ele>
        <time>2026-08-15T14:58:15.000Z</time>
        <extensions>
          <ns3:TrackPointExtension>
            <ns3:hr>102</ns3:hr>
            <ns3:cad>0</ns3:cad>
          </ns3:TrackPointExtension>
        </extensions>
      </trkpt>
      <trkpt lat="37.9910109937191009521484375" lon="-107.74223386310040950775146484375">
        <ele>3864</ele>
        <time>2026-08-15T14:58:17.000Z</time>
        <extensions>
          <ns3:TrackPointExtension>
            <ns3:hr>106</ns3:hr>
            <ns3:cad>0</ns3:cad>
          </ns3:TrackPointExtension>
        </extensions>
      </trkpt>
      <trkpt lat="37.9910051263868808746337890625" lon="-107.74223637767136096954345703125">
        <ele>3864.60009765625</ele>
        <time>2026-08-15T14:58:20.000Z</time>
        <extensions>
          <ns3:TrackPointExtension>
            <ns3:hr>107</ns3:hr>
            <ns3:cad>0</ns3:cad>
          </ns3:TrackPointExtension>
        </extensions>
      </trkpt>
      <trkpt lat="37.9910011030733585357666015625" lon="-107.7422399818897247314453125">
        <ele>3864.800048828125</ele>
        <time>2026-08-15T14:58:21.000Z</time>
        <extensions>
          <ns3:TrackPointExtension>
            <ns3:hr>108</ns3:hr>
            <ns3:cad>0</ns3:cad>
          </ns3:TrackPointExtension>
        </extensions>
      </trkpt>
      <trkpt lat="37.99099464900791645050048828125" lon="-107.74227208457887172698974609375">
        <ele>3866.199951171875</ele>
        <time>2026-08-15T14:58:27.000Z</time>
        <extensions>
          <ns3:TrackPointExtension>
            <ns3:hr>110</ns3:hr>
            <ns3:cad>0</ns3:cad>
          </ns3:TrackPointExtension>
        </extensions>
      </trkpt>
      <trkpt lat="37.9909853450953960418701171875" lon="-107.7422813884913921356201171875">
        <ele>3867.199951171875</ele>
        <time>2026-08-15T14:58:32.000Z</time>
        <extensions>
          <ns3:TrackPointExtension>
            <ns3:hr>113</ns3:hr>
            <ns3:cad>0</ns3:cad>
          </ns3:TrackPointExtension>
        </extensions>
      </trkpt>
      <trkpt lat="37.9909769631922245025634765625" lon="-107.74228415451943874359130859375">
        <ele>3867.39990234375</ele>
        <time>2026-08-15T14:58:33.000Z</time>
        <extensions>
          <ns3:TrackPointExtension>
            <ns3:hr>115</ns3:hr>
            <ns3:cad>0</ns3:cad>
          </ns3:TrackPointExtension>
        </extensions>
      </trkpt>
      <trkpt lat="37.99097411334514617919921875" lon="-107.74229069240391254425048828125">
        <ele>3867.60009765625</ele>
        <time>2026-08-15T14:58:34.000Z</time>
        <extensions>
          <ns3:TrackPointExtension>
            <ns3:hr>120</ns3:hr>
            <ns3:cad>0</ns3:cad>
          </ns3:TrackPointExtension>
        </extensions>
      </trkpt>
      <trkpt lat="37.99096447415649890899658203125" lon="-107.74231449700891971588134765625">
        <ele>3868.39990234375</ele>
        <time>2026-08-15T14:58:40.000Z</time>
        <extensions>
          <ns3:TrackPointExtension>
            <ns3:hr>119</ns3:hr>
            <ns3:cad>0</ns3:cad>
          </ns3:TrackPointExtension>
        </extensions>
      </trkpt>
      <trkpt lat="37.9909615404903888702392578125" lon="-107.74234903044998645782470703125">
        <ele>3869.199951171875</ele>
        <time>2026-08-15T14:58:46.000Z</time>
        <extensions>
          <ns3:TrackPointExtension>
            <ns3:hr>119</ns3:hr>
            <ns3:cad>0</ns3:cad>
          </ns3:TrackPointExtension>
        </extensions>
      </trkpt>
      <trkpt lat="37.990965060889720916748046875" lon="-107.74237032048404216766357421875">
        <ele>3869.60009765625</ele>
        <time>2026-08-15T14:58:48.000Z</time>
        <extensions>
          <ns3:TrackPointExtension>
            <ns3:hr>115</ns3:hr>
            <ns3:cad>0</ns3:cad>
          </ns3:TrackPointExtension>
        </extensions>
      </trkpt>
      <trkpt lat="37.990962378680706024169921875" lon="-107.74238280951976776123046875">
        <ele>3870</ele>
        <time>2026-08-15T14:58:50.000Z</time>
        <extensions>
          <ns3:TrackPointExtension>
            <ns3:hr>111</ns3:hr>
            <ns3:cad>0</ns3:cad>
          </ns3:TrackPointExtension>
        </extensions>
      </trkpt>
      <trkpt lat="37.99095491878688335418701171875" lon="-107.742402255535125732421875">
        <ele>3870.60009765625</ele>
        <time>2026-08-15T14:58:56.000Z</time>
        <extensions>
          <ns3:TrackPointExtension>
            <ns3:hr>110</ns3:hr>
            <ns3:cad>0</ns3:cad>
          </ns3:TrackPointExtension>
        </extensions>
      </trkpt>
      <trkpt lat="37.9909390769898891448974609375" lon="-107.74241541512310504913330078125">
        <ele>3871.60009765625</ele>
        <time>2026-08-15T14:59:01.000Z</time>
        <extensions>
          <ns3:TrackPointExtension>
            <ns3:hr>114</ns3:hr>
            <ns3:cad>0</ns3:cad>
          </ns3:TrackPointExtension>
        </extensions>
      </trkpt>
      <trkpt lat="37.9909451119601726531982421875" lon="-107.7424195222556591033935546875">
        <ele>3872</ele>
        <time>2026-08-15T14:59:03.000Z</time>
        <extensions>
          <ns3:TrackPointExtension>
            <ns3:hr>115</ns3:hr>
            <ns3:cad>0</ns3:cad>
          </ns3:TrackPointExtension>
        </extensions>
      </trkpt>
      <trkpt lat="37.99093429930508136749267578125" lon="-107.7424357831478118896484375">
        <ele>3872.60009765625</ele>
        <time>2026-08-15T14:59:06.000Z</time>
        <extensions>
          <ns3:TrackPointExtension>
            <ns3:hr>116</ns3:hr>
            <ns3:cad>0</ns3:cad>
          </ns3:TrackPointExtension>
        </extensions>
      </trkpt>
      <trkpt lat="37.99092206172645092010498046875" lon="-107.7424476854503154754638671875">
        <ele>3873</ele>
        <time>2026-08-15T14:59:08.000Z</time>
        <extensions>
          <ns3:TrackPointExtension>
            <ns3:hr>116</ns3:hr>
            <ns3:cad>0</ns3:cad>
          </ns3:TrackPointExtension>
        </extensions>
      </trkpt>
      <trkpt lat="37.99089624546468257904052734375" lon="-107.74248330853879451751708984375">
        <ele>3873.39990234375</ele>
        <time>2026-08-15T14:59:14.000Z</time>
        <extensions>
          <ns3:TrackPointExtension>
            <ns3:hr>118</ns3:hr>
            <ns3:cad>0</ns3:cad>
          </ns3:TrackPointExtension>
        </extensions>
      </trkpt>
      <trkpt lat="37.99089641310274600982666015625" lon="-107.7424963004887104034423828125">
        <ele>3873.60009765625</ele>
        <time>2026-08-15T14:59:16.000Z</time>
        <extensions>
          <ns3:TrackPointExtension>
            <ns3:hr>118</ns3:hr>
            <ns3:cad>0</ns3:cad>
          </ns3:TrackPointExtension>
        </extensions>
      </trkpt>
      <trkpt lat="37.990898676216602325439453125" lon="-107.742501832544803619384765625">
        <ele>3873.60009765625</ele>
        <time>2026-08-15T14:59:17.000Z</time>
        <extensions>
          <ns3:TrackPointExtension>
            <ns3:hr>117</ns3:hr>
            <ns3:cad>0</ns3:cad>
          </ns3:TrackPointExtension>
        </extensions>
      </trkpt>
      <trkpt lat="37.99089641310274600982666015625" lon="-107.742523960769176483154296875">
        <ele>3874.800048828125</ele>
        <time>2026-08-15T14:59:23.000Z</time>
        <extensions>
          <ns3:TrackPointExtension>
            <ns3:hr>117</ns3:hr>
            <ns3:cad>0</ns3:cad>
          </ns3:TrackPointExtension>
        </extensions>
      </trkpt>
      <trkpt lat="37.99089632928371429443359375" lon="-107.7425298281013965606689453125">
        <ele>3875.800048828125</ele>
        <time>2026-08-15T14:59:28.000Z</time>
        <extensions>
          <ns3:TrackPointExtension>
            <ns3:hr>117</ns3:hr>
            <ns3:cad>0</ns3:cad>
          </ns3:TrackPointExtension>
        </extensions>
      </trkpt>
      <trkpt lat="37.99089632928371429443359375" lon="-107.74252706207334995269775390625">
        <ele>3876</ele>
        <time>2026-08-15T14:59:29.000Z</time>
        <extensions>
          <ns3:TrackPointExtension>
            <ns3:hr>117</ns3:hr>
            <ns3:cad>0</ns3:cad>
          </ns3:TrackPointExtension>
        </extensions>
      </trkpt>
      <trkpt lat="37.9908760450780391693115234375" lon="-107.7425650320947170257568359375">
        <ele>3877</ele>
        <time>2026-08-15T14:59:34.000Z</time>
        <extensions>
          <ns3:TrackPointExtension>
            <ns3:hr>119</ns3:hr>
            <ns3:cad>0</ns3:cad>
          </ns3:TrackPointExtension>
        </extensions>
      </trkpt>
      <trkpt lat="37.99087596125900745391845703125" lon="-107.742603756487369537353515625">
        <ele>3878.199951171875</ele>
        <time>2026-08-15T14:59:39.000Z</time>
        <extensions>
          <ns3:TrackPointExtension>
            <ns3:hr>118</ns3:hr>
            <ns3:cad>0</ns3:cad>
          </ns3:TrackPointExtension>
        </extensions>
      </trkpt>
      <trkpt lat="37.99087747000157833099365234375" lon="-107.7426035888493061065673828125">
        <ele>3878.199951171875</ele>
        <time>2026-08-15T14:59:40.000Z</time>
        <extensions>
          <ns3:TrackPointExtension>
            <ns3:hr>118</ns3:hr>
            <ns3:cad>0</ns3:cad>
          </ns3:TrackPointExtension>
        </extensions>
      </trkpt>
      <trkpt lat="37.9908742010593414306640625" lon="-107.7426101267337799072265625">
        <ele>3878.60009765625</ele>
        <time>2026-08-15T14:59:44.000Z</time>
        <extensions>
          <ns3:TrackPointExtension>
            <ns3:hr>122</ns3:hr>
            <ns3:cad>0</ns3:cad>
          </ns3:TrackPointExtension>
        </extensions>
      </trkpt>
      <trkpt lat="37.9908713512122631072998046875" lon="-107.7426163293421268463134765625">
        <ele>3879.199951171875</ele>
        <time>2026-08-15T14:59:47.000Z</time>
        <extensions>
          <ns3:TrackPointExtension>
            <ns3:hr>123</ns3:hr>
            <ns3:cad>0</ns3:cad>
          </ns3:TrackPointExtension>
        </extensions>
      </trkpt>
      <trkpt lat="37.99087009392678737640380859375" lon="-107.74262152612209320068359375">
        <ele>3879.39990234375</ele>
        <time>2026-08-15T14:59:48.000Z</time>
        <extensions>
          <ns3:TrackPointExtension>
            <ns3:hr>122</ns3:hr>
            <ns3:cad>0</ns3:cad>
          </ns3:TrackPointExtension>
        </extensions>
      </trkpt>
      <trkpt lat="37.99086187966167926788330078125" lon="-107.74263904429972171783447265625">
        <ele>3880.199951171875</ele>
        <time>2026-08-15T14:59:52.000Z</time>
        <extensions>
          <ns3:TrackPointExtension>
            <ns3:hr>120</ns3:hr>
            <ns3:cad>0</ns3:cad>
          </ns3:TrackPointExtension>
        </extensions>
      </trkpt>
      <trkpt lat="37.99085609614849090576171875" lon="-107.742646671831607818603515625">
        <ele>3880.800048828125</ele>
        <time>2026-08-15T14:59:54.000Z</time>
        <extensions>
          <ns3:TrackPointExtension>
            <ns3:hr>120</ns3:hr>
            <ns3:cad>0</ns3:cad>
          </ns3:TrackPointExtension>
        </extensions>
      </trkpt>
      <trkpt lat="37.99084779806435108184814453125" lon="-107.74266041815280914306640625">
        <ele>3881.199951171875</ele>
        <time>2026-08-15T14:59:57.000Z</time>
        <extensions>
          <ns3:TrackPointExtension>
            <ns3:hr>120</ns3:hr>
            <ns3:cad>0</ns3:cad>
          </ns3:TrackPointExtension>
        </extensions>
      </trkpt>
      <trkpt lat="37.99084126017987728118896484375" lon="-107.74268698878586292266845703125">
        <ele>3881.800048828125</ele>
        <time>2026-08-15T15:00:01.000Z</time>
        <extensions>
          <ns3:TrackPointExtension>
            <ns3:hr>119</ns3:hr>
            <ns3:cad>0</ns3:cad>
          </ns3:TrackPointExtension>
        </extensions>
      </trkpt>
      <trkpt lat="37.990838997066020965576171875" lon="-107.74271381087601184844970703125">
        <ele>3882.39990234375</ele>
        <time>2026-08-15T15:00:05.000Z</time>
        <extensions>
          <ns3:TrackPointExtension>
            <ns3:hr>119</ns3:hr>
            <ns3:cad>0</ns3:cad>
          </ns3:TrackPointExtension>
        </extensions>
      </trkpt>
      <trkpt lat="37.99083673395216464996337890625" lon="-107.74271280504763126373291015625">
        <ele>3883.199951171875</ele>
        <time>2026-08-15T15:00:09.000Z</time>
        <extensions>
          <ns3:TrackPointExtension>
            <ns3:hr>121</ns3:hr>
            <ns3:cad>0</ns3:cad>
          </ns3:TrackPointExtension>
        </extensions>
      </trkpt>
      <trkpt lat="37.99083824269473552703857421875" lon="-107.74271246977150440216064453125">
        <ele>3883.39990234375</ele>
        <time>2026-08-15T15:00:10.000Z</time>
        <extensions>
          <ns3:TrackPointExtension>
            <ns3:hr>121</ns3:hr>
            <ns3:cad>0</ns3:cad>
          </ns3:TrackPointExtension>
        </extensions>
      </trkpt>
      <trkpt lat="37.990830950438976287841796875" lon="-107.7427179180085659027099609375">
        <ele>3884.39990234375</ele>
        <time>2026-08-15T15:00:14.000Z</time>
        <extensions>
          <ns3:TrackPointExtension>
            <ns3:hr>120</ns3:hr>
            <ns3:cad>0</ns3:cad>
          </ns3:TrackPointExtension>
        </extensions>
      </trkpt>
      <trkpt lat="37.99082801677286624908447265625" lon="-107.74271867237985134124755859375">
        <ele>3884.60009765625</ele>
        <time>2026-08-15T15:00:15.000Z</time>
        <extensions>
          <ns3:TrackPointExtension>
            <ns3:hr>119</ns3:hr>
            <ns3:cad>0</ns3:cad>
          </ns3:TrackPointExtension>
        </extensions>
      </trkpt>
      <trkpt lat="37.9908213950693607330322265625" lon="-107.74273308925330638885498046875">
        <ele>3885.199951171875</ele>
        <time>2026-08-15T15:00:21.000Z</time>
        <extensions>
          <ns3:TrackPointExtension>
            <ns3:hr>116</ns3:hr>
            <ns3:cad>0</ns3:cad>
          </ns3:TrackPointExtension>
        </extensions>
      </trkpt>
      <trkpt lat="37.990818209946155548095703125" lon="-107.742735184729099273681640625">
        <ele>3885.39990234375</ele>
        <time>2026-08-15T15:00:22.000Z</time>
        <extensions>
          <ns3:TrackPointExtension>
            <ns3:hr>115</ns3:hr>
            <ns3:cad>0</ns3:cad>
          </ns3:TrackPointExtension>
        </extensions>
      </trkpt>
      <trkpt lat="37.99081024713814258575439453125" lon="-107.74273007176816463470458984375">
        <ele>3885.60009765625</ele>
        <time>2026-08-15T15:00:23.000Z</time>
        <extensions>
          <ns3:TrackPointExtension>
            <ns3:hr>116</ns3:hr>
            <ns3:cad>0</ns3:cad>
          </ns3:TrackPointExtension>
        </extensions>
      </trkpt>
      <trkpt lat="37.990796081721782684326171875" lon="-107.74275320582091808319091796875">
        <ele>3886.800048828125</ele>
        <time>2026-08-15T15:00:27.000Z</time>
        <extensions>
          <ns3:TrackPointExtension>
            <ns3:hr>116</ns3:hr>
            <ns3:cad>0</ns3:cad>
          </ns3:TrackPointExtension>
        </extensions>
      </trkpt>
      <trkpt lat="37.9907962493598461151123046875" lon="-107.7427631802856922149658203125">
        <ele>3887.199951171875</ele>
        <time>2026-08-15T15:00:33.000Z</time>
        <extensions>
          <ns3:TrackPointExtension>
            <ns3:hr>116</ns3:hr>
            <ns3:cad>0</ns3:cad>
          </ns3:TrackPointExtension>
        </extensions>
      </trkpt>
      <trkpt lat="37.99078979529440402984619140625" lon="-107.74276661686599254608154296875">
        <ele>3887.39990234375</ele>
        <time>2026-08-15T15:00:34.000Z</time>
        <extensions>
          <ns3:TrackPointExtension>
            <ns3:hr>118</ns3:hr>
            <ns3:cad>0</ns3:cad>
          </ns3:TrackPointExtension>
        </extensions>
      </trkpt>
      <trkpt lat="37.99077990464866161346435546875" lon="-107.742778100073337554931640625">
        <ele>3887.800048828125</ele>
        <time>2026-08-15T15:00:36.000Z</time>
        <extensions>
          <ns3:TrackPointExtension>
            <ns3:hr>120</ns3:hr>
            <ns3:cad>0</ns3:cad>
          </ns3:TrackPointExtension>
        </extensions>
      </trkpt>
      <trkpt lat="37.99078560434281826019287109375" lon="-107.742796875536441802978515625">
        <ele>3888.60009765625</ele>
        <time>2026-08-15T15:00:39.000Z</time>
        <extensions>
          <ns3:TrackPointExtension>
            <ns3:hr>122</ns3:hr>
            <ns3:cad>0</ns3:cad>
          </ns3:TrackPointExtension>
        </extensions>
      </trkpt>
      <trkpt lat="37.990790717303752899169921875" lon="-107.74279654026031494140625">
        <ele>3889</ele>
        <time>2026-08-15T15:00:40.000Z</time>
        <extensions>
          <ns3:TrackPointExtension>
            <ns3:hr>122</ns3:hr>
            <ns3:cad>0</ns3:cad>
          </ns3:TrackPointExtension>
        </extensions>
      </trkpt>
      <trkpt lat="37.99078342504799365997314453125" lon="-107.742808274924755096435546875">
        <ele>3889.39990234375</ele>
        <time>2026-08-15T15:00:44.000Z</time>
        <extensions>
          <ns3:TrackPointExtension>
            <ns3:hr>120</ns3:hr>
            <ns3:cad>0</ns3:cad>
          </ns3:TrackPointExtension>
        </extensions>
      </trkpt>
      <trkpt lat="37.990775965154170989990234375" lon="-107.74280969984829425811767578125">
        <ele>3890</ele>
        <time>2026-08-15T15:00:50.000Z</time>
        <extensions>
          <ns3:TrackPointExtension>
            <ns3:hr>117</ns3:hr>
            <ns3:cad>0</ns3:cad>
          </ns3:TrackPointExtension>
        </extensions>
      </trkpt>
      <trkpt lat="37.990752160549163818359375" lon="-107.7427946962416172027587890625">
        <ele>3891.39990234375</ele>
        <time>2026-08-15T15:00:54.000Z</time>
        <extensions>
          <ns3:TrackPointExtension>
            <ns3:hr>113</ns3:hr>
            <ns3:cad>0</ns3:cad>
          </ns3:TrackPointExtension>
        </extensions>
      </trkpt>
      <trkpt lat="37.99074386246502399444580078125" lon="-107.742794193327426910400390625">
        <ele>3891.60009765625</ele>
        <time>2026-08-15T15:00:55.000Z</time>
        <extensions>
          <ns3:TrackPointExtension>
            <ns3:hr>110</ns3:hr>
            <ns3:cad>0</ns3:cad>
          </ns3:TrackPointExtension>
        </extensions>
      </trkpt>
      <trkpt lat="37.99074637703597545623779296875" lon="-107.742797546088695526123046875">
        <ele>3891.800048828125</ele>
        <time>2026-08-15T15:00:56.000Z</time>
        <extensions>
          <ns3:TrackPointExtension>
            <ns3:hr>107</ns3:hr>
            <ns3:cad>0</ns3:cad>
          </ns3:TrackPointExtension>
        </extensions>
      </trkpt>
      <trkpt lat="37.990733720362186431884765625" lon="-107.7428081072866916656494140625">
        <ele>3891.800048828125</ele>
        <time>2026-08-15T15:00:59.000Z</time>
        <extensions>
          <ns3:TrackPointExtension>
            <ns3:hr>104</ns3:hr>
            <ns3:cad>0</ns3:cad>
          </ns3:TrackPointExtension>
        </extensions>
      </trkpt>
      <trkpt lat="37.99073095433413982391357421875" lon="-107.74281372316181659698486328125">
        <ele>3892</ele>
        <time>2026-08-15T15:01:01.000Z</time>
        <extensions>
          <ns3:TrackPointExtension>
            <ns3:hr>102</ns3:hr>
            <ns3:cad>0</ns3:cad>
          </ns3:TrackPointExtension>
        </extensions>
      </trkpt>
      <trkpt lat="37.99072257243096828460693359375" lon="-107.74282244034111499786376953125">
        <ele>3892.39990234375</ele>
        <time>2026-08-15T15:01:03.000Z</time>
        <extensions>
          <ns3:TrackPointExtension>
            <ns3:hr>102</ns3:hr>
            <ns3:cad>0</ns3:cad>
          </ns3:TrackPointExtension>
        </extensions>
      </trkpt>
      <trkpt lat="37.99071536399424076080322265625" lon="-107.7428268827497959136962890625">
        <ele>3893.39990234375</ele>
        <time>2026-08-15T15:01:06.000Z</time>
        <extensions>
          <ns3:TrackPointExtension>
            <ns3:hr>101</ns3:hr>
            <ns3:cad>0</ns3:cad>
          </ns3:TrackPointExtension>
        </extensions>
      </trkpt>
      <trkpt lat="37.990710251033306121826171875" lon="-107.74283266626298427581787109375">
        <ele>3893.60009765625</ele>
        <time>2026-08-15T15:01:07.000Z</time>
        <extensions>
          <ns3:TrackPointExtension>
            <ns3:hr>102</ns3:hr>
            <ns3:cad>0</ns3:cad>
          </ns3:TrackPointExtension>
        </extensions>
      </trkpt>
      <trkpt lat="37.99069625325500965118408203125" lon="-107.74285395629703998565673828125">
        <ele>3894.39990234375</ele>
        <time>2026-08-15T15:01:13.000Z</time>
        <extensions>
          <ns3:TrackPointExtension>
            <ns3:hr>103</ns3:hr>
            <ns3:cad>0</ns3:cad>
          </ns3:TrackPointExtension>
        </extensions>
      </trkpt>
      <trkpt lat="37.99068979918956756591796875" lon="-107.74286091327667236328125">
        <ele>3894.39990234375</ele>
        <time>2026-08-15T15:01:14.000Z</time>
        <extensions>
          <ns3:TrackPointExtension>
            <ns3:hr>104</ns3:hr>
            <ns3:cad>0</ns3:cad>
          </ns3:TrackPointExtension>
        </extensions>
      </trkpt>
      <trkpt lat="37.9906802438199520111083984375" lon="-107.74289452470839023590087890625">
        <ele>3895.800048828125</ele>
        <time>2026-08-15T15:01:19.000Z</time>
        <extensions>
          <ns3:TrackPointExtension>
            <ns3:hr>103</ns3:hr>
            <ns3:cad>0</ns3:cad>
          </ns3:TrackPointExtension>
        </extensions>
      </trkpt>
      <trkpt lat="37.99068686552345752716064453125" lon="-107.7429217658936977386474609375">
        <ele>3896.60009765625</ele>
        <time>2026-08-15T15:01:25.000Z</time>
        <extensions>
          <ns3:TrackPointExtension>
            <ns3:hr>105</ns3:hr>
            <ns3:cad>0</ns3:cad>
          </ns3:TrackPointExtension>
        </extensions>
      </trkpt>
      <trkpt lat="37.990686111152172088623046875" lon="-107.742922604084014892578125">
        <ele>3896.800048828125</ele>
        <time>2026-08-15T15:01:26.000Z</time>
        <extensions>
          <ns3:TrackPointExtension>
            <ns3:hr>105</ns3:hr>
            <ns3:cad>0</ns3:cad>
          </ns3:TrackPointExtension>
        </extensions>
      </trkpt>
      <trkpt lat="37.99067999236285686492919921875" lon="-107.74293794296681880950927734375">
        <ele>3898</ele>
        <time>2026-08-15T15:01:31.000Z</time>
        <extensions>
          <ns3:TrackPointExtension>
            <ns3:hr>106</ns3:hr>
            <ns3:cad>0</ns3:cad>
          </ns3:TrackPointExtension>
        </extensions>
      </trkpt>
      <trkpt lat="37.99067496322095394134521484375" lon="-107.7429489232599735260009765625">
        <ele>3898.800048828125</ele>
        <time>2026-08-15T15:01:37.000Z</time>
        <extensions>
          <ns3:TrackPointExtension>
            <ns3:hr>105</ns3:hr>
            <ns3:cad>0</ns3:cad>
          </ns3:TrackPointExtension>
        </extensions>
      </trkpt>
      <trkpt lat="37.99067228101193904876708984375" lon="-107.742954455316066741943359375">
        <ele>3899</ele>
        <time>2026-08-15T15:01:38.000Z</time>
        <extensions>
          <ns3:TrackPointExtension>
            <ns3:hr>106</ns3:hr>
            <ns3:cad>0</ns3:cad>
          </ns3:TrackPointExtension>
        </extensions>
      </trkpt>
      <trkpt lat="37.99066239036619663238525390625" lon="-107.74295554496347904205322265625">
        <ele>3900.199951171875</ele>
        <time>2026-08-15T15:01:44.000Z</time>
        <extensions>
          <ns3:TrackPointExtension>
            <ns3:hr>107</ns3:hr>
            <ns3:cad>0</ns3:cad>
          </ns3:TrackPointExtension>
        </extensions>
      </trkpt>
      <trkpt lat="37.990650236606597900390625" lon="-107.7429676987230777740478515625">
        <ele>3900.60009765625</ele>
        <time>2026-08-15T15:01:46.000Z</time>
        <extensions>
          <ns3:TrackPointExtension>
            <ns3:hr>108</ns3:hr>
            <ns3:cad>0</ns3:cad>
          </ns3:TrackPointExtension>
        </extensions>
      </trkpt>
      <trkpt lat="37.99063623882830142974853515625" lon="-107.7429931797087192535400390625">
        <ele>3901.199951171875</ele>
        <time>2026-08-15T15:01:49.000Z</time>
        <extensions>
          <ns3:TrackPointExtension>
            <ns3:hr>108</ns3:hr>
            <ns3:cad>0</ns3:cad>
          </ns3:TrackPointExtension>
        </extensions>
      </trkpt>
      <trkpt lat="37.99064260907471179962158203125" lon="-107.74300583638250827789306640625">
        <ele>3901.199951171875</ele>
        <time>2026-08-15T15:01:52.000Z</time>
        <extensions>
          <ns3:TrackPointExtension>
            <ns3:hr>107</ns3:hr>
            <ns3:cad>0</ns3:cad>
          </ns3:TrackPointExtension>
        </extensions>
      </trkpt>
      <trkpt lat="37.9906435310840606689453125" lon="-107.74300566874444484710693359375">
        <ele>3902</ele>
        <time>2026-08-15T15:01:58.000Z</time>
        <extensions>
          <ns3:TrackPointExtension>
            <ns3:hr>110</ns3:hr>
            <ns3:cad>0</ns3:cad>
          </ns3:TrackPointExtension>
        </extensions>
      </trkpt>
      <trkpt lat="37.99064126797020435333251953125" lon="-107.74300918914377689361572265625">
        <ele>3902.199951171875</ele>
        <time>2026-08-15T15:01:59.000Z</time>
        <extensions>
          <ns3:TrackPointExtension>
            <ns3:hr>112</ns3:hr>
            <ns3:cad>0</ns3:cad>
          </ns3:TrackPointExtension>
        </extensions>
      </trkpt>
      <trkpt lat="37.9906386695802211761474609375" lon="-107.7430200017988681793212890625">
        <ele>3902.39990234375</ele>
        <time>2026-08-15T15:02:00.000Z</time>
        <extensions>
          <ns3:TrackPointExtension>
            <ns3:hr>113</ns3:hr>
            <ns3:cad>0</ns3:cad>
          </ns3:TrackPointExtension>
        </extensions>
      </trkpt>
      <trkpt lat="37.99064244143664836883544921875" lon="-107.7430394478142261505126953125">
        <ele>3903.60009765625</ele>
        <time>2026-08-15T15:02:04.000Z</time>
        <extensions>
          <ns3:TrackPointExtension>
            <ns3:hr>113</ns3:hr>
            <ns3:cad>0</ns3:cad>
          </ns3:TrackPointExtension>
        </extensions>
      </trkpt>
      <trkpt lat="37.99064420163631439208984375" lon="-107.7430394478142261505126953125">
        <ele>3903.800048828125</ele>
        <time>2026-08-15T15:02:05.000Z</time>
        <extensions>
          <ns3:TrackPointExtension>
            <ns3:hr>113</ns3:hr>
            <ns3:cad>0</ns3:cad>
          </ns3:TrackPointExtension>
        </extensions>
      </trkpt>
      <trkpt lat="37.9906473867595195770263671875" lon="-107.74304858408868312835693359375">
        <ele>3903.39990234375</ele>
        <time>2026-08-15T15:02:11.000Z</time>
        <extensions>
          <ns3:TrackPointExtension>
            <ns3:hr>112</ns3:hr>
            <ns3:cad>0</ns3:cad>
          </ns3:TrackPointExtension>
        </extensions>
      </trkpt>
      <trkpt lat="37.9906690120697021484375" lon="-107.7430686168372631072998046875">
        <ele>3903.60009765625</ele>
        <time>2026-08-15T15:02:14.000Z</time>
        <extensions>
          <ns3:TrackPointExtension>
            <ns3:hr>110</ns3:hr>
            <ns3:cad>0</ns3:cad>
          </ns3:TrackPointExtension>
        </extensions>
      </trkpt>
      <trkpt lat="37.9906799085438251495361328125" lon="-107.74309627711772918701171875">
        <ele>3904.39990234375</ele>
        <time>2026-08-15T15:02:18.000Z</time>
        <extensions>
          <ns3:TrackPointExtension>
            <ns3:hr>107</ns3:hr>
            <ns3:cad>75</ns3:cad>
          </ns3:TrackPointExtension>
        </extensions>
      </trkpt>
      <trkpt lat="37.990682087838649749755859375" lon="-107.743102647364139556884765625">
        <ele>3904.800048828125</ele>
        <time>2026-08-15T15:02:19.000Z</time>
        <extensions>
          <ns3:TrackPointExtension>
            <ns3:hr>107</ns3:hr>
            <ns3:cad>75</ns3:cad>
          </ns3:TrackPointExtension>
        </extensions>
      </trkpt>
      <trkpt lat="37.9906869493424892425537109375" lon="-107.74312083609402179718017578125">
        <ele>3905.199951171875</ele>
        <time>2026-08-15T15:02:21.000Z</time>
        <extensions>
          <ns3:TrackPointExtension>
            <ns3:hr>106</ns3:hr>
            <ns3:cad>0</ns3:cad>
          </ns3:TrackPointExtension>
        </extensions>
      </trkpt>
      <trkpt lat="37.9906842671334743499755859375" lon="-107.74314531125128269195556640625">
        <ele>3905.800048828125</ele>
        <time>2026-08-15T15:02:27.000Z</time>
        <extensions>
          <ns3:TrackPointExtension>
            <ns3:hr>106</ns3:hr>
            <ns3:cad>0</ns3:cad>
          </ns3:TrackPointExtension>
        </extensions>
      </trkpt>
      <trkpt lat="37.990676723420619964599609375" lon="-107.74315419606864452362060546875">
        <ele>3907</ele>
        <time>2026-08-15T15:02:31.000Z</time>
        <extensions>
          <ns3:TrackPointExtension>
            <ns3:hr>107</ns3:hr>
            <ns3:cad>0</ns3:cad>
          </ns3:TrackPointExtension>
        </extensions>
      </trkpt>
      <trkpt lat="37.9906829260289669036865234375" lon="-107.74315520189702510833740234375">
        <ele>3907.39990234375</ele>
        <time>2026-08-15T15:02:33.000Z</time>
        <extensions>
          <ns3:TrackPointExtension>
            <ns3:hr>107</ns3:hr>
            <ns3:cad>0</ns3:cad>
          </ns3:TrackPointExtension>
        </extensions>
      </trkpt>
      <trkpt lat="37.99068535678088665008544921875" lon="-107.74314983747899532318115234375">
        <ele>3907</ele>
        <time>2026-08-15T15:02:39.000Z</time>
        <extensions>
          <ns3:TrackPointExtension>
            <ns3:hr>109</ns3:hr>
            <ns3:cad>0</ns3:cad>
          </ns3:TrackPointExtension>
        </extensions>
      </trkpt>
      <trkpt lat="37.9906815849244594573974609375" lon="-107.7431537769734859466552734375">
        <ele>3907.60009765625</ele>
        <time>2026-08-15T15:02:45.000Z</time>
        <extensions>
          <ns3:TrackPointExtension>
            <ns3:hr>110</ns3:hr>
            <ns3:cad>0</ns3:cad>
          </ns3:TrackPointExtension>
        </extensions>
      </trkpt>
      <trkpt lat="37.99068535678088665008544921875" lon="-107.74314983747899532318115234375">
        <ele>3908</ele>
        <time>2026-08-15T15:02:47.000Z</time>
        <extensions>
          <ns3:TrackPointExtension>
            <ns3:hr>110</ns3:hr>
            <ns3:cad>0</ns3:cad>
          </ns3:TrackPointExtension>
        </extensions>
      </trkpt>
      <trkpt lat="37.99068535678088665008544921875" lon="-107.74314983747899532318115234375">
        <ele>3908</ele>
        <time>2026-08-15T15:02:53.000Z</time>
        <extensions>
          <ns3:TrackPointExtension>
            <ns3:hr>113</ns3:hr>
            <ns3:cad>0</ns3:cad>
          </ns3:TrackPointExtension>
        </extensions>
      </trkpt>
      <trkpt lat="37.99068535678088665008544921875" lon="-107.74314983747899532318115234375">
        <ele>3907.800048828125</ele>
        <time>2026-08-15T15:02:56.000Z</time>
        <extensions>
          <ns3:TrackPointExtension>
            <ns3:hr>116</ns3:hr>
            <ns3:cad>0</ns3:cad>
          </ns3:TrackPointExtension>
        </extensions>
      </trkpt>
      <trkpt lat="37.99068535678088665008544921875" lon="-107.74314983747899532318115234375">
        <ele>3908</ele>
        <time>2026-08-15T15:02:58.000Z</time>
        <extensions>
          <ns3:TrackPointExtension>
            <ns3:hr>120</ns3:hr>
            <ns3:cad>0</ns3:cad>
          </ns3:TrackPointExtension>
        </extensions>
      </trkpt>
      <trkpt lat="37.99068535678088665008544921875" lon="-107.74314983747899532318115234375">
        <ele>3908</ele>
        <time>2026-08-15T15:02:59.000Z</time>
        <extensions>
          <ns3:TrackPointExtension>
            <ns3:hr>123</ns3:hr>
            <ns3:cad>0</ns3:cad>
          </ns3:TrackPointExtension>
        </extensions>
      </trkpt>
      <trkpt lat="37.99068535678088665008544921875" lon="-107.74314983747899532318115234375">
        <ele>3908</ele>
        <time>2026-08-15T15:03:05.000Z</time>
        <extensions>
          <ns3:TrackPointExtension>
            <ns3:hr>123</ns3:hr>
            <ns3:cad>0</ns3:cad>
          </ns3:TrackPointExtension>
        </extensions>
      </trkpt>
      <trkpt lat="37.99068535678088665008544921875" lon="-107.74314983747899532318115234375">
        <ele>3908.199951171875</ele>
        <time>2026-08-15T15:03:11.000Z</time>
        <extensions>
          <ns3:TrackPointExtension>
            <ns3:hr>121</ns3:hr>
            <ns3:cad>0</ns3:cad>
          </ns3:TrackPointExtension>
        </extensions>
      </trkpt>
      <trkpt lat="37.99068535678088665008544921875" lon="-107.74314983747899532318115234375">
        <ele>3908.39990234375</ele>
        <time>2026-08-15T15:03:17.000Z</time>
        <extensions>
          <ns3:TrackPointExtension>
            <ns3:hr>120</ns3:hr>
            <ns3:cad>0</ns3:cad>
          </ns3:TrackPointExtension>
        </extensions>
      </trkpt>
      <trkpt lat="37.99068535678088665008544921875" lon="-107.74314983747899532318115234375">
        <ele>3908.39990234375</ele>
        <time>2026-08-15T15:03:22.000Z</time>
        <extensions>
          <ns3:TrackPointExtension>
            <ns3:hr>117</ns3:hr>
            <ns3:cad>0</ns3:cad>
          </ns3:TrackPointExtension>
        </extensions>
      </trkpt>
      <trkpt lat="37.99068535678088665008544921875" lon="-107.74314983747899532318115234375">
        <ele>3908.199951171875</ele>
        <time>2026-08-15T15:03:23.000Z</time>
        <extensions>
          <ns3:TrackPointExtension>
            <ns3:hr>114</ns3:hr>
            <ns3:cad>0</ns3:cad>
          </ns3:TrackPointExtension>
        </extensions>
      </trkpt>
      <trkpt lat="37.99068535678088665008544921875" lon="-107.74314983747899532318115234375">
        <ele>3908</ele>
        <time>2026-08-15T15:03:25.000Z</time>
        <extensions>
          <ns3:TrackPointExtension>
            <ns3:hr>112</ns3:hr>
            <ns3:cad>0</ns3:cad>
          </ns3:TrackPointExtension>
        </extensions>
      </trkpt>
      <trkpt lat="37.99068535678088665008544921875" lon="-107.74314983747899532318115234375">
        <ele>3908.199951171875</ele>
        <time>2026-08-15T15:03:27.000Z</time>
        <extensions>
          <ns3:TrackPointExtension>
            <ns3:hr>109</ns3:hr>
            <ns3:cad>0</ns3:cad>
          </ns3:TrackPointExtension>
        </extensions>
      </trkpt>
      <trkpt lat="37.99068535678088665008544921875" lon="-107.74314983747899532318115234375">
        <ele>3908.199951171875</ele>
        <time>2026-08-15T15:03:33.000Z</time>
        <extensions>
          <ns3:TrackPointExtension>
            <ns3:hr>107</ns3:hr>
            <ns3:cad>0</ns3:cad>
          </ns3:TrackPointExtension>
        </extensions>
      </trkpt>
      <trkpt lat="37.99068535678088665008544921875" lon="-107.74314983747899532318115234375">
        <ele>3908</ele>
        <time>2026-08-15T15:03:37.000Z</time>
        <extensions>
          <ns3:TrackPointExtension>
            <ns3:hr>107</ns3:hr>
            <ns3:cad>0</ns3:cad>
          </ns3:TrackPointExtension>
        </extensions>
      </trkpt>
      <trkpt lat="37.99068535678088665008544921875" lon="-107.74314983747899532318115234375">
        <ele>3908.199951171875</ele>
        <time>2026-08-15T15:03:43.000Z</time>
        <extensions>
          <ns3:TrackPointExtension>
            <ns3:hr>108</ns3:hr>
            <ns3:cad>0</ns3:cad>
          </ns3:TrackPointExtension>
        </extensions>
      </trkpt>
      <trkpt lat="37.99068535678088665008544921875" lon="-107.74314983747899532318115234375">
        <ele>3907.800048828125</ele>
        <time>2026-08-15T15:03:49.000Z</time>
        <extensions>
          <ns3:TrackPointExtension>
            <ns3:hr>111</ns3:hr>
            <ns3:cad>0</ns3:cad>
          </ns3:TrackPointExtension>
        </extensions>
      </trkpt>
      <trkpt lat="37.99068535678088665008544921875" lon="-107.74314983747899532318115234375">
        <ele>3907.800048828125</ele>
        <time>2026-08-15T15:03:51.000Z</time>
        <extensions>
          <ns3:TrackPointExtension>
            <ns3:hr>113</ns3:hr>
            <ns3:cad>0</ns3:cad>
          </ns3:TrackPointExtension>
        </extensions>
      </trkpt>
      <trkpt lat="37.99068535678088665008544921875" lon="-107.74314983747899532318115234375">
        <ele>3908.199951171875</ele>
        <time>2026-08-15T15:03:57.000Z</time>
        <extensions>
          <ns3:TrackPointExtension>
            <ns3:hr>111</ns3:hr>
            <ns3:cad>0</ns3:cad>
          </ns3:TrackPointExtension>
        </extensions>
      </trkpt>
      <trkpt lat="37.99068535678088665008544921875" lon="-107.74314983747899532318115234375">
        <ele>3907.800048828125</ele>
        <time>2026-08-15T15:04:02.000Z</time>
        <extensions>
          <ns3:TrackPointExtension>
            <ns3:hr>108</ns3:hr>
            <ns3:cad>0</ns3:cad>
          </ns3:TrackPointExtension>
        </extensions>
      </trkpt>
      <trkpt lat="37.99068535678088665008544921875" lon="-107.74314983747899532318115234375">
        <ele>3908</ele>
        <time>2026-08-15T15:04:05.000Z</time>
        <extensions>
          <ns3:TrackPointExtension>
            <ns3:hr>105</ns3:hr>
            <ns3:cad>0</ns3:cad>
          </ns3:TrackPointExtension>
        </extensions>
      </trkpt>
      <trkpt lat="37.99068535678088665008544921875" lon="-107.74314983747899532318115234375">
        <ele>3909</ele>
        <time>2026-08-15T15:04:09.000Z</time>
        <extensions>
          <ns3:TrackPointExtension>
            <ns3:hr>104</ns3:hr>
            <ns3:cad>0</ns3:cad>
          </ns3:TrackPointExtension>
        </extensions>
      </trkpt>
      <trkpt lat="37.99068535678088665008544921875" lon="-107.74314983747899532318115234375">
        <ele>3909.199951171875</ele>
        <time>2026-08-15T15:04:10.000Z</time>
        <extensions>
          <ns3:TrackPointExtension>
            <ns3:hr>103</ns3:hr>
            <ns3:cad>0</ns3:cad>
          </ns3:TrackPointExtension>
        </extensions>
      </trkpt>
      <trkpt lat="37.99068535678088665008544921875" lon="-107.74314983747899532318115234375">
        <ele>3909.199951171875</ele>
        <time>2026-08-15T15:04:16.000Z</time>
        <extensions>
          <ns3:TrackPointExtension>
            <ns3:hr>102</ns3:hr>
            <ns3:cad>0</ns3:cad>
          </ns3:TrackPointExtension>
        </extensions>
      </trkpt>
      <trkpt lat="37.99068535678088665008544921875" lon="-107.74314983747899532318115234375">
        <ele>3908.800048828125</ele>
        <time>2026-08-15T15:04:22.000Z</time>
        <extensions>
          <ns3:TrackPointExtension>
            <ns3:hr>102</ns3:hr>
            <ns3:cad>0</ns3:cad>
          </ns3:TrackPointExtension>
        </extensions>
      </trkpt>
      <trkpt lat="37.99068535678088665008544921875" lon="-107.74314983747899532318115234375">
        <ele>3908.800048828125</ele>
        <time>2026-08-15T15:04:23.000Z</time>
        <extensions>
          <ns3:TrackPointExtension>
            <ns3:hr>102</ns3:hr>
            <ns3:cad>0</ns3:cad>
          </ns3:TrackPointExtension>
        </extensions>
      </trkpt>
      <trkpt lat="37.99068535678088665008544921875" lon="-107.74314983747899532318115234375">
        <ele>3908.800048828125</ele>
        <time>2026-08-15T15:04:29.000Z</time>
        <extensions>
          <ns3:TrackPointExtension>
            <ns3:hr>101</ns3:hr>
            <ns3:cad>0</ns3:cad>
          </ns3:TrackPointExtension>
        </extensions>
      </trkpt>
      <trkpt lat="37.99068535678088665008544921875" lon="-107.74314983747899532318115234375">
        <ele>3908.800048828125</ele>
        <time>2026-08-15T15:04:35.000Z</time>
        <extensions>
          <ns3:TrackPointExtension>
            <ns3:hr>100</ns3:hr>
            <ns3:cad>0</ns3:cad>
          </ns3:TrackPointExtension>
        </extensions>
      </trkpt>
      <trkpt lat="37.99066389910876750946044921875" lon="-107.74316257797181606292724609375">
        <ele>3908.39990234375</ele>
        <time>2026-08-15T15:04:40.000Z</time>
        <extensions>
          <ns3:TrackPointExtension>
            <ns3:hr>103</ns3:hr>
            <ns3:cad>0</ns3:cad>
          </ns3:TrackPointExtension>
        </extensions>
      </trkpt>
      <trkpt lat="37.9906540922820568084716796875" lon="-107.7431715466082096099853515625">
        <ele>3908.199951171875</ele>
        <time>2026-08-15T15:04:41.000Z</time>
        <extensions>
          <ns3:TrackPointExtension>
            <ns3:hr>103</ns3:hr>
            <ns3:cad>0</ns3:cad>
          </ns3:TrackPointExtension>
        </extensions>
      </trkpt>
      <trkpt lat="37.99065291881561279296875" lon="-107.74322896264493465423583984375">
        <ele>3908.800048828125</ele>
        <time>2026-08-15T15:04:47.000Z</time>
        <extensions>
          <ns3:TrackPointExtension>
            <ns3:hr>104</ns3:hr>
            <ns3:cad>47</ns3:cad>
          </ns3:TrackPointExtension>
        </extensions>
      </trkpt>
      <trkpt lat="37.99065099097788333892822265625" lon="-107.74323566816747188568115234375">
        <ele>3909.39990234375</ele>
        <time>2026-08-15T15:04:51.000Z</time>
        <extensions>
          <ns3:TrackPointExtension>
            <ns3:hr>104</ns3:hr>
            <ns3:cad>0</ns3:cad>
          </ns3:TrackPointExtension>
        </extensions>
      </trkpt>
      <trkpt lat="37.990641184151172637939453125" lon="-107.74324321188032627105712890625">
        <ele>3910.60009765625</ele>
        <time>2026-08-15T15:04:54.000Z</time>
        <extensions>
          <ns3:TrackPointExtension>
            <ns3:hr>103</ns3:hr>
            <ns3:cad>0</ns3:cad>
          </ns3:TrackPointExtension>
        </extensions>
      </trkpt>
      <trkpt lat="37.9906286112964153289794921875" lon="-107.7432278729975223541259765625">
        <ele>3911.199951171875</ele>
        <time>2026-08-15T15:04:57.000Z</time>
        <extensions>
          <ns3:TrackPointExtension>
            <ns3:hr>104</ns3:hr>
            <ns3:cad>0</ns3:cad>
          </ns3:TrackPointExtension>
        </extensions>
      </trkpt>
      <trkpt lat="37.99061444588005542755126953125" lon="-107.74322376586496829986572265625">
        <ele>3911.199951171875</ele>
        <time>2026-08-15T15:04:59.000Z</time>
        <extensions>
          <ns3:TrackPointExtension>
            <ns3:hr>106</ns3:hr>
            <ns3:cad>0</ns3:cad>
          </ns3:TrackPointExtension>
        </extensions>
      </trkpt>
      <trkpt lat="37.9905555211007595062255859375" lon="-107.7432446368038654327392578125">
        <ele>3910.800048828125</ele>
        <time>2026-08-15T15:05:05.000Z</time>
        <extensions>
          <ns3:TrackPointExtension>
            <ns3:hr>106</ns3:hr>
            <ns3:cad>0</ns3:cad>
          </ns3:TrackPointExtension>
        </extensions>
      </trkpt>
      <trkpt lat="37.99055007286369800567626953125" lon="-107.74325360544025897979736328125">
        <ele>3910.800048828125</ele>
        <time>2026-08-15T15:05:06.000Z</time>
        <extensions>
          <ns3:TrackPointExtension>
            <ns3:hr>106</ns3:hr>
            <ns3:cad>52</ns3:cad>
          </ns3:TrackPointExtension>
        </extensions>
      </trkpt>
      <trkpt lat="37.99051235429942607879638671875" lon="-107.74327933788299560546875">
        <ele>3911.60009765625</ele>
        <time>2026-08-15T15:05:12.000Z</time>
        <extensions>
          <ns3:TrackPointExtension>
            <ns3:hr>108</ns3:hr>
            <ns3:cad>0</ns3:cad>
          </ns3:TrackPointExtension>
        </extensions>
      </trkpt>
      <trkpt lat="37.99050531350076198577880859375" lon="-107.74328243918716907501220703125">
        <ele>3911.800048828125</ele>
        <time>2026-08-15T15:05:13.000Z</time>
        <extensions>
          <ns3:TrackPointExtension>
            <ns3:hr>108</ns3:hr>
            <ns3:cad>50</ns3:cad>
          </ns3:TrackPointExtension>
        </extensions>
      </trkpt>
      <trkpt lat="37.99047480337321758270263671875" lon="-107.74326902814209461212158203125">
        <ele>3912.60009765625</ele>
        <time>2026-08-15T15:05:19.000Z</time>
        <extensions>
          <ns3:TrackPointExtension>
            <ns3:hr>108</ns3:hr>
            <ns3:cad>0</ns3:cad>
          </ns3:TrackPointExtension>
        </extensions>
      </trkpt>
      <trkpt lat="37.9904656670987606048583984375" lon="-107.7432647533714771270751953125">
        <ele>3912.800048828125</ele>
        <time>2026-08-15T15:05:20.000Z</time>
        <extensions>
          <ns3:TrackPointExtension>
            <ns3:hr>108</ns3:hr>
            <ns3:cad>0</ns3:cad>
          </ns3:TrackPointExtension>
        </extensions>
      </trkpt>
      <trkpt lat="37.9904542677104473114013671875" lon="-107.74327724240720272064208984375">
        <ele>3913.39990234375</ele>
        <time>2026-08-15T15:05:22.000Z</time>
        <extensions>
          <ns3:TrackPointExtension>
            <ns3:hr>111</ns3:hr>
            <ns3:cad>0</ns3:cad>
          </ns3:TrackPointExtension>
        </extensions>
      </trkpt>
      <trkpt lat="37.99045066349208354949951171875" lon="-107.74328562431037425994873046875">
        <ele>3913.60009765625</ele>
        <time>2026-08-15T15:05:23.000Z</time>
        <extensions>
          <ns3:TrackPointExtension>
            <ns3:hr>115</ns3:hr>
            <ns3:cad>0</ns3:cad>
          </ns3:TrackPointExtension>
        </extensions>
      </trkpt>
      <trkpt lat="37.99044848419725894927978515625" lon="-107.74329207837581634521484375">
        <ele>3913.60009765625</ele>
        <time>2026-08-15T15:05:24.000Z</time>
        <extensions>
          <ns3:TrackPointExtension>
            <ns3:hr>120</ns3:hr>
            <ns3:cad>44</ns3:cad>
          </ns3:TrackPointExtension>
        </extensions>
      </trkpt>
      <trkpt lat="37.99044303596019744873046875" lon="-107.7432976104319095611572265625">
        <ele>3914</ele>
        <time>2026-08-15T15:05:26.000Z</time>
        <extensions>
          <ns3:TrackPointExtension>
            <ns3:hr>122</ns3:hr>
            <ns3:cad>44</ns3:cad>
          </ns3:TrackPointExtension>
        </extensions>
      </trkpt>
      <trkpt lat="37.99040238372981548309326171875" lon="-107.74331613443791866302490234375">
        <ele>3914.60009765625</ele>
        <time>2026-08-15T15:05:31.000Z</time>
        <extensions>
          <ns3:TrackPointExtension>
            <ns3:hr>122</ns3:hr>
            <ns3:cad>61</ns3:cad>
          </ns3:TrackPointExtension>
        </extensions>
      </trkpt>
      <trkpt lat="37.9903860390186309814453125" lon="-107.74332619272172451019287109375">
        <ele>3915.199951171875</ele>
        <time>2026-08-15T15:05:33.000Z</time>
        <extensions>
          <ns3:TrackPointExtension>
            <ns3:hr>123</ns3:hr>
            <ns3:cad>61</ns3:cad>
          </ns3:TrackPointExtension>
        </extensions>
      </trkpt>
      <trkpt lat="37.99035318195819854736328125" lon="-107.7433499135076999664306640625">
        <ele>3915.800048828125</ele>
        <time>2026-08-15T15:05:37.000Z</time>
        <extensions>
          <ns3:TrackPointExtension>
            <ns3:hr>120</ns3:hr>
            <ns3:cad>0</ns3:cad>
          </ns3:TrackPointExtension>
        </extensions>
      </trkpt>
      <trkpt lat="37.990344800055027008056640625" lon="-107.7433616481721401214599609375">
        <ele>3916</ele>
        <time>2026-08-15T15:05:39.000Z</time>
        <extensions>
          <ns3:TrackPointExtension>
            <ns3:hr>118</ns3:hr>
            <ns3:cad>0</ns3:cad>
          </ns3:TrackPointExtension>
        </extensions>
      </trkpt>
      <trkpt lat="37.9903235100209712982177734375" lon="-107.7433888055384159088134765625">
        <ele>3916.199951171875</ele>
        <time>2026-08-15T15:05:45.000Z</time>
        <extensions>
          <ns3:TrackPointExtension>
            <ns3:hr>117</ns3:hr>
            <ns3:cad>44</ns3:cad>
          </ns3:TrackPointExtension>
        </extensions>
      </trkpt>
      <trkpt lat="37.9903188161551952362060546875" lon="-107.74339442141354084014892578125">
        <ele>3917.60009765625</ele>
        <time>2026-08-15T15:05:49.000Z</time>
        <extensions>
          <ns3:TrackPointExtension>
            <ns3:hr>118</ns3:hr>
            <ns3:cad>0</ns3:cad>
          </ns3:TrackPointExtension>
        </extensions>
      </trkpt>
      <trkpt lat="37.99031185917556285858154296875" lon="-107.74339123629033565521240234375">
        <ele>3918.60009765625</ele>
        <time>2026-08-15T15:05:52.000Z</time>
        <extensions>
          <ns3:TrackPointExtension>
            <ns3:hr>118</ns3:hr>
            <ns3:cad>0</ns3:cad>
          </ns3:TrackPointExtension>
        </extensions>
      </trkpt>
      <trkpt lat="37.9903007112443447113037109375" lon="-107.7433911524713039398193359375">
        <ele>3919</ele>
        <time>2026-08-15T15:05:58.000Z</time>
        <extensions>
          <ns3:TrackPointExtension>
            <ns3:hr>116</ns3:hr>
            <ns3:cad>0</ns3:cad>
          </ns3:TrackPointExtension>
        </extensions>
      </trkpt>
      <trkpt lat="37.99029375426471233367919921875" lon="-107.74339073337614536285400390625">
        <ele>3919.199951171875</ele>
        <time>2026-08-15T15:05:59.000Z</time>
        <extensions>
          <ns3:TrackPointExtension>
            <ns3:hr>116</ns3:hr>
            <ns3:cad>0</ns3:cad>
          </ns3:TrackPointExtension>
        </extensions>
      </trkpt>
      <trkpt lat="37.99028872512280941009521484375" lon="-107.7433938346803188323974609375">
        <ele>3919.800048828125</ele>
        <time>2026-08-15T15:06:01.000Z</time>
        <extensions>
          <ns3:TrackPointExtension>
            <ns3:hr>114</ns3:hr>
            <ns3:cad>0</ns3:cad>
          </ns3:TrackPointExtension>
        </extensions>
      </trkpt>
      <trkpt lat="37.990268357098102569580078125" lon="-107.74340196512639522552490234375">
        <ele>3920.60009765625</ele>
        <time>2026-08-15T15:06:04.000Z</time>
        <extensions>
          <ns3:TrackPointExtension>
            <ns3:hr>113</ns3:hr>
            <ns3:cad>0</ns3:cad>
          </ns3:TrackPointExtension>
        </extensions>
      </trkpt>
      <trkpt lat="37.99025938846170902252197265625" lon="-107.74340967647731304168701171875">
        <ele>3921</ele>
        <time>2026-08-15T15:06:05.000Z</time>
        <extensions>
          <ns3:TrackPointExtension>
            <ns3:hr>113</ns3:hr>
            <ns3:cad>0</ns3:cad>
          </ns3:TrackPointExtension>
        </extensions>
      </trkpt>
      <trkpt lat="37.990250252187252044677734375" lon="-107.74341152049601078033447265625">
        <ele>3921.800048828125</ele>
        <time>2026-08-15T15:06:09.000Z</time>
        <extensions>
          <ns3:TrackPointExtension>
            <ns3:hr>114</ns3:hr>
            <ns3:cad>73</ns3:cad>
          </ns3:TrackPointExtension>
        </extensions>
      </trkpt>
      <trkpt lat="37.9902497492730617523193359375" lon="-107.743408419191837310791015625">
        <ele>3922</ele>
        <time>2026-08-15T15:06:10.000Z</time>
        <extensions>
          <ns3:TrackPointExtension>
            <ns3:hr>114</ns3:hr>
            <ns3:cad>0</ns3:cad>
          </ns3:TrackPointExtension>
        </extensions>
      </trkpt>
      <trkpt lat="37.99021932296454906463623046875" lon="-107.74341453798115253448486328125">
        <ele>3923</ele>
        <time>2026-08-15T15:06:16.000Z</time>
        <extensions>
          <ns3:TrackPointExtension>
            <ns3:hr>114</ns3:hr>
            <ns3:cad>0</ns3:cad>
          </ns3:TrackPointExtension>
        </extensions>
      </trkpt>
      <trkpt lat="37.99021127633750438690185546875" lon="-107.74341990239918231964111328125">
        <ele>3923</ele>
        <time>2026-08-15T15:06:17.000Z</time>
        <extensions>
          <ns3:TrackPointExtension>
            <ns3:hr>113</ns3:hr>
            <ns3:cad>0</ns3:cad>
          </ns3:TrackPointExtension>
        </extensions>
      </trkpt>
      <trkpt lat="37.99019669182598590850830078125" lon="-107.74343230761587619781494140625">
        <ele>3923.800048828125</ele>
        <time>2026-08-15T15:06:22.000Z</time>
        <extensions>
          <ns3:TrackPointExtension>
            <ns3:hr>110</ns3:hr>
            <ns3:cad>0</ns3:cad>
          </ns3:TrackPointExtension>
        </extensions>
      </trkpt>
      <trkpt lat="37.99019669182598590850830078125" lon="-107.743431888520717620849609375">
        <ele>3923.60009765625</ele>
        <time>2026-08-15T15:06:23.000Z</time>
        <extensions>
          <ns3:TrackPointExtension>
            <ns3:hr>111</ns3:hr>
            <ns3:cad>0</ns3:cad>
          </ns3:TrackPointExtension>
        </extensions>
      </trkpt>
      <trkpt lat="37.99019669182598590850830078125" lon="-107.743431888520717620849609375">
        <ele>3923.199951171875</ele>
        <time>2026-08-15T15:06:27.000Z</time>
        <extensions>
          <ns3:TrackPointExtension>
            <ns3:hr>108</ns3:hr>
            <ns3:cad>0</ns3:cad>
          </ns3:TrackPointExtension>
        </extensions>
      </trkpt>
      <trkpt lat="37.99019669182598590850830078125" lon="-107.743431888520717620849609375">
        <ele>3923.199951171875</ele>
        <time>2026-08-15T15:06:29.000Z</time>
        <extensions>
          <ns3:TrackPointExtension>
            <ns3:hr>104</ns3:hr>
            <ns3:cad>0</ns3:cad>
          </ns3:TrackPointExtension>
        </extensions>
      </trkpt>
      <trkpt lat="37.99019669182598590850830078125" lon="-107.743431888520717620849609375">
        <ele>3923.39990234375</ele>
        <time>2026-08-15T15:06:30.000Z</time>
        <extensions>
          <ns3:TrackPointExtension>
            <ns3:hr>100</ns3:hr>
            <ns3:cad>0</ns3:cad>
          </ns3:TrackPointExtension>
        </extensions>
      </trkpt>
      <trkpt lat="37.99017615616321563720703125" lon="-107.74344068951904773712158203125">
        <ele>3924.199951171875</ele>
        <time>2026-08-15T15:06:33.000Z</time>
        <extensions>
          <ns3:TrackPointExtension>
            <ns3:hr>98</ns3:hr>
            <ns3:cad>0</ns3:cad>
          </ns3:TrackPointExtension>
        </extensions>
      </trkpt>
      <trkpt lat="37.99016836099326610565185546875" lon="-107.74344521574676036834716796875">
        <ele>3924.39990234375</ele>
        <time>2026-08-15T15:06:34.000Z</time>
        <extensions>
          <ns3:TrackPointExtension>
            <ns3:hr>97</ns3:hr>
            <ns3:cad>0</ns3:cad>
          </ns3:TrackPointExtension>
        </extensions>
      </trkpt>
      <trkpt lat="37.9901206679642200469970703125" lon="-107.74346969090402126312255859375">
        <ele>3925.199951171875</ele>
        <time>2026-08-15T15:06:40.000Z</time>
        <extensions>
          <ns3:TrackPointExtension>
            <ns3:hr>96</ns3:hr>
            <ns3:cad>0</ns3:cad>
          </ns3:TrackPointExtension>
        </extensions>
      </trkpt>
      <trkpt lat="37.99010884948074817657470703125" lon="-107.7434789948165416717529296875">
        <ele>3925.199951171875</ele>
        <time>2026-08-15T15:06:42.000Z</time>
        <extensions>
          <ns3:TrackPointExtension>
            <ns3:hr>96</ns3:hr>
            <ns3:cad>0</ns3:cad>
          </ns3:TrackPointExtension>
        </extensions>
      </trkpt>
      <trkpt lat="37.99007817171514034271240234375" lon="-107.7435108460485935211181640625">
        <ele>3925.199951171875</ele>
        <time>2026-08-15T15:06:46.000Z</time>
        <extensions>
          <ns3:TrackPointExtension>
            <ns3:hr>95</ns3:hr>
            <ns3:cad>0</ns3:cad>
          </ns3:TrackPointExtension>
        </extensions>
      </trkpt>
      <trkpt lat="37.99003399908542633056640625" lon="-107.743515707552433013916015625">
        <ele>3925.199951171875</ele>
        <time>2026-08-15T15:06:51.000Z</time>
        <extensions>
          <ns3:TrackPointExtension>
            <ns3:hr>96</ns3:hr>
            <ns3:cad>48</ns3:cad>
          </ns3:TrackPointExtension>
        </extensions>
      </trkpt>
      <trkpt lat="37.9900254495441913604736328125" lon="-107.7435195632278919219970703125">
        <ele>3925.199951171875</ele>
        <time>2026-08-15T15:06:52.000Z</time>
        <extensions>
          <ns3:TrackPointExtension>
            <ns3:hr>96</ns3:hr>
            <ns3:cad>48</ns3:cad>
          </ns3:TrackPointExtension>
        </extensions>
      </trkpt>
      <trkpt lat="37.9900180734694004058837890625" lon="-107.74352836422622203826904296875">
        <ele>3925.199951171875</ele>
        <time>2026-08-15T15:06:53.000Z</time>
        <extensions>
          <ns3:TrackPointExtension>
            <ns3:hr>97</ns3:hr>
            <ns3:cad>0</ns3:cad>
          </ns3:TrackPointExtension>
        </extensions>
      </trkpt>
      <trkpt lat="37.98999820835888385772705078125" lon="-107.74358100257813930511474609375">
        <ele>3925</ele>
        <time>2026-08-15T15:06:57.000Z</time>
        <extensions>
          <ns3:TrackPointExtension>
            <ns3:hr>100</ns3:hr>
            <ns3:cad>0</ns3:cad>
          </ns3:TrackPointExtension>
        </extensions>
      </trkpt>
      <trkpt lat="37.9899932630360126495361328125" lon="-107.743592150509357452392578125">
        <ele>3925</ele>
        <time>2026-08-15T15:06:58.000Z</time>
        <extensions>
          <ns3:TrackPointExtension>
            <ns3:hr>101</ns3:hr>
            <ns3:cad>0</ns3:cad>
          </ns3:TrackPointExtension>
        </extensions>
      </trkpt>
      <trkpt lat="37.98997574485838413238525390625" lon="-107.7436258457601070404052734375">
        <ele>3924.800048828125</ele>
        <time>2026-08-15T15:07:01.000Z</time>
        <extensions>
          <ns3:TrackPointExtension>
            <ns3:hr>104</ns3:hr>
            <ns3:cad>51</ns3:cad>
          </ns3:TrackPointExtension>
        </extensions>
      </trkpt>
      <trkpt lat="37.9899542033672332763671875" lon="-107.74366297759115695953369140625">
        <ele>3924.800048828125</ele>
        <time>2026-08-15T15:07:05.000Z</time>
        <extensions>
          <ns3:TrackPointExtension>
            <ns3:hr>105</ns3:hr>
            <ns3:cad>51</ns3:cad>
          </ns3:TrackPointExtension>
        </extensions>
      </trkpt>
      <trkpt lat="37.9899312369525432586669921875" lon="-107.74373061954975128173828125">
        <ele>3925.800048828125</ele>
        <time>2026-08-15T15:07:11.000Z</time>
        <extensions>
          <ns3:TrackPointExtension>
            <ns3:hr>106</ns3:hr>
            <ns3:cad>0</ns3:cad>
          </ns3:TrackPointExtension>
        </extensions>
      </trkpt>
      <trkpt lat="37.9899273812770843505859375" lon="-107.74373732507228851318359375">
        <ele>3925.800048828125</ele>
        <time>2026-08-15T15:07:12.000Z</time>
        <extensions>
          <ns3:TrackPointExtension>
            <ns3:hr>106</ns3:hr>
            <ns3:cad>0</ns3:cad>
          </ns3:TrackPointExtension>
        </extensions>
      </trkpt>
      <trkpt lat="37.98991556279361248016357421875" lon="-107.74376071058213710784912109375">
        <ele>3926</ele>
        <time>2026-08-15T15:07:15.000Z</time>
        <extensions>
          <ns3:TrackPointExtension>
            <ns3:hr>109</ns3:hr>
            <ns3:cad>0</ns3:cad>
          </ns3:TrackPointExtension>
        </extensions>
      </trkpt>
      <trkpt lat="37.98990659415721893310546875" lon="-107.7437780611217021942138671875">
        <ele>3926.199951171875</ele>
        <time>2026-08-15T15:07:18.000Z</time>
        <extensions>
          <ns3:TrackPointExtension>
            <ns3:hr>110</ns3:hr>
            <ns3:cad>0</ns3:cad>
          </ns3:TrackPointExtension>
        </extensions>
      </trkpt>
      <trkpt lat="37.98989963717758655548095703125" lon="-107.74378200061619281768798828125">
        <ele>3926.39990234375</ele>
        <time>2026-08-15T15:07:19.000Z</time>
        <extensions>
          <ns3:TrackPointExtension>
            <ns3:hr>110</ns3:hr>
            <ns3:cad>0</ns3:cad>
          </ns3:TrackPointExtension>
        </extensions>
      </trkpt>
      <trkpt lat="37.98987683840095996856689453125" lon="-107.74379457347095012664794921875">
        <ele>3927.39990234375</ele>
        <time>2026-08-15T15:07:24.000Z</time>
        <extensions>
          <ns3:TrackPointExtension>
            <ns3:hr>109</ns3:hr>
            <ns3:cad>0</ns3:cad>
          </ns3:TrackPointExtension>
        </extensions>
      </trkpt>
      <trkpt lat="37.98985898494720458984375" lon="-107.74380764923989772796630859375">
        <ele>3928</ele>
        <time>2026-08-15T15:07:30.000Z</time>
        <extensions>
          <ns3:TrackPointExtension>
            <ns3:hr>113</ns3:hr>
            <ns3:cad>0</ns3:cad>
          </ns3:TrackPointExtension>
        </extensions>
      </trkpt>
      <trkpt lat="37.9898571409285068511962890625" lon="-107.74381016381084918975830078125">
        <ele>3928.39990234375</ele>
        <time>2026-08-15T15:07:33.000Z</time>
        <extensions>
          <ns3:TrackPointExtension>
            <ns3:hr>114</ns3:hr>
            <ns3:cad>0</ns3:cad>
          </ns3:TrackPointExtension>
        </extensions>
      </trkpt>
      <trkpt lat="37.9898571409285068511962890625" lon="-107.74381016381084918975830078125">
        <ele>3929.60009765625</ele>
        <time>2026-08-15T15:07:36.000Z</time>
        <extensions>
          <ns3:TrackPointExtension>
            <ns3:hr>113</ns3:hr>
            <ns3:cad>0</ns3:cad>
          </ns3:TrackPointExtension>
        </extensions>
      </trkpt>
      <trkpt lat="37.9898299835622310638427734375" lon="-107.74382181465625762939453125">
        <ele>3930.199951171875</ele>
        <time>2026-08-15T15:07:39.000Z</time>
        <extensions>
          <ns3:TrackPointExtension>
            <ns3:hr>113</ns3:hr>
            <ns3:cad>62</ns3:cad>
          </ns3:TrackPointExtension>
        </extensions>
      </trkpt>
      <trkpt lat="37.9898081906139850616455078125" lon="-107.74383815936744213104248046875">
        <ele>3930.60009765625</ele>
        <time>2026-08-15T15:07:43.000Z</time>
        <extensions>
          <ns3:TrackPointExtension>
            <ns3:hr>114</ns3:hr>
            <ns3:cad>0</ns3:cad>
          </ns3:TrackPointExtension>
        </extensions>
      </trkpt>
      <trkpt lat="37.98979804851114749908447265625" lon="-107.74384469725191593170166015625">
        <ele>3931</ele>
        <time>2026-08-15T15:07:44.000Z</time>
        <extensions>
          <ns3:TrackPointExtension>
            <ns3:hr>112</ns3:hr>
            <ns3:cad>0</ns3:cad>
          </ns3:TrackPointExtension>
        </extensions>
      </trkpt>
      <trkpt lat="37.9897870682179927825927734375" lon="-107.7438654005527496337890625">
        <ele>3931.800048828125</ele>
        <time>2026-08-15T15:07:47.000Z</time>
        <extensions>
          <ns3:TrackPointExtension>
            <ns3:hr>109</ns3:hr>
            <ns3:cad>0</ns3:cad>
          </ns3:TrackPointExtension>
        </extensions>
      </trkpt>
      <trkpt lat="37.9897706396877765655517578125" lon="-107.743876464664936065673828125">
        <ele>3932.199951171875</ele>
        <time>2026-08-15T15:07:50.000Z</time>
        <extensions>
          <ns3:TrackPointExtension>
            <ns3:hr>108</ns3:hr>
            <ns3:cad>0</ns3:cad>
          </ns3:TrackPointExtension>
        </extensions>
      </trkpt>
      <trkpt lat="37.98974608071148395538330078125" lon="-107.74390655569732189178466796875">
        <ele>3932.800048828125</ele>
        <time>2026-08-15T15:07:54.000Z</time>
        <extensions>
          <ns3:TrackPointExtension>
            <ns3:hr>107</ns3:hr>
            <ns3:cad>79</ns3:cad>
          </ns3:TrackPointExtension>
        </extensions>
      </trkpt>
      <trkpt lat="37.9897408001124858856201171875" lon="-107.74393505416810512542724609375">
        <ele>3933.199951171875</ele>
        <time>2026-08-15T15:07:57.000Z</time>
        <extensions>
          <ns3:TrackPointExtension>
            <ns3:hr>107</ns3:hr>
            <ns3:cad>0</ns3:cad>
          </ns3:TrackPointExtension>
        </extensions>
      </trkpt>
      <trkpt lat="37.98974993638694286346435546875" lon="-107.74398350156843662261962890625">
        <ele>3933.39990234375</ele>
        <time>2026-08-15T15:08:01.000Z</time>
        <extensions>
          <ns3:TrackPointExtension>
            <ns3:hr>104</ns3:hr>
            <ns3:cad>0</ns3:cad>
          </ns3:TrackPointExtension>
        </extensions>
      </trkpt>
      <trkpt lat="37.98975094221532344818115234375" lon="-107.74398651905357837677001953125">
        <ele>3933.39990234375</ele>
        <time>2026-08-15T15:08:02.000Z</time>
        <extensions>
          <ns3:TrackPointExtension>
            <ns3:hr>98</ns3:hr>
            <ns3:cad>0</ns3:cad>
          </ns3:TrackPointExtension>
        </extensions>
      </trkpt>
      <trkpt lat="37.98974691890180110931396484375" lon="-107.74400764144957065582275390625">
        <ele>3933</ele>
        <time>2026-08-15T15:08:04.000Z</time>
        <extensions>
          <ns3:TrackPointExtension>
            <ns3:hr>97</ns3:hr>
            <ns3:cad>0</ns3:cad>
          </ns3:TrackPointExtension>
        </extensions>
      </trkpt>
      <trkpt lat="37.9897592402994632720947265625" lon="-107.74406128562986850738525390625">
        <ele>3932.39990234375</ele>
        <time>2026-08-15T15:08:10.000Z</time>
        <extensions>
          <ns3:TrackPointExtension>
            <ns3:hr>97</ns3:hr>
            <ns3:cad>0</ns3:cad>
          </ns3:TrackPointExtension>
        </extensions>
      </trkpt>
      <trkpt lat="37.9897679574787616729736328125" lon="-107.74414426647126674652099609375">
        <ele>3932.60009765625</ele>
        <time>2026-08-15T15:08:16.000Z</time>
        <extensions>
          <ns3:TrackPointExtension>
            <ns3:hr>96</ns3:hr>
            <ns3:cad>50</ns3:cad>
          </ns3:TrackPointExtension>
        </extensions>
      </trkpt>
      <trkpt lat="37.98979050479829311370849609375" lon="-107.7441710047423839569091796875">
        <ele>3932.800048828125</ele>
        <time>2026-08-15T15:08:21.000Z</time>
        <extensions>
          <ns3:TrackPointExtension>
            <ns3:hr>93</ns3:hr>
            <ns3:cad>0</ns3:cad>
          </ns3:TrackPointExtension>
        </extensions>
      </trkpt>
      <trkpt lat="37.98978363163769245147705078125" lon="-107.74417544715106487274169921875">
        <ele>3932.800048828125</ele>
        <time>2026-08-15T15:08:22.000Z</time>
        <extensions>
          <ns3:TrackPointExtension>
            <ns3:hr>93</ns3:hr>
            <ns3:cad>0</ns3:cad>
          </ns3:TrackPointExtension>
        </extensions>
      </trkpt>
      <trkpt lat="37.98977910540997982025146484375" lon="-107.74418265558779239654541015625">
        <ele>3932.800048828125</ele>
        <time>2026-08-15T15:08:23.000Z</time>
        <extensions>
          <ns3:TrackPointExtension>
            <ns3:hr>93</ns3:hr>
            <ns3:cad>0</ns3:cad>
          </ns3:TrackPointExtension>
        </extensions>
      </trkpt>
      <trkpt lat="37.98976887948811054229736328125" lon="-107.74420528672635555267333984375">
        <ele>3932.60009765625</ele>
        <time>2026-08-15T15:08:26.000Z</time>
        <extensions>
          <ns3:TrackPointExtension>
            <ns3:hr>96</ns3:hr>
            <ns3:cad>0</ns3:cad>
          </ns3:TrackPointExtension>
        </extensions>
      </trkpt>
      <trkpt lat="37.98976971767842769622802734375" lon="-107.7442655526101589202880859375">
        <ele>3932.39990234375</ele>
        <time>2026-08-15T15:08:30.000Z</time>
        <extensions>
          <ns3:TrackPointExtension>
            <ns3:hr>97</ns3:hr>
            <ns3:cad>0</ns3:cad>
          </ns3:TrackPointExtension>
        </extensions>
      </trkpt>
      <trkpt lat="37.98976887948811054229736328125" lon="-107.74432850070297718048095703125">
        <ele>3932.39990234375</ele>
        <time>2026-08-15T15:08:36.000Z</time>
        <extensions>
          <ns3:TrackPointExtension>
            <ns3:hr>95</ns3:hr>
            <ns3:cad>45</ns3:cad>
          </ns3:TrackPointExtension>
        </extensions>
      </trkpt>
      <trkpt lat="37.989780865609645843505859375" lon="-107.74436940439045429229736328125">
        <ele>3932.60009765625</ele>
        <time>2026-08-15T15:08:42.000Z</time>
        <extensions>
          <ns3:TrackPointExtension>
            <ns3:hr>95</ns3:hr>
            <ns3:cad>0</ns3:cad>
          </ns3:TrackPointExtension>
        </extensions>
      </trkpt>
      <trkpt lat="37.9897877387702465057373046875" lon="-107.74437292478978633880615234375">
        <ele>3932.60009765625</ele>
        <time>2026-08-15T15:08:43.000Z</time>
        <extensions>
          <ns3:TrackPointExtension>
            <ns3:hr>95</ns3:hr>
            <ns3:cad>0</ns3:cad>
          </ns3:TrackPointExtension>
        </extensions>
      </trkpt>
      <trkpt lat="37.98980257473886013031005859375" lon="-107.74436923675239086151123046875">
        <ele>3932.199951171875</ele>
        <time>2026-08-15T15:08:47.000Z</time>
        <extensions>
          <ns3:TrackPointExtension>
            <ns3:hr>92</ns3:hr>
            <ns3:cad>0</ns3:cad>
          </ns3:TrackPointExtension>
        </extensions>
      </trkpt>
      <trkpt lat="37.98979335464537143707275390625" lon="-107.7443777024745941162109375">
        <ele>3932</ele>
        <time>2026-08-15T15:08:50.000Z</time>
        <extensions>
          <ns3:TrackPointExtension>
            <ns3:hr>90</ns3:hr>
            <ns3:cad>0</ns3:cad>
          </ns3:TrackPointExtension>
        </extensions>
      </trkpt>
      <trkpt lat="37.98978933133184909820556640625" lon="-107.744382061064243316650390625">
        <ele>3933.39990234375</ele>
        <time>2026-08-15T15:08:56.000Z</time>
        <extensions>
          <ns3:TrackPointExtension>
            <ns3:hr>88</ns3:hr>
            <ns3:cad>0</ns3:cad>
          </ns3:TrackPointExtension>
        </extensions>
      </trkpt>
      <trkpt lat="37.98978388309478759765625" lon="-107.7444134093821048736572265625">
        <ele>3933.800048828125</ele>
        <time>2026-08-15T15:09:02.000Z</time>
        <extensions>
          <ns3:TrackPointExtension>
            <ns3:hr>85</ns3:hr>
            <ns3:cad>0</ns3:cad>
          </ns3:TrackPointExtension>
        </extensions>
      </trkpt>
      <trkpt lat="37.98978589475154876708984375" lon="-107.7444154210388660430908203125">
        <ele>3934.199951171875</ele>
        <time>2026-08-15T15:09:04.000Z</time>
        <extensions>
          <ns3:TrackPointExtension>
            <ns3:hr>85</ns3:hr>
            <ns3:cad>0</ns3:cad>
          </ns3:TrackPointExtension>
        </extensions>
      </trkpt>
      <trkpt lat="37.98978589475154876708984375" lon="-107.7444154210388660430908203125">
        <ele>3934.60009765625</ele>
        <time>2026-08-15T15:09:10.000Z</time>
        <extensions>
          <ns3:TrackPointExtension>
            <ns3:hr>86</ns3:hr>
            <ns3:cad>0</ns3:cad>
          </ns3:TrackPointExtension>
        </extensions>
      </trkpt>
      <trkpt lat="37.98977675847709178924560546875" lon="-107.74443025700747966766357421875">
        <ele>3934.800048828125</ele>
        <time>2026-08-15T15:09:13.000Z</time>
        <extensions>
          <ns3:TrackPointExtension>
            <ns3:hr>87</ns3:hr>
            <ns3:cad>0</ns3:cad>
          </ns3:TrackPointExtension>
        </extensions>
      </trkpt>
      <trkpt lat="37.9897703044116497039794921875" lon="-107.7444365434348583221435546875">
        <ele>3935</ele>
        <time>2026-08-15T15:09:15.000Z</time>
        <extensions>
          <ns3:TrackPointExtension>
            <ns3:hr>87</ns3:hr>
            <ns3:cad>0</ns3:cad>
          </ns3:TrackPointExtension>
        </extensions>
      </trkpt>
      <trkpt lat="37.989748679101467132568359375" lon="-107.7444259822368621826171875">
        <ele>3936</ele>
        <time>2026-08-15T15:09:21.000Z</time>
        <extensions>
          <ns3:TrackPointExtension>
            <ns3:hr>86</ns3:hr>
            <ns3:cad>0</ns3:cad>
          </ns3:TrackPointExtension>
        </extensions>
      </trkpt>
      <trkpt lat="37.98971347510814666748046875" lon="-107.74443444795906543731689453125">
        <ele>3937</ele>
        <time>2026-08-15T15:09:27.000Z</time>
        <extensions>
          <ns3:TrackPointExtension>
            <ns3:hr>89</ns3:hr>
            <ns3:cad>0</ns3:cad>
          </ns3:TrackPointExtension>
        </extensions>
      </trkpt>
      <trkpt lat="37.9897106252610683441162109375" lon="-107.744437716901302337646484375">
        <ele>3937.39990234375</ele>
        <time>2026-08-15T15:09:28.000Z</time>
        <extensions>
          <ns3:TrackPointExtension>
            <ns3:hr>89</ns3:hr>
            <ns3:cad>0</ns3:cad>
          </ns3:TrackPointExtension>
        </extensions>
      </trkpt>
      <trkpt lat="37.98969360999763011932373046875" lon="-107.744453139603137969970703125">
        <ele>3938.199951171875</ele>
        <time>2026-08-15T15:09:33.000Z</time>
        <extensions>
          <ns3:TrackPointExtension>
            <ns3:hr>92</ns3:hr>
            <ns3:cad>0</ns3:cad>
          </ns3:TrackPointExtension>
        </extensions>
      </trkpt>
      <trkpt lat="37.9896918497979640960693359375" lon="-107.74445079267024993896484375">
        <ele>3938.60009765625</ele>
        <time>2026-08-15T15:09:35.000Z</time>
        <extensions>
          <ns3:TrackPointExtension>
            <ns3:hr>94</ns3:hr>
            <ns3:cad>0</ns3:cad>
          </ns3:TrackPointExtension>
        </extensions>
      </trkpt>
      <trkpt lat="37.9896841384470462799072265625" lon="-107.7444479428231716156005859375">
        <ele>3938.800048828125</ele>
        <time>2026-08-15T15:09:37.000Z</time>
        <extensions>
          <ns3:TrackPointExtension>
            <ns3:hr>97</ns3:hr>
            <ns3:cad>0</ns3:cad>
          </ns3:TrackPointExtension>
        </extensions>
      </trkpt>
      <trkpt lat="37.98966561444103717803955078125" lon="-107.74444970302283763885498046875">
        <ele>3939.199951171875</ele>
        <time>2026-08-15T15:09:40.000Z</time>
        <extensions>
          <ns3:TrackPointExtension>
            <ns3:hr>97</ns3:hr>
            <ns3:cad>0</ns3:cad>
          </ns3:TrackPointExtension>
        </extensions>
      </trkpt>
      <trkpt lat="37.9896680451929569244384765625" lon="-107.744447104632854461669921875">
        <ele>3939.39990234375</ele>
        <time>2026-08-15T15:09:41.000Z</time>
        <extensions>
          <ns3:TrackPointExtension>
            <ns3:hr>98</ns3:hr>
            <ns3:cad>0</ns3:cad>
          </ns3:TrackPointExtension>
        </extensions>
      </trkpt>
      <trkpt lat="37.9896605014801025390625" lon="-107.74445137940347194671630859375">
        <ele>3940</ele>
        <time>2026-08-15T15:09:45.000Z</time>
        <extensions>
          <ns3:TrackPointExtension>
            <ns3:hr>95</ns3:hr>
            <ns3:cad>0</ns3:cad>
          </ns3:TrackPointExtension>
        </extensions>
      </trkpt>
      <trkpt lat="37.9896605014801025390625" lon="-107.74445137940347194671630859375">
        <ele>3940.199951171875</ele>
        <time>2026-08-15T15:09:46.000Z</time>
        <extensions>
          <ns3:TrackPointExtension>
            <ns3:hr>95</ns3:hr>
            <ns3:cad>0</ns3:cad>
          </ns3:TrackPointExtension>
        </extensions>
      </trkpt>
      <trkpt lat="37.9896605014801025390625" lon="-107.74445137940347194671630859375">
        <ele>3940.39990234375</ele>
        <time>2026-08-15T15:09:47.000Z</time>
        <extensions>
          <ns3:TrackPointExtension>
            <ns3:hr>94</ns3:hr>
            <ns3:cad>0</ns3:cad>
          </ns3:TrackPointExtension>
        </extensions>
      </trkpt>
      <trkpt lat="37.9896605014801025390625" lon="-107.74445137940347194671630859375">
        <ele>3941.199951171875</ele>
        <time>2026-08-15T15:09:53.000Z</time>
        <extensions>
          <ns3:TrackPointExtension>
            <ns3:hr>96</ns3:hr>
            <ns3:cad>0</ns3:cad>
          </ns3:TrackPointExtension>
        </extensions>
      </trkpt>
      <trkpt lat="37.9896605014801025390625" lon="-107.74445137940347194671630859375">
        <ele>3941.199951171875</ele>
        <time>2026-08-15T15:09:54.000Z</time>
        <extensions>
          <ns3:TrackPointExtension>
            <ns3:hr>97</ns3:hr>
            <ns3:cad>0</ns3:cad>
          </ns3:TrackPointExtension>
        </extensions>
      </trkpt>
      <trkpt lat="37.98965287394821643829345703125" lon="-107.74446420371532440185546875">
        <ele>3941.39990234375</ele>
        <time>2026-08-15T15:09:55.000Z</time>
        <extensions>
          <ns3:TrackPointExtension>
            <ns3:hr>99</ns3:hr>
            <ns3:cad>0</ns3:cad>
          </ns3:TrackPointExtension>
        </extensions>
      </trkpt>
      <trkpt lat="37.9896536283195018768310546875" lon="-107.7444747649133205413818359375">
        <ele>3942.199951171875</ele>
        <time>2026-08-15T15:10:00.000Z</time>
        <extensions>
          <ns3:TrackPointExtension>
            <ns3:hr>101</ns3:hr>
            <ns3:cad>0</ns3:cad>
          </ns3:TrackPointExtension>
        </extensions>
      </trkpt>
      <trkpt lat="37.9896536283195018768310546875" lon="-107.7444747649133205413818359375">
        <ele>3942.199951171875</ele>
        <time>2026-08-15T15:10:04.000Z</time>
        <extensions>
          <ns3:TrackPointExtension>
            <ns3:hr>106</ns3:hr>
            <ns3:cad>0</ns3:cad>
          </ns3:TrackPointExtension>
        </extensions>
      </trkpt>
      <trkpt lat="37.98965622670948505401611328125" lon="-107.7444774471223354339599609375">
        <ele>3942.39990234375</ele>
        <time>2026-08-15T15:10:05.000Z</time>
        <extensions>
          <ns3:TrackPointExtension>
            <ns3:hr>111</ns3:hr>
            <ns3:cad>0</ns3:cad>
          </ns3:TrackPointExtension>
        </extensions>
      </trkpt>
      <trkpt lat="37.9896576516330242156982421875" lon="-107.74448222480714321136474609375">
        <ele>3942.60009765625</ele>
        <time>2026-08-15T15:10:06.000Z</time>
        <extensions>
          <ns3:TrackPointExtension>
            <ns3:hr>113</ns3:hr>
            <ns3:cad>0</ns3:cad>
          </ns3:TrackPointExtension>
        </extensions>
      </trkpt>
      <trkpt lat="37.9896536283195018768310546875" lon="-107.7444747649133205413818359375">
        <ele>3943.199951171875</ele>
        <time>2026-08-15T15:10:08.000Z</time>
        <extensions>
          <ns3:TrackPointExtension>
            <ns3:hr>114</ns3:hr>
            <ns3:cad>0</ns3:cad>
          </ns3:TrackPointExtension>
        </extensions>
      </trkpt>
      <trkpt lat="37.9896536283195018768310546875" lon="-107.7444747649133205413818359375">
        <ele>3943.800048828125</ele>
        <time>2026-08-15T15:10:10.000Z</time>
        <extensions>
          <ns3:TrackPointExtension>
            <ns3:hr>115</ns3:hr>
            <ns3:cad>0</ns3:cad>
          </ns3:TrackPointExtension>
        </extensions>
      </trkpt>
      <trkpt lat="37.9896593280136585235595703125" lon="-107.74449882097542285919189453125">
        <ele>3944.199951171875</ele>
        <time>2026-08-15T15:10:16.000Z</time>
        <extensions>
          <ns3:TrackPointExtension>
            <ns3:hr>115</ns3:hr>
            <ns3:cad>0</ns3:cad>
          </ns3:TrackPointExtension>
        </extensions>
      </trkpt>
      <trkpt lat="37.98965387977659702301025390625" lon="-107.74451290257275104522705078125">
        <ele>3944.800048828125</ele>
        <time>2026-08-15T15:10:22.000Z</time>
        <extensions>
          <ns3:TrackPointExtension>
            <ns3:hr>113</ns3:hr>
            <ns3:cad>0</ns3:cad>
          </ns3:TrackPointExtension>
        </extensions>
      </trkpt>
      <trkpt lat="37.9896516166627407073974609375" lon="-107.7445129863917827606201171875">
        <ele>3945</ele>
        <time>2026-08-15T15:10:23.000Z</time>
        <extensions>
          <ns3:TrackPointExtension>
            <ns3:hr>112</ns3:hr>
            <ns3:cad>0</ns3:cad>
          </ns3:TrackPointExtension>
        </extensions>
      </trkpt>
      <trkpt lat="37.9896593280136585235595703125" lon="-107.74449882097542285919189453125">
        <ele>3945.199951171875</ele>
        <time>2026-08-15T15:10:24.000Z</time>
        <extensions>
          <ns3:TrackPointExtension>
            <ns3:hr>111</ns3:hr>
            <ns3:cad>0</ns3:cad>
          </ns3:TrackPointExtension>
        </extensions>
      </trkpt>
      <trkpt lat="37.9896593280136585235595703125" lon="-107.74449882097542285919189453125">
        <ele>3946</ele>
        <time>2026-08-15T15:10:26.000Z</time>
        <extensions>
          <ns3:TrackPointExtension>
            <ns3:hr>110</ns3:hr>
            <ns3:cad>0</ns3:cad>
          </ns3:TrackPointExtension>
        </extensions>
      </trkpt>
      <trkpt lat="37.98965304158627986907958984375" lon="-107.7445089630782604217529296875">
        <ele>3946.800048828125</ele>
        <time>2026-08-15T15:10:29.000Z</time>
        <extensions>
          <ns3:TrackPointExtension>
            <ns3:hr>110</ns3:hr>
            <ns3:cad>0</ns3:cad>
          </ns3:TrackPointExtension>
        </extensions>
      </trkpt>
      <trkpt lat="37.98964935354888439178466796875" lon="-107.7445136569440364837646484375">
        <ele>3947</ele>
        <time>2026-08-15T15:10:32.000Z</time>
        <extensions>
          <ns3:TrackPointExtension>
            <ns3:hr>110</ns3:hr>
            <ns3:cad>0</ns3:cad>
          </ns3:TrackPointExtension>
        </extensions>
      </trkpt>
      <trkpt lat="37.98964180983603000640869140625" lon="-107.74452312849462032318115234375">
        <ele>3947.199951171875</ele>
        <time>2026-08-15T15:10:35.000Z</time>
        <extensions>
          <ns3:TrackPointExtension>
            <ns3:hr>107</ns3:hr>
            <ns3:cad>0</ns3:cad>
          </ns3:TrackPointExtension>
        </extensions>
      </trkpt>
      <trkpt lat="37.9896377027034759521484375" lon="-107.744526565074920654296875">
        <ele>3947.39990234375</ele>
        <time>2026-08-15T15:10:36.000Z</time>
        <extensions>
          <ns3:TrackPointExtension>
            <ns3:hr>102</ns3:hr>
            <ns3:cad>0</ns3:cad>
          </ns3:TrackPointExtension>
        </extensions>
      </trkpt>
      <trkpt lat="37.98963426612317562103271484375" lon="-107.74453083984553813934326171875">
        <ele>3947.39990234375</ele>
        <time>2026-08-15T15:10:37.000Z</time>
        <extensions>
          <ns3:TrackPointExtension>
            <ns3:hr>99</ns3:hr>
            <ns3:cad>0</ns3:cad>
          </ns3:TrackPointExtension>
        </extensions>
      </trkpt>
      <trkpt lat="37.98963376320898532867431640625" lon="-107.74452857673168182373046875">
        <ele>3948</ele>
        <time>2026-08-15T15:10:39.000Z</time>
        <extensions>
          <ns3:TrackPointExtension>
            <ns3:hr>98</ns3:hr>
            <ns3:cad>0</ns3:cad>
          </ns3:TrackPointExtension>
        </extensions>
      </trkpt>
      <trkpt lat="37.9896164126694202423095703125" lon="-107.74453586898744106292724609375">
        <ele>3948.39990234375</ele>
        <time>2026-08-15T15:10:44.000Z</time>
        <extensions>
          <ns3:TrackPointExtension>
            <ns3:hr>98</ns3:hr>
            <ns3:cad>0</ns3:cad>
          </ns3:TrackPointExtension>
        </extensions>
      </trkpt>
      <trkpt lat="37.98961314372718334197998046875" lon="-107.744537293910980224609375">
        <ele>3949.199951171875</ele>
        <time>2026-08-15T15:10:48.000Z</time>
        <extensions>
          <ns3:TrackPointExtension>
            <ns3:hr>98</ns3:hr>
            <ns3:cad>0</ns3:cad>
          </ns3:TrackPointExtension>
        </extensions>
      </trkpt>
      <trkpt lat="37.98961146734654903411865234375" lon="-107.7445347793400287628173828125">
        <ele>3949.39990234375</ele>
        <time>2026-08-15T15:10:49.000Z</time>
        <extensions>
          <ns3:TrackPointExtension>
            <ns3:hr>98</ns3:hr>
            <ns3:cad>0</ns3:cad>
          </ns3:TrackPointExtension>
        </extensions>
      </trkpt>
      <trkpt lat="37.98960526473820209503173828125" lon="-107.7445394732058048248291015625">
        <ele>3949.39990234375</ele>
        <time>2026-08-15T15:10:51.000Z</time>
        <extensions>
          <ns3:TrackPointExtension>
            <ns3:hr>101</ns3:hr>
            <ns3:cad>0</ns3:cad>
          </ns3:TrackPointExtension>
        </extensions>
      </trkpt>
      <trkpt lat="37.98960710875689983367919921875" lon="-107.7445478551089763641357421875">
        <ele>3950</ele>
        <time>2026-08-15T15:10:55.000Z</time>
        <extensions>
          <ns3:TrackPointExtension>
            <ns3:hr>101</ns3:hr>
            <ns3:cad>0</ns3:cad>
          </ns3:TrackPointExtension>
        </extensions>
      </trkpt>
      <trkpt lat="37.98960224725306034088134765625" lon="-107.7445656247437000274658203125">
        <ele>3950.39990234375</ele>
        <time>2026-08-15T15:10:57.000Z</time>
        <extensions>
          <ns3:TrackPointExtension>
            <ns3:hr>101</ns3:hr>
            <ns3:cad>0</ns3:cad>
          </ns3:TrackPointExtension>
        </extensions>
      </trkpt>
      <trkpt lat="37.989604510366916656494140625" lon="-107.74456788785755634307861328125">
        <ele>3951.39990234375</ele>
        <time>2026-08-15T15:11:01.000Z</time>
        <extensions>
          <ns3:TrackPointExtension>
            <ns3:hr>99</ns3:hr>
            <ns3:cad>0</ns3:cad>
          </ns3:TrackPointExtension>
        </extensions>
      </trkpt>
      <trkpt lat="37.98958397470414638519287109375" lon="-107.74459487758576869964599609375">
        <ele>3951.60009765625</ele>
        <time>2026-08-15T15:11:06.000Z</time>
        <extensions>
          <ns3:TrackPointExtension>
            <ns3:hr>102</ns3:hr>
            <ns3:cad>0</ns3:cad>
          </ns3:TrackPointExtension>
        </extensions>
      </trkpt>
      <trkpt lat="37.989581711590290069580078125" lon="-107.74459269829094409942626953125">
        <ele>3951.800048828125</ele>
        <time>2026-08-15T15:11:07.000Z</time>
        <extensions>
          <ns3:TrackPointExtension>
            <ns3:hr>103</ns3:hr>
            <ns3:cad>0</ns3:cad>
          </ns3:TrackPointExtension>
        </extensions>
      </trkpt>
      <trkpt lat="37.989566624164581298828125" lon="-107.74459135718643665313720703125">
        <ele>3952.60009765625</ele>
        <time>2026-08-15T15:11:10.000Z</time>
        <extensions>
          <ns3:TrackPointExtension>
            <ns3:hr>105</ns3:hr>
            <ns3:cad>0</ns3:cad>
          </ns3:TrackPointExtension>
        </extensions>
      </trkpt>
      <trkpt lat="37.9895527102053165435791015625" lon="-107.7446028403937816619873046875">
        <ele>3953.199951171875</ele>
        <time>2026-08-15T15:11:13.000Z</time>
        <extensions>
          <ns3:TrackPointExtension>
            <ns3:hr>104</ns3:hr>
            <ns3:cad>0</ns3:cad>
          </ns3:TrackPointExtension>
        </extensions>
      </trkpt>
      <trkpt lat="37.98954441212117671966552734375" lon="-107.7446048520505428314208984375">
        <ele>3953.800048828125</ele>
        <time>2026-08-15T15:11:19.000Z</time>
        <extensions>
          <ns3:TrackPointExtension>
            <ns3:hr>102</ns3:hr>
            <ns3:cad>0</ns3:cad>
          </ns3:TrackPointExtension>
        </extensions>
      </trkpt>
      <trkpt lat="37.989543490111827850341796875" lon="-107.74460745044052600860595703125">
        <ele>3954</ele>
        <time>2026-08-15T15:11:20.000Z</time>
        <extensions>
          <ns3:TrackPointExtension>
            <ns3:hr>102</ns3:hr>
            <ns3:cad>0</ns3:cad>
          </ns3:TrackPointExtension>
        </extensions>
      </trkpt>
      <trkpt lat="37.98954726196825504302978515625" lon="-107.7446048520505428314208984375">
        <ele>3954.60009765625</ele>
        <time>2026-08-15T15:11:26.000Z</time>
        <extensions>
          <ns3:TrackPointExtension>
            <ns3:hr>102</ns3:hr>
            <ns3:cad>0</ns3:cad>
          </ns3:TrackPointExtension>
        </extensions>
      </trkpt>
      <trkpt lat="37.98953938297927379608154296875" lon="-107.74461331777274608612060546875">
        <ele>3954.39990234375</ele>
        <time>2026-08-15T15:11:27.000Z</time>
        <extensions>
          <ns3:TrackPointExtension>
            <ns3:hr>102</ns3:hr>
            <ns3:cad>0</ns3:cad>
          </ns3:TrackPointExtension>
        </extensions>
      </trkpt>
      <trkpt lat="37.98952848650515079498291015625" lon="-107.74462019093334674835205078125">
        <ele>3954.800048828125</ele>
        <time>2026-08-15T15:11:30.000Z</time>
        <extensions>
          <ns3:TrackPointExtension>
            <ns3:hr>102</ns3:hr>
            <ns3:cad>0</ns3:cad>
          </ns3:TrackPointExtension>
        </extensions>
      </trkpt>
      <trkpt lat="37.98950694501399993896484375" lon="-107.74464164860546588897705078125">
        <ele>3956</ele>
        <time>2026-08-15T15:11:34.000Z</time>
        <extensions>
          <ns3:TrackPointExtension>
            <ns3:hr>104</ns3:hr>
            <ns3:cad>43</ns3:cad>
          </ns3:TrackPointExtension>
        </extensions>
      </trkpt>
      <trkpt lat="37.989499904215335845947265625" lon="-107.7446484379470348358154296875">
        <ele>3956</ele>
        <time>2026-08-15T15:11:38.000Z</time>
        <extensions>
          <ns3:TrackPointExtension>
            <ns3:hr>107</ns3:hr>
            <ns3:cad>0</ns3:cad>
          </ns3:TrackPointExtension>
        </extensions>
      </trkpt>
      <trkpt lat="37.9894853197038173675537109375" lon="-107.744649946689605712890625">
        <ele>3956.800048828125</ele>
        <time>2026-08-15T15:11:42.000Z</time>
        <extensions>
          <ns3:TrackPointExtension>
            <ns3:hr>107</ns3:hr>
            <ns3:cad>0</ns3:cad>
          </ns3:TrackPointExtension>
        </extensions>
      </trkpt>
      <trkpt lat="37.98948339186608791351318359375" lon="-107.74465271271765232086181640625">
        <ele>3957</ele>
        <time>2026-08-15T15:11:43.000Z</time>
        <extensions>
          <ns3:TrackPointExtension>
            <ns3:hr>108</ns3:hr>
            <ns3:cad>0</ns3:cad>
          </ns3:TrackPointExtension>
        </extensions>
      </trkpt>
      <trkpt lat="37.989461012184619903564453125" lon="-107.7446673810482025146484375">
        <ele>3957.60009765625</ele>
        <time>2026-08-15T15:11:49.000Z</time>
        <extensions>
          <ns3:TrackPointExtension>
            <ns3:hr>105</ns3:hr>
            <ns3:cad>0</ns3:cad>
          </ns3:TrackPointExtension>
        </extensions>
      </trkpt>
      <trkpt lat="37.98945673741400241851806640625" lon="-107.744666039943695068359375">
        <ele>3958</ele>
        <time>2026-08-15T15:11:52.000Z</time>
        <extensions>
          <ns3:TrackPointExtension>
            <ns3:hr>104</ns3:hr>
            <ns3:cad>0</ns3:cad>
          </ns3:TrackPointExtension>
        </extensions>
      </trkpt>
      <trkpt lat="37.9894564859569072723388671875" lon="-107.74466511793434619903564453125">
        <ele>3958.60009765625</ele>
        <time>2026-08-15T15:11:56.000Z</time>
        <extensions>
          <ns3:TrackPointExtension>
            <ns3:hr>104</ns3:hr>
            <ns3:cad>0</ns3:cad>
          </ns3:TrackPointExtension>
        </extensions>
      </trkpt>
      <trkpt lat="37.9894397221505641937255859375" lon="-107.7446749247610569000244140625">
        <ele>3958.800048828125</ele>
        <time>2026-08-15T15:12:01.000Z</time>
        <extensions>
          <ns3:TrackPointExtension>
            <ns3:hr>107</ns3:hr>
            <ns3:cad>55</ns3:cad>
          </ns3:TrackPointExtension>
        </extensions>
      </trkpt>
      <trkpt lat="37.989427149295806884765625" lon="-107.74469277821481227874755859375">
        <ele>3958.800048828125</ele>
        <time>2026-08-15T15:12:04.000Z</time>
        <extensions>
          <ns3:TrackPointExtension>
            <ns3:hr>108</ns3:hr>
            <ns3:cad>0</ns3:cad>
          </ns3:TrackPointExtension>
        </extensions>
      </trkpt>
      <trkpt lat="37.9894276522099971771240234375" lon="-107.74470199830830097198486328125">
        <ele>3959.199951171875</ele>
        <time>2026-08-15T15:12:05.000Z</time>
        <extensions>
          <ns3:TrackPointExtension>
            <ns3:hr>108</ns3:hr>
            <ns3:cad>0</ns3:cad>
          </ns3:TrackPointExtension>
        </extensions>
      </trkpt>
      <trkpt lat="37.9894179292023181915283203125" lon="-107.7447144873440265655517578125">
        <ele>3959.39990234375</ele>
        <time>2026-08-15T15:12:10.000Z</time>
        <extensions>
          <ns3:TrackPointExtension>
            <ns3:hr>108</ns3:hr>
            <ns3:cad>0</ns3:cad>
          </ns3:TrackPointExtension>
        </extensions>
      </trkpt>
      <trkpt lat="37.98941633664071559906005859375" lon="-107.74472437798976898193359375">
        <ele>3959.800048828125</ele>
        <time>2026-08-15T15:12:16.000Z</time>
        <extensions>
          <ns3:TrackPointExtension>
            <ns3:hr>110</ns3:hr>
            <ns3:cad>0</ns3:cad>
          </ns3:TrackPointExtension>
        </extensions>
      </trkpt>
      <trkpt lat="37.98941633664071559906005859375" lon="-107.7447278983891010284423828125">
        <ele>3960.199951171875</ele>
        <time>2026-08-15T15:12:19.000Z</time>
        <extensions>
          <ns3:TrackPointExtension>
            <ns3:hr>109</ns3:hr>
            <ns3:cad>0</ns3:cad>
          </ns3:TrackPointExtension>
        </extensions>
      </trkpt>
      <trkpt lat="37.9894142411649227142333984375" lon="-107.74472546763718128204345703125">
        <ele>3960.39990234375</ele>
        <time>2026-08-15T15:12:21.000Z</time>
        <extensions>
          <ns3:TrackPointExtension>
            <ns3:hr>109</ns3:hr>
            <ns3:cad>0</ns3:cad>
          </ns3:TrackPointExtension>
        </extensions>
      </trkpt>
      <trkpt lat="37.9894179292023181915283203125" lon="-107.7447144873440265655517578125">
        <ele>3960.199951171875</ele>
        <time>2026-08-15T15:12:27.000Z</time>
        <extensions>
          <ns3:TrackPointExtension>
            <ns3:hr>109</ns3:hr>
            <ns3:cad>0</ns3:cad>
          </ns3:TrackPointExtension>
        </extensions>
      </trkpt>
      <trkpt lat="37.9894179292023181915283203125" lon="-107.7447144873440265655517578125">
        <ele>3960</ele>
        <time>2026-08-15T15:12:29.000Z</time>
        <extensions>
          <ns3:TrackPointExtension>
            <ns3:hr>106</ns3:hr>
            <ns3:cad>0</ns3:cad>
          </ns3:TrackPointExtension>
        </extensions>
      </trkpt>
      <trkpt lat="37.98940778709948062896728515625" lon="-107.74471775628626346588134765625">
        <ele>3959.39990234375</ele>
        <time>2026-08-15T15:12:33.000Z</time>
        <extensions>
          <ns3:TrackPointExtension>
            <ns3:hr>106</ns3:hr>
            <ns3:cad>0</ns3:cad>
          </ns3:TrackPointExtension>
        </extensions>
      </trkpt>
      <trkpt lat="37.98939429223537445068359375" lon="-107.744738124310970306396484375">
        <ele>3960.199951171875</ele>
        <time>2026-08-15T15:12:39.000Z</time>
        <extensions>
          <ns3:TrackPointExtension>
            <ns3:hr>104</ns3:hr>
            <ns3:cad>0</ns3:cad>
          </ns3:TrackPointExtension>
        </extensions>
      </trkpt>
      <trkpt lat="37.98938264138996601104736328125" lon="-107.7447413094341754913330078125">
        <ele>3960.60009765625</ele>
        <time>2026-08-15T15:12:41.000Z</time>
        <extensions>
          <ns3:TrackPointExtension>
            <ns3:hr>104</ns3:hr>
            <ns3:cad>0</ns3:cad>
          </ns3:TrackPointExtension>
        </extensions>
      </trkpt>
      <trkpt lat="37.98936135135591030120849609375" lon="-107.74478347040712833404541015625">
        <ele>3961.39990234375</ele>
        <time>2026-08-15T15:12:46.000Z</time>
        <extensions>
          <ns3:TrackPointExtension>
            <ns3:hr>103</ns3:hr>
            <ns3:cad>0</ns3:cad>
          </ns3:TrackPointExtension>
        </extensions>
      </trkpt>
      <trkpt lat="37.98935481347143650054931640625" lon="-107.74479285813868045806884765625">
        <ele>3961.39990234375</ele>
        <time>2026-08-15T15:12:47.000Z</time>
        <extensions>
          <ns3:TrackPointExtension>
            <ns3:hr>103</ns3:hr>
            <ns3:cad>0</ns3:cad>
          </ns3:TrackPointExtension>
        </extensions>
      </trkpt>
      <trkpt lat="37.9893386363983154296875" lon="-107.74481020867824554443359375">
        <ele>3962.39990234375</ele>
        <time>2026-08-15T15:12:51.000Z</time>
        <extensions>
          <ns3:TrackPointExtension>
            <ns3:hr>100</ns3:hr>
            <ns3:cad>0</ns3:cad>
          </ns3:TrackPointExtension>
        </extensions>
      </trkpt>
      <trkpt lat="37.98933151178061962127685546875" lon="-107.744823954999446868896484375">
        <ele>3963</ele>
        <time>2026-08-15T15:12:53.000Z</time>
        <extensions>
          <ns3:TrackPointExtension>
            <ns3:hr>101</ns3:hr>
            <ns3:cad>0</ns3:cad>
          </ns3:TrackPointExtension>
        </extensions>
      </trkpt>
      <trkpt lat="37.9893257282674312591552734375" lon="-107.74483510293066501617431640625">
        <ele>3963.39990234375</ele>
        <time>2026-08-15T15:12:57.000Z</time>
        <extensions>
          <ns3:TrackPointExtension>
            <ns3:hr>102</ns3:hr>
            <ns3:cad>0</ns3:cad>
          </ns3:TrackPointExtension>
        </extensions>
      </trkpt>
      <trkpt lat="37.9893247224390506744384765625" lon="-107.74483577348291873931884765625">
        <ele>3963.60009765625</ele>
        <time>2026-08-15T15:12:58.000Z</time>
        <extensions>
          <ns3:TrackPointExtension>
            <ns3:hr>102</ns3:hr>
            <ns3:cad>0</ns3:cad>
          </ns3:TrackPointExtension>
        </extensions>
      </trkpt>
      <trkpt lat="37.98930251039564609527587890625" lon="-107.7448509447276592254638671875">
        <ele>3964.800048828125</ele>
        <time>2026-08-15T15:13:03.000Z</time>
        <extensions>
          <ns3:TrackPointExtension>
            <ns3:hr>101</ns3:hr>
            <ns3:cad>0</ns3:cad>
          </ns3:TrackPointExtension>
        </extensions>
      </trkpt>
      <trkpt lat="37.9892888478934764862060546875" lon="-107.74485505186021327972412109375">
        <ele>3965.199951171875</ele>
        <time>2026-08-15T15:13:05.000Z</time>
        <extensions>
          <ns3:TrackPointExtension>
            <ns3:hr>99</ns3:hr>
            <ns3:cad>0</ns3:cad>
          </ns3:TrackPointExtension>
        </extensions>
      </trkpt>
      <trkpt lat="37.989284992218017578125" lon="-107.7448663674294948577880859375">
        <ele>3965.800048828125</ele>
        <time>2026-08-15T15:13:09.000Z</time>
        <extensions>
          <ns3:TrackPointExtension>
            <ns3:hr>97</ns3:hr>
            <ns3:cad>0</ns3:cad>
          </ns3:TrackPointExtension>
        </extensions>
      </trkpt>
      <trkpt lat="37.98928440548479557037353515625" lon="-107.7448663674294948577880859375">
        <ele>3966.199951171875</ele>
        <time>2026-08-15T15:13:11.000Z</time>
        <extensions>
          <ns3:TrackPointExtension>
            <ns3:hr>97</ns3:hr>
            <ns3:cad>0</ns3:cad>
          </ns3:TrackPointExtension>
        </extensions>
      </trkpt>
      <trkpt lat="37.98927786760032176971435546875" lon="-107.74489738047122955322265625">
        <ele>3966.800048828125</ele>
        <time>2026-08-15T15:13:17.000Z</time>
        <extensions>
          <ns3:TrackPointExtension>
            <ns3:hr>98</ns3:hr>
            <ns3:cad>0</ns3:cad>
          </ns3:TrackPointExtension>
        </extensions>
      </trkpt>
      <trkpt lat="37.9892756044864654541015625" lon="-107.74489746429026126861572265625">
        <ele>3967</ele>
        <time>2026-08-15T15:13:18.000Z</time>
        <extensions>
          <ns3:TrackPointExtension>
            <ns3:hr>99</ns3:hr>
            <ns3:cad>0</ns3:cad>
          </ns3:TrackPointExtension>
        </extensions>
      </trkpt>
      <trkpt lat="37.9892724193632602691650390625" lon="-107.7448975481092929840087890625">
        <ele>3968</ele>
        <time>2026-08-15T15:13:22.000Z</time>
        <extensions>
          <ns3:TrackPointExtension>
            <ns3:hr>100</ns3:hr>
            <ns3:cad>0</ns3:cad>
          </ns3:TrackPointExtension>
        </extensions>
      </trkpt>
      <trkpt lat="37.9892653785645961761474609375" lon="-107.7448985539376735687255859375">
        <ele>3968.60009765625</ele>
        <time>2026-08-15T15:13:25.000Z</time>
        <extensions>
          <ns3:TrackPointExtension>
            <ns3:hr>101</ns3:hr>
            <ns3:cad>0</ns3:cad>
          </ns3:TrackPointExtension>
        </extensions>
      </trkpt>
      <trkpt lat="37.98925590701401233673095703125" lon="-107.74489696137607097625732421875">
        <ele>3969</ele>
        <time>2026-08-15T15:13:29.000Z</time>
        <extensions>
          <ns3:TrackPointExtension>
            <ns3:hr>100</ns3:hr>
            <ns3:cad>0</ns3:cad>
          </ns3:TrackPointExtension>
        </extensions>
      </trkpt>
      <trkpt lat="37.9892546497285366058349609375" lon="-107.74489872157573699951171875">
        <ele>3969.39990234375</ele>
        <time>2026-08-15T15:13:31.000Z</time>
        <extensions>
          <ns3:TrackPointExtension>
            <ns3:hr>100</ns3:hr>
            <ns3:cad>0</ns3:cad>
          </ns3:TrackPointExtension>
        </extensions>
      </trkpt>
      <trkpt lat="37.98923998139798641204833984375" lon="-107.74490274488925933837890625">
        <ele>3970</ele>
        <time>2026-08-15T15:13:34.000Z</time>
        <extensions>
          <ns3:TrackPointExtension>
            <ns3:hr>102</ns3:hr>
            <ns3:cad>0</ns3:cad>
          </ns3:TrackPointExtension>
        </extensions>
      </trkpt>
      <trkpt lat="37.989231683313846588134765625" lon="-107.74490467272698879241943359375">
        <ele>3970.60009765625</ele>
        <time>2026-08-15T15:13:36.000Z</time>
        <extensions>
          <ns3:TrackPointExtension>
            <ns3:hr>99</ns3:hr>
            <ns3:cad>0</ns3:cad>
          </ns3:TrackPointExtension>
        </extensions>
      </trkpt>
      <trkpt lat="37.98923159949481487274169921875" lon="-107.744904421269893646240234375">
        <ele>3971.199951171875</ele>
        <time>2026-08-15T15:13:38.000Z</time>
        <extensions>
          <ns3:TrackPointExtension>
            <ns3:hr>97</ns3:hr>
            <ns3:cad>0</ns3:cad>
          </ns3:TrackPointExtension>
        </extensions>
      </trkpt>
      <trkpt lat="37.98923159949481487274169921875" lon="-107.744904421269893646240234375">
        <ele>3971.39990234375</ele>
        <time>2026-08-15T15:13:39.000Z</time>
        <extensions>
          <ns3:TrackPointExtension>
            <ns3:hr>97</ns3:hr>
            <ns3:cad>0</ns3:cad>
          </ns3:TrackPointExtension>
        </extensions>
      </trkpt>
      <trkpt lat="37.98923159949481487274169921875" lon="-107.744904421269893646240234375">
        <ele>3971.800048828125</ele>
        <time>2026-08-15T15:13:44.000Z</time>
        <extensions>
          <ns3:TrackPointExtension>
            <ns3:hr>100</ns3:hr>
            <ns3:cad>0</ns3:cad>
          </ns3:TrackPointExtension>
        </extensions>
      </trkpt>
      <trkpt lat="37.98923159949481487274169921875" lon="-107.744904421269893646240234375">
        <ele>3971.60009765625</ele>
        <time>2026-08-15T15:13:45.000Z</time>
        <extensions>
          <ns3:TrackPointExtension>
            <ns3:hr>104</ns3:hr>
            <ns3:cad>0</ns3:cad>
          </ns3:TrackPointExtension>
        </extensions>
      </trkpt>
      <trkpt lat="37.98923159949481487274169921875" lon="-107.744904421269893646240234375">
        <ele>3971.60009765625</ele>
        <time>2026-08-15T15:13:47.000Z</time>
        <extensions>
          <ns3:TrackPointExtension>
            <ns3:hr>104</ns3:hr>
            <ns3:cad>0</ns3:cad>
          </ns3:TrackPointExtension>
        </extensions>
      </trkpt>
      <trkpt lat="37.989216260612010955810546875" lon="-107.7449126355350017547607421875">
        <ele>3972.199951171875</ele>
        <time>2026-08-15T15:13:51.000Z</time>
        <extensions>
          <ns3:TrackPointExtension>
            <ns3:hr>105</ns3:hr>
            <ns3:cad>0</ns3:cad>
          </ns3:TrackPointExtension>
        </extensions>
      </trkpt>
      <trkpt lat="37.9891978204250335693359375" lon="-107.7449310757219791412353515625">
        <ele>3973.199951171875</ele>
        <time>2026-08-15T15:13:54.000Z</time>
        <extensions>
          <ns3:TrackPointExtension>
            <ns3:hr>105</ns3:hr>
            <ns3:cad>0</ns3:cad>
          </ns3:TrackPointExtension>
        </extensions>
      </trkpt>
      <trkpt lat="37.989195473492145538330078125" lon="-107.74494574405252933502197265625">
        <ele>3973.800048828125</ele>
        <time>2026-08-15T15:13:57.000Z</time>
        <extensions>
          <ns3:TrackPointExtension>
            <ns3:hr>101</ns3:hr>
            <ns3:cad>0</ns3:cad>
          </ns3:TrackPointExtension>
        </extensions>
      </trkpt>
      <trkpt lat="37.98919622786343097686767578125" lon="-107.74494507350027561187744140625">
        <ele>3974</ele>
        <time>2026-08-15T15:13:58.000Z</time>
        <extensions>
          <ns3:TrackPointExtension>
            <ns3:hr>97</ns3:hr>
            <ns3:cad>0</ns3:cad>
          </ns3:TrackPointExtension>
        </extensions>
      </trkpt>
      <trkpt lat="37.98919622786343097686767578125" lon="-107.74494507350027561187744140625">
        <ele>3974.39990234375</ele>
        <time>2026-08-15T15:14:00.000Z</time>
        <extensions>
          <ns3:TrackPointExtension>
            <ns3:hr>94</ns3:hr>
            <ns3:cad>0</ns3:cad>
          </ns3:TrackPointExtension>
        </extensions>
      </trkpt>
      <trkpt lat="37.98919823952019214630126953125" lon="-107.74496049620211124420166015625">
        <ele>3975</ele>
        <time>2026-08-15T15:14:06.000Z</time>
        <extensions>
          <ns3:TrackPointExtension>
            <ns3:hr>93</ns3:hr>
            <ns3:cad>0</ns3:cad>
          </ns3:TrackPointExtension>
        </extensions>
      </trkpt>
      <trkpt lat="37.989194802939891815185546875" lon="-107.74495848454535007476806640625">
        <ele>3975.60009765625</ele>
        <time>2026-08-15T15:14:08.000Z</time>
        <extensions>
          <ns3:TrackPointExtension>
            <ns3:hr>94</ns3:hr>
            <ns3:cad>0</ns3:cad>
          </ns3:TrackPointExtension>
        </extensions>
      </trkpt>
      <trkpt lat="37.9891892708837985992431640625" lon="-107.7449699677526950836181640625">
        <ele>3976.39990234375</ele>
        <time>2026-08-15T15:14:12.000Z</time>
        <extensions>
          <ns3:TrackPointExtension>
            <ns3:hr>97</ns3:hr>
            <ns3:cad>0</ns3:cad>
          </ns3:TrackPointExtension>
        </extensions>
      </trkpt>
      <trkpt lat="37.98918784596025943756103515625" lon="-107.74497558362782001495361328125">
        <ele>3976.60009765625</ele>
        <time>2026-08-15T15:14:13.000Z</time>
        <extensions>
          <ns3:TrackPointExtension>
            <ns3:hr>97</ns3:hr>
            <ns3:cad>0</ns3:cad>
          </ns3:TrackPointExtension>
        </extensions>
      </trkpt>
      <trkpt lat="37.98918281681835651397705078125" lon="-107.74499435909092426300048828125">
        <ele>3977.60009765625</ele>
        <time>2026-08-15T15:14:17.000Z</time>
        <extensions>
          <ns3:TrackPointExtension>
            <ns3:hr>98</ns3:hr>
            <ns3:cad>0</ns3:cad>
          </ns3:TrackPointExtension>
        </extensions>
      </trkpt>
      <trkpt lat="37.98918181098997592926025390625" lon="-107.74499796330928802490234375">
        <ele>3977.800048828125</ele>
        <time>2026-08-15T15:14:20.000Z</time>
        <extensions>
          <ns3:TrackPointExtension>
            <ns3:hr>98</ns3:hr>
            <ns3:cad>0</ns3:cad>
          </ns3:TrackPointExtension>
        </extensions>
      </trkpt>
      <trkpt lat="37.98918063752353191375732421875" lon="-107.74502855725586414337158203125">
        <ele>3978.60009765625</ele>
        <time>2026-08-15T15:14:26.000Z</time>
        <extensions>
          <ns3:TrackPointExtension>
            <ns3:hr>100</ns3:hr>
            <ns3:cad>0</ns3:cad>
          </ns3:TrackPointExtension>
        </extensions>
      </trkpt>
      <trkpt lat="37.989177703857421875" lon="-107.7450335025787353515625">
        <ele>3978.800048828125</ele>
        <time>2026-08-15T15:14:27.000Z</time>
        <extensions>
          <ns3:TrackPointExtension>
            <ns3:hr>104</ns3:hr>
            <ns3:cad>0</ns3:cad>
          </ns3:TrackPointExtension>
        </extensions>
      </trkpt>
      <trkpt lat="37.989175356924533843994140625" lon="-107.7450350113213062286376953125">
        <ele>3979</ele>
        <time>2026-08-15T15:14:28.000Z</time>
        <extensions>
          <ns3:TrackPointExtension>
            <ns3:hr>120</ns3:hr>
            <ns3:cad>0</ns3:cad>
          </ns3:TrackPointExtension>
        </extensions>
      </trkpt>
      <trkpt lat="37.9891731776297092437744140625" lon="-107.7450402081012725830078125">
        <ele>3979</ele>
        <time>2026-08-15T15:14:29.000Z</time>
        <extensions>
          <ns3:TrackPointExtension>
            <ns3:hr>133</ns3:hr>
            <ns3:cad>0</ns3:cad>
          </ns3:TrackPointExtension>
        </extensions>
      </trkpt>
      <trkpt lat="37.98917359672486782073974609375" lon="-107.74504163302481174468994140625">
        <ele>3979.800048828125</ele>
        <time>2026-08-15T15:14:33.000Z</time>
        <extensions>
          <ns3:TrackPointExtension>
            <ns3:hr>135</ns3:hr>
            <ns3:cad>0</ns3:cad>
          </ns3:TrackPointExtension>
        </extensions>
      </trkpt>
      <trkpt lat="37.9891641251742839813232421875" lon="-107.7450427226722240447998046875">
        <ele>3980.800048828125</ele>
        <time>2026-08-15T15:14:37.000Z</time>
        <extensions>
          <ns3:TrackPointExtension>
            <ns3:hr>132</ns3:hr>
            <ns3:cad>0</ns3:cad>
          </ns3:TrackPointExtension>
        </extensions>
      </trkpt>
      <trkpt lat="37.98916588537395000457763671875" lon="-107.7450430579483509063720703125">
        <ele>3980.800048828125</ele>
        <time>2026-08-15T15:14:38.000Z</time>
        <extensions>
          <ns3:TrackPointExtension>
            <ns3:hr>132</ns3:hr>
            <ns3:cad>0</ns3:cad>
          </ns3:TrackPointExtension>
        </extensions>
      </trkpt>
      <trkpt lat="37.9891302622854709625244140625" lon="-107.74503777734935283660888671875">
        <ele>3981.60009765625</ele>
        <time>2026-08-15T15:14:43.000Z</time>
        <extensions>
          <ns3:TrackPointExtension>
            <ns3:hr>130</ns3:hr>
            <ns3:cad>0</ns3:cad>
          </ns3:TrackPointExtension>
        </extensions>
      </trkpt>
      <trkpt lat="37.9891242273151874542236328125" lon="-107.745042555034160614013671875">
        <ele>3982</ele>
        <time>2026-08-15T15:14:45.000Z</time>
        <extensions>
          <ns3:TrackPointExtension>
            <ns3:hr>130</ns3:hr>
            <ns3:cad>0</ns3:cad>
          </ns3:TrackPointExtension>
        </extensions>
      </trkpt>
      <trkpt lat="37.9891242273151874542236328125" lon="-107.74504766799509525299072265625">
        <ele>3982.60009765625</ele>
        <time>2026-08-15T15:14:50.000Z</time>
        <extensions>
          <ns3:TrackPointExtension>
            <ns3:hr>130</ns3:hr>
            <ns3:cad>0</ns3:cad>
          </ns3:TrackPointExtension>
        </extensions>
      </trkpt>
      <trkpt lat="37.98912607133388519287109375" lon="-107.7450537867844104766845703125">
        <ele>3983</ele>
        <time>2026-08-15T15:14:52.000Z</time>
        <extensions>
          <ns3:TrackPointExtension>
            <ns3:hr>131</ns3:hr>
            <ns3:cad>0</ns3:cad>
          </ns3:TrackPointExtension>
        </extensions>
      </trkpt>
      <trkpt lat="37.98912397585809230804443359375" lon="-107.745057642459869384765625">
        <ele>3983.800048828125</ele>
        <time>2026-08-15T15:14:55.000Z</time>
        <extensions>
          <ns3:TrackPointExtension>
            <ns3:hr>131</ns3:hr>
            <ns3:cad>0</ns3:cad>
          </ns3:TrackPointExtension>
        </extensions>
      </trkpt>
      <trkpt lat="37.98912280239164829254150390625" lon="-107.7450578100979328155517578125">
        <ele>3984.199951171875</ele>
        <time>2026-08-15T15:14:58.000Z</time>
        <extensions>
          <ns3:TrackPointExtension>
            <ns3:hr>134</ns3:hr>
            <ns3:cad>0</ns3:cad>
          </ns3:TrackPointExtension>
        </extensions>
      </trkpt>
      <trkpt lat="37.989110313355922698974609375" lon="-107.74506392888724803924560546875">
        <ele>3985</ele>
        <time>2026-08-15T15:15:03.000Z</time>
        <extensions>
          <ns3:TrackPointExtension>
            <ns3:hr>135</ns3:hr>
            <ns3:cad>0</ns3:cad>
          </ns3:TrackPointExtension>
        </extensions>
      </trkpt>
      <trkpt lat="37.98909849487245082855224609375" lon="-107.7450725622475147247314453125">
        <ele>3985.199951171875</ele>
        <time>2026-08-15T15:15:06.000Z</time>
        <extensions>
          <ns3:TrackPointExtension>
            <ns3:hr>137</ns3:hr>
            <ns3:cad>0</ns3:cad>
          </ns3:TrackPointExtension>
        </extensions>
      </trkpt>
      <trkpt lat="37.989083491265773773193359375" lon="-107.74509209208190441131591796875">
        <ele>3985.800048828125</ele>
        <time>2026-08-15T15:15:09.000Z</time>
        <extensions>
          <ns3:TrackPointExtension>
            <ns3:hr>136</ns3:hr>
            <ns3:cad>0</ns3:cad>
          </ns3:TrackPointExtension>
        </extensions>
      </trkpt>
      <trkpt lat="37.98908315598964691162109375" lon="-107.74509427137672901153564453125">
        <ele>3985.800048828125</ele>
        <time>2026-08-15T15:15:11.000Z</time>
        <extensions>
          <ns3:TrackPointExtension>
            <ns3:hr>131</ns3:hr>
            <ns3:cad>0</ns3:cad>
          </ns3:TrackPointExtension>
        </extensions>
      </trkpt>
      <trkpt lat="37.98908256925642490386962890625" lon="-107.74509318172931671142578125">
        <ele>3986.199951171875</ele>
        <time>2026-08-15T15:15:17.000Z</time>
        <extensions>
          <ns3:TrackPointExtension>
            <ns3:hr>130</ns3:hr>
            <ns3:cad>0</ns3:cad>
          </ns3:TrackPointExtension>
        </extensions>
      </trkpt>
      <trkpt lat="37.98908508382737636566162109375" lon="-107.7450858056545257568359375">
        <ele>3986.39990234375</ele>
        <time>2026-08-15T15:15:18.000Z</time>
        <extensions>
          <ns3:TrackPointExtension>
            <ns3:hr>130</ns3:hr>
            <ns3:cad>0</ns3:cad>
          </ns3:TrackPointExtension>
        </extensions>
      </trkpt>
      <trkpt lat="37.98908256925642490386962890625" lon="-107.74509318172931671142578125">
        <ele>3987.199951171875</ele>
        <time>2026-08-15T15:15:23.000Z</time>
        <extensions>
          <ns3:TrackPointExtension>
            <ns3:hr>130</ns3:hr>
            <ns3:cad>0</ns3:cad>
          </ns3:TrackPointExtension>
        </extensions>
      </trkpt>
      <trkpt lat="37.9890826530754566192626953125" lon="-107.74508739821612834930419921875">
        <ele>3987.39990234375</ele>
        <time>2026-08-15T15:15:25.000Z</time>
        <extensions>
          <ns3:TrackPointExtension>
            <ns3:hr>130</ns3:hr>
            <ns3:cad>0</ns3:cad>
          </ns3:TrackPointExtension>
        </extensions>
      </trkpt>
      <trkpt lat="37.9890803061425685882568359375" lon="-107.74509712122380733489990234375">
        <ele>3988</ele>
        <time>2026-08-15T15:15:30.000Z</time>
        <extensions>
          <ns3:TrackPointExtension>
            <ns3:hr>129</ns3:hr>
            <ns3:cad>0</ns3:cad>
          </ns3:TrackPointExtension>
        </extensions>
      </trkpt>
      <trkpt lat="37.989074774086475372314453125" lon="-107.745108939707279205322265625">
        <ele>3988.60009765625</ele>
        <time>2026-08-15T15:15:34.000Z</time>
        <extensions>
          <ns3:TrackPointExtension>
            <ns3:hr>128</ns3:hr>
            <ns3:cad>0</ns3:cad>
          </ns3:TrackPointExtension>
        </extensions>
      </trkpt>
      <trkpt lat="37.98907469026744365692138671875" lon="-107.7451094426214694976806640625">
        <ele>3988.800048828125</ele>
        <time>2026-08-15T15:15:35.000Z</time>
        <extensions>
          <ns3:TrackPointExtension>
            <ns3:hr>127</ns3:hr>
            <ns3:cad>0</ns3:cad>
          </ns3:TrackPointExtension>
        </extensions>
      </trkpt>
      <trkpt lat="37.98907787539064884185791015625" lon="-107.7451184950768947601318359375">
        <ele>3989.60009765625</ele>
        <time>2026-08-15T15:15:39.000Z</time>
        <extensions>
          <ns3:TrackPointExtension>
            <ns3:hr>126</ns3:hr>
            <ns3:cad>0</ns3:cad>
          </ns3:TrackPointExtension>
        </extensions>
      </trkpt>
      <trkpt lat="37.989080138504505157470703125" lon="-107.74511539377272129058837890625">
        <ele>3989.800048828125</ele>
        <time>2026-08-15T15:15:42.000Z</time>
        <extensions>
          <ns3:TrackPointExtension>
            <ns3:hr>128</ns3:hr>
            <ns3:cad>0</ns3:cad>
          </ns3:TrackPointExtension>
        </extensions>
      </trkpt>
      <trkpt lat="37.989057004451751708984375" lon="-107.74512478150427341461181640625">
        <ele>3990.60009765625</ele>
        <time>2026-08-15T15:15:47.000Z</time>
        <extensions>
          <ns3:TrackPointExtension>
            <ns3:hr>130</ns3:hr>
            <ns3:cad>0</ns3:cad>
          </ns3:TrackPointExtension>
        </extensions>
      </trkpt>
      <trkpt lat="37.98905323259532451629638671875" lon="-107.74512679316103458404541015625">
        <ele>3990.800048828125</ele>
        <time>2026-08-15T15:15:49.000Z</time>
        <extensions>
          <ns3:TrackPointExtension>
            <ns3:hr>131</ns3:hr>
            <ns3:cad>0</ns3:cad>
          </ns3:TrackPointExtension>
        </extensions>
      </trkpt>
      <trkpt lat="37.9890511371195316314697265625" lon="-107.7451265417039394378662109375">
        <ele>3991</ele>
        <time>2026-08-15T15:15:51.000Z</time>
        <extensions>
          <ns3:TrackPointExtension>
            <ns3:hr>134</ns3:hr>
            <ns3:cad>0</ns3:cad>
          </ns3:TrackPointExtension>
        </extensions>
      </trkpt>
      <trkpt lat="37.9890494607388973236083984375" lon="-107.7451292239129543304443359375">
        <ele>3991.199951171875</ele>
        <time>2026-08-15T15:15:52.000Z</time>
        <extensions>
          <ns3:TrackPointExtension>
            <ns3:hr>137</ns3:hr>
            <ns3:cad>0</ns3:cad>
          </ns3:TrackPointExtension>
        </extensions>
      </trkpt>
      <trkpt lat="37.9890521429479122161865234375" lon="-107.74512805044651031494140625">
        <ele>3991.199951171875</ele>
        <time>2026-08-15T15:15:53.000Z</time>
        <extensions>
          <ns3:TrackPointExtension>
            <ns3:hr>137</ns3:hr>
            <ns3:cad>0</ns3:cad>
          </ns3:TrackPointExtension>
        </extensions>
      </trkpt>
      <trkpt lat="37.9890484549105167388916015625" lon="-107.74513182230293750762939453125">
        <ele>3991.39990234375</ele>
        <time>2026-08-15T15:15:56.000Z</time>
        <extensions>
          <ns3:TrackPointExtension>
            <ns3:hr>138</ns3:hr>
            <ns3:cad>0</ns3:cad>
          </ns3:TrackPointExtension>
        </extensions>
      </trkpt>
      <trkpt lat="37.98904652707278728485107421875" lon="-107.7451312355697154998779296875">
        <ele>3991.800048828125</ele>
        <time>2026-08-15T15:15:58.000Z</time>
        <extensions>
          <ns3:TrackPointExtension>
            <ns3:hr>138</ns3:hr>
            <ns3:cad>0</ns3:cad>
          </ns3:TrackPointExtension>
        </extensions>
      </trkpt>
      <trkpt lat="37.9890434257686138153076171875" lon="-107.74514003656804561614990234375">
        <ele>3992.199951171875</ele>
        <time>2026-08-15T15:16:02.000Z</time>
        <extensions>
          <ns3:TrackPointExtension>
            <ns3:hr>137</ns3:hr>
            <ns3:cad>0</ns3:cad>
          </ns3:TrackPointExtension>
        </extensions>
      </trkpt>
      <trkpt lat="37.98904686234891414642333984375" lon="-107.74513249285519123077392578125">
        <ele>3992.60009765625</ele>
        <time>2026-08-15T15:16:08.000Z</time>
        <extensions>
          <ns3:TrackPointExtension>
            <ns3:hr>135</ns3:hr>
            <ns3:cad>0</ns3:cad>
          </ns3:TrackPointExtension>
        </extensions>
      </trkpt>
      <trkpt lat="37.98904686234891414642333984375" lon="-107.74513249285519123077392578125">
        <ele>3992.60009765625</ele>
        <time>2026-08-15T15:16:09.000Z</time>
        <extensions>
          <ns3:TrackPointExtension>
            <ns3:hr>134</ns3:hr>
            <ns3:cad>0</ns3:cad>
          </ns3:TrackPointExtension>
        </extensions>
      </trkpt>
      <trkpt lat="37.989035882055759429931640625" lon="-107.7451443113386631011962890625">
        <ele>3992.60009765625</ele>
        <time>2026-08-15T15:16:14.000Z</time>
        <extensions>
          <ns3:TrackPointExtension>
            <ns3:hr>131</ns3:hr>
            <ns3:cad>0</ns3:cad>
          </ns3:TrackPointExtension>
        </extensions>
      </trkpt>
      <trkpt lat="37.989031188189983367919921875" lon="-107.7451533637940883636474609375">
        <ele>3992.800048828125</ele>
        <time>2026-08-15T15:16:16.000Z</time>
        <extensions>
          <ns3:TrackPointExtension>
            <ns3:hr>131</ns3:hr>
            <ns3:cad>0</ns3:cad>
          </ns3:TrackPointExtension>
        </extensions>
      </trkpt>
      <trkpt lat="37.98903026618063449859619140625" lon="-107.74515562690794467926025390625">
        <ele>3993</ele>
        <time>2026-08-15T15:16:17.000Z</time>
        <extensions>
          <ns3:TrackPointExtension>
            <ns3:hr>130</ns3:hr>
            <ns3:cad>0</ns3:cad>
          </ns3:TrackPointExtension>
        </extensions>
      </trkpt>
      <trkpt lat="37.98903076909482479095458984375" lon="-107.7451567165553569793701171875">
        <ele>3993.39990234375</ele>
        <time>2026-08-15T15:16:21.000Z</time>
        <extensions>
          <ns3:TrackPointExtension>
            <ns3:hr>127</ns3:hr>
            <ns3:cad>0</ns3:cad>
          </ns3:TrackPointExtension>
        </extensions>
      </trkpt>
      <trkpt lat="37.98901199363172054290771484375" lon="-107.74515965022146701812744140625">
        <ele>3994</ele>
        <time>2026-08-15T15:16:26.000Z</time>
        <extensions>
          <ns3:TrackPointExtension>
            <ns3:hr>124</ns3:hr>
            <ns3:cad>0</ns3:cad>
          </ns3:TrackPointExtension>
        </extensions>
      </trkpt>
      <trkpt lat="37.9890078864991664886474609375" lon="-107.7451620809733867645263671875">
        <ele>3994.199951171875</ele>
        <time>2026-08-15T15:16:27.000Z</time>
        <extensions>
          <ns3:TrackPointExtension>
            <ns3:hr>122</ns3:hr>
            <ns3:cad>0</ns3:cad>
          </ns3:TrackPointExtension>
        </extensions>
      </trkpt>
      <trkpt lat="37.98900562338531017303466796875" lon="-107.7451644279062747955322265625">
        <ele>3995.199951171875</ele>
        <time>2026-08-15T15:16:33.000Z</time>
        <extensions>
          <ns3:TrackPointExtension>
            <ns3:hr>122</ns3:hr>
            <ns3:cad>0</ns3:cad>
          </ns3:TrackPointExtension>
        </extensions>
      </trkpt>
      <trkpt lat="37.98900344409048557281494140625" lon="-107.7451684512197971343994140625">
        <ele>3995.39990234375</ele>
        <time>2026-08-15T15:16:34.000Z</time>
        <extensions>
          <ns3:TrackPointExtension>
            <ns3:hr>122</ns3:hr>
            <ns3:cad>0</ns3:cad>
          </ns3:TrackPointExtension>
        </extensions>
      </trkpt>
      <trkpt lat="37.9890018515288829803466796875" lon="-107.745188064873218536376953125">
        <ele>3996.199951171875</ele>
        <time>2026-08-15T15:16:39.000Z</time>
        <extensions>
          <ns3:TrackPointExtension>
            <ns3:hr>124</ns3:hr>
            <ns3:cad>0</ns3:cad>
          </ns3:TrackPointExtension>
        </extensions>
      </trkpt>
      <trkpt lat="37.98900260590016841888427734375" lon="-107.74520290084183216094970703125">
        <ele>3996.39990234375</ele>
        <time>2026-08-15T15:16:42.000Z</time>
        <extensions>
          <ns3:TrackPointExtension>
            <ns3:hr>124</ns3:hr>
            <ns3:cad>0</ns3:cad>
          </ns3:TrackPointExtension>
        </extensions>
      </trkpt>
      <trkpt lat="37.98901601694524288177490234375" lon="-107.7452412061393260955810546875">
        <ele>3997</ele>
        <time>2026-08-15T15:16:48.000Z</time>
        <extensions>
          <ns3:TrackPointExtension>
            <ns3:hr>125</ns3:hr>
            <ns3:cad>0</ns3:cad>
          </ns3:TrackPointExtension>
        </extensions>
      </trkpt>
      <trkpt lat="37.989024482667446136474609375" lon="-107.7452529408037662506103515625">
        <ele>3997.39990234375</ele>
        <time>2026-08-15T15:16:53.000Z</time>
        <extensions>
          <ns3:TrackPointExtension>
            <ns3:hr>124</ns3:hr>
            <ns3:cad>0</ns3:cad>
          </ns3:TrackPointExtension>
        </extensions>
      </trkpt>
      <trkpt lat="37.98902607522904872894287109375" lon="-107.7452599816024303436279296875">
        <ele>3997.39990234375</ele>
        <time>2026-08-15T15:16:54.000Z</time>
        <extensions>
          <ns3:TrackPointExtension>
            <ns3:hr>124</ns3:hr>
            <ns3:cad>0</ns3:cad>
          </ns3:TrackPointExtension>
        </extensions>
      </trkpt>
      <trkpt lat="37.98902188427746295928955078125" lon="-107.74525168351829051971435546875">
        <ele>3998.199951171875</ele>
        <time>2026-08-15T15:16:59.000Z</time>
        <extensions>
          <ns3:TrackPointExtension>
            <ns3:hr>125</ns3:hr>
            <ns3:cad>0</ns3:cad>
          </ns3:TrackPointExtension>
        </extensions>
      </trkpt>
      <trkpt lat="37.98902540467679500579833984375" lon="-107.74525704793632030487060546875">
        <ele>3998.39990234375</ele>
        <time>2026-08-15T15:17:02.000Z</time>
        <extensions>
          <ns3:TrackPointExtension>
            <ns3:hr>124</ns3:hr>
            <ns3:cad>0</ns3:cad>
          </ns3:TrackPointExtension>
        </extensions>
      </trkpt>
      <trkpt lat="37.9890407435595989227294921875" lon="-107.745267190039157867431640625">
        <ele>3998.199951171875</ele>
        <time>2026-08-15T15:17:07.000Z</time>
        <extensions>
          <ns3:TrackPointExtension>
            <ns3:hr>122</ns3:hr>
            <ns3:cad>0</ns3:cad>
          </ns3:TrackPointExtension>
        </extensions>
      </trkpt>
      <trkpt lat="37.9890337027609348297119140625" lon="-107.7452817745506763458251953125">
        <ele>3998.60009765625</ele>
        <time>2026-08-15T15:17:13.000Z</time>
        <extensions>
          <ns3:TrackPointExtension>
            <ns3:hr>121</ns3:hr>
            <ns3:cad>0</ns3:cad>
          </ns3:TrackPointExtension>
        </extensions>
      </trkpt>
      <trkpt lat="37.98903445713222026824951171875" lon="-107.74529359303414821624755859375">
        <ele>3999.39990234375</ele>
        <time>2026-08-15T15:17:19.000Z</time>
        <extensions>
          <ns3:TrackPointExtension>
            <ns3:hr>120</ns3:hr>
            <ns3:cad>0</ns3:cad>
          </ns3:TrackPointExtension>
        </extensions>
      </trkpt>
      <trkpt lat="37.9890347085893154144287109375" lon="-107.74529543705284595489501953125">
        <ele>3999.60009765625</ele>
        <time>2026-08-15T15:17:20.000Z</time>
        <extensions>
          <ns3:TrackPointExtension>
            <ns3:hr>120</ns3:hr>
            <ns3:cad>0</ns3:cad>
          </ns3:TrackPointExtension>
        </extensions>
      </trkpt>
      <trkpt lat="37.98903898335993289947509765625" lon="-107.7453025616705417633056640625">
        <ele>4000.199951171875</ele>
        <time>2026-08-15T15:17:24.000Z</time>
        <extensions>
          <ns3:TrackPointExtension>
            <ns3:hr>117</ns3:hr>
            <ns3:cad>0</ns3:cad>
          </ns3:TrackPointExtension>
        </extensions>
      </trkpt>
      <trkpt lat="37.989036552608013153076171875" lon="-107.745312787592411041259765625">
        <ele>4000.60009765625</ele>
        <time>2026-08-15T15:17:27.000Z</time>
        <extensions>
          <ns3:TrackPointExtension>
            <ns3:hr>118</ns3:hr>
            <ns3:cad>0</ns3:cad>
          </ns3:TrackPointExtension>
        </extensions>
      </trkpt>
      <trkpt lat="37.989027500152587890625" lon="-107.74533214978873729705810546875">
        <ele>4001.60009765625</ele>
        <time>2026-08-15T15:17:33.000Z</time>
        <extensions>
          <ns3:TrackPointExtension>
            <ns3:hr>117</ns3:hr>
            <ns3:cad>0</ns3:cad>
          </ns3:TrackPointExtension>
        </extensions>
      </trkpt>
      <trkpt lat="37.9890246503055095672607421875" lon="-107.74533717893064022064208984375">
        <ele>4001.800048828125</ele>
        <time>2026-08-15T15:17:34.000Z</time>
        <extensions>
          <ns3:TrackPointExtension>
            <ns3:hr>117</ns3:hr>
            <ns3:cad>0</ns3:cad>
          </ns3:TrackPointExtension>
        </extensions>
      </trkpt>
      <trkpt lat="37.98902557231485843658447265625" lon="-107.74533449672162532806396484375">
        <ele>4003</ele>
        <time>2026-08-15T15:17:39.000Z</time>
        <extensions>
          <ns3:TrackPointExtension>
            <ns3:hr>117</ns3:hr>
            <ns3:cad>0</ns3:cad>
          </ns3:TrackPointExtension>
        </extensions>
      </trkpt>
      <trkpt lat="37.98902590759098529815673828125" lon="-107.74533458054065704345703125">
        <ele>4003.199951171875</ele>
        <time>2026-08-15T15:17:42.000Z</time>
        <extensions>
          <ns3:TrackPointExtension>
            <ns3:hr>115</ns3:hr>
            <ns3:cad>0</ns3:cad>
          </ns3:TrackPointExtension>
        </extensions>
      </trkpt>
      <trkpt lat="37.9890269972383975982666015625" lon="-107.7453379333019256591796875">
        <ele>4004</ele>
        <time>2026-08-15T15:17:46.000Z</time>
        <extensions>
          <ns3:TrackPointExtension>
            <ns3:hr>117</ns3:hr>
            <ns3:cad>0</ns3:cad>
          </ns3:TrackPointExtension>
        </extensions>
      </trkpt>
      <trkpt lat="37.98902205191552639007568359375" lon="-107.74534153752028942108154296875">
        <ele>4004.39990234375</ele>
        <time>2026-08-15T15:17:49.000Z</time>
        <extensions>
          <ns3:TrackPointExtension>
            <ns3:hr>117</ns3:hr>
            <ns3:cad>0</ns3:cad>
          </ns3:TrackPointExtension>
        </extensions>
      </trkpt>
      <trkpt lat="37.9890199564397335052490234375" lon="-107.7453458122909069061279296875">
        <ele>4004.199951171875</ele>
        <time>2026-08-15T15:17:53.000Z</time>
        <extensions>
          <ns3:TrackPointExtension>
            <ns3:hr>114</ns3:hr>
            <ns3:cad>0</ns3:cad>
          </ns3:TrackPointExtension>
        </extensions>
      </trkpt>
      <trkpt lat="37.98900243826210498809814453125" lon="-107.7453498356044292449951171875">
        <ele>4004.39990234375</ele>
        <time>2026-08-15T15:17:59.000Z</time>
        <extensions>
          <ns3:TrackPointExtension>
            <ns3:hr>113</ns3:hr>
            <ns3:cad>0</ns3:cad>
          </ns3:TrackPointExtension>
        </extensions>
      </trkpt>
      <trkpt lat="37.98898600973188877105712890625" lon="-107.7453451417386531829833984375">
        <ele>4005</ele>
        <time>2026-08-15T15:18:03.000Z</time>
        <extensions>
          <ns3:TrackPointExtension>
            <ns3:hr>115</ns3:hr>
            <ns3:cad>0</ns3:cad>
          </ns3:TrackPointExtension>
        </extensions>
      </trkpt>
      <trkpt lat="37.98897846601903438568115234375" lon="-107.74533935822546482086181640625">
        <ele>4005.60009765625</ele>
        <time>2026-08-15T15:18:06.000Z</time>
        <extensions>
          <ns3:TrackPointExtension>
            <ns3:hr>114</ns3:hr>
            <ns3:cad>0</ns3:cad>
          </ns3:TrackPointExtension>
        </extensions>
      </trkpt>
      <trkpt lat="37.98896673135459423065185546875" lon="-107.74532695300877094268798828125">
        <ele>4006</ele>
        <time>2026-08-15T15:18:11.000Z</time>
        <extensions>
          <ns3:TrackPointExtension>
            <ns3:hr>114</ns3:hr>
            <ns3:cad>0</ns3:cad>
          </ns3:TrackPointExtension>
        </extensions>
      </trkpt>
      <trkpt lat="37.9889619536697864532470703125" lon="-107.74532712064683437347412109375">
        <ele>4006.199951171875</ele>
        <time>2026-08-15T15:18:12.000Z</time>
        <extensions>
          <ns3:TrackPointExtension>
            <ns3:hr>115</ns3:hr>
            <ns3:cad>0</ns3:cad>
          </ns3:TrackPointExtension>
        </extensions>
      </trkpt>
      <trkpt lat="37.98895214684307575225830078125" lon="-107.74533567018806934356689453125">
        <ele>4006.39990234375</ele>
        <time>2026-08-15T15:18:18.000Z</time>
        <extensions>
          <ns3:TrackPointExtension>
            <ns3:hr>114</ns3:hr>
            <ns3:cad>0</ns3:cad>
          </ns3:TrackPointExtension>
        </extensions>
      </trkpt>
      <trkpt lat="37.98895197920501232147216796875" lon="-107.745335586369037628173828125">
        <ele>4006.39990234375</ele>
        <time>2026-08-15T15:18:20.000Z</time>
        <extensions>
          <ns3:TrackPointExtension>
            <ns3:hr>115</ns3:hr>
            <ns3:cad>0</ns3:cad>
          </ns3:TrackPointExtension>
        </extensions>
      </trkpt>
      <trkpt lat="37.98895197920501232147216796875" lon="-107.745335586369037628173828125">
        <ele>4006.60009765625</ele>
        <time>2026-08-15T15:18:23.000Z</time>
        <extensions>
          <ns3:TrackPointExtension>
            <ns3:hr>118</ns3:hr>
            <ns3:cad>0</ns3:cad>
          </ns3:TrackPointExtension>
        </extensions>
      </trkpt>
      <trkpt lat="37.98895197920501232147216796875" lon="-107.745335586369037628173828125">
        <ele>4006.800048828125</ele>
        <time>2026-08-15T15:18:29.000Z</time>
        <extensions>
          <ns3:TrackPointExtension>
            <ns3:hr>120</ns3:hr>
            <ns3:cad>0</ns3:cad>
          </ns3:TrackPointExtension>
        </extensions>
      </trkpt>
      <trkpt lat="37.98895197920501232147216796875" lon="-107.745335586369037628173828125">
        <ele>4006.800048828125</ele>
        <time>2026-08-15T15:18:30.000Z</time>
        <extensions>
          <ns3:TrackPointExtension>
            <ns3:hr>121</ns3:hr>
            <ns3:cad>0</ns3:cad>
          </ns3:TrackPointExtension>
        </extensions>
      </trkpt>
      <trkpt lat="37.98895197920501232147216796875" lon="-107.745335586369037628173828125">
        <ele>4006.199951171875</ele>
        <time>2026-08-15T15:18:36.000Z</time>
        <extensions>
          <ns3:TrackPointExtension>
            <ns3:hr>122</ns3:hr>
            <ns3:cad>0</ns3:cad>
          </ns3:TrackPointExtension>
        </extensions>
      </trkpt>
      <trkpt lat="37.9889562539756298065185546875" lon="-107.745333574712276458740234375">
        <ele>4007</ele>
        <time>2026-08-15T15:18:42.000Z</time>
        <extensions>
          <ns3:TrackPointExtension>
            <ns3:hr>120</ns3:hr>
            <ns3:cad>0</ns3:cad>
          </ns3:TrackPointExtension>
        </extensions>
      </trkpt>
      <trkpt lat="37.98895700834691524505615234375" lon="-107.74533298797905445098876953125">
        <ele>4007.199951171875</ele>
        <time>2026-08-15T15:18:43.000Z</time>
        <extensions>
          <ns3:TrackPointExtension>
            <ns3:hr>120</ns3:hr>
            <ns3:cad>0</ns3:cad>
          </ns3:TrackPointExtension>
        </extensions>
      </trkpt>
      <trkpt lat="37.98894410021603107452392578125" lon="-107.74534455500543117523193359375">
        <ele>4008.39990234375</ele>
        <time>2026-08-15T15:18:49.000Z</time>
        <extensions>
          <ns3:TrackPointExtension>
            <ns3:hr>120</ns3:hr>
            <ns3:cad>0</ns3:cad>
          </ns3:TrackPointExtension>
        </extensions>
      </trkpt>
      <trkpt lat="37.98894376493990421295166015625" lon="-107.74534489028155803680419921875">
        <ele>4008.39990234375</ele>
        <time>2026-08-15T15:18:50.000Z</time>
        <extensions>
          <ns3:TrackPointExtension>
            <ns3:hr>120</ns3:hr>
            <ns3:cad>0</ns3:cad>
          </ns3:TrackPointExtension>
        </extensions>
      </trkpt>
      <trkpt lat="37.9889401607215404510498046875" lon="-107.74534656666219234466552734375">
        <ele>4009.39990234375</ele>
        <time>2026-08-15T15:18:56.000Z</time>
        <extensions>
          <ns3:TrackPointExtension>
            <ns3:hr>120</ns3:hr>
            <ns3:cad>0</ns3:cad>
          </ns3:TrackPointExtension>
        </extensions>
      </trkpt>
      <trkpt lat="37.9889314435422420501708984375" lon="-107.7453521825373172760009765625">
        <ele>4009</ele>
        <time>2026-08-15T15:19:00.000Z</time>
        <extensions>
          <ns3:TrackPointExtension>
            <ns3:hr>121</ns3:hr>
            <ns3:cad>0</ns3:cad>
          </ns3:TrackPointExtension>
        </extensions>
      </trkpt>
      <trkpt lat="37.9889133386313915252685546875" lon="-107.74536785669624805450439453125">
        <ele>4009.39990234375</ele>
        <time>2026-08-15T15:19:06.000Z</time>
        <extensions>
          <ns3:TrackPointExtension>
            <ns3:hr>120</ns3:hr>
            <ns3:cad>0</ns3:cad>
          </ns3:TrackPointExtension>
        </extensions>
      </trkpt>
      <trkpt lat="37.988911159336566925048828125" lon="-107.74537003599107265472412109375">
        <ele>4009.800048828125</ele>
        <time>2026-08-15T15:19:07.000Z</time>
        <extensions>
          <ns3:TrackPointExtension>
            <ns3:hr>119</ns3:hr>
            <ns3:cad>0</ns3:cad>
          </ns3:TrackPointExtension>
        </extensions>
      </trkpt>
      <trkpt lat="37.98890939913690090179443359375" lon="-107.7453676052391529083251953125">
        <ele>4010.60009765625</ele>
        <time>2026-08-15T15:19:09.000Z</time>
        <extensions>
          <ns3:TrackPointExtension>
            <ns3:hr>119</ns3:hr>
            <ns3:cad>0</ns3:cad>
          </ns3:TrackPointExtension>
        </extensions>
      </trkpt>
      <trkpt lat="37.98889263533055782318115234375" lon="-107.7453806810081005096435546875">
        <ele>4011.39990234375</ele>
        <time>2026-08-15T15:19:15.000Z</time>
        <extensions>
          <ns3:TrackPointExtension>
            <ns3:hr>119</ns3:hr>
            <ns3:cad>0</ns3:cad>
          </ns3:TrackPointExtension>
        </extensions>
      </trkpt>
      <trkpt lat="37.9888935573399066925048828125" lon="-107.745383866131305694580078125">
        <ele>4011.60009765625</ele>
        <time>2026-08-15T15:19:18.000Z</time>
        <extensions>
          <ns3:TrackPointExtension>
            <ns3:hr>119</ns3:hr>
            <ns3:cad>0</ns3:cad>
          </ns3:TrackPointExtension>
        </extensions>
      </trkpt>
      <trkpt lat="37.98888542689383029937744140625" lon="-107.74539350531995296478271484375">
        <ele>4011.800048828125</ele>
        <time>2026-08-15T15:19:23.000Z</time>
        <extensions>
          <ns3:TrackPointExtension>
            <ns3:hr>120</ns3:hr>
            <ns3:cad>0</ns3:cad>
          </ns3:TrackPointExtension>
        </extensions>
      </trkpt>
      <trkpt lat="37.988877631723880767822265625" lon="-107.74540540762245655059814453125">
        <ele>4012.800048828125</ele>
        <time>2026-08-15T15:19:26.000Z</time>
        <extensions>
          <ns3:TrackPointExtension>
            <ns3:hr>120</ns3:hr>
            <ns3:cad>0</ns3:cad>
          </ns3:TrackPointExtension>
        </extensions>
      </trkpt>
      <trkpt lat="37.9888754524290561676025390625" lon="-107.74540289305150508880615234375">
        <ele>4013.60009765625</ele>
        <time>2026-08-15T15:19:29.000Z</time>
        <extensions>
          <ns3:TrackPointExtension>
            <ns3:hr>118</ns3:hr>
            <ns3:cad>0</ns3:cad>
          </ns3:TrackPointExtension>
        </extensions>
      </trkpt>
      <trkpt lat="37.98886396922171115875244140625" lon="-107.7454049885272979736328125">
        <ele>4013.800048828125</ele>
        <time>2026-08-15T15:19:30.000Z</time>
        <extensions>
          <ns3:TrackPointExtension>
            <ns3:hr>117</ns3:hr>
            <ns3:cad>0</ns3:cad>
          </ns3:TrackPointExtension>
        </extensions>
      </trkpt>
      <trkpt lat="37.988850809633731842041015625" lon="-107.74541144259274005889892578125">
        <ele>4013.800048828125</ele>
        <time>2026-08-15T15:19:35.000Z</time>
        <extensions>
          <ns3:TrackPointExtension>
            <ns3:hr>116</ns3:hr>
            <ns3:cad>0</ns3:cad>
          </ns3:TrackPointExtension>
        </extensions>
      </trkpt>
      <trkpt lat="37.9888630472123622894287109375" lon="-107.74540691636502742767333984375">
        <ele>4013.800048828125</ele>
        <time>2026-08-15T15:19:39.000Z</time>
        <extensions>
          <ns3:TrackPointExtension>
            <ns3:hr>119</ns3:hr>
            <ns3:cad>0</ns3:cad>
          </ns3:TrackPointExtension>
        </extensions>
      </trkpt>
      <trkpt lat="37.98885625787079334259033203125" lon="-107.74540155194699764251708984375">
        <ele>4014.199951171875</ele>
        <time>2026-08-15T15:19:41.000Z</time>
        <extensions>
          <ns3:TrackPointExtension>
            <ns3:hr>122</ns3:hr>
            <ns3:cad>0</ns3:cad>
          </ns3:TrackPointExtension>
        </extensions>
      </trkpt>
      <trkpt lat="37.9888560064136981964111328125" lon="-107.745398618280887603759765625">
        <ele>4014.199951171875</ele>
        <time>2026-08-15T15:19:43.000Z</time>
        <extensions>
          <ns3:TrackPointExtension>
            <ns3:hr>125</ns3:hr>
            <ns3:cad>0</ns3:cad>
          </ns3:TrackPointExtension>
        </extensions>
      </trkpt>
      <trkpt lat="37.98885491676628589630126953125" lon="-107.7453991211950778961181640625">
        <ele>4014.60009765625</ele>
        <time>2026-08-15T15:19:45.000Z</time>
        <extensions>
          <ns3:TrackPointExtension>
            <ns3:hr>128</ns3:hr>
            <ns3:cad>0</ns3:cad>
          </ns3:TrackPointExtension>
        </extensions>
      </trkpt>
      <trkpt lat="37.98885055817663669586181640625" lon="-107.74540104903280735015869140625">
        <ele>4015</ele>
        <time>2026-08-15T15:19:47.000Z</time>
        <extensions>
          <ns3:TrackPointExtension>
            <ns3:hr>129</ns3:hr>
            <ns3:cad>0</ns3:cad>
          </ns3:TrackPointExtension>
        </extensions>
      </trkpt>
      <trkpt lat="37.98884309828281402587890625" lon="-107.7454011328518390655517578125">
        <ele>4015.199951171875</ele>
        <time>2026-08-15T15:19:49.000Z</time>
        <extensions>
          <ns3:TrackPointExtension>
            <ns3:hr>130</ns3:hr>
            <ns3:cad>0</ns3:cad>
          </ns3:TrackPointExtension>
        </extensions>
      </trkpt>
      <trkpt lat="37.988811917603015899658203125" lon="-107.7453994564712047576904296875">
        <ele>4015.60009765625</ele>
        <time>2026-08-15T15:19:53.000Z</time>
        <extensions>
          <ns3:TrackPointExtension>
            <ns3:hr>133</ns3:hr>
            <ns3:cad>0</ns3:cad>
          </ns3:TrackPointExtension>
        </extensions>
      </trkpt>
      <trkpt lat="37.9888026975095272064208984375" lon="-107.74539534933865070343017578125">
        <ele>4016</ele>
        <time>2026-08-15T15:19:55.000Z</time>
        <extensions>
          <ns3:TrackPointExtension>
            <ns3:hr>134</ns3:hr>
            <ns3:cad>0</ns3:cad>
          </ns3:TrackPointExtension>
        </extensions>
      </trkpt>
      <trkpt lat="37.9887993447482585906982421875" lon="-107.74539493024349212646484375">
        <ele>4016</ele>
        <time>2026-08-15T15:19:56.000Z</time>
        <extensions>
          <ns3:TrackPointExtension>
            <ns3:hr>134</ns3:hr>
            <ns3:cad>0</ns3:cad>
          </ns3:TrackPointExtension>
        </extensions>
      </trkpt>
      <trkpt lat="37.98876942135393619537353515625" lon="-107.74539384059607982635498046875">
        <ele>4016.60009765625</ele>
        <time>2026-08-15T15:20:01.000Z</time>
        <extensions>
          <ns3:TrackPointExtension>
            <ns3:hr>134</ns3:hr>
            <ns3:cad>0</ns3:cad>
          </ns3:TrackPointExtension>
        </extensions>
      </trkpt>
      <trkpt lat="37.98874142579734325408935546875" lon="-107.7453967742621898651123046875">
        <ele>4016.800048828125</ele>
        <time>2026-08-15T15:20:07.000Z</time>
        <extensions>
          <ns3:TrackPointExtension>
            <ns3:hr>135</ns3:hr>
            <ns3:cad>0</ns3:cad>
          </ns3:TrackPointExtension>
        </extensions>
      </trkpt>
      <trkpt lat="37.98872265033423900604248046875" lon="-107.74539291858673095703125">
        <ele>4016.800048828125</ele>
        <time>2026-08-15T15:20:09.000Z</time>
        <extensions>
          <ns3:TrackPointExtension>
            <ns3:hr>136</ns3:hr>
            <ns3:cad>77</ns3:cad>
          </ns3:TrackPointExtension>
        </extensions>
      </trkpt>
      <trkpt lat="37.98871301114559173583984375" lon="-107.745391242206096649169921875">
        <ele>4017</ele>
        <time>2026-08-15T15:20:10.000Z</time>
        <extensions>
          <ns3:TrackPointExtension>
            <ns3:hr>136</ns3:hr>
            <ns3:cad>77</ns3:cad>
          </ns3:TrackPointExtension>
        </extensions>
      </trkpt>
      <trkpt lat="37.98864117823541164398193359375" lon="-107.745362408459186553955078125">
        <ele>4017</ele>
        <time>2026-08-15T15:20:16.000Z</time>
        <extensions>
          <ns3:TrackPointExtension>
            <ns3:hr>136</ns3:hr>
            <ns3:cad>71</ns3:cad>
          </ns3:TrackPointExtension>
        </extensions>
      </trkpt>
      <trkpt lat="37.98862583935260772705078125" lon="-107.7453729696571826934814453125">
        <ele>4017</ele>
        <time>2026-08-15T15:20:21.000Z</time>
        <extensions>
          <ns3:TrackPointExtension>
            <ns3:hr>134</ns3:hr>
            <ns3:cad>0</ns3:cad>
          </ns3:TrackPointExtension>
        </extensions>
      </trkpt>
      <trkpt lat="37.98862583935260772705078125" lon="-107.7453729696571826934814453125">
        <ele>4017</ele>
        <time>2026-08-15T15:20:27.000Z</time>
        <extensions>
          <ns3:TrackPointExtension>
            <ns3:hr>131</ns3:hr>
            <ns3:cad>0</ns3:cad>
          </ns3:TrackPointExtension>
        </extensions>
      </trkpt>
      <trkpt lat="37.98862583935260772705078125" lon="-107.7453729696571826934814453125">
        <ele>4016.60009765625</ele>
        <time>2026-08-15T15:20:32.000Z</time>
        <extensions>
          <ns3:TrackPointExtension>
            <ns3:hr>134</ns3:hr>
            <ns3:cad>0</ns3:cad>
          </ns3:TrackPointExtension>
        </extensions>
      </trkpt>
      <trkpt lat="37.98862583935260772705078125" lon="-107.7453729696571826934814453125">
        <ele>4016.800048828125</ele>
        <time>2026-08-15T15:20:36.000Z</time>
        <extensions>
          <ns3:TrackPointExtension>
            <ns3:hr>137</ns3:hr>
            <ns3:cad>0</ns3:cad>
          </ns3:TrackPointExtension>
        </extensions>
      </trkpt>
      <trkpt lat="37.98862583935260772705078125" lon="-107.7453729696571826934814453125">
        <ele>4016.60009765625</ele>
        <time>2026-08-15T15:20:37.000Z</time>
        <extensions>
          <ns3:TrackPointExtension>
            <ns3:hr>137</ns3:hr>
            <ns3:cad>0</ns3:cad>
          </ns3:TrackPointExtension>
        </extensions>
      </trkpt>
      <trkpt lat="37.98862583935260772705078125" lon="-107.7453729696571826934814453125">
        <ele>4016.60009765625</ele>
        <time>2026-08-15T15:20:43.000Z</time>
        <extensions>
          <ns3:TrackPointExtension>
            <ns3:hr>136</ns3:hr>
            <ns3:cad>0</ns3:cad>
          </ns3:TrackPointExtension>
        </extensions>
      </trkpt>
      <trkpt lat="37.98862583935260772705078125" lon="-107.7453729696571826934814453125">
        <ele>4016.39990234375</ele>
        <time>2026-08-15T15:20:47.000Z</time>
        <extensions>
          <ns3:TrackPointExtension>
            <ns3:hr>133</ns3:hr>
            <ns3:cad>0</ns3:cad>
          </ns3:TrackPointExtension>
        </extensions>
      </trkpt>
      <trkpt lat="37.98862583935260772705078125" lon="-107.7453729696571826934814453125">
        <ele>4016.39990234375</ele>
        <time>2026-08-15T15:20:48.000Z</time>
        <extensions>
          <ns3:TrackPointExtension>
            <ns3:hr>130</ns3:hr>
            <ns3:cad>0</ns3:cad>
          </ns3:TrackPointExtension>
        </extensions>
      </trkpt>
      <trkpt lat="37.98862583935260772705078125" lon="-107.7453729696571826934814453125">
        <ele>4016.199951171875</ele>
        <time>2026-08-15T15:20:49.000Z</time>
        <extensions>
          <ns3:TrackPointExtension>
            <ns3:hr>127</ns3:hr>
            <ns3:cad>0</ns3:cad>
          </ns3:TrackPointExtension>
        </extensions>
      </trkpt>
      <trkpt lat="37.98862583935260772705078125" lon="-107.7453729696571826934814453125">
        <ele>4016.60009765625</ele>
        <time>2026-08-15T15:20:52.000Z</time>
        <extensions>
          <ns3:TrackPointExtension>
            <ns3:hr>124</ns3:hr>
            <ns3:cad>0</ns3:cad>
          </ns3:TrackPointExtension>
        </extensions>
      </trkpt>
      <trkpt lat="37.98862583935260772705078125" lon="-107.7453729696571826934814453125">
        <ele>4016.800048828125</ele>
        <time>2026-08-15T15:20:57.000Z</time>
        <extensions>
          <ns3:TrackPointExtension>
            <ns3:hr>124</ns3:hr>
            <ns3:cad>0</ns3:cad>
          </ns3:TrackPointExtension>
        </extensions>
      </trkpt>
      <trkpt lat="37.98862583935260772705078125" lon="-107.7453729696571826934814453125">
        <ele>4016.60009765625</ele>
        <time>2026-08-15T15:21:03.000Z</time>
        <extensions>
          <ns3:TrackPointExtension>
            <ns3:hr>123</ns3:hr>
            <ns3:cad>0</ns3:cad>
          </ns3:TrackPointExtension>
        </extensions>
      </trkpt>
      <trkpt lat="37.98862583935260772705078125" lon="-107.7453729696571826934814453125">
        <ele>4016.60009765625</ele>
        <time>2026-08-15T15:21:05.000Z</time>
        <extensions>
          <ns3:TrackPointExtension>
            <ns3:hr>123</ns3:hr>
            <ns3:cad>0</ns3:cad>
          </ns3:TrackPointExtension>
        </extensions>
      </trkpt>
      <trkpt lat="37.98862583935260772705078125" lon="-107.7453729696571826934814453125">
        <ele>4016.60009765625</ele>
        <time>2026-08-15T15:21:11.000Z</time>
        <extensions>
          <ns3:TrackPointExtension>
            <ns3:hr>121</ns3:hr>
            <ns3:cad>0</ns3:cad>
          </ns3:TrackPointExtension>
        </extensions>
      </trkpt>
      <trkpt lat="37.98862583935260772705078125" lon="-107.7453729696571826934814453125">
        <ele>4017</ele>
        <time>2026-08-15T15:21:13.000Z</time>
        <extensions>
          <ns3:TrackPointExtension>
            <ns3:hr>117</ns3:hr>
            <ns3:cad>0</ns3:cad>
          </ns3:TrackPointExtension>
        </extensions>
      </trkpt>
      <trkpt lat="37.98862583935260772705078125" lon="-107.7453729696571826934814453125">
        <ele>4016.800048828125</ele>
        <time>2026-08-15T15:21:18.000Z</time>
        <extensions>
          <ns3:TrackPointExtension>
            <ns3:hr>114</ns3:hr>
            <ns3:cad>0</ns3:cad>
          </ns3:TrackPointExtension>
        </extensions>
      </trkpt>
      <trkpt lat="37.98862583935260772705078125" lon="-107.7453729696571826934814453125">
        <ele>4016.800048828125</ele>
        <time>2026-08-15T15:21:19.000Z</time>
        <extensions>
          <ns3:TrackPointExtension>
            <ns3:hr>114</ns3:hr>
            <ns3:cad>0</ns3:cad>
          </ns3:TrackPointExtension>
        </extensions>
      </trkpt>
      <trkpt lat="37.98862583935260772705078125" lon="-107.7453729696571826934814453125">
        <ele>4016.800048828125</ele>
        <time>2026-08-15T15:21:25.000Z</time>
        <extensions>
          <ns3:TrackPointExtension>
            <ns3:hr>114</ns3:hr>
            <ns3:cad>0</ns3:cad>
          </ns3:TrackPointExtension>
        </extensions>
      </trkpt>
      <trkpt lat="37.98862583935260772705078125" lon="-107.7453729696571826934814453125">
        <ele>4016.60009765625</ele>
        <time>2026-08-15T15:21:31.000Z</time>
        <extensions>
          <ns3:TrackPointExtension>
            <ns3:hr>113</ns3:hr>
            <ns3:cad>0</ns3:cad>
          </ns3:TrackPointExtension>
        </extensions>
      </trkpt>
      <trkpt lat="37.98862583935260772705078125" lon="-107.7453729696571826934814453125">
        <ele>4016.800048828125</ele>
        <time>2026-08-15T15:21:33.000Z</time>
        <extensions>
          <ns3:TrackPointExtension>
            <ns3:hr>110</ns3:hr>
            <ns3:cad>0</ns3:cad>
          </ns3:TrackPointExtension>
        </extensions>
      </trkpt>
      <trkpt lat="37.98862583935260772705078125" lon="-107.7453729696571826934814453125">
        <ele>4016.39990234375</ele>
        <time>2026-08-15T15:21:39.000Z</time>
        <extensions>
          <ns3:TrackPointExtension>
            <ns3:hr>110</ns3:hr>
            <ns3:cad>0</ns3:cad>
          </ns3:TrackPointExtension>
        </extensions>
      </trkpt>
      <trkpt lat="37.98862583935260772705078125" lon="-107.7453729696571826934814453125">
        <ele>4016.800048828125</ele>
        <time>2026-08-15T15:21:45.000Z</time>
        <extensions>
          <ns3:TrackPointExtension>
            <ns3:hr>109</ns3:hr>
            <ns3:cad>0</ns3:cad>
          </ns3:TrackPointExtension>
        </extensions>
      </trkpt>
      <trkpt lat="37.98862583935260772705078125" lon="-107.7453729696571826934814453125">
        <ele>4016.39990234375</ele>
        <time>2026-08-15T15:21:50.000Z</time>
        <extensions>
          <ns3:TrackPointExtension>
            <ns3:hr>108</ns3:hr>
            <ns3:cad>0</ns3:cad>
          </ns3:TrackPointExtension>
        </extensions>
      </trkpt>
      <trkpt lat="37.98862583935260772705078125" lon="-107.7453729696571826934814453125">
        <ele>4016.800048828125</ele>
        <time>2026-08-15T15:21:56.000Z</time>
        <extensions>
          <ns3:TrackPointExtension>
            <ns3:hr>107</ns3:hr>
            <ns3:cad>0</ns3:cad>
          </ns3:TrackPointExtension>
        </extensions>
      </trkpt>
      <trkpt lat="37.98862583935260772705078125" lon="-107.7453729696571826934814453125">
        <ele>4016.60009765625</ele>
        <time>2026-08-15T15:22:01.000Z</time>
        <extensions>
          <ns3:TrackPointExtension>
            <ns3:hr>110</ns3:hr>
            <ns3:cad>0</ns3:cad>
          </ns3:TrackPointExtension>
        </extensions>
      </trkpt>
      <trkpt lat="37.98862583935260772705078125" lon="-107.7453729696571826934814453125">
        <ele>4016.60009765625</ele>
        <time>2026-08-15T15:22:05.000Z</time>
        <extensions>
          <ns3:TrackPointExtension>
            <ns3:hr>109</ns3:hr>
            <ns3:cad>0</ns3:cad>
          </ns3:TrackPointExtension>
        </extensions>
      </trkpt>
      <trkpt lat="37.98862583935260772705078125" lon="-107.7453729696571826934814453125">
        <ele>4016.39990234375</ele>
        <time>2026-08-15T15:22:11.000Z</time>
        <extensions>
          <ns3:TrackPointExtension>
            <ns3:hr>109</ns3:hr>
            <ns3:cad>0</ns3:cad>
          </ns3:TrackPointExtension>
        </extensions>
      </trkpt>
      <trkpt lat="37.98862583935260772705078125" lon="-107.7453729696571826934814453125">
        <ele>4016.39990234375</ele>
        <time>2026-08-15T15:22:16.000Z</time>
        <extensions>
          <ns3:TrackPointExtension>
            <ns3:hr>110</ns3:hr>
            <ns3:cad>0</ns3:cad>
          </ns3:TrackPointExtension>
        </extensions>
      </trkpt>
      <trkpt lat="37.98862583935260772705078125" lon="-107.7453729696571826934814453125">
        <ele>4016.199951171875</ele>
        <time>2026-08-15T15:22:22.000Z</time>
        <extensions>
          <ns3:TrackPointExtension>
            <ns3:hr>110</ns3:hr>
            <ns3:cad>0</ns3:cad>
          </ns3:TrackPointExtension>
        </extensions>
      </trkpt>
      <trkpt lat="37.98862583935260772705078125" lon="-107.7453729696571826934814453125">
        <ele>4016.199951171875</ele>
        <time>2026-08-15T15:22:27.000Z</time>
        <extensions>
          <ns3:TrackPointExtension>
            <ns3:hr>111</ns3:hr>
            <ns3:cad>0</ns3:cad>
          </ns3:TrackPointExtension>
        </extensions>
      </trkpt>
      <trkpt lat="37.98862583935260772705078125" lon="-107.7453729696571826934814453125">
        <ele>4016.199951171875</ele>
        <time>2026-08-15T15:22:33.000Z</time>
        <extensions>
          <ns3:TrackPointExtension>
            <ns3:hr>110</ns3:hr>
            <ns3:cad>0</ns3:cad>
          </ns3:TrackPointExtension>
        </extensions>
      </trkpt>
      <trkpt lat="37.98862583935260772705078125" lon="-107.7453729696571826934814453125">
        <ele>4016.199951171875</ele>
        <time>2026-08-15T15:22:35.000Z</time>
        <extensions>
          <ns3:TrackPointExtension>
            <ns3:hr>107</ns3:hr>
            <ns3:cad>0</ns3:cad>
          </ns3:TrackPointExtension>
        </extensions>
      </trkpt>
      <trkpt lat="37.98862583935260772705078125" lon="-107.7453729696571826934814453125">
        <ele>4016</ele>
        <time>2026-08-15T15:22:37.000Z</time>
        <extensions>
          <ns3:TrackPointExtension>
            <ns3:hr>102</ns3:hr>
            <ns3:cad>0</ns3:cad>
          </ns3:TrackPointExtension>
        </extensions>
      </trkpt>
      <trkpt lat="37.98862583935260772705078125" lon="-107.7453729696571826934814453125">
        <ele>4015.800048828125</ele>
        <time>2026-08-15T15:22:39.000Z</time>
        <extensions>
          <ns3:TrackPointExtension>
            <ns3:hr>101</ns3:hr>
            <ns3:cad>0</ns3:cad>
          </ns3:TrackPointExtension>
        </extensions>
      </trkpt>
      <trkpt lat="37.98862583935260772705078125" lon="-107.7453729696571826934814453125">
        <ele>4015.39990234375</ele>
        <time>2026-08-15T15:22:43.000Z</time>
        <extensions>
          <ns3:TrackPointExtension>
            <ns3:hr>104</ns3:hr>
            <ns3:cad>0</ns3:cad>
          </ns3:TrackPointExtension>
        </extensions>
      </trkpt>
      <trkpt lat="37.98862583935260772705078125" lon="-107.7453729696571826934814453125">
        <ele>4015.199951171875</ele>
        <time>2026-08-15T15:22:49.000Z</time>
        <extensions>
          <ns3:TrackPointExtension>
            <ns3:hr>102</ns3:hr>
            <ns3:cad>0</ns3:cad>
          </ns3:TrackPointExtension>
        </extensions>
      </trkpt>
      <trkpt lat="37.98862583935260772705078125" lon="-107.7453729696571826934814453125">
        <ele>4015.60009765625</ele>
        <time>2026-08-15T15:22:55.000Z</time>
        <extensions>
          <ns3:TrackPointExtension>
            <ns3:hr>101</ns3:hr>
            <ns3:cad>0</ns3:cad>
          </ns3:TrackPointExtension>
        </extensions>
      </trkpt>
      <trkpt lat="37.98862583935260772705078125" lon="-107.7453729696571826934814453125">
        <ele>4015.60009765625</ele>
        <time>2026-08-15T15:22:57.000Z</time>
        <extensions>
          <ns3:TrackPointExtension>
            <ns3:hr>100</ns3:hr>
            <ns3:cad>0</ns3:cad>
          </ns3:TrackPointExtension>
        </extensions>
      </trkpt>
      <trkpt lat="37.98862583935260772705078125" lon="-107.7453729696571826934814453125">
        <ele>4015.800048828125</ele>
        <time>2026-08-15T15:23:03.000Z</time>
        <extensions>
          <ns3:TrackPointExtension>
            <ns3:hr>104</ns3:hr>
            <ns3:cad>0</ns3:cad>
          </ns3:TrackPointExtension>
        </extensions>
      </trkpt>
      <trkpt lat="37.98862583935260772705078125" lon="-107.7453729696571826934814453125">
        <ele>4015.39990234375</ele>
        <time>2026-08-15T15:23:09.000Z</time>
        <extensions>
          <ns3:TrackPointExtension>
            <ns3:hr>102</ns3:hr>
            <ns3:cad>0</ns3:cad>
          </ns3:TrackPointExtension>
        </extensions>
      </trkpt>
      <trkpt lat="37.98862583935260772705078125" lon="-107.7453729696571826934814453125">
        <ele>4015.60009765625</ele>
        <time>2026-08-15T15:23:15.000Z</time>
        <extensions>
          <ns3:TrackPointExtension>
            <ns3:hr>101</ns3:hr>
            <ns3:cad>0</ns3:cad>
          </ns3:TrackPointExtension>
        </extensions>
      </trkpt>
      <trkpt lat="37.98862583935260772705078125" lon="-107.7453729696571826934814453125">
        <ele>4015.60009765625</ele>
        <time>2026-08-15T15:23:18.000Z</time>
        <extensions>
          <ns3:TrackPointExtension>
            <ns3:hr>102</ns3:hr>
            <ns3:cad>0</ns3:cad>
          </ns3:TrackPointExtension>
        </extensions>
      </trkpt>
      <trkpt lat="37.98862583935260772705078125" lon="-107.7453729696571826934814453125">
        <ele>4015.199951171875</ele>
        <time>2026-08-15T15:23:24.000Z</time>
        <extensions>
          <ns3:TrackPointExtension>
            <ns3:hr>102</ns3:hr>
            <ns3:cad>0</ns3:cad>
          </ns3:TrackPointExtension>
        </extensions>
      </trkpt>
      <trkpt lat="37.98862583935260772705078125" lon="-107.7453729696571826934814453125">
        <ele>4015.60009765625</ele>
        <time>2026-08-15T15:23:30.000Z</time>
        <extensions>
          <ns3:TrackPointExtension>
            <ns3:hr>102</ns3:hr>
            <ns3:cad>0</ns3:cad>
          </ns3:TrackPointExtension>
        </extensions>
      </trkpt>
      <trkpt lat="37.98862583935260772705078125" lon="-107.7453729696571826934814453125">
        <ele>4015.800048828125</ele>
        <time>2026-08-15T15:23:31.000Z</time>
        <extensions>
          <ns3:TrackPointExtension>
            <ns3:hr>101</ns3:hr>
            <ns3:cad>0</ns3:cad>
          </ns3:TrackPointExtension>
        </extensions>
      </trkpt>
      <trkpt lat="37.98862583935260772705078125" lon="-107.7453729696571826934814453125">
        <ele>4015.199951171875</ele>
        <time>2026-08-15T15:23:37.000Z</time>
        <extensions>
          <ns3:TrackPointExtension>
            <ns3:hr>102</ns3:hr>
            <ns3:cad>0</ns3:cad>
          </ns3:TrackPointExtension>
        </extensions>
      </trkpt>
      <trkpt lat="37.98862583935260772705078125" lon="-107.7453729696571826934814453125">
        <ele>4015</ele>
        <time>2026-08-15T15:23:40.000Z</time>
        <extensions>
          <ns3:TrackPointExtension>
            <ns3:hr>99</ns3:hr>
            <ns3:cad>0</ns3:cad>
          </ns3:TrackPointExtension>
        </extensions>
      </trkpt>
      <trkpt lat="37.98862625844776630401611328125" lon="-107.74538830853998661041259765625">
        <ele>4015</ele>
        <time>2026-08-15T15:23:44.000Z</time>
        <extensions>
          <ns3:TrackPointExtension>
            <ns3:hr>101</ns3:hr>
            <ns3:cad>0</ns3:cad>
          </ns3:TrackPointExtension>
        </extensions>
      </trkpt>
      <trkpt lat="37.98862583935260772705078125" lon="-107.7453729696571826934814453125">
        <ele>4014.800048828125</ele>
        <time>2026-08-15T15:23:45.000Z</time>
        <extensions>
          <ns3:TrackPointExtension>
            <ns3:hr>104</ns3:hr>
            <ns3:cad>0</ns3:cad>
          </ns3:TrackPointExtension>
        </extensions>
      </trkpt>
      <trkpt lat="37.98861821182072162628173828125" lon="-107.74536400102078914642333984375">
        <ele>4014.60009765625</ele>
        <time>2026-08-15T15:23:50.000Z</time>
        <extensions>
          <ns3:TrackPointExtension>
            <ns3:hr>107</ns3:hr>
            <ns3:cad>0</ns3:cad>
          </ns3:TrackPointExtension>
        </extensions>
      </trkpt>
      <trkpt lat="37.9886038787662982940673828125" lon="-107.7453484944999217987060546875">
        <ele>4013.800048828125</ele>
        <time>2026-08-15T15:23:54.000Z</time>
        <extensions>
          <ns3:TrackPointExtension>
            <ns3:hr>107</ns3:hr>
            <ns3:cad>0</ns3:cad>
          </ns3:TrackPointExtension>
        </extensions>
      </trkpt>
      <trkpt lat="37.9886038787662982940673828125" lon="-107.7453484944999217987060546875">
        <ele>4013.60009765625</ele>
        <time>2026-08-15T15:23:56.000Z</time>
        <extensions>
          <ns3:TrackPointExtension>
            <ns3:hr>101</ns3:hr>
            <ns3:cad>0</ns3:cad>
          </ns3:TrackPointExtension>
        </extensions>
      </trkpt>
      <trkpt lat="37.9886038787662982940673828125" lon="-107.7453484944999217987060546875">
        <ele>4013.60009765625</ele>
        <time>2026-08-15T15:23:57.000Z</time>
        <extensions>
          <ns3:TrackPointExtension>
            <ns3:hr>98</ns3:hr>
            <ns3:cad>0</ns3:cad>
          </ns3:TrackPointExtension>
        </extensions>
      </trkpt>
      <trkpt lat="37.9886038787662982940673828125" lon="-107.7453484944999217987060546875">
        <ele>4014.39990234375</ele>
        <time>2026-08-15T15:24:03.000Z</time>
        <extensions>
          <ns3:TrackPointExtension>
            <ns3:hr>98</ns3:hr>
            <ns3:cad>0</ns3:cad>
          </ns3:TrackPointExtension>
        </extensions>
      </trkpt>
      <trkpt lat="37.9886038787662982940673828125" lon="-107.7453484944999217987060546875">
        <ele>4014.39990234375</ele>
        <time>2026-08-15T15:24:05.000Z</time>
        <extensions>
          <ns3:TrackPointExtension>
            <ns3:hr>102</ns3:hr>
            <ns3:cad>0</ns3:cad>
          </ns3:TrackPointExtension>
        </extensions>
      </trkpt>
      <trkpt lat="37.9886038787662982940673828125" lon="-107.7453484944999217987060546875">
        <ele>4014</ele>
        <time>2026-08-15T15:24:11.000Z</time>
        <extensions>
          <ns3:TrackPointExtension>
            <ns3:hr>100</ns3:hr>
            <ns3:cad>0</ns3:cad>
          </ns3:TrackPointExtension>
        </extensions>
      </trkpt>
      <trkpt lat="37.9886038787662982940673828125" lon="-107.7453484944999217987060546875">
        <ele>4013.800048828125</ele>
        <time>2026-08-15T15:24:15.000Z</time>
        <extensions>
          <ns3:TrackPointExtension>
            <ns3:hr>100</ns3:hr>
            <ns3:cad>0</ns3:cad>
          </ns3:TrackPointExtension>
        </extensions>
      </trkpt>
      <trkpt lat="37.98858300782740116119384765625" lon="-107.74535058997571468353271484375">
        <ele>4014.60009765625</ele>
        <time>2026-08-15T15:24:20.000Z</time>
        <extensions>
          <ns3:TrackPointExtension>
            <ns3:hr>100</ns3:hr>
            <ns3:cad>0</ns3:cad>
          </ns3:TrackPointExtension>
        </extensions>
      </trkpt>
      <trkpt lat="37.98857445828616619110107421875" lon="-107.745368778705596923828125">
        <ele>4013.60009765625</ele>
        <time>2026-08-15T15:24:26.000Z</time>
        <extensions>
          <ns3:TrackPointExtension>
            <ns3:hr>102</ns3:hr>
            <ns3:cad>0</ns3:cad>
          </ns3:TrackPointExtension>
        </extensions>
      </trkpt>
      <trkpt lat="37.98857445828616619110107421875" lon="-107.745368778705596923828125">
        <ele>4013.39990234375</ele>
        <time>2026-08-15T15:24:27.000Z</time>
        <extensions>
          <ns3:TrackPointExtension>
            <ns3:hr>103</ns3:hr>
            <ns3:cad>0</ns3:cad>
          </ns3:TrackPointExtension>
        </extensions>
      </trkpt>
      <trkpt lat="37.98857445828616619110107421875" lon="-107.745368778705596923828125">
        <ele>4013.60009765625</ele>
        <time>2026-08-15T15:24:32.000Z</time>
        <extensions>
          <ns3:TrackPointExtension>
            <ns3:hr>106</ns3:hr>
            <ns3:cad>0</ns3:cad>
          </ns3:TrackPointExtension>
        </extensions>
      </trkpt>
      <trkpt lat="37.98856792040169239044189453125" lon="-107.74537422694265842437744140625">
        <ele>4013.39990234375</ele>
        <time>2026-08-15T15:24:34.000Z</time>
        <extensions>
          <ns3:TrackPointExtension>
            <ns3:hr>103</ns3:hr>
            <ns3:cad>0</ns3:cad>
          </ns3:TrackPointExtension>
        </extensions>
      </trkpt>
      <trkpt lat="37.98856406472623348236083984375" lon="-107.745377831161022186279296875">
        <ele>4013.199951171875</ele>
        <time>2026-08-15T15:24:35.000Z</time>
        <extensions>
          <ns3:TrackPointExtension>
            <ns3:hr>103</ns3:hr>
            <ns3:cad>0</ns3:cad>
          </ns3:TrackPointExtension>
        </extensions>
      </trkpt>
      <trkpt lat="37.98855836503207683563232421875" lon="-107.7453823573887348175048828125">
        <ele>4013</ele>
        <time>2026-08-15T15:24:36.000Z</time>
        <extensions>
          <ns3:TrackPointExtension>
            <ns3:hr>99</ns3:hr>
            <ns3:cad>0</ns3:cad>
          </ns3:TrackPointExtension>
        </extensions>
      </trkpt>
      <trkpt lat="37.9885495640337467193603515625" lon="-107.74539501406252384185791015625">
        <ele>4012.60009765625</ele>
        <time>2026-08-15T15:24:38.000Z</time>
        <extensions>
          <ns3:TrackPointExtension>
            <ns3:hr>96</ns3:hr>
            <ns3:cad>0</ns3:cad>
          </ns3:TrackPointExtension>
        </extensions>
      </trkpt>
      <trkpt lat="37.98853640444576740264892578125" lon="-107.74540473707020282745361328125">
        <ele>4012</ele>
        <time>2026-08-15T15:24:42.000Z</time>
        <extensions>
          <ns3:TrackPointExtension>
            <ns3:hr>93</ns3:hr>
            <ns3:cad>0</ns3:cad>
          </ns3:TrackPointExtension>
        </extensions>
      </trkpt>
      <trkpt lat="37.9885341413319110870361328125" lon="-107.74540624581277370452880859375">
        <ele>4011.800048828125</ele>
        <time>2026-08-15T15:24:43.000Z</time>
        <extensions>
          <ns3:TrackPointExtension>
            <ns3:hr>93</ns3:hr>
            <ns3:cad>0</ns3:cad>
          </ns3:TrackPointExtension>
        </extensions>
      </trkpt>
      <trkpt lat="37.9885217361152172088623046875" lon="-107.7454182319343090057373046875">
        <ele>4011.39990234375</ele>
        <time>2026-08-15T15:24:47.000Z</time>
        <extensions>
          <ns3:TrackPointExtension>
            <ns3:hr>93</ns3:hr>
            <ns3:cad>0</ns3:cad>
          </ns3:TrackPointExtension>
        </extensions>
      </trkpt>
      <trkpt lat="37.98850103281438350677490234375" lon="-107.7454517595469951629638671875">
        <ele>4010.60009765625</ele>
        <time>2026-08-15T15:24:52.000Z</time>
        <extensions>
          <ns3:TrackPointExtension>
            <ns3:hr>92</ns3:hr>
            <ns3:cad>0</ns3:cad>
          </ns3:TrackPointExtension>
        </extensions>
      </trkpt>
      <trkpt lat="37.9884977638721466064453125" lon="-107.74545653723180294036865234375">
        <ele>4010.39990234375</ele>
        <time>2026-08-15T15:24:53.000Z</time>
        <extensions>
          <ns3:TrackPointExtension>
            <ns3:hr>93</ns3:hr>
            <ns3:cad>0</ns3:cad>
          </ns3:TrackPointExtension>
        </extensions>
      </trkpt>
      <trkpt lat="37.98848745413124561309814453125" lon="-107.74548738263547420501708984375">
        <ele>4009.199951171875</ele>
        <time>2026-08-15T15:24:57.000Z</time>
        <extensions>
          <ns3:TrackPointExtension>
            <ns3:hr>93</ns3:hr>
            <ns3:cad>52</ns3:cad>
          </ns3:TrackPointExtension>
        </extensions>
      </trkpt>
      <trkpt lat="37.9884808324277400970458984375" lon="-107.74549827910959720611572265625">
        <ele>4008.800048828125</ele>
        <time>2026-08-15T15:24:59.000Z</time>
        <extensions>
          <ns3:TrackPointExtension>
            <ns3:hr>93</ns3:hr>
            <ns3:cad>52</ns3:cad>
          </ns3:TrackPointExtension>
        </extensions>
      </trkpt>
      <trkpt lat="37.98846331425011157989501953125" lon="-107.74553650058805942535400390625">
        <ele>4008.199951171875</ele>
        <time>2026-08-15T15:25:04.000Z</time>
        <extensions>
          <ns3:TrackPointExtension>
            <ns3:hr>94</ns3:hr>
            <ns3:cad>0</ns3:cad>
          </ns3:TrackPointExtension>
        </extensions>
      </trkpt>
      <trkpt lat="37.988445796072483062744140625" lon="-107.7455630712211132049560546875">
        <ele>4007.199951171875</ele>
        <time>2026-08-15T15:25:08.000Z</time>
        <extensions>
          <ns3:TrackPointExtension>
            <ns3:hr>96</ns3:hr>
            <ns3:cad>0</ns3:cad>
          </ns3:TrackPointExtension>
        </extensions>
      </trkpt>
      <trkpt lat="37.9884412698447704315185546875" lon="-107.74556583724915981292724609375">
        <ele>4006.800048828125</ele>
        <time>2026-08-15T15:25:09.000Z</time>
        <extensions>
          <ns3:TrackPointExtension>
            <ns3:hr>96</ns3:hr>
            <ns3:cad>0</ns3:cad>
          </ns3:TrackPointExtension>
        </extensions>
      </trkpt>
      <trkpt lat="37.98843246884644031524658203125" lon="-107.745595090091228485107421875">
        <ele>4006.199951171875</ele>
        <time>2026-08-15T15:25:15.000Z</time>
        <extensions>
          <ns3:TrackPointExtension>
            <ns3:hr>98</ns3:hr>
            <ns3:cad>0</ns3:cad>
          </ns3:TrackPointExtension>
        </extensions>
      </trkpt>
      <trkpt lat="37.98841268755495548248291015625" lon="-107.74565736763179302215576171875">
        <ele>4006.39990234375</ele>
        <time>2026-08-15T15:25:21.000Z</time>
        <extensions>
          <ns3:TrackPointExtension>
            <ns3:hr>99</ns3:hr>
            <ns3:cad>0</ns3:cad>
          </ns3:TrackPointExtension>
        </extensions>
      </trkpt>
      <trkpt lat="37.988390140235424041748046875" lon="-107.745724506676197052001953125">
        <ele>4006.199951171875</ele>
        <time>2026-08-15T15:25:27.000Z</time>
        <extensions>
          <ns3:TrackPointExtension>
            <ns3:hr>97</ns3:hr>
            <ns3:cad>0</ns3:cad>
          </ns3:TrackPointExtension>
        </extensions>
      </trkpt>
      <trkpt lat="37.98838938586413860321044921875" lon="-107.745726518332958221435546875">
        <ele>4006.199951171875</ele>
        <time>2026-08-15T15:25:28.000Z</time>
        <extensions>
          <ns3:TrackPointExtension>
            <ns3:hr>97</ns3:hr>
            <ns3:cad>0</ns3:cad>
          </ns3:TrackPointExtension>
        </extensions>
      </trkpt>
      <trkpt lat="37.988388128578662872314453125" lon="-107.7457273565232753753662109375">
        <ele>4006.39990234375</ele>
        <time>2026-08-15T15:25:30.000Z</time>
        <extensions>
          <ns3:TrackPointExtension>
            <ns3:hr>97</ns3:hr>
            <ns3:cad>0</ns3:cad>
          </ns3:TrackPointExtension>
        </extensions>
      </trkpt>
      <trkpt lat="37.988388128578662872314453125" lon="-107.7457273565232753753662109375">
        <ele>4006.199951171875</ele>
        <time>2026-08-15T15:25:33.000Z</time>
        <extensions>
          <ns3:TrackPointExtension>
            <ns3:hr>100</ns3:hr>
            <ns3:cad>0</ns3:cad>
          </ns3:TrackPointExtension>
        </extensions>
      </trkpt>
      <trkpt lat="37.988388128578662872314453125" lon="-107.7457273565232753753662109375">
        <ele>4006.199951171875</ele>
        <time>2026-08-15T15:25:34.000Z</time>
        <extensions>
          <ns3:TrackPointExtension>
            <ns3:hr>103</ns3:hr>
            <ns3:cad>0</ns3:cad>
          </ns3:TrackPointExtension>
        </extensions>
      </trkpt>
      <trkpt lat="37.988388128578662872314453125" lon="-107.7457273565232753753662109375">
        <ele>4006.199951171875</ele>
        <time>2026-08-15T15:25:35.000Z</time>
        <extensions>
          <ns3:TrackPointExtension>
            <ns3:hr>103</ns3:hr>
            <ns3:cad>0</ns3:cad>
          </ns3:TrackPointExtension>
        </extensions>
      </trkpt>
      <trkpt lat="37.9883849434554576873779296875" lon="-107.745733894407749176025390625">
        <ele>4006</ele>
        <time>2026-08-15T15:25:36.000Z</time>
        <extensions>
          <ns3:TrackPointExtension>
            <ns3:hr>104</ns3:hr>
            <ns3:cad>0</ns3:cad>
          </ns3:TrackPointExtension>
        </extensions>
      </trkpt>
      <trkpt lat="37.98837966285645961761474609375" lon="-107.74576934985816478729248046875">
        <ele>4005.800048828125</ele>
        <time>2026-08-15T15:25:39.000Z</time>
        <extensions>
          <ns3:TrackPointExtension>
            <ns3:hr>104</ns3:hr>
            <ns3:cad>0</ns3:cad>
          </ns3:TrackPointExtension>
        </extensions>
      </trkpt>
      <trkpt lat="37.98838804475963115692138671875" lon="-107.7458341419696807861328125">
        <ele>4005.39990234375</ele>
        <time>2026-08-15T15:25:44.000Z</time>
        <extensions>
          <ns3:TrackPointExtension>
            <ns3:hr>103</ns3:hr>
            <ns3:cad>45</ns3:cad>
          </ns3:TrackPointExtension>
        </extensions>
      </trkpt>
      <trkpt lat="37.98839156515896320343017578125" lon="-107.7458618022501468658447265625">
        <ele>4004.800048828125</ele>
        <time>2026-08-15T15:25:48.000Z</time>
        <extensions>
          <ns3:TrackPointExtension>
            <ns3:hr>102</ns3:hr>
            <ns3:cad>47</ns3:cad>
          </ns3:TrackPointExtension>
        </extensions>
      </trkpt>
      <trkpt lat="37.988382764160633087158203125" lon="-107.74589474312961101531982421875">
        <ele>4004.39990234375</ele>
        <time>2026-08-15T15:25:52.000Z</time>
        <extensions>
          <ns3:TrackPointExtension>
            <ns3:hr>102</ns3:hr>
            <ns3:cad>45</ns3:cad>
          </ns3:TrackPointExtension>
        </extensions>
      </trkpt>
      <trkpt lat="37.98838234506547451019287109375" lon="-107.74593967013061046600341796875">
        <ele>4003.60009765625</ele>
        <time>2026-08-15T15:25:56.000Z</time>
        <extensions>
          <ns3:TrackPointExtension>
            <ns3:hr>102</ns3:hr>
            <ns3:cad>45</ns3:cad>
          </ns3:TrackPointExtension>
        </extensions>
      </trkpt>
      <trkpt lat="37.98839290626347064971923828125" lon="-107.7459714375436305999755859375">
        <ele>4003.800048828125</ele>
        <time>2026-08-15T15:25:59.000Z</time>
        <extensions>
          <ns3:TrackPointExtension>
            <ns3:hr>101</ns3:hr>
            <ns3:cad>45</ns3:cad>
          </ns3:TrackPointExtension>
        </extensions>
      </trkpt>
      <trkpt lat="37.98839374445378780364990234375" lon="-107.746000774204730987548828125">
        <ele>4004</ele>
        <time>2026-08-15T15:26:02.000Z</time>
        <extensions>
          <ns3:TrackPointExtension>
            <ns3:hr>98</ns3:hr>
            <ns3:cad>45</ns3:cad>
          </ns3:TrackPointExtension>
        </extensions>
      </trkpt>
      <trkpt lat="37.98840983770787715911865234375" lon="-107.7460567653179168701171875">
        <ele>4004</ele>
        <time>2026-08-15T15:26:08.000Z</time>
        <extensions>
          <ns3:TrackPointExtension>
            <ns3:hr>97</ns3:hr>
            <ns3:cad>0</ns3:cad>
          </ns3:TrackPointExtension>
        </extensions>
      </trkpt>
      <trkpt lat="37.9884342290461063385009765625" lon="-107.74612977169454097747802734375">
        <ele>4004.60009765625</ele>
        <time>2026-08-15T15:26:14.000Z</time>
        <extensions>
          <ns3:TrackPointExtension>
            <ns3:hr>97</ns3:hr>
            <ns3:cad>43</ns3:cad>
          </ns3:TrackPointExtension>
        </extensions>
      </trkpt>
      <trkpt lat="37.9884372465312480926513671875" lon="-107.7461548335850238800048828125">
        <ele>4004.60009765625</ele>
        <time>2026-08-15T15:26:16.000Z</time>
        <extensions>
          <ns3:TrackPointExtension>
            <ns3:hr>98</ns3:hr>
            <ns3:cad>44</ns3:cad>
          </ns3:TrackPointExtension>
        </extensions>
      </trkpt>
      <trkpt lat="37.98843984492123126983642578125" lon="-107.74616313166916370391845703125">
        <ele>4004.800048828125</ele>
        <time>2026-08-15T15:26:17.000Z</time>
        <extensions>
          <ns3:TrackPointExtension>
            <ns3:hr>98</ns3:hr>
            <ns3:cad>44</ns3:cad>
          </ns3:TrackPointExtension>
        </extensions>
      </trkpt>
      <trkpt lat="37.98844747245311737060546875" lon="-107.746216692030429840087890625">
        <ele>4005</ele>
        <time>2026-08-15T15:26:22.000Z</time>
        <extensions>
          <ns3:TrackPointExtension>
            <ns3:hr>99</ns3:hr>
            <ns3:cad>44</ns3:cad>
          </ns3:TrackPointExtension>
        </extensions>
      </trkpt>
      <trkpt lat="37.98844990320503711700439453125" lon="-107.74626757018268108367919921875">
        <ele>4005</ele>
        <time>2026-08-15T15:26:28.000Z</time>
        <extensions>
          <ns3:TrackPointExtension>
            <ns3:hr>100</ns3:hr>
            <ns3:cad>0</ns3:cad>
          </ns3:TrackPointExtension>
        </extensions>
      </trkpt>
      <trkpt lat="37.988453842699527740478515625" lon="-107.74627360515296459197998046875">
        <ele>4004.800048828125</ele>
        <time>2026-08-15T15:26:29.000Z</time>
        <extensions>
          <ns3:TrackPointExtension>
            <ns3:hr>101</ns3:hr>
            <ns3:cad>0</ns3:cad>
          </ns3:TrackPointExtension>
        </extensions>
      </trkpt>
      <trkpt lat="37.98844722099602222442626953125" lon="-107.7463251538574695587158203125">
        <ele>4004.199951171875</ele>
        <time>2026-08-15T15:26:35.000Z</time>
        <extensions>
          <ns3:TrackPointExtension>
            <ns3:hr>100</ns3:hr>
            <ns3:cad>0</ns3:cad>
          </ns3:TrackPointExtension>
        </extensions>
      </trkpt>
      <trkpt lat="37.9884479753673076629638671875" lon="-107.74633211083710193634033203125">
        <ele>4004.199951171875</ele>
        <time>2026-08-15T15:26:36.000Z</time>
        <extensions>
          <ns3:TrackPointExtension>
            <ns3:hr>100</ns3:hr>
            <ns3:cad>0</ns3:cad>
          </ns3:TrackPointExtension>
        </extensions>
      </trkpt>
      <trkpt lat="37.98844613134860992431640625" lon="-107.74633546359837055206298828125">
        <ele>4004</ele>
        <time>2026-08-15T15:26:42.000Z</time>
        <extensions>
          <ns3:TrackPointExtension>
            <ns3:hr>98</ns3:hr>
            <ns3:cad>0</ns3:cad>
          </ns3:TrackPointExtension>
        </extensions>
      </trkpt>
      <trkpt lat="37.98844613134860992431640625" lon="-107.74633546359837055206298828125">
        <ele>4004</ele>
        <time>2026-08-15T15:26:46.000Z</time>
        <extensions>
          <ns3:TrackPointExtension>
            <ns3:hr>102</ns3:hr>
            <ns3:cad>0</ns3:cad>
          </ns3:TrackPointExtension>
        </extensions>
      </trkpt>
      <trkpt lat="37.98844613134860992431640625" lon="-107.74633546359837055206298828125">
        <ele>4004</ele>
        <time>2026-08-15T15:26:48.000Z</time>
        <extensions>
          <ns3:TrackPointExtension>
            <ns3:hr>107</ns3:hr>
            <ns3:cad>0</ns3:cad>
          </ns3:TrackPointExtension>
        </extensions>
      </trkpt>
      <trkpt lat="37.98844613134860992431640625" lon="-107.74633546359837055206298828125">
        <ele>4004</ele>
        <time>2026-08-15T15:26:49.000Z</time>
        <extensions>
          <ns3:TrackPointExtension>
            <ns3:hr>107</ns3:hr>
            <ns3:cad>0</ns3:cad>
          </ns3:TrackPointExtension>
        </extensions>
      </trkpt>
      <trkpt lat="37.98844487406313419342041015625" lon="-107.74634853936731815338134765625">
        <ele>4004</ele>
        <time>2026-08-15T15:26:51.000Z</time>
        <extensions>
          <ns3:TrackPointExtension>
            <ns3:hr>110</ns3:hr>
            <ns3:cad>0</ns3:cad>
          </ns3:TrackPointExtension>
        </extensions>
      </trkpt>
      <trkpt lat="37.98844252713024616241455078125" lon="-107.7463710866868495941162109375">
        <ele>4003.800048828125</ele>
        <time>2026-08-15T15:26:57.000Z</time>
        <extensions>
          <ns3:TrackPointExtension>
            <ns3:hr>111</ns3:hr>
            <ns3:cad>0</ns3:cad>
          </ns3:TrackPointExtension>
        </extensions>
      </trkpt>
      <trkpt lat="37.98844152130186557769775390625" lon="-107.746373601257801055908203125">
        <ele>4003.60009765625</ele>
        <time>2026-08-15T15:26:58.000Z</time>
        <extensions>
          <ns3:TrackPointExtension>
            <ns3:hr>110</ns3:hr>
            <ns3:cad>0</ns3:cad>
          </ns3:TrackPointExtension>
        </extensions>
      </trkpt>
      <trkpt lat="37.9884224943816661834716796875" lon="-107.74641777388751506805419921875">
        <ele>4003.39990234375</ele>
        <time>2026-08-15T15:27:04.000Z</time>
        <extensions>
          <ns3:TrackPointExtension>
            <ns3:hr>110</ns3:hr>
            <ns3:cad>0</ns3:cad>
          </ns3:TrackPointExtension>
        </extensions>
      </trkpt>
      <trkpt lat="37.9884027130901813507080078125" lon="-107.7464532293379306793212890625">
        <ele>4003.39990234375</ele>
        <time>2026-08-15T15:27:09.000Z</time>
        <extensions>
          <ns3:TrackPointExtension>
            <ns3:hr>107</ns3:hr>
            <ns3:cad>0</ns3:cad>
          </ns3:TrackPointExtension>
        </extensions>
      </trkpt>
      <trkpt lat="37.9884007014334201812744140625" lon="-107.74646454490721225738525390625">
        <ele>4003.60009765625</ele>
        <time>2026-08-15T15:27:10.000Z</time>
        <extensions>
          <ns3:TrackPointExtension>
            <ns3:hr>106</ns3:hr>
            <ns3:cad>0</ns3:cad>
          </ns3:TrackPointExtension>
        </extensions>
      </trkpt>
      <trkpt lat="37.9883889667689800262451171875" lon="-107.7464939653873443603515625">
        <ele>4004.39990234375</ele>
        <time>2026-08-15T15:27:14.000Z</time>
        <extensions>
          <ns3:TrackPointExtension>
            <ns3:hr>103</ns3:hr>
            <ns3:cad>41</ns3:cad>
          </ns3:TrackPointExtension>
        </extensions>
      </trkpt>
      <trkpt lat="37.9883896373212337493896484375" lon="-107.74650578387081623077392578125">
        <ele>4004.60009765625</ele>
        <time>2026-08-15T15:27:16.000Z</time>
        <extensions>
          <ns3:TrackPointExtension>
            <ns3:hr>102</ns3:hr>
            <ns3:cad>0</ns3:cad>
          </ns3:TrackPointExtension>
        </extensions>
      </trkpt>
      <trkpt lat="37.98838402144610881805419921875" lon="-107.74651919491589069366455078125">
        <ele>4004.800048828125</ele>
        <time>2026-08-15T15:27:18.000Z</time>
        <extensions>
          <ns3:TrackPointExtension>
            <ns3:hr>101</ns3:hr>
            <ns3:cad>0</ns3:cad>
          </ns3:TrackPointExtension>
        </extensions>
      </trkpt>
      <trkpt lat="37.98835585825145244598388671875" lon="-107.7465782873332500457763671875">
        <ele>4005.39990234375</ele>
        <time>2026-08-15T15:27:24.000Z</time>
        <extensions>
          <ns3:TrackPointExtension>
            <ns3:hr>102</ns3:hr>
            <ns3:cad>77</ns3:cad>
          </ns3:TrackPointExtension>
        </extensions>
      </trkpt>
      <trkpt lat="37.98833121545612812042236328125" lon="-107.7466155029833316802978515625">
        <ele>4005.199951171875</ele>
        <time>2026-08-15T15:27:30.000Z</time>
        <extensions>
          <ns3:TrackPointExtension>
            <ns3:hr>102</ns3:hr>
            <ns3:cad>41</ns3:cad>
          </ns3:TrackPointExtension>
        </extensions>
      </trkpt>
      <trkpt lat="37.98832350410521030426025390625" lon="-107.74662162177264690399169921875">
        <ele>4005.199951171875</ele>
        <time>2026-08-15T15:27:31.000Z</time>
        <extensions>
          <ns3:TrackPointExtension>
            <ns3:hr>101</ns3:hr>
            <ns3:cad>41</ns3:cad>
          </ns3:TrackPointExtension>
        </extensions>
      </trkpt>
      <trkpt lat="37.98830171115696430206298828125" lon="-107.7466520480811595916748046875">
        <ele>4005.199951171875</ele>
        <time>2026-08-15T15:27:36.000Z</time>
        <extensions>
          <ns3:TrackPointExtension>
            <ns3:hr>98</ns3:hr>
            <ns3:cad>43</ns3:cad>
          </ns3:TrackPointExtension>
        </extensions>
      </trkpt>
      <trkpt lat="37.98829064704477787017822265625" lon="-107.74666202254593372344970703125">
        <ele>4005.199951171875</ele>
        <time>2026-08-15T15:27:38.000Z</time>
        <extensions>
          <ns3:TrackPointExtension>
            <ns3:hr>99</ns3:hr>
            <ns3:cad>43</ns3:cad>
          </ns3:TrackPointExtension>
        </extensions>
      </trkpt>
      <trkpt lat="37.98827287741005420684814453125" lon="-107.74670007638633251190185546875">
        <ele>4005.800048828125</ele>
        <time>2026-08-15T15:27:43.000Z</time>
        <extensions>
          <ns3:TrackPointExtension>
            <ns3:hr>99</ns3:hr>
            <ns3:cad>0</ns3:cad>
          </ns3:TrackPointExtension>
        </extensions>
      </trkpt>
      <trkpt lat="37.9882645793259143829345703125" lon="-107.74671700783073902130126953125">
        <ele>4006</ele>
        <time>2026-08-15T15:27:45.000Z</time>
        <extensions>
          <ns3:TrackPointExtension>
            <ns3:hr>103</ns3:hr>
            <ns3:cad>0</ns3:cad>
          </ns3:TrackPointExtension>
        </extensions>
      </trkpt>
      <trkpt lat="37.9882582090795040130615234375" lon="-107.746732346713542938232421875">
        <ele>4006</ele>
        <time>2026-08-15T15:27:46.000Z</time>
        <extensions>
          <ns3:TrackPointExtension>
            <ns3:hr>105</ns3:hr>
            <ns3:cad>0</ns3:cad>
          </ns3:TrackPointExtension>
        </extensions>
      </trkpt>
      <trkpt lat="37.988230548799037933349609375" lon="-107.74679839611053466796875">
        <ele>4005.800048828125</ele>
        <time>2026-08-15T15:27:52.000Z</time>
        <extensions>
          <ns3:TrackPointExtension>
            <ns3:hr>107</ns3:hr>
            <ns3:cad>41</ns3:cad>
          </ns3:TrackPointExtension>
        </extensions>
      </trkpt>
      <trkpt lat="37.988229878246784210205078125" lon="-107.74681490845978260040283203125">
        <ele>4006.39990234375</ele>
        <time>2026-08-15T15:27:54.000Z</time>
        <extensions>
          <ns3:TrackPointExtension>
            <ns3:hr>107</ns3:hr>
            <ns3:cad>0</ns3:cad>
          </ns3:TrackPointExtension>
        </extensions>
      </trkpt>
      <trkpt lat="37.98822895623743534088134765625" lon="-107.746813483536243438720703125">
        <ele>4006.199951171875</ele>
        <time>2026-08-15T15:28:00.000Z</time>
        <extensions>
          <ns3:TrackPointExtension>
            <ns3:hr>107</ns3:hr>
            <ns3:cad>0</ns3:cad>
          </ns3:TrackPointExtension>
        </extensions>
      </trkpt>
      <trkpt lat="37.98822895623743534088134765625" lon="-107.746813483536243438720703125">
        <ele>4006</ele>
        <time>2026-08-15T15:28:01.000Z</time>
        <extensions>
          <ns3:TrackPointExtension>
            <ns3:hr>107</ns3:hr>
            <ns3:cad>0</ns3:cad>
          </ns3:TrackPointExtension>
        </extensions>
      </trkpt>
      <trkpt lat="37.98822895623743534088134765625" lon="-107.746813483536243438720703125">
        <ele>4006.199951171875</ele>
        <time>2026-08-15T15:28:07.000Z</time>
        <extensions>
          <ns3:TrackPointExtension>
            <ns3:hr>109</ns3:hr>
            <ns3:cad>0</ns3:cad>
          </ns3:TrackPointExtension>
        </extensions>
      </trkpt>
      <trkpt lat="37.98822895623743534088134765625" lon="-107.746813483536243438720703125">
        <ele>4006.199951171875</ele>
        <time>2026-08-15T15:28:13.000Z</time>
        <extensions>
          <ns3:TrackPointExtension>
            <ns3:hr>109</ns3:hr>
            <ns3:cad>0</ns3:cad>
          </ns3:TrackPointExtension>
        </extensions>
      </trkpt>
      <trkpt lat="37.98822895623743534088134765625" lon="-107.746813483536243438720703125">
        <ele>4006.199951171875</ele>
        <time>2026-08-15T15:28:14.000Z</time>
        <extensions>
          <ns3:TrackPointExtension>
            <ns3:hr>109</ns3:hr>
            <ns3:cad>0</ns3:cad>
          </ns3:TrackPointExtension>
        </extensions>
      </trkpt>
      <trkpt lat="37.98823566175997257232666015625" lon="-107.7468158304691314697265625">
        <ele>4006</ele>
        <time>2026-08-15T15:28:20.000Z</time>
        <extensions>
          <ns3:TrackPointExtension>
            <ns3:hr>109</ns3:hr>
            <ns3:cad>0</ns3:cad>
          </ns3:TrackPointExtension>
        </extensions>
      </trkpt>
      <trkpt lat="37.98824085853993892669677734375" lon="-107.746832929551601409912109375">
        <ele>4006</ele>
        <time>2026-08-15T15:28:22.000Z</time>
        <extensions>
          <ns3:TrackPointExtension>
            <ns3:hr>108</ns3:hr>
            <ns3:cad>0</ns3:cad>
          </ns3:TrackPointExtension>
        </extensions>
      </trkpt>
      <trkpt lat="37.988250665366649627685546875" lon="-107.746883891522884368896484375">
        <ele>4006</ele>
        <time>2026-08-15T15:28:28.000Z</time>
        <extensions>
          <ns3:TrackPointExtension>
            <ns3:hr>108</ns3:hr>
            <ns3:cad>0</ns3:cad>
          </ns3:TrackPointExtension>
        </extensions>
      </trkpt>
      <trkpt lat="37.9882508330047130584716796875" lon="-107.7468897588551044464111328125">
        <ele>4006</ele>
        <time>2026-08-15T15:28:29.000Z</time>
        <extensions>
          <ns3:TrackPointExtension>
            <ns3:hr>107</ns3:hr>
            <ns3:cad>0</ns3:cad>
          </ns3:TrackPointExtension>
        </extensions>
      </trkpt>
      <trkpt lat="37.98824555240571498870849609375" lon="-107.7469320036470890045166015625">
        <ele>4006.60009765625</ele>
        <time>2026-08-15T15:28:35.000Z</time>
        <extensions>
          <ns3:TrackPointExtension>
            <ns3:hr>105</ns3:hr>
            <ns3:cad>0</ns3:cad>
          </ns3:TrackPointExtension>
        </extensions>
      </trkpt>
      <trkpt lat="37.9882629029452800750732421875" lon="-107.746967710554599761962890625">
        <ele>4006.800048828125</ele>
        <time>2026-08-15T15:28:41.000Z</time>
        <extensions>
          <ns3:TrackPointExtension>
            <ns3:hr>105</ns3:hr>
            <ns3:cad>0</ns3:cad>
          </ns3:TrackPointExtension>
        </extensions>
      </trkpt>
      <trkpt lat="37.98826281912624835968017578125" lon="-107.7469712309539318084716796875">
        <ele>4006.800048828125</ele>
        <time>2026-08-15T15:28:42.000Z</time>
        <extensions>
          <ns3:TrackPointExtension>
            <ns3:hr>104</ns3:hr>
            <ns3:cad>0</ns3:cad>
          </ns3:TrackPointExtension>
        </extensions>
      </trkpt>
      <trkpt lat="37.98826231621205806732177734375" lon="-107.74701305665075778961181640625">
        <ele>4007.39990234375</ele>
        <time>2026-08-15T15:28:48.000Z</time>
        <extensions>
          <ns3:TrackPointExtension>
            <ns3:hr>103</ns3:hr>
            <ns3:cad>77</ns3:cad>
          </ns3:TrackPointExtension>
        </extensions>
      </trkpt>
      <trkpt lat="37.98825971782207489013671875" lon="-107.74701724760234355926513671875">
        <ele>4007.60009765625</ele>
        <time>2026-08-15T15:28:49.000Z</time>
        <extensions>
          <ns3:TrackPointExtension>
            <ns3:hr>104</ns3:hr>
            <ns3:cad>0</ns3:cad>
          </ns3:TrackPointExtension>
        </extensions>
      </trkpt>
      <trkpt lat="37.98824890516698360443115234375" lon="-107.74702562950551509857177734375">
        <ele>4008</ele>
        <time>2026-08-15T15:28:51.000Z</time>
        <extensions>
          <ns3:TrackPointExtension>
            <ns3:hr>105</ns3:hr>
            <ns3:cad>0</ns3:cad>
          </ns3:TrackPointExtension>
        </extensions>
      </trkpt>
      <trkpt lat="37.9882451333105564117431640625" lon="-107.74703149683773517608642578125">
        <ele>4008</ele>
        <time>2026-08-15T15:28:52.000Z</time>
        <extensions>
          <ns3:TrackPointExtension>
            <ns3:hr>111</ns3:hr>
            <ns3:cad>0</ns3:cad>
          </ns3:TrackPointExtension>
        </extensions>
      </trkpt>
      <trkpt lat="37.9882427863776683807373046875" lon="-107.74704088456928730010986328125">
        <ele>4008.199951171875</ele>
        <time>2026-08-15T15:28:53.000Z</time>
        <extensions>
          <ns3:TrackPointExtension>
            <ns3:hr>115</ns3:hr>
            <ns3:cad>0</ns3:cad>
          </ns3:TrackPointExtension>
        </extensions>
      </trkpt>
      <trkpt lat="37.988242618739604949951171875" lon="-107.7470486797392368316650390625">
        <ele>4008.199951171875</ele>
        <time>2026-08-15T15:28:54.000Z</time>
        <extensions>
          <ns3:TrackPointExtension>
            <ns3:hr>115</ns3:hr>
            <ns3:cad>0</ns3:cad>
          </ns3:TrackPointExtension>
        </extensions>
      </trkpt>
      <trkpt lat="37.98823918215930461883544921875" lon="-107.7470679581165313720703125">
        <ele>4008</ele>
        <time>2026-08-15T15:28:56.000Z</time>
        <extensions>
          <ns3:TrackPointExtension>
            <ns3:hr>117</ns3:hr>
            <ns3:cad>0</ns3:cad>
          </ns3:TrackPointExtension>
        </extensions>
      </trkpt>
      <trkpt lat="37.988229207694530487060546875" lon="-107.74712285958230495452880859375">
        <ele>4008.60009765625</ele>
        <time>2026-08-15T15:29:02.000Z</time>
        <extensions>
          <ns3:TrackPointExtension>
            <ns3:hr>118</ns3:hr>
            <ns3:cad>0</ns3:cad>
          </ns3:TrackPointExtension>
        </extensions>
      </trkpt>
      <trkpt lat="37.988210432231426239013671875" lon="-107.74716426618397235870361328125">
        <ele>4008.60009765625</ele>
        <time>2026-08-15T15:29:07.000Z</time>
        <extensions>
          <ns3:TrackPointExtension>
            <ns3:hr>121</ns3:hr>
            <ns3:cad>0</ns3:cad>
          </ns3:TrackPointExtension>
        </extensions>
      </trkpt>
      <trkpt lat="37.9882055707275867462158203125" lon="-107.74718052707612514495849609375">
        <ele>4008.39990234375</ele>
        <time>2026-08-15T15:29:09.000Z</time>
        <extensions>
          <ns3:TrackPointExtension>
            <ns3:hr>120</ns3:hr>
            <ns3:cad>0</ns3:cad>
          </ns3:TrackPointExtension>
        </extensions>
      </trkpt>
      <trkpt lat="37.98819475807249546051025390625" lon="-107.74720952846109867095947265625">
        <ele>4008.39990234375</ele>
        <time>2026-08-15T15:29:12.000Z</time>
        <extensions>
          <ns3:TrackPointExtension>
            <ns3:hr>117</ns3:hr>
            <ns3:cad>0</ns3:cad>
          </ns3:TrackPointExtension>
        </extensions>
      </trkpt>
      <trkpt lat="37.98818268813192844390869140625" lon="-107.74723417125642299652099609375">
        <ele>4008.800048828125</ele>
        <time>2026-08-15T15:29:16.000Z</time>
        <extensions>
          <ns3:TrackPointExtension>
            <ns3:hr>115</ns3:hr>
            <ns3:cad>0</ns3:cad>
          </ns3:TrackPointExtension>
        </extensions>
      </trkpt>
      <trkpt lat="37.9881787486374378204345703125" lon="-107.7472404576838016510009765625">
        <ele>4009</ele>
        <time>2026-08-15T15:29:17.000Z</time>
        <extensions>
          <ns3:TrackPointExtension>
            <ns3:hr>116</ns3:hr>
            <ns3:cad>0</ns3:cad>
          </ns3:TrackPointExtension>
        </extensions>
      </trkpt>
      <trkpt lat="37.9881767369806766510009765625" lon="-107.7472666092216968536376953125">
        <ele>4009.800048828125</ele>
        <time>2026-08-15T15:29:23.000Z</time>
        <extensions>
          <ns3:TrackPointExtension>
            <ns3:hr>117</ns3:hr>
            <ns3:cad>0</ns3:cad>
          </ns3:TrackPointExtension>
        </extensions>
      </trkpt>
      <trkpt lat="37.9881767369806766510009765625" lon="-107.7472666092216968536376953125">
        <ele>4009.60009765625</ele>
        <time>2026-08-15T15:29:24.000Z</time>
        <extensions>
          <ns3:TrackPointExtension>
            <ns3:hr>117</ns3:hr>
            <ns3:cad>0</ns3:cad>
          </ns3:TrackPointExtension>
        </extensions>
      </trkpt>
      <trkpt lat="37.9881767369806766510009765625" lon="-107.7472666092216968536376953125">
        <ele>4009.800048828125</ele>
        <time>2026-08-15T15:29:30.000Z</time>
        <extensions>
          <ns3:TrackPointExtension>
            <ns3:hr>115</ns3:hr>
            <ns3:cad>0</ns3:cad>
          </ns3:TrackPointExtension>
        </extensions>
      </trkpt>
      <trkpt lat="37.9881767369806766510009765625" lon="-107.7472666092216968536376953125">
        <ele>4009.39990234375</ele>
        <time>2026-08-15T15:29:33.000Z</time>
        <extensions>
          <ns3:TrackPointExtension>
            <ns3:hr>115</ns3:hr>
            <ns3:cad>0</ns3:cad>
          </ns3:TrackPointExtension>
        </extensions>
      </trkpt>
      <trkpt lat="37.9881767369806766510009765625" lon="-107.7472666092216968536376953125">
        <ele>4008.60009765625</ele>
        <time>2026-08-15T15:29:38.000Z</time>
        <extensions>
          <ns3:TrackPointExtension>
            <ns3:hr>111</ns3:hr>
            <ns3:cad>0</ns3:cad>
          </ns3:TrackPointExtension>
        </extensions>
      </trkpt>
      <trkpt lat="37.9881767369806766510009765625" lon="-107.7472666092216968536376953125">
        <ele>4008.800048828125</ele>
        <time>2026-08-15T15:29:40.000Z</time>
        <extensions>
          <ns3:TrackPointExtension>
            <ns3:hr>108</ns3:hr>
            <ns3:cad>0</ns3:cad>
          </ns3:TrackPointExtension>
        </extensions>
      </trkpt>
      <trkpt lat="37.988168857991695404052734375" lon="-107.74726669304072856903076171875">
        <ele>4009</ele>
        <time>2026-08-15T15:29:41.000Z</time>
        <extensions>
          <ns3:TrackPointExtension>
            <ns3:hr>107</ns3:hr>
            <ns3:cad>0</ns3:cad>
          </ns3:TrackPointExtension>
        </extensions>
      </trkpt>
      <trkpt lat="37.988159470260143280029296875" lon="-107.7472790144383907318115234375">
        <ele>4009.39990234375</ele>
        <time>2026-08-15T15:29:45.000Z</time>
        <extensions>
          <ns3:TrackPointExtension>
            <ns3:hr>104</ns3:hr>
            <ns3:cad>0</ns3:cad>
          </ns3:TrackPointExtension>
        </extensions>
      </trkpt>
      <trkpt lat="37.98814798705279827117919921875" lon="-107.7473080158233642578125">
        <ele>4009</ele>
        <time>2026-08-15T15:29:49.000Z</time>
        <extensions>
          <ns3:TrackPointExtension>
            <ns3:hr>103</ns3:hr>
            <ns3:cad>0</ns3:cad>
          </ns3:TrackPointExtension>
        </extensions>
      </trkpt>
      <trkpt lat="37.988139688968658447265625" lon="-107.74733408354222774505615234375">
        <ele>4009.199951171875</ele>
        <time>2026-08-15T15:29:55.000Z</time>
        <extensions>
          <ns3:TrackPointExtension>
            <ns3:hr>101</ns3:hr>
            <ns3:cad>0</ns3:cad>
          </ns3:TrackPointExtension>
        </extensions>
      </trkpt>
      <trkpt lat="37.98813876695930957794189453125" lon="-107.747339867055416107177734375">
        <ele>4009.199951171875</ele>
        <time>2026-08-15T15:29:56.000Z</time>
        <extensions>
          <ns3:TrackPointExtension>
            <ns3:hr>101</ns3:hr>
            <ns3:cad>0</ns3:cad>
          </ns3:TrackPointExtension>
        </extensions>
      </trkpt>
      <trkpt lat="37.98813365399837493896484375" lon="-107.747340537607669830322265625">
        <ele>4008.39990234375</ele>
        <time>2026-08-15T15:30:02.000Z</time>
        <extensions>
          <ns3:TrackPointExtension>
            <ns3:hr>101</ns3:hr>
            <ns3:cad>0</ns3:cad>
          </ns3:TrackPointExtension>
        </extensions>
      </trkpt>
      <trkpt lat="37.98813306726515293121337890625" lon="-107.74734615348279476165771484375">
        <ele>4008.39990234375</ele>
        <time>2026-08-15T15:30:03.000Z</time>
        <extensions>
          <ns3:TrackPointExtension>
            <ns3:hr>100</ns3:hr>
            <ns3:cad>0</ns3:cad>
          </ns3:TrackPointExtension>
        </extensions>
      </trkpt>
      <trkpt lat="37.98811797983944416046142578125" lon="-107.74738705717027187347412109375">
        <ele>4009.199951171875</ele>
        <time>2026-08-15T15:30:09.000Z</time>
        <extensions>
          <ns3:TrackPointExtension>
            <ns3:hr>99</ns3:hr>
            <ns3:cad>0</ns3:cad>
          </ns3:TrackPointExtension>
        </extensions>
      </trkpt>
      <trkpt lat="37.98811278305947780609130859375" lon="-107.74739108048379421234130859375">
        <ele>4009.39990234375</ele>
        <time>2026-08-15T15:30:10.000Z</time>
        <extensions>
          <ns3:TrackPointExtension>
            <ns3:hr>99</ns3:hr>
            <ns3:cad>0</ns3:cad>
          </ns3:TrackPointExtension>
        </extensions>
      </trkpt>
      <trkpt lat="37.98807824961841106414794921875" lon="-107.7474205009639263153076171875">
        <ele>4009.60009765625</ele>
        <time>2026-08-15T15:30:16.000Z</time>
        <extensions>
          <ns3:TrackPointExtension>
            <ns3:hr>98</ns3:hr>
            <ns3:cad>0</ns3:cad>
          </ns3:TrackPointExtension>
        </extensions>
      </trkpt>
      <trkpt lat="37.9880731366574764251708984375" lon="-107.74742645211517810821533203125">
        <ele>4009.60009765625</ele>
        <time>2026-08-15T15:30:17.000Z</time>
        <extensions>
          <ns3:TrackPointExtension>
            <ns3:hr>98</ns3:hr>
            <ns3:cad>0</ns3:cad>
          </ns3:TrackPointExtension>
        </extensions>
      </trkpt>
      <trkpt lat="37.988068275153636932373046875" lon="-107.74743634276092052459716796875">
        <ele>4009.800048828125</ele>
        <time>2026-08-15T15:30:21.000Z</time>
        <extensions>
          <ns3:TrackPointExtension>
            <ns3:hr>101</ns3:hr>
            <ns3:cad>0</ns3:cad>
          </ns3:TrackPointExtension>
        </extensions>
      </trkpt>
      <trkpt lat="37.98806852661073207855224609375" lon="-107.74743483401834964752197265625">
        <ele>4009.60009765625</ele>
        <time>2026-08-15T15:30:23.000Z</time>
        <extensions>
          <ns3:TrackPointExtension>
            <ns3:hr>103</ns3:hr>
            <ns3:cad>0</ns3:cad>
          </ns3:TrackPointExtension>
        </extensions>
      </trkpt>
      <trkpt lat="37.98806852661073207855224609375" lon="-107.74743483401834964752197265625">
        <ele>4009.800048828125</ele>
        <time>2026-08-15T15:30:29.000Z</time>
        <extensions>
          <ns3:TrackPointExtension>
            <ns3:hr>105</ns3:hr>
            <ns3:cad>0</ns3:cad>
          </ns3:TrackPointExtension>
        </extensions>
      </trkpt>
      <trkpt lat="37.98806852661073207855224609375" lon="-107.74743483401834964752197265625">
        <ele>4009.800048828125</ele>
        <time>2026-08-15T15:30:35.000Z</time>
        <extensions>
          <ns3:TrackPointExtension>
            <ns3:hr>106</ns3:hr>
            <ns3:cad>0</ns3:cad>
          </ns3:TrackPointExtension>
        </extensions>
      </trkpt>
      <trkpt lat="37.98806852661073207855224609375" lon="-107.74743483401834964752197265625">
        <ele>4009.800048828125</ele>
        <time>2026-08-15T15:30:41.000Z</time>
        <extensions>
          <ns3:TrackPointExtension>
            <ns3:hr>106</ns3:hr>
            <ns3:cad>0</ns3:cad>
          </ns3:TrackPointExtension>
        </extensions>
      </trkpt>
      <trkpt lat="37.98806852661073207855224609375" lon="-107.74743483401834964752197265625">
        <ele>4009.60009765625</ele>
        <time>2026-08-15T15:30:44.000Z</time>
        <extensions>
          <ns3:TrackPointExtension>
            <ns3:hr>105</ns3:hr>
            <ns3:cad>0</ns3:cad>
          </ns3:TrackPointExtension>
        </extensions>
      </trkpt>
      <trkpt lat="37.98806852661073207855224609375" lon="-107.74743483401834964752197265625">
        <ele>4009.60009765625</ele>
        <time>2026-08-15T15:30:50.000Z</time>
        <extensions>
          <ns3:TrackPointExtension>
            <ns3:hr>107</ns3:hr>
            <ns3:cad>0</ns3:cad>
          </ns3:TrackPointExtension>
        </extensions>
      </trkpt>
      <trkpt lat="37.98806567676365375518798828125" lon="-107.74746098555624485015869140625">
        <ele>4010</ele>
        <time>2026-08-15T15:30:54.000Z</time>
        <extensions>
          <ns3:TrackPointExtension>
            <ns3:hr>106</ns3:hr>
            <ns3:cad>0</ns3:cad>
          </ns3:TrackPointExtension>
        </extensions>
      </trkpt>
      <trkpt lat="37.9880578815937042236328125" lon="-107.74748696945607662200927734375">
        <ele>4010.39990234375</ele>
        <time>2026-08-15T15:30:57.000Z</time>
        <extensions>
          <ns3:TrackPointExtension>
            <ns3:hr>105</ns3:hr>
            <ns3:cad>0</ns3:cad>
          </ns3:TrackPointExtension>
        </extensions>
      </trkpt>
      <trkpt lat="37.988050840795040130615234375" lon="-107.74753022007644176483154296875">
        <ele>4010.39990234375</ele>
        <time>2026-08-15T15:31:03.000Z</time>
        <extensions>
          <ns3:TrackPointExtension>
            <ns3:hr>102</ns3:hr>
            <ns3:cad>0</ns3:cad>
          </ns3:TrackPointExtension>
        </extensions>
      </trkpt>
      <trkpt lat="37.9880473203957080841064453125" lon="-107.74753558449447154998779296875">
        <ele>4010.60009765625</ele>
        <time>2026-08-15T15:31:04.000Z</time>
        <extensions>
          <ns3:TrackPointExtension>
            <ns3:hr>102</ns3:hr>
            <ns3:cad>0</ns3:cad>
          </ns3:TrackPointExtension>
        </extensions>
      </trkpt>
      <trkpt lat="37.98803298734128475189208984375" lon="-107.74757548235356807708740234375">
        <ele>4011</ele>
        <time>2026-08-15T15:31:10.000Z</time>
        <extensions>
          <ns3:TrackPointExtension>
            <ns3:hr>100</ns3:hr>
            <ns3:cad>0</ns3:cad>
          </ns3:TrackPointExtension>
        </extensions>
      </trkpt>
      <trkpt lat="37.98803080804646015167236328125" lon="-107.74759325198829174041748046875">
        <ele>4011.199951171875</ele>
        <time>2026-08-15T15:31:11.000Z</time>
        <extensions>
          <ns3:TrackPointExtension>
            <ns3:hr>100</ns3:hr>
            <ns3:cad>0</ns3:cad>
          </ns3:TrackPointExtension>
        </extensions>
      </trkpt>
      <trkpt lat="37.98802074976265430450439453125" lon="-107.74764337576925754547119140625">
        <ele>4012</ele>
        <time>2026-08-15T15:31:17.000Z</time>
        <extensions>
          <ns3:TrackPointExtension>
            <ns3:hr>100</ns3:hr>
            <ns3:cad>0</ns3:cad>
          </ns3:TrackPointExtension>
        </extensions>
      </trkpt>
      <trkpt lat="37.9880188219249248504638671875" lon="-107.7476526796817779541015625">
        <ele>4012.199951171875</ele>
        <time>2026-08-15T15:31:18.000Z</time>
        <extensions>
          <ns3:TrackPointExtension>
            <ns3:hr>101</ns3:hr>
            <ns3:cad>0</ns3:cad>
          </ns3:TrackPointExtension>
        </extensions>
      </trkpt>
      <trkpt lat="37.9880184866487979888916015625" lon="-107.7476947568356990814208984375">
        <ele>4012.199951171875</ele>
        <time>2026-08-15T15:31:24.000Z</time>
        <extensions>
          <ns3:TrackPointExtension>
            <ns3:hr>102</ns3:hr>
            <ns3:cad>0</ns3:cad>
          </ns3:TrackPointExtension>
        </extensions>
      </trkpt>
      <trkpt lat="37.98801354132592678070068359375" lon="-107.74770171381533145904541015625">
        <ele>4012.39990234375</ele>
        <time>2026-08-15T15:31:26.000Z</time>
        <extensions>
          <ns3:TrackPointExtension>
            <ns3:hr>102</ns3:hr>
            <ns3:cad>0</ns3:cad>
          </ns3:TrackPointExtension>
        </extensions>
      </trkpt>
      <trkpt lat="37.9880094341933727264404296875" lon="-107.74776156060397624969482421875">
        <ele>4012.60009765625</ele>
        <time>2026-08-15T15:31:32.000Z</time>
        <extensions>
          <ns3:TrackPointExtension>
            <ns3:hr>102</ns3:hr>
            <ns3:cad>0</ns3:cad>
          </ns3:TrackPointExtension>
        </extensions>
      </trkpt>
      <trkpt lat="37.98800482414662837982177734375" lon="-107.74778486229479312896728515625">
        <ele>4012.39990234375</ele>
        <time>2026-08-15T15:31:37.000Z</time>
        <extensions>
          <ns3:TrackPointExtension>
            <ns3:hr>106</ns3:hr>
            <ns3:cad>0</ns3:cad>
          </ns3:TrackPointExtension>
        </extensions>
      </trkpt>
      <trkpt lat="37.98799878917634487152099609375" lon="-107.7478040568530559539794921875">
        <ele>4012.39990234375</ele>
        <time>2026-08-15T15:31:39.000Z</time>
        <extensions>
          <ns3:TrackPointExtension>
            <ns3:hr>108</ns3:hr>
            <ns3:cad>0</ns3:cad>
          </ns3:TrackPointExtension>
        </extensions>
      </trkpt>
      <trkpt lat="37.9879889823496341705322265625" lon="-107.747836075723171234130859375">
        <ele>4013.199951171875</ele>
        <time>2026-08-15T15:31:44.000Z</time>
        <extensions>
          <ns3:TrackPointExtension>
            <ns3:hr>105</ns3:hr>
            <ns3:cad>0</ns3:cad>
          </ns3:TrackPointExtension>
        </extensions>
      </trkpt>
      <trkpt lat="37.98798236064612865447998046875" lon="-107.74784118868410587310791015625">
        <ele>4013.199951171875</ele>
        <time>2026-08-15T15:31:45.000Z</time>
        <extensions>
          <ns3:TrackPointExtension>
            <ns3:hr>104</ns3:hr>
            <ns3:cad>0</ns3:cad>
          </ns3:TrackPointExtension>
        </extensions>
      </trkpt>
      <trkpt lat="37.987973727285861968994140625" lon="-107.7478489838540554046630859375">
        <ele>4013.199951171875</ele>
        <time>2026-08-15T15:31:46.000Z</time>
        <extensions>
          <ns3:TrackPointExtension>
            <ns3:hr>104</ns3:hr>
            <ns3:cad>0</ns3:cad>
          </ns3:TrackPointExtension>
        </extensions>
      </trkpt>
      <trkpt lat="37.9879541136324405670166015625" lon="-107.74787823669612407684326171875">
        <ele>4013.39990234375</ele>
        <time>2026-08-15T15:31:52.000Z</time>
        <extensions>
          <ns3:TrackPointExtension>
            <ns3:hr>102</ns3:hr>
            <ns3:cad>0</ns3:cad>
          </ns3:TrackPointExtension>
        </extensions>
      </trkpt>
      <trkpt lat="37.98795151524245738983154296875" lon="-107.7478791587054729461669921875">
        <ele>4013.60009765625</ele>
        <time>2026-08-15T15:31:53.000Z</time>
        <extensions>
          <ns3:TrackPointExtension>
            <ns3:hr>101</ns3:hr>
            <ns3:cad>0</ns3:cad>
          </ns3:TrackPointExtension>
        </extensions>
      </trkpt>
      <trkpt lat="37.9879407025873661041259765625" lon="-107.7479074895381927490234375">
        <ele>4014.199951171875</ele>
        <time>2026-08-15T15:31:57.000Z</time>
        <extensions>
          <ns3:TrackPointExtension>
            <ns3:hr>101</ns3:hr>
            <ns3:cad>66</ns3:cad>
          </ns3:TrackPointExtension>
        </extensions>
      </trkpt>
      <trkpt lat="37.98792988993227481842041015625" lon="-107.74793020449578762054443359375">
        <ele>4015</ele>
        <time>2026-08-15T15:32:00.000Z</time>
        <extensions>
          <ns3:TrackPointExtension>
            <ns3:hr>102</ns3:hr>
            <ns3:cad>66</ns3:cad>
          </ns3:TrackPointExtension>
        </extensions>
      </trkpt>
      <trkpt lat="37.98792704008519649505615234375" lon="-107.74793623946607112884521484375">
        <ele>4015</ele>
        <time>2026-08-15T15:32:06.000Z</time>
        <extensions>
          <ns3:TrackPointExtension>
            <ns3:hr>105</ns3:hr>
            <ns3:cad>0</ns3:cad>
          </ns3:TrackPointExtension>
        </extensions>
      </trkpt>
      <trkpt lat="37.98792452551424503326416015625" lon="-107.7479492314159870147705078125">
        <ele>4015</ele>
        <time>2026-08-15T15:32:09.000Z</time>
        <extensions>
          <ns3:TrackPointExtension>
            <ns3:hr>107</ns3:hr>
            <ns3:cad>0</ns3:cad>
          </ns3:TrackPointExtension>
        </extensions>
      </trkpt>
      <trkpt lat="37.9879249446094036102294921875" lon="-107.74795585311949253082275390625">
        <ele>4015.39990234375</ele>
        <time>2026-08-15T15:32:15.000Z</time>
        <extensions>
          <ns3:TrackPointExtension>
            <ns3:hr>107</ns3:hr>
            <ns3:cad>0</ns3:cad>
          </ns3:TrackPointExtension>
        </extensions>
      </trkpt>
      <trkpt lat="37.9879249446094036102294921875" lon="-107.74795585311949253082275390625">
        <ele>4015.199951171875</ele>
        <time>2026-08-15T15:32:20.000Z</time>
        <extensions>
          <ns3:TrackPointExtension>
            <ns3:hr>108</ns3:hr>
            <ns3:cad>0</ns3:cad>
          </ns3:TrackPointExtension>
        </extensions>
      </trkpt>
      <trkpt lat="37.9879249446094036102294921875" lon="-107.74795585311949253082275390625">
        <ele>4015.199951171875</ele>
        <time>2026-08-15T15:32:25.000Z</time>
        <extensions>
          <ns3:TrackPointExtension>
            <ns3:hr>111</ns3:hr>
            <ns3:cad>0</ns3:cad>
          </ns3:TrackPointExtension>
        </extensions>
      </trkpt>
      <trkpt lat="37.9879249446094036102294921875" lon="-107.74795585311949253082275390625">
        <ele>4015</ele>
        <time>2026-08-15T15:32:30.000Z</time>
        <extensions>
          <ns3:TrackPointExtension>
            <ns3:hr>114</ns3:hr>
            <ns3:cad>0</ns3:cad>
          </ns3:TrackPointExtension>
        </extensions>
      </trkpt>
      <trkpt lat="37.98792980611324310302734375" lon="-107.74795987643301486968994140625">
        <ele>4014.39990234375</ele>
        <time>2026-08-15T15:32:35.000Z</time>
        <extensions>
          <ns3:TrackPointExtension>
            <ns3:hr>117</ns3:hr>
            <ns3:cad>0</ns3:cad>
          </ns3:TrackPointExtension>
        </extensions>
      </trkpt>
      <trkpt lat="37.98790558241307735443115234375" lon="-107.74800564162433147430419921875">
        <ele>4015.199951171875</ele>
        <time>2026-08-15T15:32:41.000Z</time>
        <extensions>
          <ns3:TrackPointExtension>
            <ns3:hr>113</ns3:hr>
            <ns3:cad>0</ns3:cad>
          </ns3:TrackPointExtension>
        </extensions>
      </trkpt>
      <trkpt lat="37.98790323548018932342529296875" lon="-107.74800614453852176666259765625">
        <ele>4015.199951171875</ele>
        <time>2026-08-15T15:32:42.000Z</time>
        <extensions>
          <ns3:TrackPointExtension>
            <ns3:hr>110</ns3:hr>
            <ns3:cad>0</ns3:cad>
          </ns3:TrackPointExtension>
        </extensions>
      </trkpt>
      <trkpt lat="37.9878971166908740997314453125" lon="-107.7480159513652324676513671875">
        <ele>4015</ele>
        <time>2026-08-15T15:32:43.000Z</time>
        <extensions>
          <ns3:TrackPointExtension>
            <ns3:hr>110</ns3:hr>
            <ns3:cad>0</ns3:cad>
          </ns3:TrackPointExtension>
        </extensions>
      </trkpt>
      <trkpt lat="37.9878749884665012359619140625" lon="-107.748060040175914764404296875">
        <ele>4014.800048828125</ele>
        <time>2026-08-15T15:32:48.000Z</time>
        <extensions>
          <ns3:TrackPointExtension>
            <ns3:hr>108</ns3:hr>
            <ns3:cad>0</ns3:cad>
          </ns3:TrackPointExtension>
        </extensions>
      </trkpt>
      <trkpt lat="37.98786384053528308868408203125" lon="-107.748086191713809967041015625">
        <ele>4014.60009765625</ele>
        <time>2026-08-15T15:32:52.000Z</time>
        <extensions>
          <ns3:TrackPointExtension>
            <ns3:hr>111</ns3:hr>
            <ns3:cad>0</ns3:cad>
          </ns3:TrackPointExtension>
        </extensions>
      </trkpt>
      <trkpt lat="37.98785914666950702667236328125" lon="-107.74808761663734912872314453125">
        <ele>4014.199951171875</ele>
        <time>2026-08-15T15:32:54.000Z</time>
        <extensions>
          <ns3:TrackPointExtension>
            <ns3:hr>113</ns3:hr>
            <ns3:cad>0</ns3:cad>
          </ns3:TrackPointExtension>
        </extensions>
      </trkpt>
      <trkpt lat="37.9878357611596584320068359375" lon="-107.7481332980096340179443359375">
        <ele>4014</ele>
        <time>2026-08-15T15:33:00.000Z</time>
        <extensions>
          <ns3:TrackPointExtension>
            <ns3:hr>114</ns3:hr>
            <ns3:cad>0</ns3:cad>
          </ns3:TrackPointExtension>
        </extensions>
      </trkpt>
      <trkpt lat="37.98781891353428363800048828125" lon="-107.74816271848976612091064453125">
        <ele>4014.199951171875</ele>
        <time>2026-08-15T15:33:04.000Z</time>
        <extensions>
          <ns3:TrackPointExtension>
            <ns3:hr>111</ns3:hr>
            <ns3:cad>0</ns3:cad>
          </ns3:TrackPointExtension>
        </extensions>
      </trkpt>
      <trkpt lat="37.987799383699893951416015625" lon="-107.74821368046104907989501953125">
        <ele>4013.60009765625</ele>
        <time>2026-08-15T15:33:09.000Z</time>
        <extensions>
          <ns3:TrackPointExtension>
            <ns3:hr>111</ns3:hr>
            <ns3:cad>0</ns3:cad>
          </ns3:TrackPointExtension>
        </extensions>
      </trkpt>
      <trkpt lat="37.987787984311580657958984375" lon="-107.748237065970897674560546875">
        <ele>4013.60009765625</ele>
        <time>2026-08-15T15:33:15.000Z</time>
        <extensions>
          <ns3:TrackPointExtension>
            <ns3:hr>114</ns3:hr>
            <ns3:cad>0</ns3:cad>
          </ns3:TrackPointExtension>
        </extensions>
      </trkpt>
      <trkpt lat="37.9877797700464725494384765625" lon="-107.7482481300830841064453125">
        <ele>4013.199951171875</ele>
        <time>2026-08-15T15:33:21.000Z</time>
        <extensions>
          <ns3:TrackPointExtension>
            <ns3:hr>114</ns3:hr>
            <ns3:cad>68</ns3:cad>
          </ns3:TrackPointExtension>
        </extensions>
      </trkpt>
      <trkpt lat="37.9877735674381256103515625" lon="-107.7482640556991100311279296875">
        <ele>4013</ele>
        <time>2026-08-15T15:33:23.000Z</time>
        <extensions>
          <ns3:TrackPointExtension>
            <ns3:hr>114</ns3:hr>
            <ns3:cad>68</ns3:cad>
          </ns3:TrackPointExtension>
        </extensions>
      </trkpt>
      <trkpt lat="37.98776795156300067901611328125" lon="-107.7482871897518634796142578125">
        <ele>4012.800048828125</ele>
        <time>2026-08-15T15:33:29.000Z</time>
        <extensions>
          <ns3:TrackPointExtension>
            <ns3:hr>113</ns3:hr>
            <ns3:cad>0</ns3:cad>
          </ns3:TrackPointExtension>
        </extensions>
      </trkpt>
      <trkpt lat="37.9877620004117488861083984375" lon="-107.748320214450359344482421875">
        <ele>4013.39990234375</ele>
        <time>2026-08-15T15:33:35.000Z</time>
        <extensions>
          <ns3:TrackPointExtension>
            <ns3:hr>116</ns3:hr>
            <ns3:cad>0</ns3:cad>
          </ns3:TrackPointExtension>
        </extensions>
      </trkpt>
      <trkpt lat="37.98775303177535533905029296875" lon="-107.74834779091179370880126953125">
        <ele>4012.800048828125</ele>
        <time>2026-08-15T15:33:41.000Z</time>
        <extensions>
          <ns3:TrackPointExtension>
            <ns3:hr>116</ns3:hr>
            <ns3:cad>0</ns3:cad>
          </ns3:TrackPointExtension>
        </extensions>
      </trkpt>
      <trkpt lat="37.98775018192827701568603515625" lon="-107.74835768155753612518310546875">
        <ele>4012.60009765625</ele>
        <time>2026-08-15T15:33:43.000Z</time>
        <extensions>
          <ns3:TrackPointExtension>
            <ns3:hr>116</ns3:hr>
            <ns3:cad>75</ns3:cad>
          </ns3:TrackPointExtension>
        </extensions>
      </trkpt>
      <trkpt lat="37.98771950416266918182373046875" lon="-107.7483894489705562591552734375">
        <ele>4012.60009765625</ele>
        <time>2026-08-15T15:33:48.000Z</time>
        <extensions>
          <ns3:TrackPointExtension>
            <ns3:hr>117</ns3:hr>
            <ns3:cad>0</ns3:cad>
          </ns3:TrackPointExtension>
        </extensions>
      </trkpt>
      <trkpt lat="37.98767977394163608551025390625" lon="-107.7484323643147945404052734375">
        <ele>4012.60009765625</ele>
        <time>2026-08-15T15:33:54.000Z</time>
        <extensions>
          <ns3:TrackPointExtension>
            <ns3:hr>118</ns3:hr>
            <ns3:cad>0</ns3:cad>
          </ns3:TrackPointExtension>
        </extensions>
      </trkpt>
      <trkpt lat="37.98764004372060298919677734375" lon="-107.74847150780260562896728515625">
        <ele>4012.60009765625</ele>
        <time>2026-08-15T15:34:00.000Z</time>
        <extensions>
          <ns3:TrackPointExtension>
            <ns3:hr>118</ns3:hr>
            <ns3:cad>0</ns3:cad>
          </ns3:TrackPointExtension>
        </extensions>
      </trkpt>
      <trkpt lat="37.98763451166450977325439453125" lon="-107.74848039261996746063232421875">
        <ele>4012.60009765625</ele>
        <time>2026-08-15T15:34:01.000Z</time>
        <extensions>
          <ns3:TrackPointExtension>
            <ns3:hr>116</ns3:hr>
            <ns3:cad>0</ns3:cad>
          </ns3:TrackPointExtension>
        </extensions>
      </trkpt>
      <trkpt lat="37.98762143589556217193603515625" lon="-107.7485061250627040863037109375">
        <ele>4012.60009765625</ele>
        <time>2026-08-15T15:34:04.000Z</time>
        <extensions>
          <ns3:TrackPointExtension>
            <ns3:hr>113</ns3:hr>
            <ns3:cad>0</ns3:cad>
          </ns3:TrackPointExtension>
        </extensions>
      </trkpt>
      <trkpt lat="37.987600229680538177490234375" lon="-107.7485631220042705535888671875">
        <ele>4013.60009765625</ele>
        <time>2026-08-15T15:34:10.000Z</time>
        <extensions>
          <ns3:TrackPointExtension>
            <ns3:hr>115</ns3:hr>
            <ns3:cad>0</ns3:cad>
          </ns3:TrackPointExtension>
        </extensions>
      </trkpt>
      <trkpt lat="37.987588830292224884033203125" lon="-107.74861819110810756683349609375">
        <ele>4013.800048828125</ele>
        <time>2026-08-15T15:34:16.000Z</time>
        <extensions>
          <ns3:TrackPointExtension>
            <ns3:hr>113</ns3:hr>
            <ns3:cad>43</ns3:cad>
          </ns3:TrackPointExtension>
        </extensions>
      </trkpt>
      <trkpt lat="37.98758648335933685302734375" lon="-107.74862456135451793670654296875">
        <ele>4013.800048828125</ele>
        <time>2026-08-15T15:34:17.000Z</time>
        <extensions>
          <ns3:TrackPointExtension>
            <ns3:hr>110</ns3:hr>
            <ns3:cad>0</ns3:cad>
          </ns3:TrackPointExtension>
        </extensions>
      </trkpt>
      <trkpt lat="37.98758723773062229156494140625" lon="-107.74864451028406620025634765625">
        <ele>4014</ele>
        <time>2026-08-15T15:34:19.000Z</time>
        <extensions>
          <ns3:TrackPointExtension>
            <ns3:hr>106</ns3:hr>
            <ns3:cad>41</ns3:cad>
          </ns3:TrackPointExtension>
        </extensions>
      </trkpt>
      <trkpt lat="37.987592853605747222900390625" lon="-107.74868591688573360443115234375">
        <ele>4014.199951171875</ele>
        <time>2026-08-15T15:34:24.000Z</time>
        <extensions>
          <ns3:TrackPointExtension>
            <ns3:hr>105</ns3:hr>
            <ns3:cad>0</ns3:cad>
          </ns3:TrackPointExtension>
        </extensions>
      </trkpt>
      <trkpt lat="37.9875903390347957611083984375" lon="-107.74871726520359516143798828125">
        <ele>4014.199951171875</ele>
        <time>2026-08-15T15:34:27.000Z</time>
        <extensions>
          <ns3:TrackPointExtension>
            <ns3:hr>105</ns3:hr>
            <ns3:cad>0</ns3:cad>
          </ns3:TrackPointExtension>
        </extensions>
      </trkpt>
      <trkpt lat="37.9875869862735271453857421875" lon="-107.748744674026966094970703125">
        <ele>4014.199951171875</ele>
        <time>2026-08-15T15:34:31.000Z</time>
        <extensions>
          <ns3:TrackPointExtension>
            <ns3:hr>108</ns3:hr>
            <ns3:cad>0</ns3:cad>
          </ns3:TrackPointExtension>
        </extensions>
      </trkpt>
      <trkpt lat="37.98758505843579769134521484375" lon="-107.7487488649785518646240234375">
        <ele>4014.199951171875</ele>
        <time>2026-08-15T15:34:32.000Z</time>
        <extensions>
          <ns3:TrackPointExtension>
            <ns3:hr>108</ns3:hr>
            <ns3:cad>0</ns3:cad>
          </ns3:TrackPointExtension>
        </extensions>
      </trkpt>
      <trkpt lat="37.9875802807509899139404296875" lon="-107.74878926575183868408203125">
        <ele>4013.39990234375</ele>
        <time>2026-08-15T15:34:38.000Z</time>
        <extensions>
          <ns3:TrackPointExtension>
            <ns3:hr>106</ns3:hr>
            <ns3:cad>0</ns3:cad>
          </ns3:TrackPointExtension>
        </extensions>
      </trkpt>
      <trkpt lat="37.987584136426448822021484375" lon="-107.7488058619201183319091796875">
        <ele>4013.39990234375</ele>
        <time>2026-08-15T15:34:39.000Z</time>
        <extensions>
          <ns3:TrackPointExtension>
            <ns3:hr>105</ns3:hr>
            <ns3:cad>0</ns3:cad>
          </ns3:TrackPointExtension>
        </extensions>
      </trkpt>
      <trkpt lat="37.98758489079773426055908203125" lon="-107.748814411461353302001953125">
        <ele>4013.199951171875</ele>
        <time>2026-08-15T15:34:40.000Z</time>
        <extensions>
          <ns3:TrackPointExtension>
            <ns3:hr>104</ns3:hr>
            <ns3:cad>0</ns3:cad>
          </ns3:TrackPointExtension>
        </extensions>
      </trkpt>
      <trkpt lat="37.9875911772251129150390625" lon="-107.74883754551410675048828125">
        <ele>4013</ele>
        <time>2026-08-15T15:34:44.000Z</time>
        <extensions>
          <ns3:TrackPointExtension>
            <ns3:hr>101</ns3:hr>
            <ns3:cad>0</ns3:cad>
          </ns3:TrackPointExtension>
        </extensions>
      </trkpt>
      <trkpt lat="37.98759025521576404571533203125" lon="-107.748840562999248504638671875">
        <ele>4013</ele>
        <time>2026-08-15T15:34:45.000Z</time>
        <extensions>
          <ns3:TrackPointExtension>
            <ns3:hr>101</ns3:hr>
            <ns3:cad>0</ns3:cad>
          </ns3:TrackPointExtension>
        </extensions>
      </trkpt>
      <trkpt lat="37.98759779892861843109130859375" lon="-107.74888859130442142486572265625">
        <ele>4013</ele>
        <time>2026-08-15T15:34:50.000Z</time>
        <extensions>
          <ns3:TrackPointExtension>
            <ns3:hr>100</ns3:hr>
            <ns3:cad>0</ns3:cad>
          </ns3:TrackPointExtension>
        </extensions>
      </trkpt>
      <trkpt lat="37.98761464655399322509765625" lon="-107.748935110867023468017578125">
        <ele>4013</ele>
        <time>2026-08-15T15:34:55.000Z</time>
        <extensions>
          <ns3:TrackPointExtension>
            <ns3:hr>101</ns3:hr>
            <ns3:cad>0</ns3:cad>
          </ns3:TrackPointExtension>
        </extensions>
      </trkpt>
      <trkpt lat="37.9876233637332916259765625" lon="-107.74895690381526947021484375">
        <ele>4013</ele>
        <time>2026-08-15T15:35:00.000Z</time>
        <extensions>
          <ns3:TrackPointExtension>
            <ns3:hr>104</ns3:hr>
            <ns3:cad>0</ns3:cad>
          </ns3:TrackPointExtension>
        </extensions>
      </trkpt>
      <trkpt lat="37.98762847669422626495361328125" lon="-107.748971320688724517822265625">
        <ele>4013.39990234375</ele>
        <time>2026-08-15T15:35:04.000Z</time>
        <extensions>
          <ns3:TrackPointExtension>
            <ns3:hr>106</ns3:hr>
            <ns3:cad>0</ns3:cad>
          </ns3:TrackPointExtension>
        </extensions>
      </trkpt>
      <trkpt lat="37.987629733979701995849609375" lon="-107.74897945113480091094970703125">
        <ele>4014</ele>
        <time>2026-08-15T15:35:07.000Z</time>
        <extensions>
          <ns3:TrackPointExtension>
            <ns3:hr>103</ns3:hr>
            <ns3:cad>0</ns3:cad>
          </ns3:TrackPointExtension>
        </extensions>
      </trkpt>
      <trkpt lat="37.9876340925693511962890625" lon="-107.748992443084716796875">
        <ele>4014</ele>
        <time>2026-08-15T15:35:10.000Z</time>
        <extensions>
          <ns3:TrackPointExtension>
            <ns3:hr>106</ns3:hr>
            <ns3:cad>0</ns3:cad>
          </ns3:TrackPointExtension>
        </extensions>
      </trkpt>
      <trkpt lat="37.98763769678771495819091796875" lon="-107.74901147000491619110107421875">
        <ele>4013.39990234375</ele>
        <time>2026-08-15T15:35:16.000Z</time>
        <extensions>
          <ns3:TrackPointExtension>
            <ns3:hr>105</ns3:hr>
            <ns3:cad>0</ns3:cad>
          </ns3:TrackPointExtension>
        </extensions>
      </trkpt>
      <trkpt lat="37.98763903789222240447998046875" lon="-107.749012224376201629638671875">
        <ele>4013.39990234375</ele>
        <time>2026-08-15T15:35:17.000Z</time>
        <extensions>
          <ns3:TrackPointExtension>
            <ns3:hr>105</ns3:hr>
            <ns3:cad>0</ns3:cad>
          </ns3:TrackPointExtension>
        </extensions>
      </trkpt>
      <trkpt lat="37.98765362240374088287353515625" lon="-107.74905882775783538818359375">
        <ele>4014</ele>
        <time>2026-08-15T15:35:23.000Z</time>
        <extensions>
          <ns3:TrackPointExtension>
            <ns3:hr>102</ns3:hr>
            <ns3:cad>0</ns3:cad>
          </ns3:TrackPointExtension>
        </extensions>
      </trkpt>
      <trkpt lat="37.98765781335532665252685546875" lon="-107.7490814588963985443115234375">
        <ele>4014.199951171875</ele>
        <time>2026-08-15T15:35:29.000Z</time>
        <extensions>
          <ns3:TrackPointExtension>
            <ns3:hr>101</ns3:hr>
            <ns3:cad>0</ns3:cad>
          </ns3:TrackPointExtension>
        </extensions>
      </trkpt>
      <trkpt lat="37.98765915445983409881591796875" lon="-107.7490838058292865753173828125">
        <ele>4014.39990234375</ele>
        <time>2026-08-15T15:35:30.000Z</time>
        <extensions>
          <ns3:TrackPointExtension>
            <ns3:hr>102</ns3:hr>
            <ns3:cad>0</ns3:cad>
          </ns3:TrackPointExtension>
        </extensions>
      </trkpt>
      <trkpt lat="37.98765278421342372894287109375" lon="-107.7490911819040775299072265625">
        <ele>4015</ele>
        <time>2026-08-15T15:35:36.000Z</time>
        <extensions>
          <ns3:TrackPointExtension>
            <ns3:hr>102</ns3:hr>
            <ns3:cad>0</ns3:cad>
          </ns3:TrackPointExtension>
        </extensions>
      </trkpt>
      <trkpt lat="37.98765278421342372894287109375" lon="-107.7490911819040775299072265625">
        <ele>4015.199951171875</ele>
        <time>2026-08-15T15:35:37.000Z</time>
        <extensions>
          <ns3:TrackPointExtension>
            <ns3:hr>102</ns3:hr>
            <ns3:cad>0</ns3:cad>
          </ns3:TrackPointExtension>
        </extensions>
      </trkpt>
      <trkpt lat="37.98765278421342372894287109375" lon="-107.7490911819040775299072265625">
        <ele>4015.199951171875</ele>
        <time>2026-08-15T15:35:38.000Z</time>
        <extensions>
          <ns3:TrackPointExtension>
            <ns3:hr>102</ns3:hr>
            <ns3:cad>0</ns3:cad>
          </ns3:TrackPointExtension>
        </extensions>
      </trkpt>
      <trkpt lat="37.98765278421342372894287109375" lon="-107.7490911819040775299072265625">
        <ele>4015.199951171875</ele>
        <time>2026-08-15T15:35:44.000Z</time>
        <extensions>
          <ns3:TrackPointExtension>
            <ns3:hr>104</ns3:hr>
            <ns3:cad>0</ns3:cad>
          </ns3:TrackPointExtension>
        </extensions>
      </trkpt>
      <trkpt lat="37.98765278421342372894287109375" lon="-107.7490911819040775299072265625">
        <ele>4015.199951171875</ele>
        <time>2026-08-15T15:35:45.000Z</time>
        <extensions>
          <ns3:TrackPointExtension>
            <ns3:hr>104</ns3:hr>
            <ns3:cad>0</ns3:cad>
          </ns3:TrackPointExtension>
        </extensions>
      </trkpt>
      <trkpt lat="37.987646497786045074462890625" lon="-107.7491210214793682098388671875">
        <ele>4015.39990234375</ele>
        <time>2026-08-15T15:35:50.000Z</time>
        <extensions>
          <ns3:TrackPointExtension>
            <ns3:hr>107</ns3:hr>
            <ns3:cad>0</ns3:cad>
          </ns3:TrackPointExtension>
        </extensions>
      </trkpt>
      <trkpt lat="37.98763887025415897369384765625" lon="-107.74915379472076892852783203125">
        <ele>4015.199951171875</ele>
        <time>2026-08-15T15:35:53.000Z</time>
        <extensions>
          <ns3:TrackPointExtension>
            <ns3:hr>108</ns3:hr>
            <ns3:cad>0</ns3:cad>
          </ns3:TrackPointExtension>
        </extensions>
      </trkpt>
      <trkpt lat="37.98763216473162174224853515625" lon="-107.74918514303863048553466796875">
        <ele>4015.199951171875</ele>
        <time>2026-08-15T15:35:56.000Z</time>
        <extensions>
          <ns3:TrackPointExtension>
            <ns3:hr>111</ns3:hr>
            <ns3:cad>0</ns3:cad>
          </ns3:TrackPointExtension>
        </extensions>
      </trkpt>
      <trkpt lat="37.9876282252371311187744140625" lon="-107.749199979007244110107421875">
        <ele>4015.39990234375</ele>
        <time>2026-08-15T15:35:59.000Z</time>
        <extensions>
          <ns3:TrackPointExtension>
            <ns3:hr>113</ns3:hr>
            <ns3:cad>0</ns3:cad>
          </ns3:TrackPointExtension>
        </extensions>
      </trkpt>
      <trkpt lat="37.9876262135803699493408203125" lon="-107.74924130178987979888916015625">
        <ele>4015.39990234375</ele>
        <time>2026-08-15T15:36:05.000Z</time>
        <extensions>
          <ns3:TrackPointExtension>
            <ns3:hr>115</ns3:hr>
            <ns3:cad>0</ns3:cad>
          </ns3:TrackPointExtension>
        </extensions>
      </trkpt>
      <trkpt lat="37.987625710666179656982421875" lon="-107.749241888523101806640625">
        <ele>4015.199951171875</ele>
        <time>2026-08-15T15:36:11.000Z</time>
        <extensions>
          <ns3:TrackPointExtension>
            <ns3:hr>114</ns3:hr>
            <ns3:cad>0</ns3:cad>
          </ns3:TrackPointExtension>
        </extensions>
      </trkpt>
      <trkpt lat="37.987625710666179656982421875" lon="-107.749241888523101806640625">
        <ele>4015.199951171875</ele>
        <time>2026-08-15T15:36:12.000Z</time>
        <extensions>
          <ns3:TrackPointExtension>
            <ns3:hr>115</ns3:hr>
            <ns3:cad>0</ns3:cad>
          </ns3:TrackPointExtension>
        </extensions>
      </trkpt>
      <trkpt lat="37.98761338926851749420166015625" lon="-107.74926510639488697052001953125">
        <ele>4015.39990234375</ele>
        <time>2026-08-15T15:36:18.000Z</time>
        <extensions>
          <ns3:TrackPointExtension>
            <ns3:hr>113</ns3:hr>
            <ns3:cad>0</ns3:cad>
          </ns3:TrackPointExtension>
        </extensions>
      </trkpt>
      <trkpt lat="37.98760534264147281646728515625" lon="-107.74928371421992778778076171875">
        <ele>4015.39990234375</ele>
        <time>2026-08-15T15:36:20.000Z</time>
        <extensions>
          <ns3:TrackPointExtension>
            <ns3:hr>113</ns3:hr>
            <ns3:cad>0</ns3:cad>
          </ns3:TrackPointExtension>
        </extensions>
      </trkpt>
      <trkpt lat="37.98759243451058864593505859375" lon="-107.74930215440690517425537109375">
        <ele>4015</ele>
        <time>2026-08-15T15:36:25.000Z</time>
        <extensions>
          <ns3:TrackPointExtension>
            <ns3:hr>109</ns3:hr>
            <ns3:cad>0</ns3:cad>
          </ns3:TrackPointExtension>
        </extensions>
      </trkpt>
      <trkpt lat="37.98759243451058864593505859375" lon="-107.74930215440690517425537109375">
        <ele>4015</ele>
        <time>2026-08-15T15:36:28.000Z</time>
        <extensions>
          <ns3:TrackPointExtension>
            <ns3:hr>107</ns3:hr>
            <ns3:cad>0</ns3:cad>
          </ns3:TrackPointExtension>
        </extensions>
      </trkpt>
      <trkpt lat="37.98757466487586498260498046875" lon="-107.74934037588536739349365234375">
        <ele>4015</ele>
        <time>2026-08-15T15:36:33.000Z</time>
        <extensions>
          <ns3:TrackPointExtension>
            <ns3:hr>106</ns3:hr>
            <ns3:cad>0</ns3:cad>
          </ns3:TrackPointExtension>
        </extensions>
      </trkpt>
      <trkpt lat="37.98755806870758533477783203125" lon="-107.7493902482092380523681640625">
        <ele>4016</ele>
        <time>2026-08-15T15:36:39.000Z</time>
        <extensions>
          <ns3:TrackPointExtension>
            <ns3:hr>105</ns3:hr>
            <ns3:cad>0</ns3:cad>
          </ns3:TrackPointExtension>
        </extensions>
      </trkpt>
      <trkpt lat="37.98755689524114131927490234375" lon="-107.74939502589404582977294921875">
        <ele>4016.199951171875</ele>
        <time>2026-08-15T15:36:40.000Z</time>
        <extensions>
          <ns3:TrackPointExtension>
            <ns3:hr>105</ns3:hr>
            <ns3:cad>0</ns3:cad>
          </ns3:TrackPointExtension>
        </extensions>
      </trkpt>
      <trkpt lat="37.98754625022411346435546875" lon="-107.7494314871728420257568359375">
        <ele>4016.800048828125</ele>
        <time>2026-08-15T15:36:45.000Z</time>
        <extensions>
          <ns3:TrackPointExtension>
            <ns3:hr>108</ns3:hr>
            <ns3:cad>0</ns3:cad>
          </ns3:TrackPointExtension>
        </extensions>
      </trkpt>
      <trkpt lat="37.987542562186717987060546875" lon="-107.7494388632476329803466796875">
        <ele>4016.800048828125</ele>
        <time>2026-08-15T15:36:47.000Z</time>
        <extensions>
          <ns3:TrackPointExtension>
            <ns3:hr>109</ns3:hr>
            <ns3:cad>0</ns3:cad>
          </ns3:TrackPointExtension>
        </extensions>
      </trkpt>
      <trkpt lat="37.98752537928521633148193359375" lon="-107.7494873106479644775390625">
        <ele>4016.800048828125</ele>
        <time>2026-08-15T15:36:53.000Z</time>
        <extensions>
          <ns3:TrackPointExtension>
            <ns3:hr>108</ns3:hr>
            <ns3:cad>0</ns3:cad>
          </ns3:TrackPointExtension>
        </extensions>
      </trkpt>
      <trkpt lat="37.98752035014331340789794921875" lon="-107.7495087683200836181640625">
        <ele>4017.199951171875</ele>
        <time>2026-08-15T15:36:55.000Z</time>
        <extensions>
          <ns3:TrackPointExtension>
            <ns3:hr>109</ns3:hr>
            <ns3:cad>0</ns3:cad>
          </ns3:TrackPointExtension>
        </extensions>
      </trkpt>
      <trkpt lat="37.987516410648822784423828125" lon="-107.74952243082225322723388671875">
        <ele>4017.39990234375</ele>
        <time>2026-08-15T15:36:57.000Z</time>
        <extensions>
          <ns3:TrackPointExtension>
            <ns3:hr>108</ns3:hr>
            <ns3:cad>0</ns3:cad>
          </ns3:TrackPointExtension>
        </extensions>
      </trkpt>
      <trkpt lat="37.98750509507954120635986328125" lon="-107.7495474927127361297607421875">
        <ele>4017.60009765625</ele>
        <time>2026-08-15T15:37:02.000Z</time>
        <extensions>
          <ns3:TrackPointExtension>
            <ns3:hr>108</ns3:hr>
            <ns3:cad>0</ns3:cad>
          </ns3:TrackPointExtension>
        </extensions>
      </trkpt>
      <trkpt lat="37.9874914325773715972900390625" lon="-107.74958881549537181854248046875">
        <ele>4018</ele>
        <time>2026-08-15T15:37:08.000Z</time>
        <extensions>
          <ns3:TrackPointExtension>
            <ns3:hr>105</ns3:hr>
            <ns3:cad>0</ns3:cad>
          </ns3:TrackPointExtension>
        </extensions>
      </trkpt>
      <trkpt lat="37.98747961409389972686767578125" lon="-107.74960909970104694366455078125">
        <ele>4018.60009765625</ele>
        <time>2026-08-15T15:37:11.000Z</time>
        <extensions>
          <ns3:TrackPointExtension>
            <ns3:hr>106</ns3:hr>
            <ns3:cad>0</ns3:cad>
          </ns3:TrackPointExtension>
        </extensions>
      </trkpt>
      <trkpt lat="37.987463437020778656005859375" lon="-107.74964547716081142425537109375">
        <ele>4019</ele>
        <time>2026-08-15T15:37:16.000Z</time>
        <extensions>
          <ns3:TrackPointExtension>
            <ns3:hr>109</ns3:hr>
            <ns3:cad>0</ns3:cad>
          </ns3:TrackPointExtension>
        </extensions>
      </trkpt>
      <trkpt lat="37.98745782114565372467041015625" lon="-107.74965771473944187164306640625">
        <ele>4019</ele>
        <time>2026-08-15T15:37:18.000Z</time>
        <extensions>
          <ns3:TrackPointExtension>
            <ns3:hr>109</ns3:hr>
            <ns3:cad>0</ns3:cad>
          </ns3:TrackPointExtension>
        </extensions>
      </trkpt>
      <trkpt lat="37.9874454997479915618896484375" lon="-107.74968051351606845855712890625">
        <ele>4018.60009765625</ele>
        <time>2026-08-15T15:37:23.000Z</time>
        <extensions>
          <ns3:TrackPointExtension>
            <ns3:hr>109</ns3:hr>
            <ns3:cad>60</ns3:cad>
          </ns3:TrackPointExtension>
        </extensions>
      </trkpt>
      <trkpt lat="37.98742823302745819091796875" lon="-107.749706245958805084228515625">
        <ele>4018.60009765625</ele>
        <time>2026-08-15T15:37:29.000Z</time>
        <extensions>
          <ns3:TrackPointExtension>
            <ns3:hr>109</ns3:hr>
            <ns3:cad>0</ns3:cad>
          </ns3:TrackPointExtension>
        </extensions>
      </trkpt>
      <trkpt lat="37.98741758801043033599853515625" lon="-107.74972594343125820159912109375">
        <ele>4018.60009765625</ele>
        <time>2026-08-15T15:37:32.000Z</time>
        <extensions>
          <ns3:TrackPointExtension>
            <ns3:hr>111</ns3:hr>
            <ns3:cad>0</ns3:cad>
          </ns3:TrackPointExtension>
        </extensions>
      </trkpt>
      <trkpt lat="37.9873948730528354644775390625" lon="-107.74977103807032108306884765625">
        <ele>4018.60009765625</ele>
        <time>2026-08-15T15:37:38.000Z</time>
        <extensions>
          <ns3:TrackPointExtension>
            <ns3:hr>112</ns3:hr>
            <ns3:cad>0</ns3:cad>
          </ns3:TrackPointExtension>
        </extensions>
      </trkpt>
      <trkpt lat="37.98738691024482250213623046875" lon="-107.749787382781505584716796875">
        <ele>4018.800048828125</ele>
        <time>2026-08-15T15:37:40.000Z</time>
        <extensions>
          <ns3:TrackPointExtension>
            <ns3:hr>113</ns3:hr>
            <ns3:cad>0</ns3:cad>
          </ns3:TrackPointExtension>
        </extensions>
      </trkpt>
      <trkpt lat="37.9873620159924030303955078125" lon="-107.74983054958283901214599609375">
        <ele>4018.800048828125</ele>
        <time>2026-08-15T15:37:46.000Z</time>
        <extensions>
          <ns3:TrackPointExtension>
            <ns3:hr>112</ns3:hr>
            <ns3:cad>0</ns3:cad>
          </ns3:TrackPointExtension>
        </extensions>
      </trkpt>
      <trkpt lat="37.9873576574027538299560546875" lon="-107.74983742274343967437744140625">
        <ele>4018.800048828125</ele>
        <time>2026-08-15T15:37:47.000Z</time>
        <extensions>
          <ns3:TrackPointExtension>
            <ns3:hr>112</ns3:hr>
            <ns3:cad>0</ns3:cad>
          </ns3:TrackPointExtension>
        </extensions>
      </trkpt>
      <trkpt lat="37.98734449781477451324462890625" lon="-107.74986625649034976959228515625">
        <ele>4019.39990234375</ele>
        <time>2026-08-15T15:37:51.000Z</time>
        <extensions>
          <ns3:TrackPointExtension>
            <ns3:hr>108</ns3:hr>
            <ns3:cad>0</ns3:cad>
          </ns3:TrackPointExtension>
        </extensions>
      </trkpt>
      <trkpt lat="37.9873405583202838897705078125" lon="-107.74987631477415561676025390625">
        <ele>4019.39990234375</ele>
        <time>2026-08-15T15:37:53.000Z</time>
        <extensions>
          <ns3:TrackPointExtension>
            <ns3:hr>105</ns3:hr>
            <ns3:cad>0</ns3:cad>
          </ns3:TrackPointExtension>
        </extensions>
      </trkpt>
      <trkpt lat="37.987336032092571258544921875" lon="-107.74988553486764430999755859375">
        <ele>4019.39990234375</ele>
        <time>2026-08-15T15:37:55.000Z</time>
        <extensions>
          <ns3:TrackPointExtension>
            <ns3:hr>102</ns3:hr>
            <ns3:cad>0</ns3:cad>
          </ns3:TrackPointExtension>
        </extensions>
      </trkpt>
      <trkpt lat="37.98732924275100231170654296875" lon="-107.74989693425595760345458984375">
        <ele>4019.60009765625</ele>
        <time>2026-08-15T15:37:57.000Z</time>
        <extensions>
          <ns3:TrackPointExtension>
            <ns3:hr>102</ns3:hr>
            <ns3:cad>0</ns3:cad>
          </ns3:TrackPointExtension>
        </extensions>
      </trkpt>
      <trkpt lat="37.98731549642980098724365234375" lon="-107.74991135112941265106201171875">
        <ele>4019.800048828125</ele>
        <time>2026-08-15T15:38:03.000Z</time>
        <extensions>
          <ns3:TrackPointExtension>
            <ns3:hr>105</ns3:hr>
            <ns3:cad>0</ns3:cad>
          </ns3:TrackPointExtension>
        </extensions>
      </trkpt>
      <trkpt lat="37.987306527793407440185546875" lon="-107.74991973303258419036865234375">
        <ele>4019.800048828125</ele>
        <time>2026-08-15T15:38:09.000Z</time>
        <extensions>
          <ns3:TrackPointExtension>
            <ns3:hr>107</ns3:hr>
            <ns3:cad>0</ns3:cad>
          </ns3:TrackPointExtension>
        </extensions>
      </trkpt>
      <trkpt lat="37.98730007372796535491943359375" lon="-107.749924845993518829345703125">
        <ele>4020.199951171875</ele>
        <time>2026-08-15T15:38:11.000Z</time>
        <extensions>
          <ns3:TrackPointExtension>
            <ns3:hr>107</ns3:hr>
            <ns3:cad>0</ns3:cad>
          </ns3:TrackPointExtension>
        </extensions>
      </trkpt>
      <trkpt lat="37.987309210002422332763671875" lon="-107.749917469918727874755859375">
        <ele>4020.39990234375</ele>
        <time>2026-08-15T15:38:17.000Z</time>
        <extensions>
          <ns3:TrackPointExtension>
            <ns3:hr>106</ns3:hr>
            <ns3:cad>0</ns3:cad>
          </ns3:TrackPointExtension>
        </extensions>
      </trkpt>
      <trkpt lat="37.987309210002422332763671875" lon="-107.749917469918727874755859375">
        <ele>4019.800048828125</ele>
        <time>2026-08-15T15:38:23.000Z</time>
        <extensions>
          <ns3:TrackPointExtension>
            <ns3:hr>107</ns3:hr>
            <ns3:cad>0</ns3:cad>
          </ns3:TrackPointExtension>
        </extensions>
      </trkpt>
      <trkpt lat="37.987309210002422332763671875" lon="-107.749917469918727874755859375">
        <ele>4020</ele>
        <time>2026-08-15T15:38:24.000Z</time>
        <extensions>
          <ns3:TrackPointExtension>
            <ns3:hr>106</ns3:hr>
            <ns3:cad>0</ns3:cad>
          </ns3:TrackPointExtension>
        </extensions>
      </trkpt>
      <trkpt lat="37.987309210002422332763671875" lon="-107.749917469918727874755859375">
        <ele>4020.60009765625</ele>
        <time>2026-08-15T15:38:30.000Z</time>
        <extensions>
          <ns3:TrackPointExtension>
            <ns3:hr>107</ns3:hr>
            <ns3:cad>0</ns3:cad>
          </ns3:TrackPointExtension>
        </extensions>
      </trkpt>
      <trkpt lat="37.98728817142546176910400390625" lon="-107.7499374188482761383056640625">
        <ele>4020.199951171875</ele>
        <time>2026-08-15T15:38:35.000Z</time>
        <extensions>
          <ns3:TrackPointExtension>
            <ns3:hr>108</ns3:hr>
            <ns3:cad>0</ns3:cad>
          </ns3:TrackPointExtension>
        </extensions>
      </trkpt>
      <trkpt lat="37.98726889304816722869873046875" lon="-107.74997337721288204193115234375">
        <ele>4020.199951171875</ele>
        <time>2026-08-15T15:38:41.000Z</time>
        <extensions>
          <ns3:TrackPointExtension>
            <ns3:hr>106</ns3:hr>
            <ns3:cad>0</ns3:cad>
          </ns3:TrackPointExtension>
        </extensions>
      </trkpt>
      <trkpt lat="37.98725531436502933502197265625" lon="-107.7499942481517791748046875">
        <ele>4020.60009765625</ele>
        <time>2026-08-15T15:38:46.000Z</time>
        <extensions>
          <ns3:TrackPointExtension>
            <ns3:hr>106</ns3:hr>
            <ns3:cad>0</ns3:cad>
          </ns3:TrackPointExtension>
        </extensions>
      </trkpt>
      <trkpt lat="37.98724676482379436492919921875" lon="-107.7500027976930141448974609375">
        <ele>4021</ele>
        <time>2026-08-15T15:38:48.000Z</time>
        <extensions>
          <ns3:TrackPointExtension>
            <ns3:hr>107</ns3:hr>
            <ns3:cad>0</ns3:cad>
          </ns3:TrackPointExtension>
        </extensions>
      </trkpt>
      <trkpt lat="37.9872205294668674468994140625" lon="-107.75003171525895595550537109375">
        <ele>4020.800048828125</ele>
        <time>2026-08-15T15:38:54.000Z</time>
        <extensions>
          <ns3:TrackPointExtension>
            <ns3:hr>107</ns3:hr>
            <ns3:cad>0</ns3:cad>
          </ns3:TrackPointExtension>
        </extensions>
      </trkpt>
      <trkpt lat="37.98719529993832111358642578125" lon="-107.75007161311805248260498046875">
        <ele>4021.199951171875</ele>
        <time>2026-08-15T15:39:00.000Z</time>
        <extensions>
          <ns3:TrackPointExtension>
            <ns3:hr>106</ns3:hr>
            <ns3:cad>0</ns3:cad>
          </ns3:TrackPointExtension>
        </extensions>
      </trkpt>
      <trkpt lat="37.98718725331127643585205078125" lon="-107.75008368305861949920654296875">
        <ele>4021.60009765625</ele>
        <time>2026-08-15T15:39:03.000Z</time>
        <extensions>
          <ns3:TrackPointExtension>
            <ns3:hr>104</ns3:hr>
            <ns3:cad>0</ns3:cad>
          </ns3:TrackPointExtension>
        </extensions>
      </trkpt>
      <trkpt lat="37.98718524165451526641845703125" lon="-107.75008820928633213043212890625">
        <ele>4021.800048828125</ele>
        <time>2026-08-15T15:39:04.000Z</time>
        <extensions>
          <ns3:TrackPointExtension>
            <ns3:hr>104</ns3:hr>
            <ns3:cad>0</ns3:cad>
          </ns3:TrackPointExtension>
        </extensions>
      </trkpt>
      <trkpt lat="37.98716881312429904937744140625" lon="-107.75010530836880207061767578125">
        <ele>4022.199951171875</ele>
        <time>2026-08-15T15:39:10.000Z</time>
        <extensions>
          <ns3:TrackPointExtension>
            <ns3:hr>104</ns3:hr>
            <ns3:cad>0</ns3:cad>
          </ns3:TrackPointExtension>
        </extensions>
      </trkpt>
      <trkpt lat="37.98714685253798961639404296875" lon="-107.75013699196279048919677734375">
        <ele>4021</ele>
        <time>2026-08-15T15:39:16.000Z</time>
        <extensions>
          <ns3:TrackPointExtension>
            <ns3:hr>102</ns3:hr>
            <ns3:cad>0</ns3:cad>
          </ns3:TrackPointExtension>
        </extensions>
      </trkpt>
      <trkpt lat="37.98714391887187957763671875" lon="-107.75014202110469341278076171875">
        <ele>4020.800048828125</ele>
        <time>2026-08-15T15:39:17.000Z</time>
        <extensions>
          <ns3:TrackPointExtension>
            <ns3:hr>102</ns3:hr>
            <ns3:cad>0</ns3:cad>
          </ns3:TrackPointExtension>
        </extensions>
      </trkpt>
      <trkpt lat="37.98713645897805690765380859375" lon="-107.7501476369798183441162109375">
        <ele>4020.800048828125</ele>
        <time>2026-08-15T15:39:19.000Z</time>
        <extensions>
          <ns3:TrackPointExtension>
            <ns3:hr>102</ns3:hr>
            <ns3:cad>0</ns3:cad>
          </ns3:TrackPointExtension>
        </extensions>
      </trkpt>
      <trkpt lat="37.9871159233152866363525390625" lon="-107.7501885406672954559326171875">
        <ele>4020.39990234375</ele>
        <time>2026-08-15T15:39:24.000Z</time>
        <extensions>
          <ns3:TrackPointExtension>
            <ns3:hr>100</ns3:hr>
            <ns3:cad>0</ns3:cad>
          </ns3:TrackPointExtension>
        </extensions>
      </trkpt>
      <trkpt lat="37.9870954714715480804443359375" lon="-107.7502187155187129974365234375">
        <ele>4020.39990234375</ele>
        <time>2026-08-15T15:39:29.000Z</time>
        <extensions>
          <ns3:TrackPointExtension>
            <ns3:hr>99</ns3:hr>
            <ns3:cad>0</ns3:cad>
          </ns3:TrackPointExtension>
        </extensions>
      </trkpt>
      <trkpt lat="37.9870532266795635223388671875" lon="-107.75026238523423671722412109375">
        <ele>4020.60009765625</ele>
        <time>2026-08-15T15:39:35.000Z</time>
        <extensions>
          <ns3:TrackPointExtension>
            <ns3:hr>101</ns3:hr>
            <ns3:cad>42</ns3:cad>
          </ns3:TrackPointExtension>
        </extensions>
      </trkpt>
      <trkpt lat="37.98702984116971492767333984375" lon="-107.7502968348562717437744140625">
        <ele>4020.60009765625</ele>
        <time>2026-08-15T15:39:39.000Z</time>
        <extensions>
          <ns3:TrackPointExtension>
            <ns3:hr>104</ns3:hr>
            <ns3:cad>51</ns3:cad>
          </ns3:TrackPointExtension>
        </extensions>
      </trkpt>
      <trkpt lat="37.9870139993727207183837890625" lon="-107.75030345655977725982666015625">
        <ele>4020.39990234375</ele>
        <time>2026-08-15T15:39:42.000Z</time>
        <extensions>
          <ns3:TrackPointExtension>
            <ns3:hr>103</ns3:hr>
            <ns3:cad>48</ns3:cad>
          </ns3:TrackPointExtension>
        </extensions>
      </trkpt>
      <trkpt lat="37.98696932382881641387939453125" lon="-107.750320471823215484619140625">
        <ele>4019.800048828125</ele>
        <time>2026-08-15T15:39:47.000Z</time>
        <extensions>
          <ns3:TrackPointExtension>
            <ns3:hr>101</ns3:hr>
            <ns3:cad>0</ns3:cad>
          </ns3:TrackPointExtension>
        </extensions>
      </trkpt>
      <trkpt lat="37.986975274980068206787109375" lon="-107.750322818756103515625">
        <ele>4019.60009765625</ele>
        <time>2026-08-15T15:39:48.000Z</time>
        <extensions>
          <ns3:TrackPointExtension>
            <ns3:hr>101</ns3:hr>
            <ns3:cad>0</ns3:cad>
          </ns3:TrackPointExtension>
        </extensions>
      </trkpt>
      <trkpt lat="37.9869751073420047760009765625" lon="-107.750322818756103515625">
        <ele>4019.199951171875</ele>
        <time>2026-08-15T15:39:54.000Z</time>
        <extensions>
          <ns3:TrackPointExtension>
            <ns3:hr>99</ns3:hr>
            <ns3:cad>0</ns3:cad>
          </ns3:TrackPointExtension>
        </extensions>
      </trkpt>
      <trkpt lat="37.9869751073420047760009765625" lon="-107.750322818756103515625">
        <ele>4019.39990234375</ele>
        <time>2026-08-15T15:39:55.000Z</time>
        <extensions>
          <ns3:TrackPointExtension>
            <ns3:hr>99</ns3:hr>
            <ns3:cad>0</ns3:cad>
          </ns3:TrackPointExtension>
        </extensions>
      </trkpt>
      <trkpt lat="37.9869751073420047760009765625" lon="-107.750322818756103515625">
        <ele>4020</ele>
        <time>2026-08-15T15:40:01.000Z</time>
        <extensions>
          <ns3:TrackPointExtension>
            <ns3:hr>97</ns3:hr>
            <ns3:cad>0</ns3:cad>
          </ns3:TrackPointExtension>
        </extensions>
      </trkpt>
      <trkpt lat="37.98697820864617824554443359375" lon="-107.75034553371369838714599609375">
        <ele>4020.60009765625</ele>
        <time>2026-08-15T15:40:07.000Z</time>
        <extensions>
          <ns3:TrackPointExtension>
            <ns3:hr>95</ns3:hr>
            <ns3:cad>0</ns3:cad>
          </ns3:TrackPointExtension>
        </extensions>
      </trkpt>
      <trkpt lat="37.98697292804718017578125" lon="-107.75036145932972431182861328125">
        <ele>4021</ele>
        <time>2026-08-15T15:40:10.000Z</time>
        <extensions>
          <ns3:TrackPointExtension>
            <ns3:hr>93</ns3:hr>
            <ns3:cad>0</ns3:cad>
          </ns3:TrackPointExtension>
        </extensions>
      </trkpt>
      <trkpt lat="37.98696957528591156005859375" lon="-107.75037487037479877471923828125">
        <ele>4022</ele>
        <time>2026-08-15T15:40:13.000Z</time>
        <extensions>
          <ns3:TrackPointExtension>
            <ns3:hr>94</ns3:hr>
            <ns3:cad>0</ns3:cad>
          </ns3:TrackPointExtension>
        </extensions>
      </trkpt>
      <trkpt lat="37.98695742152631282806396484375" lon="-107.750390879809856414794921875">
        <ele>4023</ele>
        <time>2026-08-15T15:40:16.000Z</time>
        <extensions>
          <ns3:TrackPointExtension>
            <ns3:hr>95</ns3:hr>
            <ns3:cad>0</ns3:cad>
          </ns3:TrackPointExtension>
        </extensions>
      </trkpt>
      <trkpt lat="37.986948452889919281005859375" lon="-107.75040336884558200836181640625">
        <ele>4023.39990234375</ele>
        <time>2026-08-15T15:40:18.000Z</time>
        <extensions>
          <ns3:TrackPointExtension>
            <ns3:hr>98</ns3:hr>
            <ns3:cad>0</ns3:cad>
          </ns3:TrackPointExtension>
        </extensions>
      </trkpt>
      <trkpt lat="37.986949793994426727294921875" lon="-107.75042382068932056427001953125">
        <ele>4023.800048828125</ele>
        <time>2026-08-15T15:40:22.000Z</time>
        <extensions>
          <ns3:TrackPointExtension>
            <ns3:hr>101</ns3:hr>
            <ns3:cad>0</ns3:cad>
          </ns3:TrackPointExtension>
        </extensions>
      </trkpt>
      <trkpt lat="37.98694945871829986572265625" lon="-107.75042884983122348785400390625">
        <ele>4023.800048828125</ele>
        <time>2026-08-15T15:40:23.000Z</time>
        <extensions>
          <ns3:TrackPointExtension>
            <ns3:hr>101</ns3:hr>
            <ns3:cad>0</ns3:cad>
          </ns3:TrackPointExtension>
        </extensions>
      </trkpt>
      <trkpt lat="37.9869640432298183441162109375" lon="-107.750470004975795745849609375">
        <ele>4023.800048828125</ele>
        <time>2026-08-15T15:40:29.000Z</time>
        <extensions>
          <ns3:TrackPointExtension>
            <ns3:hr>102</ns3:hr>
            <ns3:cad>0</ns3:cad>
          </ns3:TrackPointExtension>
        </extensions>
      </trkpt>
      <trkpt lat="37.98696815036237239837646484375" lon="-107.7504762075841426849365234375">
        <ele>4023.800048828125</ele>
        <time>2026-08-15T15:40:30.000Z</time>
        <extensions>
          <ns3:TrackPointExtension>
            <ns3:hr>101</ns3:hr>
            <ns3:cad>0</ns3:cad>
          </ns3:TrackPointExtension>
        </extensions>
      </trkpt>
      <trkpt lat="37.986991703510284423828125" lon="-107.7505167759954929351806640625">
        <ele>4024.199951171875</ele>
        <time>2026-08-15T15:40:35.000Z</time>
        <extensions>
          <ns3:TrackPointExtension>
            <ns3:hr>100</ns3:hr>
            <ns3:cad>0</ns3:cad>
          </ns3:TrackPointExtension>
        </extensions>
      </trkpt>
      <trkpt lat="37.987008802592754364013671875" lon="-107.75053940713405609130859375">
        <ele>4025</ele>
        <time>2026-08-15T15:40:38.000Z</time>
        <extensions>
          <ns3:TrackPointExtension>
            <ns3:hr>100</ns3:hr>
            <ns3:cad>0</ns3:cad>
          </ns3:TrackPointExtension>
        </extensions>
      </trkpt>
      <trkpt lat="37.98701911233365535736083984375" lon="-107.75054988451302051544189453125">
        <ele>4025.199951171875</ele>
        <time>2026-08-15T15:40:43.000Z</time>
        <extensions>
          <ns3:TrackPointExtension>
            <ns3:hr>103</ns3:hr>
            <ns3:cad>0</ns3:cad>
          </ns3:TrackPointExtension>
        </extensions>
      </trkpt>
      <trkpt lat="37.98701911233365535736083984375" lon="-107.75054988451302051544189453125">
        <ele>4025</ele>
        <time>2026-08-15T15:40:44.000Z</time>
        <extensions>
          <ns3:TrackPointExtension>
            <ns3:hr>104</ns3:hr>
            <ns3:cad>0</ns3:cad>
          </ns3:TrackPointExtension>
        </extensions>
      </trkpt>
      <trkpt lat="37.98701911233365535736083984375" lon="-107.75054988451302051544189453125">
        <ele>4024.800048828125</ele>
        <time>2026-08-15T15:40:48.000Z</time>
        <extensions>
          <ns3:TrackPointExtension>
            <ns3:hr>107</ns3:hr>
            <ns3:cad>0</ns3:cad>
          </ns3:TrackPointExtension>
        </extensions>
      </trkpt>
      <trkpt lat="37.98701911233365535736083984375" lon="-107.75054988451302051544189453125">
        <ele>4024.800048828125</ele>
        <time>2026-08-15T15:40:50.000Z</time>
        <extensions>
          <ns3:TrackPointExtension>
            <ns3:hr>110</ns3:hr>
            <ns3:cad>0</ns3:cad>
          </ns3:TrackPointExtension>
        </extensions>
      </trkpt>
      <trkpt lat="37.98701911233365535736083984375" lon="-107.75054988451302051544189453125">
        <ele>4024.800048828125</ele>
        <time>2026-08-15T15:40:53.000Z</time>
        <extensions>
          <ns3:TrackPointExtension>
            <ns3:hr>114</ns3:hr>
            <ns3:cad>0</ns3:cad>
          </ns3:TrackPointExtension>
        </extensions>
      </trkpt>
      <trkpt lat="37.98701911233365535736083984375" lon="-107.75054988451302051544189453125">
        <ele>4025</ele>
        <time>2026-08-15T15:40:55.000Z</time>
        <extensions>
          <ns3:TrackPointExtension>
            <ns3:hr>119</ns3:hr>
            <ns3:cad>0</ns3:cad>
          </ns3:TrackPointExtension>
        </extensions>
      </trkpt>
      <trkpt lat="37.98701911233365535736083984375" lon="-107.75054988451302051544189453125">
        <ele>4025</ele>
        <time>2026-08-15T15:40:56.000Z</time>
        <extensions>
          <ns3:TrackPointExtension>
            <ns3:hr>124</ns3:hr>
            <ns3:cad>0</ns3:cad>
          </ns3:TrackPointExtension>
        </extensions>
      </trkpt>
      <trkpt lat="37.987034283578395843505859375" lon="-107.750559858977794647216796875">
        <ele>4024.60009765625</ele>
        <time>2026-08-15T15:41:01.000Z</time>
        <extensions>
          <ns3:TrackPointExtension>
            <ns3:hr>125</ns3:hr>
            <ns3:cad>0</ns3:cad>
          </ns3:TrackPointExtension>
        </extensions>
      </trkpt>
      <trkpt lat="37.98710242845118045806884765625" lon="-107.75055575184524059295654296875">
        <ele>4024.60009765625</ele>
        <time>2026-08-15T15:41:07.000Z</time>
        <extensions>
          <ns3:TrackPointExtension>
            <ns3:hr>126</ns3:hr>
            <ns3:cad>51</ns3:cad>
          </ns3:TrackPointExtension>
        </extensions>
      </trkpt>
      <trkpt lat="37.98712941817939281463623046875" lon="-107.75055038742721080780029296875">
        <ele>4024.800048828125</ele>
        <time>2026-08-15T15:41:10.000Z</time>
        <extensions>
          <ns3:TrackPointExtension>
            <ns3:hr>129</ns3:hr>
            <ns3:cad>51</ns3:cad>
          </ns3:TrackPointExtension>
        </extensions>
      </trkpt>
      <trkpt lat="37.98716244287788867950439453125" lon="-107.750524319708347320556640625">
        <ele>4025.39990234375</ele>
        <time>2026-08-15T15:41:15.000Z</time>
        <extensions>
          <ns3:TrackPointExtension>
            <ns3:hr>130</ns3:hr>
            <ns3:cad>0</ns3:cad>
          </ns3:TrackPointExtension>
        </extensions>
      </trkpt>
      <trkpt lat="37.98717367462813854217529296875" lon="-107.75051124393939971923828125">
        <ele>4025.800048828125</ele>
        <time>2026-08-15T15:41:17.000Z</time>
        <extensions>
          <ns3:TrackPointExtension>
            <ns3:hr>130</ns3:hr>
            <ns3:cad>0</ns3:cad>
          </ns3:TrackPointExtension>
        </extensions>
      </trkpt>
      <trkpt lat="37.9871960543096065521240234375" lon="-107.75048987008631229400634765625">
        <ele>4026.39990234375</ele>
        <time>2026-08-15T15:41:21.000Z</time>
        <extensions>
          <ns3:TrackPointExtension>
            <ns3:hr>127</ns3:hr>
            <ns3:cad>51</ns3:cad>
          </ns3:TrackPointExtension>
        </extensions>
      </trkpt>
      <trkpt lat="37.98720468766987323760986328125" lon="-107.7504839189350605010986328125">
        <ele>4026.39990234375</ele>
        <time>2026-08-15T15:41:23.000Z</time>
        <extensions>
          <ns3:TrackPointExtension>
            <ns3:hr>124</ns3:hr>
            <ns3:cad>51</ns3:cad>
          </ns3:TrackPointExtension>
        </extensions>
      </trkpt>
      <trkpt lat="37.987221367657184600830078125" lon="-107.7504711784422397613525390625">
        <ele>4026.60009765625</ele>
        <time>2026-08-15T15:41:27.000Z</time>
        <extensions>
          <ns3:TrackPointExtension>
            <ns3:hr>121</ns3:hr>
            <ns3:cad>47</ns3:cad>
          </ns3:TrackPointExtension>
        </extensions>
      </trkpt>
      <trkpt lat="37.98722631298005580902099609375" lon="-107.7504741959273815155029296875">
        <ele>4027.39990234375</ele>
        <time>2026-08-15T15:41:29.000Z</time>
        <extensions>
          <ns3:TrackPointExtension>
            <ns3:hr>120</ns3:hr>
            <ns3:cad>0</ns3:cad>
          </ns3:TrackPointExtension>
        </extensions>
      </trkpt>
      <trkpt lat="37.98722916282713413238525390625" lon="-107.75047495029866695404052734375">
        <ele>4027.800048828125</ele>
        <time>2026-08-15T15:41:30.000Z</time>
        <extensions>
          <ns3:TrackPointExtension>
            <ns3:hr>120</ns3:hr>
            <ns3:cad>0</ns3:cad>
          </ns3:TrackPointExtension>
        </extensions>
      </trkpt>
      <trkpt lat="37.9872470162808895111083984375" lon="-107.7504594437777996063232421875">
        <ele>4028.800048828125</ele>
        <time>2026-08-15T15:41:35.000Z</time>
        <extensions>
          <ns3:TrackPointExtension>
            <ns3:hr>119</ns3:hr>
            <ns3:cad>0</ns3:cad>
          </ns3:TrackPointExtension>
        </extensions>
      </trkpt>
      <trkpt lat="37.9872510395944118499755859375" lon="-107.750453241169452667236328125">
        <ele>4029.199951171875</ele>
        <time>2026-08-15T15:41:36.000Z</time>
        <extensions>
          <ns3:TrackPointExtension>
            <ns3:hr>119</ns3:hr>
            <ns3:cad>0</ns3:cad>
          </ns3:TrackPointExtension>
        </extensions>
      </trkpt>
      <trkpt lat="37.987274341285228729248046875" lon="-107.7504359744489192962646484375">
        <ele>4030.199951171875</ele>
        <time>2026-08-15T15:41:41.000Z</time>
        <extensions>
          <ns3:TrackPointExtension>
            <ns3:hr>119</ns3:hr>
            <ns3:cad>0</ns3:cad>
          </ns3:TrackPointExtension>
        </extensions>
      </trkpt>
      <trkpt lat="37.9872815497219562530517578125" lon="-107.750439830124378204345703125">
        <ele>4030.60009765625</ele>
        <time>2026-08-15T15:41:43.000Z</time>
        <extensions>
          <ns3:TrackPointExtension>
            <ns3:hr>119</ns3:hr>
            <ns3:cad>0</ns3:cad>
          </ns3:TrackPointExtension>
        </extensions>
      </trkpt>
      <trkpt lat="37.98730828799307346343994140625" lon="-107.7504336275160312652587890625">
        <ele>4031.39990234375</ele>
        <time>2026-08-15T15:41:48.000Z</time>
        <extensions>
          <ns3:TrackPointExtension>
            <ns3:hr>119</ns3:hr>
            <ns3:cad>73</ns3:cad>
          </ns3:TrackPointExtension>
        </extensions>
      </trkpt>
      <trkpt lat="37.98731080256402492523193359375" lon="-107.750432789325714111328125">
        <ele>4031.39990234375</ele>
        <time>2026-08-15T15:41:52.000Z</time>
        <extensions>
          <ns3:TrackPointExtension>
            <ns3:hr>119</ns3:hr>
            <ns3:cad>0</ns3:cad>
          </ns3:TrackPointExtension>
        </extensions>
      </trkpt>
      <trkpt lat="37.98731080256402492523193359375" lon="-107.750432789325714111328125">
        <ele>4031</ele>
        <time>2026-08-15T15:41:58.000Z</time>
        <extensions>
          <ns3:TrackPointExtension>
            <ns3:hr>120</ns3:hr>
            <ns3:cad>0</ns3:cad>
          </ns3:TrackPointExtension>
        </extensions>
      </trkpt>
      <trkpt lat="37.98731080256402492523193359375" lon="-107.750432789325714111328125">
        <ele>4031</ele>
        <time>2026-08-15T15:42:03.000Z</time>
        <extensions>
          <ns3:TrackPointExtension>
            <ns3:hr>123</ns3:hr>
            <ns3:cad>0</ns3:cad>
          </ns3:TrackPointExtension>
        </extensions>
      </trkpt>
      <trkpt lat="37.98731080256402492523193359375" lon="-107.750432789325714111328125">
        <ele>4030.800048828125</ele>
        <time>2026-08-15T15:42:04.000Z</time>
        <extensions>
          <ns3:TrackPointExtension>
            <ns3:hr>126</ns3:hr>
            <ns3:cad>0</ns3:cad>
          </ns3:TrackPointExtension>
        </extensions>
      </trkpt>
      <trkpt lat="37.98731080256402492523193359375" lon="-107.750432789325714111328125">
        <ele>4031</ele>
        <time>2026-08-15T15:42:06.000Z</time>
        <extensions>
          <ns3:TrackPointExtension>
            <ns3:hr>127</ns3:hr>
            <ns3:cad>0</ns3:cad>
          </ns3:TrackPointExtension>
        </extensions>
      </trkpt>
      <trkpt lat="37.98731080256402492523193359375" lon="-107.750432789325714111328125">
        <ele>4031</ele>
        <time>2026-08-15T15:42:12.000Z</time>
        <extensions>
          <ns3:TrackPointExtension>
            <ns3:hr>127</ns3:hr>
            <ns3:cad>0</ns3:cad>
          </ns3:TrackPointExtension>
        </extensions>
      </trkpt>
      <trkpt lat="37.98731080256402492523193359375" lon="-107.750432789325714111328125">
        <ele>4031</ele>
        <time>2026-08-15T15:42:15.000Z</time>
        <extensions>
          <ns3:TrackPointExtension>
            <ns3:hr>125</ns3:hr>
            <ns3:cad>0</ns3:cad>
          </ns3:TrackPointExtension>
        </extensions>
      </trkpt>
      <trkpt lat="37.98732924275100231170654296875" lon="-107.75043723173439502716064453125">
        <ele>4030.800048828125</ele>
        <time>2026-08-15T15:42:21.000Z</time>
        <extensions>
          <ns3:TrackPointExtension>
            <ns3:hr>123</ns3:hr>
            <ns3:cad>0</ns3:cad>
          </ns3:TrackPointExtension>
        </extensions>
      </trkpt>
      <trkpt lat="37.98733343370258808135986328125" lon="-107.7504341304302215576171875">
        <ele>4031</ele>
        <time>2026-08-15T15:42:22.000Z</time>
        <extensions>
          <ns3:TrackPointExtension>
            <ns3:hr>122</ns3:hr>
            <ns3:cad>0</ns3:cad>
          </ns3:TrackPointExtension>
        </extensions>
      </trkpt>
      <trkpt lat="37.9873418994247913360595703125" lon="-107.750434465706348419189453125">
        <ele>4031.800048828125</ele>
        <time>2026-08-15T15:42:25.000Z</time>
        <extensions>
          <ns3:TrackPointExtension>
            <ns3:hr>119</ns3:hr>
            <ns3:cad>0</ns3:cad>
          </ns3:TrackPointExtension>
        </extensions>
      </trkpt>
      <trkpt lat="37.987359501421451568603515625" lon="-107.75042968802154064178466796875">
        <ele>4032.39990234375</ele>
        <time>2026-08-15T15:42:28.000Z</time>
        <extensions>
          <ns3:TrackPointExtension>
            <ns3:hr>118</ns3:hr>
            <ns3:cad>0</ns3:cad>
          </ns3:TrackPointExtension>
        </extensions>
      </trkpt>
      <trkpt lat="37.98736377619206905364990234375" lon="-107.7504232339560985565185546875">
        <ele>4032.39990234375</ele>
        <time>2026-08-15T15:42:29.000Z</time>
        <extensions>
          <ns3:TrackPointExtension>
            <ns3:hr>118</ns3:hr>
            <ns3:cad>0</ns3:cad>
          </ns3:TrackPointExtension>
        </extensions>
      </trkpt>
      <trkpt lat="37.98737458884716033935546875" lon="-107.75041409768164157867431640625">
        <ele>4033.60009765625</ele>
        <time>2026-08-15T15:42:33.000Z</time>
        <extensions>
          <ns3:TrackPointExtension>
            <ns3:hr>119</ns3:hr>
            <ns3:cad>43</ns3:cad>
          </ns3:TrackPointExtension>
        </extensions>
      </trkpt>
      <trkpt lat="37.9873926937580108642578125" lon="-107.75039901025593280792236328125">
        <ele>4034.199951171875</ele>
        <time>2026-08-15T15:42:36.000Z</time>
        <extensions>
          <ns3:TrackPointExtension>
            <ns3:hr>116</ns3:hr>
            <ns3:cad>40</ns3:cad>
          </ns3:TrackPointExtension>
        </extensions>
      </trkpt>
      <trkpt lat="37.98740082420408725738525390625" lon="-107.75038652122020721435546875">
        <ele>4034.800048828125</ele>
        <time>2026-08-15T15:42:38.000Z</time>
        <extensions>
          <ns3:TrackPointExtension>
            <ns3:hr>114</ns3:hr>
            <ns3:cad>40</ns3:cad>
          </ns3:TrackPointExtension>
        </extensions>
      </trkpt>
      <trkpt lat="37.9874186776578426361083984375" lon="-107.7503776364028453826904296875">
        <ele>4036</ele>
        <time>2026-08-15T15:42:42.000Z</time>
        <extensions>
          <ns3:TrackPointExtension>
            <ns3:hr>112</ns3:hr>
            <ns3:cad>40</ns3:cad>
          </ns3:TrackPointExtension>
        </extensions>
      </trkpt>
      <trkpt lat="37.98742613755166530609130859375" lon="-107.7503773011267185211181640625">
        <ele>4036.60009765625</ele>
        <time>2026-08-15T15:42:44.000Z</time>
        <extensions>
          <ns3:TrackPointExtension>
            <ns3:hr>111</ns3:hr>
            <ns3:cad>0</ns3:cad>
          </ns3:TrackPointExtension>
        </extensions>
      </trkpt>
      <trkpt lat="37.98743887804448604583740234375" lon="-107.75037688203155994415283203125">
        <ele>4037</ele>
        <time>2026-08-15T15:42:46.000Z</time>
        <extensions>
          <ns3:TrackPointExtension>
            <ns3:hr>111</ns3:hr>
            <ns3:cad>0</ns3:cad>
          </ns3:TrackPointExtension>
        </extensions>
      </trkpt>
      <trkpt lat="37.98744088970124721527099609375" lon="-107.750370763242244720458984375">
        <ele>4038</ele>
        <time>2026-08-15T15:42:51.000Z</time>
        <extensions>
          <ns3:TrackPointExtension>
            <ns3:hr>113</ns3:hr>
            <ns3:cad>0</ns3:cad>
          </ns3:TrackPointExtension>
        </extensions>
      </trkpt>
      <trkpt lat="37.987442314624786376953125" lon="-107.75037336163222789764404296875">
        <ele>4038.199951171875</ele>
        <time>2026-08-15T15:42:52.000Z</time>
        <extensions>
          <ns3:TrackPointExtension>
            <ns3:hr>114</ns3:hr>
            <ns3:cad>0</ns3:cad>
          </ns3:TrackPointExtension>
        </extensions>
      </trkpt>
      <trkpt lat="37.98744860105216503143310546875" lon="-107.750380150973796844482421875">
        <ele>4038.60009765625</ele>
        <time>2026-08-15T15:42:58.000Z</time>
        <extensions>
          <ns3:TrackPointExtension>
            <ns3:hr>116</ns3:hr>
            <ns3:cad>0</ns3:cad>
          </ns3:TrackPointExtension>
        </extensions>
      </trkpt>
      <trkpt lat="37.98745497129857540130615234375" lon="-107.7503786422312259674072265625">
        <ele>4038.60009765625</ele>
        <time>2026-08-15T15:42:59.000Z</time>
        <extensions>
          <ns3:TrackPointExtension>
            <ns3:hr>117</ns3:hr>
            <ns3:cad>0</ns3:cad>
          </ns3:TrackPointExtension>
        </extensions>
      </trkpt>
      <trkpt lat="37.98747207038104534149169921875" lon="-107.7503742836415767669677734375">
        <ele>4039.199951171875</ele>
        <time>2026-08-15T15:43:03.000Z</time>
        <extensions>
          <ns3:TrackPointExtension>
            <ns3:hr>119</ns3:hr>
            <ns3:cad>75</ns3:cad>
          </ns3:TrackPointExtension>
        </extensions>
      </trkpt>
      <trkpt lat="37.98748330213129520416259765625" lon="-107.750364728271961212158203125">
        <ele>4039.800048828125</ele>
        <time>2026-08-15T15:43:08.000Z</time>
        <extensions>
          <ns3:TrackPointExtension>
            <ns3:hr>122</ns3:hr>
            <ns3:cad>50</ns3:cad>
          </ns3:TrackPointExtension>
        </extensions>
      </trkpt>
      <trkpt lat="37.98749436624348163604736328125" lon="-107.75036347098648548126220703125">
        <ele>4040.199951171875</ele>
        <time>2026-08-15T15:43:14.000Z</time>
        <extensions>
          <ns3:TrackPointExtension>
            <ns3:hr>122</ns3:hr>
            <ns3:cad>0</ns3:cad>
          </ns3:TrackPointExtension>
        </extensions>
      </trkpt>
      <trkpt lat="37.98749436624348163604736328125" lon="-107.75036347098648548126220703125">
        <ele>4040.199951171875</ele>
        <time>2026-08-15T15:43:16.000Z</time>
        <extensions>
          <ns3:TrackPointExtension>
            <ns3:hr>121</ns3:hr>
            <ns3:cad>0</ns3:cad>
          </ns3:TrackPointExtension>
        </extensions>
      </trkpt>
      <trkpt lat="37.98751364462077617645263671875" lon="-107.7503591962158679962158203125">
        <ele>4039.800048828125</ele>
        <time>2026-08-15T15:43:22.000Z</time>
        <extensions>
          <ns3:TrackPointExtension>
            <ns3:hr>119</ns3:hr>
            <ns3:cad>0</ns3:cad>
          </ns3:TrackPointExtension>
        </extensions>
      </trkpt>
      <trkpt lat="37.98751934431493282318115234375" lon="-107.7503575198352336883544921875">
        <ele>4039.60009765625</ele>
        <time>2026-08-15T15:43:23.000Z</time>
        <extensions>
          <ns3:TrackPointExtension>
            <ns3:hr>118</ns3:hr>
            <ns3:cad>0</ns3:cad>
          </ns3:TrackPointExtension>
        </extensions>
      </trkpt>
      <trkpt lat="37.9875469207763671875" lon="-107.7503447793424129486083984375">
        <ele>4039.800048828125</ele>
        <time>2026-08-15T15:43:29.000Z</time>
        <extensions>
          <ns3:TrackPointExtension>
            <ns3:hr>117</ns3:hr>
            <ns3:cad>0</ns3:cad>
          </ns3:TrackPointExtension>
        </extensions>
      </trkpt>
      <trkpt lat="37.98755605705082416534423828125" lon="-107.75033916346728801727294921875">
        <ele>4040.39990234375</ele>
        <time>2026-08-15T15:43:31.000Z</time>
        <extensions>
          <ns3:TrackPointExtension>
            <ns3:hr>117</ns3:hr>
            <ns3:cad>0</ns3:cad>
          </ns3:TrackPointExtension>
        </extensions>
      </trkpt>
      <trkpt lat="37.98756762407720088958740234375" lon="-107.750313766300678253173828125">
        <ele>4041</ele>
        <time>2026-08-15T15:43:37.000Z</time>
        <extensions>
          <ns3:TrackPointExtension>
            <ns3:hr>115</ns3:hr>
            <ns3:cad>57</ns3:cad>
          </ns3:TrackPointExtension>
        </extensions>
      </trkpt>
      <trkpt lat="37.9875697195529937744140625" lon="-107.7503107488155364990234375">
        <ele>4041.199951171875</ele>
        <time>2026-08-15T15:43:38.000Z</time>
        <extensions>
          <ns3:TrackPointExtension>
            <ns3:hr>115</ns3:hr>
            <ns3:cad>0</ns3:cad>
          </ns3:TrackPointExtension>
        </extensions>
      </trkpt>
      <trkpt lat="37.98757131211459636688232421875" lon="-107.75030932389199733734130859375">
        <ele>4041.60009765625</ele>
        <time>2026-08-15T15:43:39.000Z</time>
        <extensions>
          <ns3:TrackPointExtension>
            <ns3:hr>115</ns3:hr>
            <ns3:cad>0</ns3:cad>
          </ns3:TrackPointExtension>
        </extensions>
      </trkpt>
      <trkpt lat="37.987578772008419036865234375" lon="-107.75029691867530345916748046875">
        <ele>4042.60009765625</ele>
        <time>2026-08-15T15:43:45.000Z</time>
        <extensions>
          <ns3:TrackPointExtension>
            <ns3:hr>115</ns3:hr>
            <ns3:cad>0</ns3:cad>
          </ns3:TrackPointExtension>
        </extensions>
      </trkpt>
      <trkpt lat="37.9875863157212734222412109375" lon="-107.75029976852238178253173828125">
        <ele>4042.60009765625</ele>
        <time>2026-08-15T15:43:46.000Z</time>
        <extensions>
          <ns3:TrackPointExtension>
            <ns3:hr>113</ns3:hr>
            <ns3:cad>0</ns3:cad>
          </ns3:TrackPointExtension>
        </extensions>
      </trkpt>
      <trkpt lat="37.98761389218270778656005859375" lon="-107.75030077435076236724853515625">
        <ele>4043.800048828125</ele>
        <time>2026-08-15T15:43:52.000Z</time>
        <extensions>
          <ns3:TrackPointExtension>
            <ns3:hr>112</ns3:hr>
            <ns3:cad>0</ns3:cad>
          </ns3:TrackPointExtension>
        </extensions>
      </trkpt>
      <trkpt lat="37.9876215197145938873291015625" lon="-107.75029934942722320556640625">
        <ele>4044</ele>
        <time>2026-08-15T15:43:54.000Z</time>
        <extensions>
          <ns3:TrackPointExtension>
            <ns3:hr>112</ns3:hr>
            <ns3:cad>0</ns3:cad>
          </ns3:TrackPointExtension>
        </extensions>
      </trkpt>
      <trkpt lat="37.98761975951492786407470703125" lon="-107.7503005228936672210693359375">
        <ele>4043.800048828125</ele>
        <time>2026-08-15T15:43:59.000Z</time>
        <extensions>
          <ns3:TrackPointExtension>
            <ns3:hr>112</ns3:hr>
            <ns3:cad>0</ns3:cad>
          </ns3:TrackPointExtension>
        </extensions>
      </trkpt>
      <trkpt lat="37.98761975951492786407470703125" lon="-107.7503005228936672210693359375">
        <ele>4043.800048828125</ele>
        <time>2026-08-15T15:44:05.000Z</time>
        <extensions>
          <ns3:TrackPointExtension>
            <ns3:hr>111</ns3:hr>
            <ns3:cad>0</ns3:cad>
          </ns3:TrackPointExtension>
        </extensions>
      </trkpt>
      <trkpt lat="37.98761975951492786407470703125" lon="-107.7503005228936672210693359375">
        <ele>4044.199951171875</ele>
        <time>2026-08-15T15:44:10.000Z</time>
        <extensions>
          <ns3:TrackPointExtension>
            <ns3:hr>110</ns3:hr>
            <ns3:cad>0</ns3:cad>
          </ns3:TrackPointExtension>
        </extensions>
      </trkpt>
      <trkpt lat="37.98762847669422626495361328125" lon="-107.7503021992743015289306640625">
        <ele>4043</ele>
        <time>2026-08-15T15:44:16.000Z</time>
        <extensions>
          <ns3:TrackPointExtension>
            <ns3:hr>108</ns3:hr>
            <ns3:cad>0</ns3:cad>
          </ns3:TrackPointExtension>
        </extensions>
      </trkpt>
      <trkpt lat="37.98764775507152080535888671875" lon="-107.7502973377704620361328125">
        <ele>4043.199951171875</ele>
        <time>2026-08-15T15:44:22.000Z</time>
        <extensions>
          <ns3:TrackPointExtension>
            <ns3:hr>107</ns3:hr>
            <ns3:cad>0</ns3:cad>
          </ns3:TrackPointExtension>
        </extensions>
      </trkpt>
      <trkpt lat="37.98766468651592731475830078125" lon="-107.75029524229466915130615234375">
        <ele>4042.800048828125</ele>
        <time>2026-08-15T15:44:24.000Z</time>
        <extensions>
          <ns3:TrackPointExtension>
            <ns3:hr>107</ns3:hr>
            <ns3:cad>0</ns3:cad>
          </ns3:TrackPointExtension>
        </extensions>
      </trkpt>
      <trkpt lat="37.987688072025775909423828125" lon="-107.75028468109667301177978515625">
        <ele>4042.800048828125</ele>
        <time>2026-08-15T15:44:28.000Z</time>
        <extensions>
          <ns3:TrackPointExtension>
            <ns3:hr>110</ns3:hr>
            <ns3:cad>0</ns3:cad>
          </ns3:TrackPointExtension>
        </extensions>
      </trkpt>
      <trkpt lat="37.9876946099102497100830078125" lon="-107.75028032250702381134033203125">
        <ele>4043</ele>
        <time>2026-08-15T15:44:32.000Z</time>
        <extensions>
          <ns3:TrackPointExtension>
            <ns3:hr>111</ns3:hr>
            <ns3:cad>0</ns3:cad>
          </ns3:TrackPointExtension>
        </extensions>
      </trkpt>
      <trkpt lat="37.9877217672765254974365234375" lon="-107.750270180404186248779296875">
        <ele>4042.800048828125</ele>
        <time>2026-08-15T15:44:38.000Z</time>
        <extensions>
          <ns3:TrackPointExtension>
            <ns3:hr>114</ns3:hr>
            <ns3:cad>0</ns3:cad>
          </ns3:TrackPointExtension>
        </extensions>
      </trkpt>
      <trkpt lat="37.9877422191202640533447265625" lon="-107.75026582181453704833984375">
        <ele>4043</ele>
        <time>2026-08-15T15:44:44.000Z</time>
        <extensions>
          <ns3:TrackPointExtension>
            <ns3:hr>112</ns3:hr>
            <ns3:cad>0</ns3:cad>
          </ns3:TrackPointExtension>
        </extensions>
      </trkpt>
      <trkpt lat="37.9877762496471405029296875" lon="-107.75024411268532276153564453125">
        <ele>4043.60009765625</ele>
        <time>2026-08-15T15:44:50.000Z</time>
        <extensions>
          <ns3:TrackPointExtension>
            <ns3:hr>112</ns3:hr>
            <ns3:cad>0</ns3:cad>
          </ns3:TrackPointExtension>
        </extensions>
      </trkpt>
      <trkpt lat="37.9877807758748531341552734375" lon="-107.7502410113811492919921875">
        <ele>4043.800048828125</ele>
        <time>2026-08-15T15:44:51.000Z</time>
        <extensions>
          <ns3:TrackPointExtension>
            <ns3:hr>112</ns3:hr>
            <ns3:cad>0</ns3:cad>
          </ns3:TrackPointExtension>
        </extensions>
      </trkpt>
      <trkpt lat="37.98778538592159748077392578125" lon="-107.7502465434372425079345703125">
        <ele>4043.60009765625</ele>
        <time>2026-08-15T15:44:55.000Z</time>
        <extensions>
          <ns3:TrackPointExtension>
            <ns3:hr>109</ns3:hr>
            <ns3:cad>59</ns3:cad>
          </ns3:TrackPointExtension>
        </extensions>
      </trkpt>
      <trkpt lat="37.9878005571663379669189453125" lon="-107.750244699418544769287109375">
        <ele>4042.60009765625</ele>
        <time>2026-08-15T15:44:59.000Z</time>
        <extensions>
          <ns3:TrackPointExtension>
            <ns3:hr>109</ns3:hr>
            <ns3:cad>0</ns3:cad>
          </ns3:TrackPointExtension>
        </extensions>
      </trkpt>
      <trkpt lat="37.987830229103565216064453125" lon="-107.75023556314408779144287109375">
        <ele>4043</ele>
        <time>2026-08-15T15:45:05.000Z</time>
        <extensions>
          <ns3:TrackPointExtension>
            <ns3:hr>113</ns3:hr>
            <ns3:cad>0</ns3:cad>
          </ns3:TrackPointExtension>
        </extensions>
      </trkpt>
      <trkpt lat="37.98784665763378143310546875" lon="-107.75023371912539005279541015625">
        <ele>4043.800048828125</ele>
        <time>2026-08-15T15:45:08.000Z</time>
        <extensions>
          <ns3:TrackPointExtension>
            <ns3:hr>113</ns3:hr>
            <ns3:cad>0</ns3:cad>
          </ns3:TrackPointExtension>
        </extensions>
      </trkpt>
      <trkpt lat="37.98785269260406494140625" lon="-107.75023036636412143707275390625">
        <ele>4044.199951171875</ele>
        <time>2026-08-15T15:45:11.000Z</time>
        <extensions>
          <ns3:TrackPointExtension>
            <ns3:hr>110</ns3:hr>
            <ns3:cad>0</ns3:cad>
          </ns3:TrackPointExtension>
        </extensions>
      </trkpt>
      <trkpt lat="37.98785269260406494140625" lon="-107.75023036636412143707275390625">
        <ele>4044</ele>
        <time>2026-08-15T15:45:13.000Z</time>
        <extensions>
          <ns3:TrackPointExtension>
            <ns3:hr>108</ns3:hr>
            <ns3:cad>0</ns3:cad>
          </ns3:TrackPointExtension>
        </extensions>
      </trkpt>
      <trkpt lat="37.98785269260406494140625" lon="-107.75023036636412143707275390625">
        <ele>4043.800048828125</ele>
        <time>2026-08-15T15:45:14.000Z</time>
        <extensions>
          <ns3:TrackPointExtension>
            <ns3:hr>105</ns3:hr>
            <ns3:cad>0</ns3:cad>
          </ns3:TrackPointExtension>
        </extensions>
      </trkpt>
      <trkpt lat="37.98785269260406494140625" lon="-107.75023036636412143707275390625">
        <ele>4043.39990234375</ele>
        <time>2026-08-15T15:45:15.000Z</time>
        <extensions>
          <ns3:TrackPointExtension>
            <ns3:hr>105</ns3:hr>
            <ns3:cad>0</ns3:cad>
          </ns3:TrackPointExtension>
        </extensions>
      </trkpt>
      <trkpt lat="37.98785269260406494140625" lon="-107.75023036636412143707275390625">
        <ele>4042.800048828125</ele>
        <time>2026-08-15T15:45:17.000Z</time>
        <extensions>
          <ns3:TrackPointExtension>
            <ns3:hr>104</ns3:hr>
            <ns3:cad>0</ns3:cad>
          </ns3:TrackPointExtension>
        </extensions>
      </trkpt>
      <trkpt lat="37.98785269260406494140625" lon="-107.75023036636412143707275390625">
        <ele>4042.199951171875</ele>
        <time>2026-08-15T15:45:21.000Z</time>
        <extensions>
          <ns3:TrackPointExtension>
            <ns3:hr>104</ns3:hr>
            <ns3:cad>0</ns3:cad>
          </ns3:TrackPointExtension>
        </extensions>
      </trkpt>
      <trkpt lat="37.9878666065633296966552734375" lon="-107.75023472495377063751220703125">
        <ele>4042.39990234375</ele>
        <time>2026-08-15T15:45:24.000Z</time>
        <extensions>
          <ns3:TrackPointExtension>
            <ns3:hr>107</ns3:hr>
            <ns3:cad>0</ns3:cad>
          </ns3:TrackPointExtension>
        </extensions>
      </trkpt>
      <trkpt lat="37.98786987550556659698486328125" lon="-107.750236988067626953125">
        <ele>4042.60009765625</ele>
        <time>2026-08-15T15:45:28.000Z</time>
        <extensions>
          <ns3:TrackPointExtension>
            <ns3:hr>108</ns3:hr>
            <ns3:cad>0</ns3:cad>
          </ns3:TrackPointExtension>
        </extensions>
      </trkpt>
      <trkpt lat="37.98786987550556659698486328125" lon="-107.750236988067626953125">
        <ele>4043</ele>
        <time>2026-08-15T15:45:34.000Z</time>
        <extensions>
          <ns3:TrackPointExtension>
            <ns3:hr>112</ns3:hr>
            <ns3:cad>0</ns3:cad>
          </ns3:TrackPointExtension>
        </extensions>
      </trkpt>
      <trkpt lat="37.98786987550556659698486328125" lon="-107.750236988067626953125">
        <ele>4043.39990234375</ele>
        <time>2026-08-15T15:45:37.000Z</time>
        <extensions>
          <ns3:TrackPointExtension>
            <ns3:hr>115</ns3:hr>
            <ns3:cad>0</ns3:cad>
          </ns3:TrackPointExtension>
        </extensions>
      </trkpt>
      <trkpt lat="37.9878796823322772979736328125" lon="-107.75024034082889556884765625">
        <ele>4043.800048828125</ele>
        <time>2026-08-15T15:45:39.000Z</time>
        <extensions>
          <ns3:TrackPointExtension>
            <ns3:hr>116</ns3:hr>
            <ns3:cad>0</ns3:cad>
          </ns3:TrackPointExtension>
        </extensions>
      </trkpt>
      <trkpt lat="37.98789099790155887603759765625" lon="-107.750233300030231475830078125">
        <ele>4043.800048828125</ele>
        <time>2026-08-15T15:45:42.000Z</time>
        <extensions>
          <ns3:TrackPointExtension>
            <ns3:hr>117</ns3:hr>
            <ns3:cad>0</ns3:cad>
          </ns3:TrackPointExtension>
        </extensions>
      </trkpt>
      <trkpt lat="37.9879018105566501617431640625" lon="-107.7502260915935039520263671875">
        <ele>4043.60009765625</ele>
        <time>2026-08-15T15:45:48.000Z</time>
        <extensions>
          <ns3:TrackPointExtension>
            <ns3:hr>119</ns3:hr>
            <ns3:cad>0</ns3:cad>
          </ns3:TrackPointExtension>
        </extensions>
      </trkpt>
      <trkpt lat="37.9879018105566501617431640625" lon="-107.7502260915935039520263671875">
        <ele>4043.39990234375</ele>
        <time>2026-08-15T15:45:49.000Z</time>
        <extensions>
          <ns3:TrackPointExtension>
            <ns3:hr>120</ns3:hr>
            <ns3:cad>0</ns3:cad>
          </ns3:TrackPointExtension>
        </extensions>
      </trkpt>
      <trkpt lat="37.9879018105566501617431640625" lon="-107.7502260915935039520263671875">
        <ele>4043.39990234375</ele>
        <time>2026-08-15T15:45:53.000Z</time>
        <extensions>
          <ns3:TrackPointExtension>
            <ns3:hr>123</ns3:hr>
            <ns3:cad>0</ns3:cad>
          </ns3:TrackPointExtension>
        </extensions>
      </trkpt>
      <trkpt lat="37.9879018105566501617431640625" lon="-107.7502260915935039520263671875">
        <ele>4043.60009765625</ele>
        <time>2026-08-15T15:45:59.000Z</time>
        <extensions>
          <ns3:TrackPointExtension>
            <ns3:hr>120</ns3:hr>
            <ns3:cad>0</ns3:cad>
          </ns3:TrackPointExtension>
        </extensions>
      </trkpt>
      <trkpt lat="37.9879018105566501617431640625" lon="-107.7502260915935039520263671875">
        <ele>4044</ele>
        <time>2026-08-15T15:46:02.000Z</time>
        <extensions>
          <ns3:TrackPointExtension>
            <ns3:hr>118</ns3:hr>
            <ns3:cad>0</ns3:cad>
          </ns3:TrackPointExtension>
        </extensions>
      </trkpt>
      <trkpt lat="37.9879018105566501617431640625" lon="-107.7502260915935039520263671875">
        <ele>4044</ele>
        <time>2026-08-15T15:46:08.000Z</time>
        <extensions>
          <ns3:TrackPointExtension>
            <ns3:hr>115</ns3:hr>
            <ns3:cad>0</ns3:cad>
          </ns3:TrackPointExtension>
        </extensions>
      </trkpt>
      <trkpt lat="37.98791614361107349395751953125" lon="-107.75022047571837902069091796875">
        <ele>4043.800048828125</ele>
        <time>2026-08-15T15:46:14.000Z</time>
        <extensions>
          <ns3:TrackPointExtension>
            <ns3:hr>116</ns3:hr>
            <ns3:cad>0</ns3:cad>
          </ns3:TrackPointExtension>
        </extensions>
      </trkpt>
      <trkpt lat="37.98791530542075634002685546875" lon="-107.75021980516612529754638671875">
        <ele>4043.60009765625</ele>
        <time>2026-08-15T15:46:15.000Z</time>
        <extensions>
          <ns3:TrackPointExtension>
            <ns3:hr>116</ns3:hr>
            <ns3:cad>0</ns3:cad>
          </ns3:TrackPointExtension>
        </extensions>
      </trkpt>
      <trkpt lat="37.9879018105566501617431640625" lon="-107.7502260915935039520263671875">
        <ele>4043.60009765625</ele>
        <time>2026-08-15T15:46:21.000Z</time>
        <extensions>
          <ns3:TrackPointExtension>
            <ns3:hr>115</ns3:hr>
            <ns3:cad>0</ns3:cad>
          </ns3:TrackPointExtension>
        </extensions>
      </trkpt>
      <trkpt lat="37.9879018105566501617431640625" lon="-107.7502260915935039520263671875">
        <ele>4043.800048828125</ele>
        <time>2026-08-15T15:46:22.000Z</time>
        <extensions>
          <ns3:TrackPointExtension>
            <ns3:hr>115</ns3:hr>
            <ns3:cad>0</ns3:cad>
          </ns3:TrackPointExtension>
        </extensions>
      </trkpt>
      <trkpt lat="37.98791371285915374755859375" lon="-107.75020681321620941162109375">
        <ele>4044</ele>
        <time>2026-08-15T15:46:28.000Z</time>
        <extensions>
          <ns3:TrackPointExtension>
            <ns3:hr>114</ns3:hr>
            <ns3:cad>0</ns3:cad>
          </ns3:TrackPointExtension>
        </extensions>
      </trkpt>
      <trkpt lat="37.9879125393927097320556640625" lon="-107.750207148492336273193359375">
        <ele>4044.199951171875</ele>
        <time>2026-08-15T15:46:29.000Z</time>
        <extensions>
          <ns3:TrackPointExtension>
            <ns3:hr>114</ns3:hr>
            <ns3:cad>0</ns3:cad>
          </ns3:TrackPointExtension>
        </extensions>
      </trkpt>
      <trkpt lat="37.9879152216017246246337890625" lon="-107.75021796114742755889892578125">
        <ele>4044.39990234375</ele>
        <time>2026-08-15T15:46:35.000Z</time>
        <extensions>
          <ns3:TrackPointExtension>
            <ns3:hr>114</ns3:hr>
            <ns3:cad>0</ns3:cad>
          </ns3:TrackPointExtension>
        </extensions>
      </trkpt>
      <trkpt lat="37.9879152216017246246337890625" lon="-107.75021796114742755889892578125">
        <ele>4044.199951171875</ele>
        <time>2026-08-15T15:46:41.000Z</time>
        <extensions>
          <ns3:TrackPointExtension>
            <ns3:hr>112</ns3:hr>
            <ns3:cad>0</ns3:cad>
          </ns3:TrackPointExtension>
        </extensions>
      </trkpt>
      <trkpt lat="37.9879152216017246246337890625" lon="-107.75021796114742755889892578125">
        <ele>4044</ele>
        <time>2026-08-15T15:46:46.000Z</time>
        <extensions>
          <ns3:TrackPointExtension>
            <ns3:hr>109</ns3:hr>
            <ns3:cad>0</ns3:cad>
          </ns3:TrackPointExtension>
        </extensions>
      </trkpt>
      <trkpt lat="37.9879152216017246246337890625" lon="-107.75021796114742755889892578125">
        <ele>4044</ele>
        <time>2026-08-15T15:46:51.000Z</time>
        <extensions>
          <ns3:TrackPointExtension>
            <ns3:hr>107</ns3:hr>
            <ns3:cad>0</ns3:cad>
          </ns3:TrackPointExtension>
        </extensions>
      </trkpt>
      <trkpt lat="37.9879152216017246246337890625" lon="-107.75021796114742755889892578125">
        <ele>4044</ele>
        <time>2026-08-15T15:46:57.000Z</time>
        <extensions>
          <ns3:TrackPointExtension>
            <ns3:hr>107</ns3:hr>
            <ns3:cad>0</ns3:cad>
          </ns3:TrackPointExtension>
        </extensions>
      </trkpt>
      <trkpt lat="37.9879152216017246246337890625" lon="-107.75021796114742755889892578125">
        <ele>4044</ele>
        <time>2026-08-15T15:47:03.000Z</time>
        <extensions>
          <ns3:TrackPointExtension>
            <ns3:hr>107</ns3:hr>
            <ns3:cad>0</ns3:cad>
          </ns3:TrackPointExtension>
        </extensions>
      </trkpt>
      <trkpt lat="37.9879152216017246246337890625" lon="-107.75021796114742755889892578125">
        <ele>4044</ele>
        <time>2026-08-15T15:47:08.000Z</time>
        <extensions>
          <ns3:TrackPointExtension>
            <ns3:hr>106</ns3:hr>
            <ns3:cad>0</ns3:cad>
          </ns3:TrackPointExtension>
        </extensions>
      </trkpt>
      <trkpt lat="37.9879152216017246246337890625" lon="-107.75021796114742755889892578125">
        <ele>4043.800048828125</ele>
        <time>2026-08-15T15:47:14.000Z</time>
        <extensions>
          <ns3:TrackPointExtension>
            <ns3:hr>105</ns3:hr>
            <ns3:cad>0</ns3:cad>
          </ns3:TrackPointExtension>
        </extensions>
      </trkpt>
      <trkpt lat="37.9879152216017246246337890625" lon="-107.75021796114742755889892578125">
        <ele>4043.800048828125</ele>
        <time>2026-08-15T15:47:20.000Z</time>
        <extensions>
          <ns3:TrackPointExtension>
            <ns3:hr>104</ns3:hr>
            <ns3:cad>0</ns3:cad>
          </ns3:TrackPointExtension>
        </extensions>
      </trkpt>
      <trkpt lat="37.9879152216017246246337890625" lon="-107.75021796114742755889892578125">
        <ele>4044.199951171875</ele>
        <time>2026-08-15T15:47:24.000Z</time>
        <extensions>
          <ns3:TrackPointExtension>
            <ns3:hr>105</ns3:hr>
            <ns3:cad>0</ns3:cad>
          </ns3:TrackPointExtension>
        </extensions>
      </trkpt>
      <trkpt lat="37.9879152216017246246337890625" lon="-107.75021796114742755889892578125">
        <ele>4044.60009765625</ele>
        <time>2026-08-15T15:47:27.000Z</time>
        <extensions>
          <ns3:TrackPointExtension>
            <ns3:hr>102</ns3:hr>
            <ns3:cad>0</ns3:cad>
          </ns3:TrackPointExtension>
        </extensions>
      </trkpt>
      <trkpt lat="37.9879152216017246246337890625" lon="-107.75021796114742755889892578125">
        <ele>4044.199951171875</ele>
        <time>2026-08-15T15:47:31.000Z</time>
        <extensions>
          <ns3:TrackPointExtension>
            <ns3:hr>101</ns3:hr>
            <ns3:cad>0</ns3:cad>
          </ns3:TrackPointExtension>
        </extensions>
      </trkpt>
      <trkpt lat="37.9879152216017246246337890625" lon="-107.75021796114742755889892578125">
        <ele>4044.199951171875</ele>
        <time>2026-08-15T15:47:37.000Z</time>
        <extensions>
          <ns3:TrackPointExtension>
            <ns3:hr>103</ns3:hr>
            <ns3:cad>0</ns3:cad>
          </ns3:TrackPointExtension>
        </extensions>
      </trkpt>
      <trkpt lat="37.9879152216017246246337890625" lon="-107.75021796114742755889892578125">
        <ele>4044.39990234375</ele>
        <time>2026-08-15T15:47:38.000Z</time>
        <extensions>
          <ns3:TrackPointExtension>
            <ns3:hr>103</ns3:hr>
            <ns3:cad>0</ns3:cad>
          </ns3:TrackPointExtension>
        </extensions>
      </trkpt>
      <trkpt lat="37.98791949637234210968017578125" lon="-107.750199772417545318603515625">
        <ele>4044.800048828125</ele>
        <time>2026-08-15T15:47:42.000Z</time>
        <extensions>
          <ns3:TrackPointExtension>
            <ns3:hr>104</ns3:hr>
            <ns3:cad>0</ns3:cad>
          </ns3:TrackPointExtension>
        </extensions>
      </trkpt>
      <trkpt lat="37.98790834844112396240234375" lon="-107.75019331835210323333740234375">
        <ele>4045.199951171875</ele>
        <time>2026-08-15T15:47:44.000Z</time>
        <extensions>
          <ns3:TrackPointExtension>
            <ns3:hr>101</ns3:hr>
            <ns3:cad>0</ns3:cad>
          </ns3:TrackPointExtension>
        </extensions>
      </trkpt>
      <trkpt lat="37.9878991283476352691650390625" lon="-107.75017990730702877044677734375">
        <ele>4045.60009765625</ele>
        <time>2026-08-15T15:47:46.000Z</time>
        <extensions>
          <ns3:TrackPointExtension>
            <ns3:hr>99</ns3:hr>
            <ns3:cad>20</ns3:cad>
          </ns3:TrackPointExtension>
        </extensions>
      </trkpt>
      <trkpt lat="37.98789451830089092254638671875" lon="-107.75017219595611095428466796875">
        <ele>4046</ele>
        <time>2026-08-15T15:47:51.000Z</time>
        <extensions>
          <ns3:TrackPointExtension>
            <ns3:hr>101</ns3:hr>
            <ns3:cad>0</ns3:cad>
          </ns3:TrackPointExtension>
        </extensions>
      </trkpt>
      <trkpt lat="37.9878915846347808837890625" lon="-107.75016121566295623779296875">
        <ele>4046.800048828125</ele>
        <time>2026-08-15T15:47:54.000Z</time>
        <extensions>
          <ns3:TrackPointExtension>
            <ns3:hr>100</ns3:hr>
            <ns3:cad>0</ns3:cad>
          </ns3:TrackPointExtension>
        </extensions>
      </trkpt>
      <trkpt lat="37.9878904111683368682861328125" lon="-107.75014637969434261322021484375">
        <ele>4047</ele>
        <time>2026-08-15T15:47:56.000Z</time>
        <extensions>
          <ns3:TrackPointExtension>
            <ns3:hr>100</ns3:hr>
            <ns3:cad>0</ns3:cad>
          </ns3:TrackPointExtension>
        </extensions>
      </trkpt>
      <trkpt lat="37.98789887689054012298583984375" lon="-107.750143110752105712890625">
        <ele>4047.60009765625</ele>
        <time>2026-08-15T15:48:01.000Z</time>
        <extensions>
          <ns3:TrackPointExtension>
            <ns3:hr>100</ns3:hr>
            <ns3:cad>0</ns3:cad>
          </ns3:TrackPointExtension>
        </extensions>
      </trkpt>
      <trkpt lat="37.98790927045047283172607421875" lon="-107.7501335553824901580810546875">
        <ele>4048.199951171875</ele>
        <time>2026-08-15T15:48:03.000Z</time>
        <extensions>
          <ns3:TrackPointExtension>
            <ns3:hr>101</ns3:hr>
            <ns3:cad>0</ns3:cad>
          </ns3:TrackPointExtension>
        </extensions>
      </trkpt>
      <trkpt lat="37.98791195265948772430419921875" lon="-107.75011687539517879486083984375">
        <ele>4049</ele>
        <time>2026-08-15T15:48:06.000Z</time>
        <extensions>
          <ns3:TrackPointExtension>
            <ns3:hr>100</ns3:hr>
            <ns3:cad>70</ns3:cad>
          </ns3:TrackPointExtension>
        </extensions>
      </trkpt>
      <trkpt lat="37.98791463486850261688232421875" lon="-107.75011201389133930206298828125">
        <ele>4049.39990234375</ele>
        <time>2026-08-15T15:48:08.000Z</time>
        <extensions>
          <ns3:TrackPointExtension>
            <ns3:hr>100</ns3:hr>
            <ns3:cad>70</ns3:cad>
          </ns3:TrackPointExtension>
        </extensions>
      </trkpt>
      <trkpt lat="37.9879145510494709014892578125" lon="-107.75010547600686550140380859375">
        <ele>4050.60009765625</ele>
        <time>2026-08-15T15:48:13.000Z</time>
        <extensions>
          <ns3:TrackPointExtension>
            <ns3:hr>102</ns3:hr>
            <ns3:cad>0</ns3:cad>
          </ns3:TrackPointExtension>
        </extensions>
      </trkpt>
      <trkpt lat="37.98791681416332721710205078125" lon="-107.75008074939250946044921875">
        <ele>4051.39990234375</ele>
        <time>2026-08-15T15:48:19.000Z</time>
        <extensions>
          <ns3:TrackPointExtension>
            <ns3:hr>104</ns3:hr>
            <ns3:cad>0</ns3:cad>
          </ns3:TrackPointExtension>
        </extensions>
      </trkpt>
      <trkpt lat="37.9879179038107395172119140625" lon="-107.75007379241287708282470703125">
        <ele>4051.60009765625</ele>
        <time>2026-08-15T15:48:20.000Z</time>
        <extensions>
          <ns3:TrackPointExtension>
            <ns3:hr>105</ns3:hr>
            <ns3:cad>0</ns3:cad>
          </ns3:TrackPointExtension>
        </extensions>
      </trkpt>
      <trkpt lat="37.987917400896549224853515625" lon="-107.7500594593584537506103515625">
        <ele>4052</ele>
        <time>2026-08-15T15:48:26.000Z</time>
        <extensions>
          <ns3:TrackPointExtension>
            <ns3:hr>107</ns3:hr>
            <ns3:cad>0</ns3:cad>
          </ns3:TrackPointExtension>
        </extensions>
      </trkpt>
      <trkpt lat="37.98791916109621524810791015625" lon="-107.75005199946463108062744140625">
        <ele>4052.60009765625</ele>
        <time>2026-08-15T15:48:29.000Z</time>
        <extensions>
          <ns3:TrackPointExtension>
            <ns3:hr>109</ns3:hr>
            <ns3:cad>0</ns3:cad>
          </ns3:TrackPointExtension>
        </extensions>
      </trkpt>
      <trkpt lat="37.98791849054396152496337890625" lon="-107.75004319846630096435546875">
        <ele>4053.60009765625</ele>
        <time>2026-08-15T15:48:32.000Z</time>
        <extensions>
          <ns3:TrackPointExtension>
            <ns3:hr>112</ns3:hr>
            <ns3:cad>0</ns3:cad>
          </ns3:TrackPointExtension>
        </extensions>
      </trkpt>
      <trkpt lat="37.98791815526783466339111328125" lon="-107.7500390075147151947021484375">
        <ele>4053.800048828125</ele>
        <time>2026-08-15T15:48:33.000Z</time>
        <extensions>
          <ns3:TrackPointExtension>
            <ns3:hr>112</ns3:hr>
            <ns3:cad>0</ns3:cad>
          </ns3:TrackPointExtension>
        </extensions>
      </trkpt>
      <trkpt lat="37.98792167566716670989990234375" lon="-107.7500376664102077484130859375">
        <ele>4054.39990234375</ele>
        <time>2026-08-15T15:48:35.000Z</time>
        <extensions>
          <ns3:TrackPointExtension>
            <ns3:hr>115</ns3:hr>
            <ns3:cad>0</ns3:cad>
          </ns3:TrackPointExtension>
        </extensions>
      </trkpt>
      <trkpt lat="37.9879366792738437652587890625" lon="-107.75003305636346340179443359375">
        <ele>4055</ele>
        <time>2026-08-15T15:48:38.000Z</time>
        <extensions>
          <ns3:TrackPointExtension>
            <ns3:hr>117</ns3:hr>
            <ns3:cad>47</ns3:cad>
          </ns3:TrackPointExtension>
        </extensions>
      </trkpt>
      <trkpt lat="37.9879400320351123809814453125" lon="-107.75003112852573394775390625">
        <ele>4055</ele>
        <time>2026-08-15T15:48:39.000Z</time>
        <extensions>
          <ns3:TrackPointExtension>
            <ns3:hr>118</ns3:hr>
            <ns3:cad>47</ns3:cad>
          </ns3:TrackPointExtension>
        </extensions>
      </trkpt>
      <trkpt lat="37.987956963479518890380859375" lon="-107.75001528672873973846435546875">
        <ele>4056</ele>
        <time>2026-08-15T15:48:43.000Z</time>
        <extensions>
          <ns3:TrackPointExtension>
            <ns3:hr>116</ns3:hr>
            <ns3:cad>0</ns3:cad>
          </ns3:TrackPointExtension>
        </extensions>
      </trkpt>
      <trkpt lat="37.98796744085848331451416015625" lon="-107.750005312263965606689453125">
        <ele>4057.199951171875</ele>
        <time>2026-08-15T15:48:48.000Z</time>
        <extensions>
          <ns3:TrackPointExtension>
            <ns3:hr>118</ns3:hr>
            <ns3:cad>0</ns3:cad>
          </ns3:TrackPointExtension>
        </extensions>
      </trkpt>
      <trkpt lat="37.9879601486027240753173828125" lon="-107.74999265559017658233642578125">
        <ele>4057.60009765625</ele>
        <time>2026-08-15T15:48:52.000Z</time>
        <extensions>
          <ns3:TrackPointExtension>
            <ns3:hr>121</ns3:hr>
            <ns3:cad>0</ns3:cad>
          </ns3:TrackPointExtension>
        </extensions>
      </trkpt>
      <trkpt lat="37.98795872367918491363525390625" lon="-107.7499867044389247894287109375">
        <ele>4057.60009765625</ele>
        <time>2026-08-15T15:48:54.000Z</time>
        <extensions>
          <ns3:TrackPointExtension>
            <ns3:hr>122</ns3:hr>
            <ns3:cad>0</ns3:cad>
          </ns3:TrackPointExtension>
        </extensions>
      </trkpt>
      <trkpt lat="37.98794925212860107421875" lon="-107.74996398948132991790771484375">
        <ele>4058.39990234375</ele>
        <time>2026-08-15T15:48:57.000Z</time>
        <extensions>
          <ns3:TrackPointExtension>
            <ns3:hr>125</ns3:hr>
            <ns3:cad>0</ns3:cad>
          </ns3:TrackPointExtension>
        </extensions>
      </trkpt>
      <trkpt lat="37.98793810419738292694091796875" lon="-107.74995678104460239410400390625">
        <ele>4059</ele>
        <time>2026-08-15T15:48:59.000Z</time>
        <extensions>
          <ns3:TrackPointExtension>
            <ns3:hr>127</ns3:hr>
            <ns3:cad>0</ns3:cad>
          </ns3:TrackPointExtension>
        </extensions>
      </trkpt>
      <trkpt lat="37.98793458379805088043212890625" lon="-107.74994588457047939300537109375">
        <ele>4059.199951171875</ele>
        <time>2026-08-15T15:49:05.000Z</time>
        <extensions>
          <ns3:TrackPointExtension>
            <ns3:hr>125</ns3:hr>
            <ns3:cad>0</ns3:cad>
          </ns3:TrackPointExtension>
        </extensions>
      </trkpt>
      <trkpt lat="37.98793458379805088043212890625" lon="-107.74994588457047939300537109375">
        <ele>4059.39990234375</ele>
        <time>2026-08-15T15:49:07.000Z</time>
        <extensions>
          <ns3:TrackPointExtension>
            <ns3:hr>125</ns3:hr>
            <ns3:cad>0</ns3:cad>
          </ns3:TrackPointExtension>
        </extensions>
      </trkpt>
      <trkpt lat="37.987933494150638580322265625" lon="-107.74995141662657260894775390625">
        <ele>4060</ele>
        <time>2026-08-15T15:49:09.000Z</time>
        <extensions>
          <ns3:TrackPointExtension>
            <ns3:hr>129</ns3:hr>
            <ns3:cad>0</ns3:cad>
          </ns3:TrackPointExtension>
        </extensions>
      </trkpt>
      <trkpt lat="37.9879319854080677032470703125" lon="-107.749949656426906585693359375">
        <ele>4060.199951171875</ele>
        <time>2026-08-15T15:49:12.000Z</time>
        <extensions>
          <ns3:TrackPointExtension>
            <ns3:hr>132</ns3:hr>
            <ns3:cad>0</ns3:cad>
          </ns3:TrackPointExtension>
        </extensions>
      </trkpt>
      <trkpt lat="37.98793458379805088043212890625" lon="-107.74994588457047939300537109375">
        <ele>4060</ele>
        <time>2026-08-15T15:49:15.000Z</time>
        <extensions>
          <ns3:TrackPointExtension>
            <ns3:hr>135</ns3:hr>
            <ns3:cad>0</ns3:cad>
          </ns3:TrackPointExtension>
        </extensions>
      </trkpt>
      <trkpt lat="37.98793458379805088043212890625" lon="-107.74994588457047939300537109375">
        <ele>4060.39990234375</ele>
        <time>2026-08-15T15:49:18.000Z</time>
        <extensions>
          <ns3:TrackPointExtension>
            <ns3:hr>134</ns3:hr>
            <ns3:cad>0</ns3:cad>
          </ns3:TrackPointExtension>
        </extensions>
      </trkpt>
      <trkpt lat="37.98793458379805088043212890625" lon="-107.74994588457047939300537109375">
        <ele>4061.39990234375</ele>
        <time>2026-08-15T15:49:21.000Z</time>
        <extensions>
          <ns3:TrackPointExtension>
            <ns3:hr>131</ns3:hr>
            <ns3:cad>0</ns3:cad>
          </ns3:TrackPointExtension>
        </extensions>
      </trkpt>
      <trkpt lat="37.98793458379805088043212890625" lon="-107.74994588457047939300537109375">
        <ele>4061.60009765625</ele>
        <time>2026-08-15T15:49:22.000Z</time>
        <extensions>
          <ns3:TrackPointExtension>
            <ns3:hr>131</ns3:hr>
            <ns3:cad>0</ns3:cad>
          </ns3:TrackPointExtension>
        </extensions>
      </trkpt>
      <trkpt lat="37.98793860711157321929931640625" lon="-107.749928198754787445068359375">
        <ele>4062.199951171875</ele>
        <time>2026-08-15T15:49:27.000Z</time>
        <extensions>
          <ns3:TrackPointExtension>
            <ns3:hr>134</ns3:hr>
            <ns3:cad>0</ns3:cad>
          </ns3:TrackPointExtension>
        </extensions>
      </trkpt>
      <trkpt lat="37.9879390262067317962646484375" lon="-107.749921493232250213623046875">
        <ele>4062.199951171875</ele>
        <time>2026-08-15T15:49:28.000Z</time>
        <extensions>
          <ns3:TrackPointExtension>
            <ns3:hr>133</ns3:hr>
            <ns3:cad>0</ns3:cad>
          </ns3:TrackPointExtension>
        </extensions>
      </trkpt>
      <trkpt lat="37.98796861432492733001708984375" lon="-107.7498535998165607452392578125">
        <ele>4062.39990234375</ele>
        <time>2026-08-15T15:49:34.000Z</time>
        <extensions>
          <ns3:TrackPointExtension>
            <ns3:hr>130</ns3:hr>
            <ns3:cad>0</ns3:cad>
          </ns3:TrackPointExtension>
        </extensions>
      </trkpt>
      <trkpt lat="37.98797649331390857696533203125" lon="-107.7498438768088817596435546875">
        <ele>4062.60009765625</ele>
        <time>2026-08-15T15:49:35.000Z</time>
        <extensions>
          <ns3:TrackPointExtension>
            <ns3:hr>130</ns3:hr>
            <ns3:cad>0</ns3:cad>
          </ns3:TrackPointExtension>
        </extensions>
      </trkpt>
      <trkpt lat="37.9879868030548095703125" lon="-107.749834991991519927978515625">
        <ele>4062.800048828125</ele>
        <time>2026-08-15T15:49:36.000Z</time>
        <extensions>
          <ns3:TrackPointExtension>
            <ns3:hr>130</ns3:hr>
            <ns3:cad>0</ns3:cad>
          </ns3:TrackPointExtension>
        </extensions>
      </trkpt>
      <trkpt lat="37.988010942935943603515625" lon="-107.74981713853776454925537109375">
        <ele>4063.800048828125</ele>
        <time>2026-08-15T15:49:40.000Z</time>
        <extensions>
          <ns3:TrackPointExtension>
            <ns3:hr>131</ns3:hr>
            <ns3:cad>0</ns3:cad>
          </ns3:TrackPointExtension>
        </extensions>
      </trkpt>
      <trkpt lat="37.98801898956298828125" lon="-107.7498183958232402801513671875">
        <ele>4064.199951171875</ele>
        <time>2026-08-15T15:49:42.000Z</time>
        <extensions>
          <ns3:TrackPointExtension>
            <ns3:hr>130</ns3:hr>
            <ns3:cad>0</ns3:cad>
          </ns3:TrackPointExtension>
        </extensions>
      </trkpt>
      <trkpt lat="37.98805184662342071533203125" lon="-107.749810852110385894775390625">
        <ele>4065</ele>
        <time>2026-08-15T15:49:46.000Z</time>
        <extensions>
          <ns3:TrackPointExtension>
            <ns3:hr>133</ns3:hr>
            <ns3:cad>48</ns3:cad>
          </ns3:TrackPointExtension>
        </extensions>
      </trkpt>
      <trkpt lat="37.9880630783736705780029296875" lon="-107.749775312840938568115234375">
        <ele>4065.60009765625</ele>
        <time>2026-08-15T15:49:49.000Z</time>
        <extensions>
          <ns3:TrackPointExtension>
            <ns3:hr>134</ns3:hr>
            <ns3:cad>46</ns3:cad>
          </ns3:TrackPointExtension>
        </extensions>
      </trkpt>
      <trkpt lat="37.98807204701006412506103515625" lon="-107.7497389353811740875244140625">
        <ele>4065.800048828125</ele>
        <time>2026-08-15T15:49:53.000Z</time>
        <extensions>
          <ns3:TrackPointExtension>
            <ns3:hr>134</ns3:hr>
            <ns3:cad>0</ns3:cad>
          </ns3:TrackPointExtension>
        </extensions>
      </trkpt>
      <trkpt lat="37.98807330429553985595703125" lon="-107.7497285418212413787841796875">
        <ele>4066</ele>
        <time>2026-08-15T15:49:55.000Z</time>
        <extensions>
          <ns3:TrackPointExtension>
            <ns3:hr>135</ns3:hr>
            <ns3:cad>0</ns3:cad>
          </ns3:TrackPointExtension>
        </extensions>
      </trkpt>
      <trkpt lat="37.9880798421800136566162109375" lon="-107.74972342886030673980712890625">
        <ele>4066.199951171875</ele>
        <time>2026-08-15T15:49:56.000Z</time>
        <extensions>
          <ns3:TrackPointExtension>
            <ns3:hr>134</ns3:hr>
            <ns3:cad>0</ns3:cad>
          </ns3:TrackPointExtension>
        </extensions>
      </trkpt>
      <trkpt lat="37.9880962707102298736572265625" lon="-107.74970515631139278411865234375">
        <ele>4066.60009765625</ele>
        <time>2026-08-15T15:50:01.000Z</time>
        <extensions>
          <ns3:TrackPointExtension>
            <ns3:hr>134</ns3:hr>
            <ns3:cad>0</ns3:cad>
          </ns3:TrackPointExtension>
        </extensions>
      </trkpt>
      <trkpt lat="37.98809719271957874298095703125" lon="-107.74969560094177722930908203125">
        <ele>4066.800048828125</ele>
        <time>2026-08-15T15:50:02.000Z</time>
        <extensions>
          <ns3:TrackPointExtension>
            <ns3:hr>135</ns3:hr>
            <ns3:cad>0</ns3:cad>
          </ns3:TrackPointExtension>
        </extensions>
      </trkpt>
      <trkpt lat="37.9880979470908641815185546875" lon="-107.74968353100121021270751953125">
        <ele>4067.39990234375</ele>
        <time>2026-08-15T15:50:04.000Z</time>
        <extensions>
          <ns3:TrackPointExtension>
            <ns3:hr>134</ns3:hr>
            <ns3:cad>0</ns3:cad>
          </ns3:TrackPointExtension>
        </extensions>
      </trkpt>
      <trkpt lat="37.98809803090989589691162109375" lon="-107.74967079050838947296142578125">
        <ele>4068</ele>
        <time>2026-08-15T15:50:06.000Z</time>
        <extensions>
          <ns3:TrackPointExtension>
            <ns3:hr>137</ns3:hr>
            <ns3:cad>0</ns3:cad>
          </ns3:TrackPointExtension>
        </extensions>
      </trkpt>
      <trkpt lat="37.9880989529192447662353515625" lon="-107.74966157041490077972412109375">
        <ele>4068.199951171875</ele>
        <time>2026-08-15T15:50:07.000Z</time>
        <extensions>
          <ns3:TrackPointExtension>
            <ns3:hr>139</ns3:hr>
            <ns3:cad>0</ns3:cad>
          </ns3:TrackPointExtension>
        </extensions>
      </trkpt>
      <trkpt lat="37.9881006292998790740966796875" lon="-107.74965654127299785614013671875">
        <ele>4068.39990234375</ele>
        <time>2026-08-15T15:50:08.000Z</time>
        <extensions>
          <ns3:TrackPointExtension>
            <ns3:hr>142</ns3:hr>
            <ns3:cad>0</ns3:cad>
          </ns3:TrackPointExtension>
        </extensions>
      </trkpt>
      <trkpt lat="37.9881066642701625823974609375" lon="-107.7496557869017124176025390625">
        <ele>4068.39990234375</ele>
        <time>2026-08-15T15:50:09.000Z</time>
        <extensions>
          <ns3:TrackPointExtension>
            <ns3:hr>143</ns3:hr>
            <ns3:cad>0</ns3:cad>
          </ns3:TrackPointExtension>
        </extensions>
      </trkpt>
      <trkpt lat="37.98811026848852634429931640625" lon="-107.74964296258985996246337890625">
        <ele>4068.800048828125</ele>
        <time>2026-08-15T15:50:11.000Z</time>
        <extensions>
          <ns3:TrackPointExtension>
            <ns3:hr>146</ns3:hr>
            <ns3:cad>0</ns3:cad>
          </ns3:TrackPointExtension>
        </extensions>
      </trkpt>
      <trkpt lat="37.9881163872778415679931640625" lon="-107.74963558651506900787353515625">
        <ele>4069.39990234375</ele>
        <time>2026-08-15T15:50:14.000Z</time>
        <extensions>
          <ns3:TrackPointExtension>
            <ns3:hr>146</ns3:hr>
            <ns3:cad>0</ns3:cad>
          </ns3:TrackPointExtension>
        </extensions>
      </trkpt>
      <trkpt lat="37.9881445504724979400634765625" lon="-107.749607674777507781982421875">
        <ele>4070.199951171875</ele>
        <time>2026-08-15T15:50:20.000Z</time>
        <extensions>
          <ns3:TrackPointExtension>
            <ns3:hr>145</ns3:hr>
            <ns3:cad>0</ns3:cad>
          </ns3:TrackPointExtension>
        </extensions>
      </trkpt>
      <trkpt lat="37.98816039226949214935302734375" lon="-107.74958663620054721832275390625">
        <ele>4070.60009765625</ele>
        <time>2026-08-15T15:50:23.000Z</time>
        <extensions>
          <ns3:TrackPointExtension>
            <ns3:hr>146</ns3:hr>
            <ns3:cad>0</ns3:cad>
          </ns3:TrackPointExtension>
        </extensions>
      </trkpt>
      <trkpt lat="37.98818000592291355133056640625" lon="-107.749555371701717376708984375">
        <ele>4071.39990234375</ele>
        <time>2026-08-15T15:50:26.000Z</time>
        <extensions>
          <ns3:TrackPointExtension>
            <ns3:hr>145</ns3:hr>
            <ns3:cad>0</ns3:cad>
          </ns3:TrackPointExtension>
        </extensions>
      </trkpt>
      <trkpt lat="37.988194338977336883544921875" lon="-107.74951421655714511871337890625">
        <ele>4071.39990234375</ele>
        <time>2026-08-15T15:50:30.000Z</time>
        <extensions>
          <ns3:TrackPointExtension>
            <ns3:hr>142</ns3:hr>
            <ns3:cad>0</ns3:cad>
          </ns3:TrackPointExtension>
        </extensions>
      </trkpt>
      <trkpt lat="37.9881866276264190673828125" lon="-107.7494931779801845550537109375">
        <ele>4071.60009765625</ele>
        <time>2026-08-15T15:50:33.000Z</time>
        <extensions>
          <ns3:TrackPointExtension>
            <ns3:hr>140</ns3:hr>
            <ns3:cad>0</ns3:cad>
          </ns3:TrackPointExtension>
        </extensions>
      </trkpt>
      <trkpt lat="37.98818369396030902862548828125" lon="-107.74944104254245758056640625">
        <ele>4071</ele>
        <time>2026-08-15T15:50:39.000Z</time>
        <extensions>
          <ns3:TrackPointExtension>
            <ns3:hr>141</ns3:hr>
            <ns3:cad>0</ns3:cad>
          </ns3:TrackPointExtension>
        </extensions>
      </trkpt>
      <trkpt lat="37.98818151466548442840576171875" lon="-107.74941748939454555511474609375">
        <ele>4070.39990234375</ele>
        <time>2026-08-15T15:50:44.000Z</time>
        <extensions>
          <ns3:TrackPointExtension>
            <ns3:hr>140</ns3:hr>
            <ns3:cad>0</ns3:cad>
          </ns3:TrackPointExtension>
        </extensions>
      </trkpt>
      <trkpt lat="37.988187633454799652099609375" lon="-107.74940215051174163818359375">
        <ele>4071.39990234375</ele>
        <time>2026-08-15T15:50:47.000Z</time>
        <extensions>
          <ns3:TrackPointExtension>
            <ns3:hr>137</ns3:hr>
            <ns3:cad>0</ns3:cad>
          </ns3:TrackPointExtension>
        </extensions>
      </trkpt>
      <trkpt lat="37.9881948418915271759033203125" lon="-107.7493885718286037445068359375">
        <ele>4071.800048828125</ele>
        <time>2026-08-15T15:50:49.000Z</time>
        <extensions>
          <ns3:TrackPointExtension>
            <ns3:hr>134</ns3:hr>
            <ns3:cad>0</ns3:cad>
          </ns3:TrackPointExtension>
        </extensions>
      </trkpt>
      <trkpt lat="37.98820280469954013824462890625" lon="-107.74938329122960567474365234375">
        <ele>4072.199951171875</ele>
        <time>2026-08-15T15:50:51.000Z</time>
        <extensions>
          <ns3:TrackPointExtension>
            <ns3:hr>133</ns3:hr>
            <ns3:cad>0</ns3:cad>
          </ns3:TrackPointExtension>
        </extensions>
      </trkpt>
      <trkpt lat="37.988228537142276763916015625" lon="-107.74936250410974025726318359375">
        <ele>4072.800048828125</ele>
        <time>2026-08-15T15:50:57.000Z</time>
        <extensions>
          <ns3:TrackPointExtension>
            <ns3:hr>130</ns3:hr>
            <ns3:cad>0</ns3:cad>
          </ns3:TrackPointExtension>
        </extensions>
      </trkpt>
      <trkpt lat="37.988235242664813995361328125" lon="-107.74935118854045867919921875">
        <ele>4072.800048828125</ele>
        <time>2026-08-15T15:50:58.000Z</time>
        <extensions>
          <ns3:TrackPointExtension>
            <ns3:hr>127</ns3:hr>
            <ns3:cad>0</ns3:cad>
          </ns3:TrackPointExtension>
        </extensions>
      </trkpt>
      <trkpt lat="37.988237924873828887939453125" lon="-107.74935428984463214874267578125">
        <ele>4072.800048828125</ele>
        <time>2026-08-15T15:50:59.000Z</time>
        <extensions>
          <ns3:TrackPointExtension>
            <ns3:hr>125</ns3:hr>
            <ns3:cad>0</ns3:cad>
          </ns3:TrackPointExtension>
        </extensions>
      </trkpt>
      <trkpt lat="37.98824119381606578826904296875" lon="-107.7493567205965518951416015625">
        <ele>4073.199951171875</ele>
        <time>2026-08-15T15:51:01.000Z</time>
        <extensions>
          <ns3:TrackPointExtension>
            <ns3:hr>122</ns3:hr>
            <ns3:cad>0</ns3:cad>
          </ns3:TrackPointExtension>
        </extensions>
      </trkpt>
      <trkpt lat="37.98825561068952083587646484375" lon="-107.7493210136890411376953125">
        <ele>4074</ele>
        <time>2026-08-15T15:51:06.000Z</time>
        <extensions>
          <ns3:TrackPointExtension>
            <ns3:hr>122</ns3:hr>
            <ns3:cad>0</ns3:cad>
          </ns3:TrackPointExtension>
        </extensions>
      </trkpt>
      <trkpt lat="37.98825812526047229766845703125" lon="-107.74931506253778934478759765625">
        <ele>4074.39990234375</ele>
        <time>2026-08-15T15:51:07.000Z</time>
        <extensions>
          <ns3:TrackPointExtension>
            <ns3:hr>121</ns3:hr>
            <ns3:cad>0</ns3:cad>
          </ns3:TrackPointExtension>
        </extensions>
      </trkpt>
      <trkpt lat="37.988266088068485260009765625" lon="-107.74927533231675624847412109375">
        <ele>4074.60009765625</ele>
        <time>2026-08-15T15:51:13.000Z</time>
        <extensions>
          <ns3:TrackPointExtension>
            <ns3:hr>121</ns3:hr>
            <ns3:cad>0</ns3:cad>
          </ns3:TrackPointExtension>
        </extensions>
      </trkpt>
      <trkpt lat="37.9882649146020412445068359375" lon="-107.749267704784870147705078125">
        <ele>4074.800048828125</ele>
        <time>2026-08-15T15:51:15.000Z</time>
        <extensions>
          <ns3:TrackPointExtension>
            <ns3:hr>121</ns3:hr>
            <ns3:cad>0</ns3:cad>
          </ns3:TrackPointExtension>
        </extensions>
      </trkpt>
      <trkpt lat="37.98828653991222381591796875" lon="-107.7492378652095794677734375">
        <ele>4074.800048828125</ele>
        <time>2026-08-15T15:51:21.000Z</time>
        <extensions>
          <ns3:TrackPointExtension>
            <ns3:hr>121</ns3:hr>
            <ns3:cad>44</ns3:cad>
          </ns3:TrackPointExtension>
        </extensions>
      </trkpt>
      <trkpt lat="37.988286204636096954345703125" lon="-107.7492293156683444976806640625">
        <ele>4075.39990234375</ele>
        <time>2026-08-15T15:51:22.000Z</time>
        <extensions>
          <ns3:TrackPointExtension>
            <ns3:hr>121</ns3:hr>
            <ns3:cad>44</ns3:cad>
          </ns3:TrackPointExtension>
        </extensions>
      </trkpt>
      <trkpt lat="37.98828192986547946929931640625" lon="-107.74922420270740985870361328125">
        <ele>4076.39990234375</ele>
        <time>2026-08-15T15:51:24.000Z</time>
        <extensions>
          <ns3:TrackPointExtension>
            <ns3:hr>119</ns3:hr>
            <ns3:cad>0</ns3:cad>
          </ns3:TrackPointExtension>
        </extensions>
      </trkpt>
      <trkpt lat="37.988288216292858123779296875" lon="-107.74921950884163379669189453125">
        <ele>4077</ele>
        <time>2026-08-15T15:51:26.000Z</time>
        <extensions>
          <ns3:TrackPointExtension>
            <ns3:hr>116</ns3:hr>
            <ns3:cad>0</ns3:cad>
          </ns3:TrackPointExtension>
        </extensions>
      </trkpt>
      <trkpt lat="37.98829198814928531646728515625" lon="-107.7492175810039043426513671875">
        <ele>4077.199951171875</ele>
        <time>2026-08-15T15:51:27.000Z</time>
        <extensions>
          <ns3:TrackPointExtension>
            <ns3:hr>113</ns3:hr>
            <ns3:cad>0</ns3:cad>
          </ns3:TrackPointExtension>
        </extensions>
      </trkpt>
      <trkpt lat="37.98829726874828338623046875" lon="-107.749210037291049957275390625">
        <ele>4077.39990234375</ele>
        <time>2026-08-15T15:51:29.000Z</time>
        <extensions>
          <ns3:TrackPointExtension>
            <ns3:hr>110</ns3:hr>
            <ns3:cad>0</ns3:cad>
          </ns3:TrackPointExtension>
        </extensions>
      </trkpt>
      <trkpt lat="37.9883048124611377716064453125" lon="-107.749188579618930816650390625">
        <ele>4078</ele>
        <time>2026-08-15T15:51:33.000Z</time>
        <extensions>
          <ns3:TrackPointExtension>
            <ns3:hr>111</ns3:hr>
            <ns3:cad>0</ns3:cad>
          </ns3:TrackPointExtension>
        </extensions>
      </trkpt>
      <trkpt lat="37.98830858431756496429443359375" lon="-107.74914574809372425079345703125">
        <ele>4078.39990234375</ele>
        <time>2026-08-15T15:51:39.000Z</time>
        <extensions>
          <ns3:TrackPointExtension>
            <ns3:hr>112</ns3:hr>
            <ns3:cad>0</ns3:cad>
          </ns3:TrackPointExtension>
        </extensions>
      </trkpt>
      <trkpt lat="37.988307662308216094970703125" lon="-107.749147675931453704833984375">
        <ele>4078.60009765625</ele>
        <time>2026-08-15T15:51:40.000Z</time>
        <extensions>
          <ns3:TrackPointExtension>
            <ns3:hr>112</ns3:hr>
            <ns3:cad>0</ns3:cad>
          </ns3:TrackPointExtension>
        </extensions>
      </trkpt>
      <trkpt lat="37.98831109888851642608642578125" lon="-107.749125547707080841064453125">
        <ele>4078.800048828125</ele>
        <time>2026-08-15T15:51:46.000Z</time>
        <extensions>
          <ns3:TrackPointExtension>
            <ns3:hr>109</ns3:hr>
            <ns3:cad>0</ns3:cad>
          </ns3:TrackPointExtension>
        </extensions>
      </trkpt>
      <trkpt lat="37.98831143416464328765869140625" lon="-107.74911121465265750885009765625">
        <ele>4078.800048828125</ele>
        <time>2026-08-15T15:51:48.000Z</time>
        <extensions>
          <ns3:TrackPointExtension>
            <ns3:hr>108</ns3:hr>
            <ns3:cad>0</ns3:cad>
          </ns3:TrackPointExtension>
        </extensions>
      </trkpt>
      <trkpt lat="37.9883108474314212799072265625" lon="-107.7491010725498199462890625">
        <ele>4078.60009765625</ele>
        <time>2026-08-15T15:51:51.000Z</time>
        <extensions>
          <ns3:TrackPointExtension>
            <ns3:hr>111</ns3:hr>
            <ns3:cad>0</ns3:cad>
          </ns3:TrackPointExtension>
        </extensions>
      </trkpt>
      <trkpt lat="37.9883081652224063873291015625" lon="-107.74908942170441150665283203125">
        <ele>4077.800048828125</ele>
        <time>2026-08-15T15:51:56.000Z</time>
        <extensions>
          <ns3:TrackPointExtension>
            <ns3:hr>113</ns3:hr>
            <ns3:cad>0</ns3:cad>
          </ns3:TrackPointExtension>
        </extensions>
      </trkpt>
      <trkpt lat="37.9883078299462795257568359375" lon="-107.74907894432544708251953125">
        <ele>4077.199951171875</ele>
        <time>2026-08-15T15:51:58.000Z</time>
        <extensions>
          <ns3:TrackPointExtension>
            <ns3:hr>112</ns3:hr>
            <ns3:cad>0</ns3:cad>
          </ns3:TrackPointExtension>
        </extensions>
      </trkpt>
      <trkpt lat="37.98832501284778118133544921875" lon="-107.74906695820391178131103515625">
        <ele>4077.60009765625</ele>
        <time>2026-08-15T15:52:02.000Z</time>
        <extensions>
          <ns3:TrackPointExtension>
            <ns3:hr>112</ns3:hr>
            <ns3:cad>0</ns3:cad>
          </ns3:TrackPointExtension>
        </extensions>
      </trkpt>
      <trkpt lat="37.98834026791155338287353515625" lon="-107.74902186356484889984130859375">
        <ele>4077.800048828125</ele>
        <time>2026-08-15T15:52:08.000Z</time>
        <extensions>
          <ns3:TrackPointExtension>
            <ns3:hr>113</ns3:hr>
            <ns3:cad>68</ns3:cad>
          </ns3:TrackPointExtension>
        </extensions>
      </trkpt>
      <trkpt lat="37.9883390106260776519775390625" lon="-107.74901532568037509918212890625">
        <ele>4078</ele>
        <time>2026-08-15T15:52:09.000Z</time>
        <extensions>
          <ns3:TrackPointExtension>
            <ns3:hr>115</ns3:hr>
            <ns3:cad>68</ns3:cad>
          </ns3:TrackPointExtension>
        </extensions>
      </trkpt>
      <trkpt lat="37.988338172435760498046875" lon="-107.7490177564322948455810546875">
        <ele>4078</ele>
        <time>2026-08-15T15:52:15.000Z</time>
        <extensions>
          <ns3:TrackPointExtension>
            <ns3:hr>116</ns3:hr>
            <ns3:cad>0</ns3:cad>
          </ns3:TrackPointExtension>
        </extensions>
      </trkpt>
      <trkpt lat="37.988338172435760498046875" lon="-107.7490177564322948455810546875">
        <ele>4078</ele>
        <time>2026-08-15T15:52:17.000Z</time>
        <extensions>
          <ns3:TrackPointExtension>
            <ns3:hr>120</ns3:hr>
            <ns3:cad>0</ns3:cad>
          </ns3:TrackPointExtension>
        </extensions>
      </trkpt>
      <trkpt lat="37.988338172435760498046875" lon="-107.7490177564322948455810546875">
        <ele>4077.800048828125</ele>
        <time>2026-08-15T15:52:18.000Z</time>
        <extensions>
          <ns3:TrackPointExtension>
            <ns3:hr>122</ns3:hr>
            <ns3:cad>0</ns3:cad>
          </ns3:TrackPointExtension>
        </extensions>
      </trkpt>
      <trkpt lat="37.9883480630815029144287109375" lon="-107.74899805895984172821044921875">
        <ele>4077.800048828125</ele>
        <time>2026-08-15T15:52:23.000Z</time>
        <extensions>
          <ns3:TrackPointExtension>
            <ns3:hr>119</ns3:hr>
            <ns3:cad>0</ns3:cad>
          </ns3:TrackPointExtension>
        </extensions>
      </trkpt>
      <trkpt lat="37.98835418187081813812255859375" lon="-107.74899713695049285888671875">
        <ele>4077.60009765625</ele>
        <time>2026-08-15T15:52:24.000Z</time>
        <extensions>
          <ns3:TrackPointExtension>
            <ns3:hr>119</ns3:hr>
            <ns3:cad>0</ns3:cad>
          </ns3:TrackPointExtension>
        </extensions>
      </trkpt>
      <trkpt lat="37.98837547190487384796142578125" lon="-107.7489882521331310272216796875">
        <ele>4077.60009765625</ele>
        <time>2026-08-15T15:52:28.000Z</time>
        <extensions>
          <ns3:TrackPointExtension>
            <ns3:hr>116</ns3:hr>
            <ns3:cad>0</ns3:cad>
          </ns3:TrackPointExtension>
        </extensions>
      </trkpt>
      <trkpt lat="37.9883958399295806884765625" lon="-107.74897710420191287994384765625">
        <ele>4077.39990234375</ele>
        <time>2026-08-15T15:52:32.000Z</time>
        <extensions>
          <ns3:TrackPointExtension>
            <ns3:hr>113</ns3:hr>
            <ns3:cad>0</ns3:cad>
          </ns3:TrackPointExtension>
        </extensions>
      </trkpt>
      <trkpt lat="37.9884000308811664581298828125" lon="-107.74897207506000995635986328125">
        <ele>4077.60009765625</ele>
        <time>2026-08-15T15:52:35.000Z</time>
        <extensions>
          <ns3:TrackPointExtension>
            <ns3:hr>117</ns3:hr>
            <ns3:cad>0</ns3:cad>
          </ns3:TrackPointExtension>
        </extensions>
      </trkpt>
      <trkpt lat="37.98839986324310302734375" lon="-107.7489711530506610870361328125">
        <ele>4078</ele>
        <time>2026-08-15T15:52:37.000Z</time>
        <extensions>
          <ns3:TrackPointExtension>
            <ns3:hr>115</ns3:hr>
            <ns3:cad>0</ns3:cad>
          </ns3:TrackPointExtension>
        </extensions>
      </trkpt>
      <trkpt lat="37.98839986324310302734375" lon="-107.7489711530506610870361328125">
        <ele>4077.800048828125</ele>
        <time>2026-08-15T15:52:43.000Z</time>
        <extensions>
          <ns3:TrackPointExtension>
            <ns3:hr>112</ns3:hr>
            <ns3:cad>0</ns3:cad>
          </ns3:TrackPointExtension>
        </extensions>
      </trkpt>
      <trkpt lat="37.98840698786079883575439453125" lon="-107.74895564652979373931884765625">
        <ele>4077.800048828125</ele>
        <time>2026-08-15T15:52:46.000Z</time>
        <extensions>
          <ns3:TrackPointExtension>
            <ns3:hr>113</ns3:hr>
            <ns3:cad>0</ns3:cad>
          </ns3:TrackPointExtension>
        </extensions>
      </trkpt>
      <trkpt lat="37.9884159564971923828125" lon="-107.74894810281693935394287109375">
        <ele>4077.800048828125</ele>
        <time>2026-08-15T15:52:51.000Z</time>
        <extensions>
          <ns3:TrackPointExtension>
            <ns3:hr>110</ns3:hr>
            <ns3:cad>0</ns3:cad>
          </ns3:TrackPointExtension>
        </extensions>
      </trkpt>
      <trkpt lat="37.9884159564971923828125" lon="-107.74894810281693935394287109375">
        <ele>4077.800048828125</ele>
        <time>2026-08-15T15:52:55.000Z</time>
        <extensions>
          <ns3:TrackPointExtension>
            <ns3:hr>112</ns3:hr>
            <ns3:cad>0</ns3:cad>
          </ns3:TrackPointExtension>
        </extensions>
      </trkpt>
      <trkpt lat="37.98842224292457103729248046875" lon="-107.7489215321838855743408203125">
        <ele>4077.60009765625</ele>
        <time>2026-08-15T15:53:01.000Z</time>
        <extensions>
          <ns3:TrackPointExtension>
            <ns3:hr>114</ns3:hr>
            <ns3:cad>0</ns3:cad>
          </ns3:TrackPointExtension>
        </extensions>
      </trkpt>
      <trkpt lat="37.98844135366380214691162109375" lon="-107.748914323747158050537109375">
        <ele>4077.60009765625</ele>
        <time>2026-08-15T15:53:06.000Z</time>
        <extensions>
          <ns3:TrackPointExtension>
            <ns3:hr>114</ns3:hr>
            <ns3:cad>0</ns3:cad>
          </ns3:TrackPointExtension>
        </extensions>
      </trkpt>
      <trkpt lat="37.988449819386005401611328125" lon="-107.74889864958822727203369140625">
        <ele>4077.60009765625</ele>
        <time>2026-08-15T15:53:09.000Z</time>
        <extensions>
          <ns3:TrackPointExtension>
            <ns3:hr>117</ns3:hr>
            <ns3:cad>0</ns3:cad>
          </ns3:TrackPointExtension>
        </extensions>
      </trkpt>
      <trkpt lat="37.9884553514420986175537109375" lon="-107.74887970648705959320068359375">
        <ele>4078.60009765625</ele>
        <time>2026-08-15T15:53:12.000Z</time>
        <extensions>
          <ns3:TrackPointExtension>
            <ns3:hr>118</ns3:hr>
            <ns3:cad>0</ns3:cad>
          </ns3:TrackPointExtension>
        </extensions>
      </trkpt>
      <trkpt lat="37.98845727927982807159423828125" lon="-107.74887233041226863861083984375">
        <ele>4078.800048828125</ele>
        <time>2026-08-15T15:53:13.000Z</time>
        <extensions>
          <ns3:TrackPointExtension>
            <ns3:hr>117</ns3:hr>
            <ns3:cad>0</ns3:cad>
          </ns3:TrackPointExtension>
        </extensions>
      </trkpt>
      <trkpt lat="37.98846733756363391876220703125" lon="-107.7488524653017520904541015625">
        <ele>4078.39990234375</ele>
        <time>2026-08-15T15:53:16.000Z</time>
        <extensions>
          <ns3:TrackPointExtension>
            <ns3:hr>114</ns3:hr>
            <ns3:cad>0</ns3:cad>
          </ns3:TrackPointExtension>
        </extensions>
      </trkpt>
      <trkpt lat="37.98846700228750705718994140625" lon="-107.74884693324565887451171875">
        <ele>4078</ele>
        <time>2026-08-15T15:53:18.000Z</time>
        <extensions>
          <ns3:TrackPointExtension>
            <ns3:hr>112</ns3:hr>
            <ns3:cad>0</ns3:cad>
          </ns3:TrackPointExtension>
        </extensions>
      </trkpt>
      <trkpt lat="37.98848368227481842041015625" lon="-107.748834528028964996337890625">
        <ele>4078.60009765625</ele>
        <time>2026-08-15T15:53:24.000Z</time>
        <extensions>
          <ns3:TrackPointExtension>
            <ns3:hr>112</ns3:hr>
            <ns3:cad>0</ns3:cad>
          </ns3:TrackPointExtension>
        </extensions>
      </trkpt>
      <trkpt lat="37.9884858615696430206298828125" lon="-107.74882949888706207275390625">
        <ele>4078.39990234375</ele>
        <time>2026-08-15T15:53:25.000Z</time>
        <extensions>
          <ns3:TrackPointExtension>
            <ns3:hr>111</ns3:hr>
            <ns3:cad>0</ns3:cad>
          </ns3:TrackPointExtension>
        </extensions>
      </trkpt>
      <trkpt lat="37.9884905554354190826416015625" lon="-107.74879999458789825439453125">
        <ele>4078.39990234375</ele>
        <time>2026-08-15T15:53:29.000Z</time>
        <extensions>
          <ns3:TrackPointExtension>
            <ns3:hr>108</ns3:hr>
            <ns3:cad>0</ns3:cad>
          </ns3:TrackPointExtension>
        </extensions>
      </trkpt>
      <trkpt lat="37.98849181272089481353759765625" lon="-107.74879270233213901519775390625">
        <ele>4078.199951171875</ele>
        <time>2026-08-15T15:53:30.000Z</time>
        <extensions>
          <ns3:TrackPointExtension>
            <ns3:hr>108</ns3:hr>
            <ns3:cad>0</ns3:cad>
          </ns3:TrackPointExtension>
        </extensions>
      </trkpt>
      <trkpt lat="37.98849566839635372161865234375" lon="-107.74877451360225677490234375">
        <ele>4078</ele>
        <time>2026-08-15T15:53:35.000Z</time>
        <extensions>
          <ns3:TrackPointExtension>
            <ns3:hr>108</ns3:hr>
            <ns3:cad>0</ns3:cad>
          </ns3:TrackPointExtension>
        </extensions>
      </trkpt>
      <trkpt lat="37.988516874611377716064453125" lon="-107.74875842034816741943359375">
        <ele>4078.800048828125</ele>
        <time>2026-08-15T15:53:41.000Z</time>
        <extensions>
          <ns3:TrackPointExtension>
            <ns3:hr>107</ns3:hr>
            <ns3:cad>0</ns3:cad>
          </ns3:TrackPointExtension>
        </extensions>
      </trkpt>
      <trkpt lat="37.98851863481104373931884765625" lon="-107.74875397793948650360107421875">
        <ele>4079</ele>
        <time>2026-08-15T15:53:43.000Z</time>
        <extensions>
          <ns3:TrackPointExtension>
            <ns3:hr>108</ns3:hr>
            <ns3:cad>0</ns3:cad>
          </ns3:TrackPointExtension>
        </extensions>
      </trkpt>
      <trkpt lat="37.98851863481104373931884765625" lon="-107.748741321265697479248046875">
        <ele>4079.199951171875</ele>
        <time>2026-08-15T15:53:45.000Z</time>
        <extensions>
          <ns3:TrackPointExtension>
            <ns3:hr>111</ns3:hr>
            <ns3:cad>0</ns3:cad>
          </ns3:TrackPointExtension>
        </extensions>
      </trkpt>
      <trkpt lat="37.9885207302868366241455078125" lon="-107.748727910220623016357421875">
        <ele>4079.60009765625</ele>
        <time>2026-08-15T15:53:48.000Z</time>
        <extensions>
          <ns3:TrackPointExtension>
            <ns3:hr>111</ns3:hr>
            <ns3:cad>0</ns3:cad>
          </ns3:TrackPointExtension>
        </extensions>
      </trkpt>
      <trkpt lat="37.98852332867681980133056640625" lon="-107.74872279725968837738037109375">
        <ele>4079.800048828125</ele>
        <time>2026-08-15T15:53:49.000Z</time>
        <extensions>
          <ns3:TrackPointExtension>
            <ns3:hr>111</ns3:hr>
            <ns3:cad>0</ns3:cad>
          </ns3:TrackPointExtension>
        </extensions>
      </trkpt>
      <trkpt lat="37.9885384999215602874755859375" lon="-107.748682983219623565673828125">
        <ele>4080</ele>
        <time>2026-08-15T15:53:55.000Z</time>
        <extensions>
          <ns3:TrackPointExtension>
            <ns3:hr>111</ns3:hr>
            <ns3:cad>0</ns3:cad>
          </ns3:TrackPointExtension>
        </extensions>
      </trkpt>
      <trkpt lat="37.9885460436344146728515625" lon="-107.74867719970643520355224609375">
        <ele>4079.800048828125</ele>
        <time>2026-08-15T15:53:57.000Z</time>
        <extensions>
          <ns3:TrackPointExtension>
            <ns3:hr>110</ns3:hr>
            <ns3:cad>0</ns3:cad>
          </ns3:TrackPointExtension>
        </extensions>
      </trkpt>
      <trkpt lat="37.988564483821392059326171875" lon="-107.7486637048423290252685546875">
        <ele>4079.199951171875</ele>
        <time>2026-08-15T15:54:03.000Z</time>
        <extensions>
          <ns3:TrackPointExtension>
            <ns3:hr>110</ns3:hr>
            <ns3:cad>0</ns3:cad>
          </ns3:TrackPointExtension>
        </extensions>
      </trkpt>
      <trkpt lat="37.98856724984943866729736328125" lon="-107.74866580031812191009521484375">
        <ele>4079.39990234375</ele>
        <time>2026-08-15T15:54:04.000Z</time>
        <extensions>
          <ns3:TrackPointExtension>
            <ns3:hr>109</ns3:hr>
            <ns3:cad>0</ns3:cad>
          </ns3:TrackPointExtension>
        </extensions>
      </trkpt>
      <trkpt lat="37.98857177607715129852294921875" lon="-107.7486559934914112091064453125">
        <ele>4079</ele>
        <time>2026-08-15T15:54:07.000Z</time>
        <extensions>
          <ns3:TrackPointExtension>
            <ns3:hr>106</ns3:hr>
            <ns3:cad>0</ns3:cad>
          </ns3:TrackPointExtension>
        </extensions>
      </trkpt>
      <trkpt lat="37.9885713569819927215576171875" lon="-107.7486519701778888702392578125">
        <ele>4078.800048828125</ele>
        <time>2026-08-15T15:54:08.000Z</time>
        <extensions>
          <ns3:TrackPointExtension>
            <ns3:hr>106</ns3:hr>
            <ns3:cad>0</ns3:cad>
          </ns3:TrackPointExtension>
        </extensions>
      </trkpt>
      <trkpt lat="37.98857311718165874481201171875" lon="-107.74864367209374904632568359375">
        <ele>4078.39990234375</ele>
        <time>2026-08-15T15:54:09.000Z</time>
        <extensions>
          <ns3:TrackPointExtension>
            <ns3:hr>105</ns3:hr>
            <ns3:cad>0</ns3:cad>
          </ns3:TrackPointExtension>
        </extensions>
      </trkpt>
      <trkpt lat="37.98857898451387882232666015625" lon="-107.74860947392880916595458984375">
        <ele>4077.800048828125</ele>
        <time>2026-08-15T15:54:13.000Z</time>
        <extensions>
          <ns3:TrackPointExtension>
            <ns3:hr>108</ns3:hr>
            <ns3:cad>74</ns3:cad>
          </ns3:TrackPointExtension>
        </extensions>
      </trkpt>
      <trkpt lat="37.9885834269225597381591796875" lon="-107.74859924800693988800048828125">
        <ele>4077.60009765625</ele>
        <time>2026-08-15T15:54:14.000Z</time>
        <extensions>
          <ns3:TrackPointExtension>
            <ns3:hr>110</ns3:hr>
            <ns3:cad>74</ns3:cad>
          </ns3:TrackPointExtension>
        </extensions>
      </trkpt>
      <trkpt lat="37.98860010690987110137939453125" lon="-107.7485641278326511383056640625">
        <ele>4077.39990234375</ele>
        <time>2026-08-15T15:54:16.000Z</time>
        <extensions>
          <ns3:TrackPointExtension>
            <ns3:hr>112</ns3:hr>
            <ns3:cad>0</ns3:cad>
          </ns3:TrackPointExtension>
        </extensions>
      </trkpt>
      <trkpt lat="37.98860781826078891754150390625" lon="-107.7485366351902484893798828125">
        <ele>4077.39990234375</ele>
        <time>2026-08-15T15:54:18.000Z</time>
        <extensions>
          <ns3:TrackPointExtension>
            <ns3:hr>115</ns3:hr>
            <ns3:cad>49</ns3:cad>
          </ns3:TrackPointExtension>
        </extensions>
      </trkpt>
      <trkpt lat="37.9886099137365818023681640625" lon="-107.7485272474586963653564453125">
        <ele>4077.60009765625</ele>
        <time>2026-08-15T15:54:19.000Z</time>
        <extensions>
          <ns3:TrackPointExtension>
            <ns3:hr>117</ns3:hr>
            <ns3:cad>49</ns3:cad>
          </ns3:TrackPointExtension>
        </extensions>
      </trkpt>
      <trkpt lat="37.98863028176128864288330078125" lon="-107.74844284169375896453857421875">
        <ele>4076.800048828125</ele>
        <time>2026-08-15T15:54:25.000Z</time>
        <extensions>
          <ns3:TrackPointExtension>
            <ns3:hr>115</ns3:hr>
            <ns3:cad>60</ns3:cad>
          </ns3:TrackPointExtension>
        </extensions>
      </trkpt>
      <trkpt lat="37.98864084295928478240966796875" lon="-107.7484333701431751251220703125">
        <ele>4076.60009765625</ele>
        <time>2026-08-15T15:54:26.000Z</time>
        <extensions>
          <ns3:TrackPointExtension>
            <ns3:hr>115</ns3:hr>
            <ns3:cad>60</ns3:cad>
          </ns3:TrackPointExtension>
        </extensions>
      </trkpt>
      <trkpt lat="37.98865274526178836822509765625" lon="-107.748393975198268890380859375">
        <ele>4077.60009765625</ele>
        <time>2026-08-15T15:54:31.000Z</time>
        <extensions>
          <ns3:TrackPointExtension>
            <ns3:hr>113</ns3:hr>
            <ns3:cad>71</ns3:cad>
          </ns3:TrackPointExtension>
        </extensions>
      </trkpt>
      <trkpt lat="37.988656349480152130126953125" lon="-107.74836488999426364898681640625">
        <ele>4077.60009765625</ele>
        <time>2026-08-15T15:54:35.000Z</time>
        <extensions>
          <ns3:TrackPointExtension>
            <ns3:hr>113</ns3:hr>
            <ns3:cad>71</ns3:cad>
          </ns3:TrackPointExtension>
        </extensions>
      </trkpt>
      <trkpt lat="37.98866330645978450775146484375" lon="-107.7483508922159671783447265625">
        <ele>4077.39990234375</ele>
        <time>2026-08-15T15:54:38.000Z</time>
        <extensions>
          <ns3:TrackPointExtension>
            <ns3:hr>113</ns3:hr>
            <ns3:cad>71</ns3:cad>
          </ns3:TrackPointExtension>
        </extensions>
      </trkpt>
      <trkpt lat="37.98867956735193729400634765625" lon="-107.748334296047687530517578125">
        <ele>4077</ele>
        <time>2026-08-15T15:54:43.000Z</time>
        <extensions>
          <ns3:TrackPointExtension>
            <ns3:hr>110</ns3:hr>
            <ns3:cad>0</ns3:cad>
          </ns3:TrackPointExtension>
        </extensions>
      </trkpt>
      <trkpt lat="37.9886890389025211334228515625" lon="-107.748317532241344451904296875">
        <ele>4076.60009765625</ele>
        <time>2026-08-15T15:54:45.000Z</time>
        <extensions>
          <ns3:TrackPointExtension>
            <ns3:hr>109</ns3:hr>
            <ns3:cad>0</ns3:cad>
          </ns3:TrackPointExtension>
        </extensions>
      </trkpt>
      <trkpt lat="37.98869557678699493408203125" lon="-107.74829783476889133453369140625">
        <ele>4076.199951171875</ele>
        <time>2026-08-15T15:54:47.000Z</time>
        <extensions>
          <ns3:TrackPointExtension>
            <ns3:hr>108</ns3:hr>
            <ns3:cad>0</ns3:cad>
          </ns3:TrackPointExtension>
        </extensions>
      </trkpt>
      <trkpt lat="37.988696582615375518798828125" lon="-107.74827134795486927032470703125">
        <ele>4076.800048828125</ele>
        <time>2026-08-15T15:54:52.000Z</time>
        <extensions>
          <ns3:TrackPointExtension>
            <ns3:hr>108</ns3:hr>
            <ns3:cad>0</ns3:cad>
          </ns3:TrackPointExtension>
        </extensions>
      </trkpt>
      <trkpt lat="37.98870496451854705810546875" lon="-107.7482187934219837188720703125">
        <ele>4076.800048828125</ele>
        <time>2026-08-15T15:54:58.000Z</time>
        <extensions>
          <ns3:TrackPointExtension>
            <ns3:hr>108</ns3:hr>
            <ns3:cad>0</ns3:cad>
          </ns3:TrackPointExtension>
        </extensions>
      </trkpt>
      <trkpt lat="37.988717369735240936279296875" lon="-107.74818032048642635345458984375">
        <ele>4076.39990234375</ele>
        <time>2026-08-15T15:55:03.000Z</time>
        <extensions>
          <ns3:TrackPointExtension>
            <ns3:hr>106</ns3:hr>
            <ns3:cad>0</ns3:cad>
          </ns3:TrackPointExtension>
        </extensions>
      </trkpt>
      <trkpt lat="37.98872365616261959075927734375" lon="-107.7481249161064624786376953125">
        <ele>4077</ele>
        <time>2026-08-15T15:55:09.000Z</time>
        <extensions>
          <ns3:TrackPointExtension>
            <ns3:hr>103</ns3:hr>
            <ns3:cad>0</ns3:cad>
          </ns3:TrackPointExtension>
        </extensions>
      </trkpt>
      <trkpt lat="37.98872365616261959075927734375" lon="-107.7481249161064624786376953125">
        <ele>4077.199951171875</ele>
        <time>2026-08-15T15:55:10.000Z</time>
        <extensions>
          <ns3:TrackPointExtension>
            <ns3:hr>102</ns3:hr>
            <ns3:cad>0</ns3:cad>
          </ns3:TrackPointExtension>
        </extensions>
      </trkpt>
      <trkpt lat="37.9887257516384124755859375" lon="-107.7481208927929401397705078125">
        <ele>4077.60009765625</ele>
        <time>2026-08-15T15:55:11.000Z</time>
        <extensions>
          <ns3:TrackPointExtension>
            <ns3:hr>102</ns3:hr>
            <ns3:cad>0</ns3:cad>
          </ns3:TrackPointExtension>
        </extensions>
      </trkpt>
      <trkpt lat="37.98873136751353740692138671875" lon="-107.74809750728309154510498046875">
        <ele>4078.199951171875</ele>
        <time>2026-08-15T15:55:15.000Z</time>
        <extensions>
          <ns3:TrackPointExtension>
            <ns3:hr>101</ns3:hr>
            <ns3:cad>59</ns3:cad>
          </ns3:TrackPointExtension>
        </extensions>
      </trkpt>
      <trkpt lat="37.98873555846512317657470703125" lon="-107.74807621724903583526611328125">
        <ele>4078</ele>
        <time>2026-08-15T15:55:21.000Z</time>
        <extensions>
          <ns3:TrackPointExtension>
            <ns3:hr>101</ns3:hr>
            <ns3:cad>0</ns3:cad>
          </ns3:TrackPointExtension>
        </extensions>
      </trkpt>
      <trkpt lat="37.988737486302852630615234375" lon="-107.748073451220989227294921875">
        <ele>4077.800048828125</ele>
        <time>2026-08-15T15:55:22.000Z</time>
        <extensions>
          <ns3:TrackPointExtension>
            <ns3:hr>101</ns3:hr>
            <ns3:cad>0</ns3:cad>
          </ns3:TrackPointExtension>
        </extensions>
      </trkpt>
      <trkpt lat="37.98874176107347011566162109375" lon="-107.74804101325571537017822265625">
        <ele>4078.199951171875</ele>
        <time>2026-08-15T15:55:27.000Z</time>
        <extensions>
          <ns3:TrackPointExtension>
            <ns3:hr>98</ns3:hr>
            <ns3:cad>0</ns3:cad>
          </ns3:TrackPointExtension>
        </extensions>
      </trkpt>
      <trkpt lat="37.9887420125305652618408203125" lon="-107.74804084561765193939208984375">
        <ele>4078.39990234375</ele>
        <time>2026-08-15T15:55:28.000Z</time>
        <extensions>
          <ns3:TrackPointExtension>
            <ns3:hr>98</ns3:hr>
            <ns3:cad>0</ns3:cad>
          </ns3:TrackPointExtension>
        </extensions>
      </trkpt>
      <trkpt lat="37.9887480475008487701416015625" lon="-107.7480347268283367156982421875">
        <ele>4078.60009765625</ele>
        <time>2026-08-15T15:55:29.000Z</time>
        <extensions>
          <ns3:TrackPointExtension>
            <ns3:hr>98</ns3:hr>
            <ns3:cad>0</ns3:cad>
          </ns3:TrackPointExtension>
        </extensions>
      </trkpt>
      <trkpt lat="37.98875198699533939361572265625" lon="-107.7480142749845981597900390625">
        <ele>4078.60009765625</ele>
        <time>2026-08-15T15:55:33.000Z</time>
        <extensions>
          <ns3:TrackPointExtension>
            <ns3:hr>100</ns3:hr>
            <ns3:cad>0</ns3:cad>
          </ns3:TrackPointExtension>
        </extensions>
      </trkpt>
      <trkpt lat="37.98875131644308567047119140625" lon="-107.74801217950880527496337890625">
        <ele>4079.60009765625</ele>
        <time>2026-08-15T15:55:37.000Z</time>
        <extensions>
          <ns3:TrackPointExtension>
            <ns3:hr>102</ns3:hr>
            <ns3:cad>0</ns3:cad>
          </ns3:TrackPointExtension>
        </extensions>
      </trkpt>
      <trkpt lat="37.98875391483306884765625" lon="-107.7479908056557178497314453125">
        <ele>4079.60009765625</ele>
        <time>2026-08-15T15:55:39.000Z</time>
        <extensions>
          <ns3:TrackPointExtension>
            <ns3:hr>103</ns3:hr>
            <ns3:cad>0</ns3:cad>
          </ns3:TrackPointExtension>
        </extensions>
      </trkpt>
      <trkpt lat="37.98876472748816013336181640625" lon="-107.74798418395221233367919921875">
        <ele>4078.60009765625</ele>
        <time>2026-08-15T15:55:42.000Z</time>
        <extensions>
          <ns3:TrackPointExtension>
            <ns3:hr>103</ns3:hr>
            <ns3:cad>0</ns3:cad>
          </ns3:TrackPointExtension>
        </extensions>
      </trkpt>
      <trkpt lat="37.98878048546612262725830078125" lon="-107.74798921309411525726318359375">
        <ele>4078.800048828125</ele>
        <time>2026-08-15T15:55:45.000Z</time>
        <extensions>
          <ns3:TrackPointExtension>
            <ns3:hr>103</ns3:hr>
            <ns3:cad>0</ns3:cad>
          </ns3:TrackPointExtension>
        </extensions>
      </trkpt>
      <trkpt lat="37.988785766065120697021484375" lon="-107.7479879558086395263671875">
        <ele>4079.800048828125</ele>
        <time>2026-08-15T15:55:47.000Z</time>
        <extensions>
          <ns3:TrackPointExtension>
            <ns3:hr>103</ns3:hr>
            <ns3:cad>0</ns3:cad>
          </ns3:TrackPointExtension>
        </extensions>
      </trkpt>
      <trkpt lat="37.98880261369049549102783203125" lon="-107.747986279428005218505859375">
        <ele>4080.800048828125</ele>
        <time>2026-08-15T15:55:50.000Z</time>
        <extensions>
          <ns3:TrackPointExtension>
            <ns3:hr>105</ns3:hr>
            <ns3:cad>0</ns3:cad>
          </ns3:TrackPointExtension>
        </extensions>
      </trkpt>
      <trkpt lat="37.988805212080478668212890625" lon="-107.7479857765138149261474609375">
        <ele>4081</ele>
        <time>2026-08-15T15:55:51.000Z</time>
        <extensions>
          <ns3:TrackPointExtension>
            <ns3:hr>104</ns3:hr>
            <ns3:cad>0</ns3:cad>
          </ns3:TrackPointExtension>
        </extensions>
      </trkpt>
      <trkpt lat="37.98881770111620426177978515625" lon="-107.74797647260129451751708984375">
        <ele>4081.800048828125</ele>
        <time>2026-08-15T15:55:55.000Z</time>
        <extensions>
          <ns3:TrackPointExtension>
            <ns3:hr>109</ns3:hr>
            <ns3:cad>0</ns3:cad>
          </ns3:TrackPointExtension>
        </extensions>
      </trkpt>
      <trkpt lat="37.9888234846293926239013671875" lon="-107.7479676716029644012451171875">
        <ele>4082</ele>
        <time>2026-08-15T15:55:56.000Z</time>
        <extensions>
          <ns3:TrackPointExtension>
            <ns3:hr>111</ns3:hr>
            <ns3:cad>0</ns3:cad>
          </ns3:TrackPointExtension>
        </extensions>
      </trkpt>
      <trkpt lat="37.98882792703807353973388671875" lon="-107.74796121753752231597900390625">
        <ele>4082.39990234375</ele>
        <time>2026-08-15T15:55:57.000Z</time>
        <extensions>
          <ns3:TrackPointExtension>
            <ns3:hr>112</ns3:hr>
            <ns3:cad>0</ns3:cad>
          </ns3:TrackPointExtension>
        </extensions>
      </trkpt>
      <trkpt lat="37.9888261668384075164794921875" lon="-107.7479509077966213226318359375">
        <ele>4082.39990234375</ele>
        <time>2026-08-15T15:56:03.000Z</time>
        <extensions>
          <ns3:TrackPointExtension>
            <ns3:hr>113</ns3:hr>
            <ns3:cad>0</ns3:cad>
          </ns3:TrackPointExtension>
        </extensions>
      </trkpt>
      <trkpt lat="37.9888476245105266571044921875" lon="-107.74791209958493709564208984375">
        <ele>4082</ele>
        <time>2026-08-15T15:56:09.000Z</time>
        <extensions>
          <ns3:TrackPointExtension>
            <ns3:hr>112</ns3:hr>
            <ns3:cad>0</ns3:cad>
          </ns3:TrackPointExtension>
        </extensions>
      </trkpt>
      <trkpt lat="37.98887126147747039794921875" lon="-107.7478918991982936859130859375">
        <ele>4081.800048828125</ele>
        <time>2026-08-15T15:56:15.000Z</time>
        <extensions>
          <ns3:TrackPointExtension>
            <ns3:hr>112</ns3:hr>
            <ns3:cad>0</ns3:cad>
          </ns3:TrackPointExtension>
        </extensions>
      </trkpt>
      <trkpt lat="37.9888875223696231842041015625" lon="-107.747878991067409515380859375">
        <ele>4081.39990234375</ele>
        <time>2026-08-15T15:56:20.000Z</time>
        <extensions>
          <ns3:TrackPointExtension>
            <ns3:hr>112</ns3:hr>
            <ns3:cad>0</ns3:cad>
          </ns3:TrackPointExtension>
        </extensions>
      </trkpt>
      <trkpt lat="37.98888743855059146881103515625" lon="-107.7478791587054729461669921875">
        <ele>4081.800048828125</ele>
        <time>2026-08-15T15:56:25.000Z</time>
        <extensions>
          <ns3:TrackPointExtension>
            <ns3:hr>109</ns3:hr>
            <ns3:cad>0</ns3:cad>
          </ns3:TrackPointExtension>
        </extensions>
      </trkpt>
      <trkpt lat="37.98888743855059146881103515625" lon="-107.7478791587054729461669921875">
        <ele>4081.800048828125</ele>
        <time>2026-08-15T15:56:26.000Z</time>
        <extensions>
          <ns3:TrackPointExtension>
            <ns3:hr>106</ns3:hr>
            <ns3:cad>0</ns3:cad>
          </ns3:TrackPointExtension>
        </extensions>
      </trkpt>
      <trkpt lat="37.98888743855059146881103515625" lon="-107.7478791587054729461669921875">
        <ele>4081.800048828125</ele>
        <time>2026-08-15T15:56:27.000Z</time>
        <extensions>
          <ns3:TrackPointExtension>
            <ns3:hr>106</ns3:hr>
            <ns3:cad>0</ns3:cad>
          </ns3:TrackPointExtension>
        </extensions>
      </trkpt>
      <trkpt lat="37.98888743855059146881103515625" lon="-107.7478791587054729461669921875">
        <ele>4081.800048828125</ele>
        <time>2026-08-15T15:56:33.000Z</time>
        <extensions>
          <ns3:TrackPointExtension>
            <ns3:hr>108</ns3:hr>
            <ns3:cad>0</ns3:cad>
          </ns3:TrackPointExtension>
        </extensions>
      </trkpt>
      <trkpt lat="37.98888743855059146881103515625" lon="-107.7478791587054729461669921875">
        <ele>4082</ele>
        <time>2026-08-15T15:56:38.000Z</time>
        <extensions>
          <ns3:TrackPointExtension>
            <ns3:hr>115</ns3:hr>
            <ns3:cad>0</ns3:cad>
          </ns3:TrackPointExtension>
        </extensions>
      </trkpt>
      <trkpt lat="37.98888743855059146881103515625" lon="-107.7478791587054729461669921875">
        <ele>4082</ele>
        <time>2026-08-15T15:56:39.000Z</time>
        <extensions>
          <ns3:TrackPointExtension>
            <ns3:hr>118</ns3:hr>
            <ns3:cad>0</ns3:cad>
          </ns3:TrackPointExtension>
        </extensions>
      </trkpt>
      <trkpt lat="37.98888743855059146881103515625" lon="-107.7478791587054729461669921875">
        <ele>4082</ele>
        <time>2026-08-15T15:56:40.000Z</time>
        <extensions>
          <ns3:TrackPointExtension>
            <ns3:hr>120</ns3:hr>
            <ns3:cad>0</ns3:cad>
          </ns3:TrackPointExtension>
        </extensions>
      </trkpt>
      <trkpt lat="37.9889207147061824798583984375" lon="-107.74787731468677520751953125">
        <ele>4082.39990234375</ele>
        <time>2026-08-15T15:56:46.000Z</time>
        <extensions>
          <ns3:TrackPointExtension>
            <ns3:hr>121</ns3:hr>
            <ns3:cad>0</ns3:cad>
          </ns3:TrackPointExtension>
        </extensions>
      </trkpt>
      <trkpt lat="37.988923229277133941650390625" lon="-107.747878991067409515380859375">
        <ele>4082.800048828125</ele>
        <time>2026-08-15T15:56:47.000Z</time>
        <extensions>
          <ns3:TrackPointExtension>
            <ns3:hr>121</ns3:hr>
            <ns3:cad>0</ns3:cad>
          </ns3:TrackPointExtension>
        </extensions>
      </trkpt>
      <trkpt lat="37.98893203027546405792236328125" lon="-107.74788041599094867706298828125">
        <ele>4083.199951171875</ele>
        <time>2026-08-15T15:56:48.000Z</time>
        <extensions>
          <ns3:TrackPointExtension>
            <ns3:hr>121</ns3:hr>
            <ns3:cad>0</ns3:cad>
          </ns3:TrackPointExtension>
        </extensions>
      </trkpt>
      <trkpt lat="37.98894879408180713653564453125" lon="-107.747881002724170684814453125">
        <ele>4083.800048828125</ele>
        <time>2026-08-15T15:56:52.000Z</time>
        <extensions>
          <ns3:TrackPointExtension>
            <ns3:hr>122</ns3:hr>
            <ns3:cad>0</ns3:cad>
          </ns3:TrackPointExtension>
        </extensions>
      </trkpt>
      <trkpt lat="37.9889599420130252838134765625" lon="-107.74786817841231822967529296875">
        <ele>4084.199951171875</ele>
        <time>2026-08-15T15:56:56.000Z</time>
        <extensions>
          <ns3:TrackPointExtension>
            <ns3:hr>121</ns3:hr>
            <ns3:cad>0</ns3:cad>
          </ns3:TrackPointExtension>
        </extensions>
      </trkpt>
      <trkpt lat="37.98896572552621364593505859375" lon="-107.7478645741939544677734375">
        <ele>4085.39990234375</ele>
        <time>2026-08-15T15:57:00.000Z</time>
        <extensions>
          <ns3:TrackPointExtension>
            <ns3:hr>117</ns3:hr>
            <ns3:cad>0</ns3:cad>
          </ns3:TrackPointExtension>
        </extensions>
      </trkpt>
      <trkpt lat="37.9889706708490848541259765625" lon="-107.74786063469946384429931640625">
        <ele>4085.60009765625</ele>
        <time>2026-08-15T15:57:01.000Z</time>
        <extensions>
          <ns3:TrackPointExtension>
            <ns3:hr>114</ns3:hr>
            <ns3:cad>0</ns3:cad>
          </ns3:TrackPointExtension>
        </extensions>
      </trkpt>
      <trkpt lat="37.98897184431552886962890625" lon="-107.747859545052051544189453125">
        <ele>4085.800048828125</ele>
        <time>2026-08-15T15:57:02.000Z</time>
        <extensions>
          <ns3:TrackPointExtension>
            <ns3:hr>110</ns3:hr>
            <ns3:cad>0</ns3:cad>
          </ns3:TrackPointExtension>
        </extensions>
      </trkpt>
      <trkpt lat="37.9889679886400699615478515625" lon="-107.7478613890707492828369140625">
        <ele>4086.199951171875</ele>
        <time>2026-08-15T15:57:06.000Z</time>
        <extensions>
          <ns3:TrackPointExtension>
            <ns3:hr>108</ns3:hr>
            <ns3:cad>73</ns3:cad>
          </ns3:TrackPointExtension>
        </extensions>
      </trkpt>
      <trkpt lat="37.9889716766774654388427734375" lon="-107.7478640712797641754150390625">
        <ele>4086.60009765625</ele>
        <time>2026-08-15T15:57:08.000Z</time>
        <extensions>
          <ns3:TrackPointExtension>
            <ns3:hr>109</ns3:hr>
            <ns3:cad>0</ns3:cad>
          </ns3:TrackPointExtension>
        </extensions>
      </trkpt>
      <trkpt lat="37.9889840818941593170166015625" lon="-107.74787195026874542236328125">
        <ele>4087.39990234375</ele>
        <time>2026-08-15T15:57:11.000Z</time>
        <extensions>
          <ns3:TrackPointExtension>
            <ns3:hr>109</ns3:hr>
            <ns3:cad>0</ns3:cad>
          </ns3:TrackPointExtension>
        </extensions>
      </trkpt>
      <trkpt lat="37.98898751847445964813232421875" lon="-107.74787354283034801483154296875">
        <ele>4087.800048828125</ele>
        <time>2026-08-15T15:57:12.000Z</time>
        <extensions>
          <ns3:TrackPointExtension>
            <ns3:hr>109</ns3:hr>
            <ns3:cad>0</ns3:cad>
          </ns3:TrackPointExtension>
        </extensions>
      </trkpt>
      <trkpt lat="37.98899338580667972564697265625" lon="-107.7478660829365253448486328125">
        <ele>4088.60009765625</ele>
        <time>2026-08-15T15:57:17.000Z</time>
        <extensions>
          <ns3:TrackPointExtension>
            <ns3:hr>105</ns3:hr>
            <ns3:cad>0</ns3:cad>
          </ns3:TrackPointExtension>
        </extensions>
      </trkpt>
      <trkpt lat="37.9889931343495845794677734375" lon="-107.7478538453578948974609375">
        <ele>4088.800048828125</ele>
        <time>2026-08-15T15:57:18.000Z</time>
        <extensions>
          <ns3:TrackPointExtension>
            <ns3:hr>103</ns3:hr>
            <ns3:cad>0</ns3:cad>
          </ns3:TrackPointExtension>
        </extensions>
      </trkpt>
      <trkpt lat="37.9889966547489166259765625" lon="-107.74786063469946384429931640625">
        <ele>4089</ele>
        <time>2026-08-15T15:57:19.000Z</time>
        <extensions>
          <ns3:TrackPointExtension>
            <ns3:hr>100</ns3:hr>
            <ns3:cad>0</ns3:cad>
          </ns3:TrackPointExtension>
        </extensions>
      </trkpt>
      <trkpt lat="37.98899908550083637237548828125" lon="-107.74785853922367095947265625">
        <ele>4089.199951171875</ele>
        <time>2026-08-15T15:57:20.000Z</time>
        <extensions>
          <ns3:TrackPointExtension>
            <ns3:hr>100</ns3:hr>
            <ns3:cad>0</ns3:cad>
          </ns3:TrackPointExtension>
        </extensions>
      </trkpt>
      <trkpt lat="37.98899992369115352630615234375" lon="-107.74786147288978099822998046875">
        <ele>4089.39990234375</ele>
        <time>2026-08-15T15:57:22.000Z</time>
        <extensions>
          <ns3:TrackPointExtension>
            <ns3:hr>101</ns3:hr>
            <ns3:cad>0</ns3:cad>
          </ns3:TrackPointExtension>
        </extensions>
      </trkpt>
      <trkpt lat="37.98899992369115352630615234375" lon="-107.74786147288978099822998046875">
        <ele>4090</ele>
        <time>2026-08-15T15:57:24.000Z</time>
        <extensions>
          <ns3:TrackPointExtension>
            <ns3:hr>101</ns3:hr>
            <ns3:cad>0</ns3:cad>
          </ns3:TrackPointExtension>
        </extensions>
      </trkpt>
      <trkpt lat="37.98899992369115352630615234375" lon="-107.74786147288978099822998046875">
        <ele>4090.800048828125</ele>
        <time>2026-08-15T15:57:28.000Z</time>
        <extensions>
          <ns3:TrackPointExtension>
            <ns3:hr>99</ns3:hr>
            <ns3:cad>0</ns3:cad>
          </ns3:TrackPointExtension>
        </extensions>
      </trkpt>
      <trkpt lat="37.98899992369115352630615234375" lon="-107.74786147288978099822998046875">
        <ele>4091</ele>
        <time>2026-08-15T15:57:29.000Z</time>
        <extensions>
          <ns3:TrackPointExtension>
            <ns3:hr>98</ns3:hr>
            <ns3:cad>0</ns3:cad>
          </ns3:TrackPointExtension>
        </extensions>
      </trkpt>
      <trkpt lat="37.98899992369115352630615234375" lon="-107.74786147288978099822998046875">
        <ele>4091.199951171875</ele>
        <time>2026-08-15T15:57:34.000Z</time>
        <extensions>
          <ns3:TrackPointExtension>
            <ns3:hr>97</ns3:hr>
            <ns3:cad>0</ns3:cad>
          </ns3:TrackPointExtension>
        </extensions>
      </trkpt>
      <trkpt lat="37.9890162684023380279541015625" lon="-107.7478590421378612518310546875">
        <ele>4091.39990234375</ele>
        <time>2026-08-15T15:57:39.000Z</time>
        <extensions>
          <ns3:TrackPointExtension>
            <ns3:hr>100</ns3:hr>
            <ns3:cad>0</ns3:cad>
          </ns3:TrackPointExtension>
        </extensions>
      </trkpt>
      <trkpt lat="37.9890127480030059814453125" lon="-107.74785518646240234375">
        <ele>4092.199951171875</ele>
        <time>2026-08-15T15:57:42.000Z</time>
        <extensions>
          <ns3:TrackPointExtension>
            <ns3:hr>101</ns3:hr>
            <ns3:cad>0</ns3:cad>
          </ns3:TrackPointExtension>
        </extensions>
      </trkpt>
      <trkpt lat="37.98902708105742931365966796875" lon="-107.74787195026874542236328125">
        <ele>4093.199951171875</ele>
        <time>2026-08-15T15:57:46.000Z</time>
        <extensions>
          <ns3:TrackPointExtension>
            <ns3:hr>104</ns3:hr>
            <ns3:cad>0</ns3:cad>
          </ns3:TrackPointExtension>
        </extensions>
      </trkpt>
      <trkpt lat="37.98903479240834712982177734375" lon="-107.74787840433418750762939453125">
        <ele>4093.39990234375</ele>
        <time>2026-08-15T15:57:47.000Z</time>
        <extensions>
          <ns3:TrackPointExtension>
            <ns3:hr>105</ns3:hr>
            <ns3:cad>0</ns3:cad>
          </ns3:TrackPointExtension>
        </extensions>
      </trkpt>
      <trkpt lat="37.98904367722570896148681640625" lon="-107.74788376875221729278564453125">
        <ele>4093.60009765625</ele>
        <time>2026-08-15T15:57:48.000Z</time>
        <extensions>
          <ns3:TrackPointExtension>
            <ns3:hr>105</ns3:hr>
            <ns3:cad>0</ns3:cad>
          </ns3:TrackPointExtension>
        </extensions>
      </trkpt>
      <trkpt lat="37.9890615306794643402099609375" lon="-107.747876979410648345947265625">
        <ele>4094.39990234375</ele>
        <time>2026-08-15T15:57:54.000Z</time>
        <extensions>
          <ns3:TrackPointExtension>
            <ns3:hr>107</ns3:hr>
            <ns3:cad>0</ns3:cad>
          </ns3:TrackPointExtension>
        </extensions>
      </trkpt>
      <trkpt lat="37.9890601895749568939208984375" lon="-107.74787731468677520751953125">
        <ele>4094.60009765625</ele>
        <time>2026-08-15T15:57:55.000Z</time>
        <extensions>
          <ns3:TrackPointExtension>
            <ns3:hr>107</ns3:hr>
            <ns3:cad>0</ns3:cad>
          </ns3:TrackPointExtension>
        </extensions>
      </trkpt>
      <trkpt lat="37.98906463198363780975341796875" lon="-107.7478851936757564544677734375">
        <ele>4095.60009765625</ele>
        <time>2026-08-15T15:58:01.000Z</time>
        <extensions>
          <ns3:TrackPointExtension>
            <ns3:hr>108</ns3:hr>
            <ns3:cad>0</ns3:cad>
          </ns3:TrackPointExtension>
        </extensions>
      </trkpt>
      <trkpt lat="37.9890601895749568939208984375" lon="-107.74787731468677520751953125">
        <ele>4095.800048828125</ele>
        <time>2026-08-15T15:58:02.000Z</time>
        <extensions>
          <ns3:TrackPointExtension>
            <ns3:hr>108</ns3:hr>
            <ns3:cad>0</ns3:cad>
          </ns3:TrackPointExtension>
        </extensions>
      </trkpt>
      <trkpt lat="37.9890601895749568939208984375" lon="-107.74787731468677520751953125">
        <ele>4096.60009765625</ele>
        <time>2026-08-15T15:58:08.000Z</time>
        <extensions>
          <ns3:TrackPointExtension>
            <ns3:hr>108</ns3:hr>
            <ns3:cad>0</ns3:cad>
          </ns3:TrackPointExtension>
        </extensions>
      </trkpt>
      <trkpt lat="37.98907066695392131805419921875" lon="-107.74787505157291889190673828125">
        <ele>4097</ele>
        <time>2026-08-15T15:58:10.000Z</time>
        <extensions>
          <ns3:TrackPointExtension>
            <ns3:hr>109</ns3:hr>
            <ns3:cad>0</ns3:cad>
          </ns3:TrackPointExtension>
        </extensions>
      </trkpt>
      <trkpt lat="37.9890601895749568939208984375" lon="-107.74787731468677520751953125">
        <ele>4097.2001953125</ele>
        <time>2026-08-15T15:58:11.000Z</time>
        <extensions>
          <ns3:TrackPointExtension>
            <ns3:hr>109</ns3:hr>
            <ns3:cad>0</ns3:cad>
          </ns3:TrackPointExtension>
        </extensions>
      </trkpt>
      <trkpt lat="37.98907988704741001129150390625" lon="-107.7478717826306819915771484375">
        <ele>4098.2001953125</ele>
        <time>2026-08-15T15:58:17.000Z</time>
        <extensions>
          <ns3:TrackPointExtension>
            <ns3:hr>110</ns3:hr>
            <ns3:cad>0</ns3:cad>
          </ns3:TrackPointExtension>
        </extensions>
      </trkpt>
      <trkpt lat="37.989083491265773773193359375" lon="-107.7478768117725849151611328125">
        <ele>4098.60009765625</ele>
        <time>2026-08-15T15:58:19.000Z</time>
        <extensions>
          <ns3:TrackPointExtension>
            <ns3:hr>111</ns3:hr>
            <ns3:cad>0</ns3:cad>
          </ns3:TrackPointExtension>
        </extensions>
      </trkpt>
      <trkpt lat="37.989106290042400360107421875" lon="-107.74788125418126583099365234375">
        <ele>4098.7998046875</ele>
        <time>2026-08-15T15:58:25.000Z</time>
        <extensions>
          <ns3:TrackPointExtension>
            <ns3:hr>112</ns3:hr>
            <ns3:cad>0</ns3:cad>
          </ns3:TrackPointExtension>
        </extensions>
      </trkpt>
      <trkpt lat="37.989110983908176422119140625" lon="-107.747882343828678131103515625">
        <ele>4099</ele>
        <time>2026-08-15T15:58:27.000Z</time>
        <extensions>
          <ns3:TrackPointExtension>
            <ns3:hr>115</ns3:hr>
            <ns3:cad>0</ns3:cad>
          </ns3:TrackPointExtension>
        </extensions>
      </trkpt>
      <trkpt lat="37.989110983908176422119140625" lon="-107.74788259528577327728271484375">
        <ele>4099.2001953125</ele>
        <time>2026-08-15T15:58:30.000Z</time>
        <extensions>
          <ns3:TrackPointExtension>
            <ns3:hr>115</ns3:hr>
            <ns3:cad>0</ns3:cad>
          </ns3:TrackPointExtension>
        </extensions>
      </trkpt>
      <trkpt lat="37.989110983908176422119140625" lon="-107.74788259528577327728271484375">
        <ele>4100.2001953125</ele>
        <time>2026-08-15T15:58:35.000Z</time>
        <extensions>
          <ns3:TrackPointExtension>
            <ns3:hr>117</ns3:hr>
            <ns3:cad>0</ns3:cad>
          </ns3:TrackPointExtension>
        </extensions>
      </trkpt>
      <trkpt lat="37.989110983908176422119140625" lon="-107.74788259528577327728271484375">
        <ele>4100.39990234375</ele>
        <time>2026-08-15T15:58:36.000Z</time>
        <extensions>
          <ns3:TrackPointExtension>
            <ns3:hr>119</ns3:hr>
            <ns3:cad>0</ns3:cad>
          </ns3:TrackPointExtension>
        </extensions>
      </trkpt>
      <trkpt lat="37.989110983908176422119140625" lon="-107.74788259528577327728271484375">
        <ele>4100.7998046875</ele>
        <time>2026-08-15T15:58:41.000Z</time>
        <extensions>
          <ns3:TrackPointExtension>
            <ns3:hr>121</ns3:hr>
            <ns3:cad>0</ns3:cad>
          </ns3:TrackPointExtension>
        </extensions>
      </trkpt>
      <trkpt lat="37.989110983908176422119140625" lon="-107.74788259528577327728271484375">
        <ele>4100.60009765625</ele>
        <time>2026-08-15T15:58:46.000Z</time>
        <extensions>
          <ns3:TrackPointExtension>
            <ns3:hr>118</ns3:hr>
            <ns3:cad>0</ns3:cad>
          </ns3:TrackPointExtension>
        </extensions>
      </trkpt>
      <trkpt lat="37.989110983908176422119140625" lon="-107.74788259528577327728271484375">
        <ele>4100.60009765625</ele>
        <time>2026-08-15T15:58:48.000Z</time>
        <extensions>
          <ns3:TrackPointExtension>
            <ns3:hr>115</ns3:hr>
            <ns3:cad>0</ns3:cad>
          </ns3:TrackPointExtension>
        </extensions>
      </trkpt>
      <trkpt lat="37.98910805024206638336181640625" lon="-107.7479036338627338409423828125">
        <ele>4100.7998046875</ele>
        <time>2026-08-15T15:58:50.000Z</time>
        <extensions>
          <ns3:TrackPointExtension>
            <ns3:hr>113</ns3:hr>
            <ns3:cad>0</ns3:cad>
          </ns3:TrackPointExtension>
        </extensions>
      </trkpt>
      <trkpt lat="37.98911106772720813751220703125" lon="-107.74791930802166461944580078125">
        <ele>4101.60009765625</ele>
        <time>2026-08-15T15:58:52.000Z</time>
        <extensions>
          <ns3:TrackPointExtension>
            <ns3:hr>112</ns3:hr>
            <ns3:cad>0</ns3:cad>
          </ns3:TrackPointExtension>
        </extensions>
      </trkpt>
      <trkpt lat="37.98911157064139842987060546875" lon="-107.74792215786874294281005859375">
        <ele>4102.60009765625</ele>
        <time>2026-08-15T15:58:54.000Z</time>
        <extensions>
          <ns3:TrackPointExtension>
            <ns3:hr>112</ns3:hr>
            <ns3:cad>0</ns3:cad>
          </ns3:TrackPointExtension>
        </extensions>
      </trkpt>
      <trkpt lat="37.9891155101358890533447265625" lon="-107.74792584590613842010498046875">
        <ele>4103</ele>
        <time>2026-08-15T15:58:55.000Z</time>
        <extensions>
          <ns3:TrackPointExtension>
            <ns3:hr>112</ns3:hr>
            <ns3:cad>0</ns3:cad>
          </ns3:TrackPointExtension>
        </extensions>
      </trkpt>
      <trkpt lat="37.98911542631685733795166015625" lon="-107.747923918068408966064453125">
        <ele>4103.60009765625</ele>
        <time>2026-08-15T15:58:59.000Z</time>
        <extensions>
          <ns3:TrackPointExtension>
            <ns3:hr>113</ns3:hr>
            <ns3:cad>0</ns3:cad>
          </ns3:TrackPointExtension>
        </extensions>
      </trkpt>
      <trkpt lat="37.98911827616393566131591796875" lon="-107.74792484007775783538818359375">
        <ele>4104</ele>
        <time>2026-08-15T15:59:01.000Z</time>
        <extensions>
          <ns3:TrackPointExtension>
            <ns3:hr>113</ns3:hr>
            <ns3:cad>0</ns3:cad>
          </ns3:TrackPointExtension>
        </extensions>
      </trkpt>
      <trkpt lat="37.98911542631685733795166015625" lon="-107.747923918068408966064453125">
        <ele>4104.39990234375</ele>
        <time>2026-08-15T15:59:06.000Z</time>
        <extensions>
          <ns3:TrackPointExtension>
            <ns3:hr>115</ns3:hr>
            <ns3:cad>0</ns3:cad>
          </ns3:TrackPointExtension>
        </extensions>
      </trkpt>
      <trkpt lat="37.989123053848743438720703125" lon="-107.747925259172916412353515625">
        <ele>4104.60009765625</ele>
        <time>2026-08-15T15:59:09.000Z</time>
        <extensions>
          <ns3:TrackPointExtension>
            <ns3:hr>115</ns3:hr>
            <ns3:cad>0</ns3:cad>
          </ns3:TrackPointExtension>
        </extensions>
      </trkpt>
      <trkpt lat="37.9891322739422321319580078125" lon="-107.74793573655188083648681640625">
        <ele>4105.2001953125</ele>
        <time>2026-08-15T15:59:11.000Z</time>
        <extensions>
          <ns3:TrackPointExtension>
            <ns3:hr>115</ns3:hr>
            <ns3:cad>0</ns3:cad>
          </ns3:TrackPointExtension>
        </extensions>
      </trkpt>
      <trkpt lat="37.98913872800767421722412109375" lon="-107.7479302883148193359375">
        <ele>4105.7998046875</ele>
        <time>2026-08-15T15:59:13.000Z</time>
        <extensions>
          <ns3:TrackPointExtension>
            <ns3:hr>114</ns3:hr>
            <ns3:cad>0</ns3:cad>
          </ns3:TrackPointExtension>
        </extensions>
      </trkpt>
      <trkpt lat="37.98913822509348392486572265625" lon="-107.74792953394353389739990234375">
        <ele>4106.60009765625</ele>
        <time>2026-08-15T15:59:17.000Z</time>
        <extensions>
          <ns3:TrackPointExtension>
            <ns3:hr>114</ns3:hr>
            <ns3:cad>0</ns3:cad>
          </ns3:TrackPointExtension>
        </extensions>
      </trkpt>
      <trkpt lat="37.989139147102832794189453125" lon="-107.74793053977191448211669921875">
        <ele>4107</ele>
        <time>2026-08-15T15:59:21.000Z</time>
        <extensions>
          <ns3:TrackPointExtension>
            <ns3:hr>112</ns3:hr>
            <ns3:cad>0</ns3:cad>
          </ns3:TrackPointExtension>
        </extensions>
      </trkpt>
      <trkpt lat="37.9891513846814632415771484375" lon="-107.7479317970573902130126953125">
        <ele>4108</ele>
        <time>2026-08-15T15:59:25.000Z</time>
        <extensions>
          <ns3:TrackPointExtension>
            <ns3:hr>110</ns3:hr>
            <ns3:cad>0</ns3:cad>
          </ns3:TrackPointExtension>
        </extensions>
      </trkpt>
      <trkpt lat="37.989153563976287841796875" lon="-107.7479301206767559051513671875">
        <ele>4108.2001953125</ele>
        <time>2026-08-15T15:59:26.000Z</time>
        <extensions>
          <ns3:TrackPointExtension>
            <ns3:hr>109</ns3:hr>
            <ns3:cad>0</ns3:cad>
          </ns3:TrackPointExtension>
        </extensions>
      </trkpt>
      <trkpt lat="37.9891533963382244110107421875" lon="-107.74793892167508602142333984375">
        <ele>4109</ele>
        <time>2026-08-15T15:59:30.000Z</time>
        <extensions>
          <ns3:TrackPointExtension>
            <ns3:hr>109</ns3:hr>
            <ns3:cad>0</ns3:cad>
          </ns3:TrackPointExtension>
        </extensions>
      </trkpt>
      <trkpt lat="37.989153228700160980224609375" lon="-107.74794562719762325286865234375">
        <ele>4109.39990234375</ele>
        <time>2026-08-15T15:59:32.000Z</time>
        <extensions>
          <ns3:TrackPointExtension>
            <ns3:hr>110</ns3:hr>
            <ns3:cad>0</ns3:cad>
          </ns3:TrackPointExtension>
        </extensions>
      </trkpt>
      <trkpt lat="37.98914895392954349517822265625" lon="-107.74797764606773853302001953125">
        <ele>4109.7998046875</ele>
        <time>2026-08-15T15:59:37.000Z</time>
        <extensions>
          <ns3:TrackPointExtension>
            <ns3:hr>108</ns3:hr>
            <ns3:cad>0</ns3:cad>
          </ns3:TrackPointExtension>
        </extensions>
      </trkpt>
      <trkpt lat="37.98914945684373378753662109375" lon="-107.74797915481030941009521484375">
        <ele>4110</ele>
        <time>2026-08-15T15:59:40.000Z</time>
        <extensions>
          <ns3:TrackPointExtension>
            <ns3:hr>106</ns3:hr>
            <ns3:cad>0</ns3:cad>
          </ns3:TrackPointExtension>
        </extensions>
      </trkpt>
      <trkpt lat="37.98915029503405094146728515625" lon="-107.74798066355288028717041015625">
        <ele>4111</ele>
        <time>2026-08-15T15:59:45.000Z</time>
        <extensions>
          <ns3:TrackPointExtension>
            <ns3:hr>107</ns3:hr>
            <ns3:cad>0</ns3:cad>
          </ns3:TrackPointExtension>
        </extensions>
      </trkpt>
      <trkpt lat="37.98914945684373378753662109375" lon="-107.74797915481030941009521484375">
        <ele>4111.7998046875</ele>
        <time>2026-08-15T15:59:50.000Z</time>
        <extensions>
          <ns3:TrackPointExtension>
            <ns3:hr>107</ns3:hr>
            <ns3:cad>0</ns3:cad>
          </ns3:TrackPointExtension>
        </extensions>
      </trkpt>
      <trkpt lat="37.98914191313087940216064453125" lon="-107.74799390695989131927490234375">
        <ele>4112.2001953125</ele>
        <time>2026-08-15T15:59:52.000Z</time>
        <extensions>
          <ns3:TrackPointExtension>
            <ns3:hr>106</ns3:hr>
            <ns3:cad>0</ns3:cad>
          </ns3:TrackPointExtension>
        </extensions>
      </trkpt>
      <trkpt lat="37.98914073966443538665771484375" lon="-107.74799440987408161163330078125">
        <ele>4113</ele>
        <time>2026-08-15T15:59:57.000Z</time>
        <extensions>
          <ns3:TrackPointExtension>
            <ns3:hr>106</ns3:hr>
            <ns3:cad>73</ns3:cad>
          </ns3:TrackPointExtension>
        </extensions>
      </trkpt>
      <trkpt lat="37.98911693505942821502685546875" lon="-107.74801821447908878326416015625">
        <ele>4113.39990234375</ele>
        <time>2026-08-15T16:00:00.000Z</time>
        <extensions>
          <ns3:TrackPointExtension>
            <ns3:hr>106</ns3:hr>
            <ns3:cad>0</ns3:cad>
          </ns3:TrackPointExtension>
        </extensions>
      </trkpt>
      <trkpt lat="37.989104948937892913818359375" lon="-107.748017795383930206298828125">
        <ele>4114</ele>
        <time>2026-08-15T16:00:03.000Z</time>
        <extensions>
          <ns3:TrackPointExtension>
            <ns3:hr>104</ns3:hr>
            <ns3:cad>0</ns3:cad>
          </ns3:TrackPointExtension>
        </extensions>
      </trkpt>
      <trkpt lat="37.98906840384006500244140625" lon="-107.74805744178593158721923828125">
        <ele>4114.39990234375</ele>
        <time>2026-08-15T16:00:08.000Z</time>
        <extensions>
          <ns3:TrackPointExtension>
            <ns3:hr>104</ns3:hr>
            <ns3:cad>48</ns3:cad>
          </ns3:TrackPointExtension>
        </extensions>
      </trkpt>
      <trkpt lat="37.9890655539929866790771484375" lon="-107.74806817062199115753173828125">
        <ele>4114.39990234375</ele>
        <time>2026-08-15T16:00:09.000Z</time>
        <extensions>
          <ns3:TrackPointExtension>
            <ns3:hr>104</ns3:hr>
            <ns3:cad>44</ns3:cad>
          </ns3:TrackPointExtension>
        </extensions>
      </trkpt>
      <trkpt lat="37.9890689067542552947998046875" lon="-107.74808459915220737457275390625">
        <ele>4114.60009765625</ele>
        <time>2026-08-15T16:00:11.000Z</time>
        <extensions>
          <ns3:TrackPointExtension>
            <ns3:hr>105</ns3:hr>
            <ns3:cad>57</ns3:cad>
          </ns3:TrackPointExtension>
        </extensions>
      </trkpt>
      <trkpt lat="37.98907083459198474884033203125" lon="-107.74808652698993682861328125">
        <ele>4115</ele>
        <time>2026-08-15T16:00:13.000Z</time>
        <extensions>
          <ns3:TrackPointExtension>
            <ns3:hr>105</ns3:hr>
            <ns3:cad>0</ns3:cad>
          </ns3:TrackPointExtension>
        </extensions>
      </trkpt>
      <trkpt lat="37.98907913267612457275390625" lon="-107.74809163995087146759033203125">
        <ele>4115.60009765625</ele>
        <time>2026-08-15T16:00:15.000Z</time>
        <extensions>
          <ns3:TrackPointExtension>
            <ns3:hr>106</ns3:hr>
            <ns3:cad>0</ns3:cad>
          </ns3:TrackPointExtension>
        </extensions>
      </trkpt>
      <trkpt lat="37.98908944241702556610107421875" lon="-107.7480977587401866912841796875">
        <ele>4115.60009765625</ele>
        <time>2026-08-15T16:00:17.000Z</time>
        <extensions>
          <ns3:TrackPointExtension>
            <ns3:hr>109</ns3:hr>
            <ns3:cad>0</ns3:cad>
          </ns3:TrackPointExtension>
        </extensions>
      </trkpt>
      <trkpt lat="37.9890990816056728363037109375" lon="-107.74810588918626308441162109375">
        <ele>4115.39990234375</ele>
        <time>2026-08-15T16:00:20.000Z</time>
        <extensions>
          <ns3:TrackPointExtension>
            <ns3:hr>112</ns3:hr>
            <ns3:cad>0</ns3:cad>
          </ns3:TrackPointExtension>
        </extensions>
      </trkpt>
      <trkpt lat="37.9891039431095123291015625" lon="-107.74811066687107086181640625">
        <ele>4115.7998046875</ele>
        <time>2026-08-15T16:00:22.000Z</time>
        <extensions>
          <ns3:TrackPointExtension>
            <ns3:hr>114</ns3:hr>
            <ns3:cad>0</ns3:cad>
          </ns3:TrackPointExtension>
        </extensions>
      </trkpt>
      <trkpt lat="37.9891161806881427764892578125" lon="-107.7481104992330074310302734375">
        <ele>4116.60009765625</ele>
        <time>2026-08-15T16:00:25.000Z</time>
        <extensions>
          <ns3:TrackPointExtension>
            <ns3:hr>115</ns3:hr>
            <ns3:cad>0</ns3:cad>
          </ns3:TrackPointExtension>
        </extensions>
      </trkpt>
      <trkpt lat="37.9891155101358890533447265625" lon="-107.74811066687107086181640625">
        <ele>4117.2001953125</ele>
        <time>2026-08-15T16:00:28.000Z</time>
        <extensions>
          <ns3:TrackPointExtension>
            <ns3:hr>116</ns3:hr>
            <ns3:cad>0</ns3:cad>
          </ns3:TrackPointExtension>
        </extensions>
      </trkpt>
      <trkpt lat="37.98911592923104763031005859375" lon="-107.7481145225465297698974609375">
        <ele>4117.7998046875</ele>
        <time>2026-08-15T16:00:32.000Z</time>
        <extensions>
          <ns3:TrackPointExtension>
            <ns3:hr>115</ns3:hr>
            <ns3:cad>0</ns3:cad>
          </ns3:TrackPointExtension>
        </extensions>
      </trkpt>
      <trkpt lat="37.98912699334323406219482421875" lon="-107.74811946786940097808837890625">
        <ele>4118</ele>
        <time>2026-08-15T16:00:33.000Z</time>
        <extensions>
          <ns3:TrackPointExtension>
            <ns3:hr>115</ns3:hr>
            <ns3:cad>0</ns3:cad>
          </ns3:TrackPointExtension>
        </extensions>
      </trkpt>
      <trkpt lat="37.9891238920390605926513671875" lon="-107.74813572876155376434326171875">
        <ele>4118.7998046875</ele>
        <time>2026-08-15T16:00:36.000Z</time>
        <extensions>
          <ns3:TrackPointExtension>
            <ns3:hr>115</ns3:hr>
            <ns3:cad>0</ns3:cad>
          </ns3:TrackPointExtension>
        </extensions>
      </trkpt>
      <trkpt lat="37.98912598751485347747802734375" lon="-107.74813975207507610321044921875">
        <ele>4119</ele>
        <time>2026-08-15T16:00:37.000Z</time>
        <extensions>
          <ns3:TrackPointExtension>
            <ns3:hr>115</ns3:hr>
            <ns3:cad>0</ns3:cad>
          </ns3:TrackPointExtension>
        </extensions>
      </trkpt>
      <trkpt lat="37.9891254007816314697265625" lon="-107.748150564730167388916015625">
        <ele>4118.39990234375</ele>
        <time>2026-08-15T16:00:43.000Z</time>
        <extensions>
          <ns3:TrackPointExtension>
            <ns3:hr>113</ns3:hr>
            <ns3:cad>0</ns3:cad>
          </ns3:TrackPointExtension>
        </extensions>
      </trkpt>
      <trkpt lat="37.98912263475358486175537109375" lon="-107.748145200312137603759765625">
        <ele>4118.39990234375</ele>
        <time>2026-08-15T16:00:45.000Z</time>
        <extensions>
          <ns3:TrackPointExtension>
            <ns3:hr>114</ns3:hr>
            <ns3:cad>0</ns3:cad>
          </ns3:TrackPointExtension>
        </extensions>
      </trkpt>
      <trkpt lat="37.98914107494056224822998046875" lon="-107.748125754296779632568359375">
        <ele>4119</ele>
        <time>2026-08-15T16:00:51.000Z</time>
        <extensions>
          <ns3:TrackPointExtension>
            <ns3:hr>114</ns3:hr>
            <ns3:cad>0</ns3:cad>
          </ns3:TrackPointExtension>
        </extensions>
      </trkpt>
      <trkpt lat="37.98914350569248199462890625" lon="-107.74812198244035243988037109375">
        <ele>4119.2001953125</ele>
        <time>2026-08-15T16:00:52.000Z</time>
        <extensions>
          <ns3:TrackPointExtension>
            <ns3:hr>114</ns3:hr>
            <ns3:cad>0</ns3:cad>
          </ns3:TrackPointExtension>
        </extensions>
      </trkpt>
      <trkpt lat="37.989162616431713104248046875" lon="-107.7481004409492015838623046875">
        <ele>4119.2001953125</ele>
        <time>2026-08-15T16:00:57.000Z</time>
        <extensions>
          <ns3:TrackPointExtension>
            <ns3:hr>111</ns3:hr>
            <ns3:cad>0</ns3:cad>
          </ns3:TrackPointExtension>
        </extensions>
      </trkpt>
      <trkpt lat="37.9891668073832988739013671875" lon="-107.74809717200696468353271484375">
        <ele>4119.2001953125</ele>
        <time>2026-08-15T16:00:58.000Z</time>
        <extensions>
          <ns3:TrackPointExtension>
            <ns3:hr>111</ns3:hr>
            <ns3:cad>0</ns3:cad>
          </ns3:TrackPointExtension>
        </extensions>
      </trkpt>
      <trkpt lat="37.98919555731117725372314453125" lon="-107.74807655252516269683837890625">
        <ele>4118</ele>
        <time>2026-08-15T16:01:04.000Z</time>
        <extensions>
          <ns3:TrackPointExtension>
            <ns3:hr>108</ns3:hr>
            <ns3:cad>0</ns3:cad>
          </ns3:TrackPointExtension>
        </extensions>
      </trkpt>
      <trkpt lat="37.98919991590082645416259765625" lon="-107.748075462877750396728515625">
        <ele>4118</ele>
        <time>2026-08-15T16:01:05.000Z</time>
        <extensions>
          <ns3:TrackPointExtension>
            <ns3:hr>106</ns3:hr>
            <ns3:cad>0</ns3:cad>
          </ns3:TrackPointExtension>
        </extensions>
      </trkpt>
      <trkpt lat="37.98923830501735210418701171875" lon="-107.74805492721498012542724609375">
        <ele>4119.39990234375</ele>
        <time>2026-08-15T16:01:11.000Z</time>
        <extensions>
          <ns3:TrackPointExtension>
            <ns3:hr>103</ns3:hr>
            <ns3:cad>0</ns3:cad>
          </ns3:TrackPointExtension>
        </extensions>
      </trkpt>
      <trkpt lat="37.9892519675195217132568359375" lon="-107.7480447851121425628662109375">
        <ele>4120</ele>
        <time>2026-08-15T16:01:13.000Z</time>
        <extensions>
          <ns3:TrackPointExtension>
            <ns3:hr>105</ns3:hr>
            <ns3:cad>0</ns3:cad>
          </ns3:TrackPointExtension>
        </extensions>
      </trkpt>
      <trkpt lat="37.98925406299531459808349609375" lon="-107.7480255067348480224609375">
        <ele>4120.60009765625</ele>
        <time>2026-08-15T16:01:16.000Z</time>
        <extensions>
          <ns3:TrackPointExtension>
            <ns3:hr>108</ns3:hr>
            <ns3:cad>0</ns3:cad>
          </ns3:TrackPointExtension>
        </extensions>
      </trkpt>
      <trkpt lat="37.9892553202807903289794921875" lon="-107.7480236627161502838134765625">
        <ele>4120.60009765625</ele>
        <time>2026-08-15T16:01:17.000Z</time>
        <extensions>
          <ns3:TrackPointExtension>
            <ns3:hr>110</ns3:hr>
            <ns3:cad>0</ns3:cad>
          </ns3:TrackPointExtension>
        </extensions>
      </trkpt>
      <trkpt lat="37.98925993032753467559814453125" lon="-107.7480119280517101287841796875">
        <ele>4121</ele>
        <time>2026-08-15T16:01:20.000Z</time>
        <extensions>
          <ns3:TrackPointExtension>
            <ns3:hr>112</ns3:hr>
            <ns3:cad>0</ns3:cad>
          </ns3:TrackPointExtension>
        </extensions>
      </trkpt>
      <trkpt lat="37.9892653785645961761474609375" lon="-107.74799357168376445770263671875">
        <ele>4122</ele>
        <time>2026-08-15T16:01:24.000Z</time>
        <extensions>
          <ns3:TrackPointExtension>
            <ns3:hr>113</ns3:hr>
            <ns3:cad>0</ns3:cad>
          </ns3:TrackPointExtension>
        </extensions>
      </trkpt>
      <trkpt lat="37.98926194198429584503173828125" lon="-107.7479871176183223724365234375">
        <ele>4122</ele>
        <time>2026-08-15T16:01:27.000Z</time>
        <extensions>
          <ns3:TrackPointExtension>
            <ns3:hr>117</ns3:hr>
            <ns3:cad>0</ns3:cad>
          </ns3:TrackPointExtension>
        </extensions>
      </trkpt>
      <trkpt lat="37.98927753232419490814208984375" lon="-107.7479884587228298187255859375">
        <ele>4122.2001953125</ele>
        <time>2026-08-15T16:01:28.000Z</time>
        <extensions>
          <ns3:TrackPointExtension>
            <ns3:hr>118</ns3:hr>
            <ns3:cad>0</ns3:cad>
          </ns3:TrackPointExtension>
        </extensions>
      </trkpt>
      <trkpt lat="37.98927417956292629241943359375" lon="-107.74798133410513401031494140625">
        <ele>4122.60009765625</ele>
        <time>2026-08-15T16:01:30.000Z</time>
        <extensions>
          <ns3:TrackPointExtension>
            <ns3:hr>119</ns3:hr>
            <ns3:cad>0</ns3:cad>
          </ns3:TrackPointExtension>
        </extensions>
      </trkpt>
      <trkpt lat="37.98927417956292629241943359375" lon="-107.74797496385872364044189453125">
        <ele>4123.2001953125</ele>
        <time>2026-08-15T16:01:32.000Z</time>
        <extensions>
          <ns3:TrackPointExtension>
            <ns3:hr>119</ns3:hr>
            <ns3:cad>0</ns3:cad>
          </ns3:TrackPointExtension>
        </extensions>
      </trkpt>
      <trkpt lat="37.9892868362367153167724609375" lon="-107.74797379039227962493896484375">
        <ele>4124.2001953125</ele>
        <time>2026-08-15T16:01:36.000Z</time>
        <extensions>
          <ns3:TrackPointExtension>
            <ns3:hr>118</ns3:hr>
            <ns3:cad>0</ns3:cad>
          </ns3:TrackPointExtension>
        </extensions>
      </trkpt>
      <trkpt lat="37.98930309712886810302734375" lon="-107.74797295220196247100830078125">
        <ele>4125</ele>
        <time>2026-08-15T16:01:39.000Z</time>
        <extensions>
          <ns3:TrackPointExtension>
            <ns3:hr>123</ns3:hr>
            <ns3:cad>0</ns3:cad>
          </ns3:TrackPointExtension>
        </extensions>
      </trkpt>
      <trkpt lat="37.9893056116998195648193359375" lon="-107.74797094054520130157470703125">
        <ele>4125.2001953125</ele>
        <time>2026-08-15T16:01:40.000Z</time>
        <extensions>
          <ns3:TrackPointExtension>
            <ns3:hr>124</ns3:hr>
            <ns3:cad>0</ns3:cad>
          </ns3:TrackPointExtension>
        </extensions>
      </trkpt>
      <trkpt lat="37.98930569551885128021240234375" lon="-107.747970186173915863037109375">
        <ele>4125.2001953125</ele>
        <time>2026-08-15T16:01:41.000Z</time>
        <extensions>
          <ns3:TrackPointExtension>
            <ns3:hr>124</ns3:hr>
            <ns3:cad>0</ns3:cad>
          </ns3:TrackPointExtension>
        </extensions>
      </trkpt>
      <trkpt lat="37.9893099702894687652587890625" lon="-107.7479686774313449859619140625">
        <ele>4126</ele>
        <time>2026-08-15T16:01:45.000Z</time>
        <extensions>
          <ns3:TrackPointExtension>
            <ns3:hr>124</ns3:hr>
            <ns3:cad>0</ns3:cad>
          </ns3:TrackPointExtension>
        </extensions>
      </trkpt>
      <trkpt lat="37.989311479032039642333984375" lon="-107.74797949008643627166748046875">
        <ele>4126.39990234375</ele>
        <time>2026-08-15T16:01:48.000Z</time>
        <extensions>
          <ns3:TrackPointExtension>
            <ns3:hr>124</ns3:hr>
            <ns3:cad>0</ns3:cad>
          </ns3:TrackPointExtension>
        </extensions>
      </trkpt>
      <trkpt lat="37.98931575380265712738037109375" lon="-107.74798518978059291839599609375">
        <ele>4127.2001953125</ele>
        <time>2026-08-15T16:01:52.000Z</time>
        <extensions>
          <ns3:TrackPointExtension>
            <ns3:hr>119</ns3:hr>
            <ns3:cad>0</ns3:cad>
          </ns3:TrackPointExtension>
        </extensions>
      </trkpt>
      <trkpt lat="37.98931726254522800445556640625" lon="-107.747985608875751495361328125">
        <ele>4127.39990234375</ele>
        <time>2026-08-15T16:01:53.000Z</time>
        <extensions>
          <ns3:TrackPointExtension>
            <ns3:hr>116</ns3:hr>
            <ns3:cad>0</ns3:cad>
          </ns3:TrackPointExtension>
        </extensions>
      </trkpt>
      <trkpt lat="37.98931960947811603546142578125" lon="-107.7479871176183223724365234375">
        <ele>4127.60009765625</ele>
        <time>2026-08-15T16:01:54.000Z</time>
        <extensions>
          <ns3:TrackPointExtension>
            <ns3:hr>116</ns3:hr>
            <ns3:cad>0</ns3:cad>
          </ns3:TrackPointExtension>
        </extensions>
      </trkpt>
      <trkpt lat="37.98934467136859893798828125" lon="-107.74796725250780582427978515625">
        <ele>4126.60009765625</ele>
        <time>2026-08-15T16:01:59.000Z</time>
        <extensions>
          <ns3:TrackPointExtension>
            <ns3:hr>115</ns3:hr>
            <ns3:cad>0</ns3:cad>
          </ns3:TrackPointExtension>
        </extensions>
      </trkpt>
      <trkpt lat="37.989373505115509033203125" lon="-107.74794562719762325286865234375">
        <ele>4127.60009765625</ele>
        <time>2026-08-15T16:02:05.000Z</time>
        <extensions>
          <ns3:TrackPointExtension>
            <ns3:hr>115</ns3:hr>
            <ns3:cad>0</ns3:cad>
          </ns3:TrackPointExtension>
        </extensions>
      </trkpt>
      <trkpt lat="37.98938280902802944183349609375" lon="-107.74794436991214752197265625">
        <ele>4127</ele>
        <time>2026-08-15T16:02:11.000Z</time>
        <extensions>
          <ns3:TrackPointExtension>
            <ns3:hr>113</ns3:hr>
            <ns3:cad>0</ns3:cad>
          </ns3:TrackPointExtension>
        </extensions>
      </trkpt>
      <trkpt lat="37.98939286731183528900146484375" lon="-107.7479341439902782440185546875">
        <ele>4127</ele>
        <time>2026-08-15T16:02:14.000Z</time>
        <extensions>
          <ns3:TrackPointExtension>
            <ns3:hr>112</ns3:hr>
            <ns3:cad>0</ns3:cad>
          </ns3:TrackPointExtension>
        </extensions>
      </trkpt>
      <trkpt lat="37.989406026899814605712890625" lon="-107.74792492389678955078125">
        <ele>4128.2001953125</ele>
        <time>2026-08-15T16:02:19.000Z</time>
        <extensions>
          <ns3:TrackPointExtension>
            <ns3:hr>111</ns3:hr>
            <ns3:cad>0</ns3:cad>
          </ns3:TrackPointExtension>
        </extensions>
      </trkpt>
      <trkpt lat="37.9894179292023181915283203125" lon="-107.74791218340396881103515625">
        <ele>4128.2001953125</ele>
        <time>2026-08-15T16:02:25.000Z</time>
        <extensions>
          <ns3:TrackPointExtension>
            <ns3:hr>112</ns3:hr>
            <ns3:cad>0</ns3:cad>
          </ns3:TrackPointExtension>
        </extensions>
      </trkpt>
      <trkpt lat="37.9894202761352062225341796875" lon="-107.7479103393852710723876953125">
        <ele>4128.60009765625</ele>
        <time>2026-08-15T16:02:28.000Z</time>
        <extensions>
          <ns3:TrackPointExtension>
            <ns3:hr>111</ns3:hr>
            <ns3:cad>0</ns3:cad>
          </ns3:TrackPointExtension>
        </extensions>
      </trkpt>
      <trkpt lat="37.989421784877777099609375" lon="-107.74791327305138111114501953125">
        <ele>4128.7998046875</ele>
        <time>2026-08-15T16:02:30.000Z</time>
        <extensions>
          <ns3:TrackPointExtension>
            <ns3:hr>108</ns3:hr>
            <ns3:cad>0</ns3:cad>
          </ns3:TrackPointExtension>
        </extensions>
      </trkpt>
      <trkpt lat="37.9894390515983104705810546875" lon="-107.7479110099375247955322265625">
        <ele>4129.2001953125</ele>
        <time>2026-08-15T16:02:34.000Z</time>
        <extensions>
          <ns3:TrackPointExtension>
            <ns3:hr>108</ns3:hr>
            <ns3:cad>42</ns3:cad>
          </ns3:TrackPointExtension>
        </extensions>
      </trkpt>
      <trkpt lat="37.98943980596959590911865234375" lon="-107.74790891446173191070556640625">
        <ele>4129.60009765625</ele>
        <time>2026-08-15T16:02:35.000Z</time>
        <extensions>
          <ns3:TrackPointExtension>
            <ns3:hr>108</ns3:hr>
            <ns3:cad>42</ns3:cad>
          </ns3:TrackPointExtension>
        </extensions>
      </trkpt>
      <trkpt lat="37.989449612796306610107421875" lon="-107.747910507023334503173828125">
        <ele>4130.7998046875</ele>
        <time>2026-08-15T16:02:38.000Z</time>
        <extensions>
          <ns3:TrackPointExtension>
            <ns3:hr>108</ns3:hr>
            <ns3:cad>42</ns3:cad>
          </ns3:TrackPointExtension>
        </extensions>
      </trkpt>
      <trkpt lat="37.98945321701467037200927734375" lon="-107.74791796691715717315673828125">
        <ele>4131.2001953125</ele>
        <time>2026-08-15T16:02:40.000Z</time>
        <extensions>
          <ns3:TrackPointExtension>
            <ns3:hr>107</ns3:hr>
            <ns3:cad>0</ns3:cad>
          </ns3:TrackPointExtension>
        </extensions>
      </trkpt>
      <trkpt lat="37.98944517038762569427490234375" lon="-107.7479224093258380889892578125">
        <ele>4132</ele>
        <time>2026-08-15T16:02:45.000Z</time>
        <extensions>
          <ns3:TrackPointExtension>
            <ns3:hr>108</ns3:hr>
            <ns3:cad>0</ns3:cad>
          </ns3:TrackPointExtension>
        </extensions>
      </trkpt>
      <trkpt lat="37.98944232054054737091064453125" lon="-107.74793573655188083648681640625">
        <ele>4132</ele>
        <time>2026-08-15T16:02:48.000Z</time>
        <extensions>
          <ns3:TrackPointExtension>
            <ns3:hr>110</ns3:hr>
            <ns3:cad>0</ns3:cad>
          </ns3:TrackPointExtension>
        </extensions>
      </trkpt>
      <trkpt lat="37.98945405520498752593994140625" lon="-107.74794613011181354522705078125">
        <ele>4132.39990234375</ele>
        <time>2026-08-15T16:02:51.000Z</time>
        <extensions>
          <ns3:TrackPointExtension>
            <ns3:hr>113</ns3:hr>
            <ns3:cad>0</ns3:cad>
          </ns3:TrackPointExtension>
        </extensions>
      </trkpt>
      <trkpt lat="37.98946243710815906524658203125" lon="-107.7479552663862705230712890625">
        <ele>4133.2001953125</ele>
        <time>2026-08-15T16:02:54.000Z</time>
        <extensions>
          <ns3:TrackPointExtension>
            <ns3:hr>116</ns3:hr>
            <ns3:cad>0</ns3:cad>
          </ns3:TrackPointExtension>
        </extensions>
      </trkpt>
      <trkpt lat="37.98948121257126331329345703125" lon="-107.747970856726169586181640625">
        <ele>4134</ele>
        <time>2026-08-15T16:03:00.000Z</time>
        <extensions>
          <ns3:TrackPointExtension>
            <ns3:hr>118</ns3:hr>
            <ns3:cad>51</ns3:cad>
          </ns3:TrackPointExtension>
        </extensions>
      </trkpt>
      <trkpt lat="37.98948506824672222137451171875" lon="-107.74797655642032623291015625">
        <ele>4134.2001953125</ele>
        <time>2026-08-15T16:03:01.000Z</time>
        <extensions>
          <ns3:TrackPointExtension>
            <ns3:hr>118</ns3:hr>
            <ns3:cad>0</ns3:cad>
          </ns3:TrackPointExtension>
        </extensions>
      </trkpt>
      <trkpt lat="37.9895077832043170928955078125" lon="-107.74798703379929065704345703125">
        <ele>4135.60009765625</ele>
        <time>2026-08-15T16:03:07.000Z</time>
        <extensions>
          <ns3:TrackPointExtension>
            <ns3:hr>118</ns3:hr>
            <ns3:cad>0</ns3:cad>
          </ns3:TrackPointExtension>
        </extensions>
      </trkpt>
      <trkpt lat="37.98951339907944202423095703125" lon="-107.74799139238893985748291015625">
        <ele>4135.7998046875</ele>
        <time>2026-08-15T16:03:08.000Z</time>
        <extensions>
          <ns3:TrackPointExtension>
            <ns3:hr>118</ns3:hr>
            <ns3:cad>0</ns3:cad>
          </ns3:TrackPointExtension>
        </extensions>
      </trkpt>
      <trkpt lat="37.98952211625874042510986328125" lon="-107.7480011992156505584716796875">
        <ele>4136.60009765625</ele>
        <time>2026-08-15T16:03:12.000Z</time>
        <extensions>
          <ns3:TrackPointExtension>
            <ns3:hr>117</ns3:hr>
            <ns3:cad>0</ns3:cad>
          </ns3:TrackPointExtension>
        </extensions>
      </trkpt>
      <trkpt lat="37.98952412791550159454345703125" lon="-107.7480025403201580047607421875">
        <ele>4136.7998046875</ele>
        <time>2026-08-15T16:03:13.000Z</time>
        <extensions>
          <ns3:TrackPointExtension>
            <ns3:hr>117</ns3:hr>
            <ns3:cad>0</ns3:cad>
          </ns3:TrackPointExtension>
        </extensions>
      </trkpt>
      <trkpt lat="37.98952706158161163330078125" lon="-107.7480042167007923126220703125">
        <ele>4137.60009765625</ele>
        <time>2026-08-15T16:03:19.000Z</time>
        <extensions>
          <ns3:TrackPointExtension>
            <ns3:hr>118</ns3:hr>
            <ns3:cad>0</ns3:cad>
          </ns3:TrackPointExtension>
        </extensions>
      </trkpt>
      <trkpt lat="37.9895302467048168182373046875" lon="-107.7480099163949489593505859375">
        <ele>4137.7998046875</ele>
        <time>2026-08-15T16:03:20.000Z</time>
        <extensions>
          <ns3:TrackPointExtension>
            <ns3:hr>118</ns3:hr>
            <ns3:cad>0</ns3:cad>
          </ns3:TrackPointExtension>
        </extensions>
      </trkpt>
      <trkpt lat="37.98953418619930744171142578125" lon="-107.74801435880362987518310546875">
        <ele>4138</ele>
        <time>2026-08-15T16:03:26.000Z</time>
        <extensions>
          <ns3:TrackPointExtension>
            <ns3:hr>117</ns3:hr>
            <ns3:cad>0</ns3:cad>
          </ns3:TrackPointExtension>
        </extensions>
      </trkpt>
      <trkpt lat="37.9895352758467197418212890625" lon="-107.74801704101264476776123046875">
        <ele>4138.2001953125</ele>
        <time>2026-08-15T16:03:28.000Z</time>
        <extensions>
          <ns3:TrackPointExtension>
            <ns3:hr>115</ns3:hr>
            <ns3:cad>0</ns3:cad>
          </ns3:TrackPointExtension>
        </extensions>
      </trkpt>
      <trkpt lat="37.98953468911349773406982421875" lon="-107.7480156160891056060791015625">
        <ele>4138.2001953125</ele>
        <time>2026-08-15T16:03:34.000Z</time>
        <extensions>
          <ns3:TrackPointExtension>
            <ns3:hr>113</ns3:hr>
            <ns3:cad>0</ns3:cad>
          </ns3:TrackPointExtension>
        </extensions>
      </trkpt>
      <trkpt lat="37.98953468911349773406982421875" lon="-107.7480156160891056060791015625">
        <ele>4138.2001953125</ele>
        <time>2026-08-15T16:03:35.000Z</time>
        <extensions>
          <ns3:TrackPointExtension>
            <ns3:hr>112</ns3:hr>
            <ns3:cad>0</ns3:cad>
          </ns3:TrackPointExtension>
        </extensions>
      </trkpt>
      <trkpt lat="37.98953468911349773406982421875" lon="-107.7480156160891056060791015625">
        <ele>4138.2001953125</ele>
        <time>2026-08-15T16:03:39.000Z</time>
        <extensions>
          <ns3:TrackPointExtension>
            <ns3:hr>108</ns3:hr>
            <ns3:cad>0</ns3:cad>
          </ns3:TrackPointExtension>
        </extensions>
      </trkpt>
      <trkpt lat="37.98953468911349773406982421875" lon="-107.7480156160891056060791015625">
        <ele>4138.2001953125</ele>
        <time>2026-08-15T16:03:40.000Z</time>
        <extensions>
          <ns3:TrackPointExtension>
            <ns3:hr>105</ns3:hr>
            <ns3:cad>0</ns3:cad>
          </ns3:TrackPointExtension>
        </extensions>
      </trkpt>
      <trkpt lat="37.98953468911349773406982421875" lon="-107.7480156160891056060791015625">
        <ele>4138.2001953125</ele>
        <time>2026-08-15T16:03:43.000Z</time>
        <extensions>
          <ns3:TrackPointExtension>
            <ns3:hr>102</ns3:hr>
            <ns3:cad>0</ns3:cad>
          </ns3:TrackPointExtension>
        </extensions>
      </trkpt>
      <trkpt lat="37.98953468911349773406982421875" lon="-107.7480156160891056060791015625">
        <ele>4137.7998046875</ele>
        <time>2026-08-15T16:03:49.000Z</time>
        <extensions>
          <ns3:TrackPointExtension>
            <ns3:hr>102</ns3:hr>
            <ns3:cad>0</ns3:cad>
          </ns3:TrackPointExtension>
        </extensions>
      </trkpt>
      <trkpt lat="37.98953468911349773406982421875" lon="-107.7480156160891056060791015625">
        <ele>4138</ele>
        <time>2026-08-15T16:03:54.000Z</time>
        <extensions>
          <ns3:TrackPointExtension>
            <ns3:hr>104</ns3:hr>
            <ns3:cad>0</ns3:cad>
          </ns3:TrackPointExtension>
        </extensions>
      </trkpt>
      <trkpt lat="37.98953468911349773406982421875" lon="-107.7480156160891056060791015625">
        <ele>4138</ele>
        <time>2026-08-15T16:04:00.000Z</time>
        <extensions>
          <ns3:TrackPointExtension>
            <ns3:hr>105</ns3:hr>
            <ns3:cad>0</ns3:cad>
          </ns3:TrackPointExtension>
        </extensions>
      </trkpt>
      <trkpt lat="37.98953468911349773406982421875" lon="-107.7480156160891056060791015625">
        <ele>4138</ele>
        <time>2026-08-15T16:04:02.000Z</time>
        <extensions>
          <ns3:TrackPointExtension>
            <ns3:hr>104</ns3:hr>
            <ns3:cad>0</ns3:cad>
          </ns3:TrackPointExtension>
        </extensions>
      </trkpt>
      <trkpt lat="37.98953468911349773406982421875" lon="-107.7480156160891056060791015625">
        <ele>4138.39990234375</ele>
        <time>2026-08-15T16:04:08.000Z</time>
        <extensions>
          <ns3:TrackPointExtension>
            <ns3:hr>103</ns3:hr>
            <ns3:cad>0</ns3:cad>
          </ns3:TrackPointExtension>
        </extensions>
      </trkpt>
      <trkpt lat="37.98953468911349773406982421875" lon="-107.7480156160891056060791015625">
        <ele>4138.39990234375</ele>
        <time>2026-08-15T16:04:09.000Z</time>
        <extensions>
          <ns3:TrackPointExtension>
            <ns3:hr>102</ns3:hr>
            <ns3:cad>0</ns3:cad>
          </ns3:TrackPointExtension>
        </extensions>
      </trkpt>
      <trkpt lat="37.98953468911349773406982421875" lon="-107.7480156160891056060791015625">
        <ele>4138.7998046875</ele>
        <time>2026-08-15T16:04:12.000Z</time>
        <extensions>
          <ns3:TrackPointExtension>
            <ns3:hr>102</ns3:hr>
            <ns3:cad>0</ns3:cad>
          </ns3:TrackPointExtension>
        </extensions>
      </trkpt>
      <trkpt lat="37.98953468911349773406982421875" lon="-107.7480156160891056060791015625">
        <ele>4139</ele>
        <time>2026-08-15T16:04:18.000Z</time>
        <extensions>
          <ns3:TrackPointExtension>
            <ns3:hr>102</ns3:hr>
            <ns3:cad>0</ns3:cad>
          </ns3:TrackPointExtension>
        </extensions>
      </trkpt>
      <trkpt lat="37.98953468911349773406982421875" lon="-107.7480156160891056060791015625">
        <ele>4139</ele>
        <time>2026-08-15T16:04:19.000Z</time>
        <extensions>
          <ns3:TrackPointExtension>
            <ns3:hr>101</ns3:hr>
            <ns3:cad>0</ns3:cad>
          </ns3:TrackPointExtension>
        </extensions>
      </trkpt>
      <trkpt lat="37.98953468911349773406982421875" lon="-107.7480156160891056060791015625">
        <ele>4139.2001953125</ele>
        <time>2026-08-15T16:04:25.000Z</time>
        <extensions>
          <ns3:TrackPointExtension>
            <ns3:hr>103</ns3:hr>
            <ns3:cad>0</ns3:cad>
          </ns3:TrackPointExtension>
        </extensions>
      </trkpt>
      <trkpt lat="37.98953468911349773406982421875" lon="-107.7480156160891056060791015625">
        <ele>4139.2001953125</ele>
        <time>2026-08-15T16:04:28.000Z</time>
        <extensions>
          <ns3:TrackPointExtension>
            <ns3:hr>106</ns3:hr>
            <ns3:cad>0</ns3:cad>
          </ns3:TrackPointExtension>
        </extensions>
      </trkpt>
      <trkpt lat="37.98953468911349773406982421875" lon="-107.7480156160891056060791015625">
        <ele>4139.2001953125</ele>
        <time>2026-08-15T16:04:30.000Z</time>
        <extensions>
          <ns3:TrackPointExtension>
            <ns3:hr>109</ns3:hr>
            <ns3:cad>0</ns3:cad>
          </ns3:TrackPointExtension>
        </extensions>
      </trkpt>
      <trkpt lat="37.98953468911349773406982421875" lon="-107.7480156160891056060791015625">
        <ele>4139.2001953125</ele>
        <time>2026-08-15T16:04:32.000Z</time>
        <extensions>
          <ns3:TrackPointExtension>
            <ns3:hr>113</ns3:hr>
            <ns3:cad>0</ns3:cad>
          </ns3:TrackPointExtension>
        </extensions>
      </trkpt>
      <trkpt lat="37.98953468911349773406982421875" lon="-107.7480156160891056060791015625">
        <ele>4139.2001953125</ele>
        <time>2026-08-15T16:04:35.000Z</time>
        <extensions>
          <ns3:TrackPointExtension>
            <ns3:hr>118</ns3:hr>
            <ns3:cad>0</ns3:cad>
          </ns3:TrackPointExtension>
        </extensions>
      </trkpt>
      <trkpt lat="37.98953468911349773406982421875" lon="-107.7480156160891056060791015625">
        <ele>4139.2001953125</ele>
        <time>2026-08-15T16:04:36.000Z</time>
        <extensions>
          <ns3:TrackPointExtension>
            <ns3:hr>122</ns3:hr>
            <ns3:cad>0</ns3:cad>
          </ns3:TrackPointExtension>
        </extensions>
      </trkpt>
      <trkpt lat="37.98953468911349773406982421875" lon="-107.7480156160891056060791015625">
        <ele>4139.2001953125</ele>
        <time>2026-08-15T16:04:37.000Z</time>
        <extensions>
          <ns3:TrackPointExtension>
            <ns3:hr>126</ns3:hr>
            <ns3:cad>0</ns3:cad>
          </ns3:TrackPointExtension>
        </extensions>
      </trkpt>
      <trkpt lat="37.98953468911349773406982421875" lon="-107.7480156160891056060791015625">
        <ele>4139.2001953125</ele>
        <time>2026-08-15T16:04:43.000Z</time>
        <extensions>
          <ns3:TrackPointExtension>
            <ns3:hr>127</ns3:hr>
            <ns3:cad>0</ns3:cad>
          </ns3:TrackPointExtension>
        </extensions>
      </trkpt>
      <trkpt lat="37.98953468911349773406982421875" lon="-107.7480156160891056060791015625">
        <ele>4138.7998046875</ele>
        <time>2026-08-15T16:04:46.000Z</time>
        <extensions>
          <ns3:TrackPointExtension>
            <ns3:hr>124</ns3:hr>
            <ns3:cad>0</ns3:cad>
          </ns3:TrackPointExtension>
        </extensions>
      </trkpt>
      <trkpt lat="37.98953468911349773406982421875" lon="-107.7480156160891056060791015625">
        <ele>4138.60009765625</ele>
        <time>2026-08-15T16:04:47.000Z</time>
        <extensions>
          <ns3:TrackPointExtension>
            <ns3:hr>124</ns3:hr>
            <ns3:cad>0</ns3:cad>
          </ns3:TrackPointExtension>
        </extensions>
      </trkpt>
      <trkpt lat="37.98953468911349773406982421875" lon="-107.7480156160891056060791015625">
        <ele>4138.7998046875</ele>
        <time>2026-08-15T16:04:53.000Z</time>
        <extensions>
          <ns3:TrackPointExtension>
            <ns3:hr>122</ns3:hr>
            <ns3:cad>0</ns3:cad>
          </ns3:TrackPointExtension>
        </extensions>
      </trkpt>
      <trkpt lat="37.98953468911349773406982421875" lon="-107.7480156160891056060791015625">
        <ele>4138.7998046875</ele>
        <time>2026-08-15T16:04:55.000Z</time>
        <extensions>
          <ns3:TrackPointExtension>
            <ns3:hr>122</ns3:hr>
            <ns3:cad>0</ns3:cad>
          </ns3:TrackPointExtension>
        </extensions>
      </trkpt>
      <trkpt lat="37.98953468911349773406982421875" lon="-107.7480156160891056060791015625">
        <ele>4138.60009765625</ele>
        <time>2026-08-15T16:05:01.000Z</time>
        <extensions>
          <ns3:TrackPointExtension>
            <ns3:hr>122</ns3:hr>
            <ns3:cad>0</ns3:cad>
          </ns3:TrackPointExtension>
        </extensions>
      </trkpt>
      <trkpt lat="37.98953468911349773406982421875" lon="-107.7480156160891056060791015625">
        <ele>4138.7998046875</ele>
        <time>2026-08-15T16:05:03.000Z</time>
        <extensions>
          <ns3:TrackPointExtension>
            <ns3:hr>119</ns3:hr>
            <ns3:cad>0</ns3:cad>
          </ns3:TrackPointExtension>
        </extensions>
      </trkpt>
      <trkpt lat="37.98953468911349773406982421875" lon="-107.7480156160891056060791015625">
        <ele>4139.2001953125</ele>
        <time>2026-08-15T16:05:09.000Z</time>
        <extensions>
          <ns3:TrackPointExtension>
            <ns3:hr>119</ns3:hr>
            <ns3:cad>0</ns3:cad>
          </ns3:TrackPointExtension>
        </extensions>
      </trkpt>
      <trkpt lat="37.98953468911349773406982421875" lon="-107.7480156160891056060791015625">
        <ele>4139.7998046875</ele>
        <time>2026-08-15T16:05:11.000Z</time>
        <extensions>
          <ns3:TrackPointExtension>
            <ns3:hr>119</ns3:hr>
            <ns3:cad>0</ns3:cad>
          </ns3:TrackPointExtension>
        </extensions>
      </trkpt>
      <trkpt lat="37.98953468911349773406982421875" lon="-107.7480156160891056060791015625">
        <ele>4140</ele>
        <time>2026-08-15T16:05:12.000Z</time>
        <extensions>
          <ns3:TrackPointExtension>
            <ns3:hr>119</ns3:hr>
            <ns3:cad>0</ns3:cad>
          </ns3:TrackPointExtension>
        </extensions>
      </trkpt>
      <trkpt lat="37.98953468911349773406982421875" lon="-107.7480156160891056060791015625">
        <ele>4139.60009765625</ele>
        <time>2026-08-15T16:05:16.000Z</time>
        <extensions>
          <ns3:TrackPointExtension>
            <ns3:hr>123</ns3:hr>
            <ns3:cad>0</ns3:cad>
          </ns3:TrackPointExtension>
        </extensions>
      </trkpt>
      <trkpt lat="37.98953468911349773406982421875" lon="-107.7480156160891056060791015625">
        <ele>4138.7998046875</ele>
        <time>2026-08-15T16:05:19.000Z</time>
        <extensions>
          <ns3:TrackPointExtension>
            <ns3:hr>125</ns3:hr>
            <ns3:cad>0</ns3:cad>
          </ns3:TrackPointExtension>
        </extensions>
      </trkpt>
      <trkpt lat="37.98953468911349773406982421875" lon="-107.7480156160891056060791015625">
        <ele>4139.2001953125</ele>
        <time>2026-08-15T16:05:25.000Z</time>
        <extensions>
          <ns3:TrackPointExtension>
            <ns3:hr>125</ns3:hr>
            <ns3:cad>0</ns3:cad>
          </ns3:TrackPointExtension>
        </extensions>
      </trkpt>
      <trkpt lat="37.98955597914755344390869140625" lon="-107.7480058930814266204833984375">
        <ele>4139.7998046875</ele>
        <time>2026-08-15T16:05:31.000Z</time>
        <extensions>
          <ns3:TrackPointExtension>
            <ns3:hr>124</ns3:hr>
            <ns3:cad>0</ns3:cad>
          </ns3:TrackPointExtension>
        </extensions>
      </trkpt>
      <trkpt lat="37.98955597914755344390869140625" lon="-107.7480058930814266204833984375">
        <ele>4139.7998046875</ele>
        <time>2026-08-15T16:05:37.000Z</time>
        <extensions>
          <ns3:TrackPointExtension>
            <ns3:hr>121</ns3:hr>
            <ns3:cad>0</ns3:cad>
          </ns3:TrackPointExtension>
        </extensions>
      </trkpt>
      <trkpt lat="37.98955597914755344390869140625" lon="-107.7480058930814266204833984375">
        <ele>4139.7998046875</ele>
        <time>2026-08-15T16:05:38.000Z</time>
        <extensions>
          <ns3:TrackPointExtension>
            <ns3:hr>121</ns3:hr>
            <ns3:cad>0</ns3:cad>
          </ns3:TrackPointExtension>
        </extensions>
      </trkpt>
      <trkpt lat="37.98956603743135929107666015625" lon="-107.74799239821732044219970703125">
        <ele>4139.60009765625</ele>
        <time>2026-08-15T16:05:41.000Z</time>
        <extensions>
          <ns3:TrackPointExtension>
            <ns3:hr>118</ns3:hr>
            <ns3:cad>0</ns3:cad>
          </ns3:TrackPointExtension>
        </extensions>
      </trkpt>
      <trkpt lat="37.98957039602100849151611328125" lon="-107.74800379760563373565673828125">
        <ele>4139.60009765625</ele>
        <time>2026-08-15T16:05:44.000Z</time>
        <extensions>
          <ns3:TrackPointExtension>
            <ns3:hr>116</ns3:hr>
            <ns3:cad>0</ns3:cad>
          </ns3:TrackPointExtension>
        </extensions>
      </trkpt>
      <trkpt lat="37.98957207240164279937744140625" lon="-107.74799642153084278106689453125">
        <ele>4140</ele>
        <time>2026-08-15T16:05:49.000Z</time>
        <extensions>
          <ns3:TrackPointExtension>
            <ns3:hr>119</ns3:hr>
            <ns3:cad>0</ns3:cad>
          </ns3:TrackPointExtension>
        </extensions>
      </trkpt>
      <trkpt lat="37.98957140184938907623291015625" lon="-107.74800010956823825836181640625">
        <ele>4140</ele>
        <time>2026-08-15T16:05:52.000Z</time>
        <extensions>
          <ns3:TrackPointExtension>
            <ns3:hr>122</ns3:hr>
            <ns3:cad>0</ns3:cad>
          </ns3:TrackPointExtension>
        </extensions>
      </trkpt>
      <trkpt lat="37.98957140184938907623291015625" lon="-107.74800010956823825836181640625">
        <ele>4139.60009765625</ele>
        <time>2026-08-15T16:05:58.000Z</time>
        <extensions>
          <ns3:TrackPointExtension>
            <ns3:hr>123</ns3:hr>
            <ns3:cad>0</ns3:cad>
          </ns3:TrackPointExtension>
        </extensions>
      </trkpt>
      <trkpt lat="37.98957140184938907623291015625" lon="-107.74800010956823825836181640625">
        <ele>4139.7998046875</ele>
        <time>2026-08-15T16:06:02.000Z</time>
        <extensions>
          <ns3:TrackPointExtension>
            <ns3:hr>120</ns3:hr>
            <ns3:cad>0</ns3:cad>
          </ns3:TrackPointExtension>
        </extensions>
      </trkpt>
      <trkpt lat="37.98957140184938907623291015625" lon="-107.74800010956823825836181640625">
        <ele>4140.2001953125</ele>
        <time>2026-08-15T16:06:05.000Z</time>
        <extensions>
          <ns3:TrackPointExtension>
            <ns3:hr>113</ns3:hr>
            <ns3:cad>0</ns3:cad>
          </ns3:TrackPointExtension>
        </extensions>
      </trkpt>
      <trkpt lat="37.98957140184938907623291015625" lon="-107.74800010956823825836181640625">
        <ele>4140.2001953125</ele>
        <time>2026-08-15T16:06:06.000Z</time>
        <extensions>
          <ns3:TrackPointExtension>
            <ns3:hr>105</ns3:hr>
            <ns3:cad>0</ns3:cad>
          </ns3:TrackPointExtension>
        </extensions>
      </trkpt>
      <trkpt lat="37.98957140184938907623291015625" lon="-107.74800010956823825836181640625">
        <ele>4140</ele>
        <time>2026-08-15T16:06:07.000Z</time>
        <extensions>
          <ns3:TrackPointExtension>
            <ns3:hr>98</ns3:hr>
            <ns3:cad>0</ns3:cad>
          </ns3:TrackPointExtension>
        </extensions>
      </trkpt>
      <trkpt lat="37.98957140184938907623291015625" lon="-107.74800010956823825836181640625">
        <ele>4140</ele>
        <time>2026-08-15T16:06:08.000Z</time>
        <extensions>
          <ns3:TrackPointExtension>
            <ns3:hr>94</ns3:hr>
            <ns3:cad>0</ns3:cad>
          </ns3:TrackPointExtension>
        </extensions>
      </trkpt>
      <trkpt lat="37.98957140184938907623291015625" lon="-107.74800010956823825836181640625">
        <ele>4139.60009765625</ele>
        <time>2026-08-15T16:06:11.000Z</time>
        <extensions>
          <ns3:TrackPointExtension>
            <ns3:hr>93</ns3:hr>
            <ns3:cad>0</ns3:cad>
          </ns3:TrackPointExtension>
        </extensions>
      </trkpt>
      <trkpt lat="37.98957140184938907623291015625" lon="-107.74800010956823825836181640625">
        <ele>4139.60009765625</ele>
        <time>2026-08-15T16:06:17.000Z</time>
        <extensions>
          <ns3:TrackPointExtension>
            <ns3:hr>92</ns3:hr>
            <ns3:cad>0</ns3:cad>
          </ns3:TrackPointExtension>
        </extensions>
      </trkpt>
      <trkpt lat="37.98957140184938907623291015625" lon="-107.74800010956823825836181640625">
        <ele>4139.7998046875</ele>
        <time>2026-08-15T16:06:23.000Z</time>
        <extensions>
          <ns3:TrackPointExtension>
            <ns3:hr>93</ns3:hr>
            <ns3:cad>0</ns3:cad>
          </ns3:TrackPointExtension>
        </extensions>
      </trkpt>
      <trkpt lat="37.98957006074488162994384765625" lon="-107.74798753671348094940185546875">
        <ele>4139.7998046875</ele>
        <time>2026-08-15T16:06:29.000Z</time>
        <extensions>
          <ns3:TrackPointExtension>
            <ns3:hr>92</ns3:hr>
            <ns3:cad>0</ns3:cad>
          </ns3:TrackPointExtension>
        </extensions>
      </trkpt>
      <trkpt lat="37.98956050537526607513427734375" lon="-107.74800212122499942779541015625">
        <ele>4139.60009765625</ele>
        <time>2026-08-15T16:06:33.000Z</time>
        <extensions>
          <ns3:TrackPointExtension>
            <ns3:hr>93</ns3:hr>
            <ns3:cad>53</ns3:cad>
          </ns3:TrackPointExtension>
        </extensions>
      </trkpt>
      <trkpt lat="37.989555560052394866943359375" lon="-107.74801821447908878326416015625">
        <ele>4140</ele>
        <time>2026-08-15T16:06:37.000Z</time>
        <extensions>
          <ns3:TrackPointExtension>
            <ns3:hr>96</ns3:hr>
            <ns3:cad>0</ns3:cad>
          </ns3:TrackPointExtension>
        </extensions>
      </trkpt>
      <trkpt lat="37.9895537160336971282958984375" lon="-107.74802441708743572235107421875">
        <ele>4140.39990234375</ele>
        <time>2026-08-15T16:06:39.000Z</time>
        <extensions>
          <ns3:TrackPointExtension>
            <ns3:hr>97</ns3:hr>
            <ns3:cad>0</ns3:cad>
          </ns3:TrackPointExtension>
        </extensions>
      </trkpt>
      <trkpt lat="37.9895520396530628204345703125" lon="-107.7480308711528778076171875">
        <ele>4141</ele>
        <time>2026-08-15T16:06:41.000Z</time>
        <extensions>
          <ns3:TrackPointExtension>
            <ns3:hr>98</ns3:hr>
            <ns3:cad>0</ns3:cad>
          </ns3:TrackPointExtension>
        </extensions>
      </trkpt>
      <trkpt lat="37.98952915705740451812744140625" lon="-107.74804805405437946319580078125">
        <ele>4141.39990234375</ele>
        <time>2026-08-15T16:06:46.000Z</time>
        <extensions>
          <ns3:TrackPointExtension>
            <ns3:hr>98</ns3:hr>
            <ns3:cad>0</ns3:cad>
          </ns3:TrackPointExtension>
        </extensions>
      </trkpt>
      <trkpt lat="37.989518009126186370849609375" lon="-107.74806431494653224945068359375">
        <ele>4142</ele>
        <time>2026-08-15T16:06:48.000Z</time>
        <extensions>
          <ns3:TrackPointExtension>
            <ns3:hr>99</ns3:hr>
            <ns3:cad>0</ns3:cad>
          </ns3:TrackPointExtension>
        </extensions>
      </trkpt>
      <trkpt lat="37.98951641656458377838134765625" lon="-107.748067416250705718994140625">
        <ele>4142.39990234375</ele>
        <time>2026-08-15T16:06:49.000Z</time>
        <extensions>
          <ns3:TrackPointExtension>
            <ns3:hr>102</ns3:hr>
            <ns3:cad>0</ns3:cad>
          </ns3:TrackPointExtension>
        </extensions>
      </trkpt>
      <trkpt lat="37.98951809294521808624267578125" lon="-107.74806909263134002685546875">
        <ele>4142.7998046875</ele>
        <time>2026-08-15T16:06:50.000Z</time>
        <extensions>
          <ns3:TrackPointExtension>
            <ns3:hr>105</ns3:hr>
            <ns3:cad>0</ns3:cad>
          </ns3:TrackPointExtension>
        </extensions>
      </trkpt>
      <trkpt lat="37.98950920812785625457763671875" lon="-107.7480739541351795196533203125">
        <ele>4143.2001953125</ele>
        <time>2026-08-15T16:06:51.000Z</time>
        <extensions>
          <ns3:TrackPointExtension>
            <ns3:hr>105</ns3:hr>
            <ns3:cad>0</ns3:cad>
          </ns3:TrackPointExtension>
        </extensions>
      </trkpt>
      <trkpt lat="37.98950694501399993896484375" lon="-107.74808141402900218963623046875">
        <ele>4143.39990234375</ele>
        <time>2026-08-15T16:06:52.000Z</time>
        <extensions>
          <ns3:TrackPointExtension>
            <ns3:hr>105</ns3:hr>
            <ns3:cad>0</ns3:cad>
          </ns3:TrackPointExtension>
        </extensions>
      </trkpt>
      <trkpt lat="37.9894982278347015380859375" lon="-107.7481064759194850921630859375">
        <ele>4144.2001953125</ele>
        <time>2026-08-15T16:06:54.000Z</time>
        <extensions>
          <ns3:TrackPointExtension>
            <ns3:hr>104</ns3:hr>
            <ns3:cad>0</ns3:cad>
          </ns3:TrackPointExtension>
        </extensions>
      </trkpt>
      <trkpt lat="37.9894916899502277374267578125" lon="-107.7481272630393505096435546875">
        <ele>4145</ele>
        <time>2026-08-15T16:06:57.000Z</time>
        <extensions>
          <ns3:TrackPointExtension>
            <ns3:hr>104</ns3:hr>
            <ns3:cad>0</ns3:cad>
          </ns3:TrackPointExtension>
        </extensions>
      </trkpt>
      <trkpt lat="37.98948858864605426788330078125" lon="-107.7481443621218204498291015625">
        <ele>4145.39990234375</ele>
        <time>2026-08-15T16:06:58.000Z</time>
        <extensions>
          <ns3:TrackPointExtension>
            <ns3:hr>105</ns3:hr>
            <ns3:cad>0</ns3:cad>
          </ns3:TrackPointExtension>
        </extensions>
      </trkpt>
      <trkpt lat="37.9894903488457202911376953125" lon="-107.74817177094519138336181640625">
        <ele>4146.39990234375</ele>
        <time>2026-08-15T16:07:01.000Z</time>
        <extensions>
          <ns3:TrackPointExtension>
            <ns3:hr>106</ns3:hr>
            <ns3:cad>0</ns3:cad>
          </ns3:TrackPointExtension>
        </extensions>
      </trkpt>
      <trkpt lat="37.98948741517961025238037109375" lon="-107.74816925637423992156982421875">
        <ele>4147.2001953125</ele>
        <time>2026-08-15T16:07:03.000Z</time>
        <extensions>
          <ns3:TrackPointExtension>
            <ns3:hr>106</ns3:hr>
            <ns3:cad>0</ns3:cad>
          </ns3:TrackPointExtension>
        </extensions>
      </trkpt>
      <trkpt lat="37.98948037438094615936279296875" lon="-107.74818216450512409210205078125">
        <ele>4147.39990234375</ele>
        <time>2026-08-15T16:07:05.000Z</time>
        <extensions>
          <ns3:TrackPointExtension>
            <ns3:hr>106</ns3:hr>
            <ns3:cad>45</ns3:cad>
          </ns3:TrackPointExtension>
        </extensions>
      </trkpt>
      <trkpt lat="37.989465706050395965576171875" lon="-107.748196832835674285888671875">
        <ele>4147.7998046875</ele>
        <time>2026-08-15T16:07:09.000Z</time>
        <extensions>
          <ns3:TrackPointExtension>
            <ns3:hr>113</ns3:hr>
            <ns3:cad>0</ns3:cad>
          </ns3:TrackPointExtension>
        </extensions>
      </trkpt>
      <trkpt lat="37.98945690505206584930419921875" lon="-107.7482147701084613800048828125">
        <ele>4148.60009765625</ele>
        <time>2026-08-15T16:07:13.000Z</time>
        <extensions>
          <ns3:TrackPointExtension>
            <ns3:hr>112</ns3:hr>
            <ns3:cad>0</ns3:cad>
          </ns3:TrackPointExtension>
        </extensions>
      </trkpt>
      <trkpt lat="37.98945573158562183380126953125" lon="-107.74821334518492221832275390625">
        <ele>4148.7998046875</ele>
        <time>2026-08-15T16:07:14.000Z</time>
        <extensions>
          <ns3:TrackPointExtension>
            <ns3:hr>110</ns3:hr>
            <ns3:cad>0</ns3:cad>
          </ns3:TrackPointExtension>
        </extensions>
      </trkpt>
      <trkpt lat="37.98943444155156612396240234375" lon="-107.74826221168041229248046875">
        <ele>4148.39990234375</ele>
        <time>2026-08-15T16:07:20.000Z</time>
        <extensions>
          <ns3:TrackPointExtension>
            <ns3:hr>109</ns3:hr>
            <ns3:cad>0</ns3:cad>
          </ns3:TrackPointExtension>
        </extensions>
      </trkpt>
      <trkpt lat="37.9894427396357059478759765625" lon="-107.748272605240345001220703125">
        <ele>4148.7998046875</ele>
        <time>2026-08-15T16:07:24.000Z</time>
        <extensions>
          <ns3:TrackPointExtension>
            <ns3:hr>109</ns3:hr>
            <ns3:cad>55</ns3:cad>
          </ns3:TrackPointExtension>
        </extensions>
      </trkpt>
      <trkpt lat="37.989455647766590118408203125" lon="-107.748279310762882232666015625">
        <ele>4150</ele>
        <time>2026-08-15T16:07:28.000Z</time>
        <extensions>
          <ns3:TrackPointExtension>
            <ns3:hr>109</ns3:hr>
            <ns3:cad>0</ns3:cad>
          </ns3:TrackPointExtension>
        </extensions>
      </trkpt>
      <trkpt lat="37.9894578270614147186279296875" lon="-107.7482848428189754486083984375">
        <ele>4150.2001953125</ele>
        <time>2026-08-15T16:07:29.000Z</time>
        <extensions>
          <ns3:TrackPointExtension>
            <ns3:hr>109</ns3:hr>
            <ns3:cad>0</ns3:cad>
          </ns3:TrackPointExtension>
        </extensions>
      </trkpt>
      <trkpt lat="37.98945941962301731109619140625" lon="-107.74828542955219745635986328125">
        <ele>4151</ele>
        <time>2026-08-15T16:07:31.000Z</time>
        <extensions>
          <ns3:TrackPointExtension>
            <ns3:hr>111</ns3:hr>
            <ns3:cad>41</ns3:cad>
          </ns3:TrackPointExtension>
        </extensions>
      </trkpt>
      <trkpt lat="37.98948070965707302093505859375" lon="-107.7482875250279903411865234375">
        <ele>4151.39990234375</ele>
        <time>2026-08-15T16:07:34.000Z</time>
        <extensions>
          <ns3:TrackPointExtension>
            <ns3:hr>113</ns3:hr>
            <ns3:cad>0</ns3:cad>
          </ns3:TrackPointExtension>
        </extensions>
      </trkpt>
      <trkpt lat="37.98949311487376689910888671875" lon="-107.74827654473483562469482421875">
        <ele>4151.7998046875</ele>
        <time>2026-08-15T16:07:37.000Z</time>
        <extensions>
          <ns3:TrackPointExtension>
            <ns3:hr>116</ns3:hr>
            <ns3:cad>0</ns3:cad>
          </ns3:TrackPointExtension>
        </extensions>
      </trkpt>
      <trkpt lat="37.98949881456792354583740234375" lon="-107.74826782755553722381591796875">
        <ele>4152</ele>
        <time>2026-08-15T16:07:38.000Z</time>
        <extensions>
          <ns3:TrackPointExtension>
            <ns3:hr>116</ns3:hr>
            <ns3:cad>0</ns3:cad>
          </ns3:TrackPointExtension>
        </extensions>
      </trkpt>
      <trkpt lat="37.989505268633365631103515625" lon="-107.74826514534652233123779296875">
        <ele>4152.2001953125</ele>
        <time>2026-08-15T16:07:39.000Z</time>
        <extensions>
          <ns3:TrackPointExtension>
            <ns3:hr>117</ns3:hr>
            <ns3:cad>41</ns3:cad>
          </ns3:TrackPointExtension>
        </extensions>
      </trkpt>
      <trkpt lat="37.98952815122902393341064453125" lon="-107.74825693108141422271728515625">
        <ele>4152.60009765625</ele>
        <time>2026-08-15T16:07:43.000Z</time>
        <extensions>
          <ns3:TrackPointExtension>
            <ns3:hr>119</ns3:hr>
            <ns3:cad>41</ns3:cad>
          </ns3:TrackPointExtension>
        </extensions>
      </trkpt>
      <trkpt lat="37.98953955061733722686767578125" lon="-107.748266570270061492919921875">
        <ele>4152.60009765625</ele>
        <time>2026-08-15T16:07:46.000Z</time>
        <extensions>
          <ns3:TrackPointExtension>
            <ns3:hr>120</ns3:hr>
            <ns3:cad>0</ns3:cad>
          </ns3:TrackPointExtension>
        </extensions>
      </trkpt>
      <trkpt lat="37.98954256810247898101806640625" lon="-107.74826665408909320831298828125">
        <ele>4153</ele>
        <time>2026-08-15T16:07:49.000Z</time>
        <extensions>
          <ns3:TrackPointExtension>
            <ns3:hr>122</ns3:hr>
            <ns3:cad>0</ns3:cad>
          </ns3:TrackPointExtension>
        </extensions>
      </trkpt>
      <trkpt lat="37.98954625613987445831298828125" lon="-107.74827436544001102447509765625">
        <ele>4153.2001953125</ele>
        <time>2026-08-15T16:07:50.000Z</time>
        <extensions>
          <ns3:TrackPointExtension>
            <ns3:hr>123</ns3:hr>
            <ns3:cad>0</ns3:cad>
          </ns3:TrackPointExtension>
        </extensions>
      </trkpt>
      <trkpt lat="37.98955145291984081268310546875" lon="-107.74829347617924213409423828125">
        <ele>4154.2001953125</ele>
        <time>2026-08-15T16:07:55.000Z</time>
        <extensions>
          <ns3:TrackPointExtension>
            <ns3:hr>122</ns3:hr>
            <ns3:cad>0</ns3:cad>
          </ns3:TrackPointExtension>
        </extensions>
      </trkpt>
      <trkpt lat="37.9895540513098239898681640625" lon="-107.7482989244163036346435546875">
        <ele>4154.2001953125</ele>
        <time>2026-08-15T16:07:59.000Z</time>
        <extensions>
          <ns3:TrackPointExtension>
            <ns3:hr>121</ns3:hr>
            <ns3:cad>0</ns3:cad>
          </ns3:TrackPointExtension>
        </extensions>
      </trkpt>
      <trkpt lat="37.98956201411783695220947265625" lon="-107.7483049593865871429443359375">
        <ele>4155.2001953125</ele>
        <time>2026-08-15T16:08:02.000Z</time>
        <extensions>
          <ns3:TrackPointExtension>
            <ns3:hr>121</ns3:hr>
            <ns3:cad>83</ns3:cad>
          </ns3:TrackPointExtension>
        </extensions>
      </trkpt>
      <trkpt lat="37.98956838436424732208251953125" lon="-107.74830244481563568115234375">
        <ele>4155.60009765625</ele>
        <time>2026-08-15T16:08:03.000Z</time>
        <extensions>
          <ns3:TrackPointExtension>
            <ns3:hr>122</ns3:hr>
            <ns3:cad>68</ns3:cad>
          </ns3:TrackPointExtension>
        </extensions>
      </trkpt>
      <trkpt lat="37.98957592807710170745849609375" lon="-107.7482935599982738494873046875">
        <ele>4156.2001953125</ele>
        <time>2026-08-15T16:08:05.000Z</time>
        <extensions>
          <ns3:TrackPointExtension>
            <ns3:hr>121</ns3:hr>
            <ns3:cad>68</ns3:cad>
          </ns3:TrackPointExtension>
        </extensions>
      </trkpt>
      <trkpt lat="37.9895859025418758392333984375" lon="-107.7482912130653858184814453125">
        <ele>4156.60009765625</ele>
        <time>2026-08-15T16:08:07.000Z</time>
        <extensions>
          <ns3:TrackPointExtension>
            <ns3:hr>121</ns3:hr>
            <ns3:cad>71</ns3:cad>
          </ns3:TrackPointExtension>
        </extensions>
      </trkpt>
      <trkpt lat="37.98958280123770236968994140625" lon="-107.74830303154885768890380859375">
        <ele>4156.7998046875</ele>
        <time>2026-08-15T16:08:13.000Z</time>
        <extensions>
          <ns3:TrackPointExtension>
            <ns3:hr>121</ns3:hr>
            <ns3:cad>71</ns3:cad>
          </ns3:TrackPointExtension>
        </extensions>
      </trkpt>
      <trkpt lat="37.989596463739871978759765625" lon="-107.7483176998794078826904296875">
        <ele>4157.39990234375</ele>
        <time>2026-08-15T16:08:18.000Z</time>
        <extensions>
          <ns3:TrackPointExtension>
            <ns3:hr>122</ns3:hr>
            <ns3:cad>0</ns3:cad>
          </ns3:TrackPointExtension>
        </extensions>
      </trkpt>
      <trkpt lat="37.9895979724824428558349609375" lon="-107.7483116649091243743896484375">
        <ele>4157.7998046875</ele>
        <time>2026-08-15T16:08:20.000Z</time>
        <extensions>
          <ns3:TrackPointExtension>
            <ns3:hr>122</ns3:hr>
            <ns3:cad>0</ns3:cad>
          </ns3:TrackPointExtension>
        </extensions>
      </trkpt>
      <trkpt lat="37.9895986430346965789794921875" lon="-107.7483160234987735748291015625">
        <ele>4158.60009765625</ele>
        <time>2026-08-15T16:08:24.000Z</time>
        <extensions>
          <ns3:TrackPointExtension>
            <ns3:hr>127</ns3:hr>
            <ns3:cad>0</ns3:cad>
          </ns3:TrackPointExtension>
        </extensions>
      </trkpt>
      <trkpt lat="37.98959822393953800201416015625" lon="-107.7483176998794078826904296875">
        <ele>4158.7998046875</ele>
        <time>2026-08-15T16:08:25.000Z</time>
        <extensions>
          <ns3:TrackPointExtension>
            <ns3:hr>131</ns3:hr>
            <ns3:cad>0</ns3:cad>
          </ns3:TrackPointExtension>
        </extensions>
      </trkpt>
      <trkpt lat="37.98960325308144092559814453125" lon="-107.7483120001852512359619140625">
        <ele>4158.7998046875</ele>
        <time>2026-08-15T16:08:27.000Z</time>
        <extensions>
          <ns3:TrackPointExtension>
            <ns3:hr>135</ns3:hr>
            <ns3:cad>0</ns3:cad>
          </ns3:TrackPointExtension>
        </extensions>
      </trkpt>
      <trkpt lat="37.9896009899675846099853515625" lon="-107.74831577204167842864990234375">
        <ele>4158.7998046875</ele>
        <time>2026-08-15T16:08:29.000Z</time>
        <extensions>
          <ns3:TrackPointExtension>
            <ns3:hr>133</ns3:hr>
            <ns3:cad>0</ns3:cad>
          </ns3:TrackPointExtension>
        </extensions>
      </trkpt>
      <trkpt lat="37.9896053485572338104248046875" lon="-107.7483230642974376678466796875">
        <ele>4159</ele>
        <time>2026-08-15T16:08:32.000Z</time>
        <extensions>
          <ns3:TrackPointExtension>
            <ns3:hr>130</ns3:hr>
            <ns3:cad>0</ns3:cad>
          </ns3:TrackPointExtension>
        </extensions>
      </trkpt>
      <trkpt lat="37.9896113835275173187255859375" lon="-107.7483354695141315460205078125">
        <ele>4159.2001953125</ele>
        <time>2026-08-15T16:08:34.000Z</time>
        <extensions>
          <ns3:TrackPointExtension>
            <ns3:hr>126</ns3:hr>
            <ns3:cad>0</ns3:cad>
          </ns3:TrackPointExtension>
        </extensions>
      </trkpt>
      <trkpt lat="37.98961289227008819580078125" lon="-107.74833639152348041534423828125">
        <ele>4159.39990234375</ele>
        <time>2026-08-15T16:08:35.000Z</time>
        <extensions>
          <ns3:TrackPointExtension>
            <ns3:hr>125</ns3:hr>
            <ns3:cad>0</ns3:cad>
          </ns3:TrackPointExtension>
        </extensions>
      </trkpt>
      <trkpt lat="37.98961465246975421905517578125" lon="-107.7483468689024448394775390625">
        <ele>4160.2001953125</ele>
        <time>2026-08-15T16:08:37.000Z</time>
        <extensions>
          <ns3:TrackPointExtension>
            <ns3:hr>121</ns3:hr>
            <ns3:cad>0</ns3:cad>
          </ns3:TrackPointExtension>
        </extensions>
      </trkpt>
      <trkpt lat="37.98962228000164031982421875" lon="-107.7483569271862506866455078125">
        <ele>4161.2001953125</ele>
        <time>2026-08-15T16:08:40.000Z</time>
        <extensions>
          <ns3:TrackPointExtension>
            <ns3:hr>119</ns3:hr>
            <ns3:cad>0</ns3:cad>
          </ns3:TrackPointExtension>
        </extensions>
      </trkpt>
      <trkpt lat="37.98963141627609729766845703125" lon="-107.74836673401296138763427734375">
        <ele>4161.39990234375</ele>
        <time>2026-08-15T16:08:43.000Z</time>
        <extensions>
          <ns3:TrackPointExtension>
            <ns3:hr>116</ns3:hr>
            <ns3:cad>0</ns3:cad>
          </ns3:TrackPointExtension>
        </extensions>
      </trkpt>
      <trkpt lat="37.98963292501866817474365234375" lon="-107.7483666501939296722412109375">
        <ele>4162</ele>
        <time>2026-08-15T16:08:46.000Z</time>
        <extensions>
          <ns3:TrackPointExtension>
            <ns3:hr>113</ns3:hr>
            <ns3:cad>0</ns3:cad>
          </ns3:TrackPointExtension>
        </extensions>
      </trkpt>
      <trkpt lat="37.9896358586847782135009765625" lon="-107.7483669854700565338134765625">
        <ele>4162.39990234375</ele>
        <time>2026-08-15T16:08:47.000Z</time>
        <extensions>
          <ns3:TrackPointExtension>
            <ns3:hr>113</ns3:hr>
            <ns3:cad>0</ns3:cad>
          </ns3:TrackPointExtension>
        </extensions>
      </trkpt>
      <trkpt lat="37.98963292501866817474365234375" lon="-107.7483666501939296722412109375">
        <ele>4163.39990234375</ele>
        <time>2026-08-15T16:08:51.000Z</time>
        <extensions>
          <ns3:TrackPointExtension>
            <ns3:hr>113</ns3:hr>
            <ns3:cad>0</ns3:cad>
          </ns3:TrackPointExtension>
        </extensions>
      </trkpt>
      <trkpt lat="37.98963292501866817474365234375" lon="-107.7483666501939296722412109375">
        <ele>4163.39990234375</ele>
        <time>2026-08-15T16:08:52.000Z</time>
        <extensions>
          <ns3:TrackPointExtension>
            <ns3:hr>113</ns3:hr>
            <ns3:cad>0</ns3:cad>
          </ns3:TrackPointExtension>
        </extensions>
      </trkpt>
      <trkpt lat="37.9896583221852779388427734375" lon="-107.748365812003612518310546875">
        <ele>4163.60009765625</ele>
        <time>2026-08-15T16:08:57.000Z</time>
        <extensions>
          <ns3:TrackPointExtension>
            <ns3:hr>110</ns3:hr>
            <ns3:cad>0</ns3:cad>
          </ns3:TrackPointExtension>
        </extensions>
      </trkpt>
      <trkpt lat="37.98966209404170513153076171875" lon="-107.74836874566972255706787109375">
        <ele>4164.39990234375</ele>
        <time>2026-08-15T16:09:02.000Z</time>
        <extensions>
          <ns3:TrackPointExtension>
            <ns3:hr>112</ns3:hr>
            <ns3:cad>0</ns3:cad>
          </ns3:TrackPointExtension>
        </extensions>
      </trkpt>
      <trkpt lat="37.98967030830681324005126953125" lon="-107.74836690165102481842041015625">
        <ele>4164.7998046875</ele>
        <time>2026-08-15T16:09:07.000Z</time>
        <extensions>
          <ns3:TrackPointExtension>
            <ns3:hr>114</ns3:hr>
            <ns3:cad>0</ns3:cad>
          </ns3:TrackPointExtension>
        </extensions>
      </trkpt>
      <trkpt lat="37.98968556337058544158935546875" lon="-107.748379893600940704345703125">
        <ele>4165.60009765625</ele>
        <time>2026-08-15T16:09:13.000Z</time>
        <extensions>
          <ns3:TrackPointExtension>
            <ns3:hr>114</ns3:hr>
            <ns3:cad>0</ns3:cad>
          </ns3:TrackPointExtension>
        </extensions>
      </trkpt>
      <trkpt lat="37.98968690447509288787841796875" lon="-107.74838366545736789703369140625">
        <ele>4165.7998046875</ele>
        <time>2026-08-15T16:09:15.000Z</time>
        <extensions>
          <ns3:TrackPointExtension>
            <ns3:hr>116</ns3:hr>
            <ns3:cad>0</ns3:cad>
          </ns3:TrackPointExtension>
        </extensions>
      </trkpt>
      <trkpt lat="37.98969025723636150360107421875" lon="-107.74840109981596469879150390625">
        <ele>4166.7998046875</ele>
        <time>2026-08-15T16:09:19.000Z</time>
        <extensions>
          <ns3:TrackPointExtension>
            <ns3:hr>117</ns3:hr>
            <ns3:cad>0</ns3:cad>
          </ns3:TrackPointExtension>
        </extensions>
      </trkpt>
      <trkpt lat="37.98969428054988384246826171875" lon="-107.7484129182994365692138671875">
        <ele>4167.60009765625</ele>
        <time>2026-08-15T16:09:21.000Z</time>
        <extensions>
          <ns3:TrackPointExtension>
            <ns3:hr>117</ns3:hr>
            <ns3:cad>48</ns3:cad>
          </ns3:TrackPointExtension>
        </extensions>
      </trkpt>
      <trkpt lat="37.9896975494921207427978515625" lon="-107.748422808945178985595703125">
        <ele>4168</ele>
        <time>2026-08-15T16:09:22.000Z</time>
        <extensions>
          <ns3:TrackPointExtension>
            <ns3:hr>117</ns3:hr>
            <ns3:cad>48</ns3:cad>
          </ns3:TrackPointExtension>
        </extensions>
      </trkpt>
      <trkpt lat="37.98970165662467479705810546875" lon="-107.74844191968441009521484375">
        <ele>4169.2001953125</ele>
        <time>2026-08-15T16:09:26.000Z</time>
        <extensions>
          <ns3:TrackPointExtension>
            <ns3:hr>118</ns3:hr>
            <ns3:cad>0</ns3:cad>
          </ns3:TrackPointExtension>
        </extensions>
      </trkpt>
      <trkpt lat="37.9897005669772624969482421875" lon="-107.7484420873224735260009765625">
        <ele>4169.39990234375</ele>
        <time>2026-08-15T16:09:27.000Z</time>
        <extensions>
          <ns3:TrackPointExtension>
            <ns3:hr>118</ns3:hr>
            <ns3:cad>0</ns3:cad>
          </ns3:TrackPointExtension>
        </extensions>
      </trkpt>
      <trkpt lat="37.9897002317011356353759765625" lon="-107.7484430931508541107177734375">
        <ele>4169.39990234375</ele>
        <time>2026-08-15T16:09:33.000Z</time>
        <extensions>
          <ns3:TrackPointExtension>
            <ns3:hr>118</ns3:hr>
            <ns3:cad>0</ns3:cad>
          </ns3:TrackPointExtension>
        </extensions>
      </trkpt>
      <trkpt lat="37.98970668576657772064208984375" lon="-107.7484461106359958648681640625">
        <ele>4168.7998046875</ele>
        <time>2026-08-15T16:09:37.000Z</time>
        <extensions>
          <ns3:TrackPointExtension>
            <ns3:hr>118</ns3:hr>
            <ns3:cad>86</ns3:cad>
          </ns3:TrackPointExtension>
        </extensions>
      </trkpt>
      <trkpt lat="37.989712469279766082763671875" lon="-107.74845935404300689697265625">
        <ele>4169</ele>
        <time>2026-08-15T16:09:39.000Z</time>
        <extensions>
          <ns3:TrackPointExtension>
            <ns3:hr>115</ns3:hr>
            <ns3:cad>0</ns3:cad>
          </ns3:TrackPointExtension>
        </extensions>
      </trkpt>
      <trkpt lat="37.989716827869415283203125" lon="-107.7484585158526897430419921875">
        <ele>4169.7998046875</ele>
        <time>2026-08-15T16:09:42.000Z</time>
        <extensions>
          <ns3:TrackPointExtension>
            <ns3:hr>113</ns3:hr>
            <ns3:cad>0</ns3:cad>
          </ns3:TrackPointExtension>
        </extensions>
      </trkpt>
      <trkpt lat="37.98972931690514087677001953125" lon="-107.7484679035842418670654296875">
        <ele>4170.2001953125</ele>
        <time>2026-08-15T16:09:44.000Z</time>
        <extensions>
          <ns3:TrackPointExtension>
            <ns3:hr>111</ns3:hr>
            <ns3:cad>0</ns3:cad>
          </ns3:TrackPointExtension>
        </extensions>
      </trkpt>
      <trkpt lat="37.98973065800964832305908203125" lon="-107.74847276508808135986328125">
        <ele>4170.60009765625</ele>
        <time>2026-08-15T16:09:46.000Z</time>
        <extensions>
          <ns3:TrackPointExtension>
            <ns3:hr>111</ns3:hr>
            <ns3:cad>0</ns3:cad>
          </ns3:TrackPointExtension>
        </extensions>
      </trkpt>
      <trkpt lat="37.98972554504871368408203125" lon="-107.74847938679158687591552734375">
        <ele>4171.39990234375</ele>
        <time>2026-08-15T16:09:49.000Z</time>
        <extensions>
          <ns3:TrackPointExtension>
            <ns3:hr>116</ns3:hr>
            <ns3:cad>0</ns3:cad>
          </ns3:TrackPointExtension>
        </extensions>
      </trkpt>
      <trkpt lat="37.98972965218126773834228515625" lon="-107.7484903670847415924072265625">
        <ele>4171.7998046875</ele>
        <time>2026-08-15T16:09:50.000Z</time>
        <extensions>
          <ns3:TrackPointExtension>
            <ns3:hr>117</ns3:hr>
            <ns3:cad>0</ns3:cad>
          </ns3:TrackPointExtension>
        </extensions>
      </trkpt>
      <trkpt lat="37.9897344298660755157470703125" lon="-107.74849698878824710845947265625">
        <ele>4172.39990234375</ele>
        <time>2026-08-15T16:09:52.000Z</time>
        <extensions>
          <ns3:TrackPointExtension>
            <ns3:hr>121</ns3:hr>
            <ns3:cad>0</ns3:cad>
          </ns3:TrackPointExtension>
        </extensions>
      </trkpt>
      <trkpt lat="37.98973183147609233856201171875" lon="-107.74848391301929950714111328125">
        <ele>4172.39990234375</ele>
        <time>2026-08-15T16:09:53.000Z</time>
        <extensions>
          <ns3:TrackPointExtension>
            <ns3:hr>121</ns3:hr>
            <ns3:cad>0</ns3:cad>
          </ns3:TrackPointExtension>
        </extensions>
      </trkpt>
      <trkpt lat="37.989727221429347991943359375" lon="-107.748489193618297576904296875">
        <ele>4172.60009765625</ele>
        <time>2026-08-15T16:09:54.000Z</time>
        <extensions>
          <ns3:TrackPointExtension>
            <ns3:hr>119</ns3:hr>
            <ns3:cad>0</ns3:cad>
          </ns3:TrackPointExtension>
        </extensions>
      </trkpt>
      <trkpt lat="37.98970819450914859771728515625" lon="-107.74850185029208660125732421875">
        <ele>4172.7998046875</ele>
        <time>2026-08-15T16:09:58.000Z</time>
        <extensions>
          <ns3:TrackPointExtension>
            <ns3:hr>116</ns3:hr>
            <ns3:cad>0</ns3:cad>
          </ns3:TrackPointExtension>
        </extensions>
      </trkpt>
      <trkpt lat="37.9897101223468780517578125" lon="-107.7485051192343235015869140625">
        <ele>4173.2001953125</ele>
        <time>2026-08-15T16:10:00.000Z</time>
        <extensions>
          <ns3:TrackPointExtension>
            <ns3:hr>114</ns3:hr>
            <ns3:cad>0</ns3:cad>
          </ns3:TrackPointExtension>
        </extensions>
      </trkpt>
      <trkpt lat="37.9897101223468780517578125" lon="-107.7485051192343235015869140625">
        <ele>4173.60009765625</ele>
        <time>2026-08-15T16:10:01.000Z</time>
        <extensions>
          <ns3:TrackPointExtension>
            <ns3:hr>114</ns3:hr>
            <ns3:cad>0</ns3:cad>
          </ns3:TrackPointExtension>
        </extensions>
      </trkpt>
      <trkpt lat="37.98970635049045085906982421875" lon="-107.74851878173649311065673828125">
        <ele>4174.39990234375</ele>
        <time>2026-08-15T16:10:05.000Z</time>
        <extensions>
          <ns3:TrackPointExtension>
            <ns3:hr>114</ns3:hr>
            <ns3:cad>0</ns3:cad>
          </ns3:TrackPointExtension>
        </extensions>
      </trkpt>
      <trkpt lat="37.989701069891452789306640625" lon="-107.74852213449776172637939453125">
        <ele>4174.60009765625</ele>
        <time>2026-08-15T16:10:06.000Z</time>
        <extensions>
          <ns3:TrackPointExtension>
            <ns3:hr>115</ns3:hr>
            <ns3:cad>0</ns3:cad>
          </ns3:TrackPointExtension>
        </extensions>
      </trkpt>
      <trkpt lat="37.9896868206560611724853515625" lon="-107.7485282532870769500732421875">
        <ele>4175.2001953125</ele>
        <time>2026-08-15T16:10:10.000Z</time>
        <extensions>
          <ns3:TrackPointExtension>
            <ns3:hr>117</ns3:hr>
            <ns3:cad>71</ns3:cad>
          </ns3:TrackPointExtension>
        </extensions>
      </trkpt>
      <trkpt lat="37.98967902548611164093017578125" lon="-107.7485458552837371826171875">
        <ele>4175.60009765625</ele>
        <time>2026-08-15T16:10:13.000Z</time>
        <extensions>
          <ns3:TrackPointExtension>
            <ns3:hr>118</ns3:hr>
            <ns3:cad>0</ns3:cad>
          </ns3:TrackPointExtension>
        </extensions>
      </trkpt>
      <trkpt lat="37.98966796137392520904541015625" lon="-107.748553566634654998779296875">
        <ele>4175.60009765625</ele>
        <time>2026-08-15T16:10:17.000Z</time>
        <extensions>
          <ns3:TrackPointExtension>
            <ns3:hr>118</ns3:hr>
            <ns3:cad>72</ns3:cad>
          </ns3:TrackPointExtension>
        </extensions>
      </trkpt>
      <trkpt lat="37.98967265523970127105712890625" lon="-107.748589105904102325439453125">
        <ele>4176.2001953125</ele>
        <time>2026-08-15T16:10:22.000Z</time>
        <extensions>
          <ns3:TrackPointExtension>
            <ns3:hr>116</ns3:hr>
            <ns3:cad>0</ns3:cad>
          </ns3:TrackPointExtension>
        </extensions>
      </trkpt>
      <trkpt lat="37.9896740801632404327392578125" lon="-107.74858784861862659454345703125">
        <ele>4176.39990234375</ele>
        <time>2026-08-15T16:10:23.000Z</time>
        <extensions>
          <ns3:TrackPointExtension>
            <ns3:hr>113</ns3:hr>
            <ns3:cad>75</ns3:cad>
          </ns3:TrackPointExtension>
        </extensions>
      </trkpt>
      <trkpt lat="37.989678941667079925537109375" lon="-107.74859555996954441070556640625">
        <ele>4176.60009765625</ele>
        <time>2026-08-15T16:10:24.000Z</time>
        <extensions>
          <ns3:TrackPointExtension>
            <ns3:hr>112</ns3:hr>
            <ns3:cad>75</ns3:cad>
          </ns3:TrackPointExtension>
        </extensions>
      </trkpt>
      <trkpt lat="37.9896941967308521270751953125" lon="-107.74860410951077938079833984375">
        <ele>4177.39990234375</ele>
        <time>2026-08-15T16:10:27.000Z</time>
        <extensions>
          <ns3:TrackPointExtension>
            <ns3:hr>110</ns3:hr>
            <ns3:cad>75</ns3:cad>
          </ns3:TrackPointExtension>
        </extensions>
      </trkpt>
      <trkpt lat="37.989697717130184173583984375" lon="-107.74860779754817485809326171875">
        <ele>4177.7998046875</ele>
        <time>2026-08-15T16:10:29.000Z</time>
        <extensions>
          <ns3:TrackPointExtension>
            <ns3:hr>110</ns3:hr>
            <ns3:cad>74</ns3:cad>
          </ns3:TrackPointExtension>
        </extensions>
      </trkpt>
      <trkpt lat="37.98970534466207027435302734375" lon="-107.748613245785236358642578125">
        <ele>4178.60009765625</ele>
        <time>2026-08-15T16:10:32.000Z</time>
        <extensions>
          <ns3:TrackPointExtension>
            <ns3:hr>113</ns3:hr>
            <ns3:cad>74</ns3:cad>
          </ns3:TrackPointExtension>
        </extensions>
      </trkpt>
      <trkpt lat="37.98970316536724567413330078125" lon="-107.74862028658390045166015625">
        <ele>4178.7998046875</ele>
        <time>2026-08-15T16:10:34.000Z</time>
        <extensions>
          <ns3:TrackPointExtension>
            <ns3:hr>114</ns3:hr>
            <ns3:cad>0</ns3:cad>
          </ns3:TrackPointExtension>
        </extensions>
      </trkpt>
      <trkpt lat="37.9897133074700832366943359375" lon="-107.748628668487071990966796875">
        <ele>4179</ele>
        <time>2026-08-15T16:10:36.000Z</time>
        <extensions>
          <ns3:TrackPointExtension>
            <ns3:hr>118</ns3:hr>
            <ns3:cad>0</ns3:cad>
          </ns3:TrackPointExtension>
        </extensions>
      </trkpt>
      <trkpt lat="37.9897237010300159454345703125" lon="-107.74863101541996002197265625">
        <ele>4179.39990234375</ele>
        <time>2026-08-15T16:10:39.000Z</time>
        <extensions>
          <ns3:TrackPointExtension>
            <ns3:hr>120</ns3:hr>
            <ns3:cad>43</ns3:cad>
          </ns3:TrackPointExtension>
        </extensions>
      </trkpt>
      <trkpt lat="37.98973082564771175384521484375" lon="-107.7486305125057697296142578125">
        <ele>4180</ele>
        <time>2026-08-15T16:10:42.000Z</time>
        <extensions>
          <ns3:TrackPointExtension>
            <ns3:hr>121</ns3:hr>
            <ns3:cad>43</ns3:cad>
          </ns3:TrackPointExtension>
        </extensions>
      </trkpt>
      <trkpt lat="37.989743314683437347412109375" lon="-107.74863361380994319915771484375">
        <ele>4180.39990234375</ele>
        <time>2026-08-15T16:10:45.000Z</time>
        <extensions>
          <ns3:TrackPointExtension>
            <ns3:hr>121</ns3:hr>
            <ns3:cad>43</ns3:cad>
          </ns3:TrackPointExtension>
        </extensions>
      </trkpt>
      <trkpt lat="37.98977114260196685791015625" lon="-107.74864551611244678497314453125">
        <ele>4181</ele>
        <time>2026-08-15T16:10:51.000Z</time>
        <extensions>
          <ns3:TrackPointExtension>
            <ns3:hr>122</ns3:hr>
            <ns3:cad>0</ns3:cad>
          </ns3:TrackPointExtension>
        </extensions>
      </trkpt>
      <trkpt lat="37.98980391584336757659912109375" lon="-107.74865658022463321685791015625">
        <ele>4182</ele>
        <time>2026-08-15T16:10:56.000Z</time>
        <extensions>
          <ns3:TrackPointExtension>
            <ns3:hr>122</ns3:hr>
            <ns3:cad>41</ns3:cad>
          </ns3:TrackPointExtension>
        </extensions>
      </trkpt>
      <trkpt lat="37.98980039544403553009033203125" lon="-107.74865305982530117034912109375">
        <ele>4182.2001953125</ele>
        <time>2026-08-15T16:10:57.000Z</time>
        <extensions>
          <ns3:TrackPointExtension>
            <ns3:hr>122</ns3:hr>
            <ns3:cad>45</ns3:cad>
          </ns3:TrackPointExtension>
        </extensions>
      </trkpt>
      <trkpt lat="37.98981699161231517791748046875" lon="-107.74866320192813873291015625">
        <ele>4182.7998046875</ele>
        <time>2026-08-15T16:11:01.000Z</time>
        <extensions>
          <ns3:TrackPointExtension>
            <ns3:hr>120</ns3:hr>
            <ns3:cad>0</ns3:cad>
          </ns3:TrackPointExtension>
        </extensions>
      </trkpt>
      <trkpt lat="37.989821098744869232177734375" lon="-107.7486744336783885955810546875">
        <ele>4183.2001953125</ele>
        <time>2026-08-15T16:11:03.000Z</time>
        <extensions>
          <ns3:TrackPointExtension>
            <ns3:hr>120</ns3:hr>
            <ns3:cad>0</ns3:cad>
          </ns3:TrackPointExtension>
        </extensions>
      </trkpt>
      <trkpt lat="37.989831827580928802490234375" lon="-107.748672924935817718505859375">
        <ele>4184</ele>
        <time>2026-08-15T16:11:07.000Z</time>
        <extensions>
          <ns3:TrackPointExtension>
            <ns3:hr>119</ns3:hr>
            <ns3:cad>0</ns3:cad>
          </ns3:TrackPointExtension>
        </extensions>
      </trkpt>
      <trkpt lat="37.98984096385538578033447265625" lon="-107.7486558258533477783203125">
        <ele>4184.2001953125</ele>
        <time>2026-08-15T16:11:09.000Z</time>
        <extensions>
          <ns3:TrackPointExtension>
            <ns3:hr>119</ns3:hr>
            <ns3:cad>0</ns3:cad>
          </ns3:TrackPointExtension>
        </extensions>
      </trkpt>
      <trkpt lat="37.98985839821398258209228515625" lon="-107.7486533112823963165283203125">
        <ele>4184.60009765625</ele>
        <time>2026-08-15T16:11:11.000Z</time>
        <extensions>
          <ns3:TrackPointExtension>
            <ns3:hr>119</ns3:hr>
            <ns3:cad>0</ns3:cad>
          </ns3:TrackPointExtension>
        </extensions>
      </trkpt>
      <trkpt lat="37.9898618347942829132080078125" lon="-107.74864836595952510833740234375">
        <ele>4184.7998046875</ele>
        <time>2026-08-15T16:11:13.000Z</time>
        <extensions>
          <ns3:TrackPointExtension>
            <ns3:hr>119</ns3:hr>
            <ns3:cad>0</ns3:cad>
          </ns3:TrackPointExtension>
        </extensions>
      </trkpt>
      <trkpt lat="37.98986510373651981353759765625" lon="-107.74864451028406620025634765625">
        <ele>4185</ele>
        <time>2026-08-15T16:11:14.000Z</time>
        <extensions>
          <ns3:TrackPointExtension>
            <ns3:hr>119</ns3:hr>
            <ns3:cad>0</ns3:cad>
          </ns3:TrackPointExtension>
        </extensions>
      </trkpt>
      <trkpt lat="37.9898764193058013916015625" lon="-107.748634703457355499267578125">
        <ele>4185.39990234375</ele>
        <time>2026-08-15T16:11:16.000Z</time>
        <extensions>
          <ns3:TrackPointExtension>
            <ns3:hr>119</ns3:hr>
            <ns3:cad>0</ns3:cad>
          </ns3:TrackPointExtension>
        </extensions>
      </trkpt>
      <trkpt lat="37.98987935297191143035888671875" lon="-107.7486281655728816986083984375">
        <ele>4185.39990234375</ele>
        <time>2026-08-15T16:11:18.000Z</time>
        <extensions>
          <ns3:TrackPointExtension>
            <ns3:hr>119</ns3:hr>
            <ns3:cad>0</ns3:cad>
          </ns3:TrackPointExtension>
        </extensions>
      </trkpt>
      <trkpt lat="37.98988304100930690765380859375" lon="-107.7486305125057697296142578125">
        <ele>4185.60009765625</ele>
        <time>2026-08-15T16:11:20.000Z</time>
        <extensions>
          <ns3:TrackPointExtension>
            <ns3:hr>120</ns3:hr>
            <ns3:cad>0</ns3:cad>
          </ns3:TrackPointExtension>
        </extensions>
      </trkpt>
      <trkpt lat="37.989902906119823455810546875" lon="-107.748624980449676513671875">
        <ele>4186.39990234375</ele>
        <time>2026-08-15T16:11:24.000Z</time>
        <extensions>
          <ns3:TrackPointExtension>
            <ns3:hr>120</ns3:hr>
            <ns3:cad>0</ns3:cad>
          </ns3:TrackPointExtension>
        </extensions>
      </trkpt>
      <trkpt lat="37.98990718089044094085693359375" lon="-107.7486236393451690673828125">
        <ele>4186.60009765625</ele>
        <time>2026-08-15T16:11:25.000Z</time>
        <extensions>
          <ns3:TrackPointExtension>
            <ns3:hr>120</ns3:hr>
            <ns3:cad>0</ns3:cad>
          </ns3:TrackPointExtension>
        </extensions>
      </trkpt>
      <trkpt lat="37.98994087614119052886962890625" lon="-107.748626656830310821533203125">
        <ele>4187.2001953125</ele>
        <time>2026-08-15T16:11:30.000Z</time>
        <extensions>
          <ns3:TrackPointExtension>
            <ns3:hr>117</ns3:hr>
            <ns3:cad>0</ns3:cad>
          </ns3:TrackPointExtension>
        </extensions>
      </trkpt>
      <trkpt lat="37.989957891404628753662109375" lon="-107.74863948114216327667236328125">
        <ele>4187.2001953125</ele>
        <time>2026-08-15T16:11:34.000Z</time>
        <extensions>
          <ns3:TrackPointExtension>
            <ns3:hr>120</ns3:hr>
            <ns3:cad>46</ns3:cad>
          </ns3:TrackPointExtension>
        </extensions>
      </trkpt>
      <trkpt lat="37.989961244165897369384765625" lon="-107.7486450970172882080078125">
        <ele>4187.2001953125</ele>
        <time>2026-08-15T16:11:35.000Z</time>
        <extensions>
          <ns3:TrackPointExtension>
            <ns3:hr>121</ns3:hr>
            <ns3:cad>0</ns3:cad>
          </ns3:TrackPointExtension>
        </extensions>
      </trkpt>
      <trkpt lat="37.98999519087374210357666015625" lon="-107.74866781197488307952880859375">
        <ele>4187.7998046875</ele>
        <time>2026-08-15T16:11:39.000Z</time>
        <extensions>
          <ns3:TrackPointExtension>
            <ns3:hr>122</ns3:hr>
            <ns3:cad>0</ns3:cad>
          </ns3:TrackPointExtension>
        </extensions>
      </trkpt>
      <trkpt lat="37.98999787308275699615478515625" lon="-107.74867049418389797210693359375">
        <ele>4188</ele>
        <time>2026-08-15T16:11:40.000Z</time>
        <extensions>
          <ns3:TrackPointExtension>
            <ns3:hr>121</ns3:hr>
            <ns3:cad>0</ns3:cad>
          </ns3:TrackPointExtension>
        </extensions>
      </trkpt>
      <trkpt lat="37.9900153912603855133056640625" lon="-107.7486928738653659820556640625">
        <ele>4189</ele>
        <time>2026-08-15T16:11:45.000Z</time>
        <extensions>
          <ns3:TrackPointExtension>
            <ns3:hr>120</ns3:hr>
            <ns3:cad>0</ns3:cad>
          </ns3:TrackPointExtension>
        </extensions>
      </trkpt>
      <trkpt lat="37.99000809900462627410888671875" lon="-107.74869027547538280487060546875">
        <ele>4189</ele>
        <time>2026-08-15T16:11:46.000Z</time>
        <extensions>
          <ns3:TrackPointExtension>
            <ns3:hr>120</ns3:hr>
            <ns3:cad>0</ns3:cad>
          </ns3:TrackPointExtension>
        </extensions>
      </trkpt>
      <trkpt lat="37.98997289501130580902099609375" lon="-107.7486828155815601348876953125">
        <ele>4189.39990234375</ele>
        <time>2026-08-15T16:11:51.000Z</time>
        <extensions>
          <ns3:TrackPointExtension>
            <ns3:hr>119</ns3:hr>
            <ns3:cad>57</ns3:cad>
          </ns3:TrackPointExtension>
        </extensions>
      </trkpt>
      <trkpt lat="37.98994339071214199066162109375" lon="-107.748727239668369293212890625">
        <ele>4189.60009765625</ele>
        <time>2026-08-15T16:11:57.000Z</time>
        <extensions>
          <ns3:TrackPointExtension>
            <ns3:hr>118</ns3:hr>
            <ns3:cad>59</ns3:cad>
          </ns3:TrackPointExtension>
        </extensions>
      </trkpt>
      <trkpt lat="37.989947162568569183349609375" lon="-107.74873201735317707061767578125">
        <ele>4189.7998046875</ele>
        <time>2026-08-15T16:11:58.000Z</time>
        <extensions>
          <ns3:TrackPointExtension>
            <ns3:hr>117</ns3:hr>
            <ns3:cad>59</ns3:cad>
          </ns3:TrackPointExtension>
        </extensions>
      </trkpt>
      <trkpt lat="37.98994607292115688323974609375" lon="-107.74873201735317707061767578125">
        <ele>4190</ele>
        <time>2026-08-15T16:11:59.000Z</time>
        <extensions>
          <ns3:TrackPointExtension>
            <ns3:hr>117</ns3:hr>
            <ns3:cad>59</ns3:cad>
          </ns3:TrackPointExtension>
        </extensions>
      </trkpt>
      <trkpt lat="37.98994389362633228302001953125" lon="-107.74875129573047161102294921875">
        <ele>4190.2001953125</ele>
        <time>2026-08-15T16:12:01.000Z</time>
        <extensions>
          <ns3:TrackPointExtension>
            <ns3:hr>116</ns3:hr>
            <ns3:cad>59</ns3:cad>
          </ns3:TrackPointExtension>
        </extensions>
      </trkpt>
      <trkpt lat="37.98994087614119052886962890625" lon="-107.74877023883163928985595703125">
        <ele>4190.39990234375</ele>
        <time>2026-08-15T16:12:03.000Z</time>
        <extensions>
          <ns3:TrackPointExtension>
            <ns3:hr>116</ns3:hr>
            <ns3:cad>55</ns3:cad>
          </ns3:TrackPointExtension>
        </extensions>
      </trkpt>
      <trkpt lat="37.989939115941524505615234375" lon="-107.7488286606967449188232421875">
        <ele>4191.2001953125</ele>
        <time>2026-08-15T16:12:07.000Z</time>
        <extensions>
          <ns3:TrackPointExtension>
            <ns3:hr>117</ns3:hr>
            <ns3:cad>45</ns3:cad>
          </ns3:TrackPointExtension>
        </extensions>
      </trkpt>
      <trkpt lat="37.98994590528309345245361328125" lon="-107.7488430775701999664306640625">
        <ele>4191.2001953125</ele>
        <time>2026-08-15T16:12:08.000Z</time>
        <extensions>
          <ns3:TrackPointExtension>
            <ns3:hr>117</ns3:hr>
            <ns3:cad>45</ns3:cad>
          </ns3:TrackPointExtension>
        </extensions>
      </trkpt>
      <trkpt lat="37.989951856434345245361328125" lon="-107.7488953806459903717041015625">
        <ele>4191.7998046875</ele>
        <time>2026-08-15T16:12:13.000Z</time>
        <extensions>
          <ns3:TrackPointExtension>
            <ns3:hr>118</ns3:hr>
            <ns3:cad>45</ns3:cad>
          </ns3:TrackPointExtension>
        </extensions>
      </trkpt>
      <trkpt lat="37.98995663411915302276611328125" lon="-107.74890636093914508819580078125">
        <ele>4192.39990234375</ele>
        <time>2026-08-15T16:12:15.000Z</time>
        <extensions>
          <ns3:TrackPointExtension>
            <ns3:hr>116</ns3:hr>
            <ns3:cad>45</ns3:cad>
          </ns3:TrackPointExtension>
        </extensions>
      </trkpt>
      <trkpt lat="37.9899614118039608001708984375" lon="-107.7489240467548370361328125">
        <ele>4192.7998046875</ele>
        <time>2026-08-15T16:12:18.000Z</time>
        <extensions>
          <ns3:TrackPointExtension>
            <ns3:hr>116</ns3:hr>
            <ns3:cad>47</ns3:cad>
          </ns3:TrackPointExtension>
        </extensions>
      </trkpt>
      <trkpt lat="37.98995219171047210693359375" lon="-107.7489507012069225311279296875">
        <ele>4193.39990234375</ele>
        <time>2026-08-15T16:12:22.000Z</time>
        <extensions>
          <ns3:TrackPointExtension>
            <ns3:hr>117</ns3:hr>
            <ns3:cad>46</ns3:cad>
          </ns3:TrackPointExtension>
        </extensions>
      </trkpt>
      <trkpt lat="37.98995177261531352996826171875" lon="-107.7489577420055866241455078125">
        <ele>4194</ele>
        <time>2026-08-15T16:12:24.000Z</time>
        <extensions>
          <ns3:TrackPointExtension>
            <ns3:hr>118</ns3:hr>
            <ns3:cad>46</ns3:cad>
          </ns3:TrackPointExtension>
        </extensions>
      </trkpt>
      <trkpt lat="37.98994557000696659088134765625" lon="-107.7489615976810455322265625">
        <ele>4194.60009765625</ele>
        <time>2026-08-15T16:12:27.000Z</time>
        <extensions>
          <ns3:TrackPointExtension>
            <ns3:hr>118</ns3:hr>
            <ns3:cad>91</ns3:cad>
          </ns3:TrackPointExtension>
        </extensions>
      </trkpt>
      <trkpt lat="37.98994288779795169830322265625" lon="-107.748973667621612548828125">
        <ele>4195.2001953125</ele>
        <time>2026-08-15T16:12:29.000Z</time>
        <extensions>
          <ns3:TrackPointExtension>
            <ns3:hr>118</ns3:hr>
            <ns3:cad>0</ns3:cad>
          </ns3:TrackPointExtension>
        </extensions>
      </trkpt>
      <trkpt lat="37.98994523473083972930908203125" lon="-107.7489664591848850250244140625">
        <ele>4195.7998046875</ele>
        <time>2026-08-15T16:12:31.000Z</time>
        <extensions>
          <ns3:TrackPointExtension>
            <ns3:hr>117</ns3:hr>
            <ns3:cad>0</ns3:cad>
          </ns3:TrackPointExtension>
        </extensions>
      </trkpt>
      <trkpt lat="37.9899359308183193206787109375" lon="-107.7489761821925640106201171875">
        <ele>4196.39990234375</ele>
        <time>2026-08-15T16:12:33.000Z</time>
        <extensions>
          <ns3:TrackPointExtension>
            <ns3:hr>118</ns3:hr>
            <ns3:cad>42</ns3:cad>
          </ns3:TrackPointExtension>
        </extensions>
      </trkpt>
      <trkpt lat="37.98992344178259372711181640625" lon="-107.74898850359022617340087890625">
        <ele>4197</ele>
        <time>2026-08-15T16:12:36.000Z</time>
        <extensions>
          <ns3:TrackPointExtension>
            <ns3:hr>119</ns3:hr>
            <ns3:cad>42</ns3:cad>
          </ns3:TrackPointExtension>
        </extensions>
      </trkpt>
      <trkpt lat="37.989897541701793670654296875" lon="-107.74899872951209545135498046875">
        <ele>4197.2001953125</ele>
        <time>2026-08-15T16:12:39.000Z</time>
        <extensions>
          <ns3:TrackPointExtension>
            <ns3:hr>118</ns3:hr>
            <ns3:cad>44</ns3:cad>
          </ns3:TrackPointExtension>
        </extensions>
      </trkpt>
      <trkpt lat="37.98985186032950878143310546875" lon="-107.74904969148337841033935546875">
        <ele>4197.39990234375</ele>
        <time>2026-08-15T16:12:45.000Z</time>
        <extensions>
          <ns3:TrackPointExtension>
            <ns3:hr>118</ns3:hr>
            <ns3:cad>49</ns3:cad>
          </ns3:TrackPointExtension>
        </extensions>
      </trkpt>
      <trkpt lat="37.9897890798747539520263671875" lon="-107.74910652078688144683837890625">
        <ele>4197.60009765625</ele>
        <time>2026-08-15T16:12:51.000Z</time>
        <extensions>
          <ns3:TrackPointExtension>
            <ns3:hr>118</ns3:hr>
            <ns3:cad>53</ns3:cad>
          </ns3:TrackPointExtension>
        </extensions>
      </trkpt>
      <trkpt lat="37.98978145234286785125732421875" lon="-107.749116159975528717041015625">
        <ele>4197.60009765625</ele>
        <time>2026-08-15T16:12:52.000Z</time>
        <extensions>
          <ns3:TrackPointExtension>
            <ns3:hr>118</ns3:hr>
            <ns3:cad>53</ns3:cad>
          </ns3:TrackPointExtension>
        </extensions>
      </trkpt>
      <trkpt lat="37.98972018063068389892578125" lon="-107.74916837923228740692138671875">
        <ele>4197.7998046875</ele>
        <time>2026-08-15T16:12:58.000Z</time>
        <extensions>
          <ns3:TrackPointExtension>
            <ns3:hr>118</ns3:hr>
            <ns3:cad>53</ns3:cad>
          </ns3:TrackPointExtension>
        </extensions>
      </trkpt>
      <trkpt lat="37.98970836214721202850341796875" lon="-107.74917843751609325408935546875">
        <ele>4197.7998046875</ele>
        <time>2026-08-15T16:12:59.000Z</time>
        <extensions>
          <ns3:TrackPointExtension>
            <ns3:hr>117</ns3:hr>
            <ns3:cad>55</ns3:cad>
          </ns3:TrackPointExtension>
        </extensions>
      </trkpt>
      <trkpt lat="37.9896982200443744659423828125" lon="-107.74919092655181884765625">
        <ele>4198</ele>
        <time>2026-08-15T16:13:00.000Z</time>
        <extensions>
          <ns3:TrackPointExtension>
            <ns3:hr>117</ns3:hr>
            <ns3:cad>55</ns3:cad>
          </ns3:TrackPointExtension>
        </extensions>
      </trkpt>
      <trkpt lat="37.98967483453452587127685546875" lon="-107.74924498982727527618408203125">
        <ele>4197.2001953125</ele>
        <time>2026-08-15T16:13:06.000Z</time>
        <extensions>
          <ns3:TrackPointExtension>
            <ns3:hr>118</ns3:hr>
            <ns3:cad>53</ns3:cad>
          </ns3:TrackPointExtension>
        </extensions>
      </trkpt>
      <trkpt lat="37.98967617563903331756591796875" lon="-107.7492440678179264068603515625">
        <ele>4196.7998046875</ele>
        <time>2026-08-15T16:13:07.000Z</time>
        <extensions>
          <ns3:TrackPointExtension>
            <ns3:hr>118</ns3:hr>
            <ns3:cad>0</ns3:cad>
          </ns3:TrackPointExtension>
        </extensions>
      </trkpt>
      <trkpt lat="37.9896760918200016021728515625" lon="-107.74924381636083126068115234375">
        <ele>4196.60009765625</ele>
        <time>2026-08-15T16:13:13.000Z</time>
        <extensions>
          <ns3:TrackPointExtension>
            <ns3:hr>119</ns3:hr>
            <ns3:cad>0</ns3:cad>
          </ns3:TrackPointExtension>
        </extensions>
      </trkpt>
      <trkpt lat="37.9896760918200016021728515625" lon="-107.74924381636083126068115234375">
        <ele>4196.60009765625</ele>
        <time>2026-08-15T16:13:16.000Z</time>
        <extensions>
          <ns3:TrackPointExtension>
            <ns3:hr>119</ns3:hr>
            <ns3:cad>0</ns3:cad>
          </ns3:TrackPointExtension>
        </extensions>
      </trkpt>
      <trkpt lat="37.98967097885906696319580078125" lon="-107.74926627986133098602294921875">
        <ele>4197.7998046875</ele>
        <time>2026-08-15T16:13:22.000Z</time>
        <extensions>
          <ns3:TrackPointExtension>
            <ns3:hr>118</ns3:hr>
            <ns3:cad>0</ns3:cad>
          </ns3:TrackPointExtension>
        </extensions>
      </trkpt>
      <trkpt lat="37.989673577249050140380859375" lon="-107.7492718957364559173583984375">
        <ele>4198</ele>
        <time>2026-08-15T16:13:23.000Z</time>
        <extensions>
          <ns3:TrackPointExtension>
            <ns3:hr>119</ns3:hr>
            <ns3:cad>0</ns3:cad>
          </ns3:TrackPointExtension>
        </extensions>
      </trkpt>
      <trkpt lat="37.9896754212677478790283203125" lon="-107.7492739073932170867919921875">
        <ele>4197.39990234375</ele>
        <time>2026-08-15T16:13:29.000Z</time>
        <extensions>
          <ns3:TrackPointExtension>
            <ns3:hr>119</ns3:hr>
            <ns3:cad>0</ns3:cad>
          </ns3:TrackPointExtension>
        </extensions>
      </trkpt>
      <trkpt lat="37.9896754212677478790283203125" lon="-107.7492739073932170867919921875">
        <ele>4197</ele>
        <time>2026-08-15T16:13:31.000Z</time>
        <extensions>
          <ns3:TrackPointExtension>
            <ns3:hr>119</ns3:hr>
            <ns3:cad>46</ns3:cad>
          </ns3:TrackPointExtension>
        </extensions>
      </trkpt>
      <trkpt lat="37.9896754212677478790283203125" lon="-107.7492739073932170867919921875">
        <ele>4197.2001953125</ele>
        <time>2026-08-15T16:13:36.000Z</time>
        <extensions>
          <ns3:TrackPointExtension>
            <ns3:hr>121</ns3:hr>
            <ns3:cad>0</ns3:cad>
          </ns3:TrackPointExtension>
        </extensions>
      </trkpt>
      <trkpt lat="37.9896754212677478790283203125" lon="-107.7492739073932170867919921875">
        <ele>4197</ele>
        <time>2026-08-15T16:13:42.000Z</time>
        <extensions>
          <ns3:TrackPointExtension>
            <ns3:hr>122</ns3:hr>
            <ns3:cad>0</ns3:cad>
          </ns3:TrackPointExtension>
        </extensions>
      </trkpt>
      <trkpt lat="37.9896754212677478790283203125" lon="-107.7492739073932170867919921875">
        <ele>4197.2001953125</ele>
        <time>2026-08-15T16:13:44.000Z</time>
        <extensions>
          <ns3:TrackPointExtension>
            <ns3:hr>123</ns3:hr>
            <ns3:cad>0</ns3:cad>
          </ns3:TrackPointExtension>
        </extensions>
      </trkpt>
      <trkpt lat="37.98967382870614528656005859375" lon="-107.74925119243562221527099609375">
        <ele>4197</ele>
        <time>2026-08-15T16:13:50.000Z</time>
        <extensions>
          <ns3:TrackPointExtension>
            <ns3:hr>123</ns3:hr>
            <ns3:cad>0</ns3:cad>
          </ns3:TrackPointExtension>
        </extensions>
      </trkpt>
      <trkpt lat="37.98967181704938411712646484375" lon="-107.749244235455989837646484375">
        <ele>4197</ele>
        <time>2026-08-15T16:13:51.000Z</time>
        <extensions>
          <ns3:TrackPointExtension>
            <ns3:hr>123</ns3:hr>
            <ns3:cad>0</ns3:cad>
          </ns3:TrackPointExtension>
        </extensions>
      </trkpt>
      <trkpt lat="37.9896717332303524017333984375" lon="-107.74923610500991344451904296875">
        <ele>4197.2001953125</ele>
        <time>2026-08-15T16:13:57.000Z</time>
        <extensions>
          <ns3:TrackPointExtension>
            <ns3:hr>123</ns3:hr>
            <ns3:cad>0</ns3:cad>
          </ns3:TrackPointExtension>
        </extensions>
      </trkpt>
      <trkpt lat="37.9896717332303524017333984375" lon="-107.74923610500991344451904296875">
        <ele>4197</ele>
        <time>2026-08-15T16:14:03.000Z</time>
        <extensions>
          <ns3:TrackPointExtension>
            <ns3:hr>123</ns3:hr>
            <ns3:cad>0</ns3:cad>
          </ns3:TrackPointExtension>
        </extensions>
      </trkpt>
      <trkpt lat="37.9896717332303524017333984375" lon="-107.74923610500991344451904296875">
        <ele>4196.7998046875</ele>
        <time>2026-08-15T16:14:06.000Z</time>
        <extensions>
          <ns3:TrackPointExtension>
            <ns3:hr>121</ns3:hr>
            <ns3:cad>0</ns3:cad>
          </ns3:TrackPointExtension>
        </extensions>
      </trkpt>
      <trkpt lat="37.9896717332303524017333984375" lon="-107.74923610500991344451904296875">
        <ele>4197.2001953125</ele>
        <time>2026-08-15T16:14:12.000Z</time>
        <extensions>
          <ns3:TrackPointExtension>
            <ns3:hr>118</ns3:hr>
            <ns3:cad>0</ns3:cad>
          </ns3:TrackPointExtension>
        </extensions>
      </trkpt>
      <trkpt lat="37.9896717332303524017333984375" lon="-107.74923610500991344451904296875">
        <ele>4197.2001953125</ele>
        <time>2026-08-15T16:14:15.000Z</time>
        <extensions>
          <ns3:TrackPointExtension>
            <ns3:hr>118</ns3:hr>
            <ns3:cad>0</ns3:cad>
          </ns3:TrackPointExtension>
        </extensions>
      </trkpt>
      <trkpt lat="37.9896717332303524017333984375" lon="-107.74923610500991344451904296875">
        <ele>4196.7998046875</ele>
        <time>2026-08-15T16:14:21.000Z</time>
        <extensions>
          <ns3:TrackPointExtension>
            <ns3:hr>116</ns3:hr>
            <ns3:cad>0</ns3:cad>
          </ns3:TrackPointExtension>
        </extensions>
      </trkpt>
      <trkpt lat="37.9896734096109867095947265625" lon="-107.74922973476350307464599609375">
        <ele>4197</ele>
        <time>2026-08-15T16:14:24.000Z</time>
        <extensions>
          <ns3:TrackPointExtension>
            <ns3:hr>115</ns3:hr>
            <ns3:cad>0</ns3:cad>
          </ns3:TrackPointExtension>
        </extensions>
      </trkpt>
      <trkpt lat="37.98974507488310337066650390625" lon="-107.74919469840824604034423828125">
        <ele>4197.60009765625</ele>
        <time>2026-08-15T16:14:30.000Z</time>
        <extensions>
          <ns3:TrackPointExtension>
            <ns3:hr>114</ns3:hr>
            <ns3:cad>0</ns3:cad>
          </ns3:TrackPointExtension>
        </extensions>
      </trkpt>
      <trkpt lat="37.9897696338593959808349609375" lon="-107.74917894043028354644775390625">
        <ele>4198</ele>
        <time>2026-08-15T16:14:32.000Z</time>
        <extensions>
          <ns3:TrackPointExtension>
            <ns3:hr>113</ns3:hr>
            <ns3:cad>61</ns3:cad>
          </ns3:TrackPointExtension>
        </extensions>
      </trkpt>
      <trkpt lat="37.98984490334987640380859375" lon="-107.7491267211735248565673828125">
        <ele>4198</ele>
        <time>2026-08-15T16:14:38.000Z</time>
        <extensions>
          <ns3:TrackPointExtension>
            <ns3:hr>113</ns3:hr>
            <ns3:cad>61</ns3:cad>
          </ns3:TrackPointExtension>
        </extensions>
      </trkpt>
      <trkpt lat="37.98992092721164226531982421875" lon="-107.7490769326686859130859375">
        <ele>4197.39990234375</ele>
        <time>2026-08-15T16:14:44.000Z</time>
        <extensions>
          <ns3:TrackPointExtension>
            <ns3:hr>112</ns3:hr>
            <ns3:cad>61</ns3:cad>
          </ns3:TrackPointExtension>
        </extensions>
      </trkpt>
      <trkpt lat="37.98995411954820156097412109375" lon="-107.7490502782166004180908203125">
        <ele>4197.60009765625</ele>
        <time>2026-08-15T16:14:47.000Z</time>
        <extensions>
          <ns3:TrackPointExtension>
            <ns3:hr>110</ns3:hr>
            <ns3:cad>58</ns3:cad>
          </ns3:TrackPointExtension>
        </extensions>
      </trkpt>
      <trkpt lat="37.98997004516422748565673828125" lon="-107.7489952929317951202392578125">
        <ele>4197.39990234375</ele>
        <time>2026-08-15T16:14:50.000Z</time>
        <extensions>
          <ns3:TrackPointExtension>
            <ns3:hr>108</ns3:hr>
            <ns3:cad>58</ns3:cad>
          </ns3:TrackPointExtension>
        </extensions>
      </trkpt>
      <trkpt lat="37.98996518366038799285888671875" lon="-107.7489647828042507171630859375">
        <ele>4197</ele>
        <time>2026-08-15T16:14:52.000Z</time>
        <extensions>
          <ns3:TrackPointExtension>
            <ns3:hr>107</ns3:hr>
            <ns3:cad>56</ns3:cad>
          </ns3:TrackPointExtension>
        </extensions>
      </trkpt>
      <trkpt lat="37.98996099270880222320556640625" lon="-107.748950533568859100341796875">
        <ele>4196.7998046875</ele>
        <time>2026-08-15T16:14:53.000Z</time>
        <extensions>
          <ns3:TrackPointExtension>
            <ns3:hr>107</ns3:hr>
            <ns3:cad>56</ns3:cad>
          </ns3:TrackPointExtension>
        </extensions>
      </trkpt>
      <trkpt lat="37.9899667762219905853271484375" lon="-107.7488933689892292022705078125">
        <ele>4195.39990234375</ele>
        <time>2026-08-15T16:14:56.000Z</time>
        <extensions>
          <ns3:TrackPointExtension>
            <ns3:hr>106</ns3:hr>
            <ns3:cad>59</ns3:cad>
          </ns3:TrackPointExtension>
        </extensions>
      </trkpt>
      <trkpt lat="37.9899781756103038787841796875" lon="-107.74887920357286930084228515625">
        <ele>4194.7998046875</ele>
        <time>2026-08-15T16:14:57.000Z</time>
        <extensions>
          <ns3:TrackPointExtension>
            <ns3:hr>106</ns3:hr>
            <ns3:cad>59</ns3:cad>
          </ns3:TrackPointExtension>
        </extensions>
      </trkpt>
      <trkpt lat="37.98999535851180553436279296875" lon="-107.7488638646900653839111328125">
        <ele>4193.60009765625</ele>
        <time>2026-08-15T16:14:58.000Z</time>
        <extensions>
          <ns3:TrackPointExtension>
            <ns3:hr>105</ns3:hr>
            <ns3:cad>59</ns3:cad>
          </ns3:TrackPointExtension>
        </extensions>
      </trkpt>
      <trkpt lat="37.99000122584402561187744140625" lon="-107.74885238148272037506103515625">
        <ele>4192.60009765625</ele>
        <time>2026-08-15T16:14:59.000Z</time>
        <extensions>
          <ns3:TrackPointExtension>
            <ns3:hr>104</ns3:hr>
            <ns3:cad>59</ns3:cad>
          </ns3:TrackPointExtension>
        </extensions>
      </trkpt>
      <trkpt lat="37.99001664854586124420166015625" lon="-107.74881097488105297088623046875">
        <ele>4191.39990234375</ele>
        <time>2026-08-15T16:15:02.000Z</time>
        <extensions>
          <ns3:TrackPointExtension>
            <ns3:hr>104</ns3:hr>
            <ns3:cad>0</ns3:cad>
          </ns3:TrackPointExtension>
        </extensions>
      </trkpt>
      <trkpt lat="37.9900247789919376373291015625" lon="-107.7487818896770477294921875">
        <ele>4190.39990234375</ele>
        <time>2026-08-15T16:15:07.000Z</time>
        <extensions>
          <ns3:TrackPointExtension>
            <ns3:hr>101</ns3:hr>
            <ns3:cad>69</ns3:cad>
          </ns3:TrackPointExtension>
        </extensions>
      </trkpt>
      <trkpt lat="37.99000709317624568939208984375" lon="-107.74876906536519527435302734375">
        <ele>4190.39990234375</ele>
        <time>2026-08-15T16:15:08.000Z</time>
        <extensions>
          <ns3:TrackPointExtension>
            <ns3:hr>100</ns3:hr>
            <ns3:cad>0</ns3:cad>
          </ns3:TrackPointExtension>
        </extensions>
      </trkpt>
      <trkpt lat="37.98998965881764888763427734375" lon="-107.748746015131473541259765625">
        <ele>4190.2001953125</ele>
        <time>2026-08-15T16:15:11.000Z</time>
        <extensions>
          <ns3:TrackPointExtension>
            <ns3:hr>98</ns3:hr>
            <ns3:cad>0</ns3:cad>
          </ns3:TrackPointExtension>
        </extensions>
      </trkpt>
      <trkpt lat="37.989980019629001617431640625" lon="-107.74873117916285991668701171875">
        <ele>4190</ele>
        <time>2026-08-15T16:15:13.000Z</time>
        <extensions>
          <ns3:TrackPointExtension>
            <ns3:hr>98</ns3:hr>
            <ns3:cad>0</ns3:cad>
          </ns3:TrackPointExtension>
        </extensions>
      </trkpt>
      <trkpt lat="37.98998228274285793304443359375" lon="-107.74873017333447933197021484375">
        <ele>4189.2001953125</ele>
        <time>2026-08-15T16:15:17.000Z</time>
        <extensions>
          <ns3:TrackPointExtension>
            <ns3:hr>97</ns3:hr>
            <ns3:cad>0</ns3:cad>
          </ns3:TrackPointExtension>
        </extensions>
      </trkpt>
      <trkpt lat="37.98997591249644756317138671875" lon="-107.74871642701327800750732421875">
        <ele>4189</ele>
        <time>2026-08-15T16:15:21.000Z</time>
        <extensions>
          <ns3:TrackPointExtension>
            <ns3:hr>98</ns3:hr>
            <ns3:cad>0</ns3:cad>
          </ns3:TrackPointExtension>
        </extensions>
      </trkpt>
      <trkpt lat="37.9899637587368488311767578125" lon="-107.74869404733180999755859375">
        <ele>4189.2001953125</ele>
        <time>2026-08-15T16:15:27.000Z</time>
        <extensions>
          <ns3:TrackPointExtension>
            <ns3:hr>98</ns3:hr>
            <ns3:cad>0</ns3:cad>
          </ns3:TrackPointExtension>
        </extensions>
      </trkpt>
      <trkpt lat="37.98997054807841777801513671875" lon="-107.748692370951175689697265625">
        <ele>4189</ele>
        <time>2026-08-15T16:15:28.000Z</time>
        <extensions>
          <ns3:TrackPointExtension>
            <ns3:hr>98</ns3:hr>
            <ns3:cad>0</ns3:cad>
          </ns3:TrackPointExtension>
        </extensions>
      </trkpt>
      <trkpt lat="37.989988066256046295166015625" lon="-107.7486871741712093353271484375">
        <ele>4188.2001953125</ele>
        <time>2026-08-15T16:15:31.000Z</time>
        <extensions>
          <ns3:TrackPointExtension>
            <ns3:hr>99</ns3:hr>
            <ns3:cad>0</ns3:cad>
          </ns3:TrackPointExtension>
        </extensions>
      </trkpt>
      <trkpt lat="37.99000591970980167388916015625" lon="-107.74867652915418148040771484375">
        <ele>4187.2001953125</ele>
        <time>2026-08-15T16:15:35.000Z</time>
        <extensions>
          <ns3:TrackPointExtension>
            <ns3:hr>100</ns3:hr>
            <ns3:cad>0</ns3:cad>
          </ns3:TrackPointExtension>
        </extensions>
      </trkpt>
      <trkpt lat="37.99000793136656284332275390625" lon="-107.74867334403097629547119140625">
        <ele>4186.60009765625</ele>
        <time>2026-08-15T16:15:37.000Z</time>
        <extensions>
          <ns3:TrackPointExtension>
            <ns3:hr>101</ns3:hr>
            <ns3:cad>0</ns3:cad>
          </ns3:TrackPointExtension>
        </extensions>
      </trkpt>
      <trkpt lat="37.99001078121364116668701171875" lon="-107.74865054525434970855712890625">
        <ele>4186</ele>
        <time>2026-08-15T16:15:39.000Z</time>
        <extensions>
          <ns3:TrackPointExtension>
            <ns3:hr>102</ns3:hr>
            <ns3:cad>0</ns3:cad>
          </ns3:TrackPointExtension>
        </extensions>
      </trkpt>
      <trkpt lat="37.9900083504617214202880859375" lon="-107.74863763712346553802490234375">
        <ele>4185.39990234375</ele>
        <time>2026-08-15T16:15:42.000Z</time>
        <extensions>
          <ns3:TrackPointExtension>
            <ns3:hr>103</ns3:hr>
            <ns3:cad>0</ns3:cad>
          </ns3:TrackPointExtension>
        </extensions>
      </trkpt>
      <trkpt lat="37.9900185763835906982421875" lon="-107.74864048697054386138916015625">
        <ele>4184.7998046875</ele>
        <time>2026-08-15T16:15:45.000Z</time>
        <extensions>
          <ns3:TrackPointExtension>
            <ns3:hr>103</ns3:hr>
            <ns3:cad>60</ns3:cad>
          </ns3:TrackPointExtension>
        </extensions>
      </trkpt>
      <trkpt lat="37.99003073014318943023681640625" lon="-107.74863679893314838409423828125">
        <ele>4184.2001953125</ele>
        <time>2026-08-15T16:15:49.000Z</time>
        <extensions>
          <ns3:TrackPointExtension>
            <ns3:hr>102</ns3:hr>
            <ns3:cad>0</ns3:cad>
          </ns3:TrackPointExtension>
        </extensions>
      </trkpt>
      <trkpt lat="37.990031652152538299560546875" lon="-107.748630009591579437255859375">
        <ele>4183.7998046875</ele>
        <time>2026-08-15T16:15:51.000Z</time>
        <extensions>
          <ns3:TrackPointExtension>
            <ns3:hr>103</ns3:hr>
            <ns3:cad>0</ns3:cad>
          </ns3:TrackPointExtension>
        </extensions>
      </trkpt>
      <trkpt lat="37.9900105297565460205078125" lon="-107.748609893023967742919921875">
        <ele>4183</ele>
        <time>2026-08-15T16:15:54.000Z</time>
        <extensions>
          <ns3:TrackPointExtension>
            <ns3:hr>102</ns3:hr>
            <ns3:cad>0</ns3:cad>
          </ns3:TrackPointExtension>
        </extensions>
      </trkpt>
      <trkpt lat="37.99000893719494342803955078125" lon="-107.74860394187271595001220703125">
        <ele>4182.60009765625</ele>
        <time>2026-08-15T16:15:55.000Z</time>
        <extensions>
          <ns3:TrackPointExtension>
            <ns3:hr>102</ns3:hr>
            <ns3:cad>0</ns3:cad>
          </ns3:TrackPointExtension>
        </extensions>
      </trkpt>
      <trkpt lat="37.990022934973239898681640625" lon="-107.74859287776052951812744140625">
        <ele>4182</ele>
        <time>2026-08-15T16:15:59.000Z</time>
        <extensions>
          <ns3:TrackPointExtension>
            <ns3:hr>102</ns3:hr>
            <ns3:cad>0</ns3:cad>
          </ns3:TrackPointExtension>
        </extensions>
      </trkpt>
      <trkpt lat="37.99002285115420818328857421875" lon="-107.74859254248440265655517578125">
        <ele>4181.60009765625</ele>
        <time>2026-08-15T16:16:02.000Z</time>
        <extensions>
          <ns3:TrackPointExtension>
            <ns3:hr>101</ns3:hr>
            <ns3:cad>0</ns3:cad>
          </ns3:TrackPointExtension>
        </extensions>
      </trkpt>
      <trkpt lat="37.9900214262306690216064453125" lon="-107.748571000993251800537109375">
        <ele>4181.60009765625</ele>
        <time>2026-08-15T16:16:05.000Z</time>
        <extensions>
          <ns3:TrackPointExtension>
            <ns3:hr>100</ns3:hr>
            <ns3:cad>0</ns3:cad>
          </ns3:TrackPointExtension>
        </extensions>
      </trkpt>
      <trkpt lat="37.99000181257724761962890625" lon="-107.748559601604938507080078125">
        <ele>4180.39990234375</ele>
        <time>2026-08-15T16:16:10.000Z</time>
        <extensions>
          <ns3:TrackPointExtension>
            <ns3:hr>101</ns3:hr>
            <ns3:cad>0</ns3:cad>
          </ns3:TrackPointExtension>
        </extensions>
      </trkpt>
      <trkpt lat="37.9899935983121395111083984375" lon="-107.74855029769241809844970703125">
        <ele>4179.7998046875</ele>
        <time>2026-08-15T16:16:13.000Z</time>
        <extensions>
          <ns3:TrackPointExtension>
            <ns3:hr>100</ns3:hr>
            <ns3:cad>0</ns3:cad>
          </ns3:TrackPointExtension>
        </extensions>
      </trkpt>
      <trkpt lat="37.9899815283715724945068359375" lon="-107.74854250252246856689453125">
        <ele>4179.39990234375</ele>
        <time>2026-08-15T16:16:15.000Z</time>
        <extensions>
          <ns3:TrackPointExtension>
            <ns3:hr>99</ns3:hr>
            <ns3:cad>0</ns3:cad>
          </ns3:TrackPointExtension>
        </extensions>
      </trkpt>
      <trkpt lat="37.9899808578193187713623046875" lon="-107.74853973649442195892333984375">
        <ele>4178.60009765625</ele>
        <time>2026-08-15T16:16:21.000Z</time>
        <extensions>
          <ns3:TrackPointExtension>
            <ns3:hr>98</ns3:hr>
            <ns3:cad>0</ns3:cad>
          </ns3:TrackPointExtension>
        </extensions>
      </trkpt>
      <trkpt lat="37.98998110927641391754150390625" lon="-107.7485383115708827972412109375">
        <ele>4178.2001953125</ele>
        <time>2026-08-15T16:16:22.000Z</time>
        <extensions>
          <ns3:TrackPointExtension>
            <ns3:hr>98</ns3:hr>
            <ns3:cad>0</ns3:cad>
          </ns3:TrackPointExtension>
        </extensions>
      </trkpt>
      <trkpt lat="37.98996451310813426971435546875" lon="-107.7485081367194652557373046875">
        <ele>4177.2001953125</ele>
        <time>2026-08-15T16:16:27.000Z</time>
        <extensions>
          <ns3:TrackPointExtension>
            <ns3:hr>98</ns3:hr>
            <ns3:cad>0</ns3:cad>
          </ns3:TrackPointExtension>
        </extensions>
      </trkpt>
      <trkpt lat="37.98995948396623134613037109375" lon="-107.7485051192343235015869140625">
        <ele>4177.2001953125</ele>
        <time>2026-08-15T16:16:28.000Z</time>
        <extensions>
          <ns3:TrackPointExtension>
            <ns3:hr>99</ns3:hr>
            <ns3:cad>0</ns3:cad>
          </ns3:TrackPointExtension>
        </extensions>
      </trkpt>
      <trkpt lat="37.9899379424750804901123046875" lon="-107.74851844646036624908447265625">
        <ele>4176.7998046875</ele>
        <time>2026-08-15T16:16:34.000Z</time>
        <extensions>
          <ns3:TrackPointExtension>
            <ns3:hr>100</ns3:hr>
            <ns3:cad>0</ns3:cad>
          </ns3:TrackPointExtension>
        </extensions>
      </trkpt>
      <trkpt lat="37.98991388641297817230224609375" lon="-107.74852096103131771087646484375">
        <ele>4177</ele>
        <time>2026-08-15T16:16:40.000Z</time>
        <extensions>
          <ns3:TrackPointExtension>
            <ns3:hr>102</ns3:hr>
            <ns3:cad>0</ns3:cad>
          </ns3:TrackPointExtension>
        </extensions>
      </trkpt>
      <trkpt lat="37.98990198411047458648681640625" lon="-107.74853252805769443511962890625">
        <ele>4176.7998046875</ele>
        <time>2026-08-15T16:16:46.000Z</time>
        <extensions>
          <ns3:TrackPointExtension>
            <ns3:hr>104</ns3:hr>
            <ns3:cad>0</ns3:cad>
          </ns3:TrackPointExtension>
        </extensions>
      </trkpt>
      <trkpt lat="37.9898752458393573760986328125" lon="-107.7485574223101139068603515625">
        <ele>4177.7998046875</ele>
        <time>2026-08-15T16:16:52.000Z</time>
        <extensions>
          <ns3:TrackPointExtension>
            <ns3:hr>106</ns3:hr>
            <ns3:cad>0</ns3:cad>
          </ns3:TrackPointExtension>
        </extensions>
      </trkpt>
      <trkpt lat="37.98987650312483310699462890625" lon="-107.748603522777557373046875">
        <ele>4178.39990234375</ele>
        <time>2026-08-15T16:16:58.000Z</time>
        <extensions>
          <ns3:TrackPointExtension>
            <ns3:hr>105</ns3:hr>
            <ns3:cad>0</ns3:cad>
          </ns3:TrackPointExtension>
        </extensions>
      </trkpt>
      <trkpt lat="37.98986594192683696746826171875" lon="-107.74862565100193023681640625">
        <ele>4179.2001953125</ele>
        <time>2026-08-15T16:17:03.000Z</time>
        <extensions>
          <ns3:TrackPointExtension>
            <ns3:hr>106</ns3:hr>
            <ns3:cad>0</ns3:cad>
          </ns3:TrackPointExtension>
        </extensions>
      </trkpt>
      <trkpt lat="37.9898785986006259918212890625" lon="-107.74864048697054386138916015625">
        <ele>4179.60009765625</ele>
        <time>2026-08-15T16:17:05.000Z</time>
        <extensions>
          <ns3:TrackPointExtension>
            <ns3:hr>108</ns3:hr>
            <ns3:cad>0</ns3:cad>
          </ns3:TrackPointExtension>
        </extensions>
      </trkpt>
      <trkpt lat="37.98988840542733669281005859375" lon="-107.74865188635885715484619140625">
        <ele>4180.2001953125</ele>
        <time>2026-08-15T16:17:07.000Z</time>
        <extensions>
          <ns3:TrackPointExtension>
            <ns3:hr>108</ns3:hr>
            <ns3:cad>0</ns3:cad>
          </ns3:TrackPointExtension>
        </extensions>
      </trkpt>
      <trkpt lat="37.9898879863321781158447265625" lon="-107.74865456856787204742431640625">
        <ele>4180.60009765625</ele>
        <time>2026-08-15T16:17:08.000Z</time>
        <extensions>
          <ns3:TrackPointExtension>
            <ns3:hr>108</ns3:hr>
            <ns3:cad>0</ns3:cad>
          </ns3:TrackPointExtension>
        </extensions>
      </trkpt>
      <trkpt lat="37.98988538794219493865966796875" lon="-107.7486523054540157318115234375">
        <ele>4180.7998046875</ele>
        <time>2026-08-15T16:17:12.000Z</time>
        <extensions>
          <ns3:TrackPointExtension>
            <ns3:hr>107</ns3:hr>
            <ns3:cad>0</ns3:cad>
          </ns3:TrackPointExtension>
        </extensions>
      </trkpt>
      <trkpt lat="37.98986108042299747467041015625" lon="-107.74864853359758853912353515625">
        <ele>4180.39990234375</ele>
        <time>2026-08-15T16:17:16.000Z</time>
        <extensions>
          <ns3:TrackPointExtension>
            <ns3:hr>108</ns3:hr>
            <ns3:cad>0</ns3:cad>
          </ns3:TrackPointExtension>
        </extensions>
      </trkpt>
      <trkpt lat="37.98986007459461688995361328125" lon="-107.7486388944089412689208984375">
        <ele>4179.7998046875</ele>
        <time>2026-08-15T16:17:21.000Z</time>
        <extensions>
          <ns3:TrackPointExtension>
            <ns3:hr>108</ns3:hr>
            <ns3:cad>0</ns3:cad>
          </ns3:TrackPointExtension>
        </extensions>
      </trkpt>
      <trkpt lat="37.9898427240550518035888671875" lon="-107.7486129105091094970703125">
        <ele>4179.39990234375</ele>
        <time>2026-08-15T16:17:27.000Z</time>
        <extensions>
          <ns3:TrackPointExtension>
            <ns3:hr>108</ns3:hr>
            <ns3:cad>0</ns3:cad>
          </ns3:TrackPointExtension>
        </extensions>
      </trkpt>
      <trkpt lat="37.9898246191442012786865234375" lon="-107.7486117370426654815673828125">
        <ele>4178.2001953125</ele>
        <time>2026-08-15T16:17:29.000Z</time>
        <extensions>
          <ns3:TrackPointExtension>
            <ns3:hr>108</ns3:hr>
            <ns3:cad>0</ns3:cad>
          </ns3:TrackPointExtension>
        </extensions>
      </trkpt>
      <trkpt lat="37.98980810679495334625244140625" lon="-107.7486063726246356964111328125">
        <ele>4177.2001953125</ele>
        <time>2026-08-15T16:17:33.000Z</time>
        <extensions>
          <ns3:TrackPointExtension>
            <ns3:hr>107</ns3:hr>
            <ns3:cad>52</ns3:cad>
          </ns3:TrackPointExtension>
        </extensions>
      </trkpt>
      <trkpt lat="37.9897718131542205810546875" lon="-107.74858801625669002532958984375">
        <ele>4176</ele>
        <time>2026-08-15T16:17:39.000Z</time>
        <extensions>
          <ns3:TrackPointExtension>
            <ns3:hr>106</ns3:hr>
            <ns3:cad>52</ns3:cad>
          </ns3:TrackPointExtension>
        </extensions>
      </trkpt>
      <trkpt lat="37.9897612519562244415283203125" lon="-107.74857779033482074737548828125">
        <ele>4175.60009765625</ele>
        <time>2026-08-15T16:17:42.000Z</time>
        <extensions>
          <ns3:TrackPointExtension>
            <ns3:hr>106</ns3:hr>
            <ns3:cad>52</ns3:cad>
          </ns3:TrackPointExtension>
        </extensions>
      </trkpt>
      <trkpt lat="37.98973870463669300079345703125" lon="-107.74855214171111583709716796875">
        <ele>4174.7998046875</ele>
        <time>2026-08-15T16:17:46.000Z</time>
        <extensions>
          <ns3:TrackPointExtension>
            <ns3:hr>106</ns3:hr>
            <ns3:cad>62</ns3:cad>
          </ns3:TrackPointExtension>
        </extensions>
      </trkpt>
      <trkpt lat="37.98971674405038356781005859375" lon="-107.748545520007610321044921875">
        <ele>4173.60009765625</ele>
        <time>2026-08-15T16:17:50.000Z</time>
        <extensions>
          <ns3:TrackPointExtension>
            <ns3:hr>106</ns3:hr>
            <ns3:cad>59</ns3:cad>
          </ns3:TrackPointExtension>
        </extensions>
      </trkpt>
      <trkpt lat="37.98969545401632785797119140625" lon="-107.7485413290560245513916015625">
        <ele>4172.39990234375</ele>
        <time>2026-08-15T16:17:52.000Z</time>
        <extensions>
          <ns3:TrackPointExtension>
            <ns3:hr>106</ns3:hr>
            <ns3:cad>0</ns3:cad>
          </ns3:TrackPointExtension>
        </extensions>
      </trkpt>
      <trkpt lat="37.9896811209619045257568359375" lon="-107.74855046533048152923583984375">
        <ele>4171</ele>
        <time>2026-08-15T16:17:54.000Z</time>
        <extensions>
          <ns3:TrackPointExtension>
            <ns3:hr>105</ns3:hr>
            <ns3:cad>0</ns3:cad>
          </ns3:TrackPointExtension>
        </extensions>
      </trkpt>
      <trkpt lat="37.98967801965773105621337890625" lon="-107.748553566634654998779296875">
        <ele>4170.2001953125</ele>
        <time>2026-08-15T16:17:56.000Z</time>
        <extensions>
          <ns3:TrackPointExtension>
            <ns3:hr>103</ns3:hr>
            <ns3:cad>0</ns3:cad>
          </ns3:TrackPointExtension>
        </extensions>
      </trkpt>
      <trkpt lat="37.98967651091516017913818359375" lon="-107.74855582974851131439208984375">
        <ele>4170.7998046875</ele>
        <time>2026-08-15T16:18:02.000Z</time>
        <extensions>
          <ns3:TrackPointExtension>
            <ns3:hr>102</ns3:hr>
            <ns3:cad>0</ns3:cad>
          </ns3:TrackPointExtension>
        </extensions>
      </trkpt>
      <trkpt lat="37.98966444097459316253662109375" lon="-107.74855599738657474517822265625">
        <ele>4170.7998046875</ele>
        <time>2026-08-15T16:18:06.000Z</time>
        <extensions>
          <ns3:TrackPointExtension>
            <ns3:hr>100</ns3:hr>
            <ns3:cad>0</ns3:cad>
          </ns3:TrackPointExtension>
        </extensions>
      </trkpt>
      <trkpt lat="37.98965991474688053131103515625" lon="-107.748551554977893829345703125">
        <ele>4170.39990234375</ele>
        <time>2026-08-15T16:18:09.000Z</time>
        <extensions>
          <ns3:TrackPointExtension>
            <ns3:hr>104</ns3:hr>
            <ns3:cad>0</ns3:cad>
          </ns3:TrackPointExtension>
        </extensions>
      </trkpt>
      <trkpt lat="37.98966025002300739288330078125" lon="-107.7485547401010990142822265625">
        <ele>4170.2001953125</ele>
        <time>2026-08-15T16:18:10.000Z</time>
        <extensions>
          <ns3:TrackPointExtension>
            <ns3:hr>106</ns3:hr>
            <ns3:cad>0</ns3:cad>
          </ns3:TrackPointExtension>
        </extensions>
      </trkpt>
      <trkpt lat="37.98966058529913425445556640625" lon="-107.74855499155819416046142578125">
        <ele>4170</ele>
        <time>2026-08-15T16:18:12.000Z</time>
        <extensions>
          <ns3:TrackPointExtension>
            <ns3:hr>110</ns3:hr>
            <ns3:cad>0</ns3:cad>
          </ns3:TrackPointExtension>
        </extensions>
      </trkpt>
      <trkpt lat="37.98966058529913425445556640625" lon="-107.74855499155819416046142578125">
        <ele>4169.7998046875</ele>
        <time>2026-08-15T16:18:13.000Z</time>
        <extensions>
          <ns3:TrackPointExtension>
            <ns3:hr>111</ns3:hr>
            <ns3:cad>0</ns3:cad>
          </ns3:TrackPointExtension>
        </extensions>
      </trkpt>
      <trkpt lat="37.98966058529913425445556640625" lon="-107.74855499155819416046142578125">
        <ele>4168.7998046875</ele>
        <time>2026-08-15T16:18:19.000Z</time>
        <extensions>
          <ns3:TrackPointExtension>
            <ns3:hr>111</ns3:hr>
            <ns3:cad>0</ns3:cad>
          </ns3:TrackPointExtension>
        </extensions>
      </trkpt>
      <trkpt lat="37.98966058529913425445556640625" lon="-107.74855499155819416046142578125">
        <ele>4169</ele>
        <time>2026-08-15T16:18:21.000Z</time>
        <extensions>
          <ns3:TrackPointExtension>
            <ns3:hr>110</ns3:hr>
            <ns3:cad>0</ns3:cad>
          </ns3:TrackPointExtension>
        </extensions>
      </trkpt>
      <trkpt lat="37.98966058529913425445556640625" lon="-107.74855499155819416046142578125">
        <ele>4169.60009765625</ele>
        <time>2026-08-15T16:18:25.000Z</time>
        <extensions>
          <ns3:TrackPointExtension>
            <ns3:hr>107</ns3:hr>
            <ns3:cad>0</ns3:cad>
          </ns3:TrackPointExtension>
        </extensions>
      </trkpt>
      <trkpt lat="37.98967349343001842498779296875" lon="-107.74854878894984722137451171875">
        <ele>4169.60009765625</ele>
        <time>2026-08-15T16:18:28.000Z</time>
        <extensions>
          <ns3:TrackPointExtension>
            <ns3:hr>104</ns3:hr>
            <ns3:cad>0</ns3:cad>
          </ns3:TrackPointExtension>
        </extensions>
      </trkpt>
      <trkpt lat="37.98967097885906696319580078125" lon="-107.7485440112650394439697265625">
        <ele>4169.39990234375</ele>
        <time>2026-08-15T16:18:29.000Z</time>
        <extensions>
          <ns3:TrackPointExtension>
            <ns3:hr>103</ns3:hr>
            <ns3:cad>0</ns3:cad>
          </ns3:TrackPointExtension>
        </extensions>
      </trkpt>
      <trkpt lat="37.98965723253786563873291015625" lon="-107.748520709574222564697265625">
        <ele>4168.7998046875</ele>
        <time>2026-08-15T16:18:34.000Z</time>
        <extensions>
          <ns3:TrackPointExtension>
            <ns3:hr>101</ns3:hr>
            <ns3:cad>0</ns3:cad>
          </ns3:TrackPointExtension>
        </extensions>
      </trkpt>
      <trkpt lat="37.98965790309011936187744140625" lon="-107.748520374298095703125">
        <ele>4168.2001953125</ele>
        <time>2026-08-15T16:18:36.000Z</time>
        <extensions>
          <ns3:TrackPointExtension>
            <ns3:hr>100</ns3:hr>
            <ns3:cad>0</ns3:cad>
          </ns3:TrackPointExtension>
        </extensions>
      </trkpt>
      <trkpt lat="37.9896506108343601226806640625" lon="-107.74851475842297077178955078125">
        <ele>4167.60009765625</ele>
        <time>2026-08-15T16:18:38.000Z</time>
        <extensions>
          <ns3:TrackPointExtension>
            <ns3:hr>100</ns3:hr>
            <ns3:cad>0</ns3:cad>
          </ns3:TrackPointExtension>
        </extensions>
      </trkpt>
      <trkpt lat="37.9896519519388675689697265625" lon="-107.74851123802363872528076171875">
        <ele>4168</ele>
        <time>2026-08-15T16:18:42.000Z</time>
        <extensions>
          <ns3:TrackPointExtension>
            <ns3:hr>101</ns3:hr>
            <ns3:cad>0</ns3:cad>
          </ns3:TrackPointExtension>
        </extensions>
      </trkpt>
      <trkpt lat="37.98965488560497760772705078125" lon="-107.74851308204233646392822265625">
        <ele>4167.39990234375</ele>
        <time>2026-08-15T16:18:48.000Z</time>
        <extensions>
          <ns3:TrackPointExtension>
            <ns3:hr>100</ns3:hr>
            <ns3:cad>0</ns3:cad>
          </ns3:TrackPointExtension>
        </extensions>
      </trkpt>
      <trkpt lat="37.9896519519388675689697265625" lon="-107.74851140566170215606689453125">
        <ele>4167.2001953125</ele>
        <time>2026-08-15T16:18:50.000Z</time>
        <extensions>
          <ns3:TrackPointExtension>
            <ns3:hr>100</ns3:hr>
            <ns3:cad>0</ns3:cad>
          </ns3:TrackPointExtension>
        </extensions>
      </trkpt>
      <trkpt lat="37.98965170048177242279052734375" lon="-107.748485840857028961181640625">
        <ele>4167</ele>
        <time>2026-08-15T16:18:56.000Z</time>
        <extensions>
          <ns3:TrackPointExtension>
            <ns3:hr>98</ns3:hr>
            <ns3:cad>0</ns3:cad>
          </ns3:TrackPointExtension>
        </extensions>
      </trkpt>
      <trkpt lat="37.9896465875208377838134765625" lon="-107.748480476438999176025390625">
        <ele>4166.60009765625</ele>
        <time>2026-08-15T16:18:58.000Z</time>
        <extensions>
          <ns3:TrackPointExtension>
            <ns3:hr>97</ns3:hr>
            <ns3:cad>0</ns3:cad>
          </ns3:TrackPointExtension>
        </extensions>
      </trkpt>
      <trkpt lat="37.98965035937726497650146484375" lon="-107.7484813146293163299560546875">
        <ele>4165.60009765625</ele>
        <time>2026-08-15T16:19:02.000Z</time>
        <extensions>
          <ns3:TrackPointExtension>
            <ns3:hr>94</ns3:hr>
            <ns3:cad>0</ns3:cad>
          </ns3:TrackPointExtension>
        </extensions>
      </trkpt>
      <trkpt lat="37.98964968882501125335693359375" lon="-107.74848307482898235321044921875">
        <ele>4164.2001953125</ele>
        <time>2026-08-15T16:19:05.000Z</time>
        <extensions>
          <ns3:TrackPointExtension>
            <ns3:hr>93</ns3:hr>
            <ns3:cad>0</ns3:cad>
          </ns3:TrackPointExtension>
        </extensions>
      </trkpt>
      <trkpt lat="37.98964977264404296875" lon="-107.74847217835485935211181640625">
        <ele>4163.60009765625</ele>
        <time>2026-08-15T16:19:08.000Z</time>
        <extensions>
          <ns3:TrackPointExtension>
            <ns3:hr>93</ns3:hr>
            <ns3:cad>0</ns3:cad>
          </ns3:TrackPointExtension>
        </extensions>
      </trkpt>
      <trkpt lat="37.98960962332785129547119140625" lon="-107.7484519779682159423828125">
        <ele>4163</ele>
        <time>2026-08-15T16:19:14.000Z</time>
        <extensions>
          <ns3:TrackPointExtension>
            <ns3:hr>93</ns3:hr>
            <ns3:cad>0</ns3:cad>
          </ns3:TrackPointExtension>
        </extensions>
      </trkpt>
      <trkpt lat="37.9896162450313568115234375" lon="-107.7484397403895854949951171875">
        <ele>4162</ele>
        <time>2026-08-15T16:19:18.000Z</time>
        <extensions>
          <ns3:TrackPointExtension>
            <ns3:hr>92</ns3:hr>
            <ns3:cad>0</ns3:cad>
          </ns3:TrackPointExtension>
        </extensions>
      </trkpt>
      <trkpt lat="37.989617250859737396240234375" lon="-107.7484326995909214019775390625">
        <ele>4162</ele>
        <time>2026-08-15T16:19:19.000Z</time>
        <extensions>
          <ns3:TrackPointExtension>
            <ns3:hr>93</ns3:hr>
            <ns3:cad>66</ns3:cad>
          </ns3:TrackPointExtension>
        </extensions>
      </trkpt>
      <trkpt lat="37.98962605185806751251220703125" lon="-107.7484122477471828460693359375">
        <ele>4161.2001953125</ele>
        <time>2026-08-15T16:19:24.000Z</time>
        <extensions>
          <ns3:TrackPointExtension>
            <ns3:hr>94</ns3:hr>
            <ns3:cad>0</ns3:cad>
          </ns3:TrackPointExtension>
        </extensions>
      </trkpt>
      <trkpt lat="37.9896251298487186431884765625" lon="-107.74840763770043849945068359375">
        <ele>4160.7998046875</ele>
        <time>2026-08-15T16:19:25.000Z</time>
        <extensions>
          <ns3:TrackPointExtension>
            <ns3:hr>94</ns3:hr>
            <ns3:cad>0</ns3:cad>
          </ns3:TrackPointExtension>
        </extensions>
      </trkpt>
      <trkpt lat="37.989625968039035797119140625" lon="-107.748393304646015167236328125">
        <ele>4160</ele>
        <time>2026-08-15T16:19:29.000Z</time>
        <extensions>
          <ns3:TrackPointExtension>
            <ns3:hr>98</ns3:hr>
            <ns3:cad>0</ns3:cad>
          </ns3:TrackPointExtension>
        </extensions>
      </trkpt>
      <trkpt lat="37.9896269738674163818359375" lon="-107.74839087389409542083740234375">
        <ele>4159.39990234375</ele>
        <time>2026-08-15T16:19:31.000Z</time>
        <extensions>
          <ns3:TrackPointExtension>
            <ns3:hr>101</ns3:hr>
            <ns3:cad>53</ns3:cad>
          </ns3:TrackPointExtension>
        </extensions>
      </trkpt>
      <trkpt lat="37.98964549787342548370361328125" lon="-107.74835902266204357147216796875">
        <ele>4158</ele>
        <time>2026-08-15T16:19:34.000Z</time>
        <extensions>
          <ns3:TrackPointExtension>
            <ns3:hr>103</ns3:hr>
            <ns3:cad>0</ns3:cad>
          </ns3:TrackPointExtension>
        </extensions>
      </trkpt>
      <trkpt lat="37.98964834772050380706787109375" lon="-107.74834762327373027801513671875">
        <ele>4157.60009765625</ele>
        <time>2026-08-15T16:19:35.000Z</time>
        <extensions>
          <ns3:TrackPointExtension>
            <ns3:hr>103</ns3:hr>
            <ns3:cad>0</ns3:cad>
          </ns3:TrackPointExtension>
        </extensions>
      </trkpt>
      <trkpt lat="37.9896475933492183685302734375" lon="-107.7483425103127956390380859375">
        <ele>4157</ele>
        <time>2026-08-15T16:19:38.000Z</time>
        <extensions>
          <ns3:TrackPointExtension>
            <ns3:hr>103</ns3:hr>
            <ns3:cad>0</ns3:cad>
          </ns3:TrackPointExtension>
        </extensions>
      </trkpt>
      <trkpt lat="37.9896492697298526763916015625" lon="-107.74834334850311279296875">
        <ele>4156.60009765625</ele>
        <time>2026-08-15T16:19:39.000Z</time>
        <extensions>
          <ns3:TrackPointExtension>
            <ns3:hr>102</ns3:hr>
            <ns3:cad>0</ns3:cad>
          </ns3:TrackPointExtension>
        </extensions>
      </trkpt>
      <trkpt lat="37.989666871726512908935546875" lon="-107.748322896659374237060546875">
        <ele>4156</ele>
        <time>2026-08-15T16:19:43.000Z</time>
        <extensions>
          <ns3:TrackPointExtension>
            <ns3:hr>101</ns3:hr>
            <ns3:cad>0</ns3:cad>
          </ns3:TrackPointExtension>
        </extensions>
      </trkpt>
      <trkpt lat="37.98966594971716403961181640625" lon="-107.74832482449710369110107421875">
        <ele>4155.7998046875</ele>
        <time>2026-08-15T16:19:44.000Z</time>
        <extensions>
          <ns3:TrackPointExtension>
            <ns3:hr>100</ns3:hr>
            <ns3:cad>0</ns3:cad>
          </ns3:TrackPointExtension>
        </extensions>
      </trkpt>
      <trkpt lat="37.98965471796691417694091796875" lon="-107.74830906651914119720458984375">
        <ele>4155.2001953125</ele>
        <time>2026-08-15T16:19:50.000Z</time>
        <extensions>
          <ns3:TrackPointExtension>
            <ns3:hr>99</ns3:hr>
            <ns3:cad>0</ns3:cad>
          </ns3:TrackPointExtension>
        </extensions>
      </trkpt>
      <trkpt lat="37.98964968882501125335693359375" lon="-107.7483052946627140045166015625">
        <ele>4154.60009765625</ele>
        <time>2026-08-15T16:19:53.000Z</time>
        <extensions>
          <ns3:TrackPointExtension>
            <ns3:hr>98</ns3:hr>
            <ns3:cad>50</ns3:cad>
          </ns3:TrackPointExtension>
        </extensions>
      </trkpt>
      <trkpt lat="37.98964868299663066864013671875" lon="-107.74830454029142856597900390625">
        <ele>4153.60009765625</ele>
        <time>2026-08-15T16:19:56.000Z</time>
        <extensions>
          <ns3:TrackPointExtension>
            <ns3:hr>99</ns3:hr>
            <ns3:cad>0</ns3:cad>
          </ns3:TrackPointExtension>
        </extensions>
      </trkpt>
      <trkpt lat="37.98965714871883392333984375" lon="-107.74828677065670490264892578125">
        <ele>4152.7998046875</ele>
        <time>2026-08-15T16:20:01.000Z</time>
        <extensions>
          <ns3:TrackPointExtension>
            <ns3:hr>97</ns3:hr>
            <ns3:cad>0</ns3:cad>
          </ns3:TrackPointExtension>
        </extensions>
      </trkpt>
      <trkpt lat="37.98965639434754848480224609375" lon="-107.74828425608575344085693359375">
        <ele>4152.60009765625</ele>
        <time>2026-08-15T16:20:03.000Z</time>
        <extensions>
          <ns3:TrackPointExtension>
            <ns3:hr>95</ns3:hr>
            <ns3:cad>0</ns3:cad>
          </ns3:TrackPointExtension>
        </extensions>
      </trkpt>
      <trkpt lat="37.9896398819983005523681640625" lon="-107.7482727728784084320068359375">
        <ele>4151.60009765625</ele>
        <time>2026-08-15T16:20:06.000Z</time>
        <extensions>
          <ns3:TrackPointExtension>
            <ns3:hr>92</ns3:hr>
            <ns3:cad>0</ns3:cad>
          </ns3:TrackPointExtension>
        </extensions>
      </trkpt>
      <trkpt lat="37.989628650248050689697265625" lon="-107.7482627145946025848388671875">
        <ele>4151.2001953125</ele>
        <time>2026-08-15T16:20:07.000Z</time>
        <extensions>
          <ns3:TrackPointExtension>
            <ns3:hr>91</ns3:hr>
            <ns3:cad>0</ns3:cad>
          </ns3:TrackPointExtension>
        </extensions>
      </trkpt>
      <trkpt lat="37.98959621228277683258056640625" lon="-107.74825961329042911529541015625">
        <ele>4150.2001953125</ele>
        <time>2026-08-15T16:20:11.000Z</time>
        <extensions>
          <ns3:TrackPointExtension>
            <ns3:hr>90</ns3:hr>
            <ns3:cad>0</ns3:cad>
          </ns3:TrackPointExtension>
        </extensions>
      </trkpt>
      <trkpt lat="37.98960073851048946380615234375" lon="-107.7482566796243190765380859375">
        <ele>4149.2001953125</ele>
        <time>2026-08-15T16:20:16.000Z</time>
        <extensions>
          <ns3:TrackPointExtension>
            <ns3:hr>90</ns3:hr>
            <ns3:cad>0</ns3:cad>
          </ns3:TrackPointExtension>
        </extensions>
      </trkpt>
      <trkpt lat="37.98959051258862018585205078125" lon="-107.74824620224535465240478515625">
        <ele>4148</ele>
        <time>2026-08-15T16:20:19.000Z</time>
        <extensions>
          <ns3:TrackPointExtension>
            <ns3:hr>89</ns3:hr>
            <ns3:cad>0</ns3:cad>
          </ns3:TrackPointExtension>
        </extensions>
      </trkpt>
      <trkpt lat="37.9895785264670848846435546875" lon="-107.7482285164296627044677734375">
        <ele>4147.60009765625</ele>
        <time>2026-08-15T16:20:22.000Z</time>
        <extensions>
          <ns3:TrackPointExtension>
            <ns3:hr>89</ns3:hr>
            <ns3:cad>0</ns3:cad>
          </ns3:TrackPointExtension>
        </extensions>
      </trkpt>
      <trkpt lat="37.98956687562167644500732421875" lon="-107.74822600185871124267578125">
        <ele>4147</ele>
        <time>2026-08-15T16:20:24.000Z</time>
        <extensions>
          <ns3:TrackPointExtension>
            <ns3:hr>88</ns3:hr>
            <ns3:cad>0</ns3:cad>
          </ns3:TrackPointExtension>
        </extensions>
      </trkpt>
      <trkpt lat="37.9895627684891223907470703125" lon="-107.748222984373569488525390625">
        <ele>4146.2001953125</ele>
        <time>2026-08-15T16:20:26.000Z</time>
        <extensions>
          <ns3:TrackPointExtension>
            <ns3:hr>91</ns3:hr>
            <ns3:cad>0</ns3:cad>
          </ns3:TrackPointExtension>
        </extensions>
      </trkpt>
      <trkpt lat="37.98956218175590038299560546875" lon="-107.748213596642017364501953125">
        <ele>4146</ele>
        <time>2026-08-15T16:20:28.000Z</time>
        <extensions>
          <ns3:TrackPointExtension>
            <ns3:hr>94</ns3:hr>
            <ns3:cad>0</ns3:cad>
          </ns3:TrackPointExtension>
        </extensions>
      </trkpt>
      <trkpt lat="37.989559583365917205810546875" lon="-107.74820781312882900238037109375">
        <ele>4145.7998046875</ele>
        <time>2026-08-15T16:20:29.000Z</time>
        <extensions>
          <ns3:TrackPointExtension>
            <ns3:hr>95</ns3:hr>
            <ns3:cad>0</ns3:cad>
          </ns3:TrackPointExtension>
        </extensions>
      </trkpt>
      <trkpt lat="37.9895483516156673431396484375" lon="-107.74820194579660892486572265625">
        <ele>4144.60009765625</ele>
        <time>2026-08-15T16:20:33.000Z</time>
        <extensions>
          <ns3:TrackPointExtension>
            <ns3:hr>96</ns3:hr>
            <ns3:cad>0</ns3:cad>
          </ns3:TrackPointExtension>
        </extensions>
      </trkpt>
      <trkpt lat="37.98954717814922332763671875" lon="-107.74820311926305294036865234375">
        <ele>4144.2001953125</ele>
        <time>2026-08-15T16:20:34.000Z</time>
        <extensions>
          <ns3:TrackPointExtension>
            <ns3:hr>97</ns3:hr>
            <ns3:cad>0</ns3:cad>
          </ns3:TrackPointExtension>
        </extensions>
      </trkpt>
      <trkpt lat="37.9895211942493915557861328125" lon="-107.74820865131914615631103515625">
        <ele>4144</ele>
        <time>2026-08-15T16:20:38.000Z</time>
        <extensions>
          <ns3:TrackPointExtension>
            <ns3:hr>101</ns3:hr>
            <ns3:cad>0</ns3:cad>
          </ns3:TrackPointExtension>
        </extensions>
      </trkpt>
      <trkpt lat="37.9895111359655857086181640625" lon="-107.7482120878994464874267578125">
        <ele>4144</ele>
        <time>2026-08-15T16:20:39.000Z</time>
        <extensions>
          <ns3:TrackPointExtension>
            <ns3:hr>104</ns3:hr>
            <ns3:cad>0</ns3:cad>
          </ns3:TrackPointExtension>
        </extensions>
      </trkpt>
      <trkpt lat="37.98951792530715465545654296875" lon="-107.74820781312882900238037109375">
        <ele>4143.7998046875</ele>
        <time>2026-08-15T16:20:40.000Z</time>
        <extensions>
          <ns3:TrackPointExtension>
            <ns3:hr>110</ns3:hr>
            <ns3:cad>0</ns3:cad>
          </ns3:TrackPointExtension>
        </extensions>
      </trkpt>
      <trkpt lat="37.9895116388797760009765625" lon="-107.748210243880748748779296875">
        <ele>4143.7998046875</ele>
        <time>2026-08-15T16:20:41.000Z</time>
        <extensions>
          <ns3:TrackPointExtension>
            <ns3:hr>111</ns3:hr>
            <ns3:cad>0</ns3:cad>
          </ns3:TrackPointExtension>
        </extensions>
      </trkpt>
      <trkpt lat="37.98950920812785625457763671875" lon="-107.74820630438625812530517578125">
        <ele>4143.39990234375</ele>
        <time>2026-08-15T16:20:43.000Z</time>
        <extensions>
          <ns3:TrackPointExtension>
            <ns3:hr>111</ns3:hr>
            <ns3:cad>0</ns3:cad>
          </ns3:TrackPointExtension>
        </extensions>
      </trkpt>
      <trkpt lat="37.9895138181746006011962890625" lon="-107.74820194579660892486572265625">
        <ele>4142.7998046875</ele>
        <time>2026-08-15T16:20:46.000Z</time>
        <extensions>
          <ns3:TrackPointExtension>
            <ns3:hr>112</ns3:hr>
            <ns3:cad>0</ns3:cad>
          </ns3:TrackPointExtension>
        </extensions>
      </trkpt>
      <trkpt lat="37.98951557837426662445068359375" lon="-107.74818417616188526153564453125">
        <ele>4142.2001953125</ele>
        <time>2026-08-15T16:20:48.000Z</time>
        <extensions>
          <ns3:TrackPointExtension>
            <ns3:hr>112</ns3:hr>
            <ns3:cad>0</ns3:cad>
          </ns3:TrackPointExtension>
        </extensions>
      </trkpt>
      <trkpt lat="37.98952362500131130218505859375" lon="-107.74818384088575839996337890625">
        <ele>4141.39990234375</ele>
        <time>2026-08-15T16:20:50.000Z</time>
        <extensions>
          <ns3:TrackPointExtension>
            <ns3:hr>112</ns3:hr>
            <ns3:cad>0</ns3:cad>
          </ns3:TrackPointExtension>
        </extensions>
      </trkpt>
      <trkpt lat="37.989520691335201263427734375" lon="-107.74816690944135189056396484375">
        <ele>4141.2001953125</ele>
        <time>2026-08-15T16:20:51.000Z</time>
        <extensions>
          <ns3:TrackPointExtension>
            <ns3:hr>112</ns3:hr>
            <ns3:cad>0</ns3:cad>
          </ns3:TrackPointExtension>
        </extensions>
      </trkpt>
      <trkpt lat="37.98951105214655399322509765625" lon="-107.74814394302666187286376953125">
        <ele>4140.60009765625</ele>
        <time>2026-08-15T16:20:54.000Z</time>
        <extensions>
          <ns3:TrackPointExtension>
            <ns3:hr>111</ns3:hr>
            <ns3:cad>68</ns3:cad>
          </ns3:TrackPointExtension>
        </extensions>
      </trkpt>
      <trkpt lat="37.98950552009046077728271484375" lon="-107.74813371710479259490966796875">
        <ele>4140.2001953125</ele>
        <time>2026-08-15T16:20:56.000Z</time>
        <extensions>
          <ns3:TrackPointExtension>
            <ns3:hr>111</ns3:hr>
            <ns3:cad>68</ns3:cad>
          </ns3:TrackPointExtension>
        </extensions>
      </trkpt>
      <trkpt lat="37.98950702883303165435791015625" lon="-107.74812332354485988616943359375">
        <ele>4139.2001953125</ele>
        <time>2026-08-15T16:20:59.000Z</time>
        <extensions>
          <ns3:TrackPointExtension>
            <ns3:hr>111</ns3:hr>
            <ns3:cad>68</ns3:cad>
          </ns3:TrackPointExtension>
        </extensions>
      </trkpt>
      <trkpt lat="37.98951004631817340850830078125" lon="-107.74812818504869937896728515625">
        <ele>4138.7998046875</ele>
        <time>2026-08-15T16:21:00.000Z</time>
        <extensions>
          <ns3:TrackPointExtension>
            <ns3:hr>111</ns3:hr>
            <ns3:cad>70</ns3:cad>
          </ns3:TrackPointExtension>
        </extensions>
      </trkpt>
      <trkpt lat="37.98950753174722194671630859375" lon="-107.7481363154947757720947265625">
        <ele>4138.60009765625</ele>
        <time>2026-08-15T16:21:01.000Z</time>
        <extensions>
          <ns3:TrackPointExtension>
            <ns3:hr>111</ns3:hr>
            <ns3:cad>70</ns3:cad>
          </ns3:TrackPointExtension>
        </extensions>
      </trkpt>
      <trkpt lat="37.9895024187862873077392578125" lon="-107.74812919087707996368408203125">
        <ele>4138.2001953125</ele>
        <time>2026-08-15T16:21:03.000Z</time>
        <extensions>
          <ns3:TrackPointExtension>
            <ns3:hr>111</ns3:hr>
            <ns3:cad>0</ns3:cad>
          </ns3:TrackPointExtension>
        </extensions>
      </trkpt>
      <trkpt lat="37.98950669355690479278564453125" lon="-107.7481222338974475860595703125">
        <ele>4138</ele>
        <time>2026-08-15T16:21:05.000Z</time>
        <extensions>
          <ns3:TrackPointExtension>
            <ns3:hr>111</ns3:hr>
            <ns3:cad>0</ns3:cad>
          </ns3:TrackPointExtension>
        </extensions>
      </trkpt>
      <trkpt lat="37.98951088450849056243896484375" lon="-107.7481140196323394775390625">
        <ele>4137.7998046875</ele>
        <time>2026-08-15T16:21:09.000Z</time>
        <extensions>
          <ns3:TrackPointExtension>
            <ns3:hr>109</ns3:hr>
            <ns3:cad>0</ns3:cad>
          </ns3:TrackPointExtension>
        </extensions>
      </trkpt>
      <trkpt lat="37.9895102977752685546875" lon="-107.7481017820537090301513671875">
        <ele>4137.39990234375</ele>
        <time>2026-08-15T16:21:12.000Z</time>
        <extensions>
          <ns3:TrackPointExtension>
            <ns3:hr>107</ns3:hr>
            <ns3:cad>0</ns3:cad>
          </ns3:TrackPointExtension>
        </extensions>
      </trkpt>
      <trkpt lat="37.989513985812664031982421875" lon="-107.7480947412550449371337890625">
        <ele>4136.7998046875</ele>
        <time>2026-08-15T16:21:15.000Z</time>
        <extensions>
          <ns3:TrackPointExtension>
            <ns3:hr>106</ns3:hr>
            <ns3:cad>0</ns3:cad>
          </ns3:TrackPointExtension>
        </extensions>
      </trkpt>
      <trkpt lat="37.9895175062119960784912109375" lon="-107.748090885579586029052734375">
        <ele>4136</ele>
        <time>2026-08-15T16:21:18.000Z</time>
        <extensions>
          <ns3:TrackPointExtension>
            <ns3:hr>104</ns3:hr>
            <ns3:cad>0</ns3:cad>
          </ns3:TrackPointExtension>
        </extensions>
      </trkpt>
      <trkpt lat="37.98952077515423297882080078125" lon="-107.74808828718960285186767578125">
        <ele>4135.60009765625</ele>
        <time>2026-08-15T16:21:19.000Z</time>
        <extensions>
          <ns3:TrackPointExtension>
            <ns3:hr>103</ns3:hr>
            <ns3:cad>0</ns3:cad>
          </ns3:TrackPointExtension>
        </extensions>
      </trkpt>
      <trkpt lat="37.98955547623336315155029296875" lon="-107.7480830065906047821044921875">
        <ele>4134.7998046875</ele>
        <time>2026-08-15T16:21:23.000Z</time>
        <extensions>
          <ns3:TrackPointExtension>
            <ns3:hr>102</ns3:hr>
            <ns3:cad>0</ns3:cad>
          </ns3:TrackPointExtension>
        </extensions>
      </trkpt>
      <trkpt lat="37.98955748789012432098388671875" lon="-107.7480856887996196746826171875">
        <ele>4134.60009765625</ele>
        <time>2026-08-15T16:21:24.000Z</time>
        <extensions>
          <ns3:TrackPointExtension>
            <ns3:hr>102</ns3:hr>
            <ns3:cad>0</ns3:cad>
          </ns3:TrackPointExtension>
        </extensions>
      </trkpt>
      <trkpt lat="37.98957131803035736083984375" lon="-107.74808040820062160491943359375">
        <ele>4134.2001953125</ele>
        <time>2026-08-15T16:21:30.000Z</time>
        <extensions>
          <ns3:TrackPointExtension>
            <ns3:hr>101</ns3:hr>
            <ns3:cad>0</ns3:cad>
          </ns3:TrackPointExtension>
        </extensions>
      </trkpt>
      <trkpt lat="37.9895614273846149444580078125" lon="-107.7480555139482021331787109375">
        <ele>4133.39990234375</ele>
        <time>2026-08-15T16:21:34.000Z</time>
        <extensions>
          <ns3:TrackPointExtension>
            <ns3:hr>99</ns3:hr>
            <ns3:cad>0</ns3:cad>
          </ns3:TrackPointExtension>
        </extensions>
      </trkpt>
      <trkpt lat="37.9895610921084880828857421875" lon="-107.74805023334920406341552734375">
        <ele>4133.2001953125</ele>
        <time>2026-08-15T16:21:35.000Z</time>
        <extensions>
          <ns3:TrackPointExtension>
            <ns3:hr>99</ns3:hr>
            <ns3:cad>0</ns3:cad>
          </ns3:TrackPointExtension>
        </extensions>
      </trkpt>
      <trkpt lat="37.98958028666675090789794921875" lon="-107.7480427734553813934326171875">
        <ele>4133.2001953125</ele>
        <time>2026-08-15T16:21:40.000Z</time>
        <extensions>
          <ns3:TrackPointExtension>
            <ns3:hr>99</ns3:hr>
            <ns3:cad>0</ns3:cad>
          </ns3:TrackPointExtension>
        </extensions>
      </trkpt>
      <trkpt lat="37.989588081836700439453125" lon="-107.74800782091915607452392578125">
        <ele>4132.39990234375</ele>
        <time>2026-08-15T16:21:45.000Z</time>
        <extensions>
          <ns3:TrackPointExtension>
            <ns3:hr>98</ns3:hr>
            <ns3:cad>0</ns3:cad>
          </ns3:TrackPointExtension>
        </extensions>
      </trkpt>
      <trkpt lat="37.9895822145044803619384765625" lon="-107.74800765328109264373779296875">
        <ele>4132.2001953125</ele>
        <time>2026-08-15T16:21:46.000Z</time>
        <extensions>
          <ns3:TrackPointExtension>
            <ns3:hr>98</ns3:hr>
            <ns3:cad>0</ns3:cad>
          </ns3:TrackPointExtension>
        </extensions>
      </trkpt>
      <trkpt lat="37.98957156948745250701904296875" lon="-107.747996337711811065673828125">
        <ele>4131.39990234375</ele>
        <time>2026-08-15T16:21:49.000Z</time>
        <extensions>
          <ns3:TrackPointExtension>
            <ns3:hr>98</ns3:hr>
            <ns3:cad>0</ns3:cad>
          </ns3:TrackPointExtension>
        </extensions>
      </trkpt>
      <trkpt lat="37.989565618336200714111328125" lon="-107.7479720301926136016845703125">
        <ele>4130.2001953125</ele>
        <time>2026-08-15T16:21:53.000Z</time>
        <extensions>
          <ns3:TrackPointExtension>
            <ns3:hr>96</ns3:hr>
            <ns3:cad>0</ns3:cad>
          </ns3:TrackPointExtension>
        </extensions>
      </trkpt>
      <trkpt lat="37.9895599186420440673828125" lon="-107.747966162860393524169921875">
        <ele>4130</ele>
        <time>2026-08-15T16:21:54.000Z</time>
        <extensions>
          <ns3:TrackPointExtension>
            <ns3:hr>97</ns3:hr>
            <ns3:cad>0</ns3:cad>
          </ns3:TrackPointExtension>
        </extensions>
      </trkpt>
      <trkpt lat="37.98955095000565052032470703125" lon="-107.74794948287308216094970703125">
        <ele>4129</ele>
        <time>2026-08-15T16:21:57.000Z</time>
        <extensions>
          <ns3:TrackPointExtension>
            <ns3:hr>97</ns3:hr>
            <ns3:cad>0</ns3:cad>
          </ns3:TrackPointExtension>
        </extensions>
      </trkpt>
      <trkpt lat="37.98952572047710418701171875" lon="-107.74794378317892551422119140625">
        <ele>4127.7998046875</ele>
        <time>2026-08-15T16:22:00.000Z</time>
        <extensions>
          <ns3:TrackPointExtension>
            <ns3:hr>99</ns3:hr>
            <ns3:cad>0</ns3:cad>
          </ns3:TrackPointExtension>
        </extensions>
      </trkpt>
      <trkpt lat="37.98951222561299800872802734375" lon="-107.747929953038692474365234375">
        <ele>4126.60009765625</ele>
        <time>2026-08-15T16:22:03.000Z</time>
        <extensions>
          <ns3:TrackPointExtension>
            <ns3:hr>101</ns3:hr>
            <ns3:cad>0</ns3:cad>
          </ns3:TrackPointExtension>
        </extensions>
      </trkpt>
      <trkpt lat="37.9894933663308620452880859375" lon="-107.74791947565972805023193359375">
        <ele>4125.60009765625</ele>
        <time>2026-08-15T16:22:06.000Z</time>
        <extensions>
          <ns3:TrackPointExtension>
            <ns3:hr>102</ns3:hr>
            <ns3:cad>0</ns3:cad>
          </ns3:TrackPointExtension>
        </extensions>
      </trkpt>
      <trkpt lat="37.9894937016069889068603515625" lon="-107.74791662581264972686767578125">
        <ele>4125.39990234375</ele>
        <time>2026-08-15T16:22:07.000Z</time>
        <extensions>
          <ns3:TrackPointExtension>
            <ns3:hr>102</ns3:hr>
            <ns3:cad>0</ns3:cad>
          </ns3:TrackPointExtension>
        </extensions>
      </trkpt>
      <trkpt lat="37.9894863255321979522705078125" lon="-107.74787689559161663055419921875">
        <ele>4124.60009765625</ele>
        <time>2026-08-15T16:22:10.000Z</time>
        <extensions>
          <ns3:TrackPointExtension>
            <ns3:hr>103</ns3:hr>
            <ns3:cad>0</ns3:cad>
          </ns3:TrackPointExtension>
        </extensions>
      </trkpt>
      <trkpt lat="37.98947685398161411285400390625" lon="-107.74788075126707553863525390625">
        <ele>4124.2001953125</ele>
        <time>2026-08-15T16:22:11.000Z</time>
        <extensions>
          <ns3:TrackPointExtension>
            <ns3:hr>103</ns3:hr>
            <ns3:cad>0</ns3:cad>
          </ns3:TrackPointExtension>
        </extensions>
      </trkpt>
      <trkpt lat="37.98946805298328399658203125" lon="-107.74787773378193378448486328125">
        <ele>4123</ele>
        <time>2026-08-15T16:22:13.000Z</time>
        <extensions>
          <ns3:TrackPointExtension>
            <ns3:hr>102</ns3:hr>
            <ns3:cad>0</ns3:cad>
          </ns3:TrackPointExtension>
        </extensions>
      </trkpt>
      <trkpt lat="37.9894615150988101959228515625" lon="-107.74787303991615772247314453125">
        <ele>4122.2001953125</ele>
        <time>2026-08-15T16:22:15.000Z</time>
        <extensions>
          <ns3:TrackPointExtension>
            <ns3:hr>103</ns3:hr>
            <ns3:cad>69</ns3:cad>
          </ns3:TrackPointExtension>
        </extensions>
      </trkpt>
      <trkpt lat="37.989459671080112457275390625" lon="-107.74787136353552341461181640625">
        <ele>4122</ele>
        <time>2026-08-15T16:22:16.000Z</time>
        <extensions>
          <ns3:TrackPointExtension>
            <ns3:hr>103</ns3:hr>
            <ns3:cad>69</ns3:cad>
          </ns3:TrackPointExtension>
        </extensions>
      </trkpt>
      <trkpt lat="37.98946780152618885040283203125" lon="-107.747833728790283203125">
        <ele>4121.39990234375</ele>
        <time>2026-08-15T16:22:22.000Z</time>
        <extensions>
          <ns3:TrackPointExtension>
            <ns3:hr>104</ns3:hr>
            <ns3:cad>41</ns3:cad>
          </ns3:TrackPointExtension>
        </extensions>
      </trkpt>
      <trkpt lat="37.98946226947009563446044921875" lon="-107.74782174266874790191650390625">
        <ele>4120.60009765625</ele>
        <time>2026-08-15T16:22:24.000Z</time>
        <extensions>
          <ns3:TrackPointExtension>
            <ns3:hr>103</ns3:hr>
            <ns3:cad>41</ns3:cad>
          </ns3:TrackPointExtension>
        </extensions>
      </trkpt>
      <trkpt lat="37.9894574917852878570556640625" lon="-107.7478251792490482330322265625">
        <ele>4120.2001953125</ele>
        <time>2026-08-15T16:22:25.000Z</time>
        <extensions>
          <ns3:TrackPointExtension>
            <ns3:hr>104</ns3:hr>
            <ns3:cad>41</ns3:cad>
          </ns3:TrackPointExtension>
        </extensions>
      </trkpt>
      <trkpt lat="37.98944651149213314056396484375" lon="-107.74782023392617702484130859375">
        <ele>4119.39990234375</ele>
        <time>2026-08-15T16:22:27.000Z</time>
        <extensions>
          <ns3:TrackPointExtension>
            <ns3:hr>104</ns3:hr>
            <ns3:cad>41</ns3:cad>
          </ns3:TrackPointExtension>
        </extensions>
      </trkpt>
      <trkpt lat="37.98944366164505481719970703125" lon="-107.74781604297459125518798828125">
        <ele>4119.2001953125</ele>
        <time>2026-08-15T16:22:28.000Z</time>
        <extensions>
          <ns3:TrackPointExtension>
            <ns3:hr>104</ns3:hr>
            <ns3:cad>0</ns3:cad>
          </ns3:TrackPointExtension>
        </extensions>
      </trkpt>
      <trkpt lat="37.98942647874355316162109375" lon="-107.74780933745205402374267578125">
        <ele>4118.2001953125</ele>
        <time>2026-08-15T16:22:34.000Z</time>
        <extensions>
          <ns3:TrackPointExtension>
            <ns3:hr>105</ns3:hr>
            <ns3:cad>0</ns3:cad>
          </ns3:TrackPointExtension>
        </extensions>
      </trkpt>
      <trkpt lat="37.98941851593554019927978515625" lon="-107.74781067855656147003173828125">
        <ele>4117</ele>
        <time>2026-08-15T16:22:36.000Z</time>
        <extensions>
          <ns3:TrackPointExtension>
            <ns3:hr>105</ns3:hr>
            <ns3:cad>0</ns3:cad>
          </ns3:TrackPointExtension>
        </extensions>
      </trkpt>
      <trkpt lat="37.98941038548946380615234375" lon="-107.74781235493719577789306640625">
        <ele>4116</ele>
        <time>2026-08-15T16:22:38.000Z</time>
        <extensions>
          <ns3:TrackPointExtension>
            <ns3:hr>105</ns3:hr>
            <ns3:cad>77</ns3:cad>
          </ns3:TrackPointExtension>
        </extensions>
      </trkpt>
      <trkpt lat="37.9894068650901317596435546875" lon="-107.74781704880297183990478515625">
        <ele>4115</ele>
        <time>2026-08-15T16:22:42.000Z</time>
        <extensions>
          <ns3:TrackPointExtension>
            <ns3:hr>103</ns3:hr>
            <ns3:cad>0</ns3:cad>
          </ns3:TrackPointExtension>
        </extensions>
      </trkpt>
      <trkpt lat="37.9893723316490650177001953125" lon="-107.747817970812320709228515625">
        <ele>4114</ele>
        <time>2026-08-15T16:22:47.000Z</time>
        <extensions>
          <ns3:TrackPointExtension>
            <ns3:hr>103</ns3:hr>
            <ns3:cad>0</ns3:cad>
          </ns3:TrackPointExtension>
        </extensions>
      </trkpt>
      <trkpt lat="37.98934735357761383056640625" lon="-107.74781419895589351654052734375">
        <ele>4113</ele>
        <time>2026-08-15T16:22:51.000Z</time>
        <extensions>
          <ns3:TrackPointExtension>
            <ns3:hr>100</ns3:hr>
            <ns3:cad>0</ns3:cad>
          </ns3:TrackPointExtension>
        </extensions>
      </trkpt>
      <trkpt lat="37.98934324644505977630615234375" lon="-107.747816629707813262939453125">
        <ele>4112.7998046875</ele>
        <time>2026-08-15T16:22:52.000Z</time>
        <extensions>
          <ns3:TrackPointExtension>
            <ns3:hr>98</ns3:hr>
            <ns3:cad>0</ns3:cad>
          </ns3:TrackPointExtension>
        </extensions>
      </trkpt>
      <trkpt lat="37.989341318607330322265625" lon="-107.74781503714621067047119140625">
        <ele>4112.60009765625</ele>
        <time>2026-08-15T16:22:53.000Z</time>
        <extensions>
          <ns3:TrackPointExtension>
            <ns3:hr>95</ns3:hr>
            <ns3:cad>0</ns3:cad>
          </ns3:TrackPointExtension>
        </extensions>
      </trkpt>
      <trkpt lat="37.989335954189300537109375" lon="-107.7478181384503841400146484375">
        <ele>4112.39990234375</ele>
        <time>2026-08-15T16:22:54.000Z</time>
        <extensions>
          <ns3:TrackPointExtension>
            <ns3:hr>91</ns3:hr>
            <ns3:cad>0</ns3:cad>
          </ns3:TrackPointExtension>
        </extensions>
      </trkpt>
      <trkpt lat="37.98931407742202281951904296875" lon="-107.7478587068617343902587890625">
        <ele>4111.60009765625</ele>
        <time>2026-08-15T16:22:58.000Z</time>
        <extensions>
          <ns3:TrackPointExtension>
            <ns3:hr>89</ns3:hr>
            <ns3:cad>0</ns3:cad>
          </ns3:TrackPointExtension>
        </extensions>
      </trkpt>
      <trkpt lat="37.98928926698863506317138671875" lon="-107.74791612289845943450927734375">
        <ele>4111</ele>
        <time>2026-08-15T16:23:02.000Z</time>
        <extensions>
          <ns3:TrackPointExtension>
            <ns3:hr>86</ns3:hr>
            <ns3:cad>0</ns3:cad>
          </ns3:TrackPointExtension>
        </extensions>
      </trkpt>
      <trkpt lat="37.9892824776470661163330078125" lon="-107.747949399054050445556640625">
        <ele>4111.2001953125</ele>
        <time>2026-08-15T16:23:05.000Z</time>
        <extensions>
          <ns3:TrackPointExtension>
            <ns3:hr>87</ns3:hr>
            <ns3:cad>0</ns3:cad>
          </ns3:TrackPointExtension>
        </extensions>
      </trkpt>
      <trkpt lat="37.98926127143204212188720703125" lon="-107.74801368825137615203857421875">
        <ele>4110.39990234375</ele>
        <time>2026-08-15T16:23:10.000Z</time>
        <extensions>
          <ns3:TrackPointExtension>
            <ns3:hr>88</ns3:hr>
            <ns3:cad>0</ns3:cad>
          </ns3:TrackPointExtension>
        </extensions>
      </trkpt>
      <trkpt lat="37.9892593435943126678466796875" lon="-107.74802559055387973785400390625">
        <ele>4110.2001953125</ele>
        <time>2026-08-15T16:23:11.000Z</time>
        <extensions>
          <ns3:TrackPointExtension>
            <ns3:hr>88</ns3:hr>
            <ns3:cad>0</ns3:cad>
          </ns3:TrackPointExtension>
        </extensions>
      </trkpt>
      <trkpt lat="37.98924718983471393585205078125" lon="-107.748046629130840301513671875">
        <ele>4110.2001953125</ele>
        <time>2026-08-15T16:23:14.000Z</time>
        <extensions>
          <ns3:TrackPointExtension>
            <ns3:hr>91</ns3:hr>
            <ns3:cad>0</ns3:cad>
          </ns3:TrackPointExtension>
        </extensions>
      </trkpt>
      <trkpt lat="37.989241741597652435302734375" lon="-107.74805693887174129486083984375">
        <ele>4110.2001953125</ele>
        <time>2026-08-15T16:23:15.000Z</time>
        <extensions>
          <ns3:TrackPointExtension>
            <ns3:hr>96</ns3:hr>
            <ns3:cad>0</ns3:cad>
          </ns3:TrackPointExtension>
        </extensions>
      </trkpt>
      <trkpt lat="37.98923511989414691925048828125" lon="-107.74806381203234195709228515625">
        <ele>4110.2001953125</ele>
        <time>2026-08-15T16:23:16.000Z</time>
        <extensions>
          <ns3:TrackPointExtension>
            <ns3:hr>96</ns3:hr>
            <ns3:cad>0</ns3:cad>
          </ns3:TrackPointExtension>
        </extensions>
      </trkpt>
      <trkpt lat="37.98922673799097537994384765625" lon="-107.7480685897171497344970703125">
        <ele>4110.2001953125</ele>
        <time>2026-08-15T16:23:17.000Z</time>
        <extensions>
          <ns3:TrackPointExtension>
            <ns3:hr>99</ns3:hr>
            <ns3:cad>0</ns3:cad>
          </ns3:TrackPointExtension>
        </extensions>
      </trkpt>
      <trkpt lat="37.98918214626610279083251953125" lon="-107.74810086004436016082763671875">
        <ele>4110.7998046875</ele>
        <time>2026-08-15T16:23:22.000Z</time>
        <extensions>
          <ns3:TrackPointExtension>
            <ns3:hr>102</ns3:hr>
            <ns3:cad>0</ns3:cad>
          </ns3:TrackPointExtension>
        </extensions>
      </trkpt>
      <trkpt lat="37.98917124979197978973388671875" lon="-107.7481135167181491851806640625">
        <ele>4111</ele>
        <time>2026-08-15T16:23:23.000Z</time>
        <extensions>
          <ns3:TrackPointExtension>
            <ns3:hr>102</ns3:hr>
            <ns3:cad>0</ns3:cad>
          </ns3:TrackPointExtension>
        </extensions>
      </trkpt>
      <trkpt lat="37.98915247432887554168701171875" lon="-107.7481433562934398651123046875">
        <ele>4111.39990234375</ele>
        <time>2026-08-15T16:23:26.000Z</time>
        <extensions>
          <ns3:TrackPointExtension>
            <ns3:hr>102</ns3:hr>
            <ns3:cad>0</ns3:cad>
          </ns3:TrackPointExtension>
        </extensions>
      </trkpt>
      <trkpt lat="37.9891396500170230865478515625" lon="-107.74815651588141918182373046875">
        <ele>4111.60009765625</ele>
        <time>2026-08-15T16:23:29.000Z</time>
        <extensions>
          <ns3:TrackPointExtension>
            <ns3:hr>101</ns3:hr>
            <ns3:cad>0</ns3:cad>
          </ns3:TrackPointExtension>
        </extensions>
      </trkpt>
      <trkpt lat="37.98912682570517063140869140625" lon="-107.7481473796069622039794921875">
        <ele>4111.39990234375</ele>
        <time>2026-08-15T16:23:32.000Z</time>
        <extensions>
          <ns3:TrackPointExtension>
            <ns3:hr>100</ns3:hr>
            <ns3:cad>0</ns3:cad>
          </ns3:TrackPointExtension>
        </extensions>
      </trkpt>
      <trkpt lat="37.9891118220984935760498046875" lon="-107.7481457032263278961181640625">
        <ele>4111.2001953125</ele>
        <time>2026-08-15T16:23:36.000Z</time>
        <extensions>
          <ns3:TrackPointExtension>
            <ns3:hr>98</ns3:hr>
            <ns3:cad>0</ns3:cad>
          </ns3:TrackPointExtension>
        </extensions>
      </trkpt>
      <trkpt lat="37.989103607833385467529296875" lon="-107.748160623013973236083984375">
        <ele>4111</ele>
        <time>2026-08-15T16:23:41.000Z</time>
        <extensions>
          <ns3:TrackPointExtension>
            <ns3:hr>96</ns3:hr>
            <ns3:cad>0</ns3:cad>
          </ns3:TrackPointExtension>
        </extensions>
      </trkpt>
      <trkpt lat="37.989105619490146636962890625" lon="-107.7481555938720703125">
        <ele>4110.39990234375</ele>
        <time>2026-08-15T16:23:44.000Z</time>
        <extensions>
          <ns3:TrackPointExtension>
            <ns3:hr>95</ns3:hr>
            <ns3:cad>0</ns3:cad>
          </ns3:TrackPointExtension>
        </extensions>
      </trkpt>
      <trkpt lat="37.98911626450717449188232421875" lon="-107.74814578704535961151123046875">
        <ele>4110.7998046875</ele>
        <time>2026-08-15T16:23:49.000Z</time>
        <extensions>
          <ns3:TrackPointExtension>
            <ns3:hr>96</ns3:hr>
            <ns3:cad>0</ns3:cad>
          </ns3:TrackPointExtension>
        </extensions>
      </trkpt>
      <trkpt lat="37.989116348326206207275390625" lon="-107.7481457032263278961181640625">
        <ele>4110.60009765625</ele>
        <time>2026-08-15T16:23:54.000Z</time>
        <extensions>
          <ns3:TrackPointExtension>
            <ns3:hr>99</ns3:hr>
            <ns3:cad>0</ns3:cad>
          </ns3:TrackPointExtension>
        </extensions>
      </trkpt>
      <trkpt lat="37.989116348326206207275390625" lon="-107.7481457032263278961181640625">
        <ele>4110.7998046875</ele>
        <time>2026-08-15T16:24:00.000Z</time>
        <extensions>
          <ns3:TrackPointExtension>
            <ns3:hr>99</ns3:hr>
            <ns3:cad>0</ns3:cad>
          </ns3:TrackPointExtension>
        </extensions>
      </trkpt>
      <trkpt lat="37.989116348326206207275390625" lon="-107.7481457032263278961181640625">
        <ele>4110.60009765625</ele>
        <time>2026-08-15T16:24:02.000Z</time>
        <extensions>
          <ns3:TrackPointExtension>
            <ns3:hr>100</ns3:hr>
            <ns3:cad>0</ns3:cad>
          </ns3:TrackPointExtension>
        </extensions>
      </trkpt>
      <trkpt lat="37.989116348326206207275390625" lon="-107.7481457032263278961181640625">
        <ele>4110.60009765625</ele>
        <time>2026-08-15T16:24:06.000Z</time>
        <extensions>
          <ns3:TrackPointExtension>
            <ns3:hr>103</ns3:hr>
            <ns3:cad>0</ns3:cad>
          </ns3:TrackPointExtension>
        </extensions>
      </trkpt>
      <trkpt lat="37.989116348326206207275390625" lon="-107.7481457032263278961181640625">
        <ele>4110.2001953125</ele>
        <time>2026-08-15T16:24:09.000Z</time>
        <extensions>
          <ns3:TrackPointExtension>
            <ns3:hr>106</ns3:hr>
            <ns3:cad>0</ns3:cad>
          </ns3:TrackPointExtension>
        </extensions>
      </trkpt>
      <trkpt lat="37.9890953935682773590087890625" lon="-107.748163975775241851806640625">
        <ele>4110.2001953125</ele>
        <time>2026-08-15T16:24:14.000Z</time>
        <extensions>
          <ns3:TrackPointExtension>
            <ns3:hr>107</ns3:hr>
            <ns3:cad>77</ns3:cad>
          </ns3:TrackPointExtension>
        </extensions>
      </trkpt>
      <trkpt lat="37.98905909992754459381103515625" lon="-107.74819381535053253173828125">
        <ele>4111.60009765625</ele>
        <time>2026-08-15T16:24:19.000Z</time>
        <extensions>
          <ns3:TrackPointExtension>
            <ns3:hr>108</ns3:hr>
            <ns3:cad>0</ns3:cad>
          </ns3:TrackPointExtension>
        </extensions>
      </trkpt>
      <trkpt lat="37.989058680832386016845703125" lon="-107.7481976710259914398193359375">
        <ele>4112</ele>
        <time>2026-08-15T16:24:23.000Z</time>
        <extensions>
          <ns3:TrackPointExtension>
            <ns3:hr>108</ns3:hr>
            <ns3:cad>0</ns3:cad>
          </ns3:TrackPointExtension>
        </extensions>
      </trkpt>
      <trkpt lat="37.989058680832386016845703125" lon="-107.7481976710259914398193359375">
        <ele>4112.2001953125</ele>
        <time>2026-08-15T16:24:29.000Z</time>
        <extensions>
          <ns3:TrackPointExtension>
            <ns3:hr>110</ns3:hr>
            <ns3:cad>0</ns3:cad>
          </ns3:TrackPointExtension>
        </extensions>
      </trkpt>
      <trkpt lat="37.989058680832386016845703125" lon="-107.7481976710259914398193359375">
        <ele>4112.2001953125</ele>
        <time>2026-08-15T16:24:35.000Z</time>
        <extensions>
          <ns3:TrackPointExtension>
            <ns3:hr>109</ns3:hr>
            <ns3:cad>0</ns3:cad>
          </ns3:TrackPointExtension>
        </extensions>
      </trkpt>
      <trkpt lat="37.9890846647322177886962890625" lon="-107.74818442761898040771484375">
        <ele>4112.39990234375</ele>
        <time>2026-08-15T16:24:41.000Z</time>
        <extensions>
          <ns3:TrackPointExtension>
            <ns3:hr>108</ns3:hr>
            <ns3:cad>0</ns3:cad>
          </ns3:TrackPointExtension>
        </extensions>
      </trkpt>
      <trkpt lat="37.9890878498554229736328125" lon="-107.748179398477077484130859375">
        <ele>4112.39990234375</ele>
        <time>2026-08-15T16:24:42.000Z</time>
        <extensions>
          <ns3:TrackPointExtension>
            <ns3:hr>107</ns3:hr>
            <ns3:cad>0</ns3:cad>
          </ns3:TrackPointExtension>
        </extensions>
      </trkpt>
      <trkpt lat="37.98910167999565601348876953125" lon="-107.74816690944135189056396484375">
        <ele>4112.2001953125</ele>
        <time>2026-08-15T16:24:45.000Z</time>
        <extensions>
          <ns3:TrackPointExtension>
            <ns3:hr>104</ns3:hr>
            <ns3:cad>0</ns3:cad>
          </ns3:TrackPointExtension>
        </extensions>
      </trkpt>
      <trkpt lat="37.98910461366176605224609375" lon="-107.74815433658659458160400390625">
        <ele>4111.7998046875</ele>
        <time>2026-08-15T16:24:47.000Z</time>
        <extensions>
          <ns3:TrackPointExtension>
            <ns3:hr>103</ns3:hr>
            <ns3:cad>0</ns3:cad>
          </ns3:TrackPointExtension>
        </extensions>
      </trkpt>
      <trkpt lat="37.9891024343669414520263671875" lon="-107.748123072087764739990234375">
        <ele>4110.2001953125</ele>
        <time>2026-08-15T16:24:51.000Z</time>
        <extensions>
          <ns3:TrackPointExtension>
            <ns3:hr>102</ns3:hr>
            <ns3:cad>0</ns3:cad>
          </ns3:TrackPointExtension>
        </extensions>
      </trkpt>
      <trkpt lat="37.9890863411128520965576171875" lon="-107.74811192415654659271240234375">
        <ele>4109.2001953125</ele>
        <time>2026-08-15T16:24:53.000Z</time>
        <extensions>
          <ns3:TrackPointExtension>
            <ns3:hr>101</ns3:hr>
            <ns3:cad>0</ns3:cad>
          </ns3:TrackPointExtension>
        </extensions>
      </trkpt>
      <trkpt lat="37.98908290453255176544189453125" lon="-107.7481061406433582305908203125">
        <ele>4108.7998046875</ele>
        <time>2026-08-15T16:24:54.000Z</time>
        <extensions>
          <ns3:TrackPointExtension>
            <ns3:hr>101</ns3:hr>
            <ns3:cad>0</ns3:cad>
          </ns3:TrackPointExtension>
        </extensions>
      </trkpt>
      <trkpt lat="37.9890615306794643402099609375" lon="-107.7480923943221569061279296875">
        <ele>4107.60009765625</ele>
        <time>2026-08-15T16:24:57.000Z</time>
        <extensions>
          <ns3:TrackPointExtension>
            <ns3:hr>101</ns3:hr>
            <ns3:cad>0</ns3:cad>
          </ns3:TrackPointExtension>
        </extensions>
      </trkpt>
      <trkpt lat="37.98903881572186946868896484375" lon="-107.74809046648442745208740234375">
        <ele>4107.2001953125</ele>
        <time>2026-08-15T16:25:00.000Z</time>
        <extensions>
          <ns3:TrackPointExtension>
            <ns3:hr>99</ns3:hr>
            <ns3:cad>0</ns3:cad>
          </ns3:TrackPointExtension>
        </extensions>
      </trkpt>
      <trkpt lat="37.989028505980968475341796875" lon="-107.74809113703668117523193359375">
        <ele>4108</ele>
        <time>2026-08-15T16:25:06.000Z</time>
        <extensions>
          <ns3:TrackPointExtension>
            <ns3:hr>97</ns3:hr>
            <ns3:cad>0</ns3:cad>
          </ns3:TrackPointExtension>
        </extensions>
      </trkpt>
      <trkpt lat="37.98902976326644420623779296875" lon="-107.7480913884937763214111328125">
        <ele>4108</ele>
        <time>2026-08-15T16:25:07.000Z</time>
        <extensions>
          <ns3:TrackPointExtension>
            <ns3:hr>97</ns3:hr>
            <ns3:cad>0</ns3:cad>
          </ns3:TrackPointExtension>
        </extensions>
      </trkpt>
      <trkpt lat="37.98905708827078342437744140625" lon="-107.748090885579586029052734375">
        <ele>4107.7998046875</ele>
        <time>2026-08-15T16:25:12.000Z</time>
        <extensions>
          <ns3:TrackPointExtension>
            <ns3:hr>96</ns3:hr>
            <ns3:cad>0</ns3:cad>
          </ns3:TrackPointExtension>
        </extensions>
      </trkpt>
      <trkpt lat="37.9890596866607666015625" lon="-107.7480944059789180755615234375">
        <ele>4108.60009765625</ele>
        <time>2026-08-15T16:25:15.000Z</time>
        <extensions>
          <ns3:TrackPointExtension>
            <ns3:hr>96</ns3:hr>
            <ns3:cad>0</ns3:cad>
          </ns3:TrackPointExtension>
        </extensions>
      </trkpt>
      <trkpt lat="37.98907988704741001129150390625" lon="-107.748108319938182830810546875">
        <ele>4108.60009765625</ele>
        <time>2026-08-15T16:25:21.000Z</time>
        <extensions>
          <ns3:TrackPointExtension>
            <ns3:hr>95</ns3:hr>
            <ns3:cad>0</ns3:cad>
          </ns3:TrackPointExtension>
        </extensions>
      </trkpt>
      <trkpt lat="37.98908743076026439666748046875" lon="-107.748105637729167938232421875">
        <ele>4108.39990234375</ele>
        <time>2026-08-15T16:25:22.000Z</time>
        <extensions>
          <ns3:TrackPointExtension>
            <ns3:hr>94</ns3:hr>
            <ns3:cad>0</ns3:cad>
          </ns3:TrackPointExtension>
        </extensions>
      </trkpt>
      <trkpt lat="37.9891222156584262847900390625" lon="-107.74808795191347599029541015625">
        <ele>4109.2001953125</ele>
        <time>2026-08-15T16:25:28.000Z</time>
        <extensions>
          <ns3:TrackPointExtension>
            <ns3:hr>93</ns3:hr>
            <ns3:cad>0</ns3:cad>
          </ns3:TrackPointExtension>
        </extensions>
      </trkpt>
      <trkpt lat="37.98914124257862567901611328125" lon="-107.74806817062199115753173828125">
        <ele>4109.60009765625</ele>
        <time>2026-08-15T16:25:31.000Z</time>
        <extensions>
          <ns3:TrackPointExtension>
            <ns3:hr>97</ns3:hr>
            <ns3:cad>0</ns3:cad>
          </ns3:TrackPointExtension>
        </extensions>
      </trkpt>
      <trkpt lat="37.98914677463471889495849609375" lon="-107.74806247092783451080322265625">
        <ele>4109.60009765625</ele>
        <time>2026-08-15T16:25:32.000Z</time>
        <extensions>
          <ns3:TrackPointExtension>
            <ns3:hr>100</ns3:hr>
            <ns3:cad>0</ns3:cad>
          </ns3:TrackPointExtension>
        </extensions>
      </trkpt>
      <trkpt lat="37.98915750347077846527099609375" lon="-107.74805442430078983306884765625">
        <ele>4109.39990234375</ele>
        <time>2026-08-15T16:25:34.000Z</time>
        <extensions>
          <ns3:TrackPointExtension>
            <ns3:hr>103</ns3:hr>
            <ns3:cad>0</ns3:cad>
          </ns3:TrackPointExtension>
        </extensions>
      </trkpt>
      <trkpt lat="37.98917007632553577423095703125" lon="-107.74804336018860340118408203125">
        <ele>4108.39990234375</ele>
        <time>2026-08-15T16:25:40.000Z</time>
        <extensions>
          <ns3:TrackPointExtension>
            <ns3:hr>102</ns3:hr>
            <ns3:cad>0</ns3:cad>
          </ns3:TrackPointExtension>
        </extensions>
      </trkpt>
      <trkpt lat="37.98917661421000957489013671875" lon="-107.74803900159895420074462890625">
        <ele>4108.2001953125</ele>
        <time>2026-08-15T16:25:41.000Z</time>
        <extensions>
          <ns3:TrackPointExtension>
            <ns3:hr>102</ns3:hr>
            <ns3:cad>0</ns3:cad>
          </ns3:TrackPointExtension>
        </extensions>
      </trkpt>
      <trkpt lat="37.98918499611318111419677734375" lon="-107.74801905266940593719482421875">
        <ele>4107.39990234375</ele>
        <time>2026-08-15T16:25:46.000Z</time>
        <extensions>
          <ns3:TrackPointExtension>
            <ns3:hr>103</ns3:hr>
            <ns3:cad>0</ns3:cad>
          </ns3:TrackPointExtension>
        </extensions>
      </trkpt>
      <trkpt lat="37.98918264918029308319091796875" lon="-107.74801972322165966033935546875">
        <ele>4107.39990234375</ele>
        <time>2026-08-15T16:25:52.000Z</time>
        <extensions>
          <ns3:TrackPointExtension>
            <ns3:hr>103</ns3:hr>
            <ns3:cad>0</ns3:cad>
          </ns3:TrackPointExtension>
        </extensions>
      </trkpt>
      <trkpt lat="37.98918248154222965240478515625" lon="-107.74802324362099170684814453125">
        <ele>4107.2001953125</ele>
        <time>2026-08-15T16:25:54.000Z</time>
        <extensions>
          <ns3:TrackPointExtension>
            <ns3:hr>103</ns3:hr>
            <ns3:cad>0</ns3:cad>
          </ns3:TrackPointExtension>
        </extensions>
      </trkpt>
      <trkpt lat="37.9891765303909778594970703125" lon="-107.7480112574994564056396484375">
        <ele>4106.60009765625</ele>
        <time>2026-08-15T16:26:00.000Z</time>
        <extensions>
          <ns3:TrackPointExtension>
            <ns3:hr>102</ns3:hr>
            <ns3:cad>0</ns3:cad>
          </ns3:TrackPointExtension>
        </extensions>
      </trkpt>
      <trkpt lat="37.9891587607562541961669921875" lon="-107.74801620282232761383056640625">
        <ele>4106.60009765625</ele>
        <time>2026-08-15T16:26:06.000Z</time>
        <extensions>
          <ns3:TrackPointExtension>
            <ns3:hr>103</ns3:hr>
            <ns3:cad>0</ns3:cad>
          </ns3:TrackPointExtension>
        </extensions>
      </trkpt>
      <trkpt lat="37.98915783874690532684326171875" lon="-107.74800597690045833587646484375">
        <ele>4106.39990234375</ele>
        <time>2026-08-15T16:26:09.000Z</time>
        <extensions>
          <ns3:TrackPointExtension>
            <ns3:hr>103</ns3:hr>
            <ns3:cad>0</ns3:cad>
          </ns3:TrackPointExtension>
        </extensions>
      </trkpt>
      <trkpt lat="37.989165969192981719970703125" lon="-107.7480001933872699737548828125">
        <ele>4105.7998046875</ele>
        <time>2026-08-15T16:26:13.000Z</time>
        <extensions>
          <ns3:TrackPointExtension>
            <ns3:hr>103</ns3:hr>
            <ns3:cad>0</ns3:cad>
          </ns3:TrackPointExtension>
        </extensions>
      </trkpt>
      <trkpt lat="37.9891611076891422271728515625" lon="-107.74799491278827190399169921875">
        <ele>4105.2001953125</ele>
        <time>2026-08-15T16:26:15.000Z</time>
        <extensions>
          <ns3:TrackPointExtension>
            <ns3:hr>102</ns3:hr>
            <ns3:cad>0</ns3:cad>
          </ns3:TrackPointExtension>
        </extensions>
      </trkpt>
      <trkpt lat="37.98916320316493511199951171875" lon="-107.7479730360209941864013671875">
        <ele>4104</ele>
        <time>2026-08-15T16:26:19.000Z</time>
        <extensions>
          <ns3:TrackPointExtension>
            <ns3:hr>99</ns3:hr>
            <ns3:cad>0</ns3:cad>
          </ns3:TrackPointExtension>
        </extensions>
      </trkpt>
      <trkpt lat="37.98917527310550212860107421875" lon="-107.74795920588076114654541015625">
        <ele>4103.60009765625</ele>
        <time>2026-08-15T16:26:21.000Z</time>
        <extensions>
          <ns3:TrackPointExtension>
            <ns3:hr>97</ns3:hr>
            <ns3:cad>0</ns3:cad>
          </ns3:TrackPointExtension>
        </extensions>
      </trkpt>
      <trkpt lat="37.9891788773238658905029296875" lon="-107.74794462136924266815185546875">
        <ele>4102.7998046875</ele>
        <time>2026-08-15T16:26:25.000Z</time>
        <extensions>
          <ns3:TrackPointExtension>
            <ns3:hr>95</ns3:hr>
            <ns3:cad>0</ns3:cad>
          </ns3:TrackPointExtension>
        </extensions>
      </trkpt>
      <trkpt lat="37.9891822300851345062255859375" lon="-107.74794478900730609893798828125">
        <ele>4102.2001953125</ele>
        <time>2026-08-15T16:26:27.000Z</time>
        <extensions>
          <ns3:TrackPointExtension>
            <ns3:hr>95</ns3:hr>
            <ns3:cad>0</ns3:cad>
          </ns3:TrackPointExtension>
        </extensions>
      </trkpt>
      <trkpt lat="37.9891855828464031219482421875" lon="-107.74791888892650604248046875">
        <ele>4101.60009765625</ele>
        <time>2026-08-15T16:26:31.000Z</time>
        <extensions>
          <ns3:TrackPointExtension>
            <ns3:hr>95</ns3:hr>
            <ns3:cad>59</ns3:cad>
          </ns3:TrackPointExtension>
        </extensions>
      </trkpt>
      <trkpt lat="37.9891839064657688140869140625" lon="-107.74790505878627300262451171875">
        <ele>4101.2001953125</ele>
        <time>2026-08-15T16:26:32.000Z</time>
        <extensions>
          <ns3:TrackPointExtension>
            <ns3:hr>95</ns3:hr>
            <ns3:cad>59</ns3:cad>
          </ns3:TrackPointExtension>
        </extensions>
      </trkpt>
      <trkpt lat="37.9891802184283733367919921875" lon="-107.7479043044149875640869140625">
        <ele>4100.39990234375</ele>
        <time>2026-08-15T16:26:34.000Z</time>
        <extensions>
          <ns3:TrackPointExtension>
            <ns3:hr>94</ns3:hr>
            <ns3:cad>59</ns3:cad>
          </ns3:TrackPointExtension>
        </extensions>
      </trkpt>
      <trkpt lat="37.989172004163265228271484375" lon="-107.74789868853986263275146484375">
        <ele>4100</ele>
        <time>2026-08-15T16:26:37.000Z</time>
        <extensions>
          <ns3:TrackPointExtension>
            <ns3:hr>94</ns3:hr>
            <ns3:cad>59</ns3:cad>
          </ns3:TrackPointExtension>
        </extensions>
      </trkpt>
      <trkpt lat="37.9891614429652690887451171875" lon="-107.74790522642433643341064453125">
        <ele>4099.7998046875</ele>
        <time>2026-08-15T16:26:43.000Z</time>
        <extensions>
          <ns3:TrackPointExtension>
            <ns3:hr>93</ns3:hr>
            <ns3:cad>0</ns3:cad>
          </ns3:TrackPointExtension>
        </extensions>
      </trkpt>
      <trkpt lat="37.989161275327205657958984375" lon="-107.7479021251201629638671875">
        <ele>4099.60009765625</ele>
        <time>2026-08-15T16:26:45.000Z</time>
        <extensions>
          <ns3:TrackPointExtension>
            <ns3:hr>92</ns3:hr>
            <ns3:cad>0</ns3:cad>
          </ns3:TrackPointExtension>
        </extensions>
      </trkpt>
      <trkpt lat="37.989161275327205657958984375" lon="-107.7479021251201629638671875">
        <ele>4099.2001953125</ele>
        <time>2026-08-15T16:26:48.000Z</time>
        <extensions>
          <ns3:TrackPointExtension>
            <ns3:hr>93</ns3:hr>
            <ns3:cad>0</ns3:cad>
          </ns3:TrackPointExtension>
        </extensions>
      </trkpt>
      <trkpt lat="37.989169992506504058837890625" lon="-107.747894413769245147705078125">
        <ele>4099.2001953125</ele>
        <time>2026-08-15T16:26:53.000Z</time>
        <extensions>
          <ns3:TrackPointExtension>
            <ns3:hr>95</ns3:hr>
            <ns3:cad>0</ns3:cad>
          </ns3:TrackPointExtension>
        </extensions>
      </trkpt>
      <trkpt lat="37.989163957536220550537109375" lon="-107.7478768117725849151611328125">
        <ele>4098.39990234375</ele>
        <time>2026-08-15T16:26:57.000Z</time>
        <extensions>
          <ns3:TrackPointExtension>
            <ns3:hr>96</ns3:hr>
            <ns3:cad>0</ns3:cad>
          </ns3:TrackPointExtension>
        </extensions>
      </trkpt>
      <trkpt lat="37.989163957536220550537109375" lon="-107.7478768117725849151611328125">
        <ele>4098.2001953125</ele>
        <time>2026-08-15T16:26:58.000Z</time>
        <extensions>
          <ns3:TrackPointExtension>
            <ns3:hr>95</ns3:hr>
            <ns3:cad>0</ns3:cad>
          </ns3:TrackPointExtension>
        </extensions>
      </trkpt>
      <trkpt lat="37.98916303552687168121337890625" lon="-107.7478644065558910369873046875">
        <ele>4097.39990234375</ele>
        <time>2026-08-15T16:27:03.000Z</time>
        <extensions>
          <ns3:TrackPointExtension>
            <ns3:hr>95</ns3:hr>
            <ns3:cad>0</ns3:cad>
          </ns3:TrackPointExtension>
        </extensions>
      </trkpt>
      <trkpt lat="37.98916387371718883514404296875" lon="-107.74785988032817840576171875">
        <ele>4097</ele>
        <time>2026-08-15T16:27:06.000Z</time>
        <extensions>
          <ns3:TrackPointExtension>
            <ns3:hr>96</ns3:hr>
            <ns3:cad>0</ns3:cad>
          </ns3:TrackPointExtension>
        </extensions>
      </trkpt>
      <trkpt lat="37.98916018567979335784912109375" lon="-107.74785451591014862060546875">
        <ele>4096.7998046875</ele>
        <time>2026-08-15T16:27:08.000Z</time>
        <extensions>
          <ns3:TrackPointExtension>
            <ns3:hr>95</ns3:hr>
            <ns3:cad>0</ns3:cad>
          </ns3:TrackPointExtension>
        </extensions>
      </trkpt>
      <trkpt lat="37.98915557563304901123046875" lon="-107.747844792902469635009765625">
        <ele>4096.2001953125</ele>
        <time>2026-08-15T16:27:12.000Z</time>
        <extensions>
          <ns3:TrackPointExtension>
            <ns3:hr>91</ns3:hr>
            <ns3:cad>0</ns3:cad>
          </ns3:TrackPointExtension>
        </extensions>
      </trkpt>
      <trkpt lat="37.9891557432711124420166015625" lon="-107.7478429488837718963623046875">
        <ele>4096.2001953125</ele>
        <time>2026-08-15T16:27:14.000Z</time>
        <extensions>
          <ns3:TrackPointExtension>
            <ns3:hr>90</ns3:hr>
            <ns3:cad>0</ns3:cad>
          </ns3:TrackPointExtension>
        </extensions>
      </trkpt>
      <trkpt lat="37.989143170416355133056640625" lon="-107.7478305436670780181884765625">
        <ele>4096</ele>
        <time>2026-08-15T16:27:20.000Z</time>
        <extensions>
          <ns3:TrackPointExtension>
            <ns3:hr>91</ns3:hr>
            <ns3:cad>68</ns3:cad>
          </ns3:TrackPointExtension>
        </extensions>
      </trkpt>
      <trkpt lat="37.98913638107478618621826171875" lon="-107.7478292025625705718994140625">
        <ele>4096</ele>
        <time>2026-08-15T16:27:21.000Z</time>
        <extensions>
          <ns3:TrackPointExtension>
            <ns3:hr>90</ns3:hr>
            <ns3:cad>68</ns3:cad>
          </ns3:TrackPointExtension>
        </extensions>
      </trkpt>
      <trkpt lat="37.98913470469415187835693359375" lon="-107.74782367050647735595703125">
        <ele>4095.39990234375</ele>
        <time>2026-08-15T16:27:27.000Z</time>
        <extensions>
          <ns3:TrackPointExtension>
            <ns3:hr>92</ns3:hr>
            <ns3:cad>0</ns3:cad>
          </ns3:TrackPointExtension>
        </extensions>
      </trkpt>
      <trkpt lat="37.98912447877228260040283203125" lon="-107.7478342317044734954833984375">
        <ele>4095.199951171875</ele>
        <time>2026-08-15T16:27:33.000Z</time>
        <extensions>
          <ns3:TrackPointExtension>
            <ns3:hr>93</ns3:hr>
            <ns3:cad>0</ns3:cad>
          </ns3:TrackPointExtension>
        </extensions>
      </trkpt>
      <trkpt lat="37.9891240596771240234375" lon="-107.74782761000096797943115234375">
        <ele>4095.199951171875</ele>
        <time>2026-08-15T16:27:34.000Z</time>
        <extensions>
          <ns3:TrackPointExtension>
            <ns3:hr>93</ns3:hr>
            <ns3:cad>0</ns3:cad>
          </ns3:TrackPointExtension>
        </extensions>
      </trkpt>
      <trkpt lat="37.98912204802036285400390625" lon="-107.74783029220998287200927734375">
        <ele>4095.199951171875</ele>
        <time>2026-08-15T16:27:40.000Z</time>
        <extensions>
          <ns3:TrackPointExtension>
            <ns3:hr>95</ns3:hr>
            <ns3:cad>0</ns3:cad>
          </ns3:TrackPointExtension>
        </extensions>
      </trkpt>
      <trkpt lat="37.9891205392777919769287109375" lon="-107.747828699648380279541015625">
        <ele>4094.800048828125</ele>
        <time>2026-08-15T16:27:42.000Z</time>
        <extensions>
          <ns3:TrackPointExtension>
            <ns3:hr>95</ns3:hr>
            <ns3:cad>0</ns3:cad>
          </ns3:TrackPointExtension>
        </extensions>
      </trkpt>
      <trkpt lat="37.98912146128714084625244140625" lon="-107.74784252978861331939697265625">
        <ele>4094.199951171875</ele>
        <time>2026-08-15T16:27:48.000Z</time>
        <extensions>
          <ns3:TrackPointExtension>
            <ns3:hr>97</ns3:hr>
            <ns3:cad>107</ns3:cad>
          </ns3:TrackPointExtension>
        </extensions>
      </trkpt>
      <trkpt lat="37.98912649042904376983642578125" lon="-107.747843451797962188720703125">
        <ele>4094.199951171875</ele>
        <time>2026-08-15T16:27:49.000Z</time>
        <extensions>
          <ns3:TrackPointExtension>
            <ns3:hr>97</ns3:hr>
            <ns3:cad>107</ns3:cad>
          </ns3:TrackPointExtension>
        </extensions>
      </trkpt>
      <trkpt lat="37.989121377468109130859375" lon="-107.74783733300864696502685546875">
        <ele>4093.800048828125</ele>
        <time>2026-08-15T16:27:52.000Z</time>
        <extensions>
          <ns3:TrackPointExtension>
            <ns3:hr>97</ns3:hr>
            <ns3:cad>0</ns3:cad>
          </ns3:TrackPointExtension>
        </extensions>
      </trkpt>
      <trkpt lat="37.98912162892520427703857421875" lon="-107.74783381260931491851806640625">
        <ele>4093.60009765625</ele>
        <time>2026-08-15T16:27:53.000Z</time>
        <extensions>
          <ns3:TrackPointExtension>
            <ns3:hr>98</ns3:hr>
            <ns3:cad>0</ns3:cad>
          </ns3:TrackPointExtension>
        </extensions>
      </trkpt>
      <trkpt lat="37.98911810852587223052978515625" lon="-107.74781889282166957855224609375">
        <ele>4093.39990234375</ele>
        <time>2026-08-15T16:27:55.000Z</time>
        <extensions>
          <ns3:TrackPointExtension>
            <ns3:hr>102</ns3:hr>
            <ns3:cad>0</ns3:cad>
          </ns3:TrackPointExtension>
        </extensions>
      </trkpt>
      <trkpt lat="37.9891077987849712371826171875" lon="-107.74782157503068447113037109375">
        <ele>4093</ele>
        <time>2026-08-15T16:27:57.000Z</time>
        <extensions>
          <ns3:TrackPointExtension>
            <ns3:hr>105</ns3:hr>
            <ns3:cad>0</ns3:cad>
          </ns3:TrackPointExtension>
        </extensions>
      </trkpt>
      <trkpt lat="37.9890990816056728363037109375" lon="-107.74782769381999969482421875">
        <ele>4092.60009765625</ele>
        <time>2026-08-15T16:27:58.000Z</time>
        <extensions>
          <ns3:TrackPointExtension>
            <ns3:hr>105</ns3:hr>
            <ns3:cad>0</ns3:cad>
          </ns3:TrackPointExtension>
        </extensions>
      </trkpt>
      <trkpt lat="37.98909581266343593597412109375" lon="-107.7478362433612346649169921875">
        <ele>4092</ele>
        <time>2026-08-15T16:28:00.000Z</time>
        <extensions>
          <ns3:TrackPointExtension>
            <ns3:hr>106</ns3:hr>
            <ns3:cad>0</ns3:cad>
          </ns3:TrackPointExtension>
        </extensions>
      </trkpt>
      <trkpt lat="37.9890930466353893280029296875" lon="-107.747840769588947296142578125">
        <ele>4091.39990234375</ele>
        <time>2026-08-15T16:28:02.000Z</time>
        <extensions>
          <ns3:TrackPointExtension>
            <ns3:hr>104</ns3:hr>
            <ns3:cad>0</ns3:cad>
          </ns3:TrackPointExtension>
        </extensions>
      </trkpt>
      <trkpt lat="37.9890752770006656646728515625" lon="-107.74784353561699390411376953125">
        <ele>4090.800048828125</ele>
        <time>2026-08-15T16:28:08.000Z</time>
        <extensions>
          <ns3:TrackPointExtension>
            <ns3:hr>102</ns3:hr>
            <ns3:cad>0</ns3:cad>
          </ns3:TrackPointExtension>
        </extensions>
      </trkpt>
      <trkpt lat="37.98906161449849605560302734375" lon="-107.747844122350215911865234375">
        <ele>4090</ele>
        <time>2026-08-15T16:28:14.000Z</time>
        <extensions>
          <ns3:TrackPointExtension>
            <ns3:hr>103</ns3:hr>
            <ns3:cad>0</ns3:cad>
          </ns3:TrackPointExtension>
        </extensions>
      </trkpt>
      <trkpt lat="37.98905977047979831695556640625" lon="-107.74785049259662628173828125">
        <ele>4089.60009765625</ele>
        <time>2026-08-15T16:28:15.000Z</time>
        <extensions>
          <ns3:TrackPointExtension>
            <ns3:hr>105</ns3:hr>
            <ns3:cad>0</ns3:cad>
          </ns3:TrackPointExtension>
        </extensions>
      </trkpt>
      <trkpt lat="37.9890548251569271087646484375" lon="-107.74785309098660945892333984375">
        <ele>4089</ele>
        <time>2026-08-15T16:28:16.000Z</time>
        <extensions>
          <ns3:TrackPointExtension>
            <ns3:hr>110</ns3:hr>
            <ns3:cad>0</ns3:cad>
          </ns3:TrackPointExtension>
        </extensions>
      </trkpt>
      <trkpt lat="37.98905088566243648529052734375" lon="-107.74785527028143405914306640625">
        <ele>4088.60009765625</ele>
        <time>2026-08-15T16:28:17.000Z</time>
        <extensions>
          <ns3:TrackPointExtension>
            <ns3:hr>113</ns3:hr>
            <ns3:cad>0</ns3:cad>
          </ns3:TrackPointExtension>
        </extensions>
      </trkpt>
      <trkpt lat="37.9890377260744571685791015625" lon="-107.7478538453578948974609375">
        <ele>4088</ele>
        <time>2026-08-15T16:28:20.000Z</time>
        <extensions>
          <ns3:TrackPointExtension>
            <ns3:hr>116</ns3:hr>
            <ns3:cad>0</ns3:cad>
          </ns3:TrackPointExtension>
        </extensions>
      </trkpt>
      <trkpt lat="37.9890340380370616912841796875" lon="-107.747853510081768035888671875">
        <ele>4088</ele>
        <time>2026-08-15T16:28:21.000Z</time>
        <extensions>
          <ns3:TrackPointExtension>
            <ns3:hr>116</ns3:hr>
            <ns3:cad>0</ns3:cad>
          </ns3:TrackPointExtension>
        </extensions>
      </trkpt>
      <trkpt lat="37.98902138136327266693115234375" lon="-107.74785024113953113555908203125">
        <ele>4087.60009765625</ele>
        <time>2026-08-15T16:28:26.000Z</time>
        <extensions>
          <ns3:TrackPointExtension>
            <ns3:hr>116</ns3:hr>
            <ns3:cad>0</ns3:cad>
          </ns3:TrackPointExtension>
        </extensions>
      </trkpt>
      <trkpt lat="37.98901350237429141998291015625" lon="-107.7478345669806003570556640625">
        <ele>4086.60009765625</ele>
        <time>2026-08-15T16:28:30.000Z</time>
        <extensions>
          <ns3:TrackPointExtension>
            <ns3:hr>116</ns3:hr>
            <ns3:cad>0</ns3:cad>
          </ns3:TrackPointExtension>
        </extensions>
      </trkpt>
      <trkpt lat="37.98900646157562732696533203125" lon="-107.747832052409648895263671875">
        <ele>4086.199951171875</ele>
        <time>2026-08-15T16:28:31.000Z</time>
        <extensions>
          <ns3:TrackPointExtension>
            <ns3:hr>116</ns3:hr>
            <ns3:cad>0</ns3:cad>
          </ns3:TrackPointExtension>
        </extensions>
      </trkpt>
      <trkpt lat="37.9889944754540920257568359375" lon="-107.74783867411315441131591796875">
        <ele>4085.199951171875</ele>
        <time>2026-08-15T16:28:33.000Z</time>
        <extensions>
          <ns3:TrackPointExtension>
            <ns3:hr>115</ns3:hr>
            <ns3:cad>0</ns3:cad>
          </ns3:TrackPointExtension>
        </extensions>
      </trkpt>
      <trkpt lat="37.98897963948547840118408203125" lon="-107.74784646928310394287109375">
        <ele>4084</ele>
        <time>2026-08-15T16:28:36.000Z</time>
        <extensions>
          <ns3:TrackPointExtension>
            <ns3:hr>112</ns3:hr>
            <ns3:cad>0</ns3:cad>
          </ns3:TrackPointExtension>
        </extensions>
      </trkpt>
      <trkpt lat="37.9889773763716220855712890625" lon="-107.74784822948276996612548828125">
        <ele>4083.800048828125</ele>
        <time>2026-08-15T16:28:37.000Z</time>
        <extensions>
          <ns3:TrackPointExtension>
            <ns3:hr>112</ns3:hr>
            <ns3:cad>0</ns3:cad>
          </ns3:TrackPointExtension>
        </extensions>
      </trkpt>
      <trkpt lat="37.98896270804107189178466796875" lon="-107.74784420616924762725830078125">
        <ele>4082.800048828125</ele>
        <time>2026-08-15T16:28:43.000Z</time>
        <extensions>
          <ns3:TrackPointExtension>
            <ns3:hr>111</ns3:hr>
            <ns3:cad>0</ns3:cad>
          </ns3:TrackPointExtension>
        </extensions>
      </trkpt>
      <trkpt lat="37.9889606125652790069580078125" lon="-107.7478419430553913116455078125">
        <ele>4082.60009765625</ele>
        <time>2026-08-15T16:28:44.000Z</time>
        <extensions>
          <ns3:TrackPointExtension>
            <ns3:hr>111</ns3:hr>
            <ns3:cad>0</ns3:cad>
          </ns3:TrackPointExtension>
        </extensions>
      </trkpt>
      <trkpt lat="37.988941669464111328125" lon="-107.7478577010333538055419921875">
        <ele>4081.800048828125</ele>
        <time>2026-08-15T16:28:49.000Z</time>
        <extensions>
          <ns3:TrackPointExtension>
            <ns3:hr>109</ns3:hr>
            <ns3:cad>0</ns3:cad>
          </ns3:TrackPointExtension>
        </extensions>
      </trkpt>
      <trkpt lat="37.98894024454057216644287109375" lon="-107.74785996414721012115478515625">
        <ele>4081.39990234375</ele>
        <time>2026-08-15T16:28:50.000Z</time>
        <extensions>
          <ns3:TrackPointExtension>
            <ns3:hr>109</ns3:hr>
            <ns3:cad>0</ns3:cad>
          </ns3:TrackPointExtension>
        </extensions>
      </trkpt>
      <trkpt lat="37.988922894001007080078125" lon="-107.747871614992618560791015625">
        <ele>4081.39990234375</ele>
        <time>2026-08-15T16:28:54.000Z</time>
        <extensions>
          <ns3:TrackPointExtension>
            <ns3:hr>106</ns3:hr>
            <ns3:cad>0</ns3:cad>
          </ns3:TrackPointExtension>
        </extensions>
      </trkpt>
      <trkpt lat="37.988905124366283416748046875" lon="-107.7478828467428684234619140625">
        <ele>4081.60009765625</ele>
        <time>2026-08-15T16:28:57.000Z</time>
        <extensions>
          <ns3:TrackPointExtension>
            <ns3:hr>104</ns3:hr>
            <ns3:cad>0</ns3:cad>
          </ns3:TrackPointExtension>
        </extensions>
      </trkpt>
      <trkpt lat="37.9888665676116943359375" lon="-107.747887037694454193115234375">
        <ele>4080.800048828125</ele>
        <time>2026-08-15T16:29:03.000Z</time>
        <extensions>
          <ns3:TrackPointExtension>
            <ns3:hr>104</ns3:hr>
            <ns3:cad>0</ns3:cad>
          </ns3:TrackPointExtension>
        </extensions>
      </trkpt>
      <trkpt lat="37.9888571798801422119140625" lon="-107.74790254421532154083251953125">
        <ele>4081.39990234375</ele>
        <time>2026-08-15T16:29:08.000Z</time>
        <extensions>
          <ns3:TrackPointExtension>
            <ns3:hr>101</ns3:hr>
            <ns3:cad>0</ns3:cad>
          </ns3:TrackPointExtension>
        </extensions>
      </trkpt>
      <trkpt lat="37.9888571798801422119140625" lon="-107.74790254421532154083251953125">
        <ele>4081.60009765625</ele>
        <time>2026-08-15T16:29:09.000Z</time>
        <extensions>
          <ns3:TrackPointExtension>
            <ns3:hr>101</ns3:hr>
            <ns3:cad>0</ns3:cad>
          </ns3:TrackPointExtension>
        </extensions>
      </trkpt>
      <trkpt lat="37.9888571798801422119140625" lon="-107.74790254421532154083251953125">
        <ele>4081.800048828125</ele>
        <time>2026-08-15T16:29:13.000Z</time>
        <extensions>
          <ns3:TrackPointExtension>
            <ns3:hr>97</ns3:hr>
            <ns3:cad>0</ns3:cad>
          </ns3:TrackPointExtension>
        </extensions>
      </trkpt>
      <trkpt lat="37.9888571798801422119140625" lon="-107.74790254421532154083251953125">
        <ele>4081.60009765625</ele>
        <time>2026-08-15T16:29:18.000Z</time>
        <extensions>
          <ns3:TrackPointExtension>
            <ns3:hr>98</ns3:hr>
            <ns3:cad>0</ns3:cad>
          </ns3:TrackPointExtension>
        </extensions>
      </trkpt>
      <trkpt lat="37.98888525925576686859130859375" lon="-107.74788762442767620086669921875">
        <ele>4081.199951171875</ele>
        <time>2026-08-15T16:29:23.000Z</time>
        <extensions>
          <ns3:TrackPointExtension>
            <ns3:hr>95</ns3:hr>
            <ns3:cad>0</ns3:cad>
          </ns3:TrackPointExtension>
        </extensions>
      </trkpt>
      <trkpt lat="37.98888509161770343780517578125" lon="-107.74788946844637393951416015625">
        <ele>4081</ele>
        <time>2026-08-15T16:29:24.000Z</time>
        <extensions>
          <ns3:TrackPointExtension>
            <ns3:hr>92</ns3:hr>
            <ns3:cad>0</ns3:cad>
          </ns3:TrackPointExtension>
        </extensions>
      </trkpt>
      <trkpt lat="37.9888858459889888763427734375" lon="-107.747889049351215362548828125">
        <ele>4080.800048828125</ele>
        <time>2026-08-15T16:29:25.000Z</time>
        <extensions>
          <ns3:TrackPointExtension>
            <ns3:hr>91</ns3:hr>
            <ns3:cad>0</ns3:cad>
          </ns3:TrackPointExtension>
        </extensions>
      </trkpt>
      <trkpt lat="37.98889364115893840789794921875" lon="-107.74787865579128265380859375">
        <ele>4080.60009765625</ele>
        <time>2026-08-15T16:29:27.000Z</time>
        <extensions>
          <ns3:TrackPointExtension>
            <ns3:hr>90</ns3:hr>
            <ns3:cad>0</ns3:cad>
          </ns3:TrackPointExtension>
        </extensions>
      </trkpt>
      <trkpt lat="37.9889079742133617401123046875" lon="-107.74786901660263538360595703125">
        <ele>4080.60009765625</ele>
        <time>2026-08-15T16:29:29.000Z</time>
        <extensions>
          <ns3:TrackPointExtension>
            <ns3:hr>91</ns3:hr>
            <ns3:cad>0</ns3:cad>
          </ns3:TrackPointExtension>
        </extensions>
      </trkpt>
      <trkpt lat="37.9889081418514251708984375" lon="-107.74787052534520626068115234375">
        <ele>4081</ele>
        <time>2026-08-15T16:29:35.000Z</time>
        <extensions>
          <ns3:TrackPointExtension>
            <ns3:hr>90</ns3:hr>
            <ns3:cad>0</ns3:cad>
          </ns3:TrackPointExtension>
        </extensions>
      </trkpt>
      <trkpt lat="37.9889081418514251708984375" lon="-107.74787052534520626068115234375">
        <ele>4081</ele>
        <time>2026-08-15T16:29:36.000Z</time>
        <extensions>
          <ns3:TrackPointExtension>
            <ns3:hr>90</ns3:hr>
            <ns3:cad>0</ns3:cad>
          </ns3:TrackPointExtension>
        </extensions>
      </trkpt>
      <trkpt lat="37.9889081418514251708984375" lon="-107.74787052534520626068115234375">
        <ele>4080.60009765625</ele>
        <time>2026-08-15T16:29:42.000Z</time>
        <extensions>
          <ns3:TrackPointExtension>
            <ns3:hr>91</ns3:hr>
            <ns3:cad>0</ns3:cad>
          </ns3:TrackPointExtension>
        </extensions>
      </trkpt>
      <trkpt lat="37.9889081418514251708984375" lon="-107.74787052534520626068115234375">
        <ele>4080.199951171875</ele>
        <time>2026-08-15T16:29:44.000Z</time>
        <extensions>
          <ns3:TrackPointExtension>
            <ns3:hr>91</ns3:hr>
            <ns3:cad>0</ns3:cad>
          </ns3:TrackPointExtension>
        </extensions>
      </trkpt>
      <trkpt lat="37.9889081418514251708984375" lon="-107.74787052534520626068115234375">
        <ele>4080.60009765625</ele>
        <time>2026-08-15T16:29:49.000Z</time>
        <extensions>
          <ns3:TrackPointExtension>
            <ns3:hr>94</ns3:hr>
            <ns3:cad>0</ns3:cad>
          </ns3:TrackPointExtension>
        </extensions>
      </trkpt>
      <trkpt lat="37.9889160208404064178466796875" lon="-107.74785141460597515106201171875">
        <ele>4080.39990234375</ele>
        <time>2026-08-15T16:29:52.000Z</time>
        <extensions>
          <ns3:TrackPointExtension>
            <ns3:hr>95</ns3:hr>
            <ns3:cad>0</ns3:cad>
          </ns3:TrackPointExtension>
        </extensions>
      </trkpt>
      <trkpt lat="37.98891820013523101806640625" lon="-107.74784269742667675018310546875">
        <ele>4079.60009765625</ele>
        <time>2026-08-15T16:29:56.000Z</time>
        <extensions>
          <ns3:TrackPointExtension>
            <ns3:hr>96</ns3:hr>
            <ns3:cad>0</ns3:cad>
          </ns3:TrackPointExtension>
        </extensions>
      </trkpt>
      <trkpt lat="37.9889203794300556182861328125" lon="-107.74783766828477382659912109375">
        <ele>4079.39990234375</ele>
        <time>2026-08-15T16:29:59.000Z</time>
        <extensions>
          <ns3:TrackPointExtension>
            <ns3:hr>96</ns3:hr>
            <ns3:cad>0</ns3:cad>
          </ns3:TrackPointExtension>
        </extensions>
      </trkpt>
      <trkpt lat="37.9889160208404064178466796875" lon="-107.747802548110485076904296875">
        <ele>4078.39990234375</ele>
        <time>2026-08-15T16:30:05.000Z</time>
        <extensions>
          <ns3:TrackPointExtension>
            <ns3:hr>97</ns3:hr>
            <ns3:cad>0</ns3:cad>
          </ns3:TrackPointExtension>
        </extensions>
      </trkpt>
      <trkpt lat="37.98891744576394557952880859375" lon="-107.7477980218827724456787109375">
        <ele>4078.199951171875</ele>
        <time>2026-08-15T16:30:06.000Z</time>
        <extensions>
          <ns3:TrackPointExtension>
            <ns3:hr>96</ns3:hr>
            <ns3:cad>0</ns3:cad>
          </ns3:TrackPointExtension>
        </extensions>
      </trkpt>
      <trkpt lat="37.98891392536461353302001953125" lon="-107.7477867901325225830078125">
        <ele>4077.39990234375</ele>
        <time>2026-08-15T16:30:09.000Z</time>
        <extensions>
          <ns3:TrackPointExtension>
            <ns3:hr>95</ns3:hr>
            <ns3:cad>0</ns3:cad>
          </ns3:TrackPointExtension>
        </extensions>
      </trkpt>
      <trkpt lat="37.9889066331088542938232421875" lon="-107.74776943959295749664306640625">
        <ele>4076.60009765625</ele>
        <time>2026-08-15T16:30:12.000Z</time>
        <extensions>
          <ns3:TrackPointExtension>
            <ns3:hr>93</ns3:hr>
            <ns3:cad>0</ns3:cad>
          </ns3:TrackPointExtension>
        </extensions>
      </trkpt>
      <trkpt lat="37.98890671692788600921630859375" lon="-107.74777212180197238922119140625">
        <ele>4076.39990234375</ele>
        <time>2026-08-15T16:30:13.000Z</time>
        <extensions>
          <ns3:TrackPointExtension>
            <ns3:hr>93</ns3:hr>
            <ns3:cad>0</ns3:cad>
          </ns3:TrackPointExtension>
        </extensions>
      </trkpt>
      <trkpt lat="37.9889059625566005706787109375" lon="-107.74775661528110504150390625">
        <ele>4076.199951171875</ele>
        <time>2026-08-15T16:30:17.000Z</time>
        <extensions>
          <ns3:TrackPointExtension>
            <ns3:hr>93</ns3:hr>
            <ns3:cad>0</ns3:cad>
          </ns3:TrackPointExtension>
        </extensions>
      </trkpt>
      <trkpt lat="37.98890420235693454742431640625" lon="-107.74771495722234249114990234375">
        <ele>4075.60009765625</ele>
        <time>2026-08-15T16:30:23.000Z</time>
        <extensions>
          <ns3:TrackPointExtension>
            <ns3:hr>93</ns3:hr>
            <ns3:cad>0</ns3:cad>
          </ns3:TrackPointExtension>
        </extensions>
      </trkpt>
      <trkpt lat="37.988901101052761077880859375" lon="-107.74770431220531463623046875">
        <ele>4075.199951171875</ele>
        <time>2026-08-15T16:30:25.000Z</time>
        <extensions>
          <ns3:TrackPointExtension>
            <ns3:hr>93</ns3:hr>
            <ns3:cad>0</ns3:cad>
          </ns3:TrackPointExtension>
        </extensions>
      </trkpt>
      <trkpt lat="37.9888979159295558929443359375" lon="-107.7476991154253482818603515625">
        <ele>4074.199951171875</ele>
        <time>2026-08-15T16:30:29.000Z</time>
        <extensions>
          <ns3:TrackPointExtension>
            <ns3:hr>96</ns3:hr>
            <ns3:cad>0</ns3:cad>
          </ns3:TrackPointExtension>
        </extensions>
      </trkpt>
      <trkpt lat="37.988896407186985015869140625" lon="-107.74769836105406284332275390625">
        <ele>4073.800048828125</ele>
        <time>2026-08-15T16:30:31.000Z</time>
        <extensions>
          <ns3:TrackPointExtension>
            <ns3:hr>99</ns3:hr>
            <ns3:cad>0</ns3:cad>
          </ns3:TrackPointExtension>
        </extensions>
      </trkpt>
      <trkpt lat="37.98889649100601673126220703125" lon="-107.747700624167919158935546875">
        <ele>4073.60009765625</ele>
        <time>2026-08-15T16:30:36.000Z</time>
        <extensions>
          <ns3:TrackPointExtension>
            <ns3:hr>102</ns3:hr>
            <ns3:cad>0</ns3:cad>
          </ns3:TrackPointExtension>
        </extensions>
      </trkpt>
      <trkpt lat="37.98889447934925556182861328125" lon="-107.7477028034627437591552734375">
        <ele>4073</ele>
        <time>2026-08-15T16:30:42.000Z</time>
        <extensions>
          <ns3:TrackPointExtension>
            <ns3:hr>104</ns3:hr>
            <ns3:cad>0</ns3:cad>
          </ns3:TrackPointExtension>
        </extensions>
      </trkpt>
      <trkpt lat="37.988896407186985015869140625" lon="-107.7476984448730945587158203125">
        <ele>4072.800048828125</ele>
        <time>2026-08-15T16:30:48.000Z</time>
        <extensions>
          <ns3:TrackPointExtension>
            <ns3:hr>105</ns3:hr>
            <ns3:cad>0</ns3:cad>
          </ns3:TrackPointExtension>
        </extensions>
      </trkpt>
      <trkpt lat="37.988896407186985015869140625" lon="-107.7476984448730945587158203125">
        <ele>4073</ele>
        <time>2026-08-15T16:30:49.000Z</time>
        <extensions>
          <ns3:TrackPointExtension>
            <ns3:hr>105</ns3:hr>
            <ns3:cad>0</ns3:cad>
          </ns3:TrackPointExtension>
        </extensions>
      </trkpt>
      <trkpt lat="37.98888928256928920745849609375" lon="-107.7476994507014751434326171875">
        <ele>4073.199951171875</ele>
        <time>2026-08-15T16:30:55.000Z</time>
        <extensions>
          <ns3:TrackPointExtension>
            <ns3:hr>105</ns3:hr>
            <ns3:cad>0</ns3:cad>
          </ns3:TrackPointExtension>
        </extensions>
      </trkpt>
      <trkpt lat="37.98887939192354679107666015625" lon="-107.7477038092911243438720703125">
        <ele>4073.39990234375</ele>
        <time>2026-08-15T16:30:57.000Z</time>
        <extensions>
          <ns3:TrackPointExtension>
            <ns3:hr>104</ns3:hr>
            <ns3:cad>0</ns3:cad>
          </ns3:TrackPointExtension>
        </extensions>
      </trkpt>
      <trkpt lat="37.98887570388615131378173828125" lon="-107.74770967662334442138671875">
        <ele>4072.199951171875</ele>
        <time>2026-08-15T16:31:02.000Z</time>
        <extensions>
          <ns3:TrackPointExtension>
            <ns3:hr>104</ns3:hr>
            <ns3:cad>0</ns3:cad>
          </ns3:TrackPointExtension>
        </extensions>
      </trkpt>
      <trkpt lat="37.98887268640100955963134765625" lon="-107.7477131970226764678955078125">
        <ele>4071.800048828125</ele>
        <time>2026-08-15T16:31:03.000Z</time>
        <extensions>
          <ns3:TrackPointExtension>
            <ns3:hr>104</ns3:hr>
            <ns3:cad>0</ns3:cad>
          </ns3:TrackPointExtension>
        </extensions>
      </trkpt>
      <trkpt lat="37.98886262811720371246337890625" lon="-107.74773574434220790863037109375">
        <ele>4071</ele>
        <time>2026-08-15T16:31:09.000Z</time>
        <extensions>
          <ns3:TrackPointExtension>
            <ns3:hr>107</ns3:hr>
            <ns3:cad>66</ns3:cad>
          </ns3:TrackPointExtension>
        </extensions>
      </trkpt>
      <trkpt lat="37.98884469084441661834716796875" lon="-107.74776726029813289642333984375">
        <ele>4071.199951171875</ele>
        <time>2026-08-15T16:31:15.000Z</time>
        <extensions>
          <ns3:TrackPointExtension>
            <ns3:hr>108</ns3:hr>
            <ns3:cad>0</ns3:cad>
          </ns3:TrackPointExtension>
        </extensions>
      </trkpt>
      <trkpt lat="37.9888432659208774566650390625" lon="-107.74777136743068695068359375">
        <ele>4071</ele>
        <time>2026-08-15T16:31:16.000Z</time>
        <extensions>
          <ns3:TrackPointExtension>
            <ns3:hr>108</ns3:hr>
            <ns3:cad>0</ns3:cad>
          </ns3:TrackPointExtension>
        </extensions>
      </trkpt>
      <trkpt lat="37.98883664421737194061279296875" lon="-107.74777698330581188201904296875">
        <ele>4070.800048828125</ele>
        <time>2026-08-15T16:31:17.000Z</time>
        <extensions>
          <ns3:TrackPointExtension>
            <ns3:hr>110</ns3:hr>
            <ns3:cad>0</ns3:cad>
          </ns3:TrackPointExtension>
        </extensions>
      </trkpt>
      <trkpt lat="37.98882700502872467041015625" lon="-107.7477825991809368133544921875">
        <ele>4070</ele>
        <time>2026-08-15T16:31:21.000Z</time>
        <extensions>
          <ns3:TrackPointExtension>
            <ns3:hr>107</ns3:hr>
            <ns3:cad>0</ns3:cad>
          </ns3:TrackPointExtension>
        </extensions>
      </trkpt>
      <trkpt lat="37.988820970058441162109375" lon="-107.747783772647380828857421875">
        <ele>4069.800048828125</ele>
        <time>2026-08-15T16:31:22.000Z</time>
        <extensions>
          <ns3:TrackPointExtension>
            <ns3:hr>106</ns3:hr>
            <ns3:cad>0</ns3:cad>
          </ns3:TrackPointExtension>
        </extensions>
      </trkpt>
      <trkpt lat="37.98881317488849163055419921875" lon="-107.74779341183602809906005859375">
        <ele>4069.60009765625</ele>
        <time>2026-08-15T16:31:23.000Z</time>
        <extensions>
          <ns3:TrackPointExtension>
            <ns3:hr>106</ns3:hr>
            <ns3:cad>0</ns3:cad>
          </ns3:TrackPointExtension>
        </extensions>
      </trkpt>
      <trkpt lat="37.98880697228014469146728515625" lon="-107.747803218662738800048828125">
        <ele>4068.800048828125</ele>
        <time>2026-08-15T16:31:26.000Z</time>
        <extensions>
          <ns3:TrackPointExtension>
            <ns3:hr>105</ns3:hr>
            <ns3:cad>0</ns3:cad>
          </ns3:TrackPointExtension>
        </extensions>
      </trkpt>
      <trkpt lat="37.98880697228014469146728515625" lon="-107.747803218662738800048828125">
        <ele>4069</ele>
        <time>2026-08-15T16:31:32.000Z</time>
        <extensions>
          <ns3:TrackPointExtension>
            <ns3:hr>104</ns3:hr>
            <ns3:cad>0</ns3:cad>
          </ns3:TrackPointExtension>
        </extensions>
      </trkpt>
      <trkpt lat="37.98880697228014469146728515625" lon="-107.747803218662738800048828125">
        <ele>4069.199951171875</ele>
        <time>2026-08-15T16:31:33.000Z</time>
        <extensions>
          <ns3:TrackPointExtension>
            <ns3:hr>105</ns3:hr>
            <ns3:cad>0</ns3:cad>
          </ns3:TrackPointExtension>
        </extensions>
      </trkpt>
      <trkpt lat="37.98880697228014469146728515625" lon="-107.747803218662738800048828125">
        <ele>4069.39990234375</ele>
        <time>2026-08-15T16:31:39.000Z</time>
        <extensions>
          <ns3:TrackPointExtension>
            <ns3:hr>107</ns3:hr>
            <ns3:cad>0</ns3:cad>
          </ns3:TrackPointExtension>
        </extensions>
      </trkpt>
      <trkpt lat="37.988804541528224945068359375" lon="-107.74781562387943267822265625">
        <ele>4069.199951171875</ele>
        <time>2026-08-15T16:31:44.000Z</time>
        <extensions>
          <ns3:TrackPointExtension>
            <ns3:hr>107</ns3:hr>
            <ns3:cad>0</ns3:cad>
          </ns3:TrackPointExtension>
        </extensions>
      </trkpt>
      <trkpt lat="37.9887966625392436981201171875" lon="-107.7478211559355258941650390625">
        <ele>4069.39990234375</ele>
        <time>2026-08-15T16:31:49.000Z</time>
        <extensions>
          <ns3:TrackPointExtension>
            <ns3:hr>105</ns3:hr>
            <ns3:cad>0</ns3:cad>
          </ns3:TrackPointExtension>
        </extensions>
      </trkpt>
      <trkpt lat="37.98880395479500293731689453125" lon="-107.74777966551482677459716796875">
        <ele>4069.39990234375</ele>
        <time>2026-08-15T16:31:54.000Z</time>
        <extensions>
          <ns3:TrackPointExtension>
            <ns3:hr>106</ns3:hr>
            <ns3:cad>0</ns3:cad>
          </ns3:TrackPointExtension>
        </extensions>
      </trkpt>
      <trkpt lat="37.98879037611186504364013671875" lon="-107.74778452701866626739501953125">
        <ele>4069</ele>
        <time>2026-08-15T16:31:56.000Z</time>
        <extensions>
          <ns3:TrackPointExtension>
            <ns3:hr>107</ns3:hr>
            <ns3:cad>0</ns3:cad>
          </ns3:TrackPointExtension>
        </extensions>
      </trkpt>
      <trkpt lat="37.988782413303852081298828125" lon="-107.7477836050093173980712890625">
        <ele>4068.199951171875</ele>
        <time>2026-08-15T16:31:58.000Z</time>
        <extensions>
          <ns3:TrackPointExtension>
            <ns3:hr>107</ns3:hr>
            <ns3:cad>0</ns3:cad>
          </ns3:TrackPointExtension>
        </extensions>
      </trkpt>
      <trkpt lat="37.98877604305744171142578125" lon="-107.74778402410447597503662109375">
        <ele>4068</ele>
        <time>2026-08-15T16:31:59.000Z</time>
        <extensions>
          <ns3:TrackPointExtension>
            <ns3:hr>107</ns3:hr>
            <ns3:cad>0</ns3:cad>
          </ns3:TrackPointExtension>
        </extensions>
      </trkpt>
      <trkpt lat="37.98876154236495494842529296875" lon="-107.74777807295322418212890625">
        <ele>4067.199951171875</ele>
        <time>2026-08-15T16:32:02.000Z</time>
        <extensions>
          <ns3:TrackPointExtension>
            <ns3:hr>107</ns3:hr>
            <ns3:cad>0</ns3:cad>
          </ns3:TrackPointExtension>
        </extensions>
      </trkpt>
      <trkpt lat="37.98874779604375362396240234375" lon="-107.7477832697331905364990234375">
        <ele>4066.39990234375</ele>
        <time>2026-08-15T16:32:05.000Z</time>
        <extensions>
          <ns3:TrackPointExtension>
            <ns3:hr>107</ns3:hr>
            <ns3:cad>0</ns3:cad>
          </ns3:TrackPointExtension>
        </extensions>
      </trkpt>
      <trkpt lat="37.9887292720377445220947265625" lon="-107.7478082478046417236328125">
        <ele>4066.199951171875</ele>
        <time>2026-08-15T16:32:10.000Z</time>
        <extensions>
          <ns3:TrackPointExtension>
            <ns3:hr>106</ns3:hr>
            <ns3:cad>0</ns3:cad>
          </ns3:TrackPointExtension>
        </extensions>
      </trkpt>
      <trkpt lat="37.98872231505811214447021484375" lon="-107.74781621061265468597412109375">
        <ele>4066.199951171875</ele>
        <time>2026-08-15T16:32:12.000Z</time>
        <extensions>
          <ns3:TrackPointExtension>
            <ns3:hr>112</ns3:hr>
            <ns3:cad>0</ns3:cad>
          </ns3:TrackPointExtension>
        </extensions>
      </trkpt>
      <trkpt lat="37.98872281797230243682861328125" lon="-107.74781621061265468597412109375">
        <ele>4066.39990234375</ele>
        <time>2026-08-15T16:32:13.000Z</time>
        <extensions>
          <ns3:TrackPointExtension>
            <ns3:hr>115</ns3:hr>
            <ns3:cad>0</ns3:cad>
          </ns3:TrackPointExtension>
        </extensions>
      </trkpt>
      <trkpt lat="37.98872281797230243682861328125" lon="-107.74781621061265468597412109375">
        <ele>4066.39990234375</ele>
        <time>2026-08-15T16:32:16.000Z</time>
        <extensions>
          <ns3:TrackPointExtension>
            <ns3:hr>117</ns3:hr>
            <ns3:cad>0</ns3:cad>
          </ns3:TrackPointExtension>
        </extensions>
      </trkpt>
      <trkpt lat="37.98872281797230243682861328125" lon="-107.74781621061265468597412109375">
        <ele>4066.60009765625</ele>
        <time>2026-08-15T16:32:21.000Z</time>
        <extensions>
          <ns3:TrackPointExtension>
            <ns3:hr>114</ns3:hr>
            <ns3:cad>0</ns3:cad>
          </ns3:TrackPointExtension>
        </extensions>
      </trkpt>
      <trkpt lat="37.98872298561036586761474609375" lon="-107.74780833162367343902587890625">
        <ele>4066.800048828125</ele>
        <time>2026-08-15T16:32:27.000Z</time>
        <extensions>
          <ns3:TrackPointExtension>
            <ns3:hr>112</ns3:hr>
            <ns3:cad>0</ns3:cad>
          </ns3:TrackPointExtension>
        </extensions>
      </trkpt>
      <trkpt lat="37.98872281797230243682861328125" lon="-107.74781621061265468597412109375">
        <ele>4066.60009765625</ele>
        <time>2026-08-15T16:32:30.000Z</time>
        <extensions>
          <ns3:TrackPointExtension>
            <ns3:hr>109</ns3:hr>
            <ns3:cad>0</ns3:cad>
          </ns3:TrackPointExtension>
        </extensions>
      </trkpt>
      <trkpt lat="37.98872281797230243682861328125" lon="-107.74781621061265468597412109375">
        <ele>4066.60009765625</ele>
        <time>2026-08-15T16:32:32.000Z</time>
        <extensions>
          <ns3:TrackPointExtension>
            <ns3:hr>104</ns3:hr>
            <ns3:cad>0</ns3:cad>
          </ns3:TrackPointExtension>
        </extensions>
      </trkpt>
      <trkpt lat="37.98872281797230243682861328125" lon="-107.74781621061265468597412109375">
        <ele>4066.800048828125</ele>
        <time>2026-08-15T16:32:33.000Z</time>
        <extensions>
          <ns3:TrackPointExtension>
            <ns3:hr>98</ns3:hr>
            <ns3:cad>0</ns3:cad>
          </ns3:TrackPointExtension>
        </extensions>
      </trkpt>
      <trkpt lat="37.98872281797230243682861328125" lon="-107.74781621061265468597412109375">
        <ele>4066.800048828125</ele>
        <time>2026-08-15T16:32:34.000Z</time>
        <extensions>
          <ns3:TrackPointExtension>
            <ns3:hr>94</ns3:hr>
            <ns3:cad>0</ns3:cad>
          </ns3:TrackPointExtension>
        </extensions>
      </trkpt>
      <trkpt lat="37.9887311160564422607421875" lon="-107.7477976866066455841064453125">
        <ele>4066.39990234375</ele>
        <time>2026-08-15T16:32:40.000Z</time>
        <extensions>
          <ns3:TrackPointExtension>
            <ns3:hr>93</ns3:hr>
            <ns3:cad>0</ns3:cad>
          </ns3:TrackPointExtension>
        </extensions>
      </trkpt>
      <trkpt lat="37.98875215463340282440185546875" lon="-107.7477862872183322906494140625">
        <ele>4066.199951171875</ele>
        <time>2026-08-15T16:32:46.000Z</time>
        <extensions>
          <ns3:TrackPointExtension>
            <ns3:hr>94</ns3:hr>
            <ns3:cad>0</ns3:cad>
          </ns3:TrackPointExtension>
        </extensions>
      </trkpt>
      <trkpt lat="37.988794147968292236328125" lon="-107.74777673184871673583984375">
        <ele>4065.800048828125</ele>
        <time>2026-08-15T16:32:52.000Z</time>
        <extensions>
          <ns3:TrackPointExtension>
            <ns3:hr>94</ns3:hr>
            <ns3:cad>0</ns3:cad>
          </ns3:TrackPointExtension>
        </extensions>
      </trkpt>
      <trkpt lat="37.98879473470151424407958984375" lon="-107.74777664802968502044677734375">
        <ele>4066.39990234375</ele>
        <time>2026-08-15T16:32:53.000Z</time>
        <extensions>
          <ns3:TrackPointExtension>
            <ns3:hr>93</ns3:hr>
            <ns3:cad>0</ns3:cad>
          </ns3:TrackPointExtension>
        </extensions>
      </trkpt>
      <trkpt lat="37.98880328424274921417236328125" lon="-107.747778408229351043701171875">
        <ele>4067.39990234375</ele>
        <time>2026-08-15T16:32:55.000Z</time>
        <extensions>
          <ns3:TrackPointExtension>
            <ns3:hr>94</ns3:hr>
            <ns3:cad>0</ns3:cad>
          </ns3:TrackPointExtension>
        </extensions>
      </trkpt>
      <trkpt lat="37.98880554735660552978515625" lon="-107.74777664802968502044677734375">
        <ele>4068</ele>
        <time>2026-08-15T16:32:56.000Z</time>
        <extensions>
          <ns3:TrackPointExtension>
            <ns3:hr>98</ns3:hr>
            <ns3:cad>0</ns3:cad>
          </ns3:TrackPointExtension>
        </extensions>
      </trkpt>
      <trkpt lat="37.98880554735660552978515625" lon="-107.7477906458079814910888671875">
        <ele>4068.800048828125</ele>
        <time>2026-08-15T16:32:58.000Z</time>
        <extensions>
          <ns3:TrackPointExtension>
            <ns3:hr>100</ns3:hr>
            <ns3:cad>0</ns3:cad>
          </ns3:TrackPointExtension>
        </extensions>
      </trkpt>
      <trkpt lat="37.98880822956562042236328125" lon="-107.74780564941465854644775390625">
        <ele>4069.39990234375</ele>
        <time>2026-08-15T16:33:00.000Z</time>
        <extensions>
          <ns3:TrackPointExtension>
            <ns3:hr>103</ns3:hr>
            <ns3:cad>0</ns3:cad>
          </ns3:TrackPointExtension>
        </extensions>
      </trkpt>
      <trkpt lat="37.98880797810852527618408203125" lon="-107.74782442487776279449462890625">
        <ele>4069.800048828125</ele>
        <time>2026-08-15T16:33:03.000Z</time>
        <extensions>
          <ns3:TrackPointExtension>
            <ns3:hr>103</ns3:hr>
            <ns3:cad>0</ns3:cad>
          </ns3:TrackPointExtension>
        </extensions>
      </trkpt>
      <trkpt lat="37.98880831338465213775634765625" lon="-107.74782903492450714111328125">
        <ele>4070.199951171875</ele>
        <time>2026-08-15T16:33:04.000Z</time>
        <extensions>
          <ns3:TrackPointExtension>
            <ns3:hr>103</ns3:hr>
            <ns3:cad>0</ns3:cad>
          </ns3:TrackPointExtension>
        </extensions>
      </trkpt>
      <trkpt lat="37.9887976683676242828369140625" lon="-107.74783196859061717987060546875">
        <ele>4070.39990234375</ele>
        <time>2026-08-15T16:33:07.000Z</time>
        <extensions>
          <ns3:TrackPointExtension>
            <ns3:hr>100</ns3:hr>
            <ns3:cad>0</ns3:cad>
          </ns3:TrackPointExtension>
        </extensions>
      </trkpt>
      <trkpt lat="37.9887807369232177734375" lon="-107.7478553541004657745361328125">
        <ele>4070.60009765625</ele>
        <time>2026-08-15T16:33:10.000Z</time>
        <extensions>
          <ns3:TrackPointExtension>
            <ns3:hr>100</ns3:hr>
            <ns3:cad>0</ns3:cad>
          </ns3:TrackPointExtension>
        </extensions>
      </trkpt>
      <trkpt lat="37.98877604305744171142578125" lon="-107.7478741295635700225830078125">
        <ele>4071</ele>
        <time>2026-08-15T16:33:12.000Z</time>
        <extensions>
          <ns3:TrackPointExtension>
            <ns3:hr>102</ns3:hr>
            <ns3:cad>0</ns3:cad>
          </ns3:TrackPointExtension>
        </extensions>
      </trkpt>
      <trkpt lat="37.9887611232697963714599609375" lon="-107.7478913962841033935546875">
        <ele>4072.199951171875</ele>
        <time>2026-08-15T16:33:15.000Z</time>
        <extensions>
          <ns3:TrackPointExtension>
            <ns3:hr>103</ns3:hr>
            <ns3:cad>0</ns3:cad>
          </ns3:TrackPointExtension>
        </extensions>
      </trkpt>
      <trkpt lat="37.98874611966311931610107421875" lon="-107.74792768992483615875244140625">
        <ele>4072.800048828125</ele>
        <time>2026-08-15T16:33:20.000Z</time>
        <extensions>
          <ns3:TrackPointExtension>
            <ns3:hr>106</ns3:hr>
            <ns3:cad>0</ns3:cad>
          </ns3:TrackPointExtension>
        </extensions>
      </trkpt>
      <trkpt lat="37.98874829895794391632080078125" lon="-107.74793439544737339019775390625">
        <ele>4072.800048828125</ele>
        <time>2026-08-15T16:33:21.000Z</time>
        <extensions>
          <ns3:TrackPointExtension>
            <ns3:hr>107</ns3:hr>
            <ns3:cad>0</ns3:cad>
          </ns3:TrackPointExtension>
        </extensions>
      </trkpt>
      <trkpt lat="37.98874964006245136260986328125" lon="-107.74793758057057857513427734375">
        <ele>4072.800048828125</ele>
        <time>2026-08-15T16:33:23.000Z</time>
        <extensions>
          <ns3:TrackPointExtension>
            <ns3:hr>110</ns3:hr>
            <ns3:cad>0</ns3:cad>
          </ns3:TrackPointExtension>
        </extensions>
      </trkpt>
      <trkpt lat="37.98874964006245136260986328125" lon="-107.74793573655188083648681640625">
        <ele>4073.39990234375</ele>
        <time>2026-08-15T16:33:25.000Z</time>
        <extensions>
          <ns3:TrackPointExtension>
            <ns3:hr>113</ns3:hr>
            <ns3:cad>0</ns3:cad>
          </ns3:TrackPointExtension>
        </extensions>
      </trkpt>
      <trkpt lat="37.98874964006245136260986328125" lon="-107.74793573655188083648681640625">
        <ele>4073.800048828125</ele>
        <time>2026-08-15T16:33:26.000Z</time>
        <extensions>
          <ns3:TrackPointExtension>
            <ns3:hr>114</ns3:hr>
            <ns3:cad>0</ns3:cad>
          </ns3:TrackPointExtension>
        </extensions>
      </trkpt>
      <trkpt lat="37.9887493886053562164306640625" lon="-107.7479549311101436614990234375">
        <ele>4074.39990234375</ele>
        <time>2026-08-15T16:33:30.000Z</time>
        <extensions>
          <ns3:TrackPointExtension>
            <ns3:hr>116</ns3:hr>
            <ns3:cad>0</ns3:cad>
          </ns3:TrackPointExtension>
        </extensions>
      </trkpt>
      <trkpt lat="37.98875098116695880889892578125" lon="-107.74798619560897350311279296875">
        <ele>4075.39990234375</ele>
        <time>2026-08-15T16:33:35.000Z</time>
        <extensions>
          <ns3:TrackPointExtension>
            <ns3:hr>118</ns3:hr>
            <ns3:cad>0</ns3:cad>
          </ns3:TrackPointExtension>
        </extensions>
      </trkpt>
      <trkpt lat="37.98875114880502223968505859375" lon="-107.747986949980258941650390625">
        <ele>4075.800048828125</ele>
        <time>2026-08-15T16:33:36.000Z</time>
        <extensions>
          <ns3:TrackPointExtension>
            <ns3:hr>119</ns3:hr>
            <ns3:cad>0</ns3:cad>
          </ns3:TrackPointExtension>
        </extensions>
      </trkpt>
      <trkpt lat="37.98875098116695880889892578125" lon="-107.74798619560897350311279296875">
        <ele>4076.60009765625</ele>
        <time>2026-08-15T16:33:41.000Z</time>
        <extensions>
          <ns3:TrackPointExtension>
            <ns3:hr>118</ns3:hr>
            <ns3:cad>0</ns3:cad>
          </ns3:TrackPointExtension>
        </extensions>
      </trkpt>
      <trkpt lat="37.9887579381465911865234375" lon="-107.7479975111782550811767578125">
        <ele>4076.800048828125</ele>
        <time>2026-08-15T16:33:42.000Z</time>
        <extensions>
          <ns3:TrackPointExtension>
            <ns3:hr>118</ns3:hr>
            <ns3:cad>0</ns3:cad>
          </ns3:TrackPointExtension>
        </extensions>
      </trkpt>
      <trkpt lat="37.98875098116695880889892578125" lon="-107.74798619560897350311279296875">
        <ele>4077.800048828125</ele>
        <time>2026-08-15T16:33:45.000Z</time>
        <extensions>
          <ns3:TrackPointExtension>
            <ns3:hr>118</ns3:hr>
            <ns3:cad>0</ns3:cad>
          </ns3:TrackPointExtension>
        </extensions>
      </trkpt>
      <trkpt lat="37.98875098116695880889892578125" lon="-107.74798619560897350311279296875">
        <ele>4078.199951171875</ele>
        <time>2026-08-15T16:33:46.000Z</time>
        <extensions>
          <ns3:TrackPointExtension>
            <ns3:hr>119</ns3:hr>
            <ns3:cad>0</ns3:cad>
          </ns3:TrackPointExtension>
        </extensions>
      </trkpt>
      <trkpt lat="37.98876070417463779449462890625" lon="-107.74800010956823825836181640625">
        <ele>4079</ele>
        <time>2026-08-15T16:33:49.000Z</time>
        <extensions>
          <ns3:TrackPointExtension>
            <ns3:hr>121</ns3:hr>
            <ns3:cad>0</ns3:cad>
          </ns3:TrackPointExtension>
        </extensions>
      </trkpt>
      <trkpt lat="37.98876070417463779449462890625" lon="-107.74800010956823825836181640625">
        <ele>4079.199951171875</ele>
        <time>2026-08-15T16:33:53.000Z</time>
        <extensions>
          <ns3:TrackPointExtension>
            <ns3:hr>120</ns3:hr>
            <ns3:cad>0</ns3:cad>
          </ns3:TrackPointExtension>
        </extensions>
      </trkpt>
      <trkpt lat="37.9887644760310649871826171875" lon="-107.7480094134807586669921875">
        <ele>4079.199951171875</ele>
        <time>2026-08-15T16:33:56.000Z</time>
        <extensions>
          <ns3:TrackPointExtension>
            <ns3:hr>117</ns3:hr>
            <ns3:cad>0</ns3:cad>
          </ns3:TrackPointExtension>
        </extensions>
      </trkpt>
      <trkpt lat="37.9887741990387439727783203125" lon="-107.74801922030746936798095703125">
        <ele>4079.39990234375</ele>
        <time>2026-08-15T16:33:58.000Z</time>
        <extensions>
          <ns3:TrackPointExtension>
            <ns3:hr>120</ns3:hr>
            <ns3:cad>0</ns3:cad>
          </ns3:TrackPointExtension>
        </extensions>
      </trkpt>
      <trkpt lat="37.9887772165238857269287109375" lon="-107.74802709929645061492919921875">
        <ele>4080</ele>
        <time>2026-08-15T16:34:00.000Z</time>
        <extensions>
          <ns3:TrackPointExtension>
            <ns3:hr>121</ns3:hr>
            <ns3:cad>0</ns3:cad>
          </ns3:TrackPointExtension>
        </extensions>
      </trkpt>
      <trkpt lat="37.98877763561904430389404296875" lon="-107.74802760221064090728759765625">
        <ele>4080</ele>
        <time>2026-08-15T16:34:01.000Z</time>
        <extensions>
          <ns3:TrackPointExtension>
            <ns3:hr>121</ns3:hr>
            <ns3:cad>0</ns3:cad>
          </ns3:TrackPointExtension>
        </extensions>
      </trkpt>
      <trkpt lat="37.9887785576283931732177734375" lon="-107.7480353973805904388427734375">
        <ele>4080.39990234375</ele>
        <time>2026-08-15T16:34:07.000Z</time>
        <extensions>
          <ns3:TrackPointExtension>
            <ns3:hr>122</ns3:hr>
            <ns3:cad>0</ns3:cad>
          </ns3:TrackPointExtension>
        </extensions>
      </trkpt>
      <trkpt lat="37.9887815751135349273681640625" lon="-107.7480461262166500091552734375">
        <ele>4080.39990234375</ele>
        <time>2026-08-15T16:34:10.000Z</time>
        <extensions>
          <ns3:TrackPointExtension>
            <ns3:hr>123</ns3:hr>
            <ns3:cad>0</ns3:cad>
          </ns3:TrackPointExtension>
        </extensions>
      </trkpt>
      <trkpt lat="37.98877579160034656524658203125" lon="-107.74807856418192386627197265625">
        <ele>4081</ele>
        <time>2026-08-15T16:34:13.000Z</time>
        <extensions>
          <ns3:TrackPointExtension>
            <ns3:hr>123</ns3:hr>
            <ns3:cad>0</ns3:cad>
          </ns3:TrackPointExtension>
        </extensions>
      </trkpt>
      <trkpt lat="37.988771684467792510986328125" lon="-107.748100943863391876220703125">
        <ele>4081.199951171875</ele>
        <time>2026-08-15T16:34:16.000Z</time>
        <extensions>
          <ns3:TrackPointExtension>
            <ns3:hr>123</ns3:hr>
            <ns3:cad>0</ns3:cad>
          </ns3:TrackPointExtension>
        </extensions>
      </trkpt>
      <trkpt lat="37.98876154236495494842529296875" lon="-107.748143859207630157470703125">
        <ele>4081</ele>
        <time>2026-08-15T16:34:22.000Z</time>
        <extensions>
          <ns3:TrackPointExtension>
            <ns3:hr>122</ns3:hr>
            <ns3:cad>0</ns3:cad>
          </ns3:TrackPointExtension>
        </extensions>
      </trkpt>
      <trkpt lat="37.9887614585459232330322265625" lon="-107.7481507323682308197021484375">
        <ele>4080.800048828125</ele>
        <time>2026-08-15T16:34:23.000Z</time>
        <extensions>
          <ns3:TrackPointExtension>
            <ns3:hr>122</ns3:hr>
            <ns3:cad>0</ns3:cad>
          </ns3:TrackPointExtension>
        </extensions>
      </trkpt>
      <trkpt lat="37.98873522318899631500244140625" lon="-107.7481919713318347930908203125">
        <ele>4080.60009765625</ele>
        <time>2026-08-15T16:34:29.000Z</time>
        <extensions>
          <ns3:TrackPointExtension>
            <ns3:hr>123</ns3:hr>
            <ns3:cad>0</ns3:cad>
          </ns3:TrackPointExtension>
        </extensions>
      </trkpt>
      <trkpt lat="37.988734804093837738037109375" lon="-107.74824117310345172882080078125">
        <ele>4080.60009765625</ele>
        <time>2026-08-15T16:34:34.000Z</time>
        <extensions>
          <ns3:TrackPointExtension>
            <ns3:hr>120</ns3:hr>
            <ns3:cad>0</ns3:cad>
          </ns3:TrackPointExtension>
        </extensions>
      </trkpt>
      <trkpt lat="37.98873472027480602264404296875" lon="-107.74824838154017925262451171875">
        <ele>4080.800048828125</ele>
        <time>2026-08-15T16:34:35.000Z</time>
        <extensions>
          <ns3:TrackPointExtension>
            <ns3:hr>119</ns3:hr>
            <ns3:cad>0</ns3:cad>
          </ns3:TrackPointExtension>
        </extensions>
      </trkpt>
      <trkpt lat="37.9887192137539386749267578125" lon="-107.74829699657857418060302734375">
        <ele>4081</ele>
        <time>2026-08-15T16:34:41.000Z</time>
        <extensions>
          <ns3:TrackPointExtension>
            <ns3:hr>117</ns3:hr>
            <ns3:cad>0</ns3:cad>
          </ns3:TrackPointExtension>
        </extensions>
      </trkpt>
      <trkpt lat="37.98870471306145191192626953125" lon="-107.7483227290213108062744140625">
        <ele>4080.800048828125</ele>
        <time>2026-08-15T16:34:45.000Z</time>
        <extensions>
          <ns3:TrackPointExtension>
            <ns3:hr>114</ns3:hr>
            <ns3:cad>0</ns3:cad>
          </ns3:TrackPointExtension>
        </extensions>
      </trkpt>
      <trkpt lat="37.988704629242420196533203125" lon="-107.74833639152348041534423828125">
        <ele>4081</ele>
        <time>2026-08-15T16:34:47.000Z</time>
        <extensions>
          <ns3:TrackPointExtension>
            <ns3:hr>114</ns3:hr>
            <ns3:cad>0</ns3:cad>
          </ns3:TrackPointExtension>
        </extensions>
      </trkpt>
      <trkpt lat="37.988703958690166473388671875" lon="-107.74836857803165912628173828125">
        <ele>4082</ele>
        <time>2026-08-15T16:34:51.000Z</time>
        <extensions>
          <ns3:TrackPointExtension>
            <ns3:hr>113</ns3:hr>
            <ns3:cad>51</ns3:cad>
          </ns3:TrackPointExtension>
        </extensions>
      </trkpt>
      <trkpt lat="37.98870739527046680450439453125" lon="-107.74840562604367733001708984375">
        <ele>4082.39990234375</ele>
        <time>2026-08-15T16:34:54.000Z</time>
        <extensions>
          <ns3:TrackPointExtension>
            <ns3:hr>113</ns3:hr>
            <ns3:cad>51</ns3:cad>
          </ns3:TrackPointExtension>
        </extensions>
      </trkpt>
      <trkpt lat="37.9886759631335735321044921875" lon="-107.74848139844834804534912109375">
        <ele>4082</ele>
        <time>2026-08-15T16:35:00.000Z</time>
        <extensions>
          <ns3:TrackPointExtension>
            <ns3:hr>111</ns3:hr>
            <ns3:cad>0</ns3:cad>
          </ns3:TrackPointExtension>
        </extensions>
      </trkpt>
      <trkpt lat="37.98867034725844860076904296875" lon="-107.74849095381796360015869140625">
        <ele>4082</ele>
        <time>2026-08-15T16:35:01.000Z</time>
        <extensions>
          <ns3:TrackPointExtension>
            <ns3:hr>110</ns3:hr>
            <ns3:cad>0</ns3:cad>
          </ns3:TrackPointExtension>
        </extensions>
      </trkpt>
      <trkpt lat="37.98864318989217281341552734375" lon="-107.7485627867281436920166015625">
        <ele>4082.800048828125</ele>
        <time>2026-08-15T16:35:07.000Z</time>
        <extensions>
          <ns3:TrackPointExtension>
            <ns3:hr>111</ns3:hr>
            <ns3:cad>63</ns3:cad>
          </ns3:TrackPointExtension>
        </extensions>
      </trkpt>
      <trkpt lat="37.98862860538065433502197265625" lon="-107.7486127428710460662841796875">
        <ele>4082.60009765625</ele>
        <time>2026-08-15T16:35:13.000Z</time>
        <extensions>
          <ns3:TrackPointExtension>
            <ns3:hr>111</ns3:hr>
            <ns3:cad>0</ns3:cad>
          </ns3:TrackPointExtension>
        </extensions>
      </trkpt>
      <trkpt lat="37.9886303655803203582763671875" lon="-107.74862053804099559783935546875">
        <ele>4083.39990234375</ele>
        <time>2026-08-15T16:35:17.000Z</time>
        <extensions>
          <ns3:TrackPointExtension>
            <ns3:hr>111</ns3:hr>
            <ns3:cad>0</ns3:cad>
          </ns3:TrackPointExtension>
        </extensions>
      </trkpt>
      <trkpt lat="37.9886318743228912353515625" lon="-107.74861886166036128997802734375">
        <ele>4083.800048828125</ele>
        <time>2026-08-15T16:35:20.000Z</time>
        <extensions>
          <ns3:TrackPointExtension>
            <ns3:hr>112</ns3:hr>
            <ns3:cad>0</ns3:cad>
          </ns3:TrackPointExtension>
        </extensions>
      </trkpt>
      <trkpt lat="37.9886318743228912353515625" lon="-107.74861886166036128997802734375">
        <ele>4083.60009765625</ele>
        <time>2026-08-15T16:35:26.000Z</time>
        <extensions>
          <ns3:TrackPointExtension>
            <ns3:hr>113</ns3:hr>
            <ns3:cad>0</ns3:cad>
          </ns3:TrackPointExtension>
        </extensions>
      </trkpt>
      <trkpt lat="37.9886318743228912353515625" lon="-107.74861886166036128997802734375">
        <ele>4083.60009765625</ele>
        <time>2026-08-15T16:35:30.000Z</time>
        <extensions>
          <ns3:TrackPointExtension>
            <ns3:hr>116</ns3:hr>
            <ns3:cad>0</ns3:cad>
          </ns3:TrackPointExtension>
        </extensions>
      </trkpt>
      <trkpt lat="37.98861351795494556427001953125" lon="-107.7486241422593593597412109375">
        <ele>4083.800048828125</ele>
        <time>2026-08-15T16:35:36.000Z</time>
        <extensions>
          <ns3:TrackPointExtension>
            <ns3:hr>115</ns3:hr>
            <ns3:cad>0</ns3:cad>
          </ns3:TrackPointExtension>
        </extensions>
      </trkpt>
      <trkpt lat="37.98860245384275913238525390625" lon="-107.74863235652446746826171875">
        <ele>4083.39990234375</ele>
        <time>2026-08-15T16:35:38.000Z</time>
        <extensions>
          <ns3:TrackPointExtension>
            <ns3:hr>114</ns3:hr>
            <ns3:cad>0</ns3:cad>
          </ns3:TrackPointExtension>
        </extensions>
      </trkpt>
      <trkpt lat="37.98858686350286006927490234375" lon="-107.74864576756954193115234375">
        <ele>4083.800048828125</ele>
        <time>2026-08-15T16:35:43.000Z</time>
        <extensions>
          <ns3:TrackPointExtension>
            <ns3:hr>118</ns3:hr>
            <ns3:cad>0</ns3:cad>
          </ns3:TrackPointExtension>
        </extensions>
      </trkpt>
      <trkpt lat="37.98858686350286006927490234375" lon="-107.74864576756954193115234375">
        <ele>4084</ele>
        <time>2026-08-15T16:35:46.000Z</time>
        <extensions>
          <ns3:TrackPointExtension>
            <ns3:hr>121</ns3:hr>
            <ns3:cad>0</ns3:cad>
          </ns3:TrackPointExtension>
        </extensions>
      </trkpt>
      <trkpt lat="37.9885944910347461700439453125" lon="-107.7486412413418292999267578125">
        <ele>4084</ele>
        <time>2026-08-15T16:35:48.000Z</time>
        <extensions>
          <ns3:TrackPointExtension>
            <ns3:hr>124</ns3:hr>
            <ns3:cad>0</ns3:cad>
          </ns3:TrackPointExtension>
        </extensions>
      </trkpt>
      <trkpt lat="37.98861133866012096405029296875" lon="-107.74863361380994319915771484375">
        <ele>4084</ele>
        <time>2026-08-15T16:35:51.000Z</time>
        <extensions>
          <ns3:TrackPointExtension>
            <ns3:hr>125</ns3:hr>
            <ns3:cad>0</ns3:cad>
          </ns3:TrackPointExtension>
        </extensions>
      </trkpt>
      <trkpt lat="37.98863715492188930511474609375" lon="-107.7486021816730499267578125">
        <ele>4083</ele>
        <time>2026-08-15T16:35:57.000Z</time>
        <extensions>
          <ns3:TrackPointExtension>
            <ns3:hr>125</ns3:hr>
            <ns3:cad>0</ns3:cad>
          </ns3:TrackPointExtension>
        </extensions>
      </trkpt>
      <trkpt lat="37.988644950091838836669921875" lon="-107.74857678450644016265869140625">
        <ele>4083.199951171875</ele>
        <time>2026-08-15T16:36:02.000Z</time>
        <extensions>
          <ns3:TrackPointExtension>
            <ns3:hr>125</ns3:hr>
            <ns3:cad>0</ns3:cad>
          </ns3:TrackPointExtension>
        </extensions>
      </trkpt>
      <trkpt lat="37.98866464756429195404052734375" lon="-107.7485349588096141815185546875">
        <ele>4082.39990234375</ele>
        <time>2026-08-15T16:36:05.000Z</time>
        <extensions>
          <ns3:TrackPointExtension>
            <ns3:hr>125</ns3:hr>
            <ns3:cad>0</ns3:cad>
          </ns3:TrackPointExtension>
        </extensions>
      </trkpt>
      <trkpt lat="37.988661713898181915283203125" lon="-107.74851878173649311065673828125">
        <ele>4081.800048828125</ele>
        <time>2026-08-15T16:36:08.000Z</time>
        <extensions>
          <ns3:TrackPointExtension>
            <ns3:hr>124</ns3:hr>
            <ns3:cad>0</ns3:cad>
          </ns3:TrackPointExtension>
        </extensions>
      </trkpt>
      <trkpt lat="37.98867705278098583221435546875" lon="-107.74845407344400882720947265625">
        <ele>4081.60009765625</ele>
        <time>2026-08-15T16:36:14.000Z</time>
        <extensions>
          <ns3:TrackPointExtension>
            <ns3:hr>122</ns3:hr>
            <ns3:cad>0</ns3:cad>
          </ns3:TrackPointExtension>
        </extensions>
      </trkpt>
      <trkpt lat="37.988681495189666748046875" lon="-107.7484400756657123565673828125">
        <ele>4081.199951171875</ele>
        <time>2026-08-15T16:36:15.000Z</time>
        <extensions>
          <ns3:TrackPointExtension>
            <ns3:hr>121</ns3:hr>
            <ns3:cad>0</ns3:cad>
          </ns3:TrackPointExtension>
        </extensions>
      </trkpt>
      <trkpt lat="37.9886705987155437469482421875" lon="-107.748411409556865692138671875">
        <ele>4081</ele>
        <time>2026-08-15T16:36:20.000Z</time>
        <extensions>
          <ns3:TrackPointExtension>
            <ns3:hr>120</ns3:hr>
            <ns3:cad>0</ns3:cad>
          </ns3:TrackPointExtension>
        </extensions>
      </trkpt>
      <trkpt lat="37.9886518232524394989013671875" lon="-107.74843026883900165557861328125">
        <ele>4080</ele>
        <time>2026-08-15T16:36:26.000Z</time>
        <extensions>
          <ns3:TrackPointExtension>
            <ns3:hr>118</ns3:hr>
            <ns3:cad>0</ns3:cad>
          </ns3:TrackPointExtension>
        </extensions>
      </trkpt>
      <trkpt lat="37.98864754848182201385498046875" lon="-107.7484350465238094329833984375">
        <ele>4079.60009765625</ele>
        <time>2026-08-15T16:36:27.000Z</time>
        <extensions>
          <ns3:TrackPointExtension>
            <ns3:hr>118</ns3:hr>
            <ns3:cad>0</ns3:cad>
          </ns3:TrackPointExtension>
        </extensions>
      </trkpt>
      <trkpt lat="37.98864503391087055206298828125" lon="-107.74843462742865085601806640625">
        <ele>4079</ele>
        <time>2026-08-15T16:36:29.000Z</time>
        <extensions>
          <ns3:TrackPointExtension>
            <ns3:hr>117</ns3:hr>
            <ns3:cad>0</ns3:cad>
          </ns3:TrackPointExtension>
        </extensions>
      </trkpt>
      <trkpt lat="37.988628856837749481201171875" lon="-107.74843915365636348724365234375">
        <ele>4078.199951171875</ele>
        <time>2026-08-15T16:36:33.000Z</time>
        <extensions>
          <ns3:TrackPointExtension>
            <ns3:hr>115</ns3:hr>
            <ns3:cad>0</ns3:cad>
          </ns3:TrackPointExtension>
        </extensions>
      </trkpt>
      <trkpt lat="37.98862575553357601165771484375" lon="-107.74844150058925151824951171875">
        <ele>4077.800048828125</ele>
        <time>2026-08-15T16:36:34.000Z</time>
        <extensions>
          <ns3:TrackPointExtension>
            <ns3:hr>114</ns3:hr>
            <ns3:cad>0</ns3:cad>
          </ns3:TrackPointExtension>
        </extensions>
      </trkpt>
      <trkpt lat="37.98861033283174037933349609375" lon="-107.74846128188073635101318359375">
        <ele>4076.800048828125</ele>
        <time>2026-08-15T16:36:37.000Z</time>
        <extensions>
          <ns3:TrackPointExtension>
            <ns3:hr>112</ns3:hr>
            <ns3:cad>0</ns3:cad>
          </ns3:TrackPointExtension>
        </extensions>
      </trkpt>
      <trkpt lat="37.9886045493185520172119140625" lon="-107.7484692446887493133544921875">
        <ele>4076.199951171875</ele>
        <time>2026-08-15T16:36:39.000Z</time>
        <extensions>
          <ns3:TrackPointExtension>
            <ns3:hr>111</ns3:hr>
            <ns3:cad>0</ns3:cad>
          </ns3:TrackPointExtension>
        </extensions>
      </trkpt>
      <trkpt lat="37.98859574832022190093994140625" lon="-107.7484866790473461151123046875">
        <ele>4076.199951171875</ele>
        <time>2026-08-15T16:36:43.000Z</time>
        <extensions>
          <ns3:TrackPointExtension>
            <ns3:hr>110</ns3:hr>
            <ns3:cad>0</ns3:cad>
          </ns3:TrackPointExtension>
        </extensions>
      </trkpt>
      <trkpt lat="37.98858351074159145355224609375" lon="-107.74850654415786266326904296875">
        <ele>4076.39990234375</ele>
        <time>2026-08-15T16:36:48.000Z</time>
        <extensions>
          <ns3:TrackPointExtension>
            <ns3:hr>110</ns3:hr>
            <ns3:cad>0</ns3:cad>
          </ns3:TrackPointExtension>
        </extensions>
      </trkpt>
      <trkpt lat="37.9885675013065338134765625" lon="-107.74850620888173580169677734375">
        <ele>4076</ele>
        <time>2026-08-15T16:36:54.000Z</time>
        <extensions>
          <ns3:TrackPointExtension>
            <ns3:hr>108</ns3:hr>
            <ns3:cad>0</ns3:cad>
          </ns3:TrackPointExtension>
        </extensions>
      </trkpt>
      <trkpt lat="37.98856574110686779022216796875" lon="-107.74850537069141864776611328125">
        <ele>4076</ele>
        <time>2026-08-15T16:36:55.000Z</time>
        <extensions>
          <ns3:TrackPointExtension>
            <ns3:hr>108</ns3:hr>
            <ns3:cad>0</ns3:cad>
          </ns3:TrackPointExtension>
        </extensions>
      </trkpt>
      <trkpt lat="37.98856012523174285888671875" lon="-107.74850872345268726348876953125">
        <ele>4075.60009765625</ele>
        <time>2026-08-15T16:36:56.000Z</time>
        <extensions>
          <ns3:TrackPointExtension>
            <ns3:hr>108</ns3:hr>
            <ns3:cad>0</ns3:cad>
          </ns3:TrackPointExtension>
        </extensions>
      </trkpt>
      <trkpt lat="37.9885415174067020416259765625" lon="-107.7485259063541889190673828125">
        <ele>4074.60009765625</ele>
        <time>2026-08-15T16:37:00.000Z</time>
        <extensions>
          <ns3:TrackPointExtension>
            <ns3:hr>106</ns3:hr>
            <ns3:cad>0</ns3:cad>
          </ns3:TrackPointExtension>
        </extensions>
      </trkpt>
      <trkpt lat="37.98853724263608455657958984375" lon="-107.748529426753520965576171875">
        <ele>4074.39990234375</ele>
        <time>2026-08-15T16:37:01.000Z</time>
        <extensions>
          <ns3:TrackPointExtension>
            <ns3:hr>106</ns3:hr>
            <ns3:cad>0</ns3:cad>
          </ns3:TrackPointExtension>
        </extensions>
      </trkpt>
      <trkpt lat="37.98852919600903987884521484375" lon="-107.7485346235334873199462890625">
        <ele>4074.199951171875</ele>
        <time>2026-08-15T16:37:05.000Z</time>
        <extensions>
          <ns3:TrackPointExtension>
            <ns3:hr>109</ns3:hr>
            <ns3:cad>0</ns3:cad>
          </ns3:TrackPointExtension>
        </extensions>
      </trkpt>
      <trkpt lat="37.98852701671421527862548828125" lon="-107.74853705428540706634521484375">
        <ele>4074</ele>
        <time>2026-08-15T16:37:06.000Z</time>
        <extensions>
          <ns3:TrackPointExtension>
            <ns3:hr>113</ns3:hr>
            <ns3:cad>0</ns3:cad>
          </ns3:TrackPointExtension>
        </extensions>
      </trkpt>
      <trkpt lat="37.98851410858333110809326171875" lon="-107.7485580928623676300048828125">
        <ele>4073.39990234375</ele>
        <time>2026-08-15T16:37:08.000Z</time>
        <extensions>
          <ns3:TrackPointExtension>
            <ns3:hr>115</ns3:hr>
            <ns3:cad>0</ns3:cad>
          </ns3:TrackPointExtension>
        </extensions>
      </trkpt>
      <trkpt lat="37.988488711416721343994140625" lon="-107.74858667515218257904052734375">
        <ele>4072.60009765625</ele>
        <time>2026-08-15T16:37:13.000Z</time>
        <extensions>
          <ns3:TrackPointExtension>
            <ns3:hr>114</ns3:hr>
            <ns3:cad>40</ns3:cad>
          </ns3:TrackPointExtension>
        </extensions>
      </trkpt>
      <trkpt lat="37.9884724505245685577392578125" lon="-107.74860628880560398101806640625">
        <ele>4072.60009765625</ele>
        <time>2026-08-15T16:37:15.000Z</time>
        <extensions>
          <ns3:TrackPointExtension>
            <ns3:hr>111</ns3:hr>
            <ns3:cad>0</ns3:cad>
          </ns3:TrackPointExtension>
        </extensions>
      </trkpt>
      <trkpt lat="37.9884707741439342498779296875" lon="-107.748618610203266143798828125">
        <ele>4072.39990234375</ele>
        <time>2026-08-15T16:37:17.000Z</time>
        <extensions>
          <ns3:TrackPointExtension>
            <ns3:hr>106</ns3:hr>
            <ns3:cad>0</ns3:cad>
          </ns3:TrackPointExtension>
        </extensions>
      </trkpt>
      <trkpt lat="37.98845593817532062530517578125" lon="-107.748646438121795654296875">
        <ele>4072.39990234375</ele>
        <time>2026-08-15T16:37:19.000Z</time>
        <extensions>
          <ns3:TrackPointExtension>
            <ns3:hr>103</ns3:hr>
            <ns3:cad>0</ns3:cad>
          </ns3:TrackPointExtension>
        </extensions>
      </trkpt>
      <trkpt lat="37.98843481577932834625244140625" lon="-107.74869781918823719024658203125">
        <ele>4072.60009765625</ele>
        <time>2026-08-15T16:37:25.000Z</time>
        <extensions>
          <ns3:TrackPointExtension>
            <ns3:hr>102</ns3:hr>
            <ns3:cad>0</ns3:cad>
          </ns3:TrackPointExtension>
        </extensions>
      </trkpt>
      <trkpt lat="37.9884064011275768280029296875" lon="-107.74874995462596416473388671875">
        <ele>4073.199951171875</ele>
        <time>2026-08-15T16:37:31.000Z</time>
        <extensions>
          <ns3:TrackPointExtension>
            <ns3:hr>102</ns3:hr>
            <ns3:cad>0</ns3:cad>
          </ns3:TrackPointExtension>
        </extensions>
      </trkpt>
      <trkpt lat="37.988398857414722442626953125" lon="-107.7487631142139434814453125">
        <ele>4073.39990234375</ele>
        <time>2026-08-15T16:37:32.000Z</time>
        <extensions>
          <ns3:TrackPointExtension>
            <ns3:hr>102</ns3:hr>
            <ns3:cad>0</ns3:cad>
          </ns3:TrackPointExtension>
        </extensions>
      </trkpt>
      <trkpt lat="37.9883611388504505157470703125" lon="-107.748805023729801177978515625">
        <ele>4073</ele>
        <time>2026-08-15T16:37:37.000Z</time>
        <extensions>
          <ns3:TrackPointExtension>
            <ns3:hr>103</ns3:hr>
            <ns3:cad>0</ns3:cad>
          </ns3:TrackPointExtension>
        </extensions>
      </trkpt>
      <trkpt lat="37.98834211193025112152099609375" lon="-107.7488435804843902587890625">
        <ele>4072.800048828125</ele>
        <time>2026-08-15T16:37:43.000Z</time>
        <extensions>
          <ns3:TrackPointExtension>
            <ns3:hr>102</ns3:hr>
            <ns3:cad>0</ns3:cad>
          </ns3:TrackPointExtension>
        </extensions>
      </trkpt>
      <trkpt lat="37.98832920379936695098876953125" lon="-107.74886813946068286895751953125">
        <ele>4073.39990234375</ele>
        <time>2026-08-15T16:37:48.000Z</time>
        <extensions>
          <ns3:TrackPointExtension>
            <ns3:hr>105</ns3:hr>
            <ns3:cad>0</ns3:cad>
          </ns3:TrackPointExtension>
        </extensions>
      </trkpt>
      <trkpt lat="37.98832618631422519683837890625" lon="-107.7488749288022518157958984375">
        <ele>4073.39990234375</ele>
        <time>2026-08-15T16:37:49.000Z</time>
        <extensions>
          <ns3:TrackPointExtension>
            <ns3:hr>106</ns3:hr>
            <ns3:cad>0</ns3:cad>
          </ns3:TrackPointExtension>
        </extensions>
      </trkpt>
      <trkpt lat="37.9883180558681488037109375" lon="-107.74887937121093273162841796875">
        <ele>4073.199951171875</ele>
        <time>2026-08-15T16:37:51.000Z</time>
        <extensions>
          <ns3:TrackPointExtension>
            <ns3:hr>108</ns3:hr>
            <ns3:cad>0</ns3:cad>
          </ns3:TrackPointExtension>
        </extensions>
      </trkpt>
      <trkpt lat="37.98829819075763225555419921875" lon="-107.74892262183129787445068359375">
        <ele>4072.800048828125</ele>
        <time>2026-08-15T16:37:55.000Z</time>
        <extensions>
          <ns3:TrackPointExtension>
            <ns3:hr>107</ns3:hr>
            <ns3:cad>0</ns3:cad>
          </ns3:TrackPointExtension>
        </extensions>
      </trkpt>
      <trkpt lat="37.98828117549419403076171875" lon="-107.74896050803363323211669921875">
        <ele>4073.199951171875</ele>
        <time>2026-08-15T16:38:00.000Z</time>
        <extensions>
          <ns3:TrackPointExtension>
            <ns3:hr>106</ns3:hr>
            <ns3:cad>0</ns3:cad>
          </ns3:TrackPointExtension>
        </extensions>
      </trkpt>
      <trkpt lat="37.98827111721038818359375" lon="-107.74896956048905849456787109375">
        <ele>4073.39990234375</ele>
        <time>2026-08-15T16:38:01.000Z</time>
        <extensions>
          <ns3:TrackPointExtension>
            <ns3:hr>106</ns3:hr>
            <ns3:cad>0</ns3:cad>
          </ns3:TrackPointExtension>
        </extensions>
      </trkpt>
      <trkpt lat="37.9882458038628101348876953125" lon="-107.74900057353079319000244140625">
        <ele>4073.800048828125</ele>
        <time>2026-08-15T16:38:06.000Z</time>
        <extensions>
          <ns3:TrackPointExtension>
            <ns3:hr>106</ns3:hr>
            <ns3:cad>0</ns3:cad>
          </ns3:TrackPointExtension>
        </extensions>
      </trkpt>
      <trkpt lat="37.98824521712958812713623046875" lon="-107.74904868565499782562255859375">
        <ele>4074</ele>
        <time>2026-08-15T16:38:11.000Z</time>
        <extensions>
          <ns3:TrackPointExtension>
            <ns3:hr>106</ns3:hr>
            <ns3:cad>0</ns3:cad>
          </ns3:TrackPointExtension>
        </extensions>
      </trkpt>
      <trkpt lat="37.98824823461472988128662109375" lon="-107.7490589953958988189697265625">
        <ele>4073.60009765625</ele>
        <time>2026-08-15T16:38:17.000Z</time>
        <extensions>
          <ns3:TrackPointExtension>
            <ns3:hr>107</ns3:hr>
            <ns3:cad>0</ns3:cad>
          </ns3:TrackPointExtension>
        </extensions>
      </trkpt>
      <trkpt lat="37.988238595426082611083984375" lon="-107.74905757047235965728759765625">
        <ele>4073.60009765625</ele>
        <time>2026-08-15T16:38:19.000Z</time>
        <extensions>
          <ns3:TrackPointExtension>
            <ns3:hr>110</ns3:hr>
            <ns3:cad>55</ns3:cad>
          </ns3:TrackPointExtension>
        </extensions>
      </trkpt>
      <trkpt lat="37.9882317222654819488525390625" lon="-107.74905614554882049560546875">
        <ele>4073.39990234375</ele>
        <time>2026-08-15T16:38:21.000Z</time>
        <extensions>
          <ns3:TrackPointExtension>
            <ns3:hr>113</ns3:hr>
            <ns3:cad>55</ns3:cad>
          </ns3:TrackPointExtension>
        </extensions>
      </trkpt>
      <trkpt lat="37.9882253520190715789794921875" lon="-107.74904969148337841033935546875">
        <ele>4072.800048828125</ele>
        <time>2026-08-15T16:38:23.000Z</time>
        <extensions>
          <ns3:TrackPointExtension>
            <ns3:hr>113</ns3:hr>
            <ns3:cad>55</ns3:cad>
          </ns3:TrackPointExtension>
        </extensions>
      </trkpt>
      <trkpt lat="37.98821738921105861663818359375" lon="-107.74904399178922176361083984375">
        <ele>4072.199951171875</ele>
        <time>2026-08-15T16:38:25.000Z</time>
        <extensions>
          <ns3:TrackPointExtension>
            <ns3:hr>112</ns3:hr>
            <ns3:cad>0</ns3:cad>
          </ns3:TrackPointExtension>
        </extensions>
      </trkpt>
      <trkpt lat="37.9881904833018779754638671875" lon="-107.749041728675365447998046875">
        <ele>4071.199951171875</ele>
        <time>2026-08-15T16:38:29.000Z</time>
        <extensions>
          <ns3:TrackPointExtension>
            <ns3:hr>111</ns3:hr>
            <ns3:cad>45</ns3:cad>
          </ns3:TrackPointExtension>
        </extensions>
      </trkpt>
      <trkpt lat="37.98818922601640224456787109375" lon="-107.74904047138988971710205078125">
        <ele>4071</ele>
        <time>2026-08-15T16:38:30.000Z</time>
        <extensions>
          <ns3:TrackPointExtension>
            <ns3:hr>111</ns3:hr>
            <ns3:cad>45</ns3:cad>
          </ns3:TrackPointExtension>
        </extensions>
      </trkpt>
      <trkpt lat="37.98816592432558536529541015625" lon="-107.74903477169573307037353515625">
        <ele>4069.800048828125</ele>
        <time>2026-08-15T16:38:35.000Z</time>
        <extensions>
          <ns3:TrackPointExtension>
            <ns3:hr>111</ns3:hr>
            <ns3:cad>45</ns3:cad>
          </ns3:TrackPointExtension>
        </extensions>
      </trkpt>
      <trkpt lat="37.9881544411182403564453125" lon="-107.7490402199327945709228515625">
        <ele>4068.800048828125</ele>
        <time>2026-08-15T16:38:38.000Z</time>
        <extensions>
          <ns3:TrackPointExtension>
            <ns3:hr>110</ns3:hr>
            <ns3:cad>0</ns3:cad>
          </ns3:TrackPointExtension>
        </extensions>
      </trkpt>
      <trkpt lat="37.9881442151963710784912109375" lon="-107.7490519545972347259521484375">
        <ele>4068</ele>
        <time>2026-08-15T16:38:42.000Z</time>
        <extensions>
          <ns3:TrackPointExtension>
            <ns3:hr>109</ns3:hr>
            <ns3:cad>0</ns3:cad>
          </ns3:TrackPointExtension>
        </extensions>
      </trkpt>
      <trkpt lat="37.98814144916832447052001953125" lon="-107.749071903526782989501953125">
        <ele>4067.800048828125</ele>
        <time>2026-08-15T16:38:48.000Z</time>
        <extensions>
          <ns3:TrackPointExtension>
            <ns3:hr>110</ns3:hr>
            <ns3:cad>0</ns3:cad>
          </ns3:TrackPointExtension>
        </extensions>
      </trkpt>
      <trkpt lat="37.98814706504344940185546875" lon="-107.7490787766873836517333984375">
        <ele>4067.60009765625</ele>
        <time>2026-08-15T16:38:49.000Z</time>
        <extensions>
          <ns3:TrackPointExtension>
            <ns3:hr>111</ns3:hr>
            <ns3:cad>0</ns3:cad>
          </ns3:TrackPointExtension>
        </extensions>
      </trkpt>
      <trkpt lat="37.988150082528591156005859375" lon="-107.7490814588963985443115234375">
        <ele>4067.39990234375</ele>
        <time>2026-08-15T16:38:50.000Z</time>
        <extensions>
          <ns3:TrackPointExtension>
            <ns3:hr>112</ns3:hr>
            <ns3:cad>0</ns3:cad>
          </ns3:TrackPointExtension>
        </extensions>
      </trkpt>
      <trkpt lat="37.988155446946620941162109375" lon="-107.749085314571857452392578125">
        <ele>4067.199951171875</ele>
        <time>2026-08-15T16:38:52.000Z</time>
        <extensions>
          <ns3:TrackPointExtension>
            <ns3:hr>116</ns3:hr>
            <ns3:cad>0</ns3:cad>
          </ns3:TrackPointExtension>
        </extensions>
      </trkpt>
      <trkpt lat="37.98815771006047725677490234375" lon="-107.7490898407995700836181640625">
        <ele>4067</ele>
        <time>2026-08-15T16:38:53.000Z</time>
        <extensions>
          <ns3:TrackPointExtension>
            <ns3:hr>119</ns3:hr>
            <ns3:cad>0</ns3:cad>
          </ns3:TrackPointExtension>
        </extensions>
      </trkpt>
      <trkpt lat="37.98816181719303131103515625" lon="-107.74909344501793384552001953125">
        <ele>4067</ele>
        <time>2026-08-15T16:38:54.000Z</time>
        <extensions>
          <ns3:TrackPointExtension>
            <ns3:hr>122</ns3:hr>
            <ns3:cad>0</ns3:cad>
          </ns3:TrackPointExtension>
        </extensions>
      </trkpt>
      <trkpt lat="37.98816743306815624237060546875" lon="-107.7491012401878833770751953125">
        <ele>4067.199951171875</ele>
        <time>2026-08-15T16:38:56.000Z</time>
        <extensions>
          <ns3:TrackPointExtension>
            <ns3:hr>125</ns3:hr>
            <ns3:cad>0</ns3:cad>
          </ns3:TrackPointExtension>
        </extensions>
      </trkpt>
      <trkpt lat="37.98816944472491741180419921875" lon="-107.74910551495850086212158203125">
        <ele>4067.60009765625</ele>
        <time>2026-08-15T16:38:58.000Z</time>
        <extensions>
          <ns3:TrackPointExtension>
            <ns3:hr>126</ns3:hr>
            <ns3:cad>0</ns3:cad>
          </ns3:TrackPointExtension>
        </extensions>
      </trkpt>
      <trkpt lat="37.9881713725626468658447265625" lon="-107.7491099573671817779541015625">
        <ele>4067.800048828125</ele>
        <time>2026-08-15T16:39:00.000Z</time>
        <extensions>
          <ns3:TrackPointExtension>
            <ns3:hr>123</ns3:hr>
            <ns3:cad>0</ns3:cad>
          </ns3:TrackPointExtension>
        </extensions>
      </trkpt>
      <trkpt lat="37.988178916275501251220703125" lon="-107.74912345223128795623779296875">
        <ele>4068</ele>
        <time>2026-08-15T16:39:03.000Z</time>
        <extensions>
          <ns3:TrackPointExtension>
            <ns3:hr>121</ns3:hr>
            <ns3:cad>0</ns3:cad>
          </ns3:TrackPointExtension>
        </extensions>
      </trkpt>
      <trkpt lat="37.988186962902545928955078125" lon="-107.74915412999689579010009765625">
        <ele>4067.60009765625</ele>
        <time>2026-08-15T16:39:09.000Z</time>
        <extensions>
          <ns3:TrackPointExtension>
            <ns3:hr>123</ns3:hr>
            <ns3:cad>0</ns3:cad>
          </ns3:TrackPointExtension>
        </extensions>
      </trkpt>
      <trkpt lat="37.98819257877767086029052734375" lon="-107.74916552938520908355712890625">
        <ele>4068.199951171875</ele>
        <time>2026-08-15T16:39:15.000Z</time>
        <extensions>
          <ns3:TrackPointExtension>
            <ns3:hr>122</ns3:hr>
            <ns3:cad>0</ns3:cad>
          </ns3:TrackPointExtension>
        </extensions>
      </trkpt>
      <trkpt lat="37.98819257877767086029052734375" lon="-107.74916552938520908355712890625">
        <ele>4068.199951171875</ele>
        <time>2026-08-15T16:39:17.000Z</time>
        <extensions>
          <ns3:TrackPointExtension>
            <ns3:hr>122</ns3:hr>
            <ns3:cad>0</ns3:cad>
          </ns3:TrackPointExtension>
        </extensions>
      </trkpt>
      <trkpt lat="37.98819257877767086029052734375" lon="-107.74916552938520908355712890625">
        <ele>4068.39990234375</ele>
        <time>2026-08-15T16:39:23.000Z</time>
        <extensions>
          <ns3:TrackPointExtension>
            <ns3:hr>119</ns3:hr>
            <ns3:cad>0</ns3:cad>
          </ns3:TrackPointExtension>
        </extensions>
      </trkpt>
      <trkpt lat="37.988194338977336883544921875" lon="-107.7491949498653411865234375">
        <ele>4068.39990234375</ele>
        <time>2026-08-15T16:39:29.000Z</time>
        <extensions>
          <ns3:TrackPointExtension>
            <ns3:hr>118</ns3:hr>
            <ns3:cad>0</ns3:cad>
          </ns3:TrackPointExtension>
        </extensions>
      </trkpt>
      <trkpt lat="37.98819308169186115264892578125" lon="-107.7492001466453075408935546875">
        <ele>4068.39990234375</ele>
        <time>2026-08-15T16:39:30.000Z</time>
        <extensions>
          <ns3:TrackPointExtension>
            <ns3:hr>115</ns3:hr>
            <ns3:cad>0</ns3:cad>
          </ns3:TrackPointExtension>
        </extensions>
      </trkpt>
      <trkpt lat="37.98819308169186115264892578125" lon="-107.7492001466453075408935546875">
        <ele>4068.39990234375</ele>
        <time>2026-08-15T16:39:31.000Z</time>
        <extensions>
          <ns3:TrackPointExtension>
            <ns3:hr>111</ns3:hr>
            <ns3:cad>41</ns3:cad>
          </ns3:TrackPointExtension>
        </extensions>
      </trkpt>
      <trkpt lat="37.988192327320575714111328125" lon="-107.74920425377786159515380859375">
        <ele>4068.199951171875</ele>
        <time>2026-08-15T16:39:32.000Z</time>
        <extensions>
          <ns3:TrackPointExtension>
            <ns3:hr>111</ns3:hr>
            <ns3:cad>41</ns3:cad>
          </ns3:TrackPointExtension>
        </extensions>
      </trkpt>
      <trkpt lat="37.98818285576999187469482421875" lon="-107.74923241697251796722412109375">
        <ele>4068</ele>
        <time>2026-08-15T16:39:38.000Z</time>
        <extensions>
          <ns3:TrackPointExtension>
            <ns3:hr>110</ns3:hr>
            <ns3:cad>0</ns3:cad>
          </ns3:TrackPointExtension>
        </extensions>
      </trkpt>
      <trkpt lat="37.98818134702742099761962890625" lon="-107.7492336742579936981201171875">
        <ele>4067.800048828125</ele>
        <time>2026-08-15T16:39:41.000Z</time>
        <extensions>
          <ns3:TrackPointExtension>
            <ns3:hr>114</ns3:hr>
            <ns3:cad>0</ns3:cad>
          </ns3:TrackPointExtension>
        </extensions>
      </trkpt>
      <trkpt lat="37.9881790839135646820068359375" lon="-107.7492366917431354522705078125">
        <ele>4068</ele>
        <time>2026-08-15T16:39:42.000Z</time>
        <extensions>
          <ns3:TrackPointExtension>
            <ns3:hr>117</ns3:hr>
            <ns3:cad>0</ns3:cad>
          </ns3:TrackPointExtension>
        </extensions>
      </trkpt>
      <trkpt lat="37.98817598260939121246337890625" lon="-107.74923929013311862945556640625">
        <ele>4068.199951171875</ele>
        <time>2026-08-15T16:39:44.000Z</time>
        <extensions>
          <ns3:TrackPointExtension>
            <ns3:hr>120</ns3:hr>
            <ns3:cad>0</ns3:cad>
          </ns3:TrackPointExtension>
        </extensions>
      </trkpt>
      <trkpt lat="37.9881733842194080352783203125" lon="-107.74923962540924549102783203125">
        <ele>4068.199951171875</ele>
        <time>2026-08-15T16:39:46.000Z</time>
        <extensions>
          <ns3:TrackPointExtension>
            <ns3:hr>120</ns3:hr>
            <ns3:cad>0</ns3:cad>
          </ns3:TrackPointExtension>
        </extensions>
      </trkpt>
      <trkpt lat="37.98816843889653682708740234375" lon="-107.74924792349338531494140625">
        <ele>4067.800048828125</ele>
        <time>2026-08-15T16:39:52.000Z</time>
        <extensions>
          <ns3:TrackPointExtension>
            <ns3:hr>117</ns3:hr>
            <ns3:cad>0</ns3:cad>
          </ns3:TrackPointExtension>
        </extensions>
      </trkpt>
      <trkpt lat="37.98817313276231288909912109375" lon="-107.749239541590213775634765625">
        <ele>4067.60009765625</ele>
        <time>2026-08-15T16:39:53.000Z</time>
        <extensions>
          <ns3:TrackPointExtension>
            <ns3:hr>116</ns3:hr>
            <ns3:cad>0</ns3:cad>
          </ns3:TrackPointExtension>
        </extensions>
      </trkpt>
      <trkpt lat="37.98816307447850704193115234375" lon="-107.74925689212977886199951171875">
        <ele>4067.800048828125</ele>
        <time>2026-08-15T16:39:55.000Z</time>
        <extensions>
          <ns3:TrackPointExtension>
            <ns3:hr>113</ns3:hr>
            <ns3:cad>0</ns3:cad>
          </ns3:TrackPointExtension>
        </extensions>
      </trkpt>
      <trkpt lat="37.988160140812397003173828125" lon="-107.74925873614847660064697265625">
        <ele>4067.800048828125</ele>
        <time>2026-08-15T16:39:57.000Z</time>
        <extensions>
          <ns3:TrackPointExtension>
            <ns3:hr>110</ns3:hr>
            <ns3:cad>0</ns3:cad>
          </ns3:TrackPointExtension>
        </extensions>
      </trkpt>
      <trkpt lat="37.9881593026220798492431640625" lon="-107.74925873614847660064697265625">
        <ele>4067.800048828125</ele>
        <time>2026-08-15T16:40:00.000Z</time>
        <extensions>
          <ns3:TrackPointExtension>
            <ns3:hr>108</ns3:hr>
            <ns3:cad>0</ns3:cad>
          </ns3:TrackPointExtension>
        </extensions>
      </trkpt>
      <trkpt lat="37.98814362846314907073974609375" lon="-107.749285139143466949462890625">
        <ele>4068</ele>
        <time>2026-08-15T16:40:06.000Z</time>
        <extensions>
          <ns3:TrackPointExtension>
            <ns3:hr>110</ns3:hr>
            <ns3:cad>0</ns3:cad>
          </ns3:TrackPointExtension>
        </extensions>
      </trkpt>
      <trkpt lat="37.98812854103744029998779296875" lon="-107.74929729290306568145751953125">
        <ele>4068.199951171875</ele>
        <time>2026-08-15T16:40:10.000Z</time>
        <extensions>
          <ns3:TrackPointExtension>
            <ns3:hr>113</ns3:hr>
            <ns3:cad>0</ns3:cad>
          </ns3:TrackPointExtension>
        </extensions>
      </trkpt>
      <trkpt lat="37.9881261102855205535888671875" lon="-107.74930366314947605133056640625">
        <ele>4068.199951171875</ele>
        <time>2026-08-15T16:40:11.000Z</time>
        <extensions>
          <ns3:TrackPointExtension>
            <ns3:hr>114</ns3:hr>
            <ns3:cad>0</ns3:cad>
          </ns3:TrackPointExtension>
        </extensions>
      </trkpt>
      <trkpt lat="37.98812887631356716156005859375" lon="-107.74935076944530010223388671875">
        <ele>4068.199951171875</ele>
        <time>2026-08-15T16:40:17.000Z</time>
        <extensions>
          <ns3:TrackPointExtension>
            <ns3:hr>115</ns3:hr>
            <ns3:cad>0</ns3:cad>
          </ns3:TrackPointExtension>
        </extensions>
      </trkpt>
      <trkpt lat="37.98813088797032833099365234375" lon="-107.74935965426266193389892578125">
        <ele>4068.39990234375</ele>
        <time>2026-08-15T16:40:18.000Z</time>
        <extensions>
          <ns3:TrackPointExtension>
            <ns3:hr>114</ns3:hr>
            <ns3:cad>0</ns3:cad>
          </ns3:TrackPointExtension>
        </extensions>
      </trkpt>
      <trkpt lat="37.98813491128385066986083984375" lon="-107.7493639290332794189453125">
        <ele>4068.60009765625</ele>
        <time>2026-08-15T16:40:20.000Z</time>
        <extensions>
          <ns3:TrackPointExtension>
            <ns3:hr>113</ns3:hr>
            <ns3:cad>0</ns3:cad>
          </ns3:TrackPointExtension>
        </extensions>
      </trkpt>
      <trkpt lat="37.98813893459737300872802734375" lon="-107.7493741549551486968994140625">
        <ele>4068.800048828125</ele>
        <time>2026-08-15T16:40:23.000Z</time>
        <extensions>
          <ns3:TrackPointExtension>
            <ns3:hr>109</ns3:hr>
            <ns3:cad>0</ns3:cad>
          </ns3:TrackPointExtension>
        </extensions>
      </trkpt>
      <trkpt lat="37.98814144916832447052001953125" lon="-107.74937993846833705902099609375">
        <ele>4068.800048828125</ele>
        <time>2026-08-15T16:40:24.000Z</time>
        <extensions>
          <ns3:TrackPointExtension>
            <ns3:hr>107</ns3:hr>
            <ns3:cad>0</ns3:cad>
          </ns3:TrackPointExtension>
        </extensions>
      </trkpt>
      <trkpt lat="37.988142706453800201416015625" lon="-107.749404497444629669189453125">
        <ele>4068.199951171875</ele>
        <time>2026-08-15T16:40:30.000Z</time>
        <extensions>
          <ns3:TrackPointExtension>
            <ns3:hr>108</ns3:hr>
            <ns3:cad>0</ns3:cad>
          </ns3:TrackPointExtension>
        </extensions>
      </trkpt>
      <trkpt lat="37.98814463429152965545654296875" lon="-107.74940692819654941558837890625">
        <ele>4068.39990234375</ele>
        <time>2026-08-15T16:40:32.000Z</time>
        <extensions>
          <ns3:TrackPointExtension>
            <ns3:hr>109</ns3:hr>
            <ns3:cad>0</ns3:cad>
          </ns3:TrackPointExtension>
        </extensions>
      </trkpt>
      <trkpt lat="37.98815100453794002532958984375" lon="-107.7494244463741779327392578125">
        <ele>4069.39990234375</ele>
        <time>2026-08-15T16:40:38.000Z</time>
        <extensions>
          <ns3:TrackPointExtension>
            <ns3:hr>109</ns3:hr>
            <ns3:cad>0</ns3:cad>
          </ns3:TrackPointExtension>
        </extensions>
      </trkpt>
      <trkpt lat="37.98815486021339893341064453125" lon="-107.74942771531641483306884765625">
        <ele>4069.60009765625</ele>
        <time>2026-08-15T16:40:39.000Z</time>
        <extensions>
          <ns3:TrackPointExtension>
            <ns3:hr>109</ns3:hr>
            <ns3:cad>0</ns3:cad>
          </ns3:TrackPointExtension>
        </extensions>
      </trkpt>
      <trkpt lat="37.9881676845252513885498046875" lon="-107.74943693540990352630615234375">
        <ele>4069.800048828125</ele>
        <time>2026-08-15T16:40:42.000Z</time>
        <extensions>
          <ns3:TrackPointExtension>
            <ns3:hr>108</ns3:hr>
            <ns3:cad>0</ns3:cad>
          </ns3:TrackPointExtension>
        </extensions>
      </trkpt>
      <trkpt lat="37.98817564733326435089111328125" lon="-107.74944833479821681976318359375">
        <ele>4070.199951171875</ele>
        <time>2026-08-15T16:40:45.000Z</time>
        <extensions>
          <ns3:TrackPointExtension>
            <ns3:hr>108</ns3:hr>
            <ns3:cad>0</ns3:cad>
          </ns3:TrackPointExtension>
        </extensions>
      </trkpt>
      <trkpt lat="37.9881780780851840972900390625" lon="-107.74945856072008609771728515625">
        <ele>4070.800048828125</ele>
        <time>2026-08-15T16:40:47.000Z</time>
        <extensions>
          <ns3:TrackPointExtension>
            <ns3:hr>108</ns3:hr>
            <ns3:cad>0</ns3:cad>
          </ns3:TrackPointExtension>
        </extensions>
      </trkpt>
      <trkpt lat="37.9881797544658184051513671875" lon="-107.74946375750005245208740234375">
        <ele>4071.199951171875</ele>
        <time>2026-08-15T16:40:48.000Z</time>
        <extensions>
          <ns3:TrackPointExtension>
            <ns3:hr>105</ns3:hr>
            <ns3:cad>0</ns3:cad>
          </ns3:TrackPointExtension>
        </extensions>
      </trkpt>
      <trkpt lat="37.98818285576999187469482421875" lon="-107.749484963715076446533203125">
        <ele>4071.800048828125</ele>
        <time>2026-08-15T16:40:51.000Z</time>
        <extensions>
          <ns3:TrackPointExtension>
            <ns3:hr>105</ns3:hr>
            <ns3:cad>0</ns3:cad>
          </ns3:TrackPointExtension>
        </extensions>
      </trkpt>
      <trkpt lat="37.98818838782608509063720703125" lon="-107.74950047023594379425048828125">
        <ele>4072</ele>
        <time>2026-08-15T16:40:54.000Z</time>
        <extensions>
          <ns3:TrackPointExtension>
            <ns3:hr>106</ns3:hr>
            <ns3:cad>0</ns3:cad>
          </ns3:TrackPointExtension>
        </extensions>
      </trkpt>
      <trkpt lat="37.988184280693531036376953125" lon="-107.749515138566493988037109375">
        <ele>4072.60009765625</ele>
        <time>2026-08-15T16:40:59.000Z</time>
        <extensions>
          <ns3:TrackPointExtension>
            <ns3:hr>109</ns3:hr>
            <ns3:cad>0</ns3:cad>
          </ns3:TrackPointExtension>
        </extensions>
      </trkpt>
      <trkpt lat="37.988173551857471466064453125" lon="-107.749542295932769775390625">
        <ele>4073</ele>
        <time>2026-08-15T16:41:05.000Z</time>
        <extensions>
          <ns3:TrackPointExtension>
            <ns3:hr>110</ns3:hr>
            <ns3:cad>0</ns3:cad>
          </ns3:TrackPointExtension>
        </extensions>
      </trkpt>
      <trkpt lat="37.98817229457199573516845703125" lon="-107.74954992346465587615966796875">
        <ele>4073</ele>
        <time>2026-08-15T16:41:06.000Z</time>
        <extensions>
          <ns3:TrackPointExtension>
            <ns3:hr>110</ns3:hr>
            <ns3:cad>0</ns3:cad>
          </ns3:TrackPointExtension>
        </extensions>
      </trkpt>
      <trkpt lat="37.9881797544658184051513671875" lon="-107.74959552101790904998779296875">
        <ele>4073.39990234375</ele>
        <time>2026-08-15T16:41:12.000Z</time>
        <extensions>
          <ns3:TrackPointExtension>
            <ns3:hr>110</ns3:hr>
            <ns3:cad>0</ns3:cad>
          </ns3:TrackPointExtension>
        </extensions>
      </trkpt>
      <trkpt lat="37.9881737194955348968505859375" lon="-107.74962821044027805328369140625">
        <ele>4074</ele>
        <time>2026-08-15T16:41:17.000Z</time>
        <extensions>
          <ns3:TrackPointExtension>
            <ns3:hr>113</ns3:hr>
            <ns3:cad>57</ns3:cad>
          </ns3:TrackPointExtension>
        </extensions>
      </trkpt>
      <trkpt lat="37.988170869648456573486328125" lon="-107.74962804280221462249755859375">
        <ele>4074</ele>
        <time>2026-08-15T16:41:18.000Z</time>
        <extensions>
          <ns3:TrackPointExtension>
            <ns3:hr>115</ns3:hr>
            <ns3:cad>57</ns3:cad>
          </ns3:TrackPointExtension>
        </extensions>
      </trkpt>
      <trkpt lat="37.98816315829753875732421875" lon="-107.74963122792541980743408203125">
        <ele>4073.800048828125</ele>
        <time>2026-08-15T16:41:20.000Z</time>
        <extensions>
          <ns3:TrackPointExtension>
            <ns3:hr>118</ns3:hr>
            <ns3:cad>57</ns3:cad>
          </ns3:TrackPointExtension>
        </extensions>
      </trkpt>
      <trkpt lat="37.98814480192959308624267578125" lon="-107.74964715354144573211669921875">
        <ele>4073.199951171875</ele>
        <time>2026-08-15T16:41:24.000Z</time>
        <extensions>
          <ns3:TrackPointExtension>
            <ns3:hr>120</ns3:hr>
            <ns3:cad>0</ns3:cad>
          </ns3:TrackPointExtension>
        </extensions>
      </trkpt>
      <trkpt lat="37.9881168901920318603515625" lon="-107.7496822737157344818115234375">
        <ele>4072</ele>
        <time>2026-08-15T16:41:28.000Z</time>
        <extensions>
          <ns3:TrackPointExtension>
            <ns3:hr>121</ns3:hr>
            <ns3:cad>68</ns3:cad>
          </ns3:TrackPointExtension>
        </extensions>
      </trkpt>
      <trkpt lat="37.98809233121573925018310546875" lon="-107.74971437640488147735595703125">
        <ele>4070.60009765625</ele>
        <time>2026-08-15T16:41:32.000Z</time>
        <extensions>
          <ns3:TrackPointExtension>
            <ns3:hr>119</ns3:hr>
            <ns3:cad>68</ns3:cad>
          </ns3:TrackPointExtension>
        </extensions>
      </trkpt>
      <trkpt lat="37.9880627430975437164306640625" lon="-107.74977573193609714508056640625">
        <ele>4069.60009765625</ele>
        <time>2026-08-15T16:41:37.000Z</time>
        <extensions>
          <ns3:TrackPointExtension>
            <ns3:hr>116</ns3:hr>
            <ns3:cad>68</ns3:cad>
          </ns3:TrackPointExtension>
        </extensions>
      </trkpt>
      <trkpt lat="37.988055534660816192626953125" lon="-107.749781347811222076416015625">
        <ele>4069.60009765625</ele>
        <time>2026-08-15T16:41:38.000Z</time>
        <extensions>
          <ns3:TrackPointExtension>
            <ns3:hr>115</ns3:hr>
            <ns3:cad>57</ns3:cad>
          </ns3:TrackPointExtension>
        </extensions>
      </trkpt>
      <trkpt lat="37.98802393488585948944091796875" lon="-107.7498069964349269866943359375">
        <ele>4068.39990234375</ele>
        <time>2026-08-15T16:41:42.000Z</time>
        <extensions>
          <ns3:TrackPointExtension>
            <ns3:hr>113</ns3:hr>
            <ns3:cad>57</ns3:cad>
          </ns3:TrackPointExtension>
        </extensions>
      </trkpt>
      <trkpt lat="37.98800356686115264892578125" lon="-107.74981412105262279510498046875">
        <ele>4068</ele>
        <time>2026-08-15T16:41:44.000Z</time>
        <extensions>
          <ns3:TrackPointExtension>
            <ns3:hr>112</ns3:hr>
            <ns3:cad>75</ns3:cad>
          </ns3:TrackPointExtension>
        </extensions>
      </trkpt>
      <trkpt lat="37.98798688687384128570556640625" lon="-107.7498281188309192657470703125">
        <ele>4067.199951171875</ele>
        <time>2026-08-15T16:41:46.000Z</time>
        <extensions>
          <ns3:TrackPointExtension>
            <ns3:hr>110</ns3:hr>
            <ns3:cad>0</ns3:cad>
          </ns3:TrackPointExtension>
        </extensions>
      </trkpt>
      <trkpt lat="37.9879517666995525360107421875" lon="-107.74985267780721187591552734375">
        <ele>4066</ele>
        <time>2026-08-15T16:41:51.000Z</time>
        <extensions>
          <ns3:TrackPointExtension>
            <ns3:hr>112</ns3:hr>
            <ns3:cad>0</ns3:cad>
          </ns3:TrackPointExtension>
        </extensions>
      </trkpt>
      <trkpt lat="37.98795335926115512847900390625" lon="-107.749874554574489593505859375">
        <ele>4065.60009765625</ele>
        <time>2026-08-15T16:41:53.000Z</time>
        <extensions>
          <ns3:TrackPointExtension>
            <ns3:hr>112</ns3:hr>
            <ns3:cad>0</ns3:cad>
          </ns3:TrackPointExtension>
        </extensions>
      </trkpt>
      <trkpt lat="37.98796257935464382171630859375" lon="-107.74986525066196918487548828125">
        <ele>4065</ele>
        <time>2026-08-15T16:41:56.000Z</time>
        <extensions>
          <ns3:TrackPointExtension>
            <ns3:hr>112</ns3:hr>
            <ns3:cad>0</ns3:cad>
          </ns3:TrackPointExtension>
        </extensions>
      </trkpt>
      <trkpt lat="37.98796308226883411407470703125" lon="-107.7498653344810009002685546875">
        <ele>4065</ele>
        <time>2026-08-15T16:41:57.000Z</time>
        <extensions>
          <ns3:TrackPointExtension>
            <ns3:hr>113</ns3:hr>
            <ns3:cad>0</ns3:cad>
          </ns3:TrackPointExtension>
        </extensions>
      </trkpt>
      <trkpt lat="37.9879613220691680908203125" lon="-107.74985737167298793792724609375">
        <ele>4065.199951171875</ele>
        <time>2026-08-15T16:42:01.000Z</time>
        <extensions>
          <ns3:TrackPointExtension>
            <ns3:hr>112</ns3:hr>
            <ns3:cad>0</ns3:cad>
          </ns3:TrackPointExtension>
        </extensions>
      </trkpt>
      <trkpt lat="37.9879648424685001373291015625" lon="-107.74985988624393939971923828125">
        <ele>4064.199951171875</ele>
        <time>2026-08-15T16:42:07.000Z</time>
        <extensions>
          <ns3:TrackPointExtension>
            <ns3:hr>110</ns3:hr>
            <ns3:cad>0</ns3:cad>
          </ns3:TrackPointExtension>
        </extensions>
      </trkpt>
      <trkpt lat="37.9879648424685001373291015625" lon="-107.74985988624393939971923828125">
        <ele>4064.199951171875</ele>
        <time>2026-08-15T16:42:08.000Z</time>
        <extensions>
          <ns3:TrackPointExtension>
            <ns3:hr>109</ns3:hr>
            <ns3:cad>0</ns3:cad>
          </ns3:TrackPointExtension>
        </extensions>
      </trkpt>
      <trkpt lat="37.9879648424685001373291015625" lon="-107.74985988624393939971923828125">
        <ele>4064</ele>
        <time>2026-08-15T16:42:10.000Z</time>
        <extensions>
          <ns3:TrackPointExtension>
            <ns3:hr>109</ns3:hr>
            <ns3:cad>0</ns3:cad>
          </ns3:TrackPointExtension>
        </extensions>
      </trkpt>
      <trkpt lat="37.98796576447784900665283203125" lon="-107.74987044744193553924560546875">
        <ele>4063.60009765625</ele>
        <time>2026-08-15T16:42:16.000Z</time>
        <extensions>
          <ns3:TrackPointExtension>
            <ns3:hr>110</ns3:hr>
            <ns3:cad>0</ns3:cad>
          </ns3:TrackPointExtension>
        </extensions>
      </trkpt>
      <trkpt lat="37.987958975136280059814453125" lon="-107.74986910633742809295654296875">
        <ele>4063.39990234375</ele>
        <time>2026-08-15T16:42:17.000Z</time>
        <extensions>
          <ns3:TrackPointExtension>
            <ns3:hr>111</ns3:hr>
            <ns3:cad>0</ns3:cad>
          </ns3:TrackPointExtension>
        </extensions>
      </trkpt>
      <trkpt lat="37.98795369453728199005126953125" lon="-107.74988628923892974853515625">
        <ele>4063</ele>
        <time>2026-08-15T16:42:21.000Z</time>
        <extensions>
          <ns3:TrackPointExtension>
            <ns3:hr>112</ns3:hr>
            <ns3:cad>0</ns3:cad>
          </ns3:TrackPointExtension>
        </extensions>
      </trkpt>
      <trkpt lat="37.98795017413794994354248046875" lon="-107.7498891390860080718994140625">
        <ele>4062.39990234375</ele>
        <time>2026-08-15T16:42:23.000Z</time>
        <extensions>
          <ns3:TrackPointExtension>
            <ns3:hr>111</ns3:hr>
            <ns3:cad>0</ns3:cad>
          </ns3:TrackPointExtension>
        </extensions>
      </trkpt>
      <trkpt lat="37.98794866539537906646728515625" lon="-107.7498901449143886566162109375">
        <ele>4062</ele>
        <time>2026-08-15T16:42:27.000Z</time>
        <extensions>
          <ns3:TrackPointExtension>
            <ns3:hr>113</ns3:hr>
            <ns3:cad>0</ns3:cad>
          </ns3:TrackPointExtension>
        </extensions>
      </trkpt>
      <trkpt lat="37.98794816248118877410888671875" lon="-107.749886624515056610107421875">
        <ele>4061.60009765625</ele>
        <time>2026-08-15T16:42:29.000Z</time>
        <extensions>
          <ns3:TrackPointExtension>
            <ns3:hr>116</ns3:hr>
            <ns3:cad>0</ns3:cad>
          </ns3:TrackPointExtension>
        </extensions>
      </trkpt>
      <trkpt lat="37.9879531078040599822998046875" lon="-107.74988838471472263336181640625">
        <ele>4061.199951171875</ele>
        <time>2026-08-15T16:42:31.000Z</time>
        <extensions>
          <ns3:TrackPointExtension>
            <ns3:hr>119</ns3:hr>
            <ns3:cad>0</ns3:cad>
          </ns3:TrackPointExtension>
        </extensions>
      </trkpt>
      <trkpt lat="37.98797280527651309967041015625" lon="-107.74991101585328578948974609375">
        <ele>4060.800048828125</ele>
        <time>2026-08-15T16:42:36.000Z</time>
        <extensions>
          <ns3:TrackPointExtension>
            <ns3:hr>120</ns3:hr>
            <ns3:cad>0</ns3:cad>
          </ns3:TrackPointExtension>
        </extensions>
      </trkpt>
      <trkpt lat="37.9879836179316043853759765625" lon="-107.74993079714477062225341796875">
        <ele>4060.199951171875</ele>
        <time>2026-08-15T16:42:39.000Z</time>
        <extensions>
          <ns3:TrackPointExtension>
            <ns3:hr>121</ns3:hr>
            <ns3:cad>0</ns3:cad>
          </ns3:TrackPointExtension>
        </extensions>
      </trkpt>
      <trkpt lat="37.9879806004464626312255859375" lon="-107.74993725121021270751953125">
        <ele>4059.60009765625</ele>
        <time>2026-08-15T16:42:41.000Z</time>
        <extensions>
          <ns3:TrackPointExtension>
            <ns3:hr>122</ns3:hr>
            <ns3:cad>0</ns3:cad>
          </ns3:TrackPointExtension>
        </extensions>
      </trkpt>
      <trkpt lat="37.9879631660878658294677734375" lon="-107.74994806386530399322509765625">
        <ele>4058.39990234375</ele>
        <time>2026-08-15T16:42:45.000Z</time>
        <extensions>
          <ns3:TrackPointExtension>
            <ns3:hr>122</ns3:hr>
            <ns3:cad>0</ns3:cad>
          </ns3:TrackPointExtension>
        </extensions>
      </trkpt>
      <trkpt lat="37.98794531263411045074462890625" lon="-107.749969772994518280029296875">
        <ele>4057.39990234375</ele>
        <time>2026-08-15T16:42:50.000Z</time>
        <extensions>
          <ns3:TrackPointExtension>
            <ns3:hr>122</ns3:hr>
            <ns3:cad>0</ns3:cad>
          </ns3:TrackPointExtension>
        </extensions>
      </trkpt>
      <trkpt lat="37.9879407025873661041259765625" lon="-107.74998377077281475067138671875">
        <ele>4057</ele>
        <time>2026-08-15T16:42:52.000Z</time>
        <extensions>
          <ns3:TrackPointExtension>
            <ns3:hr>122</ns3:hr>
            <ns3:cad>0</ns3:cad>
          </ns3:TrackPointExtension>
        </extensions>
      </trkpt>
      <trkpt lat="37.987932153046131134033203125" lon="-107.74999651126563549041748046875">
        <ele>4056.199951171875</ele>
        <time>2026-08-15T16:42:55.000Z</time>
        <extensions>
          <ns3:TrackPointExtension>
            <ns3:hr>122</ns3:hr>
            <ns3:cad>0</ns3:cad>
          </ns3:TrackPointExtension>
        </extensions>
      </trkpt>
      <trkpt lat="37.987927459180355072021484375" lon="-107.75001327507197856903076171875">
        <ele>4055.199951171875</ele>
        <time>2026-08-15T16:42:58.000Z</time>
        <extensions>
          <ns3:TrackPointExtension>
            <ns3:hr>120</ns3:hr>
            <ns3:cad>0</ns3:cad>
          </ns3:TrackPointExtension>
        </extensions>
      </trkpt>
      <trkpt lat="37.9879212565720081329345703125" lon="-107.75002283044159412384033203125">
        <ele>4055</ele>
        <time>2026-08-15T16:42:59.000Z</time>
        <extensions>
          <ns3:TrackPointExtension>
            <ns3:hr>120</ns3:hr>
            <ns3:cad>0</ns3:cad>
          </ns3:TrackPointExtension>
        </extensions>
      </trkpt>
      <trkpt lat="37.987916730344295501708984375" lon="-107.75003406219184398651123046875">
        <ele>4054</ele>
        <time>2026-08-15T16:43:03.000Z</time>
        <extensions>
          <ns3:TrackPointExtension>
            <ns3:hr>119</ns3:hr>
            <ns3:cad>0</ns3:cad>
          </ns3:TrackPointExtension>
        </extensions>
      </trkpt>
      <trkpt lat="37.987916730344295501708984375" lon="-107.75003406219184398651123046875">
        <ele>4053.800048828125</ele>
        <time>2026-08-15T16:43:04.000Z</time>
        <extensions>
          <ns3:TrackPointExtension>
            <ns3:hr>120</ns3:hr>
            <ns3:cad>0</ns3:cad>
          </ns3:TrackPointExtension>
        </extensions>
      </trkpt>
      <trkpt lat="37.987916730344295501708984375" lon="-107.75003406219184398651123046875">
        <ele>4053.39990234375</ele>
        <time>2026-08-15T16:43:08.000Z</time>
        <extensions>
          <ns3:TrackPointExtension>
            <ns3:hr>117</ns3:hr>
            <ns3:cad>0</ns3:cad>
          </ns3:TrackPointExtension>
        </extensions>
      </trkpt>
      <trkpt lat="37.987916730344295501708984375" lon="-107.75003406219184398651123046875">
        <ele>4053.199951171875</ele>
        <time>2026-08-15T16:43:11.000Z</time>
        <extensions>
          <ns3:TrackPointExtension>
            <ns3:hr>114</ns3:hr>
            <ns3:cad>0</ns3:cad>
          </ns3:TrackPointExtension>
        </extensions>
      </trkpt>
      <trkpt lat="37.987916730344295501708984375" lon="-107.75003406219184398651123046875">
        <ele>4053.199951171875</ele>
        <time>2026-08-15T16:43:12.000Z</time>
        <extensions>
          <ns3:TrackPointExtension>
            <ns3:hr>114</ns3:hr>
            <ns3:cad>0</ns3:cad>
          </ns3:TrackPointExtension>
        </extensions>
      </trkpt>
      <trkpt lat="37.98792175948619842529296875" lon="-107.75004294700920581817626953125">
        <ele>4052.800048828125</ele>
        <time>2026-08-15T16:43:17.000Z</time>
        <extensions>
          <ns3:TrackPointExtension>
            <ns3:hr>112</ns3:hr>
            <ns3:cad>0</ns3:cad>
          </ns3:TrackPointExtension>
        </extensions>
      </trkpt>
      <trkpt lat="37.987922094762325286865234375" lon="-107.750047557055950164794921875">
        <ele>4052.39990234375</ele>
        <time>2026-08-15T16:43:20.000Z</time>
        <extensions>
          <ns3:TrackPointExtension>
            <ns3:hr>111</ns3:hr>
            <ns3:cad>0</ns3:cad>
          </ns3:TrackPointExtension>
        </extensions>
      </trkpt>
      <trkpt lat="37.987916730344295501708984375" lon="-107.75005686096847057342529296875">
        <ele>4051.800048828125</ele>
        <time>2026-08-15T16:43:23.000Z</time>
        <extensions>
          <ns3:TrackPointExtension>
            <ns3:hr>110</ns3:hr>
            <ns3:cad>0</ns3:cad>
          </ns3:TrackPointExtension>
        </extensions>
      </trkpt>
      <trkpt lat="37.987915389239788055419921875" lon="-107.7500675059854984283447265625">
        <ele>4051.199951171875</ele>
        <time>2026-08-15T16:43:29.000Z</time>
        <extensions>
          <ns3:TrackPointExtension>
            <ns3:hr>111</ns3:hr>
            <ns3:cad>0</ns3:cad>
          </ns3:TrackPointExtension>
        </extensions>
      </trkpt>
      <trkpt lat="37.98791061155498027801513671875" lon="-107.750080414116382598876953125">
        <ele>4050.60009765625</ele>
        <time>2026-08-15T16:43:34.000Z</time>
        <extensions>
          <ns3:TrackPointExtension>
            <ns3:hr>112</ns3:hr>
            <ns3:cad>0</ns3:cad>
          </ns3:TrackPointExtension>
        </extensions>
      </trkpt>
      <trkpt lat="37.9879115335643291473388671875" lon="-107.7500862814486026763916015625">
        <ele>4050.39990234375</ele>
        <time>2026-08-15T16:43:36.000Z</time>
        <extensions>
          <ns3:TrackPointExtension>
            <ns3:hr>113</ns3:hr>
            <ns3:cad>0</ns3:cad>
          </ns3:TrackPointExtension>
        </extensions>
      </trkpt>
      <trkpt lat="37.98791128210723400115966796875" lon="-107.7501171268522739410400390625">
        <ele>4049.39990234375</ele>
        <time>2026-08-15T16:43:41.000Z</time>
        <extensions>
          <ns3:TrackPointExtension>
            <ns3:hr>112</ns3:hr>
            <ns3:cad>0</ns3:cad>
          </ns3:TrackPointExtension>
        </extensions>
      </trkpt>
      <trkpt lat="37.98791371285915374755859375" lon="-107.7501164563000202178955078125">
        <ele>4049.199951171875</ele>
        <time>2026-08-15T16:43:42.000Z</time>
        <extensions>
          <ns3:TrackPointExtension>
            <ns3:hr>112</ns3:hr>
            <ns3:cad>0</ns3:cad>
          </ns3:TrackPointExtension>
        </extensions>
      </trkpt>
      <trkpt lat="37.9879222624003887176513671875" lon="-107.75012089870870113372802734375">
        <ele>4048.39990234375</ele>
        <time>2026-08-15T16:43:45.000Z</time>
        <extensions>
          <ns3:TrackPointExtension>
            <ns3:hr>111</ns3:hr>
            <ns3:cad>0</ns3:cad>
          </ns3:TrackPointExtension>
        </extensions>
      </trkpt>
      <trkpt lat="37.98793190158903598785400390625" lon="-107.75013313628733158111572265625">
        <ele>4047.39990234375</ele>
        <time>2026-08-15T16:43:50.000Z</time>
        <extensions>
          <ns3:TrackPointExtension>
            <ns3:hr>111</ns3:hr>
            <ns3:cad>0</ns3:cad>
          </ns3:TrackPointExtension>
        </extensions>
      </trkpt>
      <trkpt lat="37.9879363439977169036865234375" lon="-107.750138752162456512451171875">
        <ele>4047.39990234375</ele>
        <time>2026-08-15T16:43:51.000Z</time>
        <extensions>
          <ns3:TrackPointExtension>
            <ns3:hr>110</ns3:hr>
            <ns3:cad>0</ns3:cad>
          </ns3:TrackPointExtension>
        </extensions>
      </trkpt>
      <trkpt lat="37.98794162459671497344970703125" lon="-107.75013883598148822784423828125">
        <ele>4046.199951171875</ele>
        <time>2026-08-15T16:43:55.000Z</time>
        <extensions>
          <ns3:TrackPointExtension>
            <ns3:hr>108</ns3:hr>
            <ns3:cad>0</ns3:cad>
          </ns3:TrackPointExtension>
        </extensions>
      </trkpt>
      <trkpt lat="37.9879425466060638427734375" lon="-107.75013967417180538177490234375">
        <ele>4045.800048828125</ele>
        <time>2026-08-15T16:43:57.000Z</time>
        <extensions>
          <ns3:TrackPointExtension>
            <ns3:hr>107</ns3:hr>
            <ns3:cad>0</ns3:cad>
          </ns3:TrackPointExtension>
        </extensions>
      </trkpt>
      <trkpt lat="37.987962663173675537109375" lon="-107.75015090592205524444580078125">
        <ele>4045.199951171875</ele>
        <time>2026-08-15T16:44:01.000Z</time>
        <extensions>
          <ns3:TrackPointExtension>
            <ns3:hr>105</ns3:hr>
            <ns3:cad>0</ns3:cad>
          </ns3:TrackPointExtension>
        </extensions>
      </trkpt>
      <trkpt lat="37.98795687966048717498779296875" lon="-107.75014512240886688232421875">
        <ele>4044.800048828125</ele>
        <time>2026-08-15T16:44:03.000Z</time>
        <extensions>
          <ns3:TrackPointExtension>
            <ns3:hr>104</ns3:hr>
            <ns3:cad>0</ns3:cad>
          </ns3:TrackPointExtension>
        </extensions>
      </trkpt>
      <trkpt lat="37.98793793655931949615478515625" lon="-107.75015853345394134521484375">
        <ele>4044.39990234375</ele>
        <time>2026-08-15T16:44:09.000Z</time>
        <extensions>
          <ns3:TrackPointExtension>
            <ns3:hr>106</ns3:hr>
            <ns3:cad>0</ns3:cad>
          </ns3:TrackPointExtension>
        </extensions>
      </trkpt>
      <trkpt lat="37.987932153046131134033203125" lon="-107.7501654066145420074462890625">
        <ele>4044.199951171875</ele>
        <time>2026-08-15T16:44:10.000Z</time>
        <extensions>
          <ns3:TrackPointExtension>
            <ns3:hr>105</ns3:hr>
            <ns3:cad>0</ns3:cad>
          </ns3:TrackPointExtension>
        </extensions>
      </trkpt>
      <trkpt lat="37.98792754299938678741455078125" lon="-107.7501677535474300384521484375">
        <ele>4043.800048828125</ele>
        <time>2026-08-15T16:44:11.000Z</time>
        <extensions>
          <ns3:TrackPointExtension>
            <ns3:hr>106</ns3:hr>
            <ns3:cad>0</ns3:cad>
          </ns3:TrackPointExtension>
        </extensions>
      </trkpt>
      <trkpt lat="37.98790440894663333892822265625" lon="-107.7501751296222209930419921875">
        <ele>4043</ele>
        <time>2026-08-15T16:44:14.000Z</time>
        <extensions>
          <ns3:TrackPointExtension>
            <ns3:hr>106</ns3:hr>
            <ns3:cad>0</ns3:cad>
          </ns3:TrackPointExtension>
        </extensions>
      </trkpt>
      <trkpt lat="37.98787909559905529022216796875" lon="-107.7501835115253925323486328125">
        <ele>4042.39990234375</ele>
        <time>2026-08-15T16:44:18.000Z</time>
        <extensions>
          <ns3:TrackPointExtension>
            <ns3:hr>106</ns3:hr>
            <ns3:cad>0</ns3:cad>
          </ns3:TrackPointExtension>
        </extensions>
      </trkpt>
      <trkpt lat="37.9878803528845310211181640625" lon="-107.75018208660185337066650390625">
        <ele>4042</ele>
        <time>2026-08-15T16:44:23.000Z</time>
        <extensions>
          <ns3:TrackPointExtension>
            <ns3:hr>107</ns3:hr>
            <ns3:cad>0</ns3:cad>
          </ns3:TrackPointExtension>
        </extensions>
      </trkpt>
      <trkpt lat="37.9878501780331134796142578125" lon="-107.75016113184392452239990234375">
        <ele>4041.199951171875</ele>
        <time>2026-08-15T16:44:29.000Z</time>
        <extensions>
          <ns3:TrackPointExtension>
            <ns3:hr>107</ns3:hr>
            <ns3:cad>0</ns3:cad>
          </ns3:TrackPointExtension>
        </extensions>
      </trkpt>
      <trkpt lat="37.98784590326249599456787109375" lon="-107.7501600421965122222900390625">
        <ele>4041.39990234375</ele>
        <time>2026-08-15T16:44:30.000Z</time>
        <extensions>
          <ns3:TrackPointExtension>
            <ns3:hr>107</ns3:hr>
            <ns3:cad>0</ns3:cad>
          </ns3:TrackPointExtension>
        </extensions>
      </trkpt>
      <trkpt lat="37.9878365993499755859375" lon="-107.75015844963490962982177734375">
        <ele>4041.39990234375</ele>
        <time>2026-08-15T16:44:32.000Z</time>
        <extensions>
          <ns3:TrackPointExtension>
            <ns3:hr>103</ns3:hr>
            <ns3:cad>0</ns3:cad>
          </ns3:TrackPointExtension>
        </extensions>
      </trkpt>
      <trkpt lat="37.9878106154501438140869140625" lon="-107.75014939717948436737060546875">
        <ele>4041.800048828125</ele>
        <time>2026-08-15T16:44:35.000Z</time>
        <extensions>
          <ns3:TrackPointExtension>
            <ns3:hr>97</ns3:hr>
            <ns3:cad>0</ns3:cad>
          </ns3:TrackPointExtension>
        </extensions>
      </trkpt>
      <trkpt lat="37.9877998866140842437744140625" lon="-107.750153839588165283203125">
        <ele>4041.800048828125</ele>
        <time>2026-08-15T16:44:36.000Z</time>
        <extensions>
          <ns3:TrackPointExtension>
            <ns3:hr>94</ns3:hr>
            <ns3:cad>0</ns3:cad>
          </ns3:TrackPointExtension>
        </extensions>
      </trkpt>
      <trkpt lat="37.987785972654819488525390625" lon="-107.75015451014041900634765625">
        <ele>4042</ele>
        <time>2026-08-15T16:44:38.000Z</time>
        <extensions>
          <ns3:TrackPointExtension>
            <ns3:hr>92</ns3:hr>
            <ns3:cad>0</ns3:cad>
          </ns3:TrackPointExtension>
        </extensions>
      </trkpt>
      <trkpt lat="37.98775152303278446197509765625" lon="-107.75015811435878276824951171875">
        <ele>4041.800048828125</ele>
        <time>2026-08-15T16:44:44.000Z</time>
        <extensions>
          <ns3:TrackPointExtension>
            <ns3:hr>91</ns3:hr>
            <ns3:cad>0</ns3:cad>
          </ns3:TrackPointExtension>
        </extensions>
      </trkpt>
      <trkpt lat="37.9877519421279430389404296875" lon="-107.75016331113874912261962890625">
        <ele>4041.800048828125</ele>
        <time>2026-08-15T16:44:45.000Z</time>
        <extensions>
          <ns3:TrackPointExtension>
            <ns3:hr>92</ns3:hr>
            <ns3:cad>0</ns3:cad>
          </ns3:TrackPointExtension>
        </extensions>
      </trkpt>
      <trkpt lat="37.98771833069622516632080078125" lon="-107.7501737885177135467529296875">
        <ele>4041.39990234375</ele>
        <time>2026-08-15T16:44:51.000Z</time>
        <extensions>
          <ns3:TrackPointExtension>
            <ns3:hr>91</ns3:hr>
            <ns3:cad>0</ns3:cad>
          </ns3:TrackPointExtension>
        </extensions>
      </trkpt>
      <trkpt lat="37.98771128989756107330322265625" lon="-107.750181667506694793701171875">
        <ele>4041.199951171875</ele>
        <time>2026-08-15T16:44:52.000Z</time>
        <extensions>
          <ns3:TrackPointExtension>
            <ns3:hr>91</ns3:hr>
            <ns3:cad>0</ns3:cad>
          </ns3:TrackPointExtension>
        </extensions>
      </trkpt>
      <trkpt lat="37.9876882396638393402099609375" lon="-107.75018996559083461761474609375">
        <ele>4040.800048828125</ele>
        <time>2026-08-15T16:44:54.000Z</time>
        <extensions>
          <ns3:TrackPointExtension>
            <ns3:hr>92</ns3:hr>
            <ns3:cad>0</ns3:cad>
          </ns3:TrackPointExtension>
        </extensions>
      </trkpt>
      <trkpt lat="37.9876791872084140777587890625" lon="-107.75019834749400615692138671875">
        <ele>4040.60009765625</ele>
        <time>2026-08-15T16:44:56.000Z</time>
        <extensions>
          <ns3:TrackPointExtension>
            <ns3:hr>100</ns3:hr>
            <ns3:cad>0</ns3:cad>
          </ns3:TrackPointExtension>
        </extensions>
      </trkpt>
      <trkpt lat="37.98767105676233768463134765625" lon="-107.7502019517123699188232421875">
        <ele>4040.39990234375</ele>
        <time>2026-08-15T16:44:57.000Z</time>
        <extensions>
          <ns3:TrackPointExtension>
            <ns3:hr>110</ns3:hr>
            <ns3:cad>0</ns3:cad>
          </ns3:TrackPointExtension>
        </extensions>
      </trkpt>
      <trkpt lat="37.98766368068754673004150390625" lon="-107.750205136835575103759765625">
        <ele>4040.39990234375</ele>
        <time>2026-08-15T16:44:58.000Z</time>
        <extensions>
          <ns3:TrackPointExtension>
            <ns3:hr>115</ns3:hr>
            <ns3:cad>0</ns3:cad>
          </ns3:TrackPointExtension>
        </extensions>
      </trkpt>
      <trkpt lat="37.98762093298137187957763671875" lon="-107.75022215209901332855224609375">
        <ele>4041.199951171875</ele>
        <time>2026-08-15T16:45:04.000Z</time>
        <extensions>
          <ns3:TrackPointExtension>
            <ns3:hr>116</ns3:hr>
            <ns3:cad>0</ns3:cad>
          </ns3:TrackPointExtension>
        </extensions>
      </trkpt>
      <trkpt lat="37.9876099526882171630859375" lon="-107.75022315792739391326904296875">
        <ele>4041.39990234375</ele>
        <time>2026-08-15T16:45:06.000Z</time>
        <extensions>
          <ns3:TrackPointExtension>
            <ns3:hr>115</ns3:hr>
            <ns3:cad>0</ns3:cad>
          </ns3:TrackPointExtension>
        </extensions>
      </trkpt>
      <trkpt lat="37.9875749163329601287841796875" lon="-107.7502391673624515533447265625">
        <ele>4040.800048828125</ele>
        <time>2026-08-15T16:45:11.000Z</time>
        <extensions>
          <ns3:TrackPointExtension>
            <ns3:hr>114</ns3:hr>
            <ns3:cad>0</ns3:cad>
          </ns3:TrackPointExtension>
        </extensions>
      </trkpt>
      <trkpt lat="37.98757097683846950531005859375" lon="-107.75024511851370334625244140625">
        <ele>4040.199951171875</ele>
        <time>2026-08-15T16:45:13.000Z</time>
        <extensions>
          <ns3:TrackPointExtension>
            <ns3:hr>109</ns3:hr>
            <ns3:cad>0</ns3:cad>
          </ns3:TrackPointExtension>
        </extensions>
      </trkpt>
      <trkpt lat="37.98756326548755168914794921875" lon="-107.75025450624525547027587890625">
        <ele>4039.60009765625</ele>
        <time>2026-08-15T16:45:15.000Z</time>
        <extensions>
          <ns3:TrackPointExtension>
            <ns3:hr>106</ns3:hr>
            <ns3:cad>0</ns3:cad>
          </ns3:TrackPointExtension>
        </extensions>
      </trkpt>
      <trkpt lat="37.9875574819743633270263671875" lon="-107.75027252733707427978515625">
        <ele>4038.800048828125</ele>
        <time>2026-08-15T16:45:18.000Z</time>
        <extensions>
          <ns3:TrackPointExtension>
            <ns3:hr>104</ns3:hr>
            <ns3:cad>0</ns3:cad>
          </ns3:TrackPointExtension>
        </extensions>
      </trkpt>
      <trkpt lat="37.9875589907169342041015625" lon="-107.75026992894709110260009765625">
        <ele>4038.60009765625</ele>
        <time>2026-08-15T16:45:19.000Z</time>
        <extensions>
          <ns3:TrackPointExtension>
            <ns3:hr>104</ns3:hr>
            <ns3:cad>66</ns3:cad>
          </ns3:TrackPointExtension>
        </extensions>
      </trkpt>
      <trkpt lat="37.9875387065112590789794921875" lon="-107.7502797357738018035888671875">
        <ele>4037.199951171875</ele>
        <time>2026-08-15T16:45:24.000Z</time>
        <extensions>
          <ns3:TrackPointExtension>
            <ns3:hr>101</ns3:hr>
            <ns3:cad>64</ns3:cad>
          </ns3:TrackPointExtension>
        </extensions>
      </trkpt>
      <trkpt lat="37.9875028319656848907470703125" lon="-107.7502807416021823883056640625">
        <ele>4037.60009765625</ele>
        <time>2026-08-15T16:45:30.000Z</time>
        <extensions>
          <ns3:TrackPointExtension>
            <ns3:hr>100</ns3:hr>
            <ns3:cad>0</ns3:cad>
          </ns3:TrackPointExtension>
        </extensions>
      </trkpt>
      <trkpt lat="37.9874957911670207977294921875" lon="-107.75028250180184841156005859375">
        <ele>4037.800048828125</ele>
        <time>2026-08-15T16:45:31.000Z</time>
        <extensions>
          <ns3:TrackPointExtension>
            <ns3:hr>100</ns3:hr>
            <ns3:cad>0</ns3:cad>
          </ns3:TrackPointExtension>
        </extensions>
      </trkpt>
      <trkpt lat="37.98747693188488483428955078125" lon="-107.7502995170652866363525390625">
        <ele>4036.800048828125</ele>
        <time>2026-08-15T16:45:37.000Z</time>
        <extensions>
          <ns3:TrackPointExtension>
            <ns3:hr>102</ns3:hr>
            <ns3:cad>0</ns3:cad>
          </ns3:TrackPointExtension>
        </extensions>
      </trkpt>
      <trkpt lat="37.987475506961345672607421875" lon="-107.75030060671269893646240234375">
        <ele>4036.39990234375</ele>
        <time>2026-08-15T16:45:38.000Z</time>
        <extensions>
          <ns3:TrackPointExtension>
            <ns3:hr>103</ns3:hr>
            <ns3:cad>0</ns3:cad>
          </ns3:TrackPointExtension>
        </extensions>
      </trkpt>
      <trkpt lat="37.98747575841844081878662109375" lon="-107.7503008581697940826416015625">
        <ele>4036</ele>
        <time>2026-08-15T16:45:39.000Z</time>
        <extensions>
          <ns3:TrackPointExtension>
            <ns3:hr>103</ns3:hr>
            <ns3:cad>0</ns3:cad>
          </ns3:TrackPointExtension>
        </extensions>
      </trkpt>
      <trkpt lat="37.98747424967586994171142578125" lon="-107.7502973377704620361328125">
        <ele>4035</ele>
        <time>2026-08-15T16:45:41.000Z</time>
        <extensions>
          <ns3:TrackPointExtension>
            <ns3:hr>104</ns3:hr>
            <ns3:cad>0</ns3:cad>
          </ns3:TrackPointExtension>
        </extensions>
      </trkpt>
      <trkpt lat="37.987463437020778656005859375" lon="-107.75029666721820831298828125">
        <ele>4034</ele>
        <time>2026-08-15T16:45:44.000Z</time>
        <extensions>
          <ns3:TrackPointExtension>
            <ns3:hr>105</ns3:hr>
            <ns3:cad>0</ns3:cad>
          </ns3:TrackPointExtension>
        </extensions>
      </trkpt>
      <trkpt lat="37.9874597489833831787109375" lon="-107.750292979180812835693359375">
        <ele>4033.800048828125</ele>
        <time>2026-08-15T16:45:45.000Z</time>
        <extensions>
          <ns3:TrackPointExtension>
            <ns3:hr>106</ns3:hr>
            <ns3:cad>0</ns3:cad>
          </ns3:TrackPointExtension>
        </extensions>
      </trkpt>
      <trkpt lat="37.98743971623480319976806640625" lon="-107.75030127726495265960693359375">
        <ele>4032.800048828125</ele>
        <time>2026-08-15T16:45:48.000Z</time>
        <extensions>
          <ns3:TrackPointExtension>
            <ns3:hr>107</ns3:hr>
            <ns3:cad>0</ns3:cad>
          </ns3:TrackPointExtension>
        </extensions>
      </trkpt>
      <trkpt lat="37.9874436557292938232421875" lon="-107.75032642297446727752685546875">
        <ele>4032.199951171875</ele>
        <time>2026-08-15T16:45:50.000Z</time>
        <extensions>
          <ns3:TrackPointExtension>
            <ns3:hr>108</ns3:hr>
            <ns3:cad>42</ns3:cad>
          </ns3:TrackPointExtension>
        </extensions>
      </trkpt>
      <trkpt lat="37.98744625411927700042724609375" lon="-107.7503322064876556396484375">
        <ele>4031.60009765625</ele>
        <time>2026-08-15T16:45:51.000Z</time>
        <extensions>
          <ns3:TrackPointExtension>
            <ns3:hr>109</ns3:hr>
            <ns3:cad>42</ns3:cad>
          </ns3:TrackPointExtension>
        </extensions>
      </trkpt>
      <trkpt lat="37.9874451644718647003173828125" lon="-107.75035508908331394195556640625">
        <ele>4030.60009765625</ele>
        <time>2026-08-15T16:45:54.000Z</time>
        <extensions>
          <ns3:TrackPointExtension>
            <ns3:hr>110</ns3:hr>
            <ns3:cad>0</ns3:cad>
          </ns3:TrackPointExtension>
        </extensions>
      </trkpt>
      <trkpt lat="37.98743954859673976898193359375" lon="-107.75035475380718708038330078125">
        <ele>4030.199951171875</ele>
        <time>2026-08-15T16:45:56.000Z</time>
        <extensions>
          <ns3:TrackPointExtension>
            <ns3:hr>109</ns3:hr>
            <ns3:cad>0</ns3:cad>
          </ns3:TrackPointExtension>
        </extensions>
      </trkpt>
      <trkpt lat="37.9874377883970737457275390625" lon="-107.7503870241343975067138671875">
        <ele>4030</ele>
        <time>2026-08-15T16:46:01.000Z</time>
        <extensions>
          <ns3:TrackPointExtension>
            <ns3:hr>114</ns3:hr>
            <ns3:cad>0</ns3:cad>
          </ns3:TrackPointExtension>
        </extensions>
      </trkpt>
      <trkpt lat="37.98743736930191516876220703125" lon="-107.7503907121717929840087890625">
        <ele>4029.60009765625</ele>
        <time>2026-08-15T16:46:02.000Z</time>
        <extensions>
          <ns3:TrackPointExtension>
            <ns3:hr>115</ns3:hr>
            <ns3:cad>0</ns3:cad>
          </ns3:TrackPointExtension>
        </extensions>
      </trkpt>
      <trkpt lat="37.98743569292128086090087890625" lon="-107.750393562018871307373046875">
        <ele>4029.39990234375</ele>
        <time>2026-08-15T16:46:03.000Z</time>
        <extensions>
          <ns3:TrackPointExtension>
            <ns3:hr>116</ns3:hr>
            <ns3:cad>0</ns3:cad>
          </ns3:TrackPointExtension>
        </extensions>
      </trkpt>
      <trkpt lat="37.9874277301132678985595703125" lon="-107.75040286593139171600341796875">
        <ele>4028.800048828125</ele>
        <time>2026-08-15T16:46:06.000Z</time>
        <extensions>
          <ns3:TrackPointExtension>
            <ns3:hr>113</ns3:hr>
            <ns3:cad>0</ns3:cad>
          </ns3:TrackPointExtension>
        </extensions>
      </trkpt>
      <trkpt lat="37.98741348087787628173828125" lon="-107.7503992617130279541015625">
        <ele>4028.39990234375</ele>
        <time>2026-08-15T16:46:08.000Z</time>
        <extensions>
          <ns3:TrackPointExtension>
            <ns3:hr>113</ns3:hr>
            <ns3:cad>0</ns3:cad>
          </ns3:TrackPointExtension>
        </extensions>
      </trkpt>
      <trkpt lat="37.98741004429757595062255859375" lon="-107.7503984235227108001708984375">
        <ele>4028</ele>
        <time>2026-08-15T16:46:09.000Z</time>
        <extensions>
          <ns3:TrackPointExtension>
            <ns3:hr>114</ns3:hr>
            <ns3:cad>0</ns3:cad>
          </ns3:TrackPointExtension>
        </extensions>
      </trkpt>
      <trkpt lat="37.98739260993897914886474609375" lon="-107.7503960765898227691650390625">
        <ele>4027.199951171875</ele>
        <time>2026-08-15T16:46:12.000Z</time>
        <extensions>
          <ns3:TrackPointExtension>
            <ns3:hr>114</ns3:hr>
            <ns3:cad>0</ns3:cad>
          </ns3:TrackPointExtension>
        </extensions>
      </trkpt>
      <trkpt lat="37.98737995326519012451171875" lon="-107.7504027821123600006103515625">
        <ele>4026.39990234375</ele>
        <time>2026-08-15T16:46:14.000Z</time>
        <extensions>
          <ns3:TrackPointExtension>
            <ns3:hr>115</ns3:hr>
            <ns3:cad>0</ns3:cad>
          </ns3:TrackPointExtension>
        </extensions>
      </trkpt>
      <trkpt lat="37.9873747564852237701416015625" lon="-107.75040940381586551666259765625">
        <ele>4026</ele>
        <time>2026-08-15T16:46:15.000Z</time>
        <extensions>
          <ns3:TrackPointExtension>
            <ns3:hr>115</ns3:hr>
            <ns3:cad>0</ns3:cad>
          </ns3:TrackPointExtension>
        </extensions>
      </trkpt>
      <trkpt lat="37.98734265379607677459716796875" lon="-107.75041602551937103271484375">
        <ele>4025</ele>
        <time>2026-08-15T16:46:18.000Z</time>
        <extensions>
          <ns3:TrackPointExtension>
            <ns3:hr>116</ns3:hr>
            <ns3:cad>0</ns3:cad>
          </ns3:TrackPointExtension>
        </extensions>
      </trkpt>
      <trkpt lat="37.98731734044849872589111328125" lon="-107.750422060489654541015625">
        <ele>4024.60009765625</ele>
        <time>2026-08-15T16:46:20.000Z</time>
        <extensions>
          <ns3:TrackPointExtension>
            <ns3:hr>116</ns3:hr>
            <ns3:cad>0</ns3:cad>
          </ns3:TrackPointExtension>
        </extensions>
      </trkpt>
      <trkpt lat="37.987288422882556915283203125" lon="-107.7504342980682849884033203125">
        <ele>4024.39990234375</ele>
        <time>2026-08-15T16:46:22.000Z</time>
        <extensions>
          <ns3:TrackPointExtension>
            <ns3:hr>119</ns3:hr>
            <ns3:cad>0</ns3:cad>
          </ns3:TrackPointExtension>
        </extensions>
      </trkpt>
      <trkpt lat="37.98726168461143970489501953125" lon="-107.750445194542407989501953125">
        <ele>4023.800048828125</ele>
        <time>2026-08-15T16:46:25.000Z</time>
        <extensions>
          <ns3:TrackPointExtension>
            <ns3:hr>118</ns3:hr>
            <ns3:cad>54</ns3:cad>
          </ns3:TrackPointExtension>
        </extensions>
      </trkpt>
      <trkpt lat="37.98723653890192508697509765625" lon="-107.750449217855930328369140625">
        <ele>4023</ele>
        <time>2026-08-15T16:46:28.000Z</time>
        <extensions>
          <ns3:TrackPointExtension>
            <ns3:hr>120</ns3:hr>
            <ns3:cad>0</ns3:cad>
          </ns3:TrackPointExtension>
        </extensions>
      </trkpt>
      <trkpt lat="37.9872305877506732940673828125" lon="-107.750451564788818359375">
        <ele>4022.60009765625</ele>
        <time>2026-08-15T16:46:29.000Z</time>
        <extensions>
          <ns3:TrackPointExtension>
            <ns3:hr>120</ns3:hr>
            <ns3:cad>0</ns3:cad>
          </ns3:TrackPointExtension>
        </extensions>
      </trkpt>
      <trkpt lat="37.987205274403095245361328125" lon="-107.75046539492905139923095703125">
        <ele>4021.39990234375</ele>
        <time>2026-08-15T16:46:33.000Z</time>
        <extensions>
          <ns3:TrackPointExtension>
            <ns3:hr>120</ns3:hr>
            <ns3:cad>76</ns3:cad>
          </ns3:TrackPointExtension>
        </extensions>
      </trkpt>
      <trkpt lat="37.9871886782348155975341796875" lon="-107.75046992115676403045654296875">
        <ele>4020.60009765625</ele>
        <time>2026-08-15T16:46:35.000Z</time>
        <extensions>
          <ns3:TrackPointExtension>
            <ns3:hr>120</ns3:hr>
            <ns3:cad>76</ns3:cad>
          </ns3:TrackPointExtension>
        </extensions>
      </trkpt>
      <trkpt lat="37.98718004487454891204833984375" lon="-107.75047578848898410797119140625">
        <ele>4020.199951171875</ele>
        <time>2026-08-15T16:46:36.000Z</time>
        <extensions>
          <ns3:TrackPointExtension>
            <ns3:hr>119</ns3:hr>
            <ns3:cad>76</ns3:cad>
          </ns3:TrackPointExtension>
        </extensions>
      </trkpt>
      <trkpt lat="37.98716512508690357208251953125" lon="-107.75047126226127147674560546875">
        <ele>4019</ele>
        <time>2026-08-15T16:46:39.000Z</time>
        <extensions>
          <ns3:TrackPointExtension>
            <ns3:hr>118</ns3:hr>
            <ns3:cad>61</ns3:cad>
          </ns3:TrackPointExtension>
        </extensions>
      </trkpt>
      <trkpt lat="37.98716378398239612579345703125" lon="-107.7504698373377323150634765625">
        <ele>4018.60009765625</ele>
        <time>2026-08-15T16:46:40.000Z</time>
        <extensions>
          <ns3:TrackPointExtension>
            <ns3:hr>117</ns3:hr>
            <ns3:cad>0</ns3:cad>
          </ns3:TrackPointExtension>
        </extensions>
      </trkpt>
      <trkpt lat="37.98716395162045955657958984375" lon="-107.75046992115676403045654296875">
        <ele>4018.199951171875</ele>
        <time>2026-08-15T16:46:45.000Z</time>
        <extensions>
          <ns3:TrackPointExtension>
            <ns3:hr>115</ns3:hr>
            <ns3:cad>0</ns3:cad>
          </ns3:TrackPointExtension>
        </extensions>
      </trkpt>
      <trkpt lat="37.98715305514633655548095703125" lon="-107.7504735253751277923583984375">
        <ele>4017.800048828125</ele>
        <time>2026-08-15T16:46:48.000Z</time>
        <extensions>
          <ns3:TrackPointExtension>
            <ns3:hr>114</ns3:hr>
            <ns3:cad>0</ns3:cad>
          </ns3:TrackPointExtension>
        </extensions>
      </trkpt>
      <trkpt lat="37.98710058443248271942138671875" lon="-107.750502862036228179931640625">
        <ele>4017.39990234375</ele>
        <time>2026-08-15T16:46:54.000Z</time>
        <extensions>
          <ns3:TrackPointExtension>
            <ns3:hr>114</ns3:hr>
            <ns3:cad>57</ns3:cad>
          </ns3:TrackPointExtension>
        </extensions>
      </trkpt>
      <trkpt lat="37.98709387890994548797607421875" lon="-107.75050311349332332611083984375">
        <ele>4017</ele>
        <time>2026-08-15T16:46:57.000Z</time>
        <extensions>
          <ns3:TrackPointExtension>
            <ns3:hr>113</ns3:hr>
            <ns3:cad>0</ns3:cad>
          </ns3:TrackPointExtension>
        </extensions>
      </trkpt>
      <trkpt lat="37.98709069378674030303955078125" lon="-107.75050344876945018768310546875">
        <ele>4016.800048828125</ele>
        <time>2026-08-15T16:46:58.000Z</time>
        <extensions>
          <ns3:TrackPointExtension>
            <ns3:hr>113</ns3:hr>
            <ns3:cad>0</ns3:cad>
          </ns3:TrackPointExtension>
        </extensions>
      </trkpt>
      <trkpt lat="37.98707677982747554779052734375" lon="-107.7505073882639408111572265625">
        <ele>4016.199951171875</ele>
        <time>2026-08-15T16:47:03.000Z</time>
        <extensions>
          <ns3:TrackPointExtension>
            <ns3:hr>111</ns3:hr>
            <ns3:cad>0</ns3:cad>
          </ns3:TrackPointExtension>
        </extensions>
      </trkpt>
      <trkpt lat="37.98707677982747554779052734375" lon="-107.7505073882639408111572265625">
        <ele>4016.800048828125</ele>
        <time>2026-08-15T16:47:09.000Z</time>
        <extensions>
          <ns3:TrackPointExtension>
            <ns3:hr>111</ns3:hr>
            <ns3:cad>0</ns3:cad>
          </ns3:TrackPointExtension>
        </extensions>
      </trkpt>
      <trkpt lat="37.98707677982747554779052734375" lon="-107.7505073882639408111572265625">
        <ele>4016.60009765625</ele>
        <time>2026-08-15T16:47:13.000Z</time>
        <extensions>
          <ns3:TrackPointExtension>
            <ns3:hr>114</ns3:hr>
            <ns3:cad>0</ns3:cad>
          </ns3:TrackPointExtension>
        </extensions>
      </trkpt>
      <trkpt lat="37.9870592616498470306396484375" lon="-107.7505047060549259185791015625">
        <ele>4015.60009765625</ele>
        <time>2026-08-15T16:47:19.000Z</time>
        <extensions>
          <ns3:TrackPointExtension>
            <ns3:hr>112</ns3:hr>
            <ns3:cad>0</ns3:cad>
          </ns3:TrackPointExtension>
        </extensions>
      </trkpt>
      <trkpt lat="37.98704308457672595977783203125" lon="-107.75051048956811428070068359375">
        <ele>4015.39990234375</ele>
        <time>2026-08-15T16:47:24.000Z</time>
        <extensions>
          <ns3:TrackPointExtension>
            <ns3:hr>113</ns3:hr>
            <ns3:cad>0</ns3:cad>
          </ns3:TrackPointExtension>
        </extensions>
      </trkpt>
      <trkpt lat="37.98704308457672595977783203125" lon="-107.75051048956811428070068359375">
        <ele>4015.199951171875</ele>
        <time>2026-08-15T16:47:30.000Z</time>
        <extensions>
          <ns3:TrackPointExtension>
            <ns3:hr>113</ns3:hr>
            <ns3:cad>0</ns3:cad>
          </ns3:TrackPointExtension>
        </extensions>
      </trkpt>
      <trkpt lat="37.98704308457672595977783203125" lon="-107.75051048956811428070068359375">
        <ele>4015.60009765625</ele>
        <time>2026-08-15T16:47:33.000Z</time>
        <extensions>
          <ns3:TrackPointExtension>
            <ns3:hr>114</ns3:hr>
            <ns3:cad>0</ns3:cad>
          </ns3:TrackPointExtension>
        </extensions>
      </trkpt>
      <trkpt lat="37.98704308457672595977783203125" lon="-107.75051048956811428070068359375">
        <ele>4015.199951171875</ele>
        <time>2026-08-15T16:47:39.000Z</time>
        <extensions>
          <ns3:TrackPointExtension>
            <ns3:hr>112</ns3:hr>
            <ns3:cad>0</ns3:cad>
          </ns3:TrackPointExtension>
        </extensions>
      </trkpt>
      <trkpt lat="37.98704308457672595977783203125" lon="-107.75051048956811428070068359375">
        <ele>4015.39990234375</ele>
        <time>2026-08-15T16:47:41.000Z</time>
        <extensions>
          <ns3:TrackPointExtension>
            <ns3:hr>111</ns3:hr>
            <ns3:cad>0</ns3:cad>
          </ns3:TrackPointExtension>
        </extensions>
      </trkpt>
      <trkpt lat="37.98704308457672595977783203125" lon="-107.75051048956811428070068359375">
        <ele>4015.39990234375</ele>
        <time>2026-08-15T16:47:47.000Z</time>
        <extensions>
          <ns3:TrackPointExtension>
            <ns3:hr>110</ns3:hr>
            <ns3:cad>0</ns3:cad>
          </ns3:TrackPointExtension>
        </extensions>
      </trkpt>
      <trkpt lat="37.98703872598707675933837890625" lon="-107.75051124393939971923828125">
        <ele>4014.60009765625</ele>
        <time>2026-08-15T16:47:50.000Z</time>
        <extensions>
          <ns3:TrackPointExtension>
            <ns3:hr>109</ns3:hr>
            <ns3:cad>0</ns3:cad>
          </ns3:TrackPointExtension>
        </extensions>
      </trkpt>
      <trkpt lat="37.98704308457672595977783203125" lon="-107.75051048956811428070068359375">
        <ele>4014.39990234375</ele>
        <time>2026-08-15T16:47:56.000Z</time>
        <extensions>
          <ns3:TrackPointExtension>
            <ns3:hr>107</ns3:hr>
            <ns3:cad>0</ns3:cad>
          </ns3:TrackPointExtension>
        </extensions>
      </trkpt>
      <trkpt lat="37.98703369684517383575439453125" lon="-107.750516273081302642822265625">
        <ele>4014.199951171875</ele>
        <time>2026-08-15T16:47:59.000Z</time>
        <extensions>
          <ns3:TrackPointExtension>
            <ns3:hr>107</ns3:hr>
            <ns3:cad>0</ns3:cad>
          </ns3:TrackPointExtension>
        </extensions>
      </trkpt>
      <trkpt lat="37.98699916340410709381103515625" lon="-107.7504889480769634246826171875">
        <ele>4014</ele>
        <time>2026-08-15T16:48:05.000Z</time>
        <extensions>
          <ns3:TrackPointExtension>
            <ns3:hr>108</ns3:hr>
            <ns3:cad>51</ns3:cad>
          </ns3:TrackPointExtension>
        </extensions>
      </trkpt>
      <trkpt lat="37.986964881420135498046875" lon="-107.750486098229885101318359375">
        <ele>4013.60009765625</ele>
        <time>2026-08-15T16:48:11.000Z</time>
        <extensions>
          <ns3:TrackPointExtension>
            <ns3:hr>107</ns3:hr>
            <ns3:cad>0</ns3:cad>
          </ns3:TrackPointExtension>
        </extensions>
      </trkpt>
      <trkpt lat="37.98695641569793224334716796875" lon="-107.75048903189599514007568359375">
        <ele>4013.60009765625</ele>
        <time>2026-08-15T16:48:12.000Z</time>
        <extensions>
          <ns3:TrackPointExtension>
            <ns3:hr>107</ns3:hr>
            <ns3:cad>0</ns3:cad>
          </ns3:TrackPointExtension>
        </extensions>
      </trkpt>
      <trkpt lat="37.98692909069359302520751953125" lon="-107.75048115290701389312744140625">
        <ele>4013.60009765625</ele>
        <time>2026-08-15T16:48:18.000Z</time>
        <extensions>
          <ns3:TrackPointExtension>
            <ns3:hr>106</ns3:hr>
            <ns3:cad>0</ns3:cad>
          </ns3:TrackPointExtension>
        </extensions>
      </trkpt>
      <trkpt lat="37.98692909069359302520751953125" lon="-107.75048115290701389312744140625">
        <ele>4013.39990234375</ele>
        <time>2026-08-15T16:48:19.000Z</time>
        <extensions>
          <ns3:TrackPointExtension>
            <ns3:hr>107</ns3:hr>
            <ns3:cad>0</ns3:cad>
          </ns3:TrackPointExtension>
        </extensions>
      </trkpt>
      <trkpt lat="37.98692909069359302520751953125" lon="-107.75048115290701389312744140625">
        <ele>4013.199951171875</ele>
        <time>2026-08-15T16:48:25.000Z</time>
        <extensions>
          <ns3:TrackPointExtension>
            <ns3:hr>108</ns3:hr>
            <ns3:cad>0</ns3:cad>
          </ns3:TrackPointExtension>
        </extensions>
      </trkpt>
      <trkpt lat="37.98693680204451084136962890625" lon="-107.75045768357813358306884765625">
        <ele>4013.60009765625</ele>
        <time>2026-08-15T16:48:31.000Z</time>
        <extensions>
          <ns3:TrackPointExtension>
            <ns3:hr>109</ns3:hr>
            <ns3:cad>0</ns3:cad>
          </ns3:TrackPointExtension>
        </extensions>
      </trkpt>
      <trkpt lat="37.98693981952965259552001953125" lon="-107.75043220259249210357666015625">
        <ele>4013.199951171875</ele>
        <time>2026-08-15T16:48:34.000Z</time>
        <extensions>
          <ns3:TrackPointExtension>
            <ns3:hr>111</ns3:hr>
            <ns3:cad>0</ns3:cad>
          </ns3:TrackPointExtension>
        </extensions>
      </trkpt>
      <trkpt lat="37.986948452889919281005859375" lon="-107.75041007436811923980712890625">
        <ele>4012.39990234375</ele>
        <time>2026-08-15T16:48:37.000Z</time>
        <extensions>
          <ns3:TrackPointExtension>
            <ns3:hr>112</ns3:hr>
            <ns3:cad>0</ns3:cad>
          </ns3:TrackPointExtension>
        </extensions>
      </trkpt>
      <trkpt lat="37.98695406876504421234130859375" lon="-107.75038677267730236053466796875">
        <ele>4011.39990234375</ele>
        <time>2026-08-15T16:48:40.000Z</time>
        <extensions>
          <ns3:TrackPointExtension>
            <ns3:hr>112</ns3:hr>
            <ns3:cad>0</ns3:cad>
          </ns3:TrackPointExtension>
        </extensions>
      </trkpt>
      <trkpt lat="37.9869576729834079742431640625" lon="-107.7503804862499237060546875">
        <ele>4011</ele>
        <time>2026-08-15T16:48:41.000Z</time>
        <extensions>
          <ns3:TrackPointExtension>
            <ns3:hr>112</ns3:hr>
            <ns3:cad>0</ns3:cad>
          </ns3:TrackPointExtension>
        </extensions>
      </trkpt>
      <trkpt lat="37.9869715869426727294921875" lon="-107.7503545023500919342041015625">
        <ele>4009.800048828125</ele>
        <time>2026-08-15T16:48:46.000Z</time>
        <extensions>
          <ns3:TrackPointExtension>
            <ns3:hr>112</ns3:hr>
            <ns3:cad>18</ns3:cad>
          </ns3:TrackPointExtension>
        </extensions>
      </trkpt>
      <trkpt lat="37.98697317950427532196044921875" lon="-107.75035005994141101837158203125">
        <ele>4009.800048828125</ele>
        <time>2026-08-15T16:48:47.000Z</time>
        <extensions>
          <ns3:TrackPointExtension>
            <ns3:hr>112</ns3:hr>
            <ns3:cad>18</ns3:cad>
          </ns3:TrackPointExtension>
        </extensions>
      </trkpt>
      <trkpt lat="37.98698365688323974609375" lon="-107.7503156103193759918212890625">
        <ele>4008.60009765625</ele>
        <time>2026-08-15T16:48:50.000Z</time>
        <extensions>
          <ns3:TrackPointExtension>
            <ns3:hr>111</ns3:hr>
            <ns3:cad>0</ns3:cad>
          </ns3:TrackPointExtension>
        </extensions>
      </trkpt>
      <trkpt lat="37.9869932122528553009033203125" lon="-107.7503011934459209442138671875">
        <ele>4007.800048828125</ele>
        <time>2026-08-15T16:48:52.000Z</time>
        <extensions>
          <ns3:TrackPointExtension>
            <ns3:hr>111</ns3:hr>
            <ns3:cad>0</ns3:cad>
          </ns3:TrackPointExtension>
        </extensions>
      </trkpt>
      <trkpt lat="37.986996732652187347412109375" lon="-107.75029423646628856658935546875">
        <ele>4007.199951171875</ele>
        <time>2026-08-15T16:48:53.000Z</time>
        <extensions>
          <ns3:TrackPointExtension>
            <ns3:hr>111</ns3:hr>
            <ns3:cad>0</ns3:cad>
          </ns3:TrackPointExtension>
        </extensions>
      </trkpt>
      <trkpt lat="37.987053059041500091552734375" lon="-107.75026582181453704833984375">
        <ele>4006.39990234375</ele>
        <time>2026-08-15T16:48:59.000Z</time>
        <extensions>
          <ns3:TrackPointExtension>
            <ns3:hr>111</ns3:hr>
            <ns3:cad>0</ns3:cad>
          </ns3:TrackPointExtension>
        </extensions>
      </trkpt>
      <trkpt lat="37.98710712231695652008056640625" lon="-107.750241346657276153564453125">
        <ele>4007.199951171875</ele>
        <time>2026-08-15T16:49:05.000Z</time>
        <extensions>
          <ns3:TrackPointExtension>
            <ns3:hr>111</ns3:hr>
            <ns3:cad>0</ns3:cad>
          </ns3:TrackPointExtension>
        </extensions>
      </trkpt>
      <trkpt lat="37.98711718060076236724853515625" lon="-107.7502224035561084747314453125">
        <ele>4007.39990234375</ele>
        <time>2026-08-15T16:49:07.000Z</time>
        <extensions>
          <ns3:TrackPointExtension>
            <ns3:hr>111</ns3:hr>
            <ns3:cad>0</ns3:cad>
          </ns3:TrackPointExtension>
        </extensions>
      </trkpt>
      <trkpt lat="37.987155653536319732666015625" lon="-107.75017437525093555450439453125">
        <ele>4007.39990234375</ele>
        <time>2026-08-15T16:49:12.000Z</time>
        <extensions>
          <ns3:TrackPointExtension>
            <ns3:hr>108</ns3:hr>
            <ns3:cad>62</ns3:cad>
          </ns3:TrackPointExtension>
        </extensions>
      </trkpt>
      <trkpt lat="37.98716361634433269500732421875" lon="-107.7501717768609523773193359375">
        <ele>4007.39990234375</ele>
        <time>2026-08-15T16:49:13.000Z</time>
        <extensions>
          <ns3:TrackPointExtension>
            <ns3:hr>107</ns3:hr>
            <ns3:cad>62</ns3:cad>
          </ns3:TrackPointExtension>
        </extensions>
      </trkpt>
      <trkpt lat="37.9871856607496738433837890625" lon="-107.7501471340656280517578125">
        <ele>4007.60009765625</ele>
        <time>2026-08-15T16:49:18.000Z</time>
        <extensions>
          <ns3:TrackPointExtension>
            <ns3:hr>106</ns3:hr>
            <ns3:cad>0</ns3:cad>
          </ns3:TrackPointExtension>
        </extensions>
      </trkpt>
      <trkpt lat="37.98722497187554836273193359375" lon="-107.75010178796947002410888671875">
        <ele>4008</ele>
        <time>2026-08-15T16:49:24.000Z</time>
        <extensions>
          <ns3:TrackPointExtension>
            <ns3:hr>108</ns3:hr>
            <ns3:cad>0</ns3:cad>
          </ns3:TrackPointExtension>
        </extensions>
      </trkpt>
      <trkpt lat="37.9872299171984195709228515625" lon="-107.75009189732372760772705078125">
        <ele>4008</ele>
        <time>2026-08-15T16:49:25.000Z</time>
        <extensions>
          <ns3:TrackPointExtension>
            <ns3:hr>108</ns3:hr>
            <ns3:cad>0</ns3:cad>
          </ns3:TrackPointExtension>
        </extensions>
      </trkpt>
      <trkpt lat="37.9872637800872325897216796875" lon="-107.7500447072088718414306640625">
        <ele>4008.199951171875</ele>
        <time>2026-08-15T16:49:31.000Z</time>
        <extensions>
          <ns3:TrackPointExtension>
            <ns3:hr>106</ns3:hr>
            <ns3:cad>0</ns3:cad>
          </ns3:TrackPointExtension>
        </extensions>
      </trkpt>
      <trkpt lat="37.9872746765613555908203125" lon="-107.75003540329635143280029296875">
        <ele>4008.199951171875</ele>
        <time>2026-08-15T16:49:33.000Z</time>
        <extensions>
          <ns3:TrackPointExtension>
            <ns3:hr>105</ns3:hr>
            <ns3:cad>0</ns3:cad>
          </ns3:TrackPointExtension>
        </extensions>
      </trkpt>
      <trkpt lat="37.987317927181720733642578125" lon="-107.749991230666637420654296875">
        <ele>4008.199951171875</ele>
        <time>2026-08-15T16:49:39.000Z</time>
        <extensions>
          <ns3:TrackPointExtension>
            <ns3:hr>106</ns3:hr>
            <ns3:cad>0</ns3:cad>
          </ns3:TrackPointExtension>
        </extensions>
      </trkpt>
      <trkpt lat="37.987327985465526580810546875" lon="-107.74997346103191375732421875">
        <ele>4008.199951171875</ele>
        <time>2026-08-15T16:49:41.000Z</time>
        <extensions>
          <ns3:TrackPointExtension>
            <ns3:hr>107</ns3:hr>
            <ns3:cad>0</ns3:cad>
          </ns3:TrackPointExtension>
        </extensions>
      </trkpt>
      <trkpt lat="37.987350113689899444580078125" lon="-107.7499432861804962158203125">
        <ele>4008</ele>
        <time>2026-08-15T16:49:45.000Z</time>
        <extensions>
          <ns3:TrackPointExtension>
            <ns3:hr>108</ns3:hr>
            <ns3:cad>0</ns3:cad>
          </ns3:TrackPointExtension>
        </extensions>
      </trkpt>
      <trkpt lat="37.98738121055066585540771484375" lon="-107.74992115795612335205078125">
        <ele>4007.800048828125</ele>
        <time>2026-08-15T16:49:50.000Z</time>
        <extensions>
          <ns3:TrackPointExtension>
            <ns3:hr>107</ns3:hr>
            <ns3:cad>66</ns3:cad>
          </ns3:TrackPointExtension>
        </extensions>
      </trkpt>
      <trkpt lat="37.98737785778939723968505859375" lon="-107.7499136142432689666748046875">
        <ele>4007.800048828125</ele>
        <time>2026-08-15T16:49:52.000Z</time>
        <extensions>
          <ns3:TrackPointExtension>
            <ns3:hr>107</ns3:hr>
            <ns3:cad>0</ns3:cad>
          </ns3:TrackPointExtension>
        </extensions>
      </trkpt>
      <trkpt lat="37.98738338984549045562744140625" lon="-107.74989257566630840301513671875">
        <ele>4008</ele>
        <time>2026-08-15T16:49:54.000Z</time>
        <extensions>
          <ns3:TrackPointExtension>
            <ns3:hr>107</ns3:hr>
            <ns3:cad>0</ns3:cad>
          </ns3:TrackPointExtension>
        </extensions>
      </trkpt>
      <trkpt lat="37.98741859383881092071533203125" lon="-107.74984060786664485931396484375">
        <ele>4008.39990234375</ele>
        <time>2026-08-15T16:50:00.000Z</time>
        <extensions>
          <ns3:TrackPointExtension>
            <ns3:hr>109</ns3:hr>
            <ns3:cad>0</ns3:cad>
          </ns3:TrackPointExtension>
        </extensions>
      </trkpt>
      <trkpt lat="37.987423874437808990478515625" lon="-107.7498297952115535736083984375">
        <ele>4008.199951171875</ele>
        <time>2026-08-15T16:50:01.000Z</time>
        <extensions>
          <ns3:TrackPointExtension>
            <ns3:hr>109</ns3:hr>
            <ns3:cad>0</ns3:cad>
          </ns3:TrackPointExtension>
        </extensions>
      </trkpt>
      <trkpt lat="37.9874562285840511322021484375" lon="-107.74978059343993663787841796875">
        <ele>4007.39990234375</ele>
        <time>2026-08-15T16:50:07.000Z</time>
        <extensions>
          <ns3:TrackPointExtension>
            <ns3:hr>108</ns3:hr>
            <ns3:cad>63</ns3:cad>
          </ns3:TrackPointExtension>
        </extensions>
      </trkpt>
      <trkpt lat="37.98745949752628803253173828125" lon="-107.74977321736514568328857421875">
        <ele>4007.60009765625</ele>
        <time>2026-08-15T16:50:08.000Z</time>
        <extensions>
          <ns3:TrackPointExtension>
            <ns3:hr>108</ns3:hr>
            <ns3:cad>63</ns3:cad>
          </ns3:TrackPointExtension>
        </extensions>
      </trkpt>
      <trkpt lat="37.987490594387054443359375" lon="-107.74971999228000640869140625">
        <ele>4007.800048828125</ele>
        <time>2026-08-15T16:50:14.000Z</time>
        <extensions>
          <ns3:TrackPointExtension>
            <ns3:hr>109</ns3:hr>
            <ns3:cad>0</ns3:cad>
          </ns3:TrackPointExtension>
        </extensions>
      </trkpt>
      <trkpt lat="37.98749973066151142120361328125" lon="-107.749704904854297637939453125">
        <ele>4007.60009765625</ele>
        <time>2026-08-15T16:50:16.000Z</time>
        <extensions>
          <ns3:TrackPointExtension>
            <ns3:hr>109</ns3:hr>
            <ns3:cad>0</ns3:cad>
          </ns3:TrackPointExtension>
        </extensions>
      </trkpt>
      <trkpt lat="37.9875293187797069549560546875" lon="-107.74966173805296421051025390625">
        <ele>4009.199951171875</ele>
        <time>2026-08-15T16:50:22.000Z</time>
        <extensions>
          <ns3:TrackPointExtension>
            <ns3:hr>110</ns3:hr>
            <ns3:cad>0</ns3:cad>
          </ns3:TrackPointExtension>
        </extensions>
      </trkpt>
      <trkpt lat="37.98753359355032444000244140625" lon="-107.74965033866465091705322265625">
        <ele>4009.39990234375</ele>
        <time>2026-08-15T16:50:23.000Z</time>
        <extensions>
          <ns3:TrackPointExtension>
            <ns3:hr>109</ns3:hr>
            <ns3:cad>0</ns3:cad>
          </ns3:TrackPointExtension>
        </extensions>
      </trkpt>
      <trkpt lat="37.9875474236905574798583984375" lon="-107.7496155537664890289306640625">
        <ele>4008.199951171875</ele>
        <time>2026-08-15T16:50:28.000Z</time>
        <extensions>
          <ns3:TrackPointExtension>
            <ns3:hr>109</ns3:hr>
            <ns3:cad>0</ns3:cad>
          </ns3:TrackPointExtension>
        </extensions>
      </trkpt>
      <trkpt lat="37.98755027353763580322265625" lon="-107.7496106922626495361328125">
        <ele>4007.800048828125</ele>
        <time>2026-08-15T16:50:29.000Z</time>
        <extensions>
          <ns3:TrackPointExtension>
            <ns3:hr>109</ns3:hr>
            <ns3:cad>0</ns3:cad>
          </ns3:TrackPointExtension>
        </extensions>
      </trkpt>
      <trkpt lat="37.98758036457002162933349609375" lon="-107.74956534616649150848388671875">
        <ele>4008</ele>
        <time>2026-08-15T16:50:35.000Z</time>
        <extensions>
          <ns3:TrackPointExtension>
            <ns3:hr>110</ns3:hr>
            <ns3:cad>0</ns3:cad>
          </ns3:TrackPointExtension>
        </extensions>
      </trkpt>
      <trkpt lat="37.9875910095870494842529296875" lon="-107.74954003281891345977783203125">
        <ele>4007</ele>
        <time>2026-08-15T16:50:38.000Z</time>
        <extensions>
          <ns3:TrackPointExtension>
            <ns3:hr>109</ns3:hr>
            <ns3:cad>0</ns3:cad>
          </ns3:TrackPointExtension>
        </extensions>
      </trkpt>
      <trkpt lat="37.9875973798334598541259765625" lon="-107.7495119534432888031005859375">
        <ele>4006.199951171875</ele>
        <time>2026-08-15T16:50:41.000Z</time>
        <extensions>
          <ns3:TrackPointExtension>
            <ns3:hr>111</ns3:hr>
            <ns3:cad>0</ns3:cad>
          </ns3:TrackPointExtension>
        </extensions>
      </trkpt>
      <trkpt lat="37.9876054264605045318603515625" lon="-107.74948823265731334686279296875">
        <ele>4005.800048828125</ele>
        <time>2026-08-15T16:50:43.000Z</time>
        <extensions>
          <ns3:TrackPointExtension>
            <ns3:hr>111</ns3:hr>
            <ns3:cad>77</ns3:cad>
          </ns3:TrackPointExtension>
        </extensions>
      </trkpt>
      <trkpt lat="37.98760215751826763153076171875" lon="-107.74947130121290683746337890625">
        <ele>4005.800048828125</ele>
        <time>2026-08-15T16:50:44.000Z</time>
        <extensions>
          <ns3:TrackPointExtension>
            <ns3:hr>111</ns3:hr>
            <ns3:cad>77</ns3:cad>
          </ns3:TrackPointExtension>
        </extensions>
      </trkpt>
      <trkpt lat="37.98760886304080486297607421875" lon="-107.74944783188402652740478515625">
        <ele>4006</ele>
        <time>2026-08-15T16:50:46.000Z</time>
        <extensions>
          <ns3:TrackPointExtension>
            <ns3:hr>111</ns3:hr>
            <ns3:cad>0</ns3:cad>
          </ns3:TrackPointExtension>
        </extensions>
      </trkpt>
      <trkpt lat="37.98762311227619647979736328125" lon="-107.7493912540376186370849609375">
        <ele>4005.800048828125</ele>
        <time>2026-08-15T16:50:52.000Z</time>
        <extensions>
          <ns3:TrackPointExtension>
            <ns3:hr>110</ns3:hr>
            <ns3:cad>0</ns3:cad>
          </ns3:TrackPointExtension>
        </extensions>
      </trkpt>
      <trkpt lat="37.987645156681537628173828125" lon="-107.7493362687528133392333984375">
        <ele>4006</ele>
        <time>2026-08-15T16:50:58.000Z</time>
        <extensions>
          <ns3:TrackPointExtension>
            <ns3:hr>109</ns3:hr>
            <ns3:cad>52</ns3:cad>
          </ns3:TrackPointExtension>
        </extensions>
      </trkpt>
      <trkpt lat="37.9876651056110858917236328125" lon="-107.74930265732109546661376953125">
        <ele>4006</ele>
        <time>2026-08-15T16:51:03.000Z</time>
        <extensions>
          <ns3:TrackPointExtension>
            <ns3:hr>107</ns3:hr>
            <ns3:cad>0</ns3:cad>
          </ns3:TrackPointExtension>
        </extensions>
      </trkpt>
      <trkpt lat="37.987678349018096923828125" lon="-107.749273069202899932861328125">
        <ele>4006</ele>
        <time>2026-08-15T16:51:08.000Z</time>
        <extensions>
          <ns3:TrackPointExtension>
            <ns3:hr>104</ns3:hr>
            <ns3:cad>20</ns3:cad>
          </ns3:TrackPointExtension>
        </extensions>
      </trkpt>
      <trkpt lat="37.9876805283129215240478515625" lon="-107.749271392822265625">
        <ele>4006</ele>
        <time>2026-08-15T16:51:09.000Z</time>
        <extensions>
          <ns3:TrackPointExtension>
            <ns3:hr>104</ns3:hr>
            <ns3:cad>0</ns3:cad>
          </ns3:TrackPointExtension>
        </extensions>
      </trkpt>
      <trkpt lat="37.9876919277012348175048828125" lon="-107.74921883828938007354736328125">
        <ele>4006.800048828125</ele>
        <time>2026-08-15T16:51:15.000Z</time>
        <extensions>
          <ns3:TrackPointExtension>
            <ns3:hr>103</ns3:hr>
            <ns3:cad>0</ns3:cad>
          </ns3:TrackPointExtension>
        </extensions>
      </trkpt>
      <trkpt lat="37.987694442272186279296875" lon="-107.7492081932723522186279296875">
        <ele>4007</ele>
        <time>2026-08-15T16:51:16.000Z</time>
        <extensions>
          <ns3:TrackPointExtension>
            <ns3:hr>104</ns3:hr>
            <ns3:cad>0</ns3:cad>
          </ns3:TrackPointExtension>
        </extensions>
      </trkpt>
      <trkpt lat="37.98771246336400508880615234375" lon="-107.7491431497037410736083984375">
        <ele>4007</ele>
        <time>2026-08-15T16:51:22.000Z</time>
        <extensions>
          <ns3:TrackPointExtension>
            <ns3:hr>106</ns3:hr>
            <ns3:cad>0</ns3:cad>
          </ns3:TrackPointExtension>
        </extensions>
      </trkpt>
      <trkpt lat="37.98771313391625881195068359375" lon="-107.74913719855248928070068359375">
        <ele>4006.800048828125</ele>
        <time>2026-08-15T16:51:23.000Z</time>
        <extensions>
          <ns3:TrackPointExtension>
            <ns3:hr>106</ns3:hr>
            <ns3:cad>0</ns3:cad>
          </ns3:TrackPointExtension>
        </extensions>
      </trkpt>
      <trkpt lat="37.987727634608745574951171875" lon="-107.74910484440624713897705078125">
        <ele>4006.39990234375</ele>
        <time>2026-08-15T16:51:29.000Z</time>
        <extensions>
          <ns3:TrackPointExtension>
            <ns3:hr>106</ns3:hr>
            <ns3:cad>0</ns3:cad>
          </ns3:TrackPointExtension>
        </extensions>
      </trkpt>
      <trkpt lat="37.9877351783215999603271484375" lon="-107.74907416664063930511474609375">
        <ele>4006.800048828125</ele>
        <time>2026-08-15T16:51:35.000Z</time>
        <extensions>
          <ns3:TrackPointExtension>
            <ns3:hr>105</ns3:hr>
            <ns3:cad>0</ns3:cad>
          </ns3:TrackPointExtension>
        </extensions>
      </trkpt>
      <trkpt lat="37.98773710615932941436767578125" lon="-107.749063856899738311767578125">
        <ele>4006.60009765625</ele>
        <time>2026-08-15T16:51:36.000Z</time>
        <extensions>
          <ns3:TrackPointExtension>
            <ns3:hr>105</ns3:hr>
            <ns3:cad>0</ns3:cad>
          </ns3:TrackPointExtension>
        </extensions>
      </trkpt>
      <trkpt lat="37.98773341812193393707275390625" lon="-107.74904114194214344024658203125">
        <ele>4005.800048828125</ele>
        <time>2026-08-15T16:51:39.000Z</time>
        <extensions>
          <ns3:TrackPointExtension>
            <ns3:hr>105</ns3:hr>
            <ns3:cad>0</ns3:cad>
          </ns3:TrackPointExtension>
        </extensions>
      </trkpt>
      <trkpt lat="37.987723611295223236083984375" lon="-107.74902706034481525421142578125">
        <ele>4005.39990234375</ele>
        <time>2026-08-15T16:51:42.000Z</time>
        <extensions>
          <ns3:TrackPointExtension>
            <ns3:hr>105</ns3:hr>
            <ns3:cad>0</ns3:cad>
          </ns3:TrackPointExtension>
        </extensions>
      </trkpt>
      <trkpt lat="37.987717576324939727783203125" lon="-107.74899713695049285888671875">
        <ele>4005</ele>
        <time>2026-08-15T16:51:48.000Z</time>
        <extensions>
          <ns3:TrackPointExtension>
            <ns3:hr>106</ns3:hr>
            <ns3:cad>0</ns3:cad>
          </ns3:TrackPointExtension>
        </extensions>
      </trkpt>
      <trkpt lat="37.9877065122127532958984375" lon="-107.748945169150829315185546875">
        <ele>4005.199951171875</ele>
        <time>2026-08-15T16:51:53.000Z</time>
        <extensions>
          <ns3:TrackPointExtension>
            <ns3:hr>107</ns3:hr>
            <ns3:cad>0</ns3:cad>
          </ns3:TrackPointExtension>
        </extensions>
      </trkpt>
      <trkpt lat="37.98768497072160243988037109375" lon="-107.748886160552501678466796875">
        <ele>4005.199951171875</ele>
        <time>2026-08-15T16:51:59.000Z</time>
        <extensions>
          <ns3:TrackPointExtension>
            <ns3:hr>108</ns3:hr>
            <ns3:cad>0</ns3:cad>
          </ns3:TrackPointExtension>
        </extensions>
      </trkpt>
      <trkpt lat="37.98767893575131893157958984375" lon="-107.748872749507427215576171875">
        <ele>4005</ele>
        <time>2026-08-15T16:52:00.000Z</time>
        <extensions>
          <ns3:TrackPointExtension>
            <ns3:hr>108</ns3:hr>
            <ns3:cad>0</ns3:cad>
          </ns3:TrackPointExtension>
        </extensions>
      </trkpt>
      <trkpt lat="37.98767642118036746978759765625" lon="-107.74885900318622589111328125">
        <ele>4004.800048828125</ele>
        <time>2026-08-15T16:52:01.000Z</time>
        <extensions>
          <ns3:TrackPointExtension>
            <ns3:hr>108</ns3:hr>
            <ns3:cad>0</ns3:cad>
          </ns3:TrackPointExtension>
        </extensions>
      </trkpt>
      <trkpt lat="37.98766753636300563812255859375" lon="-107.7487867511808872222900390625">
        <ele>4005</ele>
        <time>2026-08-15T16:52:06.000Z</time>
        <extensions>
          <ns3:TrackPointExtension>
            <ns3:hr>109</ns3:hr>
            <ns3:cad>0</ns3:cad>
          </ns3:TrackPointExtension>
        </extensions>
      </trkpt>
      <trkpt lat="37.98766233958303928375244140625" lon="-107.74874056689441204071044921875">
        <ele>4005.199951171875</ele>
        <time>2026-08-15T16:52:12.000Z</time>
        <extensions>
          <ns3:TrackPointExtension>
            <ns3:hr>110</ns3:hr>
            <ns3:cad>0</ns3:cad>
          </ns3:TrackPointExtension>
        </extensions>
      </trkpt>
      <trkpt lat="37.987663261592388153076171875" lon="-107.74870703928172588348388671875">
        <ele>4005.800048828125</ele>
        <time>2026-08-15T16:52:15.000Z</time>
        <extensions>
          <ns3:TrackPointExtension>
            <ns3:hr>107</ns3:hr>
            <ns3:cad>0</ns3:cad>
          </ns3:TrackPointExtension>
        </extensions>
      </trkpt>
      <trkpt lat="37.98765379004180431365966796875" lon="-107.748677618801593780517578125">
        <ele>4006.199951171875</ele>
        <time>2026-08-15T16:52:18.000Z</time>
        <extensions>
          <ns3:TrackPointExtension>
            <ns3:hr>105</ns3:hr>
            <ns3:cad>0</ns3:cad>
          </ns3:TrackPointExtension>
        </extensions>
      </trkpt>
      <trkpt lat="37.98765311948955059051513671875" lon="-107.74861249141395092010498046875">
        <ele>4006.60009765625</ele>
        <time>2026-08-15T16:52:24.000Z</time>
        <extensions>
          <ns3:TrackPointExtension>
            <ns3:hr>105</ns3:hr>
            <ns3:cad>55</ns3:cad>
          </ns3:TrackPointExtension>
        </extensions>
      </trkpt>
      <trkpt lat="37.98765060491859912872314453125" lon="-107.74859882891178131103515625">
        <ele>4006.60009765625</ele>
        <time>2026-08-15T16:52:25.000Z</time>
        <extensions>
          <ns3:TrackPointExtension>
            <ns3:hr>105</ns3:hr>
            <ns3:cad>55</ns3:cad>
          </ns3:TrackPointExtension>
        </extensions>
      </trkpt>
      <trkpt lat="37.98766351304948329925537109375" lon="-107.7485386468470096588134765625">
        <ele>4005.800048828125</ele>
        <time>2026-08-15T16:52:31.000Z</time>
        <extensions>
          <ns3:TrackPointExtension>
            <ns3:hr>108</ns3:hr>
            <ns3:cad>74</ns3:cad>
          </ns3:TrackPointExtension>
        </extensions>
      </trkpt>
      <trkpt lat="37.9876671172678470611572265625" lon="-107.7485342882573604583740234375">
        <ele>4005.60009765625</ele>
        <time>2026-08-15T16:52:32.000Z</time>
        <extensions>
          <ns3:TrackPointExtension>
            <ns3:hr>108</ns3:hr>
            <ns3:cad>73</ns3:cad>
          </ns3:TrackPointExtension>
        </extensions>
      </trkpt>
      <trkpt lat="37.98767725937068462371826171875" lon="-107.7484893612563610076904296875">
        <ele>4004.60009765625</ele>
        <time>2026-08-15T16:52:38.000Z</time>
        <extensions>
          <ns3:TrackPointExtension>
            <ns3:hr>107</ns3:hr>
            <ns3:cad>0</ns3:cad>
          </ns3:TrackPointExtension>
        </extensions>
      </trkpt>
      <trkpt lat="37.98769737593829631805419921875" lon="-107.748466394841670989990234375">
        <ele>4004</ele>
        <time>2026-08-15T16:52:41.000Z</time>
        <extensions>
          <ns3:TrackPointExtension>
            <ns3:hr>105</ns3:hr>
            <ns3:cad>0</ns3:cad>
          </ns3:TrackPointExtension>
        </extensions>
      </trkpt>
      <trkpt lat="37.98770961351692676544189453125" lon="-107.74844787083566188812255859375">
        <ele>4004</ele>
        <time>2026-08-15T16:52:43.000Z</time>
        <extensions>
          <ns3:TrackPointExtension>
            <ns3:hr>101</ns3:hr>
            <ns3:cad>0</ns3:cad>
          </ns3:TrackPointExtension>
        </extensions>
      </trkpt>
      <trkpt lat="37.98773475922644138336181640625" lon="-107.748418785631656646728515625">
        <ele>4004.199951171875</ele>
        <time>2026-08-15T16:52:47.000Z</time>
        <extensions>
          <ns3:TrackPointExtension>
            <ns3:hr>100</ns3:hr>
            <ns3:cad>0</ns3:cad>
          </ns3:TrackPointExtension>
        </extensions>
      </trkpt>
      <trkpt lat="37.98775814473628997802734375" lon="-107.74839908815920352935791015625">
        <ele>4003.39990234375</ele>
        <time>2026-08-15T16:52:51.000Z</time>
        <extensions>
          <ns3:TrackPointExtension>
            <ns3:hr>104</ns3:hr>
            <ns3:cad>0</ns3:cad>
          </ns3:TrackPointExtension>
        </extensions>
      </trkpt>
      <trkpt lat="37.98776761628687381744384765625" lon="-107.74839363992214202880859375">
        <ele>4003.39990234375</ele>
        <time>2026-08-15T16:52:53.000Z</time>
        <extensions>
          <ns3:TrackPointExtension>
            <ns3:hr>107</ns3:hr>
            <ns3:cad>0</ns3:cad>
          </ns3:TrackPointExtension>
        </extensions>
      </trkpt>
      <trkpt lat="37.9877834580838680267333984375" lon="-107.7483790554106235504150390625">
        <ele>4003.39990234375</ele>
        <time>2026-08-15T16:52:56.000Z</time>
        <extensions>
          <ns3:TrackPointExtension>
            <ns3:hr>110</ns3:hr>
            <ns3:cad>0</ns3:cad>
          </ns3:TrackPointExtension>
        </extensions>
      </trkpt>
      <trkpt lat="37.98778572119772434234619140625" lon="-107.74837327189743518829345703125">
        <ele>4003.39990234375</ele>
        <time>2026-08-15T16:52:57.000Z</time>
        <extensions>
          <ns3:TrackPointExtension>
            <ns3:hr>110</ns3:hr>
            <ns3:cad>0</ns3:cad>
          </ns3:TrackPointExtension>
        </extensions>
      </trkpt>
      <trkpt lat="37.98778924159705638885498046875" lon="-107.74836950004100799560546875">
        <ele>4003.60009765625</ele>
        <time>2026-08-15T16:53:03.000Z</time>
        <extensions>
          <ns3:TrackPointExtension>
            <ns3:hr>106</ns3:hr>
            <ns3:cad>0</ns3:cad>
          </ns3:TrackPointExtension>
        </extensions>
      </trkpt>
      <trkpt lat="37.98779209144413471221923828125" lon="-107.74836413562297821044921875">
        <ele>4003.199951171875</ele>
        <time>2026-08-15T16:53:05.000Z</time>
        <extensions>
          <ns3:TrackPointExtension>
            <ns3:hr>106</ns3:hr>
            <ns3:cad>0</ns3:cad>
          </ns3:TrackPointExtension>
        </extensions>
      </trkpt>
      <trkpt lat="37.9877978749573230743408203125" lon="-107.748336307704448699951171875">
        <ele>4003.39990234375</ele>
        <time>2026-08-15T16:53:11.000Z</time>
        <extensions>
          <ns3:TrackPointExtension>
            <ns3:hr>108</ns3:hr>
            <ns3:cad>0</ns3:cad>
          </ns3:TrackPointExtension>
        </extensions>
      </trkpt>
      <trkpt lat="37.98779795877635478973388671875" lon="-107.74833597242832183837890625">
        <ele>4003.800048828125</ele>
        <time>2026-08-15T16:53:17.000Z</time>
        <extensions>
          <ns3:TrackPointExtension>
            <ns3:hr>109</ns3:hr>
            <ns3:cad>0</ns3:cad>
          </ns3:TrackPointExtension>
        </extensions>
      </trkpt>
      <trkpt lat="37.98779795877635478973388671875" lon="-107.74833597242832183837890625">
        <ele>4003.800048828125</ele>
        <time>2026-08-15T16:53:18.000Z</time>
        <extensions>
          <ns3:TrackPointExtension>
            <ns3:hr>109</ns3:hr>
            <ns3:cad>0</ns3:cad>
          </ns3:TrackPointExtension>
        </extensions>
      </trkpt>
      <trkpt lat="37.98781170509755611419677734375" lon="-107.74831878952682018280029296875">
        <ele>4004.199951171875</ele>
        <time>2026-08-15T16:53:24.000Z</time>
        <extensions>
          <ns3:TrackPointExtension>
            <ns3:hr>111</ns3:hr>
            <ns3:cad>0</ns3:cad>
          </ns3:TrackPointExtension>
        </extensions>
      </trkpt>
      <trkpt lat="37.98782142810523509979248046875" lon="-107.74830051697790622711181640625">
        <ele>4004</ele>
        <time>2026-08-15T16:53:26.000Z</time>
        <extensions>
          <ns3:TrackPointExtension>
            <ns3:hr>113</ns3:hr>
            <ns3:cad>0</ns3:cad>
          </ns3:TrackPointExtension>
        </extensions>
      </trkpt>
      <trkpt lat="37.9878354258835315704345703125" lon="-107.748237065970897674560546875">
        <ele>4003.199951171875</ele>
        <time>2026-08-15T16:53:32.000Z</time>
        <extensions>
          <ns3:TrackPointExtension>
            <ns3:hr>118</ns3:hr>
            <ns3:cad>0</ns3:cad>
          </ns3:TrackPointExtension>
        </extensions>
      </trkpt>
      <trkpt lat="37.9878391139209270477294921875" lon="-107.748228013515472412109375">
        <ele>4003.39990234375</ele>
        <time>2026-08-15T16:53:33.000Z</time>
        <extensions>
          <ns3:TrackPointExtension>
            <ns3:hr>120</ns3:hr>
            <ns3:cad>0</ns3:cad>
          </ns3:TrackPointExtension>
        </extensions>
      </trkpt>
      <trkpt lat="37.9878411255776882171630859375" lon="-107.7482167817652225494384765625">
        <ele>4003.60009765625</ele>
        <time>2026-08-15T16:53:34.000Z</time>
        <extensions>
          <ns3:TrackPointExtension>
            <ns3:hr>123</ns3:hr>
            <ns3:cad>0</ns3:cad>
          </ns3:TrackPointExtension>
        </extensions>
      </trkpt>
      <trkpt lat="37.9878593981266021728515625" lon="-107.7482016943395137786865234375">
        <ele>4003.800048828125</ele>
        <time>2026-08-15T16:53:36.000Z</time>
        <extensions>
          <ns3:TrackPointExtension>
            <ns3:hr>126</ns3:hr>
            <ns3:cad>0</ns3:cad>
          </ns3:TrackPointExtension>
        </extensions>
      </trkpt>
      <trkpt lat="37.98786669038236141204833984375" lon="-107.748178727924823760986328125">
        <ele>4004</ele>
        <time>2026-08-15T16:53:39.000Z</time>
        <extensions>
          <ns3:TrackPointExtension>
            <ns3:hr>127</ns3:hr>
            <ns3:cad>0</ns3:cad>
          </ns3:TrackPointExtension>
        </extensions>
      </trkpt>
      <trkpt lat="37.98789368011057376861572265625" lon="-107.74812810122966766357421875">
        <ele>4004</ele>
        <time>2026-08-15T16:53:45.000Z</time>
        <extensions>
          <ns3:TrackPointExtension>
            <ns3:hr>126</ns3:hr>
            <ns3:cad>0</ns3:cad>
          </ns3:TrackPointExtension>
        </extensions>
      </trkpt>
      <trkpt lat="37.98792301677167415618896484375" lon="-107.74807169102132320404052734375">
        <ele>4004.39990234375</ele>
        <time>2026-08-15T16:53:51.000Z</time>
        <extensions>
          <ns3:TrackPointExtension>
            <ns3:hr>126</ns3:hr>
            <ns3:cad>0</ns3:cad>
          </ns3:TrackPointExtension>
        </extensions>
      </trkpt>
      <trkpt lat="37.9879470728337764739990234375" lon="-107.74803715758025646209716796875">
        <ele>4004.39990234375</ele>
        <time>2026-08-15T16:53:55.000Z</time>
        <extensions>
          <ns3:TrackPointExtension>
            <ns3:hr>126</ns3:hr>
            <ns3:cad>0</ns3:cad>
          </ns3:TrackPointExtension>
        </extensions>
      </trkpt>
      <trkpt lat="37.98795972950756549835205078125" lon="-107.7480253390967845916748046875">
        <ele>4004.60009765625</ele>
        <time>2026-08-15T16:53:56.000Z</time>
        <extensions>
          <ns3:TrackPointExtension>
            <ns3:hr>125</ns3:hr>
            <ns3:cad>0</ns3:cad>
          </ns3:TrackPointExtension>
        </extensions>
      </trkpt>
      <trkpt lat="37.98796542920172214508056640625" lon="-107.7480156160891056060791015625">
        <ele>4004.60009765625</ele>
        <time>2026-08-15T16:53:57.000Z</time>
        <extensions>
          <ns3:TrackPointExtension>
            <ns3:hr>125</ns3:hr>
            <ns3:cad>0</ns3:cad>
          </ns3:TrackPointExtension>
        </extensions>
      </trkpt>
      <trkpt lat="37.9879852943122386932373046875" lon="-107.74796775542199611663818359375">
        <ele>4005.199951171875</ele>
        <time>2026-08-15T16:54:03.000Z</time>
        <extensions>
          <ns3:TrackPointExtension>
            <ns3:hr>124</ns3:hr>
            <ns3:cad>0</ns3:cad>
          </ns3:TrackPointExtension>
        </extensions>
      </trkpt>
      <trkpt lat="37.987982444465160369873046875" lon="-107.74795711040496826171875">
        <ele>4005.199951171875</ele>
        <time>2026-08-15T16:54:04.000Z</time>
        <extensions>
          <ns3:TrackPointExtension>
            <ns3:hr>124</ns3:hr>
            <ns3:cad>59</ns3:cad>
          </ns3:TrackPointExtension>
        </extensions>
      </trkpt>
      <trkpt lat="37.98799292184412479400634765625" lon="-107.7479136921465396881103515625">
        <ele>4004</ele>
        <time>2026-08-15T16:54:10.000Z</time>
        <extensions>
          <ns3:TrackPointExtension>
            <ns3:hr>122</ns3:hr>
            <ns3:cad>0</ns3:cad>
          </ns3:TrackPointExtension>
        </extensions>
      </trkpt>
      <trkpt lat="37.9880117811262607574462890625" lon="-107.7478873729705810546875">
        <ele>4003.800048828125</ele>
        <time>2026-08-15T16:54:13.000Z</time>
        <extensions>
          <ns3:TrackPointExtension>
            <ns3:hr>119</ns3:hr>
            <ns3:cad>0</ns3:cad>
          </ns3:TrackPointExtension>
        </extensions>
      </trkpt>
      <trkpt lat="37.98801521770656108856201171875" lon="-107.74787991307675838470458984375">
        <ele>4003.39990234375</ele>
        <time>2026-08-15T16:54:14.000Z</time>
        <extensions>
          <ns3:TrackPointExtension>
            <ns3:hr>117</ns3:hr>
            <ns3:cad>0</ns3:cad>
          </ns3:TrackPointExtension>
        </extensions>
      </trkpt>
      <trkpt lat="37.9880218394100666046142578125" lon="-107.74786482565104961395263671875">
        <ele>4003.199951171875</ele>
        <time>2026-08-15T16:54:15.000Z</time>
        <extensions>
          <ns3:TrackPointExtension>
            <ns3:hr>116</ns3:hr>
            <ns3:cad>0</ns3:cad>
          </ns3:TrackPointExtension>
        </extensions>
      </trkpt>
      <trkpt lat="37.98804354853928089141845703125" lon="-107.74783247150480747222900390625">
        <ele>4003.199951171875</ele>
        <time>2026-08-15T16:54:21.000Z</time>
        <extensions>
          <ns3:TrackPointExtension>
            <ns3:hr>114</ns3:hr>
            <ns3:cad>0</ns3:cad>
          </ns3:TrackPointExtension>
        </extensions>
      </trkpt>
      <trkpt lat="37.988060228526592254638671875" lon="-107.747796513140201568603515625">
        <ele>4003.199951171875</ele>
        <time>2026-08-15T16:54:27.000Z</time>
        <extensions>
          <ns3:TrackPointExtension>
            <ns3:hr>114</ns3:hr>
            <ns3:cad>0</ns3:cad>
          </ns3:TrackPointExtension>
        </extensions>
      </trkpt>
      <trkpt lat="37.9880691133439540863037109375" lon="-107.74776407517492771148681640625">
        <ele>4002.39990234375</ele>
        <time>2026-08-15T16:54:30.000Z</time>
        <extensions>
          <ns3:TrackPointExtension>
            <ns3:hr>114</ns3:hr>
            <ns3:cad>0</ns3:cad>
          </ns3:TrackPointExtension>
        </extensions>
      </trkpt>
      <trkpt lat="37.98806701786816120147705078125" lon="-107.74772903881967067718505859375">
        <ele>4002.39990234375</ele>
        <time>2026-08-15T16:54:32.000Z</time>
        <extensions>
          <ns3:TrackPointExtension>
            <ns3:hr>114</ns3:hr>
            <ns3:cad>0</ns3:cad>
          </ns3:TrackPointExtension>
        </extensions>
      </trkpt>
      <trkpt lat="37.98807405866682529449462890625" lon="-107.74767816066741943359375">
        <ele>4002.199951171875</ele>
        <time>2026-08-15T16:54:38.000Z</time>
        <extensions>
          <ns3:TrackPointExtension>
            <ns3:hr>112</ns3:hr>
            <ns3:cad>0</ns3:cad>
          </ns3:TrackPointExtension>
        </extensions>
      </trkpt>
      <trkpt lat="37.98807556740939617156982421875" lon="-107.7476213313639163970947265625">
        <ele>4001.800048828125</ele>
        <time>2026-08-15T16:54:44.000Z</time>
        <extensions>
          <ns3:TrackPointExtension>
            <ns3:hr>110</ns3:hr>
            <ns3:cad>0</ns3:cad>
          </ns3:TrackPointExtension>
        </extensions>
      </trkpt>
      <trkpt lat="37.9880766570568084716796875" lon="-107.7476099319756031036376953125">
        <ele>4001.800048828125</ele>
        <time>2026-08-15T16:54:45.000Z</time>
        <extensions>
          <ns3:TrackPointExtension>
            <ns3:hr>110</ns3:hr>
            <ns3:cad>0</ns3:cad>
          </ns3:TrackPointExtension>
        </extensions>
      </trkpt>
      <trkpt lat="37.98807707615196704864501953125" lon="-107.7475861273705959320068359375">
        <ele>4001.39990234375</ele>
        <time>2026-08-15T16:54:48.000Z</time>
        <extensions>
          <ns3:TrackPointExtension>
            <ns3:hr>110</ns3:hr>
            <ns3:cad>57</ns3:cad>
          </ns3:TrackPointExtension>
        </extensions>
      </trkpt>
      <trkpt lat="37.988086044788360595703125" lon="-107.7475695312023162841796875">
        <ele>4001.199951171875</ele>
        <time>2026-08-15T16:54:50.000Z</time>
        <extensions>
          <ns3:TrackPointExtension>
            <ns3:hr>111</ns3:hr>
            <ns3:cad>57</ns3:cad>
          </ns3:TrackPointExtension>
        </extensions>
      </trkpt>
      <trkpt lat="37.98810188658535480499267578125" lon="-107.74751915596425533294677734375">
        <ele>4001.39990234375</ele>
        <time>2026-08-15T16:54:55.000Z</time>
        <extensions>
          <ns3:TrackPointExtension>
            <ns3:hr>110</ns3:hr>
            <ns3:cad>0</ns3:cad>
          </ns3:TrackPointExtension>
        </extensions>
      </trkpt>
      <trkpt lat="37.98813901841640472412109375" lon="-107.74747339077293872833251953125">
        <ele>4001.39990234375</ele>
        <time>2026-08-15T16:55:01.000Z</time>
        <extensions>
          <ns3:TrackPointExtension>
            <ns3:hr>112</ns3:hr>
            <ns3:cad>56</ns3:cad>
          </ns3:TrackPointExtension>
        </extensions>
      </trkpt>
      <trkpt lat="37.98813843168318271636962890625" lon="-107.7474640868604183197021484375">
        <ele>4001.39990234375</ele>
        <time>2026-08-15T16:55:07.000Z</time>
        <extensions>
          <ns3:TrackPointExtension>
            <ns3:hr>108</ns3:hr>
            <ns3:cad>0</ns3:cad>
          </ns3:TrackPointExtension>
        </extensions>
      </trkpt>
      <trkpt lat="37.98813792876899242401123046875" lon="-107.74746350012719631195068359375">
        <ele>4001.199951171875</ele>
        <time>2026-08-15T16:55:08.000Z</time>
        <extensions>
          <ns3:TrackPointExtension>
            <ns3:hr>104</ns3:hr>
            <ns3:cad>0</ns3:cad>
          </ns3:TrackPointExtension>
        </extensions>
      </trkpt>
      <trkpt lat="37.98813792876899242401123046875" lon="-107.74746350012719631195068359375">
        <ele>4001</ele>
        <time>2026-08-15T16:55:09.000Z</time>
        <extensions>
          <ns3:TrackPointExtension>
            <ns3:hr>102</ns3:hr>
            <ns3:cad>0</ns3:cad>
          </ns3:TrackPointExtension>
        </extensions>
      </trkpt>
      <trkpt lat="37.98814044333994388580322265625" lon="-107.7474593929946422576904296875">
        <ele>4001</ele>
        <time>2026-08-15T16:55:13.000Z</time>
        <extensions>
          <ns3:TrackPointExtension>
            <ns3:hr>99</ns3:hr>
            <ns3:cad>0</ns3:cad>
          </ns3:TrackPointExtension>
        </extensions>
      </trkpt>
      <trkpt lat="37.988146729767322540283203125" lon="-107.7474449761211872100830078125">
        <ele>4001</ele>
        <time>2026-08-15T16:55:15.000Z</time>
        <extensions>
          <ns3:TrackPointExtension>
            <ns3:hr>99</ns3:hr>
            <ns3:cad>0</ns3:cad>
          </ns3:TrackPointExtension>
        </extensions>
      </trkpt>
      <trkpt lat="37.9881624877452850341796875" lon="-107.7474158070981502532958984375">
        <ele>4000.39990234375</ele>
        <time>2026-08-15T16:55:18.000Z</time>
        <extensions>
          <ns3:TrackPointExtension>
            <ns3:hr>99</ns3:hr>
            <ns3:cad>0</ns3:cad>
          </ns3:TrackPointExtension>
        </extensions>
      </trkpt>
      <trkpt lat="37.98817246221005916595458984375" lon="-107.747398205101490020751953125">
        <ele>4000.199951171875</ele>
        <time>2026-08-15T16:55:21.000Z</time>
        <extensions>
          <ns3:TrackPointExtension>
            <ns3:hr>100</ns3:hr>
            <ns3:cad>0</ns3:cad>
          </ns3:TrackPointExtension>
        </extensions>
      </trkpt>
      <trkpt lat="37.98818838782608509063720703125" lon="-107.747353613376617431640625">
        <ele>3999.199951171875</ele>
        <time>2026-08-15T16:55:26.000Z</time>
        <extensions>
          <ns3:TrackPointExtension>
            <ns3:hr>103</ns3:hr>
            <ns3:cad>0</ns3:cad>
          </ns3:TrackPointExtension>
        </extensions>
      </trkpt>
      <trkpt lat="37.98819375224411487579345703125" lon="-107.747340537607669830322265625">
        <ele>3999</ele>
        <time>2026-08-15T16:55:27.000Z</time>
        <extensions>
          <ns3:TrackPointExtension>
            <ns3:hr>103</ns3:hr>
            <ns3:cad>0</ns3:cad>
          </ns3:TrackPointExtension>
        </extensions>
      </trkpt>
      <trkpt lat="37.988209091126918792724609375" lon="-107.74730055592954158782958984375">
        <ele>3998.60009765625</ele>
        <time>2026-08-15T16:55:32.000Z</time>
        <extensions>
          <ns3:TrackPointExtension>
            <ns3:hr>106</ns3:hr>
            <ns3:cad>0</ns3:cad>
          </ns3:TrackPointExtension>
        </extensions>
      </trkpt>
      <trkpt lat="37.9882102645933628082275390625" lon="-107.74728245101869106292724609375">
        <ele>3998.800048828125</ele>
        <time>2026-08-15T16:55:34.000Z</time>
        <extensions>
          <ns3:TrackPointExtension>
            <ns3:hr>106</ns3:hr>
            <ns3:cad>0</ns3:cad>
          </ns3:TrackPointExtension>
        </extensions>
      </trkpt>
      <trkpt lat="37.98821520991623401641845703125" lon="-107.74724590592086315155029296875">
        <ele>3998.39990234375</ele>
        <time>2026-08-15T16:55:40.000Z</time>
        <extensions>
          <ns3:TrackPointExtension>
            <ns3:hr>108</ns3:hr>
            <ns3:cad>0</ns3:cad>
          </ns3:TrackPointExtension>
        </extensions>
      </trkpt>
      <trkpt lat="37.98821671865880489349365234375" lon="-107.74723752401769161224365234375">
        <ele>3998.199951171875</ele>
        <time>2026-08-15T16:55:42.000Z</time>
        <extensions>
          <ns3:TrackPointExtension>
            <ns3:hr>109</ns3:hr>
            <ns3:cad>0</ns3:cad>
          </ns3:TrackPointExtension>
        </extensions>
      </trkpt>
      <trkpt lat="37.9882451333105564117431640625" lon="-107.74721070192754268646240234375">
        <ele>3998.39990234375</ele>
        <time>2026-08-15T16:55:48.000Z</time>
        <extensions>
          <ns3:TrackPointExtension>
            <ns3:hr>111</ns3:hr>
            <ns3:cad>0</ns3:cad>
          </ns3:TrackPointExtension>
        </extensions>
      </trkpt>
      <trkpt lat="37.98825209029018878936767578125" lon="-107.74720500223338603973388671875">
        <ele>3998.39990234375</ele>
        <time>2026-08-15T16:55:49.000Z</time>
        <extensions>
          <ns3:TrackPointExtension>
            <ns3:hr>110</ns3:hr>
            <ns3:cad>0</ns3:cad>
          </ns3:TrackPointExtension>
        </extensions>
      </trkpt>
      <trkpt lat="37.988274805247783660888671875" lon="-107.7471591532230377197265625">
        <ele>3999.39990234375</ele>
        <time>2026-08-15T16:55:54.000Z</time>
        <extensions>
          <ns3:TrackPointExtension>
            <ns3:hr>107</ns3:hr>
            <ns3:cad>0</ns3:cad>
          </ns3:TrackPointExtension>
        </extensions>
      </trkpt>
      <trkpt lat="37.98827740363776683807373046875" lon="-107.74715102277696132659912109375">
        <ele>3999.800048828125</ele>
        <time>2026-08-15T16:55:55.000Z</time>
        <extensions>
          <ns3:TrackPointExtension>
            <ns3:hr>108</ns3:hr>
            <ns3:cad>0</ns3:cad>
          </ns3:TrackPointExtension>
        </extensions>
      </trkpt>
      <trkpt lat="37.9883074946701526641845703125" lon="-107.74708447046577930450439453125">
        <ele>3999.60009765625</ele>
        <time>2026-08-15T16:56:01.000Z</time>
        <extensions>
          <ns3:TrackPointExtension>
            <ns3:hr>108</ns3:hr>
            <ns3:cad>0</ns3:cad>
          </ns3:TrackPointExtension>
        </extensions>
      </trkpt>
      <trkpt lat="37.988335825502872467041015625" lon="-107.74703434668481349945068359375">
        <ele>3998.800048828125</ele>
        <time>2026-08-15T16:56:06.000Z</time>
        <extensions>
          <ns3:TrackPointExtension>
            <ns3:hr>107</ns3:hr>
            <ns3:cad>68</ns3:cad>
          </ns3:TrackPointExtension>
        </extensions>
      </trkpt>
      <trkpt lat="37.98834345303475856781005859375" lon="-107.747018001973628997802734375">
        <ele>3998.60009765625</ele>
        <time>2026-08-15T16:56:08.000Z</time>
        <extensions>
          <ns3:TrackPointExtension>
            <ns3:hr>111</ns3:hr>
            <ns3:cad>0</ns3:cad>
          </ns3:TrackPointExtension>
        </extensions>
      </trkpt>
      <trkpt lat="37.9883447103202342987060546875" lon="-107.74698036722838878631591796875">
        <ele>3998.800048828125</ele>
        <time>2026-08-15T16:56:12.000Z</time>
        <extensions>
          <ns3:TrackPointExtension>
            <ns3:hr>113</ns3:hr>
            <ns3:cad>54</ns3:cad>
          </ns3:TrackPointExtension>
        </extensions>
      </trkpt>
      <trkpt lat="37.9883383400738239288330078125" lon="-107.74697206914424896240234375">
        <ele>3999</ele>
        <time>2026-08-15T16:56:13.000Z</time>
        <extensions>
          <ns3:TrackPointExtension>
            <ns3:hr>114</ns3:hr>
            <ns3:cad>0</ns3:cad>
          </ns3:TrackPointExtension>
        </extensions>
      </trkpt>
      <trkpt lat="37.988330461084842681884765625" lon="-107.74695538915693759918212890625">
        <ele>3998.800048828125</ele>
        <time>2026-08-15T16:56:15.000Z</time>
        <extensions>
          <ns3:TrackPointExtension>
            <ns3:hr>117</ns3:hr>
            <ns3:cad>0</ns3:cad>
          </ns3:TrackPointExtension>
        </extensions>
      </trkpt>
      <trkpt lat="37.98833138309419155120849609375" lon="-107.7469417266547679901123046875">
        <ele>3998.60009765625</ele>
        <time>2026-08-15T16:56:16.000Z</time>
        <extensions>
          <ns3:TrackPointExtension>
            <ns3:hr>117</ns3:hr>
            <ns3:cad>0</ns3:cad>
          </ns3:TrackPointExtension>
        </extensions>
      </trkpt>
      <trkpt lat="37.988326437771320343017578125" lon="-107.746928818523883819580078125">
        <ele>3998.60009765625</ele>
        <time>2026-08-15T16:56:17.000Z</time>
        <extensions>
          <ns3:TrackPointExtension>
            <ns3:hr>117</ns3:hr>
            <ns3:cad>0</ns3:cad>
          </ns3:TrackPointExtension>
        </extensions>
      </trkpt>
      <trkpt lat="37.9883205704391002655029296875" lon="-107.74688598699867725372314453125">
        <ele>3998.199951171875</ele>
        <time>2026-08-15T16:56:21.000Z</time>
        <extensions>
          <ns3:TrackPointExtension>
            <ns3:hr>117</ns3:hr>
            <ns3:cad>63</ns3:cad>
          </ns3:TrackPointExtension>
        </extensions>
      </trkpt>
      <trkpt lat="37.98830204643309116363525390625" lon="-107.746849358081817626953125">
        <ele>3998</ele>
        <time>2026-08-15T16:56:24.000Z</time>
        <extensions>
          <ns3:TrackPointExtension>
            <ns3:hr>117</ns3:hr>
            <ns3:cad>0</ns3:cad>
          </ns3:TrackPointExtension>
        </extensions>
      </trkpt>
      <trkpt lat="37.9882984422147274017333984375" lon="-107.746794708073139190673828125">
        <ele>3998</ele>
        <time>2026-08-15T16:56:28.000Z</time>
        <extensions>
          <ns3:TrackPointExtension>
            <ns3:hr>116</ns3:hr>
            <ns3:cad>0</ns3:cad>
          </ns3:TrackPointExtension>
        </extensions>
      </trkpt>
      <trkpt lat="37.98831562511622905731201171875" lon="-107.74672555737197399139404296875">
        <ele>3997</ele>
        <time>2026-08-15T16:56:34.000Z</time>
        <extensions>
          <ns3:TrackPointExtension>
            <ns3:hr>115</ns3:hr>
            <ns3:cad>60</ns3:cad>
          </ns3:TrackPointExtension>
        </extensions>
      </trkpt>
      <trkpt lat="37.98831948079168796539306640625" lon="-107.746715582907199859619140625">
        <ele>3997</ele>
        <time>2026-08-15T16:56:35.000Z</time>
        <extensions>
          <ns3:TrackPointExtension>
            <ns3:hr>114</ns3:hr>
            <ns3:cad>60</ns3:cad>
          </ns3:TrackPointExtension>
        </extensions>
      </trkpt>
      <trkpt lat="37.9883393459022045135498046875" lon="-107.7466587536036968231201171875">
        <ele>3996.800048828125</ele>
        <time>2026-08-15T16:56:40.000Z</time>
        <extensions>
          <ns3:TrackPointExtension>
            <ns3:hr>111</ns3:hr>
            <ns3:cad>0</ns3:cad>
          </ns3:TrackPointExtension>
        </extensions>
      </trkpt>
      <trkpt lat="37.98836164176464080810546875" lon="-107.746627740561962127685546875">
        <ele>3996.60009765625</ele>
        <time>2026-08-15T16:56:43.000Z</time>
        <extensions>
          <ns3:TrackPointExtension>
            <ns3:hr>109</ns3:hr>
            <ns3:cad>65</ns3:cad>
          </ns3:TrackPointExtension>
        </extensions>
      </trkpt>
      <trkpt lat="37.98840665258467197418212890625" lon="-107.74659647606313228607177734375">
        <ele>3996.39990234375</ele>
        <time>2026-08-15T16:56:48.000Z</time>
        <extensions>
          <ns3:TrackPointExtension>
            <ns3:hr>106</ns3:hr>
            <ns3:cad>65</ns3:cad>
          </ns3:TrackPointExtension>
        </extensions>
      </trkpt>
      <trkpt lat="37.9884360730648040771484375" lon="-107.74653621017932891845703125">
        <ele>3996.39990234375</ele>
        <time>2026-08-15T16:56:54.000Z</time>
        <extensions>
          <ns3:TrackPointExtension>
            <ns3:hr>105</ns3:hr>
            <ns3:cad>0</ns3:cad>
          </ns3:TrackPointExtension>
        </extensions>
      </trkpt>
      <trkpt lat="37.9884647391736507415771484375" lon="-107.74648600257933139801025390625">
        <ele>3996.39990234375</ele>
        <time>2026-08-15T16:57:00.000Z</time>
        <extensions>
          <ns3:TrackPointExtension>
            <ns3:hr>107</ns3:hr>
            <ns3:cad>43</ns3:cad>
          </ns3:TrackPointExtension>
        </extensions>
      </trkpt>
      <trkpt lat="37.98848208971321582794189453125" lon="-107.7464361302554607391357421875">
        <ele>3995.800048828125</ele>
        <time>2026-08-15T16:57:06.000Z</time>
        <extensions>
          <ns3:TrackPointExtension>
            <ns3:hr>107</ns3:hr>
            <ns3:cad>43</ns3:cad>
          </ns3:TrackPointExtension>
        </extensions>
      </trkpt>
      <trkpt lat="37.9885100014507770538330078125" lon="-107.746398411691188812255859375">
        <ele>3994.60009765625</ele>
        <time>2026-08-15T16:57:10.000Z</time>
        <extensions>
          <ns3:TrackPointExtension>
            <ns3:hr>106</ns3:hr>
            <ns3:cad>0</ns3:cad>
          </ns3:TrackPointExtension>
        </extensions>
      </trkpt>
      <trkpt lat="37.98851679079234600067138671875" lon="-107.7463727630674839019775390625">
        <ele>3994.39990234375</ele>
        <time>2026-08-15T16:57:12.000Z</time>
        <extensions>
          <ns3:TrackPointExtension>
            <ns3:hr>106</ns3:hr>
            <ns3:cad>0</ns3:cad>
          </ns3:TrackPointExtension>
        </extensions>
      </trkpt>
      <trkpt lat="37.98851410858333110809326171875" lon="-107.746309898793697357177734375">
        <ele>3995.39990234375</ele>
        <time>2026-08-15T16:57:18.000Z</time>
        <extensions>
          <ns3:TrackPointExtension>
            <ns3:hr>105</ns3:hr>
            <ns3:cad>0</ns3:cad>
          </ns3:TrackPointExtension>
        </extensions>
      </trkpt>
      <trkpt lat="37.98852232284843921661376953125" lon="-107.74627737700939178466796875">
        <ele>3995.60009765625</ele>
        <time>2026-08-15T16:57:20.000Z</time>
        <extensions>
          <ns3:TrackPointExtension>
            <ns3:hr>106</ns3:hr>
            <ns3:cad>0</ns3:cad>
          </ns3:TrackPointExtension>
        </extensions>
      </trkpt>
      <trkpt lat="37.988529615104198455810546875" lon="-107.74624996818602085113525390625">
        <ele>3995.800048828125</ele>
        <time>2026-08-15T16:57:24.000Z</time>
        <extensions>
          <ns3:TrackPointExtension>
            <ns3:hr>110</ns3:hr>
            <ns3:cad>0</ns3:cad>
          </ns3:TrackPointExtension>
        </extensions>
      </trkpt>
      <trkpt lat="37.98853388987481594085693359375" lon="-107.74619464762508869171142578125">
        <ele>3996.800048828125</ele>
        <time>2026-08-15T16:57:28.000Z</time>
        <extensions>
          <ns3:TrackPointExtension>
            <ns3:hr>113</ns3:hr>
            <ns3:cad>0</ns3:cad>
          </ns3:TrackPointExtension>
        </extensions>
      </trkpt>
      <trkpt lat="37.9885353147983551025390625" lon="-107.7461679093539714813232421875">
        <ele>3997</ele>
        <time>2026-08-15T16:57:30.000Z</time>
        <extensions>
          <ns3:TrackPointExtension>
            <ns3:hr>114</ns3:hr>
            <ns3:cad>0</ns3:cad>
          </ns3:TrackPointExtension>
        </extensions>
      </trkpt>
      <trkpt lat="37.9885287769138813018798828125" lon="-107.746093310415744781494140625">
        <ele>3996.800048828125</ele>
        <time>2026-08-15T16:57:36.000Z</time>
        <extensions>
          <ns3:TrackPointExtension>
            <ns3:hr>112</ns3:hr>
            <ns3:cad>0</ns3:cad>
          </ns3:TrackPointExtension>
        </extensions>
      </trkpt>
      <trkpt lat="37.98850421793758869171142578125" lon="-107.74601594544947147369384765625">
        <ele>3996.60009765625</ele>
        <time>2026-08-15T16:57:42.000Z</time>
        <extensions>
          <ns3:TrackPointExtension>
            <ns3:hr>112</ns3:hr>
            <ns3:cad>65</ns3:cad>
          </ns3:TrackPointExtension>
        </extensions>
      </trkpt>
      <trkpt lat="37.988500781357288360595703125" lon="-107.74600245058536529541015625">
        <ele>3996.39990234375</ele>
        <time>2026-08-15T16:57:43.000Z</time>
        <extensions>
          <ns3:TrackPointExtension>
            <ns3:hr>113</ns3:hr>
            <ns3:cad>65</ns3:cad>
          </ns3:TrackPointExtension>
        </extensions>
      </trkpt>
      <trkpt lat="37.9884959198534488677978515625" lon="-107.74596129544079303741455078125">
        <ele>3995.60009765625</ele>
        <time>2026-08-15T16:57:46.000Z</time>
        <extensions>
          <ns3:TrackPointExtension>
            <ns3:hr>114</ns3:hr>
            <ns3:cad>65</ns3:cad>
          </ns3:TrackPointExtension>
        </extensions>
      </trkpt>
      <trkpt lat="37.988488376140594482421875" lon="-107.74592332541942596435546875">
        <ele>3995.39990234375</ele>
        <time>2026-08-15T16:57:49.000Z</time>
        <extensions>
          <ns3:TrackPointExtension>
            <ns3:hr>114</ns3:hr>
            <ns3:cad>65</ns3:cad>
          </ns3:TrackPointExtension>
        </extensions>
      </trkpt>
      <trkpt lat="37.9884694330394268035888671875" lon="-107.7458852715790271759033203125">
        <ele>3995.800048828125</ele>
        <time>2026-08-15T16:57:55.000Z</time>
        <extensions>
          <ns3:TrackPointExtension>
            <ns3:hr>113</ns3:hr>
            <ns3:cad>0</ns3:cad>
          </ns3:TrackPointExtension>
        </extensions>
      </trkpt>
      <trkpt lat="37.98844822682440280914306640625" lon="-107.74585383944213390350341796875">
        <ele>3995.39990234375</ele>
        <time>2026-08-15T16:58:01.000Z</time>
        <extensions>
          <ns3:TrackPointExtension>
            <ns3:hr>114</ns3:hr>
            <ns3:cad>0</ns3:cad>
          </ns3:TrackPointExtension>
        </extensions>
      </trkpt>
      <trkpt lat="37.9884392581880092620849609375" lon="-107.74579818360507488250732421875">
        <ele>3995.199951171875</ele>
        <time>2026-08-15T16:58:06.000Z</time>
        <extensions>
          <ns3:TrackPointExtension>
            <ns3:hr>112</ns3:hr>
            <ns3:cad>0</ns3:cad>
          </ns3:TrackPointExtension>
        </extensions>
      </trkpt>
      <trkpt lat="37.9884479753673076629638671875" lon="-107.74577890522778034210205078125">
        <ele>3996.39990234375</ele>
        <time>2026-08-15T16:58:10.000Z</time>
        <extensions>
          <ns3:TrackPointExtension>
            <ns3:hr>115</ns3:hr>
            <ns3:cad>0</ns3:cad>
          </ns3:TrackPointExtension>
        </extensions>
      </trkpt>
      <trkpt lat="37.988449819386005401611328125" lon="-107.74577312171459197998046875">
        <ele>3996.800048828125</ele>
        <time>2026-08-15T16:58:11.000Z</time>
        <extensions>
          <ns3:TrackPointExtension>
            <ns3:hr>115</ns3:hr>
            <ns3:cad>0</ns3:cad>
          </ns3:TrackPointExtension>
        </extensions>
      </trkpt>
      <trkpt lat="37.9884546808898448944091796875" lon="-107.74573598988354206085205078125">
        <ele>3997.800048828125</ele>
        <time>2026-08-15T16:58:14.000Z</time>
        <extensions>
          <ns3:TrackPointExtension>
            <ns3:hr>116</ns3:hr>
            <ns3:cad>0</ns3:cad>
          </ns3:TrackPointExtension>
        </extensions>
      </trkpt>
      <trkpt lat="37.9884633980691432952880859375" lon="-107.74571067653596401214599609375">
        <ele>3998</ele>
        <time>2026-08-15T16:58:16.000Z</time>
        <extensions>
          <ns3:TrackPointExtension>
            <ns3:hr>116</ns3:hr>
            <ns3:cad>0</ns3:cad>
          </ns3:TrackPointExtension>
        </extensions>
      </trkpt>
      <trkpt lat="37.98846918158233165740966796875" lon="-107.74564412422478199005126953125">
        <ele>3997.60009765625</ele>
        <time>2026-08-15T16:58:22.000Z</time>
        <extensions>
          <ns3:TrackPointExtension>
            <ns3:hr>119</ns3:hr>
            <ns3:cad>64</ns3:cad>
          </ns3:TrackPointExtension>
        </extensions>
      </trkpt>
      <trkpt lat="37.98847504891455173492431640625" lon="-107.74562836624681949615478515625">
        <ele>3997.60009765625</ele>
        <time>2026-08-15T16:58:23.000Z</time>
        <extensions>
          <ns3:TrackPointExtension>
            <ns3:hr>120</ns3:hr>
            <ns3:cad>64</ns3:cad>
          </ns3:TrackPointExtension>
        </extensions>
      </trkpt>
      <trkpt lat="37.98847404308617115020751953125" lon="-107.74562249891459941864013671875">
        <ele>3998</ele>
        <time>2026-08-15T16:58:26.000Z</time>
        <extensions>
          <ns3:TrackPointExtension>
            <ns3:hr>124</ns3:hr>
            <ns3:cad>0</ns3:cad>
          </ns3:TrackPointExtension>
        </extensions>
      </trkpt>
      <trkpt lat="37.9884697683155536651611328125" lon="-107.74561881087720394134521484375">
        <ele>3998</ele>
        <time>2026-08-15T16:58:28.000Z</time>
        <extensions>
          <ns3:TrackPointExtension>
            <ns3:hr>125</ns3:hr>
            <ns3:cad>0</ns3:cad>
          </ns3:TrackPointExtension>
        </extensions>
      </trkpt>
      <trkpt lat="37.988482005894184112548828125" lon="-107.74558293633162975311279296875">
        <ele>3998.800048828125</ele>
        <time>2026-08-15T16:58:34.000Z</time>
        <extensions>
          <ns3:TrackPointExtension>
            <ns3:hr>125</ns3:hr>
            <ns3:cad>0</ns3:cad>
          </ns3:TrackPointExtension>
        </extensions>
      </trkpt>
      <trkpt lat="37.9885031282901763916015625" lon="-107.7455364167690277099609375">
        <ele>4000</ele>
        <time>2026-08-15T16:58:39.000Z</time>
        <extensions>
          <ns3:TrackPointExtension>
            <ns3:hr>125</ns3:hr>
            <ns3:cad>0</ns3:cad>
          </ns3:TrackPointExtension>
        </extensions>
      </trkpt>
      <trkpt lat="37.98851477913558483123779296875" lon="-107.74551294744014739990234375">
        <ele>4000.39990234375</ele>
        <time>2026-08-15T16:58:41.000Z</time>
        <extensions>
          <ns3:TrackPointExtension>
            <ns3:hr>126</ns3:hr>
            <ns3:cad>0</ns3:cad>
          </ns3:TrackPointExtension>
        </extensions>
      </trkpt>
      <trkpt lat="37.9885328002274036407470703125" lon="-107.74548017419874668121337890625">
        <ele>4001</ele>
        <time>2026-08-15T16:58:45.000Z</time>
        <extensions>
          <ns3:TrackPointExtension>
            <ns3:hr>125</ns3:hr>
            <ns3:cad>0</ns3:cad>
          </ns3:TrackPointExtension>
        </extensions>
      </trkpt>
      <trkpt lat="37.98854009248316287994384765625" lon="-107.74547849781811237335205078125">
        <ele>4001.39990234375</ele>
        <time>2026-08-15T16:58:46.000Z</time>
        <extensions>
          <ns3:TrackPointExtension>
            <ns3:hr>125</ns3:hr>
            <ns3:cad>0</ns3:cad>
          </ns3:TrackPointExtension>
        </extensions>
      </trkpt>
      <trkpt lat="37.98853757791221141815185546875" lon="-107.74546760134398937225341796875">
        <ele>4001.60009765625</ele>
        <time>2026-08-15T16:58:47.000Z</time>
        <extensions>
          <ns3:TrackPointExtension>
            <ns3:hr>124</ns3:hr>
            <ns3:cad>0</ns3:cad>
          </ns3:TrackPointExtension>
        </extensions>
      </trkpt>
      <trkpt lat="37.9885431937873363494873046875" lon="-107.74545134045183658599853515625">
        <ele>4002</ele>
        <time>2026-08-15T16:58:51.000Z</time>
        <extensions>
          <ns3:TrackPointExtension>
            <ns3:hr>126</ns3:hr>
            <ns3:cad>0</ns3:cad>
          </ns3:TrackPointExtension>
        </extensions>
      </trkpt>
      <trkpt lat="37.9885465465486049652099609375" lon="-107.74543323554098606109619140625">
        <ele>4002.199951171875</ele>
        <time>2026-08-15T16:58:54.000Z</time>
        <extensions>
          <ns3:TrackPointExtension>
            <ns3:hr>126</ns3:hr>
            <ns3:cad>0</ns3:cad>
          </ns3:TrackPointExtension>
        </extensions>
      </trkpt>
      <trkpt lat="37.9885656572878360748291015625" lon="-107.745398618280887603759765625">
        <ele>4003.39990234375</ele>
        <time>2026-08-15T16:59:00.000Z</time>
        <extensions>
          <ns3:TrackPointExtension>
            <ns3:hr>127</ns3:hr>
            <ns3:cad>0</ns3:cad>
          </ns3:TrackPointExtension>
        </extensions>
      </trkpt>
      <trkpt lat="37.9885720275342464447021484375" lon="-107.74538478814065456390380859375">
        <ele>4003.800048828125</ele>
        <time>2026-08-15T16:59:01.000Z</time>
        <extensions>
          <ns3:TrackPointExtension>
            <ns3:hr>127</ns3:hr>
            <ns3:cad>0</ns3:cad>
          </ns3:TrackPointExtension>
        </extensions>
      </trkpt>
      <trkpt lat="37.9885877855122089385986328125" lon="-107.74536785669624805450439453125">
        <ele>4004.39990234375</ele>
        <time>2026-08-15T16:59:04.000Z</time>
        <extensions>
          <ns3:TrackPointExtension>
            <ns3:hr>126</ns3:hr>
            <ns3:cad>0</ns3:cad>
          </ns3:TrackPointExtension>
        </extensions>
      </trkpt>
      <trkpt lat="37.9885995201766490936279296875" lon="-107.74535260163247585296630859375">
        <ele>4004.60009765625</ele>
        <time>2026-08-15T16:59:06.000Z</time>
        <extensions>
          <ns3:TrackPointExtension>
            <ns3:hr>127</ns3:hr>
            <ns3:cad>0</ns3:cad>
          </ns3:TrackPointExtension>
        </extensions>
      </trkpt>
      <trkpt lat="37.9886313714087009429931640625" lon="-107.7453474886715412139892578125">
        <ele>4005</ele>
        <time>2026-08-15T16:59:12.000Z</time>
        <extensions>
          <ns3:TrackPointExtension>
            <ns3:hr>129</ns3:hr>
            <ns3:cad>0</ns3:cad>
          </ns3:TrackPointExtension>
        </extensions>
      </trkpt>
      <trkpt lat="37.9886400885879993438720703125" lon="-107.74534396827220916748046875">
        <ele>4004.800048828125</ele>
        <time>2026-08-15T16:59:13.000Z</time>
        <extensions>
          <ns3:TrackPointExtension>
            <ns3:hr>129</ns3:hr>
            <ns3:cad>0</ns3:cad>
          </ns3:TrackPointExtension>
        </extensions>
      </trkpt>
      <trkpt lat="37.9886699281632900238037109375" lon="-107.745330892503261566162109375">
        <ele>4003.800048828125</ele>
        <time>2026-08-15T16:59:19.000Z</time>
        <extensions>
          <ns3:TrackPointExtension>
            <ns3:hr>131</ns3:hr>
            <ns3:cad>0</ns3:cad>
          </ns3:TrackPointExtension>
        </extensions>
      </trkpt>
      <trkpt lat="37.98867814242839813232421875" lon="-107.74533189833164215087890625">
        <ele>4003.39990234375</ele>
        <time>2026-08-15T16:59:21.000Z</time>
        <extensions>
          <ns3:TrackPointExtension>
            <ns3:hr>131</ns3:hr>
            <ns3:cad>0</ns3:cad>
          </ns3:TrackPointExtension>
        </extensions>
      </trkpt>
      <trkpt lat="37.9887017793953418731689453125" lon="-107.74533818475902080535888671875">
        <ele>4002.800048828125</ele>
        <time>2026-08-15T16:59:26.000Z</time>
        <extensions>
          <ns3:TrackPointExtension>
            <ns3:hr>130</ns3:hr>
            <ns3:cad>0</ns3:cad>
          </ns3:TrackPointExtension>
        </extensions>
      </trkpt>
      <trkpt lat="37.98871577717363834381103515625" lon="-107.7453401125967502593994140625">
        <ele>4002.199951171875</ele>
        <time>2026-08-15T16:59:28.000Z</time>
        <extensions>
          <ns3:TrackPointExtension>
            <ns3:hr>131</ns3:hr>
            <ns3:cad>0</ns3:cad>
          </ns3:TrackPointExtension>
        </extensions>
      </trkpt>
      <trkpt lat="37.98871837556362152099609375" lon="-107.745326198637485504150390625">
        <ele>4001.60009765625</ele>
        <time>2026-08-15T16:59:32.000Z</time>
        <extensions>
          <ns3:TrackPointExtension>
            <ns3:hr>129</ns3:hr>
            <ns3:cad>0</ns3:cad>
          </ns3:TrackPointExtension>
        </extensions>
      </trkpt>
      <trkpt lat="37.9887148551642894744873046875" lon="-107.74532661773264408111572265625">
        <ele>4001.800048828125</ele>
        <time>2026-08-15T16:59:38.000Z</time>
        <extensions>
          <ns3:TrackPointExtension>
            <ns3:hr>129</ns3:hr>
            <ns3:cad>0</ns3:cad>
          </ns3:TrackPointExtension>
        </extensions>
      </trkpt>
      <trkpt lat="37.9887148551642894744873046875" lon="-107.74532661773264408111572265625">
        <ele>4001.60009765625</ele>
        <time>2026-08-15T16:59:43.000Z</time>
        <extensions>
          <ns3:TrackPointExtension>
            <ns3:hr>128</ns3:hr>
            <ns3:cad>0</ns3:cad>
          </ns3:TrackPointExtension>
        </extensions>
      </trkpt>
      <trkpt lat="37.988713346421718597412109375" lon="-107.7452965267002582550048828125">
        <ele>4001.39990234375</ele>
        <time>2026-08-15T16:59:48.000Z</time>
        <extensions>
          <ns3:TrackPointExtension>
            <ns3:hr>125</ns3:hr>
            <ns3:cad>0</ns3:cad>
          </ns3:TrackPointExtension>
        </extensions>
      </trkpt>
      <trkpt lat="37.98871192149817943572998046875" lon="-107.7452928386628627777099609375">
        <ele>4001.199951171875</ele>
        <time>2026-08-15T16:59:49.000Z</time>
        <extensions>
          <ns3:TrackPointExtension>
            <ns3:hr>124</ns3:hr>
            <ns3:cad>0</ns3:cad>
          </ns3:TrackPointExtension>
        </extensions>
      </trkpt>
      <trkpt lat="37.98871862702071666717529296875" lon="-107.745282948017120361328125">
        <ele>4000.800048828125</ele>
        <time>2026-08-15T16:59:51.000Z</time>
        <extensions>
          <ns3:TrackPointExtension>
            <ns3:hr>120</ns3:hr>
            <ns3:cad>0</ns3:cad>
          </ns3:TrackPointExtension>
        </extensions>
      </trkpt>
      <trkpt lat="37.988729774951934814453125" lon="-107.74527247063815593719482421875">
        <ele>4000</ele>
        <time>2026-08-15T16:59:55.000Z</time>
        <extensions>
          <ns3:TrackPointExtension>
            <ns3:hr>118</ns3:hr>
            <ns3:cad>0</ns3:cad>
          </ns3:TrackPointExtension>
        </extensions>
      </trkpt>
      <trkpt lat="37.98872969113290309906005859375" lon="-107.74527280591428279876708984375">
        <ele>4000</ele>
        <time>2026-08-15T16:59:56.000Z</time>
        <extensions>
          <ns3:TrackPointExtension>
            <ns3:hr>117</ns3:hr>
            <ns3:cad>0</ns3:cad>
          </ns3:TrackPointExtension>
        </extensions>
      </trkpt>
      <trkpt lat="37.98873446881771087646484375" lon="-107.74526006542146205902099609375">
        <ele>3999</ele>
        <time>2026-08-15T17:00:02.000Z</time>
        <extensions>
          <ns3:TrackPointExtension>
            <ns3:hr>117</ns3:hr>
            <ns3:cad>0</ns3:cad>
          </ns3:TrackPointExtension>
        </extensions>
      </trkpt>
      <trkpt lat="37.98873580992221832275390625" lon="-107.74525805376470088958740234375">
        <ele>3999</ele>
        <time>2026-08-15T17:00:03.000Z</time>
        <extensions>
          <ns3:TrackPointExtension>
            <ns3:hr>117</ns3:hr>
            <ns3:cad>0</ns3:cad>
          </ns3:TrackPointExtension>
        </extensions>
      </trkpt>
      <trkpt lat="37.98873874358832836151123046875" lon="-107.74525620974600315093994140625">
        <ele>3998.199951171875</ele>
        <time>2026-08-15T17:00:07.000Z</time>
        <extensions>
          <ns3:TrackPointExtension>
            <ns3:hr>115</ns3:hr>
            <ns3:cad>0</ns3:cad>
          </ns3:TrackPointExtension>
        </extensions>
      </trkpt>
      <trkpt lat="37.98874385654926300048828125" lon="-107.74525537155568599700927734375">
        <ele>3997.800048828125</ele>
        <time>2026-08-15T17:00:09.000Z</time>
        <extensions>
          <ns3:TrackPointExtension>
            <ns3:hr>115</ns3:hr>
            <ns3:cad>0</ns3:cad>
          </ns3:TrackPointExtension>
        </extensions>
      </trkpt>
      <trkpt lat="37.98875433392822742462158203125" lon="-107.7452448941767215728759765625">
        <ele>3997</ele>
        <time>2026-08-15T17:00:14.000Z</time>
        <extensions>
          <ns3:TrackPointExtension>
            <ns3:hr>113</ns3:hr>
            <ns3:cad>0</ns3:cad>
          </ns3:TrackPointExtension>
        </extensions>
      </trkpt>
      <trkpt lat="37.98876171000301837921142578125" lon="-107.745241038501262664794921875">
        <ele>3996.60009765625</ele>
        <time>2026-08-15T17:00:15.000Z</time>
        <extensions>
          <ns3:TrackPointExtension>
            <ns3:hr>113</ns3:hr>
            <ns3:cad>0</ns3:cad>
          </ns3:TrackPointExtension>
        </extensions>
      </trkpt>
      <trkpt lat="37.988772355020046234130859375" lon="-107.74522720836102962493896484375">
        <ele>3995.60009765625</ele>
        <time>2026-08-15T17:00:20.000Z</time>
        <extensions>
          <ns3:TrackPointExtension>
            <ns3:hr>111</ns3:hr>
            <ns3:cad>0</ns3:cad>
          </ns3:TrackPointExtension>
        </extensions>
      </trkpt>
      <trkpt lat="37.98878132365643978118896484375" lon="-107.745225615799427032470703125">
        <ele>3995.199951171875</ele>
        <time>2026-08-15T17:00:24.000Z</time>
        <extensions>
          <ns3:TrackPointExtension>
            <ns3:hr>116</ns3:hr>
            <ns3:cad>0</ns3:cad>
          </ns3:TrackPointExtension>
        </extensions>
      </trkpt>
      <trkpt lat="37.98878165893256664276123046875" lon="-107.74522519670426845550537109375">
        <ele>3995</ele>
        <time>2026-08-15T17:00:25.000Z</time>
        <extensions>
          <ns3:TrackPointExtension>
            <ns3:hr>122</ns3:hr>
            <ns3:cad>0</ns3:cad>
          </ns3:TrackPointExtension>
        </extensions>
      </trkpt>
      <trkpt lat="37.98878652043640613555908203125" lon="-107.7452252805233001708984375">
        <ele>3994.800048828125</ele>
        <time>2026-08-15T17:00:26.000Z</time>
        <extensions>
          <ns3:TrackPointExtension>
            <ns3:hr>122</ns3:hr>
            <ns3:cad>0</ns3:cad>
          </ns3:TrackPointExtension>
        </extensions>
      </trkpt>
      <trkpt lat="37.98878601752221584320068359375" lon="-107.7452294714748859405517578125">
        <ele>3994.60009765625</ele>
        <time>2026-08-15T17:00:27.000Z</time>
        <extensions>
          <ns3:TrackPointExtension>
            <ns3:hr>123</ns3:hr>
            <ns3:cad>0</ns3:cad>
          </ns3:TrackPointExtension>
        </extensions>
      </trkpt>
      <trkpt lat="37.98879121430218219757080078125" lon="-107.74521899409592151641845703125">
        <ele>3994</ele>
        <time>2026-08-15T17:00:31.000Z</time>
        <extensions>
          <ns3:TrackPointExtension>
            <ns3:hr>125</ns3:hr>
            <ns3:cad>0</ns3:cad>
          </ns3:TrackPointExtension>
        </extensions>
      </trkpt>
      <trkpt lat="37.98879926092922687530517578125" lon="-107.745213545858860015869140625">
        <ele>3993.39990234375</ele>
        <time>2026-08-15T17:00:34.000Z</time>
        <extensions>
          <ns3:TrackPointExtension>
            <ns3:hr>127</ns3:hr>
            <ns3:cad>0</ns3:cad>
          </ns3:TrackPointExtension>
        </extensions>
      </trkpt>
      <trkpt lat="37.98880093730986118316650390625" lon="-107.7452093549072742462158203125">
        <ele>3992.60009765625</ele>
        <time>2026-08-15T17:00:39.000Z</time>
        <extensions>
          <ns3:TrackPointExtension>
            <ns3:hr>127</ns3:hr>
            <ns3:cad>0</ns3:cad>
          </ns3:TrackPointExtension>
        </extensions>
      </trkpt>
      <trkpt lat="37.98880093730986118316650390625" lon="-107.7452093549072742462158203125">
        <ele>3992.60009765625</ele>
        <time>2026-08-15T17:00:42.000Z</time>
        <extensions>
          <ns3:TrackPointExtension>
            <ns3:hr>124</ns3:hr>
            <ns3:cad>0</ns3:cad>
          </ns3:TrackPointExtension>
        </extensions>
      </trkpt>
      <trkpt lat="37.98879481852054595947265625" lon="-107.74520994164049625396728515625">
        <ele>3992.199951171875</ele>
        <time>2026-08-15T17:00:47.000Z</time>
        <extensions>
          <ns3:TrackPointExtension>
            <ns3:hr>123</ns3:hr>
            <ns3:cad>0</ns3:cad>
          </ns3:TrackPointExtension>
        </extensions>
      </trkpt>
      <trkpt lat="37.988792471587657928466796875" lon="-107.745210863649845123291015625">
        <ele>3992</ele>
        <time>2026-08-15T17:00:48.000Z</time>
        <extensions>
          <ns3:TrackPointExtension>
            <ns3:hr>124</ns3:hr>
            <ns3:cad>0</ns3:cad>
          </ns3:TrackPointExtension>
        </extensions>
      </trkpt>
      <trkpt lat="37.98880093730986118316650390625" lon="-107.7452093549072742462158203125">
        <ele>3991.60009765625</ele>
        <time>2026-08-15T17:00:54.000Z</time>
        <extensions>
          <ns3:TrackPointExtension>
            <ns3:hr>124</ns3:hr>
            <ns3:cad>0</ns3:cad>
          </ns3:TrackPointExtension>
        </extensions>
      </trkpt>
      <trkpt lat="37.98880093730986118316650390625" lon="-107.7452093549072742462158203125">
        <ele>3992</ele>
        <time>2026-08-15T17:01:00.000Z</time>
        <extensions>
          <ns3:TrackPointExtension>
            <ns3:hr>123</ns3:hr>
            <ns3:cad>0</ns3:cad>
          </ns3:TrackPointExtension>
        </extensions>
      </trkpt>
      <trkpt lat="37.98880093730986118316650390625" lon="-107.7452093549072742462158203125">
        <ele>3991.800048828125</ele>
        <time>2026-08-15T17:01:01.000Z</time>
        <extensions>
          <ns3:TrackPointExtension>
            <ns3:hr>123</ns3:hr>
            <ns3:cad>0</ns3:cad>
          </ns3:TrackPointExtension>
        </extensions>
      </trkpt>
      <trkpt lat="37.9888080619275569915771484375" lon="-107.7452039904892444610595703125">
        <ele>3991.199951171875</ele>
        <time>2026-08-15T17:01:06.000Z</time>
        <extensions>
          <ns3:TrackPointExtension>
            <ns3:hr>123</ns3:hr>
            <ns3:cad>65</ns3:cad>
          </ns3:TrackPointExtension>
        </extensions>
      </trkpt>
      <trkpt lat="37.98881384544074535369873046875" lon="-107.7451976202428340911865234375">
        <ele>3990.60009765625</ele>
        <time>2026-08-15T17:01:08.000Z</time>
        <extensions>
          <ns3:TrackPointExtension>
            <ns3:hr>122</ns3:hr>
            <ns3:cad>51</ns3:cad>
          </ns3:TrackPointExtension>
        </extensions>
      </trkpt>
      <trkpt lat="37.9888228140771389007568359375" lon="-107.74519451893866062164306640625">
        <ele>3990.60009765625</ele>
        <time>2026-08-15T17:01:12.000Z</time>
        <extensions>
          <ns3:TrackPointExtension>
            <ns3:hr>118</ns3:hr>
            <ns3:cad>0</ns3:cad>
          </ns3:TrackPointExtension>
        </extensions>
      </trkpt>
      <trkpt lat="37.9888258315622806549072265625" lon="-107.74519586004316806793212890625">
        <ele>3990.60009765625</ele>
        <time>2026-08-15T17:01:14.000Z</time>
        <extensions>
          <ns3:TrackPointExtension>
            <ns3:hr>114</ns3:hr>
            <ns3:cad>0</ns3:cad>
          </ns3:TrackPointExtension>
        </extensions>
      </trkpt>
      <trkpt lat="37.9888258315622806549072265625" lon="-107.74519619531929492950439453125">
        <ele>3990.39990234375</ele>
        <time>2026-08-15T17:01:15.000Z</time>
        <extensions>
          <ns3:TrackPointExtension>
            <ns3:hr>113</ns3:hr>
            <ns3:cad>0</ns3:cad>
          </ns3:TrackPointExtension>
        </extensions>
      </trkpt>
      <trkpt lat="37.9888298548758029937744140625" lon="-107.7451882325112819671630859375">
        <ele>3990.199951171875</ele>
        <time>2026-08-15T17:01:17.000Z</time>
        <extensions>
          <ns3:TrackPointExtension>
            <ns3:hr>111</ns3:hr>
            <ns3:cad>0</ns3:cad>
          </ns3:TrackPointExtension>
        </extensions>
      </trkpt>
      <trkpt lat="37.98885114490985870361328125" lon="-107.7451718039810657501220703125">
        <ele>3989.60009765625</ele>
        <time>2026-08-15T17:01:21.000Z</time>
        <extensions>
          <ns3:TrackPointExtension>
            <ns3:hr>108</ns3:hr>
            <ns3:cad>0</ns3:cad>
          </ns3:TrackPointExtension>
        </extensions>
      </trkpt>
      <trkpt lat="37.98885424621403217315673828125" lon="-107.74517624638974666595458984375">
        <ele>3988.800048828125</ele>
        <time>2026-08-15T17:01:25.000Z</time>
        <extensions>
          <ns3:TrackPointExtension>
            <ns3:hr>108</ns3:hr>
            <ns3:cad>0</ns3:cad>
          </ns3:TrackPointExtension>
        </extensions>
      </trkpt>
      <trkpt lat="37.9888640530407428741455078125" lon="-107.74516870267689228057861328125">
        <ele>3988</ele>
        <time>2026-08-15T17:01:29.000Z</time>
        <extensions>
          <ns3:TrackPointExtension>
            <ns3:hr>109</ns3:hr>
            <ns3:cad>0</ns3:cad>
          </ns3:TrackPointExtension>
        </extensions>
      </trkpt>
      <trkpt lat="37.9888734407722949981689453125" lon="-107.74516618810594081878662109375">
        <ele>3987.800048828125</ele>
        <time>2026-08-15T17:01:31.000Z</time>
        <extensions>
          <ns3:TrackPointExtension>
            <ns3:hr>108</ns3:hr>
            <ns3:cad>0</ns3:cad>
          </ns3:TrackPointExtension>
        </extensions>
      </trkpt>
      <trkpt lat="37.988887019455432891845703125" lon="-107.74516250006854534149169921875">
        <ele>3987</ele>
        <time>2026-08-15T17:01:35.000Z</time>
        <extensions>
          <ns3:TrackPointExtension>
            <ns3:hr>108</ns3:hr>
            <ns3:cad>0</ns3:cad>
          </ns3:TrackPointExtension>
        </extensions>
      </trkpt>
      <trkpt lat="37.98888794146478176116943359375" lon="-107.74516082368791103363037109375">
        <ele>3986.800048828125</ele>
        <time>2026-08-15T17:01:36.000Z</time>
        <extensions>
          <ns3:TrackPointExtension>
            <ns3:hr>109</ns3:hr>
            <ns3:cad>0</ns3:cad>
          </ns3:TrackPointExtension>
        </extensions>
      </trkpt>
      <trkpt lat="37.98888861201703548431396484375" lon="-107.74514825083315372467041015625">
        <ele>3986</ele>
        <time>2026-08-15T17:01:40.000Z</time>
        <extensions>
          <ns3:TrackPointExtension>
            <ns3:hr>109</ns3:hr>
            <ns3:cad>0</ns3:cad>
          </ns3:TrackPointExtension>
        </extensions>
      </trkpt>
      <trkpt lat="37.98888827674090862274169921875" lon="-107.7451399527490139007568359375">
        <ele>3985.60009765625</ele>
        <time>2026-08-15T17:01:41.000Z</time>
        <extensions>
          <ns3:TrackPointExtension>
            <ns3:hr>109</ns3:hr>
            <ns3:cad>0</ns3:cad>
          </ns3:TrackPointExtension>
        </extensions>
      </trkpt>
      <trkpt lat="37.988889031112194061279296875" lon="-107.7451449818909168243408203125">
        <ele>3985.39990234375</ele>
        <time>2026-08-15T17:01:45.000Z</time>
        <extensions>
          <ns3:TrackPointExtension>
            <ns3:hr>106</ns3:hr>
            <ns3:cad>0</ns3:cad>
          </ns3:TrackPointExtension>
        </extensions>
      </trkpt>
      <trkpt lat="37.988894395530223846435546875" lon="-107.74515026248991489410400390625">
        <ele>3984.60009765625</ele>
        <time>2026-08-15T17:01:49.000Z</time>
        <extensions>
          <ns3:TrackPointExtension>
            <ns3:hr>105</ns3:hr>
            <ns3:cad>0</ns3:cad>
          </ns3:TrackPointExtension>
        </extensions>
      </trkpt>
      <trkpt lat="37.9889022745192050933837890625" lon="-107.7451540343463420867919921875">
        <ele>3983.800048828125</ele>
        <time>2026-08-15T17:01:52.000Z</time>
        <extensions>
          <ns3:TrackPointExtension>
            <ns3:hr>103</ns3:hr>
            <ns3:cad>0</ns3:cad>
          </ns3:TrackPointExtension>
        </extensions>
      </trkpt>
      <trkpt lat="37.98890789039433002471923828125" lon="-107.74515596218407154083251953125">
        <ele>3983.60009765625</ele>
        <time>2026-08-15T17:01:54.000Z</time>
        <extensions>
          <ns3:TrackPointExtension>
            <ns3:hr>103</ns3:hr>
            <ns3:cad>0</ns3:cad>
          </ns3:TrackPointExtension>
        </extensions>
      </trkpt>
      <trkpt lat="37.98892716877162456512451171875" lon="-107.7451456524431705474853515625">
        <ele>3983.60009765625</ele>
        <time>2026-08-15T17:01:58.000Z</time>
        <extensions>
          <ns3:TrackPointExtension>
            <ns3:hr>103</ns3:hr>
            <ns3:cad>0</ns3:cad>
          </ns3:TrackPointExtension>
        </extensions>
      </trkpt>
      <trkpt lat="37.98894041217863559722900390625" lon="-107.74514020420610904693603515625">
        <ele>3982.39990234375</ele>
        <time>2026-08-15T17:02:03.000Z</time>
        <extensions>
          <ns3:TrackPointExtension>
            <ns3:hr>101</ns3:hr>
            <ns3:cad>0</ns3:cad>
          </ns3:TrackPointExtension>
        </extensions>
      </trkpt>
      <trkpt lat="37.98894108273088932037353515625" lon="-107.745141796767711639404296875">
        <ele>3982.39990234375</ele>
        <time>2026-08-15T17:02:04.000Z</time>
        <extensions>
          <ns3:TrackPointExtension>
            <ns3:hr>101</ns3:hr>
            <ns3:cad>0</ns3:cad>
          </ns3:TrackPointExtension>
        </extensions>
      </trkpt>
      <trkpt lat="37.98893823288381099700927734375" lon="-107.7451474964618682861328125">
        <ele>3981.39990234375</ele>
        <time>2026-08-15T17:02:10.000Z</time>
        <extensions>
          <ns3:TrackPointExtension>
            <ns3:hr>101</ns3:hr>
            <ns3:cad>0</ns3:cad>
          </ns3:TrackPointExtension>
        </extensions>
      </trkpt>
      <trkpt lat="37.988937310874462127685546875" lon="-107.74514288641512393951416015625">
        <ele>3981.39990234375</ele>
        <time>2026-08-15T17:02:11.000Z</time>
        <extensions>
          <ns3:TrackPointExtension>
            <ns3:hr>102</ns3:hr>
            <ns3:cad>0</ns3:cad>
          </ns3:TrackPointExtension>
        </extensions>
      </trkpt>
      <trkpt lat="37.9889403283596038818359375" lon="-107.74512260220944881439208984375">
        <ele>3980.199951171875</ele>
        <time>2026-08-15T17:02:17.000Z</time>
        <extensions>
          <ns3:TrackPointExtension>
            <ns3:hr>102</ns3:hr>
            <ns3:cad>0</ns3:cad>
          </ns3:TrackPointExtension>
        </extensions>
      </trkpt>
      <trkpt lat="37.9889398254454135894775390625" lon="-107.74510550312697887420654296875">
        <ele>3979.800048828125</ele>
        <time>2026-08-15T17:02:23.000Z</time>
        <extensions>
          <ns3:TrackPointExtension>
            <ns3:hr>101</ns3:hr>
            <ns3:cad>0</ns3:cad>
          </ns3:TrackPointExtension>
        </extensions>
      </trkpt>
      <trkpt lat="37.98894074745476245880126953125" lon="-107.74510416202247142791748046875">
        <ele>3979.60009765625</ele>
        <time>2026-08-15T17:02:24.000Z</time>
        <extensions>
          <ns3:TrackPointExtension>
            <ns3:hr>101</ns3:hr>
            <ns3:cad>0</ns3:cad>
          </ns3:TrackPointExtension>
        </extensions>
      </trkpt>
      <trkpt lat="37.98895130865275859832763671875" lon="-107.7451104484498500823974609375">
        <ele>3979.39990234375</ele>
        <time>2026-08-15T17:02:26.000Z</time>
        <extensions>
          <ns3:TrackPointExtension>
            <ns3:hr>95</ns3:hr>
            <ns3:cad>0</ns3:cad>
          </ns3:TrackPointExtension>
        </extensions>
      </trkpt>
      <trkpt lat="37.98895440995693206787109375" lon="-107.745113633573055267333984375">
        <ele>3979.199951171875</ele>
        <time>2026-08-15T17:02:27.000Z</time>
        <extensions>
          <ns3:TrackPointExtension>
            <ns3:hr>97</ns3:hr>
            <ns3:cad>0</ns3:cad>
          </ns3:TrackPointExtension>
        </extensions>
      </trkpt>
      <trkpt lat="37.9889572598040103912353515625" lon="-107.74511204101145267486572265625">
        <ele>3979</ele>
        <time>2026-08-15T17:02:28.000Z</time>
        <extensions>
          <ns3:TrackPointExtension>
            <ns3:hr>97</ns3:hr>
            <ns3:cad>0</ns3:cad>
          </ns3:TrackPointExtension>
        </extensions>
      </trkpt>
      <trkpt lat="37.98896857537329196929931640625" lon="-107.74509745649993419647216796875">
        <ele>3978.39990234375</ele>
        <time>2026-08-15T17:02:33.000Z</time>
        <extensions>
          <ns3:TrackPointExtension>
            <ns3:hr>94</ns3:hr>
            <ns3:cad>0</ns3:cad>
          </ns3:TrackPointExtension>
        </extensions>
      </trkpt>
      <trkpt lat="37.98897360451519489288330078125" lon="-107.7450856380164623260498046875">
        <ele>3978.199951171875</ele>
        <time>2026-08-15T17:02:35.000Z</time>
        <extensions>
          <ns3:TrackPointExtension>
            <ns3:hr>91</ns3:hr>
            <ns3:cad>0</ns3:cad>
          </ns3:TrackPointExtension>
        </extensions>
      </trkpt>
      <trkpt lat="37.988980896770954132080078125" lon="-107.7450779266655445098876953125">
        <ele>3977.199951171875</ele>
        <time>2026-08-15T17:02:41.000Z</time>
        <extensions>
          <ns3:TrackPointExtension>
            <ns3:hr>91</ns3:hr>
            <ns3:cad>0</ns3:cad>
          </ns3:TrackPointExtension>
        </extensions>
      </trkpt>
      <trkpt lat="37.98898181878030300140380859375" lon="-107.7450785972177982330322265625">
        <ele>3977</ele>
        <time>2026-08-15T17:02:42.000Z</time>
        <extensions>
          <ns3:TrackPointExtension>
            <ns3:hr>92</ns3:hr>
            <ns3:cad>0</ns3:cad>
          </ns3:TrackPointExtension>
        </extensions>
      </trkpt>
      <trkpt lat="37.98899640329182147979736328125" lon="-107.74506577290594577789306640625">
        <ele>3976.39990234375</ele>
        <time>2026-08-15T17:02:47.000Z</time>
        <extensions>
          <ns3:TrackPointExtension>
            <ns3:hr>95</ns3:hr>
            <ns3:cad>0</ns3:cad>
          </ns3:TrackPointExtension>
        </extensions>
      </trkpt>
      <trkpt lat="37.98899925313889980316162109375" lon="-107.7450651861727237701416015625">
        <ele>3976</ele>
        <time>2026-08-15T17:02:49.000Z</time>
        <extensions>
          <ns3:TrackPointExtension>
            <ns3:hr>96</ns3:hr>
            <ns3:cad>0</ns3:cad>
          </ns3:TrackPointExtension>
        </extensions>
      </trkpt>
      <trkpt lat="37.98899757675826549530029296875" lon="-107.7450668625533580780029296875">
        <ele>3975.199951171875</ele>
        <time>2026-08-15T17:02:55.000Z</time>
        <extensions>
          <ns3:TrackPointExtension>
            <ns3:hr>99</ns3:hr>
            <ns3:cad>0</ns3:cad>
          </ns3:TrackPointExtension>
        </extensions>
      </trkpt>
      <trkpt lat="37.989013753831386566162109375" lon="-107.74504699744284152984619140625">
        <ele>3974.800048828125</ele>
        <time>2026-08-15T17:02:58.000Z</time>
        <extensions>
          <ns3:TrackPointExtension>
            <ns3:hr>99</ns3:hr>
            <ns3:cad>0</ns3:cad>
          </ns3:TrackPointExtension>
        </extensions>
      </trkpt>
      <trkpt lat="37.989011742174625396728515625" lon="-107.74506443180143833160400390625">
        <ele>3974.199951171875</ele>
        <time>2026-08-15T17:03:03.000Z</time>
        <extensions>
          <ns3:TrackPointExtension>
            <ns3:hr>102</ns3:hr>
            <ns3:cad>0</ns3:cad>
          </ns3:TrackPointExtension>
        </extensions>
      </trkpt>
      <trkpt lat="37.9890162684023380279541015625" lon="-107.7450675331056118011474609375">
        <ele>3973.800048828125</ele>
        <time>2026-08-15T17:03:05.000Z</time>
        <extensions>
          <ns3:TrackPointExtension>
            <ns3:hr>105</ns3:hr>
            <ns3:cad>0</ns3:cad>
          </ns3:TrackPointExtension>
        </extensions>
      </trkpt>
      <trkpt lat="37.98902054317295551300048828125" lon="-107.74507197551429271697998046875">
        <ele>3973.60009765625</ele>
        <time>2026-08-15T17:03:06.000Z</time>
        <extensions>
          <ns3:TrackPointExtension>
            <ns3:hr>108</ns3:hr>
            <ns3:cad>0</ns3:cad>
          </ns3:TrackPointExtension>
        </extensions>
      </trkpt>
      <trkpt lat="37.989011742174625396728515625" lon="-107.74506443180143833160400390625">
        <ele>3973.60009765625</ele>
        <time>2026-08-15T17:03:08.000Z</time>
        <extensions>
          <ns3:TrackPointExtension>
            <ns3:hr>111</ns3:hr>
            <ns3:cad>0</ns3:cad>
          </ns3:TrackPointExtension>
        </extensions>
      </trkpt>
      <trkpt lat="37.989011742174625396728515625" lon="-107.74506443180143833160400390625">
        <ele>3973.39990234375</ele>
        <time>2026-08-15T17:03:09.000Z</time>
        <extensions>
          <ns3:TrackPointExtension>
            <ns3:hr>112</ns3:hr>
            <ns3:cad>0</ns3:cad>
          </ns3:TrackPointExtension>
        </extensions>
      </trkpt>
      <trkpt lat="37.98904552124440670013427734375" lon="-107.74508672766387462615966796875">
        <ele>3973</ele>
        <time>2026-08-15T17:03:15.000Z</time>
        <extensions>
          <ns3:TrackPointExtension>
            <ns3:hr>114</ns3:hr>
            <ns3:cad>0</ns3:cad>
          </ns3:TrackPointExtension>
        </extensions>
      </trkpt>
      <trkpt lat="37.98904535360634326934814453125" lon="-107.74508957751095294952392578125">
        <ele>3973</ele>
        <time>2026-08-15T17:03:16.000Z</time>
        <extensions>
          <ns3:TrackPointExtension>
            <ns3:hr>114</ns3:hr>
            <ns3:cad>0</ns3:cad>
          </ns3:TrackPointExtension>
        </extensions>
      </trkpt>
      <trkpt lat="37.9890813119709491729736328125" lon="-107.74508907459676265716552734375">
        <ele>3972.800048828125</ele>
        <time>2026-08-15T17:03:21.000Z</time>
        <extensions>
          <ns3:TrackPointExtension>
            <ns3:hr>113</ns3:hr>
            <ns3:cad>50</ns3:cad>
          </ns3:TrackPointExtension>
        </extensions>
      </trkpt>
      <trkpt lat="37.98909061588346958160400390625" lon="-107.74509343318641185760498046875">
        <ele>3972.60009765625</ele>
        <time>2026-08-15T17:03:23.000Z</time>
        <extensions>
          <ns3:TrackPointExtension>
            <ns3:hr>113</ns3:hr>
            <ns3:cad>50</ns3:cad>
          </ns3:TrackPointExtension>
        </extensions>
      </trkpt>
      <trkpt lat="37.98910017125308513641357421875" lon="-107.74509896524250507354736328125">
        <ele>3971.39990234375</ele>
        <time>2026-08-15T17:03:27.000Z</time>
        <extensions>
          <ns3:TrackPointExtension>
            <ns3:hr>112</ns3:hr>
            <ns3:cad>0</ns3:cad>
          </ns3:TrackPointExtension>
        </extensions>
      </trkpt>
      <trkpt lat="37.98910997807979583740234375" lon="-107.7450782619416713714599609375">
        <ele>3970.60009765625</ele>
        <time>2026-08-15T17:03:33.000Z</time>
        <extensions>
          <ns3:TrackPointExtension>
            <ns3:hr>112</ns3:hr>
            <ns3:cad>0</ns3:cad>
          </ns3:TrackPointExtension>
        </extensions>
      </trkpt>
      <trkpt lat="37.9891118220984935760498046875" lon="-107.7450739033520221710205078125">
        <ele>3970.39990234375</ele>
        <time>2026-08-15T17:03:34.000Z</time>
        <extensions>
          <ns3:TrackPointExtension>
            <ns3:hr>112</ns3:hr>
            <ns3:cad>0</ns3:cad>
          </ns3:TrackPointExtension>
        </extensions>
      </trkpt>
      <trkpt lat="37.98911257646977901458740234375" lon="-107.74505303241312503814697265625">
        <ele>3969.39990234375</ele>
        <time>2026-08-15T17:03:39.000Z</time>
        <extensions>
          <ns3:TrackPointExtension>
            <ns3:hr>112</ns3:hr>
            <ns3:cad>0</ns3:cad>
          </ns3:TrackPointExtension>
        </extensions>
      </trkpt>
      <trkpt lat="37.989109642803668975830078125" lon="-107.74505286477506160736083984375">
        <ele>3969.199951171875</ele>
        <time>2026-08-15T17:03:40.000Z</time>
        <extensions>
          <ns3:TrackPointExtension>
            <ns3:hr>112</ns3:hr>
            <ns3:cad>0</ns3:cad>
          </ns3:TrackPointExtension>
        </extensions>
      </trkpt>
      <trkpt lat="37.98913009464740753173828125" lon="-107.74506074376404285430908203125">
        <ele>3968.39990234375</ele>
        <time>2026-08-15T17:03:46.000Z</time>
        <extensions>
          <ns3:TrackPointExtension>
            <ns3:hr>112</ns3:hr>
            <ns3:cad>0</ns3:cad>
          </ns3:TrackPointExtension>
        </extensions>
      </trkpt>
      <trkpt lat="37.98913411796092987060546875" lon="-107.74506560526788234710693359375">
        <ele>3968.199951171875</ele>
        <time>2026-08-15T17:03:48.000Z</time>
        <extensions>
          <ns3:TrackPointExtension>
            <ns3:hr>114</ns3:hr>
            <ns3:cad>0</ns3:cad>
          </ns3:TrackPointExtension>
        </extensions>
      </trkpt>
      <trkpt lat="37.989143170416355133056640625" lon="-107.7450698800384998321533203125">
        <ele>3967</ele>
        <time>2026-08-15T17:03:53.000Z</time>
        <extensions>
          <ns3:TrackPointExtension>
            <ns3:hr>116</ns3:hr>
            <ns3:cad>0</ns3:cad>
          </ns3:TrackPointExtension>
        </extensions>
      </trkpt>
      <trkpt lat="37.98915280960500240325927734375" lon="-107.74505588226020336151123046875">
        <ele>3966.39990234375</ele>
        <time>2026-08-15T17:03:56.000Z</time>
        <extensions>
          <ns3:TrackPointExtension>
            <ns3:hr>113</ns3:hr>
            <ns3:cad>0</ns3:cad>
          </ns3:TrackPointExtension>
        </extensions>
      </trkpt>
      <trkpt lat="37.98915582709014415740966796875" lon="-107.7450423873960971832275390625">
        <ele>3965.800048828125</ele>
        <time>2026-08-15T17:03:59.000Z</time>
        <extensions>
          <ns3:TrackPointExtension>
            <ns3:hr>112</ns3:hr>
            <ns3:cad>0</ns3:cad>
          </ns3:TrackPointExtension>
        </extensions>
      </trkpt>
      <trkpt lat="37.98915817402303218841552734375" lon="-107.7450133860111236572265625">
        <ele>3964.60009765625</ele>
        <time>2026-08-15T17:04:05.000Z</time>
        <extensions>
          <ns3:TrackPointExtension>
            <ns3:hr>112</ns3:hr>
            <ns3:cad>0</ns3:cad>
          </ns3:TrackPointExtension>
        </extensions>
      </trkpt>
      <trkpt lat="37.98916337080299854278564453125" lon="-107.74500735104084014892578125">
        <ele>3964.39990234375</ele>
        <time>2026-08-15T17:04:06.000Z</time>
        <extensions>
          <ns3:TrackPointExtension>
            <ns3:hr>111</ns3:hr>
            <ns3:cad>0</ns3:cad>
          </ns3:TrackPointExtension>
        </extensions>
      </trkpt>
      <trkpt lat="37.98917057923972606658935546875" lon="-107.74500072933733463287353515625">
        <ele>3963.800048828125</ele>
        <time>2026-08-15T17:04:10.000Z</time>
        <extensions>
          <ns3:TrackPointExtension>
            <ns3:hr>108</ns3:hr>
            <ns3:cad>0</ns3:cad>
          </ns3:TrackPointExtension>
        </extensions>
      </trkpt>
      <trkpt lat="37.9891704954206943511962890625" lon="-107.7449927665293216705322265625">
        <ele>3963.800048828125</ele>
        <time>2026-08-15T17:04:12.000Z</time>
        <extensions>
          <ns3:TrackPointExtension>
            <ns3:hr>108</ns3:hr>
            <ns3:cad>0</ns3:cad>
          </ns3:TrackPointExtension>
        </extensions>
      </trkpt>
      <trkpt lat="37.98917057923972606658935546875" lon="-107.7449870668351650238037109375">
        <ele>3963.39990234375</ele>
        <time>2026-08-15T17:04:13.000Z</time>
        <extensions>
          <ns3:TrackPointExtension>
            <ns3:hr>108</ns3:hr>
            <ns3:cad>0</ns3:cad>
          </ns3:TrackPointExtension>
        </extensions>
      </trkpt>
      <trkpt lat="37.98918130807578563690185546875" lon="-107.74496309459209442138671875">
        <ele>3962.60009765625</ele>
        <time>2026-08-15T17:04:18.000Z</time>
        <extensions>
          <ns3:TrackPointExtension>
            <ns3:hr>102</ns3:hr>
            <ns3:cad>0</ns3:cad>
          </ns3:TrackPointExtension>
        </extensions>
      </trkpt>
      <trkpt lat="37.9891822300851345062255859375" lon="-107.7449570596218109130859375">
        <ele>3962.60009765625</ele>
        <time>2026-08-15T17:04:19.000Z</time>
        <extensions>
          <ns3:TrackPointExtension>
            <ns3:hr>98</ns3:hr>
            <ns3:cad>0</ns3:cad>
          </ns3:TrackPointExtension>
        </extensions>
      </trkpt>
      <trkpt lat="37.98918399028480052947998046875" lon="-107.7449485100805759429931640625">
        <ele>3962.39990234375</ele>
        <time>2026-08-15T17:04:21.000Z</time>
        <extensions>
          <ns3:TrackPointExtension>
            <ns3:hr>96</ns3:hr>
            <ns3:cad>0</ns3:cad>
          </ns3:TrackPointExtension>
        </extensions>
      </trkpt>
      <trkpt lat="37.98918298445641994476318359375" lon="-107.744944989681243896484375">
        <ele>3961.39990234375</ele>
        <time>2026-08-15T17:04:25.000Z</time>
        <extensions>
          <ns3:TrackPointExtension>
            <ns3:hr>100</ns3:hr>
            <ns3:cad>0</ns3:cad>
          </ns3:TrackPointExtension>
        </extensions>
      </trkpt>
      <trkpt lat="37.98918507993221282958984375" lon="-107.744939625263214111328125">
        <ele>3961.199951171875</ele>
        <time>2026-08-15T17:04:26.000Z</time>
        <extensions>
          <ns3:TrackPointExtension>
            <ns3:hr>101</ns3:hr>
            <ns3:cad>0</ns3:cad>
          </ns3:TrackPointExtension>
        </extensions>
      </trkpt>
      <trkpt lat="37.98918717540800571441650390625" lon="-107.74493199773132801055908203125">
        <ele>3960.800048828125</ele>
        <time>2026-08-15T17:04:29.000Z</time>
        <extensions>
          <ns3:TrackPointExtension>
            <ns3:hr>104</ns3:hr>
            <ns3:cad>0</ns3:cad>
          </ns3:TrackPointExtension>
        </extensions>
      </trkpt>
      <trkpt lat="37.989191450178623199462890625" lon="-107.74493333883583545684814453125">
        <ele>3960.60009765625</ele>
        <time>2026-08-15T17:04:30.000Z</time>
        <extensions>
          <ns3:TrackPointExtension>
            <ns3:hr>104</ns3:hr>
            <ns3:cad>0</ns3:cad>
          </ns3:TrackPointExtension>
        </extensions>
      </trkpt>
      <trkpt lat="37.989199161529541015625" lon="-107.74491892196238040924072265625">
        <ele>3960.199951171875</ele>
        <time>2026-08-15T17:04:35.000Z</time>
        <extensions>
          <ns3:TrackPointExtension>
            <ns3:hr>105</ns3:hr>
            <ns3:cad>0</ns3:cad>
          </ns3:TrackPointExtension>
        </extensions>
      </trkpt>
      <trkpt lat="37.9892140813171863555908203125" lon="-107.74490199051797389984130859375">
        <ele>3959.800048828125</ele>
        <time>2026-08-15T17:04:38.000Z</time>
        <extensions>
          <ns3:TrackPointExtension>
            <ns3:hr>106</ns3:hr>
            <ns3:cad>0</ns3:cad>
          </ns3:TrackPointExtension>
        </extensions>
      </trkpt>
      <trkpt lat="37.9892258159816265106201171875" lon="-107.7449032478034496307373046875">
        <ele>3959</ele>
        <time>2026-08-15T17:04:41.000Z</time>
        <extensions>
          <ns3:TrackPointExtension>
            <ns3:hr>106</ns3:hr>
            <ns3:cad>0</ns3:cad>
          </ns3:TrackPointExtension>
        </extensions>
      </trkpt>
      <trkpt lat="37.9892261512577533721923828125" lon="-107.74490408599376678466796875">
        <ele>3958.39990234375</ele>
        <time>2026-08-15T17:04:43.000Z</time>
        <extensions>
          <ns3:TrackPointExtension>
            <ns3:hr>106</ns3:hr>
            <ns3:cad>0</ns3:cad>
          </ns3:TrackPointExtension>
        </extensions>
      </trkpt>
      <trkpt lat="37.9892352037131786346435546875" lon="-107.7449086122214794158935546875">
        <ele>3958</ele>
        <time>2026-08-15T17:04:49.000Z</time>
        <extensions>
          <ns3:TrackPointExtension>
            <ns3:hr>106</ns3:hr>
            <ns3:cad>0</ns3:cad>
          </ns3:TrackPointExtension>
        </extensions>
      </trkpt>
      <trkpt lat="37.9892415739595890045166015625" lon="-107.74490567855536937713623046875">
        <ele>3958</ele>
        <time>2026-08-15T17:04:51.000Z</time>
        <extensions>
          <ns3:TrackPointExtension>
            <ns3:hr>108</ns3:hr>
            <ns3:cad>0</ns3:cad>
          </ns3:TrackPointExtension>
        </extensions>
      </trkpt>
      <trkpt lat="37.98925640992820262908935546875" lon="-107.74490500800311565399169921875">
        <ele>3957.39990234375</ele>
        <time>2026-08-15T17:04:54.000Z</time>
        <extensions>
          <ns3:TrackPointExtension>
            <ns3:hr>112</ns3:hr>
            <ns3:cad>0</ns3:cad>
          </ns3:TrackPointExtension>
        </extensions>
      </trkpt>
      <trkpt lat="37.98925749957561492919921875" lon="-107.744905762374401092529296875">
        <ele>3957</ele>
        <time>2026-08-15T17:04:56.000Z</time>
        <extensions>
          <ns3:TrackPointExtension>
            <ns3:hr>114</ns3:hr>
            <ns3:cad>0</ns3:cad>
          </ns3:TrackPointExtension>
        </extensions>
      </trkpt>
      <trkpt lat="37.98925749957561492919921875" lon="-107.744905762374401092529296875">
        <ele>3956.800048828125</ele>
        <time>2026-08-15T17:04:57.000Z</time>
        <extensions>
          <ns3:TrackPointExtension>
            <ns3:hr>114</ns3:hr>
            <ns3:cad>0</ns3:cad>
          </ns3:TrackPointExtension>
        </extensions>
      </trkpt>
      <trkpt lat="37.98927015624940395355224609375" lon="-107.74490484036505222320556640625">
        <ele>3956.60009765625</ele>
        <time>2026-08-15T17:04:59.000Z</time>
        <extensions>
          <ns3:TrackPointExtension>
            <ns3:hr>118</ns3:hr>
            <ns3:cad>19</ns3:cad>
          </ns3:TrackPointExtension>
        </extensions>
      </trkpt>
      <trkpt lat="37.98928742296993732452392578125" lon="-107.7449092827737331390380859375">
        <ele>3956.60009765625</ele>
        <time>2026-08-15T17:05:02.000Z</time>
        <extensions>
          <ns3:TrackPointExtension>
            <ns3:hr>117</ns3:hr>
            <ns3:cad>60</ns3:cad>
          </ns3:TrackPointExtension>
        </extensions>
      </trkpt>
      <trkpt lat="37.98928432166576385498046875" lon="-107.74490249343216419219970703125">
        <ele>3955.800048828125</ele>
        <time>2026-08-15T17:05:07.000Z</time>
        <extensions>
          <ns3:TrackPointExtension>
            <ns3:hr>114</ns3:hr>
            <ns3:cad>0</ns3:cad>
          </ns3:TrackPointExtension>
        </extensions>
      </trkpt>
      <trkpt lat="37.98928557895123958587646484375" lon="-107.744899056851863861083984375">
        <ele>3955.800048828125</ele>
        <time>2026-08-15T17:05:09.000Z</time>
        <extensions>
          <ns3:TrackPointExtension>
            <ns3:hr>114</ns3:hr>
            <ns3:cad>0</ns3:cad>
          </ns3:TrackPointExtension>
        </extensions>
      </trkpt>
      <trkpt lat="37.98928373493254184722900390625" lon="-107.74487935937941074371337890625">
        <ele>3955.199951171875</ele>
        <time>2026-08-15T17:05:15.000Z</time>
        <extensions>
          <ns3:TrackPointExtension>
            <ns3:hr>114</ns3:hr>
            <ns3:cad>0</ns3:cad>
          </ns3:TrackPointExtension>
        </extensions>
      </trkpt>
      <trkpt lat="37.98928155563771724700927734375" lon="-107.744878940284252166748046875">
        <ele>3955</ele>
        <time>2026-08-15T17:05:17.000Z</time>
        <extensions>
          <ns3:TrackPointExtension>
            <ns3:hr>113</ns3:hr>
            <ns3:cad>0</ns3:cad>
          </ns3:TrackPointExtension>
        </extensions>
      </trkpt>
      <trkpt lat="37.9892908595502376556396484375" lon="-107.74485505186021327972412109375">
        <ele>3954.60009765625</ele>
        <time>2026-08-15T17:05:22.000Z</time>
        <extensions>
          <ns3:TrackPointExtension>
            <ns3:hr>113</ns3:hr>
            <ns3:cad>0</ns3:cad>
          </ns3:TrackPointExtension>
        </extensions>
      </trkpt>
      <trkpt lat="37.98929345794022083282470703125" lon="-107.74482085369527339935302734375">
        <ele>3953.60009765625</ele>
        <time>2026-08-15T17:05:28.000Z</time>
        <extensions>
          <ns3:TrackPointExtension>
            <ns3:hr>113</ns3:hr>
            <ns3:cad>0</ns3:cad>
          </ns3:TrackPointExtension>
        </extensions>
      </trkpt>
      <trkpt lat="37.98930100165307521820068359375" lon="-107.74481557309627532958984375">
        <ele>3953.60009765625</ele>
        <time>2026-08-15T17:05:29.000Z</time>
        <extensions>
          <ns3:TrackPointExtension>
            <ns3:hr>113</ns3:hr>
            <ns3:cad>0</ns3:cad>
          </ns3:TrackPointExtension>
        </extensions>
      </trkpt>
      <trkpt lat="37.9893082939088344573974609375" lon="-107.7448130585253238677978515625">
        <ele>3953.39990234375</ele>
        <time>2026-08-15T17:05:35.000Z</time>
        <extensions>
          <ns3:TrackPointExtension>
            <ns3:hr>113</ns3:hr>
            <ns3:cad>0</ns3:cad>
          </ns3:TrackPointExtension>
        </extensions>
      </trkpt>
      <trkpt lat="37.989320866763591766357421875" lon="-107.74480995722115039825439453125">
        <ele>3953.199951171875</ele>
        <time>2026-08-15T17:05:37.000Z</time>
        <extensions>
          <ns3:TrackPointExtension>
            <ns3:hr>114</ns3:hr>
            <ns3:cad>0</ns3:cad>
          </ns3:TrackPointExtension>
        </extensions>
      </trkpt>
      <trkpt lat="37.989332936704158782958984375" lon="-107.7448013238608837127685546875">
        <ele>3952.60009765625</ele>
        <time>2026-08-15T17:05:41.000Z</time>
        <extensions>
          <ns3:TrackPointExtension>
            <ns3:hr>117</ns3:hr>
            <ns3:cad>0</ns3:cad>
          </ns3:TrackPointExtension>
        </extensions>
      </trkpt>
      <trkpt lat="37.989334948360919952392578125" lon="-107.7447989769279956817626953125">
        <ele>3952.60009765625</ele>
        <time>2026-08-15T17:05:42.000Z</time>
        <extensions>
          <ns3:TrackPointExtension>
            <ns3:hr>118</ns3:hr>
            <ns3:cad>0</ns3:cad>
          </ns3:TrackPointExtension>
        </extensions>
      </trkpt>
      <trkpt lat="37.98933804966509342193603515625" lon="-107.74479218758642673492431640625">
        <ele>3952.199951171875</ele>
        <time>2026-08-15T17:05:44.000Z</time>
        <extensions>
          <ns3:TrackPointExtension>
            <ns3:hr>118</ns3:hr>
            <ns3:cad>0</ns3:cad>
          </ns3:TrackPointExtension>
        </extensions>
      </trkpt>
      <trkpt lat="37.98935003578662872314453125" lon="-107.7447800338268280029296875">
        <ele>3951.800048828125</ele>
        <time>2026-08-15T17:05:50.000Z</time>
        <extensions>
          <ns3:TrackPointExtension>
            <ns3:hr>117</ns3:hr>
            <ns3:cad>65</ns3:cad>
          </ns3:TrackPointExtension>
        </extensions>
      </trkpt>
      <trkpt lat="37.98935749568045139312744140625" lon="-107.74478548206388950347900390625">
        <ele>3951.39990234375</ele>
        <time>2026-08-15T17:05:53.000Z</time>
        <extensions>
          <ns3:TrackPointExtension>
            <ns3:hr>116</ns3:hr>
            <ns3:cad>0</ns3:cad>
          </ns3:TrackPointExtension>
        </extensions>
      </trkpt>
      <trkpt lat="37.9893676377832889556884765625" lon="-107.7447869069874286651611328125">
        <ele>3951</ele>
        <time>2026-08-15T17:05:56.000Z</time>
        <extensions>
          <ns3:TrackPointExtension>
            <ns3:hr>113</ns3:hr>
            <ns3:cad>0</ns3:cad>
          </ns3:TrackPointExtension>
        </extensions>
      </trkpt>
      <trkpt lat="37.9893817193806171417236328125" lon="-107.744789756834506988525390625">
        <ele>3951</ele>
        <time>2026-08-15T17:05:58.000Z</time>
        <extensions>
          <ns3:TrackPointExtension>
            <ns3:hr>112</ns3:hr>
            <ns3:cad>0</ns3:cad>
          </ns3:TrackPointExtension>
        </extensions>
      </trkpt>
      <trkpt lat="37.9893837310373783111572265625" lon="-107.7447719871997833251953125">
        <ele>3950.39990234375</ele>
        <time>2026-08-15T17:06:03.000Z</time>
        <extensions>
          <ns3:TrackPointExtension>
            <ns3:hr>114</ns3:hr>
            <ns3:cad>0</ns3:cad>
          </ns3:TrackPointExtension>
        </extensions>
      </trkpt>
      <trkpt lat="37.98938867636024951934814453125" lon="-107.7447708137333393096923828125">
        <ele>3950.199951171875</ele>
        <time>2026-08-15T17:06:05.000Z</time>
        <extensions>
          <ns3:TrackPointExtension>
            <ns3:hr>112</ns3:hr>
            <ns3:cad>0</ns3:cad>
          </ns3:TrackPointExtension>
        </extensions>
      </trkpt>
      <trkpt lat="37.98939588479697704315185546875" lon="-107.744768299162387847900390625">
        <ele>3949.800048828125</ele>
        <time>2026-08-15T17:06:07.000Z</time>
        <extensions>
          <ns3:TrackPointExtension>
            <ns3:hr>107</ns3:hr>
            <ns3:cad>0</ns3:cad>
          </ns3:TrackPointExtension>
        </extensions>
      </trkpt>
      <trkpt lat="37.98940326087176799774169921875" lon="-107.744764946401119232177734375">
        <ele>3949.39990234375</ele>
        <time>2026-08-15T17:06:09.000Z</time>
        <extensions>
          <ns3:TrackPointExtension>
            <ns3:hr>104</ns3:hr>
            <ns3:cad>0</ns3:cad>
          </ns3:TrackPointExtension>
        </extensions>
      </trkpt>
      <trkpt lat="37.98941063694655895233154296875" lon="-107.7447607554495334625244140625">
        <ele>3949.39990234375</ele>
        <time>2026-08-15T17:06:10.000Z</time>
        <extensions>
          <ns3:TrackPointExtension>
            <ns3:hr>103</ns3:hr>
            <ns3:cad>0</ns3:cad>
          </ns3:TrackPointExtension>
        </extensions>
      </trkpt>
      <trkpt lat="37.98942371271550655364990234375" lon="-107.744752205908298492431640625">
        <ele>3949.199951171875</ele>
        <time>2026-08-15T17:06:13.000Z</time>
        <extensions>
          <ns3:TrackPointExtension>
            <ns3:hr>102</ns3:hr>
            <ns3:cad>0</ns3:cad>
          </ns3:TrackPointExtension>
        </extensions>
      </trkpt>
      <trkpt lat="37.98944014124572277069091796875" lon="-107.74474038742482662200927734375">
        <ele>3948.39990234375</ele>
        <time>2026-08-15T17:06:19.000Z</time>
        <extensions>
          <ns3:TrackPointExtension>
            <ns3:hr>100</ns3:hr>
            <ns3:cad>0</ns3:cad>
          </ns3:TrackPointExtension>
        </extensions>
      </trkpt>
      <trkpt lat="37.98945070244371891021728515625" lon="-107.74471641518175601959228515625">
        <ele>3948.60009765625</ele>
        <time>2026-08-15T17:06:25.000Z</time>
        <extensions>
          <ns3:TrackPointExtension>
            <ns3:hr>100</ns3:hr>
            <ns3:cad>0</ns3:cad>
          </ns3:TrackPointExtension>
        </extensions>
      </trkpt>
      <trkpt lat="37.98945221118628978729248046875" lon="-107.74471272714436054229736328125">
        <ele>3948.60009765625</ele>
        <time>2026-08-15T17:06:26.000Z</time>
        <extensions>
          <ns3:TrackPointExtension>
            <ns3:hr>99</ns3:hr>
            <ns3:cad>0</ns3:cad>
          </ns3:TrackPointExtension>
        </extensions>
      </trkpt>
      <trkpt lat="37.9894534684717655181884765625" lon="-107.74471423588693141937255859375">
        <ele>3948.60009765625</ele>
        <time>2026-08-15T17:06:27.000Z</time>
        <extensions>
          <ns3:TrackPointExtension>
            <ns3:hr>96</ns3:hr>
            <ns3:cad>0</ns3:cad>
          </ns3:TrackPointExtension>
        </extensions>
      </trkpt>
      <trkpt lat="37.98945439048111438751220703125" lon="-107.7447138167917728424072265625">
        <ele>3948.39990234375</ele>
        <time>2026-08-15T17:06:28.000Z</time>
        <extensions>
          <ns3:TrackPointExtension>
            <ns3:hr>92</ns3:hr>
            <ns3:cad>0</ns3:cad>
          </ns3:TrackPointExtension>
        </extensions>
      </trkpt>
      <trkpt lat="37.9894554801285266876220703125" lon="-107.7447129786014556884765625">
        <ele>3948.199951171875</ele>
        <time>2026-08-15T17:06:29.000Z</time>
        <extensions>
          <ns3:TrackPointExtension>
            <ns3:hr>91</ns3:hr>
            <ns3:cad>0</ns3:cad>
          </ns3:TrackPointExtension>
        </extensions>
      </trkpt>
      <trkpt lat="37.9894605092704296112060546875" lon="-107.74470602162182331085205078125">
        <ele>3947.800048828125</ele>
        <time>2026-08-15T17:06:31.000Z</time>
        <extensions>
          <ns3:TrackPointExtension>
            <ns3:hr>88</ns3:hr>
            <ns3:cad>0</ns3:cad>
          </ns3:TrackPointExtension>
        </extensions>
      </trkpt>
      <trkpt lat="37.989463023841381072998046875" lon="-107.74470434524118900299072265625">
        <ele>3947.60009765625</ele>
        <time>2026-08-15T17:06:34.000Z</time>
        <extensions>
          <ns3:TrackPointExtension>
            <ns3:hr>87</ns3:hr>
            <ns3:cad>0</ns3:cad>
          </ns3:TrackPointExtension>
        </extensions>
      </trkpt>
      <trkpt lat="37.9894829727709293365478515625" lon="-107.7446866594254970550537109375">
        <ele>3947.39990234375</ele>
        <time>2026-08-15T17:06:40.000Z</time>
        <extensions>
          <ns3:TrackPointExtension>
            <ns3:hr>87</ns3:hr>
            <ns3:cad>0</ns3:cad>
          </ns3:TrackPointExtension>
        </extensions>
      </trkpt>
      <trkpt lat="37.989483810961246490478515625" lon="-107.744685821235179901123046875">
        <ele>3947.199951171875</ele>
        <time>2026-08-15T17:06:41.000Z</time>
        <extensions>
          <ns3:TrackPointExtension>
            <ns3:hr>88</ns3:hr>
            <ns3:cad>0</ns3:cad>
          </ns3:TrackPointExtension>
        </extensions>
      </trkpt>
      <trkpt lat="37.989495210349559783935546875" lon="-107.744680456817150115966796875">
        <ele>3946.60009765625</ele>
        <time>2026-08-15T17:06:47.000Z</time>
        <extensions>
          <ns3:TrackPointExtension>
            <ns3:hr>88</ns3:hr>
            <ns3:cad>0</ns3:cad>
          </ns3:TrackPointExtension>
        </extensions>
      </trkpt>
      <trkpt lat="37.9895010776817798614501953125" lon="-107.74468188174068927764892578125">
        <ele>3946.199951171875</ele>
        <time>2026-08-15T17:06:50.000Z</time>
        <extensions>
          <ns3:TrackPointExtension>
            <ns3:hr>88</ns3:hr>
            <ns3:cad>0</ns3:cad>
          </ns3:TrackPointExtension>
        </extensions>
      </trkpt>
      <trkpt lat="37.98950937576591968536376953125" lon="-107.74468422867357730865478515625">
        <ele>3946</ele>
        <time>2026-08-15T17:06:52.000Z</time>
        <extensions>
          <ns3:TrackPointExtension>
            <ns3:hr>88</ns3:hr>
            <ns3:cad>0</ns3:cad>
          </ns3:TrackPointExtension>
        </extensions>
      </trkpt>
      <trkpt lat="37.98952697776257991790771484375" lon="-107.74467987008392810821533203125">
        <ele>3945</ele>
        <time>2026-08-15T17:06:58.000Z</time>
        <extensions>
          <ns3:TrackPointExtension>
            <ns3:hr>91</ns3:hr>
            <ns3:cad>0</ns3:cad>
          </ns3:TrackPointExtension>
        </extensions>
      </trkpt>
      <trkpt lat="37.98953108489513397216796875" lon="-107.74467878043651580810546875">
        <ele>3944.800048828125</ele>
        <time>2026-08-15T17:06:59.000Z</time>
        <extensions>
          <ns3:TrackPointExtension>
            <ns3:hr>91</ns3:hr>
            <ns3:cad>0</ns3:cad>
          </ns3:TrackPointExtension>
        </extensions>
      </trkpt>
      <trkpt lat="37.9895379580557346343994140625" lon="-107.74468020536005496978759765625">
        <ele>3944.39990234375</ele>
        <time>2026-08-15T17:07:03.000Z</time>
        <extensions>
          <ns3:TrackPointExtension>
            <ns3:hr>94</ns3:hr>
            <ns3:cad>0</ns3:cad>
          </ns3:TrackPointExtension>
        </extensions>
      </trkpt>
      <trkpt lat="37.9895426519215106964111328125" lon="-107.744666039943695068359375">
        <ele>3944.199951171875</ele>
        <time>2026-08-15T17:07:07.000Z</time>
        <extensions>
          <ns3:TrackPointExtension>
            <ns3:hr>96</ns3:hr>
            <ns3:cad>0</ns3:cad>
          </ns3:TrackPointExtension>
        </extensions>
      </trkpt>
      <trkpt lat="37.98954977653920650482177734375" lon="-107.74466344155371189117431640625">
        <ele>3943.800048828125</ele>
        <time>2026-08-15T17:07:11.000Z</time>
        <extensions>
          <ns3:TrackPointExtension>
            <ns3:hr>98</ns3:hr>
            <ns3:cad>0</ns3:cad>
          </ns3:TrackPointExtension>
        </extensions>
      </trkpt>
      <trkpt lat="37.9895540513098239898681640625" lon="-107.7446652017533779144287109375">
        <ele>3943.800048828125</ele>
        <time>2026-08-15T17:07:13.000Z</time>
        <extensions>
          <ns3:TrackPointExtension>
            <ns3:hr>102</ns3:hr>
            <ns3:cad>0</ns3:cad>
          </ns3:TrackPointExtension>
        </extensions>
      </trkpt>
      <trkpt lat="37.98955857753753662109375" lon="-107.74465874768793582916259765625">
        <ele>3943.60009765625</ele>
        <time>2026-08-15T17:07:14.000Z</time>
        <extensions>
          <ns3:TrackPointExtension>
            <ns3:hr>105</ns3:hr>
            <ns3:cad>0</ns3:cad>
          </ns3:TrackPointExtension>
        </extensions>
      </trkpt>
      <trkpt lat="37.98957877792418003082275390625" lon="-107.74465505965054035186767578125">
        <ele>3943</ele>
        <time>2026-08-15T17:07:20.000Z</time>
        <extensions>
          <ns3:TrackPointExtension>
            <ns3:hr>105</ns3:hr>
            <ns3:cad>0</ns3:cad>
          </ns3:TrackPointExtension>
        </extensions>
      </trkpt>
      <trkpt lat="37.98958430998027324676513671875" lon="-107.74466059170663356781005859375">
        <ele>3942.800048828125</ele>
        <time>2026-08-15T17:07:21.000Z</time>
        <extensions>
          <ns3:TrackPointExtension>
            <ns3:hr>105</ns3:hr>
            <ns3:cad>0</ns3:cad>
          </ns3:TrackPointExtension>
        </extensions>
      </trkpt>
      <trkpt lat="37.98959654755890369415283203125" lon="-107.74465598165988922119140625">
        <ele>3942.39990234375</ele>
        <time>2026-08-15T17:07:27.000Z</time>
        <extensions>
          <ns3:TrackPointExtension>
            <ns3:hr>104</ns3:hr>
            <ns3:cad>0</ns3:cad>
          </ns3:TrackPointExtension>
        </extensions>
      </trkpt>
      <trkpt lat="37.989605851471424102783203125" lon="-107.7446517907083034515380859375">
        <ele>3941.60009765625</ele>
        <time>2026-08-15T17:07:32.000Z</time>
        <extensions>
          <ns3:TrackPointExtension>
            <ns3:hr>102</ns3:hr>
            <ns3:cad>0</ns3:cad>
          </ns3:TrackPointExtension>
        </extensions>
      </trkpt>
      <trkpt lat="37.9896076954901218414306640625" lon="-107.74464332498610019683837890625">
        <ele>3941.39990234375</ele>
        <time>2026-08-15T17:07:33.000Z</time>
        <extensions>
          <ns3:TrackPointExtension>
            <ns3:hr>102</ns3:hr>
            <ns3:cad>0</ns3:cad>
          </ns3:TrackPointExtension>
        </extensions>
      </trkpt>
      <trkpt lat="37.98962001688778400421142578125" lon="-107.74462781846523284912109375">
        <ele>3940.60009765625</ele>
        <time>2026-08-15T17:07:38.000Z</time>
        <extensions>
          <ns3:TrackPointExtension>
            <ns3:hr>100</ns3:hr>
            <ns3:cad>0</ns3:cad>
          </ns3:TrackPointExtension>
        </extensions>
      </trkpt>
      <trkpt lat="37.9896241240203380584716796875" lon="-107.7446222864091396331787109375">
        <ele>3940.60009765625</ele>
        <time>2026-08-15T17:07:40.000Z</time>
        <extensions>
          <ns3:TrackPointExtension>
            <ns3:hr>101</ns3:hr>
            <ns3:cad>0</ns3:cad>
          </ns3:TrackPointExtension>
        </extensions>
      </trkpt>
      <trkpt lat="37.98962051980197429656982421875" lon="-107.744623124599456787109375">
        <ele>3940</ele>
        <time>2026-08-15T17:07:46.000Z</time>
        <extensions>
          <ns3:TrackPointExtension>
            <ns3:hr>98</ns3:hr>
            <ns3:cad>0</ns3:cad>
          </ns3:TrackPointExtension>
        </extensions>
      </trkpt>
      <trkpt lat="37.98962823115289211273193359375" lon="-107.7446115575730800628662109375">
        <ele>3939.39990234375</ele>
        <time>2026-08-15T17:07:50.000Z</time>
        <extensions>
          <ns3:TrackPointExtension>
            <ns3:hr>98</ns3:hr>
            <ns3:cad>0</ns3:cad>
          </ns3:TrackPointExtension>
        </extensions>
      </trkpt>
      <trkpt lat="37.9896532930433750152587890625" lon="-107.74460443295538425445556640625">
        <ele>3939</ele>
        <time>2026-08-15T17:07:56.000Z</time>
        <extensions>
          <ns3:TrackPointExtension>
            <ns3:hr>99</ns3:hr>
            <ns3:cad>0</ns3:cad>
          </ns3:TrackPointExtension>
        </extensions>
      </trkpt>
      <trkpt lat="37.9896656982600688934326171875" lon="-107.744595296680927276611328125">
        <ele>3938.39990234375</ele>
        <time>2026-08-15T17:08:02.000Z</time>
        <extensions>
          <ns3:TrackPointExtension>
            <ns3:hr>98</ns3:hr>
            <ns3:cad>0</ns3:cad>
          </ns3:TrackPointExtension>
        </extensions>
      </trkpt>
      <trkpt lat="37.9896656982600688934326171875" lon="-107.744595296680927276611328125">
        <ele>3938.199951171875</ele>
        <time>2026-08-15T17:08:04.000Z</time>
        <extensions>
          <ns3:TrackPointExtension>
            <ns3:hr>98</ns3:hr>
            <ns3:cad>0</ns3:cad>
          </ns3:TrackPointExtension>
        </extensions>
      </trkpt>
      <trkpt lat="37.9896656982600688934326171875" lon="-107.744595296680927276611328125">
        <ele>3937.60009765625</ele>
        <time>2026-08-15T17:08:10.000Z</time>
        <extensions>
          <ns3:TrackPointExtension>
            <ns3:hr>96</ns3:hr>
            <ns3:cad>0</ns3:cad>
          </ns3:TrackPointExtension>
        </extensions>
      </trkpt>
      <trkpt lat="37.9896656982600688934326171875" lon="-107.744595296680927276611328125">
        <ele>3937.60009765625</ele>
        <time>2026-08-15T17:08:13.000Z</time>
        <extensions>
          <ns3:TrackPointExtension>
            <ns3:hr>95</ns3:hr>
            <ns3:cad>0</ns3:cad>
          </ns3:TrackPointExtension>
        </extensions>
      </trkpt>
      <trkpt lat="37.989697717130184173583984375" lon="-107.74460108019411563873291015625">
        <ele>3937.800048828125</ele>
        <time>2026-08-15T17:08:18.000Z</time>
        <extensions>
          <ns3:TrackPointExtension>
            <ns3:hr>92</ns3:hr>
            <ns3:cad>0</ns3:cad>
          </ns3:TrackPointExtension>
        </extensions>
      </trkpt>
      <trkpt lat="37.98970567993819713592529296875" lon="-107.74460501968860626220703125">
        <ele>3937.60009765625</ele>
        <time>2026-08-15T17:08:20.000Z</time>
        <extensions>
          <ns3:TrackPointExtension>
            <ns3:hr>92</ns3:hr>
            <ns3:cad>0</ns3:cad>
          </ns3:TrackPointExtension>
        </extensions>
      </trkpt>
      <trkpt lat="37.98972018063068389892578125" lon="-107.7446112222969532012939453125">
        <ele>3937.199951171875</ele>
        <time>2026-08-15T17:08:22.000Z</time>
        <extensions>
          <ns3:TrackPointExtension>
            <ns3:hr>92</ns3:hr>
            <ns3:cad>0</ns3:cad>
          </ns3:TrackPointExtension>
        </extensions>
      </trkpt>
      <trkpt lat="37.989727891981601715087890625" lon="-107.74462572298943996429443359375">
        <ele>3937</ele>
        <time>2026-08-15T17:08:25.000Z</time>
        <extensions>
          <ns3:TrackPointExtension>
            <ns3:hr>92</ns3:hr>
            <ns3:cad>0</ns3:cad>
          </ns3:TrackPointExtension>
        </extensions>
      </trkpt>
      <trkpt lat="37.98974608071148395538330078125" lon="-107.744644582271575927734375">
        <ele>3936</ele>
        <time>2026-08-15T17:08:29.000Z</time>
        <extensions>
          <ns3:TrackPointExtension>
            <ns3:hr>93</ns3:hr>
            <ns3:cad>0</ns3:cad>
          </ns3:TrackPointExtension>
        </extensions>
      </trkpt>
      <trkpt lat="37.9897532053291797637939453125" lon="-107.74464500136673450469970703125">
        <ele>3935.60009765625</ele>
        <time>2026-08-15T17:08:31.000Z</time>
        <extensions>
          <ns3:TrackPointExtension>
            <ns3:hr>93</ns3:hr>
            <ns3:cad>0</ns3:cad>
          </ns3:TrackPointExtension>
        </extensions>
      </trkpt>
      <trkpt lat="37.98975597135722637176513671875" lon="-107.74463117122650146484375">
        <ele>3935.199951171875</ele>
        <time>2026-08-15T17:08:37.000Z</time>
        <extensions>
          <ns3:TrackPointExtension>
            <ns3:hr>93</ns3:hr>
            <ns3:cad>0</ns3:cad>
          </ns3:TrackPointExtension>
        </extensions>
      </trkpt>
      <trkpt lat="37.989760078489780426025390625" lon="-107.74463276378810405731201171875">
        <ele>3935.199951171875</ele>
        <time>2026-08-15T17:08:39.000Z</time>
        <extensions>
          <ns3:TrackPointExtension>
            <ns3:hr>95</ns3:hr>
            <ns3:cad>0</ns3:cad>
          </ns3:TrackPointExtension>
        </extensions>
      </trkpt>
      <trkpt lat="37.9897691309452056884765625" lon="-107.74462220259010791778564453125">
        <ele>3935</ele>
        <time>2026-08-15T17:08:42.000Z</time>
        <extensions>
          <ns3:TrackPointExtension>
            <ns3:hr>99</ns3:hr>
            <ns3:cad>0</ns3:cad>
          </ns3:TrackPointExtension>
        </extensions>
      </trkpt>
      <trkpt lat="37.98977089114487171173095703125" lon="-107.74461700581014156341552734375">
        <ele>3935</ele>
        <time>2026-08-15T17:08:43.000Z</time>
        <extensions>
          <ns3:TrackPointExtension>
            <ns3:hr>100</ns3:hr>
            <ns3:cad>0</ns3:cad>
          </ns3:TrackPointExtension>
        </extensions>
      </trkpt>
      <trkpt lat="37.98977592028677463531494140625" lon="-107.74460610933601856231689453125">
        <ele>3934.800048828125</ele>
        <time>2026-08-15T17:08:45.000Z</time>
        <extensions>
          <ns3:TrackPointExtension>
            <ns3:hr>102</ns3:hr>
            <ns3:cad>0</ns3:cad>
          </ns3:TrackPointExtension>
        </extensions>
      </trkpt>
      <trkpt lat="37.9897894151508808135986328125" lon="-107.7445847354829311370849609375">
        <ele>3933.800048828125</ele>
        <time>2026-08-15T17:08:51.000Z</time>
        <extensions>
          <ns3:TrackPointExtension>
            <ns3:hr>104</ns3:hr>
            <ns3:cad>0</ns3:cad>
          </ns3:TrackPointExtension>
        </extensions>
      </trkpt>
      <trkpt lat="37.98979301936924457550048828125" lon="-107.74458163417875766754150390625">
        <ele>3933.60009765625</ele>
        <time>2026-08-15T17:08:52.000Z</time>
        <extensions>
          <ns3:TrackPointExtension>
            <ns3:hr>104</ns3:hr>
            <ns3:cad>0</ns3:cad>
          </ns3:TrackPointExtension>
        </extensions>
      </trkpt>
      <trkpt lat="37.9897961206734180450439453125" lon="-107.74457492865622043609619140625">
        <ele>3933</ele>
        <time>2026-08-15T17:08:57.000Z</time>
        <extensions>
          <ns3:TrackPointExtension>
            <ns3:hr>101</ns3:hr>
            <ns3:cad>0</ns3:cad>
          </ns3:TrackPointExtension>
        </extensions>
      </trkpt>
      <trkpt lat="37.98979796469211578369140625" lon="-107.74457224644720554351806640625">
        <ele>3932.800048828125</ele>
        <time>2026-08-15T17:08:59.000Z</time>
        <extensions>
          <ns3:TrackPointExtension>
            <ns3:hr>99</ns3:hr>
            <ns3:cad>0</ns3:cad>
          </ns3:TrackPointExtension>
        </extensions>
      </trkpt>
      <trkpt lat="37.989803664386272430419921875" lon="-107.74457207880914211273193359375">
        <ele>3932.60009765625</ele>
        <time>2026-08-15T17:09:00.000Z</time>
        <extensions>
          <ns3:TrackPointExtension>
            <ns3:hr>98</ns3:hr>
            <ns3:cad>0</ns3:cad>
          </ns3:TrackPointExtension>
        </extensions>
      </trkpt>
      <trkpt lat="37.9898165725171566009521484375" lon="-107.74457375518977642059326171875">
        <ele>3932</ele>
        <time>2026-08-15T17:09:06.000Z</time>
        <extensions>
          <ns3:TrackPointExtension>
            <ns3:hr>97</ns3:hr>
            <ns3:cad>0</ns3:cad>
          </ns3:TrackPointExtension>
        </extensions>
      </trkpt>
      <trkpt lat="37.989823780953884124755859375" lon="-107.74457710795104503631591796875">
        <ele>3931.800048828125</ele>
        <time>2026-08-15T17:09:08.000Z</time>
        <extensions>
          <ns3:TrackPointExtension>
            <ns3:hr>96</ns3:hr>
            <ns3:cad>0</ns3:cad>
          </ns3:TrackPointExtension>
        </extensions>
      </trkpt>
      <trkpt lat="37.98983459360897541046142578125" lon="-107.74458498694002628326416015625">
        <ele>3931.60009765625</ele>
        <time>2026-08-15T17:09:09.000Z</time>
        <extensions>
          <ns3:TrackPointExtension>
            <ns3:hr>96</ns3:hr>
            <ns3:cad>0</ns3:cad>
          </ns3:TrackPointExtension>
        </extensions>
      </trkpt>
      <trkpt lat="37.989842891693115234375" lon="-107.74457107298076152801513671875">
        <ele>3930.800048828125</ele>
        <time>2026-08-15T17:09:12.000Z</time>
        <extensions>
          <ns3:TrackPointExtension>
            <ns3:hr>97</ns3:hr>
            <ns3:cad>0</ns3:cad>
          </ns3:TrackPointExtension>
        </extensions>
      </trkpt>
      <trkpt lat="37.9898614995181560516357421875" lon="-107.74455900304019451141357421875">
        <ele>3931</ele>
        <time>2026-08-15T17:09:18.000Z</time>
        <extensions>
          <ns3:TrackPointExtension>
            <ns3:hr>95</ns3:hr>
            <ns3:cad>0</ns3:cad>
          </ns3:TrackPointExtension>
        </extensions>
      </trkpt>
      <trkpt lat="37.98985990695655345916748046875" lon="-107.74454777128994464874267578125">
        <ele>3931</ele>
        <time>2026-08-15T17:09:19.000Z</time>
        <extensions>
          <ns3:TrackPointExtension>
            <ns3:hr>95</ns3:hr>
            <ns3:cad>0</ns3:cad>
          </ns3:TrackPointExtension>
        </extensions>
      </trkpt>
      <trkpt lat="37.9898574762046337127685546875" lon="-107.74453368969261646270751953125">
        <ele>3930.39990234375</ele>
        <time>2026-08-15T17:09:21.000Z</time>
        <extensions>
          <ns3:TrackPointExtension>
            <ns3:hr>94</ns3:hr>
            <ns3:cad>0</ns3:cad>
          </ns3:TrackPointExtension>
        </extensions>
      </trkpt>
      <trkpt lat="37.98985957168042659759521484375" lon="-107.7445092983543872833251953125">
        <ele>3929.39990234375</ele>
        <time>2026-08-15T17:09:25.000Z</time>
        <extensions>
          <ns3:TrackPointExtension>
            <ns3:hr>92</ns3:hr>
            <ns3:cad>0</ns3:cad>
          </ns3:TrackPointExtension>
        </extensions>
      </trkpt>
      <trkpt lat="37.9898581467568874359130859375" lon="-107.74450770579278469085693359375">
        <ele>3929.39990234375</ele>
        <time>2026-08-15T17:09:26.000Z</time>
        <extensions>
          <ns3:TrackPointExtension>
            <ns3:hr>92</ns3:hr>
            <ns3:cad>0</ns3:cad>
          </ns3:TrackPointExtension>
        </extensions>
      </trkpt>
      <trkpt lat="37.9898608289659023284912109375" lon="-107.7444930374622344970703125">
        <ele>3928.800048828125</ele>
        <time>2026-08-15T17:09:30.000Z</time>
        <extensions>
          <ns3:TrackPointExtension>
            <ns3:hr>90</ns3:hr>
            <ns3:cad>0</ns3:cad>
          </ns3:TrackPointExtension>
        </extensions>
      </trkpt>
      <trkpt lat="37.98987851478159427642822265625" lon="-107.744472920894622802734375">
        <ele>3928.39990234375</ele>
        <time>2026-08-15T17:09:35.000Z</time>
        <extensions>
          <ns3:TrackPointExtension>
            <ns3:hr>93</ns3:hr>
            <ns3:cad>0</ns3:cad>
          </ns3:TrackPointExtension>
        </extensions>
      </trkpt>
      <trkpt lat="37.98987784422934055328369140625" lon="-107.7444764412939548492431640625">
        <ele>3928.199951171875</ele>
        <time>2026-08-15T17:09:36.000Z</time>
        <extensions>
          <ns3:TrackPointExtension>
            <ns3:hr>93</ns3:hr>
            <ns3:cad>0</ns3:cad>
          </ns3:TrackPointExtension>
        </extensions>
      </trkpt>
      <trkpt lat="37.98989192582666873931884765625" lon="-107.744457833468914031982421875">
        <ele>3927.39990234375</ele>
        <time>2026-08-15T17:09:41.000Z</time>
        <extensions>
          <ns3:TrackPointExtension>
            <ns3:hr>94</ns3:hr>
            <ns3:cad>0</ns3:cad>
          </ns3:TrackPointExtension>
        </extensions>
      </trkpt>
      <trkpt lat="37.98991355113685131072998046875" lon="-107.74445288814604282379150390625">
        <ele>3927</ele>
        <time>2026-08-15T17:09:45.000Z</time>
        <extensions>
          <ns3:TrackPointExtension>
            <ns3:hr>94</ns3:hr>
            <ns3:cad>0</ns3:cad>
          </ns3:TrackPointExtension>
        </extensions>
      </trkpt>
      <trkpt lat="37.98992327414453029632568359375" lon="-107.74444567970931529998779296875">
        <ele>3926.800048828125</ele>
        <time>2026-08-15T17:09:47.000Z</time>
        <extensions>
          <ns3:TrackPointExtension>
            <ns3:hr>95</ns3:hr>
            <ns3:cad>0</ns3:cad>
          </ns3:TrackPointExtension>
        </extensions>
      </trkpt>
      <trkpt lat="37.98992763273417949676513671875" lon="-107.7444412373006343841552734375">
        <ele>3926</ele>
        <time>2026-08-15T17:09:53.000Z</time>
        <extensions>
          <ns3:TrackPointExtension>
            <ns3:hr>94</ns3:hr>
            <ns3:cad>0</ns3:cad>
          </ns3:TrackPointExtension>
        </extensions>
      </trkpt>
      <trkpt lat="37.98992763273417949676513671875" lon="-107.7444412373006343841552734375">
        <ele>3926</ele>
        <time>2026-08-15T17:09:54.000Z</time>
        <extensions>
          <ns3:TrackPointExtension>
            <ns3:hr>94</ns3:hr>
            <ns3:cad>0</ns3:cad>
          </ns3:TrackPointExtension>
        </extensions>
      </trkpt>
      <trkpt lat="37.98992595635354518890380859375" lon="-107.7444398961961269378662109375">
        <ele>3926</ele>
        <time>2026-08-15T17:09:55.000Z</time>
        <extensions>
          <ns3:TrackPointExtension>
            <ns3:hr>94</ns3:hr>
            <ns3:cad>0</ns3:cad>
          </ns3:TrackPointExtension>
        </extensions>
      </trkpt>
      <trkpt lat="37.98993207514286041259765625" lon="-107.74442262947559356689453125">
        <ele>3925</ele>
        <time>2026-08-15T17:09:59.000Z</time>
        <extensions>
          <ns3:TrackPointExtension>
            <ns3:hr>93</ns3:hr>
            <ns3:cad>0</ns3:cad>
          </ns3:TrackPointExtension>
        </extensions>
      </trkpt>
      <trkpt lat="37.98992671072483062744140625" lon="-107.7444217912852764129638671875">
        <ele>3924.60009765625</ele>
        <time>2026-08-15T17:10:01.000Z</time>
        <extensions>
          <ns3:TrackPointExtension>
            <ns3:hr>93</ns3:hr>
            <ns3:cad>0</ns3:cad>
          </ns3:TrackPointExtension>
        </extensions>
      </trkpt>
      <trkpt lat="37.98992310650646686553955078125" lon="-107.74441190063953399658203125">
        <ele>3924</ele>
        <time>2026-08-15T17:10:05.000Z</time>
        <extensions>
          <ns3:TrackPointExtension>
            <ns3:hr>93</ns3:hr>
            <ns3:cad>0</ns3:cad>
          </ns3:TrackPointExtension>
        </extensions>
      </trkpt>
      <trkpt lat="37.9899246990680694580078125" lon="-107.7443976514041423797607421875">
        <ele>3923.39990234375</ele>
        <time>2026-08-15T17:10:08.000Z</time>
        <extensions>
          <ns3:TrackPointExtension>
            <ns3:hr>93</ns3:hr>
            <ns3:cad>0</ns3:cad>
          </ns3:TrackPointExtension>
        </extensions>
      </trkpt>
      <trkpt lat="37.9899278841912746429443359375" lon="-107.74438516236841678619384765625">
        <ele>3923</ele>
        <time>2026-08-15T17:10:11.000Z</time>
        <extensions>
          <ns3:TrackPointExtension>
            <ns3:hr>90</ns3:hr>
            <ns3:cad>0</ns3:cad>
          </ns3:TrackPointExtension>
        </extensions>
      </trkpt>
      <trkpt lat="37.9899300634860992431640625" lon="-107.74439387954771518707275390625">
        <ele>3922.800048828125</ele>
        <time>2026-08-15T17:10:12.000Z</time>
        <extensions>
          <ns3:TrackPointExtension>
            <ns3:hr>90</ns3:hr>
            <ns3:cad>0</ns3:cad>
          </ns3:TrackPointExtension>
        </extensions>
      </trkpt>
      <trkpt lat="37.9899342544376850128173828125" lon="-107.74439102970063686370849609375">
        <ele>3922.800048828125</ele>
        <time>2026-08-15T17:10:13.000Z</time>
        <extensions>
          <ns3:TrackPointExtension>
            <ns3:hr>90</ns3:hr>
            <ns3:cad>0</ns3:cad>
          </ns3:TrackPointExtension>
        </extensions>
      </trkpt>
      <trkpt lat="37.98993132077157497406005859375" lon="-107.74440662004053592681884765625">
        <ele>3921.800048828125</ele>
        <time>2026-08-15T17:10:16.000Z</time>
        <extensions>
          <ns3:TrackPointExtension>
            <ns3:hr>90</ns3:hr>
            <ns3:cad>0</ns3:cad>
          </ns3:TrackPointExtension>
        </extensions>
      </trkpt>
      <trkpt lat="37.98993098549544811248779296875" lon="-107.744404189288616180419921875">
        <ele>3921.800048828125</ele>
        <time>2026-08-15T17:10:21.000Z</time>
        <extensions>
          <ns3:TrackPointExtension>
            <ns3:hr>90</ns3:hr>
            <ns3:cad>0</ns3:cad>
          </ns3:TrackPointExtension>
        </extensions>
      </trkpt>
      <trkpt lat="37.98993098549544811248779296875" lon="-107.744404189288616180419921875">
        <ele>3922.39990234375</ele>
        <time>2026-08-15T17:10:27.000Z</time>
        <extensions>
          <ns3:TrackPointExtension>
            <ns3:hr>90</ns3:hr>
            <ns3:cad>0</ns3:cad>
          </ns3:TrackPointExtension>
        </extensions>
      </trkpt>
      <trkpt lat="37.98993098549544811248779296875" lon="-107.744404189288616180419921875">
        <ele>3922.199951171875</ele>
        <time>2026-08-15T17:10:28.000Z</time>
        <extensions>
          <ns3:TrackPointExtension>
            <ns3:hr>89</ns3:hr>
            <ns3:cad>0</ns3:cad>
          </ns3:TrackPointExtension>
        </extensions>
      </trkpt>
      <trkpt lat="37.98992260359227657318115234375" lon="-107.7443855814635753631591796875">
        <ele>3922.39990234375</ele>
        <time>2026-08-15T17:10:34.000Z</time>
        <extensions>
          <ns3:TrackPointExtension>
            <ns3:hr>88</ns3:hr>
            <ns3:cad>0</ns3:cad>
          </ns3:TrackPointExtension>
        </extensions>
      </trkpt>
      <trkpt lat="37.98991573043167591094970703125" lon="-107.74438147433102130889892578125">
        <ele>3922.199951171875</ele>
        <time>2026-08-15T17:10:35.000Z</time>
        <extensions>
          <ns3:TrackPointExtension>
            <ns3:hr>88</ns3:hr>
            <ns3:cad>0</ns3:cad>
          </ns3:TrackPointExtension>
        </extensions>
      </trkpt>
      <trkpt lat="37.98992344178259372711181640625" lon="-107.74436873383820056915283203125">
        <ele>3921.60009765625</ele>
        <time>2026-08-15T17:10:41.000Z</time>
        <extensions>
          <ns3:TrackPointExtension>
            <ns3:hr>90</ns3:hr>
            <ns3:cad>0</ns3:cad>
          </ns3:TrackPointExtension>
        </extensions>
      </trkpt>
      <trkpt lat="37.989931404590606689453125" lon="-107.74436471052467823028564453125">
        <ele>3921.60009765625</ele>
        <time>2026-08-15T17:10:42.000Z</time>
        <extensions>
          <ns3:TrackPointExtension>
            <ns3:hr>90</ns3:hr>
            <ns3:cad>0</ns3:cad>
          </ns3:TrackPointExtension>
        </extensions>
      </trkpt>
      <trkpt lat="37.98995126970112323760986328125" lon="-107.7443540655076503753662109375">
        <ele>3920.800048828125</ele>
        <time>2026-08-15T17:10:46.000Z</time>
        <extensions>
          <ns3:TrackPointExtension>
            <ns3:hr>93</ns3:hr>
            <ns3:cad>0</ns3:cad>
          </ns3:TrackPointExtension>
        </extensions>
      </trkpt>
      <trkpt lat="37.98995814286172389984130859375" lon="-107.7443510480225086212158203125">
        <ele>3920.60009765625</ele>
        <time>2026-08-15T17:10:48.000Z</time>
        <extensions>
          <ns3:TrackPointExtension>
            <ns3:hr>93</ns3:hr>
            <ns3:cad>0</ns3:cad>
          </ns3:TrackPointExtension>
        </extensions>
      </trkpt>
      <trkpt lat="37.9899781756103038787841796875" lon="-107.74431961588561534881591796875">
        <ele>3919.60009765625</ele>
        <time>2026-08-15T17:10:54.000Z</time>
        <extensions>
          <ns3:TrackPointExtension>
            <ns3:hr>94</ns3:hr>
            <ns3:cad>0</ns3:cad>
          </ns3:TrackPointExtension>
        </extensions>
      </trkpt>
      <trkpt lat="37.99000273458659648895263671875" lon="-107.744304947555065155029296875">
        <ele>3918.39990234375</ele>
        <time>2026-08-15T17:10:59.000Z</time>
        <extensions>
          <ns3:TrackPointExtension>
            <ns3:hr>94</ns3:hr>
            <ns3:cad>0</ns3:cad>
          </ns3:TrackPointExtension>
        </extensions>
      </trkpt>
      <trkpt lat="37.99003802239894866943359375" lon="-107.74429949931800365447998046875">
        <ele>3917.60009765625</ele>
        <time>2026-08-15T17:11:04.000Z</time>
        <extensions>
          <ns3:TrackPointExtension>
            <ns3:hr>96</ns3:hr>
            <ns3:cad>0</ns3:cad>
          </ns3:TrackPointExtension>
        </extensions>
      </trkpt>
      <trkpt lat="37.99004472792148590087890625" lon="-107.74429111741483211517333984375">
        <ele>3917.39990234375</ele>
        <time>2026-08-15T17:11:05.000Z</time>
        <extensions>
          <ns3:TrackPointExtension>
            <ns3:hr>96</ns3:hr>
            <ns3:cad>0</ns3:cad>
          </ns3:TrackPointExtension>
        </extensions>
      </trkpt>
      <trkpt lat="37.9900640062987804412841796875" lon="-107.7442274987697601318359375">
        <ele>3916.39990234375</ele>
        <time>2026-08-15T17:11:10.000Z</time>
        <extensions>
          <ns3:TrackPointExtension>
            <ns3:hr>98</ns3:hr>
            <ns3:cad>0</ns3:cad>
          </ns3:TrackPointExtension>
        </extensions>
      </trkpt>
      <trkpt lat="37.99006274901330471038818359375" lon="-107.74419874884188175201416015625">
        <ele>3916</ele>
        <time>2026-08-15T17:11:13.000Z</time>
        <extensions>
          <ns3:TrackPointExtension>
            <ns3:hr>101</ns3:hr>
            <ns3:cad>0</ns3:cad>
          </ns3:TrackPointExtension>
        </extensions>
      </trkpt>
      <trkpt lat="37.9900829493999481201171875" lon="-107.74414761923253536224365234375">
        <ele>3915.60009765625</ele>
        <time>2026-08-15T17:11:19.000Z</time>
        <extensions>
          <ns3:TrackPointExtension>
            <ns3:hr>102</ns3:hr>
            <ns3:cad>57</ns3:cad>
          </ns3:TrackPointExtension>
        </extensions>
      </trkpt>
      <trkpt lat="37.99008722417056560516357421875" lon="-107.74412624537944793701171875">
        <ele>3915.39990234375</ele>
        <time>2026-08-15T17:11:21.000Z</time>
        <extensions>
          <ns3:TrackPointExtension>
            <ns3:hr>103</ns3:hr>
            <ns3:cad>57</ns3:cad>
          </ns3:TrackPointExtension>
        </extensions>
      </trkpt>
      <trkpt lat="37.99010700546205043792724609375" lon="-107.7440895326435565948486328125">
        <ele>3914.60009765625</ele>
        <time>2026-08-15T17:11:25.000Z</time>
        <extensions>
          <ns3:TrackPointExtension>
            <ns3:hr>102</ns3:hr>
            <ns3:cad>57</ns3:cad>
          </ns3:TrackPointExtension>
        </extensions>
      </trkpt>
      <trkpt lat="37.99012192524969577789306640625" lon="-107.744089700281620025634765625">
        <ele>3914.39990234375</ele>
        <time>2026-08-15T17:11:27.000Z</time>
        <extensions>
          <ns3:TrackPointExtension>
            <ns3:hr>102</ns3:hr>
            <ns3:cad>51</ns3:cad>
          </ns3:TrackPointExtension>
        </extensions>
      </trkpt>
      <trkpt lat="37.99012980423867702484130859375" lon="-107.74409414269030094146728515625">
        <ele>3914.199951171875</ele>
        <time>2026-08-15T17:11:28.000Z</time>
        <extensions>
          <ns3:TrackPointExtension>
            <ns3:hr>102</ns3:hr>
            <ns3:cad>51</ns3:cad>
          </ns3:TrackPointExtension>
        </extensions>
      </trkpt>
      <trkpt lat="37.99013433046638965606689453125" lon="-107.74410537444055080413818359375">
        <ele>3914.39990234375</ele>
        <time>2026-08-15T17:11:30.000Z</time>
        <extensions>
          <ns3:TrackPointExtension>
            <ns3:hr>103</ns3:hr>
            <ns3:cad>51</ns3:cad>
          </ns3:TrackPointExtension>
        </extensions>
      </trkpt>
      <trkpt lat="37.99013382755219936370849609375" lon="-107.74410889483988285064697265625">
        <ele>3914.39990234375</ele>
        <time>2026-08-15T17:11:31.000Z</time>
        <extensions>
          <ns3:TrackPointExtension>
            <ns3:hr>103</ns3:hr>
            <ns3:cad>0</ns3:cad>
          </ns3:TrackPointExtension>
        </extensions>
      </trkpt>
      <trkpt lat="37.99014841206371784210205078125" lon="-107.744095064699649810791015625">
        <ele>3913.60009765625</ele>
        <time>2026-08-15T17:11:36.000Z</time>
        <extensions>
          <ns3:TrackPointExtension>
            <ns3:hr>103</ns3:hr>
            <ns3:cad>0</ns3:cad>
          </ns3:TrackPointExtension>
        </extensions>
      </trkpt>
      <trkpt lat="37.99013483338057994842529296875" lon="-107.74408257566392421722412109375">
        <ele>3913.199951171875</ele>
        <time>2026-08-15T17:11:38.000Z</time>
        <extensions>
          <ns3:TrackPointExtension>
            <ns3:hr>102</ns3:hr>
            <ns3:cad>0</ns3:cad>
          </ns3:TrackPointExtension>
        </extensions>
      </trkpt>
      <trkpt lat="37.99013986252248287200927734375" lon="-107.74407184682786464691162109375">
        <ele>3913</ele>
        <time>2026-08-15T17:11:39.000Z</time>
        <extensions>
          <ns3:TrackPointExtension>
            <ns3:hr>102</ns3:hr>
            <ns3:cad>0</ns3:cad>
          </ns3:TrackPointExtension>
        </extensions>
      </trkpt>
      <trkpt lat="37.99014505930244922637939453125" lon="-107.744065225124359130859375">
        <ele>3912.800048828125</ele>
        <time>2026-08-15T17:11:40.000Z</time>
        <extensions>
          <ns3:TrackPointExtension>
            <ns3:hr>103</ns3:hr>
            <ns3:cad>0</ns3:cad>
          </ns3:TrackPointExtension>
        </extensions>
      </trkpt>
      <trkpt lat="37.9901598952710628509521484375" lon="-107.74402725510299205780029296875">
        <ele>3912.60009765625</ele>
        <time>2026-08-15T17:11:45.000Z</time>
        <extensions>
          <ns3:TrackPointExtension>
            <ns3:hr>101</ns3:hr>
            <ns3:cad>0</ns3:cad>
          </ns3:TrackPointExtension>
        </extensions>
      </trkpt>
      <trkpt lat="37.990167438983917236328125" lon="-107.74400428868830204010009765625">
        <ele>3912.199951171875</ele>
        <time>2026-08-15T17:11:48.000Z</time>
        <extensions>
          <ns3:TrackPointExtension>
            <ns3:hr>102</ns3:hr>
            <ns3:cad>0</ns3:cad>
          </ns3:TrackPointExtension>
        </extensions>
      </trkpt>
      <trkpt lat="37.99018680118024349212646484375" lon="-107.74398031644523143768310546875">
        <ele>3911.60009765625</ele>
        <time>2026-08-15T17:11:51.000Z</time>
        <extensions>
          <ns3:TrackPointExtension>
            <ns3:hr>101</ns3:hr>
            <ns3:cad>0</ns3:cad>
          </ns3:TrackPointExtension>
        </extensions>
      </trkpt>
      <trkpt lat="37.99019887112081050872802734375" lon="-107.7439619600772857666015625">
        <ele>3911</ele>
        <time>2026-08-15T17:11:53.000Z</time>
        <extensions>
          <ns3:TrackPointExtension>
            <ns3:hr>101</ns3:hr>
            <ns3:cad>0</ns3:cad>
          </ns3:TrackPointExtension>
        </extensions>
      </trkpt>
      <trkpt lat="37.99023776315152645111083984375" lon="-107.743931449949741363525390625">
        <ele>3909.800048828125</ele>
        <time>2026-08-15T17:11:58.000Z</time>
        <extensions>
          <ns3:TrackPointExtension>
            <ns3:hr>103</ns3:hr>
            <ns3:cad>0</ns3:cad>
          </ns3:TrackPointExtension>
        </extensions>
      </trkpt>
      <trkpt lat="37.99025184474885463714599609375" lon="-107.74389046244323253631591796875">
        <ele>3909.39990234375</ele>
        <time>2026-08-15T17:12:01.000Z</time>
        <extensions>
          <ns3:TrackPointExtension>
            <ns3:hr>104</ns3:hr>
            <ns3:cad>69</ns3:cad>
          </ns3:TrackPointExtension>
        </extensions>
      </trkpt>
      <trkpt lat="37.99026458524167537689208984375" lon="-107.743867076933383941650390625">
        <ele>3909.199951171875</ele>
        <time>2026-08-15T17:12:03.000Z</time>
        <extensions>
          <ns3:TrackPointExtension>
            <ns3:hr>104</ns3:hr>
            <ns3:cad>0</ns3:cad>
          </ns3:TrackPointExtension>
        </extensions>
      </trkpt>
      <trkpt lat="37.99029685556888580322265625" lon="-107.74382290430366992950439453125">
        <ele>3908.800048828125</ele>
        <time>2026-08-15T17:12:07.000Z</time>
        <extensions>
          <ns3:TrackPointExtension>
            <ns3:hr>104</ns3:hr>
            <ns3:cad>0</ns3:cad>
          </ns3:TrackPointExtension>
        </extensions>
      </trkpt>
      <trkpt lat="37.99030414782464504241943359375" lon="-107.74382139556109905242919921875">
        <ele>3908.60009765625</ele>
        <time>2026-08-15T17:12:08.000Z</time>
        <extensions>
          <ns3:TrackPointExtension>
            <ns3:hr>103</ns3:hr>
            <ns3:cad>0</ns3:cad>
          </ns3:TrackPointExtension>
        </extensions>
      </trkpt>
      <trkpt lat="37.9903377592563629150390625" lon="-107.74377898313105106353759765625">
        <ele>3908.199951171875</ele>
        <time>2026-08-15T17:12:12.000Z</time>
        <extensions>
          <ns3:TrackPointExtension>
            <ns3:hr>104</ns3:hr>
            <ns3:cad>0</ns3:cad>
          </ns3:TrackPointExtension>
        </extensions>
      </trkpt>
      <trkpt lat="37.9903855361044406890869140625" lon="-107.7437267638742923736572265625">
        <ele>3908.60009765625</ele>
        <time>2026-08-15T17:12:18.000Z</time>
        <extensions>
          <ns3:TrackPointExtension>
            <ns3:hr>101</ns3:hr>
            <ns3:cad>52</ns3:cad>
          </ns3:TrackPointExtension>
        </extensions>
      </trkpt>
      <trkpt lat="37.990388385951519012451171875" lon="-107.7437210641801357269287109375">
        <ele>3908.60009765625</ele>
        <time>2026-08-15T17:12:19.000Z</time>
        <extensions>
          <ns3:TrackPointExtension>
            <ns3:hr>101</ns3:hr>
            <ns3:cad>53</ns3:cad>
          </ns3:TrackPointExtension>
        </extensions>
      </trkpt>
      <trkpt lat="37.99039517529308795928955078125" lon="-107.74370916187763214111328125">
        <ele>3908</ele>
        <time>2026-08-15T17:12:25.000Z</time>
        <extensions>
          <ns3:TrackPointExtension>
            <ns3:hr>99</ns3:hr>
            <ns3:cad>0</ns3:cad>
          </ns3:TrackPointExtension>
        </extensions>
      </trkpt>
      <trkpt lat="37.9904096759855747222900390625" lon="-107.74368393234908580780029296875">
        <ele>3908.60009765625</ele>
        <time>2026-08-15T17:12:31.000Z</time>
        <extensions>
          <ns3:TrackPointExtension>
            <ns3:hr>100</ns3:hr>
            <ns3:cad>0</ns3:cad>
          </ns3:TrackPointExtension>
        </extensions>
      </trkpt>
      <trkpt lat="37.9904096759855747222900390625" lon="-107.74368393234908580780029296875">
        <ele>3908.60009765625</ele>
        <time>2026-08-15T17:12:33.000Z</time>
        <extensions>
          <ns3:TrackPointExtension>
            <ns3:hr>99</ns3:hr>
            <ns3:cad>0</ns3:cad>
          </ns3:TrackPointExtension>
        </extensions>
      </trkpt>
      <trkpt lat="37.99042291939258575439453125" lon="-107.743641436100006103515625">
        <ele>3908.39990234375</ele>
        <time>2026-08-15T17:12:37.000Z</time>
        <extensions>
          <ns3:TrackPointExtension>
            <ns3:hr>100</ns3:hr>
            <ns3:cad>0</ns3:cad>
          </ns3:TrackPointExtension>
        </extensions>
      </trkpt>
      <trkpt lat="37.99042694270610809326171875" lon="-107.74359541945159435272216796875">
        <ele>3908.60009765625</ele>
        <time>2026-08-15T17:12:40.000Z</time>
        <extensions>
          <ns3:TrackPointExtension>
            <ns3:hr>104</ns3:hr>
            <ns3:cad>0</ns3:cad>
          </ns3:TrackPointExtension>
        </extensions>
      </trkpt>
      <trkpt lat="37.99042082391679286956787109375" lon="-107.74356423877179622650146484375">
        <ele>3908.199951171875</ele>
        <time>2026-08-15T17:12:42.000Z</time>
        <extensions>
          <ns3:TrackPointExtension>
            <ns3:hr>107</ns3:hr>
            <ns3:cad>48</ns3:cad>
          </ns3:TrackPointExtension>
        </extensions>
      </trkpt>
      <trkpt lat="37.99042434431612491607666015625" lon="-107.74353121407330036163330078125">
        <ele>3907.800048828125</ele>
        <time>2026-08-15T17:12:44.000Z</time>
        <extensions>
          <ns3:TrackPointExtension>
            <ns3:hr>107</ns3:hr>
            <ns3:cad>47</ns3:cad>
          </ns3:TrackPointExtension>
        </extensions>
      </trkpt>
      <trkpt lat="37.9904210753738880157470703125" lon="-107.7435162104666233062744140625">
        <ele>3907.800048828125</ele>
        <time>2026-08-15T17:12:45.000Z</time>
        <extensions>
          <ns3:TrackPointExtension>
            <ns3:hr>108</ns3:hr>
            <ns3:cad>50</ns3:cad>
          </ns3:TrackPointExtension>
        </extensions>
      </trkpt>
      <trkpt lat="37.990435995161533355712890625" lon="-107.7434541843831539154052734375">
        <ele>3908.39990234375</ele>
        <time>2026-08-15T17:12:50.000Z</time>
        <extensions>
          <ns3:TrackPointExtension>
            <ns3:hr>111</ns3:hr>
            <ns3:cad>50</ns3:cad>
          </ns3:TrackPointExtension>
        </extensions>
      </trkpt>
      <trkpt lat="37.99044596962630748748779296875" lon="-107.74344437755644321441650390625">
        <ele>3908.60009765625</ele>
        <time>2026-08-15T17:12:51.000Z</time>
        <extensions>
          <ns3:TrackPointExtension>
            <ns3:hr>111</ns3:hr>
            <ns3:cad>0</ns3:cad>
          </ns3:TrackPointExtension>
        </extensions>
      </trkpt>
      <trkpt lat="37.99044798128306865692138671875" lon="-107.7434330619871616363525390625">
        <ele>3908.800048828125</ele>
        <time>2026-08-15T17:12:52.000Z</time>
        <extensions>
          <ns3:TrackPointExtension>
            <ns3:hr>111</ns3:hr>
            <ns3:cad>0</ns3:cad>
          </ns3:TrackPointExtension>
        </extensions>
      </trkpt>
      <trkpt lat="37.99046508036553859710693359375" lon="-107.74338000454008579254150390625">
        <ele>3908.800048828125</ele>
        <time>2026-08-15T17:12:57.000Z</time>
        <extensions>
          <ns3:TrackPointExtension>
            <ns3:hr>111</ns3:hr>
            <ns3:cad>0</ns3:cad>
          </ns3:TrackPointExtension>
        </extensions>
      </trkpt>
      <trkpt lat="37.99051268957555294036865234375" lon="-107.74334228597581386566162109375">
        <ele>3909</ele>
        <time>2026-08-15T17:13:02.000Z</time>
        <extensions>
          <ns3:TrackPointExtension>
            <ns3:hr>111</ns3:hr>
            <ns3:cad>0</ns3:cad>
          </ns3:TrackPointExtension>
        </extensions>
      </trkpt>
      <trkpt lat="37.9905669204890727996826171875" lon="-107.743317224085330963134765625">
        <ele>3908.800048828125</ele>
        <time>2026-08-15T17:13:07.000Z</time>
        <extensions>
          <ns3:TrackPointExtension>
            <ns3:hr>113</ns3:hr>
            <ns3:cad>75</ns3:cad>
          </ns3:TrackPointExtension>
        </extensions>
      </trkpt>
      <trkpt lat="37.99058477394282817840576171875" lon="-107.7432919107377529144287109375">
        <ele>3908.60009765625</ele>
        <time>2026-08-15T17:13:10.000Z</time>
        <extensions>
          <ns3:TrackPointExtension>
            <ns3:hr>116</ns3:hr>
            <ns3:cad>75</ns3:cad>
          </ns3:TrackPointExtension>
        </extensions>
      </trkpt>
      <trkpt lat="37.9905981011688709259033203125" lon="-107.74326969869434833526611328125">
        <ele>3908.39990234375</ele>
        <time>2026-08-15T17:13:12.000Z</time>
        <extensions>
          <ns3:TrackPointExtension>
            <ns3:hr>121</ns3:hr>
            <ns3:cad>49</ns3:cad>
          </ns3:TrackPointExtension>
        </extensions>
      </trkpt>
      <trkpt lat="37.990611009299755096435546875" lon="-107.74325209669768810272216796875">
        <ele>3908.199951171875</ele>
        <time>2026-08-15T17:13:14.000Z</time>
        <extensions>
          <ns3:TrackPointExtension>
            <ns3:hr>124</ns3:hr>
            <ns3:cad>49</ns3:cad>
          </ns3:TrackPointExtension>
        </extensions>
      </trkpt>
      <trkpt lat="37.99064059741795063018798828125" lon="-107.74323306977748870849609375">
        <ele>3907.800048828125</ele>
        <time>2026-08-15T17:13:17.000Z</time>
        <extensions>
          <ns3:TrackPointExtension>
            <ns3:hr>125</ns3:hr>
            <ns3:cad>49</ns3:cad>
          </ns3:TrackPointExtension>
        </extensions>
      </trkpt>
      <trkpt lat="37.99064713530242443084716796875" lon="-107.74322594515979290008544921875">
        <ele>3907.800048828125</ele>
        <time>2026-08-15T17:13:18.000Z</time>
        <extensions>
          <ns3:TrackPointExtension>
            <ns3:hr>124</ns3:hr>
            <ns3:cad>49</ns3:cad>
          </ns3:TrackPointExtension>
        </extensions>
      </trkpt>
      <trkpt lat="37.9906628094613552093505859375" lon="-107.74322611279785633087158203125">
        <ele>3907.39990234375</ele>
        <time>2026-08-15T17:13:21.000Z</time>
        <extensions>
          <ns3:TrackPointExtension>
            <ns3:hr>123</ns3:hr>
            <ns3:cad>49</ns3:cad>
          </ns3:TrackPointExtension>
        </extensions>
      </trkpt>
      <trkpt lat="37.990665994584560394287109375" lon="-107.7432243525981903076171875">
        <ele>3907</ele>
        <time>2026-08-15T17:13:24.000Z</time>
        <extensions>
          <ns3:TrackPointExtension>
            <ns3:hr>122</ns3:hr>
            <ns3:cad>0</ns3:cad>
          </ns3:TrackPointExtension>
        </extensions>
      </trkpt>
      <trkpt lat="37.99066993407905101776123046875" lon="-107.74322544224560260772705078125">
        <ele>3906.60009765625</ele>
        <time>2026-08-15T17:13:26.000Z</time>
        <extensions>
          <ns3:TrackPointExtension>
            <ns3:hr>122</ns3:hr>
            <ns3:cad>53</ns3:cad>
          </ns3:TrackPointExtension>
        </extensions>
      </trkpt>
      <trkpt lat="37.9906691797077655792236328125" lon="-107.74322477169334888458251953125">
        <ele>3905.800048828125</ele>
        <time>2026-08-15T17:13:31.000Z</time>
        <extensions>
          <ns3:TrackPointExtension>
            <ns3:hr>120</ns3:hr>
            <ns3:cad>0</ns3:cad>
          </ns3:TrackPointExtension>
        </extensions>
      </trkpt>
      <trkpt lat="37.9906675033271312713623046875" lon="-107.743221335113048553466796875">
        <ele>3905.39990234375</ele>
        <time>2026-08-15T17:13:34.000Z</time>
        <extensions>
          <ns3:TrackPointExtension>
            <ns3:hr>119</ns3:hr>
            <ns3:cad>0</ns3:cad>
          </ns3:TrackPointExtension>
        </extensions>
      </trkpt>
      <trkpt lat="37.9906852729618549346923828125" lon="-107.743204571306705474853515625">
        <ele>3904.800048828125</ele>
        <time>2026-08-15T17:13:37.000Z</time>
        <extensions>
          <ns3:TrackPointExtension>
            <ns3:hr>119</ns3:hr>
            <ns3:cad>0</ns3:cad>
          </ns3:TrackPointExtension>
        </extensions>
      </trkpt>
      <trkpt lat="37.99070362932980060577392578125" lon="-107.7431997098028659820556640625">
        <ele>3904.39990234375</ele>
        <time>2026-08-15T17:13:39.000Z</time>
        <extensions>
          <ns3:TrackPointExtension>
            <ns3:hr>119</ns3:hr>
            <ns3:cad>61</ns3:cad>
          </ns3:TrackPointExtension>
        </extensions>
      </trkpt>
      <trkpt lat="37.99073648639023303985595703125" lon="-107.7431883104145526885986328125">
        <ele>3903.800048828125</ele>
        <time>2026-08-15T17:13:43.000Z</time>
        <extensions>
          <ns3:TrackPointExtension>
            <ns3:hr>118</ns3:hr>
            <ns3:cad>61</ns3:cad>
          </ns3:TrackPointExtension>
        </extensions>
      </trkpt>
      <trkpt lat="37.99076716415584087371826171875" lon="-107.74317196570336818695068359375">
        <ele>3903</ele>
        <time>2026-08-15T17:13:48.000Z</time>
        <extensions>
          <ns3:TrackPointExtension>
            <ns3:hr>117</ns3:hr>
            <ns3:cad>0</ns3:cad>
          </ns3:TrackPointExtension>
        </extensions>
      </trkpt>
      <trkpt lat="37.99077152274549007415771484375" lon="-107.74316199123859405517578125">
        <ele>3902.60009765625</ele>
        <time>2026-08-15T17:13:49.000Z</time>
        <extensions>
          <ns3:TrackPointExtension>
            <ns3:hr>117</ns3:hr>
            <ns3:cad>0</ns3:cad>
          </ns3:TrackPointExtension>
        </extensions>
      </trkpt>
      <trkpt lat="37.9907754622399806976318359375" lon="-107.74315604008734226226806640625">
        <ele>3902.199951171875</ele>
        <time>2026-08-15T17:13:50.000Z</time>
        <extensions>
          <ns3:TrackPointExtension>
            <ns3:hr>116</ns3:hr>
            <ns3:cad>0</ns3:cad>
          </ns3:TrackPointExtension>
        </extensions>
      </trkpt>
      <trkpt lat="37.99077973701059818267822265625" lon="-107.743152938783168792724609375">
        <ele>3901.800048828125</ele>
        <time>2026-08-15T17:13:51.000Z</time>
        <extensions>
          <ns3:TrackPointExtension>
            <ns3:hr>116</ns3:hr>
            <ns3:cad>0</ns3:cad>
          </ns3:TrackPointExtension>
        </extensions>
      </trkpt>
      <trkpt lat="37.99080655910074710845947265625" lon="-107.7431417070329189300537109375">
        <ele>3900.60009765625</ele>
        <time>2026-08-15T17:13:56.000Z</time>
        <extensions>
          <ns3:TrackPointExtension>
            <ns3:hr>115</ns3:hr>
            <ns3:cad>0</ns3:cad>
          </ns3:TrackPointExtension>
        </extensions>
      </trkpt>
      <trkpt lat="37.99081259407103061676025390625" lon="-107.74313944391906261444091796875">
        <ele>3900.39990234375</ele>
        <time>2026-08-15T17:13:57.000Z</time>
        <extensions>
          <ns3:TrackPointExtension>
            <ns3:hr>115</ns3:hr>
            <ns3:cad>0</ns3:cad>
          </ns3:TrackPointExtension>
        </extensions>
      </trkpt>
      <trkpt lat="37.9908160306513309478759765625" lon="-107.7431145496666431427001953125">
        <ele>3899.60009765625</ele>
        <time>2026-08-15T17:14:00.000Z</time>
        <extensions>
          <ns3:TrackPointExtension>
            <ns3:hr>116</ns3:hr>
            <ns3:cad>0</ns3:cad>
          </ns3:TrackPointExtension>
        </extensions>
      </trkpt>
      <trkpt lat="37.9908126778900623321533203125" lon="-107.74310675449669361114501953125">
        <ele>3899.39990234375</ele>
        <time>2026-08-15T17:14:01.000Z</time>
        <extensions>
          <ns3:TrackPointExtension>
            <ns3:hr>116</ns3:hr>
            <ns3:cad>0</ns3:cad>
          </ns3:TrackPointExtension>
        </extensions>
      </trkpt>
      <trkpt lat="37.9908173717558383941650390625" lon="-107.74309468455612659454345703125">
        <ele>3899</ele>
        <time>2026-08-15T17:14:03.000Z</time>
        <extensions>
          <ns3:TrackPointExtension>
            <ns3:hr>117</ns3:hr>
            <ns3:cad>0</ns3:cad>
          </ns3:TrackPointExtension>
        </extensions>
      </trkpt>
      <trkpt lat="37.9908307828009128570556640625" lon="-107.743080519139766693115234375">
        <ele>3898.199951171875</ele>
        <time>2026-08-15T17:14:05.000Z</time>
        <extensions>
          <ns3:TrackPointExtension>
            <ns3:hr>118</ns3:hr>
            <ns3:cad>0</ns3:cad>
          </ns3:TrackPointExtension>
        </extensions>
      </trkpt>
      <trkpt lat="37.99084444530308246612548828125" lon="-107.7430749870836734771728515625">
        <ele>3897.39990234375</ele>
        <time>2026-08-15T17:14:08.000Z</time>
        <extensions>
          <ns3:TrackPointExtension>
            <ns3:hr>117</ns3:hr>
            <ns3:cad>0</ns3:cad>
          </ns3:TrackPointExtension>
        </extensions>
      </trkpt>
      <trkpt lat="37.990845032036304473876953125" lon="-107.74306685663759708404541015625">
        <ele>3897</ele>
        <time>2026-08-15T17:14:09.000Z</time>
        <extensions>
          <ns3:TrackPointExtension>
            <ns3:hr>117</ns3:hr>
            <ns3:cad>0</ns3:cad>
          </ns3:TrackPointExtension>
        </extensions>
      </trkpt>
      <trkpt lat="37.9908465407788753509521484375" lon="-107.7430526912212371826171875">
        <ele>3896.199951171875</ele>
        <time>2026-08-15T17:14:15.000Z</time>
        <extensions>
          <ns3:TrackPointExtension>
            <ns3:hr>114</ns3:hr>
            <ns3:cad>0</ns3:cad>
          </ns3:TrackPointExtension>
        </extensions>
      </trkpt>
      <trkpt lat="37.99085140228271484375" lon="-107.7430518530309200286865234375">
        <ele>3896</ele>
        <time>2026-08-15T17:14:16.000Z</time>
        <extensions>
          <ns3:TrackPointExtension>
            <ns3:hr>113</ns3:hr>
            <ns3:cad>53</ns3:cad>
          </ns3:TrackPointExtension>
        </extensions>
      </trkpt>
      <trkpt lat="37.99085701815783977508544921875" lon="-107.7430424652993679046630859375">
        <ele>3894.800048828125</ele>
        <time>2026-08-15T17:14:21.000Z</time>
        <extensions>
          <ns3:TrackPointExtension>
            <ns3:hr>111</ns3:hr>
            <ns3:cad>0</ns3:cad>
          </ns3:TrackPointExtension>
        </extensions>
      </trkpt>
      <trkpt lat="37.9908552579581737518310546875" lon="-107.743041627109050750732421875">
        <ele>3894.60009765625</ele>
        <time>2026-08-15T17:14:22.000Z</time>
        <extensions>
          <ns3:TrackPointExtension>
            <ns3:hr>111</ns3:hr>
            <ns3:cad>0</ns3:cad>
          </ns3:TrackPointExtension>
        </extensions>
      </trkpt>
      <trkpt lat="37.9908492229878902435302734375" lon="-107.74302008561789989471435546875">
        <ele>3893.800048828125</ele>
        <time>2026-08-15T17:14:28.000Z</time>
        <extensions>
          <ns3:TrackPointExtension>
            <ns3:hr>109</ns3:hr>
            <ns3:cad>0</ns3:cad>
          </ns3:TrackPointExtension>
        </extensions>
      </trkpt>
      <trkpt lat="37.99084947444498538970947265625" lon="-107.7430089376866817474365234375">
        <ele>3893.60009765625</ele>
        <time>2026-08-15T17:14:29.000Z</time>
        <extensions>
          <ns3:TrackPointExtension>
            <ns3:hr>109</ns3:hr>
            <ns3:cad>0</ns3:cad>
          </ns3:TrackPointExtension>
        </extensions>
      </trkpt>
      <trkpt lat="37.9908545874059200286865234375" lon="-107.74300466291606426239013671875">
        <ele>3892.60009765625</ele>
        <time>2026-08-15T17:14:34.000Z</time>
        <extensions>
          <ns3:TrackPointExtension>
            <ns3:hr>110</ns3:hr>
            <ns3:cad>0</ns3:cad>
          </ns3:TrackPointExtension>
        </extensions>
      </trkpt>
      <trkpt lat="37.9908703453838825225830078125" lon="-107.742996700108051300048828125">
        <ele>3892</ele>
        <time>2026-08-15T17:14:40.000Z</time>
        <extensions>
          <ns3:TrackPointExtension>
            <ns3:hr>109</ns3:hr>
            <ns3:cad>0</ns3:cad>
          </ns3:TrackPointExtension>
        </extensions>
      </trkpt>
      <trkpt lat="37.99087495543062686920166015625" lon="-107.74299812503159046173095703125">
        <ele>3891.39990234375</ele>
        <time>2026-08-15T17:14:41.000Z</time>
        <extensions>
          <ns3:TrackPointExtension>
            <ns3:hr>109</ns3:hr>
            <ns3:cad>64</ns3:cad>
          </ns3:TrackPointExtension>
        </extensions>
      </trkpt>
      <trkpt lat="37.99089574255049228668212890625" lon="-107.74301572702825069427490234375">
        <ele>3890.199951171875</ele>
        <time>2026-08-15T17:14:44.000Z</time>
        <extensions>
          <ns3:TrackPointExtension>
            <ns3:hr>108</ns3:hr>
            <ns3:cad>64</ns3:cad>
          </ns3:TrackPointExtension>
        </extensions>
      </trkpt>
      <trkpt lat="37.99091041088104248046875" lon="-107.74303198792040348052978515625">
        <ele>3889.39990234375</ele>
        <time>2026-08-15T17:14:47.000Z</time>
        <extensions>
          <ns3:TrackPointExtension>
            <ns3:hr>106</ns3:hr>
            <ns3:cad>64</ns3:cad>
          </ns3:TrackPointExtension>
        </extensions>
      </trkpt>
      <trkpt lat="37.9909125901758670806884765625" lon="-107.743033580482006072998046875">
        <ele>3889.199951171875</ele>
        <time>2026-08-15T17:14:48.000Z</time>
        <extensions>
          <ns3:TrackPointExtension>
            <ns3:hr>106</ns3:hr>
            <ns3:cad>64</ns3:cad>
          </ns3:TrackPointExtension>
        </extensions>
      </trkpt>
      <trkpt lat="37.99091669730842113494873046875" lon="-107.74303031153976917266845703125">
        <ele>3889.199951171875</ele>
        <time>2026-08-15T17:14:49.000Z</time>
        <extensions>
          <ns3:TrackPointExtension>
            <ns3:hr>105</ns3:hr>
            <ns3:cad>64</ns3:cad>
          </ns3:TrackPointExtension>
        </extensions>
      </trkpt>
      <trkpt lat="37.99091837368905544281005859375" lon="-107.7430012263357639312744140625">
        <ele>3889.199951171875</ele>
        <time>2026-08-15T17:14:53.000Z</time>
        <extensions>
          <ns3:TrackPointExtension>
            <ns3:hr>104</ns3:hr>
            <ns3:cad>0</ns3:cad>
          </ns3:TrackPointExtension>
        </extensions>
      </trkpt>
      <trkpt lat="37.99092625267803668975830078125" lon="-107.74298002012073993682861328125">
        <ele>3888.199951171875</ele>
        <time>2026-08-15T17:14:57.000Z</time>
        <extensions>
          <ns3:TrackPointExtension>
            <ns3:hr>103</ns3:hr>
            <ns3:cad>0</ns3:cad>
          </ns3:TrackPointExtension>
        </extensions>
      </trkpt>
      <trkpt lat="37.9909290187060832977294921875" lon="-107.74297515861690044403076171875">
        <ele>3888</ele>
        <time>2026-08-15T17:14:58.000Z</time>
        <extensions>
          <ns3:TrackPointExtension>
            <ns3:hr>103</ns3:hr>
            <ns3:cad>40</ns3:cad>
          </ns3:TrackPointExtension>
        </extensions>
      </trkpt>
      <trkpt lat="37.9909332096576690673828125" lon="-107.7429579757153987884521484375">
        <ele>3887.39990234375</ele>
        <time>2026-08-15T17:15:02.000Z</time>
        <extensions>
          <ns3:TrackPointExtension>
            <ns3:hr>102</ns3:hr>
            <ns3:cad>0</ns3:cad>
          </ns3:TrackPointExtension>
        </extensions>
      </trkpt>
      <trkpt lat="37.990941591560840606689453125" lon="-107.7429495938122272491455078125">
        <ele>3886.800048828125</ele>
        <time>2026-08-15T17:15:05.000Z</time>
        <extensions>
          <ns3:TrackPointExtension>
            <ns3:hr>103</ns3:hr>
            <ns3:cad>79</ns3:cad>
          </ns3:TrackPointExtension>
        </extensions>
      </trkpt>
      <trkpt lat="37.99095089547336101531982421875" lon="-107.742935679852962493896484375">
        <ele>3886.199951171875</ele>
        <time>2026-08-15T17:15:07.000Z</time>
        <extensions>
          <ns3:TrackPointExtension>
            <ns3:hr>104</ns3:hr>
            <ns3:cad>0</ns3:cad>
          </ns3:TrackPointExtension>
        </extensions>
      </trkpt>
      <trkpt lat="37.99095399677753448486328125" lon="-107.74292788468301296234130859375">
        <ele>3885.800048828125</ele>
        <time>2026-08-15T17:15:09.000Z</time>
        <extensions>
          <ns3:TrackPointExtension>
            <ns3:hr>104</ns3:hr>
            <ns3:cad>0</ns3:cad>
          </ns3:TrackPointExtension>
        </extensions>
      </trkpt>
      <trkpt lat="37.9909652285277843475341796875" lon="-107.74290910921990871429443359375">
        <ele>3884.60009765625</ele>
        <time>2026-08-15T17:15:14.000Z</time>
        <extensions>
          <ns3:TrackPointExtension>
            <ns3:hr>103</ns3:hr>
            <ns3:cad>0</ns3:cad>
          </ns3:TrackPointExtension>
        </extensions>
      </trkpt>
      <trkpt lat="37.99097679555416107177734375" lon="-107.7428952790796756744384765625">
        <ele>3883.60009765625</ele>
        <time>2026-08-15T17:15:19.000Z</time>
        <extensions>
          <ns3:TrackPointExtension>
            <ns3:hr>104</ns3:hr>
            <ns3:cad>0</ns3:cad>
          </ns3:TrackPointExtension>
        </extensions>
      </trkpt>
      <trkpt lat="37.9909866861999034881591796875" lon="-107.742865271866321563720703125">
        <ele>3882.199951171875</ele>
        <time>2026-08-15T17:15:24.000Z</time>
        <extensions>
          <ns3:TrackPointExtension>
            <ns3:hr>105</ns3:hr>
            <ns3:cad>0</ns3:cad>
          </ns3:TrackPointExtension>
        </extensions>
      </trkpt>
      <trkpt lat="37.990987189114093780517578125" lon="-107.74285663850605487823486328125">
        <ele>3882</ele>
        <time>2026-08-15T17:15:26.000Z</time>
        <extensions>
          <ns3:TrackPointExtension>
            <ns3:hr>105</ns3:hr>
            <ns3:cad>0</ns3:cad>
          </ns3:TrackPointExtension>
        </extensions>
      </trkpt>
      <trkpt lat="37.9909883625805377960205078125" lon="-107.7428355999290943145751953125">
        <ele>3881.199951171875</ele>
        <time>2026-08-15T17:15:31.000Z</time>
        <extensions>
          <ns3:TrackPointExtension>
            <ns3:hr>105</ns3:hr>
            <ns3:cad>0</ns3:cad>
          </ns3:TrackPointExtension>
        </extensions>
      </trkpt>
      <trkpt lat="37.99098677001893520355224609375" lon="-107.74283207952976226806640625">
        <ele>3881.199951171875</ele>
        <time>2026-08-15T17:15:32.000Z</time>
        <extensions>
          <ns3:TrackPointExtension>
            <ns3:hr>105</ns3:hr>
            <ns3:cad>0</ns3:cad>
          </ns3:TrackPointExtension>
        </extensions>
      </trkpt>
      <trkpt lat="37.99101577140390872955322265625" lon="-107.74280098266899585723876953125">
        <ele>3879.800048828125</ele>
        <time>2026-08-15T17:15:37.000Z</time>
        <extensions>
          <ns3:TrackPointExtension>
            <ns3:hr>104</ns3:hr>
            <ns3:cad>0</ns3:cad>
          </ns3:TrackPointExtension>
        </extensions>
      </trkpt>
      <trkpt lat="37.99102281220257282257080078125" lon="-107.7427822910249233245849609375">
        <ele>3879</ele>
        <time>2026-08-15T17:15:41.000Z</time>
        <extensions>
          <ns3:TrackPointExtension>
            <ns3:hr>106</ns3:hr>
            <ns3:cad>0</ns3:cad>
          </ns3:TrackPointExtension>
        </extensions>
      </trkpt>
      <trkpt lat="37.99102951772511005401611328125" lon="-107.74277516640722751617431640625">
        <ele>3878.60009765625</ele>
        <time>2026-08-15T17:15:43.000Z</time>
        <extensions>
          <ns3:TrackPointExtension>
            <ns3:hr>108</ns3:hr>
            <ns3:cad>0</ns3:cad>
          </ns3:TrackPointExtension>
        </extensions>
      </trkpt>
      <trkpt lat="37.99104250967502593994140625" lon="-107.7427729032933712005615234375">
        <ele>3877.39990234375</ele>
        <time>2026-08-15T17:15:47.000Z</time>
        <extensions>
          <ns3:TrackPointExtension>
            <ns3:hr>110</ns3:hr>
            <ns3:cad>0</ns3:cad>
          </ns3:TrackPointExtension>
        </extensions>
      </trkpt>
      <trkpt lat="37.9910539090633392333984375" lon="-107.74276561103761196136474609375">
        <ele>3877.199951171875</ele>
        <time>2026-08-15T17:15:48.000Z</time>
        <extensions>
          <ns3:TrackPointExtension>
            <ns3:hr>110</ns3:hr>
            <ns3:cad>0</ns3:cad>
          </ns3:TrackPointExtension>
        </extensions>
      </trkpt>
      <trkpt lat="37.99105860292911529541015625" lon="-107.7427346818149089813232421875">
        <ele>3876.60009765625</ele>
        <time>2026-08-15T17:15:52.000Z</time>
        <extensions>
          <ns3:TrackPointExtension>
            <ns3:hr>111</ns3:hr>
            <ns3:cad>0</ns3:cad>
          </ns3:TrackPointExtension>
        </extensions>
      </trkpt>
      <trkpt lat="37.99105650745332241058349609375" lon="-107.7427283115684986114501953125">
        <ele>3876.39990234375</ele>
        <time>2026-08-15T17:15:53.000Z</time>
        <extensions>
          <ns3:TrackPointExtension>
            <ns3:hr>111</ns3:hr>
            <ns3:cad>0</ns3:cad>
          </ns3:TrackPointExtension>
        </extensions>
      </trkpt>
      <trkpt lat="37.9910664819180965423583984375" lon="-107.74270811118185520172119140625">
        <ele>3875.39990234375</ele>
        <time>2026-08-15T17:15:59.000Z</time>
        <extensions>
          <ns3:TrackPointExtension>
            <ns3:hr>112</ns3:hr>
            <ns3:cad>0</ns3:cad>
          </ns3:TrackPointExtension>
        </extensions>
      </trkpt>
      <trkpt lat="37.99107603728771209716796875" lon="-107.7426766790449619293212890625">
        <ele>3874.199951171875</ele>
        <time>2026-08-15T17:16:04.000Z</time>
        <extensions>
          <ns3:TrackPointExtension>
            <ns3:hr>113</ns3:hr>
            <ns3:cad>0</ns3:cad>
          </ns3:TrackPointExtension>
        </extensions>
      </trkpt>
      <trkpt lat="37.99108550883829593658447265625" lon="-107.742643989622592926025390625">
        <ele>3873.199951171875</ele>
        <time>2026-08-15T17:16:10.000Z</time>
        <extensions>
          <ns3:TrackPointExtension>
            <ns3:hr>112</ns3:hr>
            <ns3:cad>0</ns3:cad>
          </ns3:TrackPointExtension>
        </extensions>
      </trkpt>
      <trkpt lat="37.9910845868289470672607421875" lon="-107.74262127466499805450439453125">
        <ele>3872.199951171875</ele>
        <time>2026-08-15T17:16:15.000Z</time>
        <extensions>
          <ns3:TrackPointExtension>
            <ns3:hr>111</ns3:hr>
            <ns3:cad>57</ns3:cad>
          </ns3:TrackPointExtension>
        </extensions>
      </trkpt>
      <trkpt lat="37.99108651466667652130126953125" lon="-107.74262177757918834686279296875">
        <ele>3872</ele>
        <time>2026-08-15T17:16:17.000Z</time>
        <extensions>
          <ns3:TrackPointExtension>
            <ns3:hr>111</ns3:hr>
            <ns3:cad>0</ns3:cad>
          </ns3:TrackPointExtension>
        </extensions>
      </trkpt>
      <trkpt lat="37.99108634702861309051513671875" lon="-107.74262244813144207000732421875">
        <ele>3872</ele>
        <time>2026-08-15T17:16:22.000Z</time>
        <extensions>
          <ns3:TrackPointExtension>
            <ns3:hr>114</ns3:hr>
            <ns3:cad>0</ns3:cad>
          </ns3:TrackPointExtension>
        </extensions>
      </trkpt>
      <trkpt lat="37.99108634702861309051513671875" lon="-107.74262244813144207000732421875">
        <ele>3872.199951171875</ele>
        <time>2026-08-15T17:16:28.000Z</time>
        <extensions>
          <ns3:TrackPointExtension>
            <ns3:hr>113</ns3:hr>
            <ns3:cad>0</ns3:cad>
          </ns3:TrackPointExtension>
        </extensions>
      </trkpt>
      <trkpt lat="37.99108634702861309051513671875" lon="-107.74262244813144207000732421875">
        <ele>3872</ele>
        <time>2026-08-15T17:16:30.000Z</time>
        <extensions>
          <ns3:TrackPointExtension>
            <ns3:hr>114</ns3:hr>
            <ns3:cad>0</ns3:cad>
          </ns3:TrackPointExtension>
        </extensions>
      </trkpt>
      <trkpt lat="37.99108634702861309051513671875" lon="-107.74262244813144207000732421875">
        <ele>3872</ele>
        <time>2026-08-15T17:16:36.000Z</time>
        <extensions>
          <ns3:TrackPointExtension>
            <ns3:hr>114</ns3:hr>
            <ns3:cad>0</ns3:cad>
          </ns3:TrackPointExtension>
        </extensions>
      </trkpt>
      <trkpt lat="37.99108634702861309051513671875" lon="-107.74262244813144207000732421875">
        <ele>3871.800048828125</ele>
        <time>2026-08-15T17:16:42.000Z</time>
        <extensions>
          <ns3:TrackPointExtension>
            <ns3:hr>113</ns3:hr>
            <ns3:cad>0</ns3:cad>
          </ns3:TrackPointExtension>
        </extensions>
      </trkpt>
      <trkpt lat="37.99108752049505710601806640625" lon="-107.74262244813144207000732421875">
        <ele>3871.800048828125</ele>
        <time>2026-08-15T17:16:48.000Z</time>
        <extensions>
          <ns3:TrackPointExtension>
            <ns3:hr>113</ns3:hr>
            <ns3:cad>0</ns3:cad>
          </ns3:TrackPointExtension>
        </extensions>
      </trkpt>
      <trkpt lat="37.99109238199889659881591796875" lon="-107.74261892773211002349853515625">
        <ele>3871.800048828125</ele>
        <time>2026-08-15T17:16:49.000Z</time>
        <extensions>
          <ns3:TrackPointExtension>
            <ns3:hr>112</ns3:hr>
            <ns3:cad>0</ns3:cad>
          </ns3:TrackPointExtension>
        </extensions>
      </trkpt>
      <trkpt lat="37.9911075532436370849609375" lon="-107.74259202182292938232421875">
        <ele>3871.39990234375</ele>
        <time>2026-08-15T17:16:52.000Z</time>
        <extensions>
          <ns3:TrackPointExtension>
            <ns3:hr>109</ns3:hr>
            <ns3:cad>0</ns3:cad>
          </ns3:TrackPointExtension>
        </extensions>
      </trkpt>
      <trkpt lat="37.9911090619862079620361328125" lon="-107.74258087389171123504638671875">
        <ele>3871</ele>
        <time>2026-08-15T17:16:55.000Z</time>
        <extensions>
          <ns3:TrackPointExtension>
            <ns3:hr>108</ns3:hr>
            <ns3:cad>0</ns3:cad>
          </ns3:TrackPointExtension>
        </extensions>
      </trkpt>
      <trkpt lat="37.99113362096250057220458984375" lon="-107.7425564825534820556640625">
        <ele>3870.800048828125</ele>
        <time>2026-08-15T17:17:00.000Z</time>
        <extensions>
          <ns3:TrackPointExtension>
            <ns3:hr>106</ns3:hr>
            <ns3:cad>0</ns3:cad>
          </ns3:TrackPointExtension>
        </extensions>
      </trkpt>
      <trkpt lat="37.9911504685878753662109375" lon="-107.742544747889041900634765625">
        <ele>3870.199951171875</ele>
        <time>2026-08-15T17:17:03.000Z</time>
        <extensions>
          <ns3:TrackPointExtension>
            <ns3:hr>103</ns3:hr>
            <ns3:cad>0</ns3:cad>
          </ns3:TrackPointExtension>
        </extensions>
      </trkpt>
      <trkpt lat="37.99114870838820934295654296875" lon="-107.74253695271909236907958984375">
        <ele>3870</ele>
        <time>2026-08-15T17:17:04.000Z</time>
        <extensions>
          <ns3:TrackPointExtension>
            <ns3:hr>103</ns3:hr>
            <ns3:cad>0</ns3:cad>
          </ns3:TrackPointExtension>
        </extensions>
      </trkpt>
      <trkpt lat="37.99114451743662357330322265625" lon="-107.74252706207334995269775390625">
        <ele>3869.800048828125</ele>
        <time>2026-08-15T17:17:05.000Z</time>
        <extensions>
          <ns3:TrackPointExtension>
            <ns3:hr>103</ns3:hr>
            <ns3:cad>0</ns3:cad>
          </ns3:TrackPointExtension>
        </extensions>
      </trkpt>
      <trkpt lat="37.99113915301859378814697265625" lon="-107.74251666851341724395751953125">
        <ele>3869.39990234375</ele>
        <time>2026-08-15T17:17:07.000Z</time>
        <extensions>
          <ns3:TrackPointExtension>
            <ns3:hr>106</ns3:hr>
            <ns3:cad>0</ns3:cad>
          </ns3:TrackPointExtension>
        </extensions>
      </trkpt>
      <trkpt lat="37.99114049412310123443603515625" lon="-107.7425137348473072052001953125">
        <ele>3869</ele>
        <time>2026-08-15T17:17:08.000Z</time>
        <extensions>
          <ns3:TrackPointExtension>
            <ns3:hr>106</ns3:hr>
            <ns3:cad>0</ns3:cad>
          </ns3:TrackPointExtension>
        </extensions>
      </trkpt>
      <trkpt lat="37.99114434979856014251708984375" lon="-107.74249018169939517974853515625">
        <ele>3868.199951171875</ele>
        <time>2026-08-15T17:17:10.000Z</time>
        <extensions>
          <ns3:TrackPointExtension>
            <ns3:hr>107</ns3:hr>
            <ns3:cad>0</ns3:cad>
          </ns3:TrackPointExtension>
        </extensions>
      </trkpt>
      <trkpt lat="37.99114317633211612701416015625" lon="-107.74248615838587284088134765625">
        <ele>3867.800048828125</ele>
        <time>2026-08-15T17:17:11.000Z</time>
        <extensions>
          <ns3:TrackPointExtension>
            <ns3:hr>107</ns3:hr>
            <ns3:cad>0</ns3:cad>
          </ns3:TrackPointExtension>
        </extensions>
      </trkpt>
      <trkpt lat="37.991154827177524566650390625" lon="-107.74246168322861194610595703125">
        <ele>3867.199951171875</ele>
        <time>2026-08-15T17:17:15.000Z</time>
        <extensions>
          <ns3:TrackPointExtension>
            <ns3:hr>108</ns3:hr>
            <ns3:cad>0</ns3:cad>
          </ns3:TrackPointExtension>
        </extensions>
      </trkpt>
      <trkpt lat="37.9911606945097446441650390625" lon="-107.7424411475658416748046875">
        <ele>3866.60009765625</ele>
        <time>2026-08-15T17:17:17.000Z</time>
        <extensions>
          <ns3:TrackPointExtension>
            <ns3:hr>108</ns3:hr>
            <ns3:cad>0</ns3:cad>
          </ns3:TrackPointExtension>
        </extensions>
      </trkpt>
      <trkpt lat="37.9911623708903789520263671875" lon="-107.7424304187297821044921875">
        <ele>3865.800048828125</ele>
        <time>2026-08-15T17:17:20.000Z</time>
        <extensions>
          <ns3:TrackPointExtension>
            <ns3:hr>110</ns3:hr>
            <ns3:cad>0</ns3:cad>
          </ns3:TrackPointExtension>
        </extensions>
      </trkpt>
      <trkpt lat="37.99115943722426891326904296875" lon="-107.7424250543117523193359375">
        <ele>3865.60009765625</ele>
        <time>2026-08-15T17:17:21.000Z</time>
        <extensions>
          <ns3:TrackPointExtension>
            <ns3:hr>110</ns3:hr>
            <ns3:cad>0</ns3:cad>
          </ns3:TrackPointExtension>
        </extensions>
      </trkpt>
      <trkpt lat="37.991174943745136260986328125" lon="-107.74239714257419109344482421875">
        <ele>3865.199951171875</ele>
        <time>2026-08-15T17:17:25.000Z</time>
        <extensions>
          <ns3:TrackPointExtension>
            <ns3:hr>111</ns3:hr>
            <ns3:cad>0</ns3:cad>
          </ns3:TrackPointExtension>
        </extensions>
      </trkpt>
      <trkpt lat="37.991177625954151153564453125" lon="-107.74239496327936649322509765625">
        <ele>3864.39990234375</ele>
        <time>2026-08-15T17:17:28.000Z</time>
        <extensions>
          <ns3:TrackPointExtension>
            <ns3:hr>110</ns3:hr>
            <ns3:cad>0</ns3:cad>
          </ns3:TrackPointExtension>
        </extensions>
      </trkpt>
      <trkpt lat="37.991177625954151153564453125" lon="-107.74239496327936649322509765625">
        <ele>3864.199951171875</ele>
        <time>2026-08-15T17:17:31.000Z</time>
        <extensions>
          <ns3:TrackPointExtension>
            <ns3:hr>110</ns3:hr>
            <ns3:cad>0</ns3:cad>
          </ns3:TrackPointExtension>
        </extensions>
      </trkpt>
      <trkpt lat="37.99117703922092914581298828125" lon="-107.74239110760390758514404296875">
        <ele>3864.199951171875</ele>
        <time>2026-08-15T17:17:37.000Z</time>
        <extensions>
          <ns3:TrackPointExtension>
            <ns3:hr>109</ns3:hr>
            <ns3:cad>0</ns3:cad>
          </ns3:TrackPointExtension>
        </extensions>
      </trkpt>
      <trkpt lat="37.991193719208240509033203125" lon="-107.74237954057753086090087890625">
        <ele>3863.800048828125</ele>
        <time>2026-08-15T17:17:40.000Z</time>
        <extensions>
          <ns3:TrackPointExtension>
            <ns3:hr>109</ns3:hr>
            <ns3:cad>0</ns3:cad>
          </ns3:TrackPointExtension>
        </extensions>
      </trkpt>
      <trkpt lat="37.99119941890239715576171875" lon="-107.74237752892076969146728515625">
        <ele>3863.39990234375</ele>
        <time>2026-08-15T17:17:41.000Z</time>
        <extensions>
          <ns3:TrackPointExtension>
            <ns3:hr>108</ns3:hr>
            <ns3:cad>0</ns3:cad>
          </ns3:TrackPointExtension>
        </extensions>
      </trkpt>
      <trkpt lat="37.99120252020657062530517578125" lon="-107.7423714101314544677734375">
        <ele>3862.800048828125</ele>
        <time>2026-08-15T17:17:47.000Z</time>
        <extensions>
          <ns3:TrackPointExtension>
            <ns3:hr>107</ns3:hr>
            <ns3:cad>0</ns3:cad>
          </ns3:TrackPointExtension>
        </extensions>
      </trkpt>
      <trkpt lat="37.99119313247501850128173828125" lon="-107.74237618781626224517822265625">
        <ele>3862.60009765625</ele>
        <time>2026-08-15T17:17:51.000Z</time>
        <extensions>
          <ns3:TrackPointExtension>
            <ns3:hr>110</ns3:hr>
            <ns3:cad>0</ns3:cad>
          </ns3:TrackPointExtension>
        </extensions>
      </trkpt>
      <trkpt lat="37.99120252020657062530517578125" lon="-107.7423714101314544677734375">
        <ele>3862.800048828125</ele>
        <time>2026-08-15T17:17:53.000Z</time>
        <extensions>
          <ns3:TrackPointExtension>
            <ns3:hr>108</ns3:hr>
            <ns3:cad>0</ns3:cad>
          </ns3:TrackPointExtension>
        </extensions>
      </trkpt>
      <trkpt lat="37.99120252020657062530517578125" lon="-107.7423714101314544677734375">
        <ele>3862.800048828125</ele>
        <time>2026-08-15T17:17:56.000Z</time>
        <extensions>
          <ns3:TrackPointExtension>
            <ns3:hr>104</ns3:hr>
            <ns3:cad>0</ns3:cad>
          </ns3:TrackPointExtension>
        </extensions>
      </trkpt>
      <trkpt lat="37.99119631759822368621826171875" lon="-107.74235707707703113555908203125">
        <ele>3862.39990234375</ele>
        <time>2026-08-15T17:17:59.000Z</time>
        <extensions>
          <ns3:TrackPointExtension>
            <ns3:hr>101</ns3:hr>
            <ns3:cad>0</ns3:cad>
          </ns3:TrackPointExtension>
        </extensions>
      </trkpt>
      <trkpt lat="37.991209141910076141357421875" lon="-107.74234048090875148773193359375">
        <ele>3861.60009765625</ele>
        <time>2026-08-15T17:18:03.000Z</time>
        <extensions>
          <ns3:TrackPointExtension>
            <ns3:hr>100</ns3:hr>
            <ns3:cad>0</ns3:cad>
          </ns3:TrackPointExtension>
        </extensions>
      </trkpt>
      <trkpt lat="37.9912247322499752044677734375" lon="-107.742319442331790924072265625">
        <ele>3861.199951171875</ele>
        <time>2026-08-15T17:18:05.000Z</time>
        <extensions>
          <ns3:TrackPointExtension>
            <ns3:hr>100</ns3:hr>
            <ns3:cad>77</ns3:cad>
          </ns3:TrackPointExtension>
        </extensions>
      </trkpt>
      <trkpt lat="37.9912394843995571136474609375" lon="-107.7423043549060821533203125">
        <ele>3861.199951171875</ele>
        <time>2026-08-15T17:18:08.000Z</time>
        <extensions>
          <ns3:TrackPointExtension>
            <ns3:hr>103</ns3:hr>
            <ns3:cad>0</ns3:cad>
          </ns3:TrackPointExtension>
        </extensions>
      </trkpt>
      <trkpt lat="37.9912535659968852996826171875" lon="-107.742284238338470458984375">
        <ele>3861</ele>
        <time>2026-08-15T17:18:11.000Z</time>
        <extensions>
          <ns3:TrackPointExtension>
            <ns3:hr>106</ns3:hr>
            <ns3:cad>0</ns3:cad>
          </ns3:TrackPointExtension>
        </extensions>
      </trkpt>
      <trkpt lat="37.9912579245865345001220703125" lon="-107.74227979592978954315185546875">
        <ele>3860.60009765625</ele>
        <time>2026-08-15T17:18:15.000Z</time>
        <extensions>
          <ns3:TrackPointExtension>
            <ns3:hr>106</ns3:hr>
            <ns3:cad>0</ns3:cad>
          </ns3:TrackPointExtension>
        </extensions>
      </trkpt>
      <trkpt lat="37.9912579245865345001220703125" lon="-107.74227979592978954315185546875">
        <ele>3860.39990234375</ele>
        <time>2026-08-15T17:18:21.000Z</time>
        <extensions>
          <ns3:TrackPointExtension>
            <ns3:hr>107</ns3:hr>
            <ns3:cad>0</ns3:cad>
          </ns3:TrackPointExtension>
        </extensions>
      </trkpt>
      <trkpt lat="37.9912579245865345001220703125" lon="-107.74227979592978954315185546875">
        <ele>3860.199951171875</ele>
        <time>2026-08-15T17:18:22.000Z</time>
        <extensions>
          <ns3:TrackPointExtension>
            <ns3:hr>106</ns3:hr>
            <ns3:cad>0</ns3:cad>
          </ns3:TrackPointExtension>
        </extensions>
      </trkpt>
      <trkpt lat="37.9912579245865345001220703125" lon="-107.74227979592978954315185546875">
        <ele>3860.199951171875</ele>
        <time>2026-08-15T17:18:28.000Z</time>
        <extensions>
          <ns3:TrackPointExtension>
            <ns3:hr>106</ns3:hr>
            <ns3:cad>0</ns3:cad>
          </ns3:TrackPointExtension>
        </extensions>
      </trkpt>
      <trkpt lat="37.9912579245865345001220703125" lon="-107.74227979592978954315185546875">
        <ele>3860.199951171875</ele>
        <time>2026-08-15T17:18:30.000Z</time>
        <extensions>
          <ns3:TrackPointExtension>
            <ns3:hr>103</ns3:hr>
            <ns3:cad>0</ns3:cad>
          </ns3:TrackPointExtension>
        </extensions>
      </trkpt>
      <trkpt lat="37.9912579245865345001220703125" lon="-107.74227979592978954315185546875">
        <ele>3860.199951171875</ele>
        <time>2026-08-15T17:18:32.000Z</time>
        <extensions>
          <ns3:TrackPointExtension>
            <ns3:hr>103</ns3:hr>
            <ns3:cad>0</ns3:cad>
          </ns3:TrackPointExtension>
        </extensions>
      </trkpt>
      <trkpt lat="37.9912579245865345001220703125" lon="-107.74227979592978954315185546875">
        <ele>3860</ele>
        <time>2026-08-15T17:18:38.000Z</time>
        <extensions>
          <ns3:TrackPointExtension>
            <ns3:hr>102</ns3:hr>
            <ns3:cad>0</ns3:cad>
          </ns3:TrackPointExtension>
        </extensions>
      </trkpt>
      <trkpt lat="37.9912579245865345001220703125" lon="-107.74227979592978954315185546875">
        <ele>3860.199951171875</ele>
        <time>2026-08-15T17:18:41.000Z</time>
        <extensions>
          <ns3:TrackPointExtension>
            <ns3:hr>101</ns3:hr>
            <ns3:cad>0</ns3:cad>
          </ns3:TrackPointExtension>
        </extensions>
      </trkpt>
      <trkpt lat="37.9912582598626613616943359375" lon="-107.74227409623563289642333984375">
        <ele>3859</ele>
        <time>2026-08-15T17:18:47.000Z</time>
        <extensions>
          <ns3:TrackPointExtension>
            <ns3:hr>99</ns3:hr>
            <ns3:cad>0</ns3:cad>
          </ns3:TrackPointExtension>
        </extensions>
      </trkpt>
      <trkpt lat="37.99125432036817073822021484375" lon="-107.74227174930274486541748046875">
        <ele>3858.60009765625</ele>
        <time>2026-08-15T17:18:49.000Z</time>
        <extensions>
          <ns3:TrackPointExtension>
            <ns3:hr>99</ns3:hr>
            <ns3:cad>60</ns3:cad>
          </ns3:TrackPointExtension>
        </extensions>
      </trkpt>
      <trkpt lat="37.991260103881359100341796875" lon="-107.742268145084381103515625">
        <ele>3858</ele>
        <time>2026-08-15T17:18:51.000Z</time>
        <extensions>
          <ns3:TrackPointExtension>
            <ns3:hr>99</ns3:hr>
            <ns3:cad>60</ns3:cad>
          </ns3:TrackPointExtension>
        </extensions>
      </trkpt>
      <trkpt lat="37.9912673123180866241455078125" lon="-107.7422649599611759185791015625">
        <ele>3857.199951171875</ele>
        <time>2026-08-15T17:18:54.000Z</time>
        <extensions>
          <ns3:TrackPointExtension>
            <ns3:hr>103</ns3:hr>
            <ns3:cad>60</ns3:cad>
          </ns3:TrackPointExtension>
        </extensions>
      </trkpt>
      <trkpt lat="37.99127292819321155548095703125" lon="-107.7422609366476535797119140625">
        <ele>3856.800048828125</ele>
        <time>2026-08-15T17:18:55.000Z</time>
        <extensions>
          <ns3:TrackPointExtension>
            <ns3:hr>105</ns3:hr>
            <ns3:cad>60</ns3:cad>
          </ns3:TrackPointExtension>
        </extensions>
      </trkpt>
      <trkpt lat="37.99127711914479732513427734375" lon="-107.7422579191625118255615234375">
        <ele>3856.39990234375</ele>
        <time>2026-08-15T17:18:56.000Z</time>
        <extensions>
          <ns3:TrackPointExtension>
            <ns3:hr>105</ns3:hr>
            <ns3:cad>55</ns3:cad>
          </ns3:TrackPointExtension>
        </extensions>
      </trkpt>
      <trkpt lat="37.991298995912075042724609375" lon="-107.74224224500358104705810546875">
        <ele>3855.60009765625</ele>
        <time>2026-08-15T17:19:00.000Z</time>
        <extensions>
          <ns3:TrackPointExtension>
            <ns3:hr>106</ns3:hr>
            <ns3:cad>0</ns3:cad>
          </ns3:TrackPointExtension>
        </extensions>
      </trkpt>
      <trkpt lat="37.99131810665130615234375" lon="-107.74222858250141143798828125">
        <ele>3855</ele>
        <time>2026-08-15T17:19:03.000Z</time>
        <extensions>
          <ns3:TrackPointExtension>
            <ns3:hr>106</ns3:hr>
            <ns3:cad>0</ns3:cad>
          </ns3:TrackPointExtension>
        </extensions>
      </trkpt>
      <trkpt lat="37.99131877720355987548828125" lon="-107.74221491999924182891845703125">
        <ele>3854.39990234375</ele>
        <time>2026-08-15T17:19:05.000Z</time>
        <extensions>
          <ns3:TrackPointExtension>
            <ns3:hr>106</ns3:hr>
            <ns3:cad>0</ns3:cad>
          </ns3:TrackPointExtension>
        </extensions>
      </trkpt>
      <trkpt lat="37.99132238142192363739013671875" lon="-107.74221659637987613677978515625">
        <ele>3853.800048828125</ele>
        <time>2026-08-15T17:19:09.000Z</time>
        <extensions>
          <ns3:TrackPointExtension>
            <ns3:hr>107</ns3:hr>
            <ns3:cad>45</ns3:cad>
          </ns3:TrackPointExtension>
        </extensions>
      </trkpt>
      <trkpt lat="37.99133176915347576141357421875" lon="-107.742183320224285125732421875">
        <ele>3853.60009765625</ele>
        <time>2026-08-15T17:19:15.000Z</time>
        <extensions>
          <ns3:TrackPointExtension>
            <ns3:hr>108</ns3:hr>
            <ns3:cad>0</ns3:cad>
          </ns3:TrackPointExtension>
        </extensions>
      </trkpt>
      <trkpt lat="37.991330511868000030517578125" lon="-107.7421771176159381866455078125">
        <ele>3853.60009765625</ele>
        <time>2026-08-15T17:19:16.000Z</time>
        <extensions>
          <ns3:TrackPointExtension>
            <ns3:hr>108</ns3:hr>
            <ns3:cad>0</ns3:cad>
          </ns3:TrackPointExtension>
        </extensions>
      </trkpt>
      <trkpt lat="37.99132682383060455322265625" lon="-107.74217225611209869384765625">
        <ele>3853.39990234375</ele>
        <time>2026-08-15T17:19:17.000Z</time>
        <extensions>
          <ns3:TrackPointExtension>
            <ns3:hr>108</ns3:hr>
            <ns3:cad>0</ns3:cad>
          </ns3:TrackPointExtension>
        </extensions>
      </trkpt>
      <trkpt lat="37.9913192801177501678466796875" lon="-107.74214535020291805267333984375">
        <ele>3852.39990234375</ele>
        <time>2026-08-15T17:19:20.000Z</time>
        <extensions>
          <ns3:TrackPointExtension>
            <ns3:hr>109</ns3:hr>
            <ns3:cad>0</ns3:cad>
          </ns3:TrackPointExtension>
        </extensions>
      </trkpt>
      <trkpt lat="37.99132187850773334503173828125" lon="-107.74213093332946300506591796875">
        <ele>3852</ele>
        <time>2026-08-15T17:19:22.000Z</time>
        <extensions>
          <ns3:TrackPointExtension>
            <ns3:hr>112</ns3:hr>
            <ns3:cad>49</ns3:cad>
          </ns3:TrackPointExtension>
        </extensions>
      </trkpt>
      <trkpt lat="37.99132137559354305267333984375" lon="-107.7421214617788791656494140625">
        <ele>3852</ele>
        <time>2026-08-15T17:19:23.000Z</time>
        <extensions>
          <ns3:TrackPointExtension>
            <ns3:hr>113</ns3:hr>
            <ns3:cad>49</ns3:cad>
          </ns3:TrackPointExtension>
        </extensions>
      </trkpt>
      <trkpt lat="37.99133696593344211578369140625" lon="-107.74208374321460723876953125">
        <ele>3851</ele>
        <time>2026-08-15T17:19:27.000Z</time>
        <extensions>
          <ns3:TrackPointExtension>
            <ns3:hr>110</ns3:hr>
            <ns3:cad>55</ns3:cad>
          </ns3:TrackPointExtension>
        </extensions>
      </trkpt>
      <trkpt lat="37.9913414083421230316162109375" lon="-107.74207175709307193756103515625">
        <ele>3850.60009765625</ele>
        <time>2026-08-15T17:19:28.000Z</time>
        <extensions>
          <ns3:TrackPointExtension>
            <ns3:hr>106</ns3:hr>
            <ns3:cad>55</ns3:cad>
          </ns3:TrackPointExtension>
        </extensions>
      </trkpt>
      <trkpt lat="37.9913645423948764801025390625" lon="-107.7420477010309696197509765625">
        <ele>3850.199951171875</ele>
        <time>2026-08-15T17:19:31.000Z</time>
        <extensions>
          <ns3:TrackPointExtension>
            <ns3:hr>104</ns3:hr>
            <ns3:cad>54</ns3:cad>
          </ns3:TrackPointExtension>
        </extensions>
      </trkpt>
      <trkpt lat="37.99139714799821376800537109375" lon="-107.7419803105294704437255859375">
        <ele>3850</ele>
        <time>2026-08-15T17:19:37.000Z</time>
        <extensions>
          <ns3:TrackPointExtension>
            <ns3:hr>104</ns3:hr>
            <ns3:cad>53</ns3:cad>
          </ns3:TrackPointExtension>
        </extensions>
      </trkpt>
      <trkpt lat="37.9914024285972118377685546875" lon="-107.74197637103497982025146484375">
        <ele>3849.800048828125</ele>
        <time>2026-08-15T17:19:39.000Z</time>
        <extensions>
          <ns3:TrackPointExtension>
            <ns3:hr>105</ns3:hr>
            <ns3:cad>57</ns3:cad>
          </ns3:TrackPointExtension>
        </extensions>
      </trkpt>
      <trkpt lat="37.991405613720417022705078125" lon="-107.74197452701628208160400390625">
        <ele>3849.800048828125</ele>
        <time>2026-08-15T17:19:45.000Z</time>
        <extensions>
          <ns3:TrackPointExtension>
            <ns3:hr>104</ns3:hr>
            <ns3:cad>0</ns3:cad>
          </ns3:TrackPointExtension>
        </extensions>
      </trkpt>
      <trkpt lat="37.991405613720417022705078125" lon="-107.74197452701628208160400390625">
        <ele>3849.800048828125</ele>
        <time>2026-08-15T17:19:50.000Z</time>
        <extensions>
          <ns3:TrackPointExtension>
            <ns3:hr>105</ns3:hr>
            <ns3:cad>0</ns3:cad>
          </ns3:TrackPointExtension>
        </extensions>
      </trkpt>
      <trkpt lat="37.99140905030071735382080078125" lon="-107.7419347129762172698974609375">
        <ele>3849.800048828125</ele>
        <time>2026-08-15T17:19:56.000Z</time>
        <extensions>
          <ns3:TrackPointExtension>
            <ns3:hr>107</ns3:hr>
            <ns3:cad>0</ns3:cad>
          </ns3:TrackPointExtension>
        </extensions>
      </trkpt>
      <trkpt lat="37.99143369309604167938232421875" lon="-107.7418626286089420318603515625">
        <ele>3850</ele>
        <time>2026-08-15T17:20:00.000Z</time>
        <extensions>
          <ns3:TrackPointExtension>
            <ns3:hr>111</ns3:hr>
            <ns3:cad>0</ns3:cad>
          </ns3:TrackPointExtension>
        </extensions>
      </trkpt>
      <trkpt lat="37.9914508759975433349609375" lon="-107.74183706380426883697509765625">
        <ele>3849.800048828125</ele>
        <time>2026-08-15T17:20:02.000Z</time>
        <extensions>
          <ns3:TrackPointExtension>
            <ns3:hr>115</ns3:hr>
            <ns3:cad>55</ns3:cad>
          </ns3:TrackPointExtension>
        </extensions>
      </trkpt>
      <trkpt lat="37.9914627783000469207763671875" lon="-107.7418183721601963043212890625">
        <ele>3849.800048828125</ele>
        <time>2026-08-15T17:20:04.000Z</time>
        <extensions>
          <ns3:TrackPointExtension>
            <ns3:hr>116</ns3:hr>
            <ns3:cad>55</ns3:cad>
          </ns3:TrackPointExtension>
        </extensions>
      </trkpt>
      <trkpt lat="37.991512902081012725830078125" lon="-107.741766236722469329833984375">
        <ele>3849.39990234375</ele>
        <time>2026-08-15T17:20:10.000Z</time>
        <extensions>
          <ns3:TrackPointExtension>
            <ns3:hr>116</ns3:hr>
            <ns3:cad>55</ns3:cad>
          </ns3:TrackPointExtension>
        </extensions>
      </trkpt>
      <trkpt lat="37.99152958206832408905029296875" lon="-107.7417545020580291748046875">
        <ele>3849</ele>
        <time>2026-08-15T17:20:12.000Z</time>
        <extensions>
          <ns3:TrackPointExtension>
            <ns3:hr>116</ns3:hr>
            <ns3:cad>54</ns3:cad>
          </ns3:TrackPointExtension>
        </extensions>
      </trkpt>
      <trkpt lat="37.99154274165630340576171875" lon="-107.74171066470444202423095703125">
        <ele>3848</ele>
        <time>2026-08-15T17:20:16.000Z</time>
        <extensions>
          <ns3:TrackPointExtension>
            <ns3:hr>117</ns3:hr>
            <ns3:cad>60</ns3:cad>
          </ns3:TrackPointExtension>
        </extensions>
      </trkpt>
      <trkpt lat="37.99154500477015972137451171875" lon="-107.7416946552693843841552734375">
        <ele>3847.800048828125</ele>
        <time>2026-08-15T17:20:17.000Z</time>
        <extensions>
          <ns3:TrackPointExtension>
            <ns3:hr>118</ns3:hr>
            <ns3:cad>60</ns3:cad>
          </ns3:TrackPointExtension>
        </extensions>
      </trkpt>
      <trkpt lat="37.99156076274812221527099609375" lon="-107.74166397750377655029296875">
        <ele>3847</ele>
        <time>2026-08-15T17:20:20.000Z</time>
        <extensions>
          <ns3:TrackPointExtension>
            <ns3:hr>119</ns3:hr>
            <ns3:cad>61</ns3:cad>
          </ns3:TrackPointExtension>
        </extensions>
      </trkpt>
      <trkpt lat="37.99156730063259601593017578125" lon="-107.741652242839336395263671875">
        <ele>3846.60009765625</ele>
        <time>2026-08-15T17:20:21.000Z</time>
        <extensions>
          <ns3:TrackPointExtension>
            <ns3:hr>119</ns3:hr>
            <ns3:cad>61</ns3:cad>
          </ns3:TrackPointExtension>
        </extensions>
      </trkpt>
      <trkpt lat="37.9915690608322620391845703125" lon="-107.741646878421306610107421875">
        <ele>3846.60009765625</ele>
        <time>2026-08-15T17:20:22.000Z</time>
        <extensions>
          <ns3:TrackPointExtension>
            <ns3:hr>119</ns3:hr>
            <ns3:cad>61</ns3:cad>
          </ns3:TrackPointExtension>
        </extensions>
      </trkpt>
      <trkpt lat="37.9915771074593067169189453125" lon="-107.7416195534169673919677734375">
        <ele>3845.199951171875</ele>
        <time>2026-08-15T17:20:26.000Z</time>
        <extensions>
          <ns3:TrackPointExtension>
            <ns3:hr>115</ns3:hr>
            <ns3:cad>59</ns3:cad>
          </ns3:TrackPointExtension>
        </extensions>
      </trkpt>
      <trkpt lat="37.99158255569636821746826171875" lon="-107.7416061423718929290771484375">
        <ele>3844.199951171875</ele>
        <time>2026-08-15T17:20:28.000Z</time>
        <extensions>
          <ns3:TrackPointExtension>
            <ns3:hr>113</ns3:hr>
            <ns3:cad>59</ns3:cad>
          </ns3:TrackPointExtension>
        </extensions>
      </trkpt>
      <trkpt lat="37.991585992276668548583984375" lon="-107.74157823063433170318603515625">
        <ele>3843.60009765625</ele>
        <time>2026-08-15T17:20:34.000Z</time>
        <extensions>
          <ns3:TrackPointExtension>
            <ns3:hr>112</ns3:hr>
            <ns3:cad>62</ns3:cad>
          </ns3:TrackPointExtension>
        </extensions>
      </trkpt>
      <trkpt lat="37.99157626926898956298828125" lon="-107.74155794642865657806396484375">
        <ele>3843.199951171875</ele>
        <time>2026-08-15T17:20:36.000Z</time>
        <extensions>
          <ns3:TrackPointExtension>
            <ns3:hr>111</ns3:hr>
            <ns3:cad>61</ns3:cad>
          </ns3:TrackPointExtension>
        </extensions>
      </trkpt>
      <trkpt lat="37.9915673844516277313232421875" lon="-107.74153397418558597564697265625">
        <ele>3842.800048828125</ele>
        <time>2026-08-15T17:20:39.000Z</time>
        <extensions>
          <ns3:TrackPointExtension>
            <ns3:hr>108</ns3:hr>
            <ns3:cad>61</ns3:cad>
          </ns3:TrackPointExtension>
        </extensions>
      </trkpt>
      <trkpt lat="37.991572916507720947265625" lon="-107.7415203116834163665771484375">
        <ele>3842.39990234375</ele>
        <time>2026-08-15T17:20:41.000Z</time>
        <extensions>
          <ns3:TrackPointExtension>
            <ns3:hr>107</ns3:hr>
            <ns3:cad>55</ns3:cad>
          </ns3:TrackPointExtension>
        </extensions>
      </trkpt>
      <trkpt lat="37.9915764369070529937744140625" lon="-107.7415166236460208892822265625">
        <ele>3842.199951171875</ele>
        <time>2026-08-15T17:20:42.000Z</time>
        <extensions>
          <ns3:TrackPointExtension>
            <ns3:hr>108</ns3:hr>
            <ns3:cad>55</ns3:cad>
          </ns3:TrackPointExtension>
        </extensions>
      </trkpt>
      <trkpt lat="37.99157115630805492401123046875" lon="-107.7415023744106292724609375">
        <ele>3841</ele>
        <time>2026-08-15T17:20:45.000Z</time>
        <extensions>
          <ns3:TrackPointExtension>
            <ns3:hr>108</ns3:hr>
            <ns3:cad>55</ns3:cad>
          </ns3:TrackPointExtension>
        </extensions>
      </trkpt>
      <trkpt lat="37.9915633611381053924560546875" lon="-107.74149340577423572540283203125">
        <ele>3840.39990234375</ele>
        <time>2026-08-15T17:20:48.000Z</time>
        <extensions>
          <ns3:TrackPointExtension>
            <ns3:hr>109</ns3:hr>
            <ns3:cad>0</ns3:cad>
          </ns3:TrackPointExtension>
        </extensions>
      </trkpt>
      <trkpt lat="37.99155070446431636810302734375" lon="-107.74147882126271724700927734375">
        <ele>3840.199951171875</ele>
        <time>2026-08-15T17:20:53.000Z</time>
        <extensions>
          <ns3:TrackPointExtension>
            <ns3:hr>112</ns3:hr>
            <ns3:cad>0</ns3:cad>
          </ns3:TrackPointExtension>
        </extensions>
      </trkpt>
      <trkpt lat="37.991546429693698883056640625" lon="-107.7414747141301631927490234375">
        <ele>3840</ele>
        <time>2026-08-15T17:20:54.000Z</time>
        <extensions>
          <ns3:TrackPointExtension>
            <ns3:hr>112</ns3:hr>
            <ns3:cad>0</ns3:cad>
          </ns3:TrackPointExtension>
        </extensions>
      </trkpt>
      <trkpt lat="37.99154433421790599822998046875" lon="-107.74146012961864471435546875">
        <ele>3839.60009765625</ele>
        <time>2026-08-15T17:20:56.000Z</time>
        <extensions>
          <ns3:TrackPointExtension>
            <ns3:hr>113</ns3:hr>
            <ns3:cad>57</ns3:cad>
          </ns3:TrackPointExtension>
        </extensions>
      </trkpt>
      <trkpt lat="37.99152958206832408905029296875" lon="-107.74140941910445690155029296875">
        <ele>3838.800048828125</ele>
        <time>2026-08-15T17:21:01.000Z</time>
        <extensions>
          <ns3:TrackPointExtension>
            <ns3:hr>114</ns3:hr>
            <ns3:cad>60</ns3:cad>
          </ns3:TrackPointExtension>
        </extensions>
      </trkpt>
      <trkpt lat="37.9915244691073894500732421875" lon="-107.7413748018443584442138671875">
        <ele>3838</ele>
        <time>2026-08-15T17:21:04.000Z</time>
        <extensions>
          <ns3:TrackPointExtension>
            <ns3:hr>113</ns3:hr>
            <ns3:cad>60</ns3:cad>
          </ns3:TrackPointExtension>
        </extensions>
      </trkpt>
      <trkpt lat="37.99153293482959270477294921875" lon="-107.74136415682733058929443359375">
        <ele>3837.800048828125</ele>
        <time>2026-08-15T17:21:05.000Z</time>
        <extensions>
          <ns3:TrackPointExtension>
            <ns3:hr>113</ns3:hr>
            <ns3:cad>60</ns3:cad>
          </ns3:TrackPointExtension>
        </extensions>
      </trkpt>
      <trkpt lat="37.99154165200889110565185546875" lon="-107.74135292507708072662353515625">
        <ele>3837.60009765625</ele>
        <time>2026-08-15T17:21:06.000Z</time>
        <extensions>
          <ns3:TrackPointExtension>
            <ns3:hr>113</ns3:hr>
            <ns3:cad>60</ns3:cad>
          </ns3:TrackPointExtension>
        </extensions>
      </trkpt>
      <trkpt lat="37.99155749380588531494140625" lon="-107.741325683891773223876953125">
        <ele>3837.39990234375</ele>
        <time>2026-08-15T17:21:09.000Z</time>
        <extensions>
          <ns3:TrackPointExtension>
            <ns3:hr>111</ns3:hr>
            <ns3:cad>60</ns3:cad>
          </ns3:TrackPointExtension>
        </extensions>
      </trkpt>
      <trkpt lat="37.99155774526298046112060546875" lon="-107.7413271926343441009521484375">
        <ele>3837.199951171875</ele>
        <time>2026-08-15T17:21:11.000Z</time>
        <extensions>
          <ns3:TrackPointExtension>
            <ns3:hr>108</ns3:hr>
            <ns3:cad>0</ns3:cad>
          </ns3:TrackPointExtension>
        </extensions>
      </trkpt>
      <trkpt lat="37.991561181843280792236328125" lon="-107.741339094936847686767578125">
        <ele>3836.800048828125</ele>
        <time>2026-08-15T17:21:15.000Z</time>
        <extensions>
          <ns3:TrackPointExtension>
            <ns3:hr>106</ns3:hr>
            <ns3:cad>0</ns3:cad>
          </ns3:TrackPointExtension>
        </extensions>
      </trkpt>
      <trkpt lat="37.9915650375187397003173828125" lon="-107.74135074578225612640380859375">
        <ele>3836.800048828125</ele>
        <time>2026-08-15T17:21:16.000Z</time>
        <extensions>
          <ns3:TrackPointExtension>
            <ns3:hr>104</ns3:hr>
            <ns3:cad>0</ns3:cad>
          </ns3:TrackPointExtension>
        </extensions>
      </trkpt>
      <trkpt lat="37.9915737546980381011962890625" lon="-107.74135963059961795806884765625">
        <ele>3836.60009765625</ele>
        <time>2026-08-15T17:21:17.000Z</time>
        <extensions>
          <ns3:TrackPointExtension>
            <ns3:hr>102</ns3:hr>
            <ns3:cad>0</ns3:cad>
          </ns3:TrackPointExtension>
        </extensions>
      </trkpt>
      <trkpt lat="37.99159261398017406463623046875" lon="-107.74135795421898365020751953125">
        <ele>3836.199951171875</ele>
        <time>2026-08-15T17:21:19.000Z</time>
        <extensions>
          <ns3:TrackPointExtension>
            <ns3:hr>102</ns3:hr>
            <ns3:cad>0</ns3:cad>
          </ns3:TrackPointExtension>
        </extensions>
      </trkpt>
      <trkpt lat="37.9916146583855152130126953125" lon="-107.741352505981922149658203125">
        <ele>3836.60009765625</ele>
        <time>2026-08-15T17:21:22.000Z</time>
        <extensions>
          <ns3:TrackPointExtension>
            <ns3:hr>101</ns3:hr>
            <ns3:cad>0</ns3:cad>
          </ns3:TrackPointExtension>
        </extensions>
      </trkpt>
      <trkpt lat="37.99166117794811725616455078125" lon="-107.7413318865001201629638671875">
        <ele>3837.60009765625</ele>
        <time>2026-08-15T17:21:27.000Z</time>
        <extensions>
          <ns3:TrackPointExtension>
            <ns3:hr>100</ns3:hr>
            <ns3:cad>0</ns3:cad>
          </ns3:TrackPointExtension>
        </extensions>
      </trkpt>
      <trkpt lat="37.99169428646564483642578125" lon="-107.7413362450897693634033203125">
        <ele>3838.60009765625</ele>
        <time>2026-08-15T17:21:32.000Z</time>
        <extensions>
          <ns3:TrackPointExtension>
            <ns3:hr>101</ns3:hr>
            <ns3:cad>0</ns3:cad>
          </ns3:TrackPointExtension>
        </extensions>
      </trkpt>
      <trkpt lat="37.99170929007232189178466796875" lon="-107.74131185375154018402099609375">
        <ele>3839.800048828125</ele>
        <time>2026-08-15T17:21:36.000Z</time>
        <extensions>
          <ns3:TrackPointExtension>
            <ns3:hr>102</ns3:hr>
            <ns3:cad>51</ns3:cad>
          </ns3:TrackPointExtension>
        </extensions>
      </trkpt>
      <trkpt lat="37.991719432175159454345703125" lon="-107.7412966825067996978759765625">
        <ele>3840</ele>
        <time>2026-08-15T17:21:38.000Z</time>
        <extensions>
          <ns3:TrackPointExtension>
            <ns3:hr>105</ns3:hr>
            <ns3:cad>0</ns3:cad>
          </ns3:TrackPointExtension>
        </extensions>
      </trkpt>
      <trkpt lat="37.99174885265529155731201171875" lon="-107.74128385819494724273681640625">
        <ele>3840.39990234375</ele>
        <time>2026-08-15T17:21:43.000Z</time>
        <extensions>
          <ns3:TrackPointExtension>
            <ns3:hr>108</ns3:hr>
            <ns3:cad>73</ns3:cad>
          </ns3:TrackPointExtension>
        </extensions>
      </trkpt>
      <trkpt lat="37.99176192842423915863037109375" lon="-107.7412809245288372039794921875">
        <ele>3840.39990234375</ele>
        <time>2026-08-15T17:21:45.000Z</time>
        <extensions>
          <ns3:TrackPointExtension>
            <ns3:hr>110</ns3:hr>
            <ns3:cad>77</ns3:cad>
          </ns3:TrackPointExtension>
        </extensions>
      </trkpt>
      <trkpt lat="37.9917749203741550445556640625" lon="-107.7412738837301731109619140625">
        <ele>3840.60009765625</ele>
        <time>2026-08-15T17:21:47.000Z</time>
        <extensions>
          <ns3:TrackPointExtension>
            <ns3:hr>115</ns3:hr>
            <ns3:cad>0</ns3:cad>
          </ns3:TrackPointExtension>
        </extensions>
      </trkpt>
      <trkpt lat="37.99178137443959712982177734375" lon="-107.74127111770212650299072265625">
        <ele>3840.800048828125</ele>
        <time>2026-08-15T17:21:48.000Z</time>
        <extensions>
          <ns3:TrackPointExtension>
            <ns3:hr>116</ns3:hr>
            <ns3:cad>0</ns3:cad>
          </ns3:TrackPointExtension>
        </extensions>
      </trkpt>
      <trkpt lat="37.99180266447365283966064453125" lon="-107.74126223288476467132568359375">
        <ele>3841.199951171875</ele>
        <time>2026-08-15T17:21:52.000Z</time>
        <extensions>
          <ns3:TrackPointExtension>
            <ns3:hr>119</ns3:hr>
            <ns3:cad>0</ns3:cad>
          </ns3:TrackPointExtension>
        </extensions>
      </trkpt>
      <trkpt lat="37.991843484342098236083984375" lon="-107.74125854484736919403076171875">
        <ele>3841</ele>
        <time>2026-08-15T17:21:58.000Z</time>
        <extensions>
          <ns3:TrackPointExtension>
            <ns3:hr>119</ns3:hr>
            <ns3:cad>0</ns3:cad>
          </ns3:TrackPointExtension>
        </extensions>
      </trkpt>
      <trkpt lat="37.991868294775485992431640625" lon="-107.741255946457386016845703125">
        <ele>3841</ele>
        <time>2026-08-15T17:22:01.000Z</time>
        <extensions>
          <ns3:TrackPointExtension>
            <ns3:hr>119</ns3:hr>
            <ns3:cad>45</ns3:cad>
          </ns3:TrackPointExtension>
        </extensions>
      </trkpt>
      <trkpt lat="37.99189637415111064910888671875" lon="-107.74123775772750377655029296875">
        <ele>3841.199951171875</ele>
        <time>2026-08-15T17:22:07.000Z</time>
        <extensions>
          <ns3:TrackPointExtension>
            <ns3:hr>118</ns3:hr>
            <ns3:cad>0</ns3:cad>
          </ns3:TrackPointExtension>
        </extensions>
      </trkpt>
      <trkpt lat="37.99189788289368152618408203125" lon="-107.741235829889774322509765625">
        <ele>3841</ele>
        <time>2026-08-15T17:22:08.000Z</time>
        <extensions>
          <ns3:TrackPointExtension>
            <ns3:hr>118</ns3:hr>
            <ns3:cad>0</ns3:cad>
          </ns3:TrackPointExtension>
        </extensions>
      </trkpt>
      <trkpt lat="37.9918996430933475494384765625" lon="-107.7412292920053005218505859375">
        <ele>3839.800048828125</ele>
        <time>2026-08-15T17:22:14.000Z</time>
        <extensions>
          <ns3:TrackPointExtension>
            <ns3:hr>116</ns3:hr>
            <ns3:cad>0</ns3:cad>
          </ns3:TrackPointExtension>
        </extensions>
      </trkpt>
      <trkpt lat="37.99189419485628604888916015625" lon="-107.74122786708176136016845703125">
        <ele>3839.60009765625</ele>
        <time>2026-08-15T17:22:15.000Z</time>
        <extensions>
          <ns3:TrackPointExtension>
            <ns3:hr>116</ns3:hr>
            <ns3:cad>0</ns3:cad>
          </ns3:TrackPointExtension>
        </extensions>
      </trkpt>
      <trkpt lat="37.9918993078172206878662109375" lon="-107.741204313933849334716796875">
        <ele>3839.39990234375</ele>
        <time>2026-08-15T17:22:21.000Z</time>
        <extensions>
          <ns3:TrackPointExtension>
            <ns3:hr>117</ns3:hr>
            <ns3:cad>0</ns3:cad>
          </ns3:TrackPointExtension>
        </extensions>
      </trkpt>
      <trkpt lat="37.99190173856914043426513671875" lon="-107.7412058226764202117919921875">
        <ele>3838.39990234375</ele>
        <time>2026-08-15T17:22:25.000Z</time>
        <extensions>
          <ns3:TrackPointExtension>
            <ns3:hr>115</ns3:hr>
            <ns3:cad>0</ns3:cad>
          </ns3:TrackPointExtension>
        </extensions>
      </trkpt>
      <trkpt lat="37.99191162921488285064697265625" lon="-107.7411927469074726104736328125">
        <ele>3838</ele>
        <time>2026-08-15T17:22:27.000Z</time>
        <extensions>
          <ns3:TrackPointExtension>
            <ns3:hr>115</ns3:hr>
            <ns3:cad>0</ns3:cad>
          </ns3:TrackPointExtension>
        </extensions>
      </trkpt>
      <trkpt lat="37.99191917292773723602294921875" lon="-107.74116550572216510772705078125">
        <ele>3837.60009765625</ele>
        <time>2026-08-15T17:22:33.000Z</time>
        <extensions>
          <ns3:TrackPointExtension>
            <ns3:hr>114</ns3:hr>
            <ns3:cad>57</ns3:cad>
          </ns3:TrackPointExtension>
        </extensions>
      </trkpt>
      <trkpt lat="37.99191816709935665130615234375" lon="-107.74116374552249908447265625">
        <ele>3837.39990234375</ele>
        <time>2026-08-15T17:22:34.000Z</time>
        <extensions>
          <ns3:TrackPointExtension>
            <ns3:hr>114</ns3:hr>
            <ns3:cad>57</ns3:cad>
          </ns3:TrackPointExtension>
        </extensions>
      </trkpt>
      <trkpt lat="37.99192001111805438995361328125" lon="-107.74115662090480327606201171875">
        <ele>3837.199951171875</ele>
        <time>2026-08-15T17:22:35.000Z</time>
        <extensions>
          <ns3:TrackPointExtension>
            <ns3:hr>115</ns3:hr>
            <ns3:cad>57</ns3:cad>
          </ns3:TrackPointExtension>
        </extensions>
      </trkpt>
      <trkpt lat="37.99193426035344600677490234375" lon="-107.74112946353852748870849609375">
        <ele>3836</ele>
        <time>2026-08-15T17:22:38.000Z</time>
        <extensions>
          <ns3:TrackPointExtension>
            <ns3:hr>114</ns3:hr>
            <ns3:cad>57</ns3:cad>
          </ns3:TrackPointExtension>
        </extensions>
      </trkpt>
      <trkpt lat="37.9919444024562835693359375" lon="-107.741105742752552032470703125">
        <ele>3835.60009765625</ele>
        <time>2026-08-15T17:22:41.000Z</time>
        <extensions>
          <ns3:TrackPointExtension>
            <ns3:hr>114</ns3:hr>
            <ns3:cad>65</ns3:cad>
          </ns3:TrackPointExtension>
        </extensions>
      </trkpt>
      <trkpt lat="37.9919677041471004486083984375" lon="-107.74108554236590862274169921875">
        <ele>3835.60009765625</ele>
        <time>2026-08-15T17:22:45.000Z</time>
        <extensions>
          <ns3:TrackPointExtension>
            <ns3:hr>111</ns3:hr>
            <ns3:cad>65</ns3:cad>
          </ns3:TrackPointExtension>
        </extensions>
      </trkpt>
      <trkpt lat="37.99197231419384479522705078125" lon="-107.7410824410617351531982421875">
        <ele>3835</ele>
        <time>2026-08-15T17:22:47.000Z</time>
        <extensions>
          <ns3:TrackPointExtension>
            <ns3:hr>110</ns3:hr>
            <ns3:cad>0</ns3:cad>
          </ns3:TrackPointExtension>
        </extensions>
      </trkpt>
      <trkpt lat="37.99198002554476261138916015625" lon="-107.74107917211949825286865234375">
        <ele>3834.60009765625</ele>
        <time>2026-08-15T17:22:48.000Z</time>
        <extensions>
          <ns3:TrackPointExtension>
            <ns3:hr>109</ns3:hr>
            <ns3:cad>0</ns3:cad>
          </ns3:TrackPointExtension>
        </extensions>
      </trkpt>
      <trkpt lat="37.99201020039618015289306640625" lon="-107.74105218239128589630126953125">
        <ele>3833.800048828125</ele>
        <time>2026-08-15T17:22:51.000Z</time>
        <extensions>
          <ns3:TrackPointExtension>
            <ns3:hr>108</ns3:hr>
            <ns3:cad>0</ns3:cad>
          </ns3:TrackPointExtension>
        </extensions>
      </trkpt>
      <trkpt lat="37.99201481044292449951171875" lon="-107.74104312993586063385009765625">
        <ele>3833.39990234375</ele>
        <time>2026-08-15T17:22:52.000Z</time>
        <extensions>
          <ns3:TrackPointExtension>
            <ns3:hr>108</ns3:hr>
            <ns3:cad>0</ns3:cad>
          </ns3:TrackPointExtension>
        </extensions>
      </trkpt>
      <trkpt lat="37.9920374415814876556396484375" lon="-107.74101312272250652313232421875">
        <ele>3832.800048828125</ele>
        <time>2026-08-15T17:22:57.000Z</time>
        <extensions>
          <ns3:TrackPointExtension>
            <ns3:hr>108</ns3:hr>
            <ns3:cad>55</ns3:cad>
          </ns3:TrackPointExtension>
        </extensions>
      </trkpt>
      <trkpt lat="37.992039620876312255859375" lon="-107.74100289680063724517822265625">
        <ele>3832.39990234375</ele>
        <time>2026-08-15T17:22:59.000Z</time>
        <extensions>
          <ns3:TrackPointExtension>
            <ns3:hr>107</ns3:hr>
            <ns3:cad>56</ns3:cad>
          </ns3:TrackPointExtension>
        </extensions>
      </trkpt>
      <trkpt lat="37.99204423092305660247802734375" lon="-107.7409805171191692352294921875">
        <ele>3831.60009765625</ele>
        <time>2026-08-15T17:23:03.000Z</time>
        <extensions>
          <ns3:TrackPointExtension>
            <ns3:hr>107</ns3:hr>
            <ns3:cad>55</ns3:cad>
          </ns3:TrackPointExtension>
        </extensions>
      </trkpt>
      <trkpt lat="37.99204431474208831787109375" lon="-107.74095453321933746337890625">
        <ele>3831.199951171875</ele>
        <time>2026-08-15T17:23:06.000Z</time>
        <extensions>
          <ns3:TrackPointExtension>
            <ns3:hr>108</ns3:hr>
            <ns3:cad>54</ns3:cad>
          </ns3:TrackPointExtension>
        </extensions>
      </trkpt>
      <trkpt lat="37.9920478351414203643798828125" lon="-107.7409396134316921234130859375">
        <ele>3830</ele>
        <time>2026-08-15T17:23:10.000Z</time>
        <extensions>
          <ns3:TrackPointExtension>
            <ns3:hr>107</ns3:hr>
            <ns3:cad>60</ns3:cad>
          </ns3:TrackPointExtension>
        </extensions>
      </trkpt>
      <trkpt lat="37.99204624257981777191162109375" lon="-107.74093315936625003814697265625">
        <ele>3829.199951171875</ele>
        <time>2026-08-15T17:23:16.000Z</time>
        <extensions>
          <ns3:TrackPointExtension>
            <ns3:hr>104</ns3:hr>
            <ns3:cad>0</ns3:cad>
          </ns3:TrackPointExtension>
        </extensions>
      </trkpt>
      <trkpt lat="37.99204624257981777191162109375" lon="-107.74093315936625003814697265625">
        <ele>3829</ele>
        <time>2026-08-15T17:23:18.000Z</time>
        <extensions>
          <ns3:TrackPointExtension>
            <ns3:hr>104</ns3:hr>
            <ns3:cad>0</ns3:cad>
          </ns3:TrackPointExtension>
        </extensions>
      </trkpt>
      <trkpt lat="37.99204624257981777191162109375" lon="-107.74093315936625003814697265625">
        <ele>3829</ele>
        <time>2026-08-15T17:23:19.000Z</time>
        <extensions>
          <ns3:TrackPointExtension>
            <ns3:hr>104</ns3:hr>
            <ns3:cad>0</ns3:cad>
          </ns3:TrackPointExtension>
        </extensions>
      </trkpt>
      <trkpt lat="37.99204624257981777191162109375" lon="-107.74093315936625003814697265625">
        <ele>3828.800048828125</ele>
        <time>2026-08-15T17:23:22.000Z</time>
        <extensions>
          <ns3:TrackPointExtension>
            <ns3:hr>101</ns3:hr>
            <ns3:cad>0</ns3:cad>
          </ns3:TrackPointExtension>
        </extensions>
      </trkpt>
      <trkpt lat="37.99204624257981777191162109375" lon="-107.74093315936625003814697265625">
        <ele>3828.800048828125</ele>
        <time>2026-08-15T17:23:24.000Z</time>
        <extensions>
          <ns3:TrackPointExtension>
            <ns3:hr>98</ns3:hr>
            <ns3:cad>0</ns3:cad>
          </ns3:TrackPointExtension>
        </extensions>
      </trkpt>
      <trkpt lat="37.99204624257981777191162109375" lon="-107.74093315936625003814697265625">
        <ele>3828.39990234375</ele>
        <time>2026-08-15T17:23:26.000Z</time>
        <extensions>
          <ns3:TrackPointExtension>
            <ns3:hr>97</ns3:hr>
            <ns3:cad>0</ns3:cad>
          </ns3:TrackPointExtension>
        </extensions>
      </trkpt>
      <trkpt lat="37.992050684988498687744140625" lon="-107.74091606028378009796142578125">
        <ele>3828</ele>
        <time>2026-08-15T17:23:29.000Z</time>
        <extensions>
          <ns3:TrackPointExtension>
            <ns3:hr>94</ns3:hr>
            <ns3:cad>57</ns3:cad>
          </ns3:TrackPointExtension>
        </extensions>
      </trkpt>
      <trkpt lat="37.99205102026462554931640625" lon="-107.740911953151226043701171875">
        <ele>3827.800048828125</ele>
        <time>2026-08-15T17:23:33.000Z</time>
        <extensions>
          <ns3:TrackPointExtension>
            <ns3:hr>92</ns3:hr>
            <ns3:cad>0</ns3:cad>
          </ns3:TrackPointExtension>
        </extensions>
      </trkpt>
      <trkpt lat="37.9920545406639575958251953125" lon="-107.74091161787509918212890625">
        <ele>3827.60009765625</ele>
        <time>2026-08-15T17:23:39.000Z</time>
        <extensions>
          <ns3:TrackPointExtension>
            <ns3:hr>93</ns3:hr>
            <ns3:cad>0</ns3:cad>
          </ns3:TrackPointExtension>
        </extensions>
      </trkpt>
      <trkpt lat="37.99205227755010128021240234375" lon="-107.7409015595912933349609375">
        <ele>3827</ele>
        <time>2026-08-15T17:23:42.000Z</time>
        <extensions>
          <ns3:TrackPointExtension>
            <ns3:hr>94</ns3:hr>
            <ns3:cad>0</ns3:cad>
          </ns3:TrackPointExtension>
        </extensions>
      </trkpt>
      <trkpt lat="37.99205102026462554931640625" lon="-107.740911953151226043701171875">
        <ele>3826.39990234375</ele>
        <time>2026-08-15T17:23:45.000Z</time>
        <extensions>
          <ns3:TrackPointExtension>
            <ns3:hr>95</ns3:hr>
            <ns3:cad>0</ns3:cad>
          </ns3:TrackPointExtension>
        </extensions>
      </trkpt>
      <trkpt lat="37.99205278046429157257080078125" lon="-107.7408812753856182098388671875">
        <ele>3826.39990234375</ele>
        <time>2026-08-15T17:23:49.000Z</time>
        <extensions>
          <ns3:TrackPointExtension>
            <ns3:hr>96</ns3:hr>
            <ns3:cad>0</ns3:cad>
          </ns3:TrackPointExtension>
        </extensions>
      </trkpt>
      <trkpt lat="37.9920515231788158416748046875" lon="-107.74087733589112758636474609375">
        <ele>3825.800048828125</ele>
        <time>2026-08-15T17:23:52.000Z</time>
        <extensions>
          <ns3:TrackPointExtension>
            <ns3:hr>98</ns3:hr>
            <ns3:cad>0</ns3:cad>
          </ns3:TrackPointExtension>
        </extensions>
      </trkpt>
      <trkpt lat="37.99204833805561065673828125" lon="-107.74088387377560138702392578125">
        <ele>3825.199951171875</ele>
        <time>2026-08-15T17:23:56.000Z</time>
        <extensions>
          <ns3:TrackPointExtension>
            <ns3:hr>99</ns3:hr>
            <ns3:cad>0</ns3:cad>
          </ns3:TrackPointExtension>
        </extensions>
      </trkpt>
      <trkpt lat="37.99204833805561065673828125" lon="-107.74088387377560138702392578125">
        <ele>3825</ele>
        <time>2026-08-15T17:23:59.000Z</time>
        <extensions>
          <ns3:TrackPointExtension>
            <ns3:hr>102</ns3:hr>
            <ns3:cad>0</ns3:cad>
          </ns3:TrackPointExtension>
        </extensions>
      </trkpt>
      <trkpt lat="37.99204833805561065673828125" lon="-107.74088387377560138702392578125">
        <ele>3825</ele>
        <time>2026-08-15T17:24:02.000Z</time>
        <extensions>
          <ns3:TrackPointExtension>
            <ns3:hr>106</ns3:hr>
            <ns3:cad>0</ns3:cad>
          </ns3:TrackPointExtension>
        </extensions>
      </trkpt>
      <trkpt lat="37.9920501820743083953857421875" lon="-107.74087381549179553985595703125">
        <ele>3824.800048828125</ele>
        <time>2026-08-15T17:24:04.000Z</time>
        <extensions>
          <ns3:TrackPointExtension>
            <ns3:hr>108</ns3:hr>
            <ns3:cad>0</ns3:cad>
          </ns3:TrackPointExtension>
        </extensions>
      </trkpt>
      <trkpt lat="37.99205236136913299560546875" lon="-107.740867026150226593017578125">
        <ele>3824.800048828125</ele>
        <time>2026-08-15T17:24:05.000Z</time>
        <extensions>
          <ns3:TrackPointExtension>
            <ns3:hr>107</ns3:hr>
            <ns3:cad>0</ns3:cad>
          </ns3:TrackPointExtension>
        </extensions>
      </trkpt>
      <trkpt lat="37.9920609109103679656982421875" lon="-107.74084162898361682891845703125">
        <ele>3824</ele>
        <time>2026-08-15T17:24:10.000Z</time>
        <extensions>
          <ns3:TrackPointExtension>
            <ns3:hr>110</ns3:hr>
            <ns3:cad>47</ns3:cad>
          </ns3:TrackPointExtension>
        </extensions>
      </trkpt>
      <trkpt lat="37.9920662753283977508544921875" lon="-107.74083207361400127410888671875">
        <ele>3823.60009765625</ele>
        <time>2026-08-15T17:24:12.000Z</time>
        <extensions>
          <ns3:TrackPointExtension>
            <ns3:hr>111</ns3:hr>
            <ns3:cad>47</ns3:cad>
          </ns3:TrackPointExtension>
        </extensions>
      </trkpt>
      <trkpt lat="37.99207004718482494354248046875" lon="-107.74082452990114688873291015625">
        <ele>3823.39990234375</ele>
        <time>2026-08-15T17:24:14.000Z</time>
        <extensions>
          <ns3:TrackPointExtension>
            <ns3:hr>116</ns3:hr>
            <ns3:cad>0</ns3:cad>
          </ns3:TrackPointExtension>
        </extensions>
      </trkpt>
      <trkpt lat="37.992072142660617828369140625" lon="-107.7408226020634174346923828125">
        <ele>3823.199951171875</ele>
        <time>2026-08-15T17:24:15.000Z</time>
        <extensions>
          <ns3:TrackPointExtension>
            <ns3:hr>116</ns3:hr>
            <ns3:cad>0</ns3:cad>
          </ns3:TrackPointExtension>
        </extensions>
      </trkpt>
      <trkpt lat="37.992070131003856658935546875" lon="-107.74082805030047893524169921875">
        <ele>3822.60009765625</ele>
        <time>2026-08-15T17:24:18.000Z</time>
        <extensions>
          <ns3:TrackPointExtension>
            <ns3:hr>117</ns3:hr>
            <ns3:cad>0</ns3:cad>
          </ns3:TrackPointExtension>
        </extensions>
      </trkpt>
      <trkpt lat="37.9920699633657932281494140625" lon="-107.74082721211016178131103515625">
        <ele>3822</ele>
        <time>2026-08-15T17:24:20.000Z</time>
        <extensions>
          <ns3:TrackPointExtension>
            <ns3:hr>117</ns3:hr>
            <ns3:cad>0</ns3:cad>
          </ns3:TrackPointExtension>
        </extensions>
      </trkpt>
      <trkpt lat="37.99207205884158611297607421875" lon="-107.7408239431679248809814453125">
        <ele>3821.39990234375</ele>
        <time>2026-08-15T17:24:22.000Z</time>
        <extensions>
          <ns3:TrackPointExtension>
            <ns3:hr>117</ns3:hr>
            <ns3:cad>0</ns3:cad>
          </ns3:TrackPointExtension>
        </extensions>
      </trkpt>
      <trkpt lat="37.99206585623323917388916015625" lon="-107.74080944247543811798095703125">
        <ele>3821</ele>
        <time>2026-08-15T17:24:26.000Z</time>
        <extensions>
          <ns3:TrackPointExtension>
            <ns3:hr>119</ns3:hr>
            <ns3:cad>0</ns3:cad>
          </ns3:TrackPointExtension>
        </extensions>
      </trkpt>
      <trkpt lat="37.99208161421120166778564453125" lon="-107.74079854600131511688232421875">
        <ele>3820.800048828125</ele>
        <time>2026-08-15T17:24:32.000Z</time>
        <extensions>
          <ns3:TrackPointExtension>
            <ns3:hr>120</ns3:hr>
            <ns3:cad>0</ns3:cad>
          </ns3:TrackPointExtension>
        </extensions>
      </trkpt>
      <trkpt lat="37.99208396114408969879150390625" lon="-107.74079485796391963958740234375">
        <ele>3820.60009765625</ele>
        <time>2026-08-15T17:24:33.000Z</time>
        <extensions>
          <ns3:TrackPointExtension>
            <ns3:hr>119</ns3:hr>
            <ns3:cad>0</ns3:cad>
          </ns3:TrackPointExtension>
        </extensions>
      </trkpt>
      <trkpt lat="37.99208463169634342193603515625" lon="-107.74079502560198307037353515625">
        <ele>3820.39990234375</ele>
        <time>2026-08-15T17:24:34.000Z</time>
        <extensions>
          <ns3:TrackPointExtension>
            <ns3:hr>120</ns3:hr>
            <ns3:cad>0</ns3:cad>
          </ns3:TrackPointExtension>
        </extensions>
      </trkpt>
      <trkpt lat="37.99208865500986576080322265625" lon="-107.7407977916300296783447265625">
        <ele>3819.39990234375</ele>
        <time>2026-08-15T17:24:39.000Z</time>
        <extensions>
          <ns3:TrackPointExtension>
            <ns3:hr>117</ns3:hr>
            <ns3:cad>0</ns3:cad>
          </ns3:TrackPointExtension>
        </extensions>
      </trkpt>
      <trkpt lat="37.99209452234208583831787109375" lon="-107.74080039002001285552978515625">
        <ele>3819.199951171875</ele>
        <time>2026-08-15T17:24:40.000Z</time>
        <extensions>
          <ns3:TrackPointExtension>
            <ns3:hr>116</ns3:hr>
            <ns3:cad>0</ns3:cad>
          </ns3:TrackPointExtension>
        </extensions>
      </trkpt>
      <trkpt lat="37.99211095087230205535888671875" lon="-107.7407977916300296783447265625">
        <ele>3818.39990234375</ele>
        <time>2026-08-15T17:24:43.000Z</time>
        <extensions>
          <ns3:TrackPointExtension>
            <ns3:hr>113</ns3:hr>
            <ns3:cad>0</ns3:cad>
          </ns3:TrackPointExtension>
        </extensions>
      </trkpt>
      <trkpt lat="37.99211782403290271759033203125" lon="-107.7407843805849552154541015625">
        <ele>3818.199951171875</ele>
        <time>2026-08-15T17:24:45.000Z</time>
        <extensions>
          <ns3:TrackPointExtension>
            <ns3:hr>112</ns3:hr>
            <ns3:cad>0</ns3:cad>
          </ns3:TrackPointExtension>
        </extensions>
      </trkpt>
      <trkpt lat="37.9921289719641208648681640625" lon="-107.74076770059764385223388671875">
        <ele>3818</ele>
        <time>2026-08-15T17:24:50.000Z</time>
        <extensions>
          <ns3:TrackPointExtension>
            <ns3:hr>111</ns3:hr>
            <ns3:cad>0</ns3:cad>
          </ns3:TrackPointExtension>
        </extensions>
      </trkpt>
      <trkpt lat="37.9921340011060237884521484375" lon="-107.7407599054276943206787109375">
        <ele>3818</ele>
        <time>2026-08-15T17:24:51.000Z</time>
        <extensions>
          <ns3:TrackPointExtension>
            <ns3:hr>111</ns3:hr>
            <ns3:cad>0</ns3:cad>
          </ns3:TrackPointExtension>
        </extensions>
      </trkpt>
      <trkpt lat="37.99213291145861148834228515625" lon="-107.7407515235245227813720703125">
        <ele>3817.800048828125</ele>
        <time>2026-08-15T17:24:57.000Z</time>
        <extensions>
          <ns3:TrackPointExtension>
            <ns3:hr>110</ns3:hr>
            <ns3:cad>0</ns3:cad>
          </ns3:TrackPointExtension>
        </extensions>
      </trkpt>
      <trkpt lat="37.99213291145861148834228515625" lon="-107.7407515235245227813720703125">
        <ele>3817.800048828125</ele>
        <time>2026-08-15T17:25:03.000Z</time>
        <extensions>
          <ns3:TrackPointExtension>
            <ns3:hr>111</ns3:hr>
            <ns3:cad>0</ns3:cad>
          </ns3:TrackPointExtension>
        </extensions>
      </trkpt>
      <trkpt lat="37.99213291145861148834228515625" lon="-107.7407515235245227813720703125">
        <ele>3817.60009765625</ele>
        <time>2026-08-15T17:25:09.000Z</time>
        <extensions>
          <ns3:TrackPointExtension>
            <ns3:hr>112</ns3:hr>
            <ns3:cad>0</ns3:cad>
          </ns3:TrackPointExtension>
        </extensions>
      </trkpt>
      <trkpt lat="37.99214489758014678955078125" lon="-107.740739621222019195556640625">
        <ele>3817.60009765625</ele>
        <time>2026-08-15T17:25:15.000Z</time>
        <extensions>
          <ns3:TrackPointExtension>
            <ns3:hr>112</ns3:hr>
            <ns3:cad>0</ns3:cad>
          </ns3:TrackPointExtension>
        </extensions>
      </trkpt>
      <trkpt lat="37.99215503968298435211181640625" lon="-107.7407183311879634857177734375">
        <ele>3817.199951171875</ele>
        <time>2026-08-15T17:25:18.000Z</time>
        <extensions>
          <ns3:TrackPointExtension>
            <ns3:hr>112</ns3:hr>
            <ns3:cad>0</ns3:cad>
          </ns3:TrackPointExtension>
        </extensions>
      </trkpt>
      <trkpt lat="37.9921564646065235137939453125" lon="-107.7407163195312023162841796875">
        <ele>3817</ele>
        <time>2026-08-15T17:25:20.000Z</time>
        <extensions>
          <ns3:TrackPointExtension>
            <ns3:hr>111</ns3:hr>
            <ns3:cad>0</ns3:cad>
          </ns3:TrackPointExtension>
        </extensions>
      </trkpt>
      <trkpt lat="37.9921564646065235137939453125" lon="-107.7407163195312023162841796875">
        <ele>3816.60009765625</ele>
        <time>2026-08-15T17:25:24.000Z</time>
        <extensions>
          <ns3:TrackPointExtension>
            <ns3:hr>108</ns3:hr>
            <ns3:cad>0</ns3:cad>
          </ns3:TrackPointExtension>
        </extensions>
      </trkpt>
      <trkpt lat="37.9921564646065235137939453125" lon="-107.7407163195312023162841796875">
        <ele>3816.800048828125</ele>
        <time>2026-08-15T17:25:29.000Z</time>
        <extensions>
          <ns3:TrackPointExtension>
            <ns3:hr>111</ns3:hr>
            <ns3:cad>0</ns3:cad>
          </ns3:TrackPointExtension>
        </extensions>
      </trkpt>
      <trkpt lat="37.9921564646065235137939453125" lon="-107.7407163195312023162841796875">
        <ele>3816.800048828125</ele>
        <time>2026-08-15T17:25:30.000Z</time>
        <extensions>
          <ns3:TrackPointExtension>
            <ns3:hr>112</ns3:hr>
            <ns3:cad>0</ns3:cad>
          </ns3:TrackPointExtension>
        </extensions>
      </trkpt>
      <trkpt lat="37.9921564646065235137939453125" lon="-107.7407163195312023162841796875">
        <ele>3816.800048828125</ele>
        <time>2026-08-15T17:25:36.000Z</time>
        <extensions>
          <ns3:TrackPointExtension>
            <ns3:hr>112</ns3:hr>
            <ns3:cad>0</ns3:cad>
          </ns3:TrackPointExtension>
        </extensions>
      </trkpt>
      <trkpt lat="37.9921564646065235137939453125" lon="-107.7407163195312023162841796875">
        <ele>3816.800048828125</ele>
        <time>2026-08-15T17:25:40.000Z</time>
        <extensions>
          <ns3:TrackPointExtension>
            <ns3:hr>112</ns3:hr>
            <ns3:cad>0</ns3:cad>
          </ns3:TrackPointExtension>
        </extensions>
      </trkpt>
      <trkpt lat="37.9921564646065235137939453125" lon="-107.7407163195312023162841796875">
        <ele>3817</ele>
        <time>2026-08-15T17:25:46.000Z</time>
        <extensions>
          <ns3:TrackPointExtension>
            <ns3:hr>111</ns3:hr>
            <ns3:cad>0</ns3:cad>
          </ns3:TrackPointExtension>
        </extensions>
      </trkpt>
      <trkpt lat="37.9921564646065235137939453125" lon="-107.7407163195312023162841796875">
        <ele>3816.800048828125</ele>
        <time>2026-08-15T17:25:47.000Z</time>
        <extensions>
          <ns3:TrackPointExtension>
            <ns3:hr>110</ns3:hr>
            <ns3:cad>0</ns3:cad>
          </ns3:TrackPointExtension>
        </extensions>
      </trkpt>
      <trkpt lat="37.99218001775443553924560546875" lon="-107.7406821213662624359130859375">
        <ele>3816.199951171875</ele>
        <time>2026-08-15T17:25:52.000Z</time>
        <extensions>
          <ns3:TrackPointExtension>
            <ns3:hr>113</ns3:hr>
            <ns3:cad>0</ns3:cad>
          </ns3:TrackPointExtension>
        </extensions>
      </trkpt>
      <trkpt lat="37.99218672327697277069091796875" lon="-107.740671224892139434814453125">
        <ele>3816</ele>
        <time>2026-08-15T17:25:53.000Z</time>
        <extensions>
          <ns3:TrackPointExtension>
            <ns3:hr>113</ns3:hr>
            <ns3:cad>0</ns3:cad>
          </ns3:TrackPointExtension>
        </extensions>
      </trkpt>
      <trkpt lat="37.99220114015042781829833984375" lon="-107.7406552992761135101318359375">
        <ele>3815.800048828125</ele>
        <time>2026-08-15T17:25:55.000Z</time>
        <extensions>
          <ns3:TrackPointExtension>
            <ns3:hr>113</ns3:hr>
            <ns3:cad>0</ns3:cad>
          </ns3:TrackPointExtension>
        </extensions>
      </trkpt>
      <trkpt lat="37.99219795502722263336181640625" lon="-107.7406502701342105865478515625">
        <ele>3815.39990234375</ele>
        <time>2026-08-15T17:25:58.000Z</time>
        <extensions>
          <ns3:TrackPointExtension>
            <ns3:hr>113</ns3:hr>
            <ns3:cad>49</ns3:cad>
          </ns3:TrackPointExtension>
        </extensions>
      </trkpt>
      <trkpt lat="37.99219745211303234100341796875" lon="-107.740660496056079864501953125">
        <ele>3815.39990234375</ele>
        <time>2026-08-15T17:26:00.000Z</time>
        <extensions>
          <ns3:TrackPointExtension>
            <ns3:hr>112</ns3:hr>
            <ns3:cad>0</ns3:cad>
          </ns3:TrackPointExtension>
        </extensions>
      </trkpt>
      <trkpt lat="37.992208264768123626708984375" lon="-107.74064566008746623992919921875">
        <ele>3815.39990234375</ele>
        <time>2026-08-15T17:26:02.000Z</time>
        <extensions>
          <ns3:TrackPointExtension>
            <ns3:hr>111</ns3:hr>
            <ns3:cad>0</ns3:cad>
          </ns3:TrackPointExtension>
        </extensions>
      </trkpt>
      <trkpt lat="37.99222678877413272857666015625" lon="-107.74060894735157489776611328125">
        <ele>3814.800048828125</ele>
        <time>2026-08-15T17:26:06.000Z</time>
        <extensions>
          <ns3:TrackPointExtension>
            <ns3:hr>112</ns3:hr>
            <ns3:cad>0</ns3:cad>
          </ns3:TrackPointExtension>
        </extensions>
      </trkpt>
      <trkpt lat="37.99222846515476703643798828125" lon="-107.7406019903719425201416015625">
        <ele>3814.60009765625</ele>
        <time>2026-08-15T17:26:07.000Z</time>
        <extensions>
          <ns3:TrackPointExtension>
            <ns3:hr>113</ns3:hr>
            <ns3:cad>0</ns3:cad>
          </ns3:TrackPointExtension>
        </extensions>
      </trkpt>
      <trkpt lat="37.99222997389733791351318359375" lon="-107.7405882440507411956787109375">
        <ele>3814.199951171875</ele>
        <time>2026-08-15T17:26:10.000Z</time>
        <extensions>
          <ns3:TrackPointExtension>
            <ns3:hr>109</ns3:hr>
            <ns3:cad>0</ns3:cad>
          </ns3:TrackPointExtension>
        </extensions>
      </trkpt>
      <trkpt lat="37.9922322370111942291259765625" lon="-107.740574665367603302001953125">
        <ele>3814</ele>
        <time>2026-08-15T17:26:12.000Z</time>
        <extensions>
          <ns3:TrackPointExtension>
            <ns3:hr>106</ns3:hr>
            <ns3:cad>0</ns3:cad>
          </ns3:TrackPointExtension>
        </extensions>
      </trkpt>
      <trkpt lat="37.99223667941987514495849609375" lon="-107.740553878247737884521484375">
        <ele>3813.39990234375</ele>
        <time>2026-08-15T17:26:15.000Z</time>
        <extensions>
          <ns3:TrackPointExtension>
            <ns3:hr>103</ns3:hr>
            <ns3:cad>0</ns3:cad>
          </ns3:TrackPointExtension>
        </extensions>
      </trkpt>
      <trkpt lat="37.992243468761444091796875" lon="-107.74053837172687053680419921875">
        <ele>3812.800048828125</ele>
        <time>2026-08-15T17:26:17.000Z</time>
        <extensions>
          <ns3:TrackPointExtension>
            <ns3:hr>102</ns3:hr>
            <ns3:cad>0</ns3:cad>
          </ns3:TrackPointExtension>
        </extensions>
      </trkpt>
      <trkpt lat="37.99224388785660266876220703125" lon="-107.74054683744907379150390625">
        <ele>3813.199951171875</ele>
        <time>2026-08-15T17:26:21.000Z</time>
        <extensions>
          <ns3:TrackPointExtension>
            <ns3:hr>105</ns3:hr>
            <ns3:cad>0</ns3:cad>
          </ns3:TrackPointExtension>
        </extensions>
      </trkpt>
      <trkpt lat="37.99224388785660266876220703125" lon="-107.74054683744907379150390625">
        <ele>3813.199951171875</ele>
        <time>2026-08-15T17:26:22.000Z</time>
        <extensions>
          <ns3:TrackPointExtension>
            <ns3:hr>106</ns3:hr>
            <ns3:cad>0</ns3:cad>
          </ns3:TrackPointExtension>
        </extensions>
      </trkpt>
      <trkpt lat="37.99224388785660266876220703125" lon="-107.74054683744907379150390625">
        <ele>3813.199951171875</ele>
        <time>2026-08-15T17:26:27.000Z</time>
        <extensions>
          <ns3:TrackPointExtension>
            <ns3:hr>109</ns3:hr>
            <ns3:cad>0</ns3:cad>
          </ns3:TrackPointExtension>
        </extensions>
      </trkpt>
      <trkpt lat="37.99224388785660266876220703125" lon="-107.74054683744907379150390625">
        <ele>3813</ele>
        <time>2026-08-15T17:26:33.000Z</time>
        <extensions>
          <ns3:TrackPointExtension>
            <ns3:hr>110</ns3:hr>
            <ns3:cad>0</ns3:cad>
          </ns3:TrackPointExtension>
        </extensions>
      </trkpt>
      <trkpt lat="37.99224388785660266876220703125" lon="-107.74054683744907379150390625">
        <ele>3813</ele>
        <time>2026-08-15T17:26:36.000Z</time>
        <extensions>
          <ns3:TrackPointExtension>
            <ns3:hr>105</ns3:hr>
            <ns3:cad>0</ns3:cad>
          </ns3:TrackPointExtension>
        </extensions>
      </trkpt>
      <trkpt lat="37.99224388785660266876220703125" lon="-107.74054683744907379150390625">
        <ele>3812.800048828125</ele>
        <time>2026-08-15T17:26:37.000Z</time>
        <extensions>
          <ns3:TrackPointExtension>
            <ns3:hr>102</ns3:hr>
            <ns3:cad>0</ns3:cad>
          </ns3:TrackPointExtension>
        </extensions>
      </trkpt>
      <trkpt lat="37.99224388785660266876220703125" lon="-107.74054683744907379150390625">
        <ele>3812.39990234375</ele>
        <time>2026-08-15T17:26:40.000Z</time>
        <extensions>
          <ns3:TrackPointExtension>
            <ns3:hr>103</ns3:hr>
            <ns3:cad>0</ns3:cad>
          </ns3:TrackPointExtension>
        </extensions>
      </trkpt>
      <trkpt lat="37.99224388785660266876220703125" lon="-107.74054683744907379150390625">
        <ele>3812.199951171875</ele>
        <time>2026-08-15T17:26:42.000Z</time>
        <extensions>
          <ns3:TrackPointExtension>
            <ns3:hr>103</ns3:hr>
            <ns3:cad>0</ns3:cad>
          </ns3:TrackPointExtension>
        </extensions>
      </trkpt>
      <trkpt lat="37.99224388785660266876220703125" lon="-107.74054683744907379150390625">
        <ele>3812.39990234375</ele>
        <time>2026-08-15T17:26:48.000Z</time>
        <extensions>
          <ns3:TrackPointExtension>
            <ns3:hr>104</ns3:hr>
            <ns3:cad>0</ns3:cad>
          </ns3:TrackPointExtension>
        </extensions>
      </trkpt>
      <trkpt lat="37.99224388785660266876220703125" lon="-107.74054683744907379150390625">
        <ele>3812.199951171875</ele>
        <time>2026-08-15T17:26:54.000Z</time>
        <extensions>
          <ns3:TrackPointExtension>
            <ns3:hr>104</ns3:hr>
            <ns3:cad>0</ns3:cad>
          </ns3:TrackPointExtension>
        </extensions>
      </trkpt>
      <trkpt lat="37.99224388785660266876220703125" lon="-107.74054683744907379150390625">
        <ele>3812.800048828125</ele>
        <time>2026-08-15T17:26:58.000Z</time>
        <extensions>
          <ns3:TrackPointExtension>
            <ns3:hr>104</ns3:hr>
            <ns3:cad>0</ns3:cad>
          </ns3:TrackPointExtension>
        </extensions>
      </trkpt>
      <trkpt lat="37.99224388785660266876220703125" lon="-107.74054683744907379150390625">
        <ele>3812.800048828125</ele>
        <time>2026-08-15T17:27:04.000Z</time>
        <extensions>
          <ns3:TrackPointExtension>
            <ns3:hr>103</ns3:hr>
            <ns3:cad>0</ns3:cad>
          </ns3:TrackPointExtension>
        </extensions>
      </trkpt>
      <trkpt lat="37.99224388785660266876220703125" lon="-107.74054683744907379150390625">
        <ele>3812.60009765625</ele>
        <time>2026-08-15T17:27:10.000Z</time>
        <extensions>
          <ns3:TrackPointExtension>
            <ns3:hr>104</ns3:hr>
            <ns3:cad>0</ns3:cad>
          </ns3:TrackPointExtension>
        </extensions>
      </trkpt>
      <trkpt lat="37.99224388785660266876220703125" lon="-107.74054683744907379150390625">
        <ele>3812.39990234375</ele>
        <time>2026-08-15T17:27:13.000Z</time>
        <extensions>
          <ns3:TrackPointExtension>
            <ns3:hr>98</ns3:hr>
            <ns3:cad>0</ns3:cad>
          </ns3:TrackPointExtension>
        </extensions>
      </trkpt>
      <trkpt lat="37.99224388785660266876220703125" lon="-107.74054683744907379150390625">
        <ele>3812.39990234375</ele>
        <time>2026-08-15T17:27:14.000Z</time>
        <extensions>
          <ns3:TrackPointExtension>
            <ns3:hr>98</ns3:hr>
            <ns3:cad>0</ns3:cad>
          </ns3:TrackPointExtension>
        </extensions>
      </trkpt>
      <trkpt lat="37.99224388785660266876220703125" lon="-107.74054683744907379150390625">
        <ele>3812.39990234375</ele>
        <time>2026-08-15T17:27:15.000Z</time>
        <extensions>
          <ns3:TrackPointExtension>
            <ns3:hr>95</ns3:hr>
            <ns3:cad>0</ns3:cad>
          </ns3:TrackPointExtension>
        </extensions>
      </trkpt>
      <trkpt lat="37.99224388785660266876220703125" lon="-107.74054683744907379150390625">
        <ele>3812.39990234375</ele>
        <time>2026-08-15T17:27:18.000Z</time>
        <extensions>
          <ns3:TrackPointExtension>
            <ns3:hr>92</ns3:hr>
            <ns3:cad>0</ns3:cad>
          </ns3:TrackPointExtension>
        </extensions>
      </trkpt>
      <trkpt lat="37.99224640242755413055419921875" lon="-107.7405617572367191314697265625">
        <ele>3812.39990234375</ele>
        <time>2026-08-15T17:27:23.000Z</time>
        <extensions>
          <ns3:TrackPointExtension>
            <ns3:hr>92</ns3:hr>
            <ns3:cad>0</ns3:cad>
          </ns3:TrackPointExtension>
        </extensions>
      </trkpt>
      <trkpt lat="37.9922503419220447540283203125" lon="-107.74056334979832172393798828125">
        <ele>3812.39990234375</ele>
        <time>2026-08-15T17:27:29.000Z</time>
        <extensions>
          <ns3:TrackPointExtension>
            <ns3:hr>93</ns3:hr>
            <ns3:cad>0</ns3:cad>
          </ns3:TrackPointExtension>
        </extensions>
      </trkpt>
      <trkpt lat="37.9922402836382389068603515625" lon="-107.740563265979290008544921875">
        <ele>3812.39990234375</ele>
        <time>2026-08-15T17:27:31.000Z</time>
        <extensions>
          <ns3:TrackPointExtension>
            <ns3:hr>93</ns3:hr>
            <ns3:cad>0</ns3:cad>
          </ns3:TrackPointExtension>
        </extensions>
      </trkpt>
      <trkpt lat="37.99224078655242919921875" lon="-107.7405620925128459930419921875">
        <ele>3812.39990234375</ele>
        <time>2026-08-15T17:27:32.000Z</time>
        <extensions>
          <ns3:TrackPointExtension>
            <ns3:hr>96</ns3:hr>
            <ns3:cad>0</ns3:cad>
          </ns3:TrackPointExtension>
        </extensions>
      </trkpt>
      <trkpt lat="37.99224858172237873077392578125" lon="-107.74056754074990749359130859375">
        <ele>3812.199951171875</ele>
        <time>2026-08-15T17:27:34.000Z</time>
        <extensions>
          <ns3:TrackPointExtension>
            <ns3:hr>99</ns3:hr>
            <ns3:cad>0</ns3:cad>
          </ns3:TrackPointExtension>
        </extensions>
      </trkpt>
      <trkpt lat="37.9922446422278881072998046875" lon="-107.7405758388340473175048828125">
        <ele>3812.199951171875</ele>
        <time>2026-08-15T17:27:40.000Z</time>
        <extensions>
          <ns3:TrackPointExtension>
            <ns3:hr>100</ns3:hr>
            <ns3:cad>0</ns3:cad>
          </ns3:TrackPointExtension>
        </extensions>
      </trkpt>
      <trkpt lat="37.99224556423723697662353515625" lon="-107.74057810194790363311767578125">
        <ele>3812.800048828125</ele>
        <time>2026-08-15T17:27:43.000Z</time>
        <extensions>
          <ns3:TrackPointExtension>
            <ns3:hr>100</ns3:hr>
            <ns3:cad>0</ns3:cad>
          </ns3:TrackPointExtension>
        </extensions>
      </trkpt>
      <trkpt lat="37.99224556423723697662353515625" lon="-107.74057810194790363311767578125">
        <ele>3812.60009765625</ele>
        <time>2026-08-15T17:27:49.000Z</time>
        <extensions>
          <ns3:TrackPointExtension>
            <ns3:hr>104</ns3:hr>
            <ns3:cad>0</ns3:cad>
          </ns3:TrackPointExtension>
        </extensions>
      </trkpt>
      <trkpt lat="37.99224003218114376068115234375" lon="-107.740555219352245330810546875">
        <ele>3812.800048828125</ele>
        <time>2026-08-15T17:27:52.000Z</time>
        <extensions>
          <ns3:TrackPointExtension>
            <ns3:hr>107</ns3:hr>
            <ns3:cad>0</ns3:cad>
          </ns3:TrackPointExtension>
        </extensions>
      </trkpt>
      <trkpt lat="37.99225620925426483154296875" lon="-107.740516327321529388427734375">
        <ele>3812.800048828125</ele>
        <time>2026-08-15T17:27:55.000Z</time>
        <extensions>
          <ns3:TrackPointExtension>
            <ns3:hr>109</ns3:hr>
            <ns3:cad>0</ns3:cad>
          </ns3:TrackPointExtension>
        </extensions>
      </trkpt>
      <trkpt lat="37.9922593943774700164794921875" lon="-107.7404890023171901702880859375">
        <ele>3812.60009765625</ele>
        <time>2026-08-15T17:28:00.000Z</time>
        <extensions>
          <ns3:TrackPointExtension>
            <ns3:hr>109</ns3:hr>
            <ns3:cad>0</ns3:cad>
          </ns3:TrackPointExtension>
        </extensions>
      </trkpt>
      <trkpt lat="37.99225998111069202423095703125" lon="-107.74043577723205089569091796875">
        <ele>3812.199951171875</ele>
        <time>2026-08-15T17:28:06.000Z</time>
        <extensions>
          <ns3:TrackPointExtension>
            <ns3:hr>109</ns3:hr>
            <ns3:cad>44</ns3:cad>
          </ns3:TrackPointExtension>
        </extensions>
      </trkpt>
      <trkpt lat="37.99225562252104282379150390625" lon="-107.7404051832854747772216796875">
        <ele>3811.39990234375</ele>
        <time>2026-08-15T17:28:10.000Z</time>
        <extensions>
          <ns3:TrackPointExtension>
            <ns3:hr>110</ns3:hr>
            <ns3:cad>55</ns3:cad>
          </ns3:TrackPointExtension>
        </extensions>
      </trkpt>
      <trkpt lat="37.9922516830265522003173828125" lon="-107.7403589151799678802490234375">
        <ele>3810.39990234375</ele>
        <time>2026-08-15T17:28:16.000Z</time>
        <extensions>
          <ns3:TrackPointExtension>
            <ns3:hr>108</ns3:hr>
            <ns3:cad>56</ns3:cad>
          </ns3:TrackPointExtension>
        </extensions>
      </trkpt>
      <trkpt lat="37.9922496713697910308837890625" lon="-107.74033502675592899322509765625">
        <ele>3810.199951171875</ele>
        <time>2026-08-15T17:28:18.000Z</time>
        <extensions>
          <ns3:TrackPointExtension>
            <ns3:hr>108</ns3:hr>
            <ns3:cad>0</ns3:cad>
          </ns3:TrackPointExtension>
        </extensions>
      </trkpt>
      <trkpt lat="37.99225109629333019256591796875" lon="-107.74028289131820201873779296875">
        <ele>3809.800048828125</ele>
        <time>2026-08-15T17:28:22.000Z</time>
        <extensions>
          <ns3:TrackPointExtension>
            <ns3:hr>105</ns3:hr>
            <ns3:cad>57</ns3:cad>
          </ns3:TrackPointExtension>
        </extensions>
      </trkpt>
      <trkpt lat="37.99225084483623504638671875" lon="-107.74027056992053985595703125">
        <ele>3809.60009765625</ele>
        <time>2026-08-15T17:28:23.000Z</time>
        <extensions>
          <ns3:TrackPointExtension>
            <ns3:hr>106</ns3:hr>
            <ns3:cad>57</ns3:cad>
          </ns3:TrackPointExtension>
        </extensions>
      </trkpt>
      <trkpt lat="37.9922506771981716156005859375" lon="-107.74023234844207763671875">
        <ele>3809.199951171875</ele>
        <time>2026-08-15T17:28:26.000Z</time>
        <extensions>
          <ns3:TrackPointExtension>
            <ns3:hr>103</ns3:hr>
            <ns3:cad>60</ns3:cad>
          </ns3:TrackPointExtension>
        </extensions>
      </trkpt>
      <trkpt lat="37.99226853065192699432373046875" lon="-107.7401842363178730010986328125">
        <ele>3808.199951171875</ele>
        <time>2026-08-15T17:28:30.000Z</time>
        <extensions>
          <ns3:TrackPointExtension>
            <ns3:hr>100</ns3:hr>
            <ns3:cad>59</ns3:cad>
          </ns3:TrackPointExtension>
        </extensions>
      </trkpt>
      <trkpt lat="37.9922694526612758636474609375" lon="-107.74017543531954288482666015625">
        <ele>3808</ele>
        <time>2026-08-15T17:28:31.000Z</time>
        <extensions>
          <ns3:TrackPointExtension>
            <ns3:hr>99</ns3:hr>
            <ns3:cad>57</ns3:cad>
          </ns3:TrackPointExtension>
        </extensions>
      </trkpt>
      <trkpt lat="37.99226501025259494781494140625" lon="-107.74016085080802440643310546875">
        <ele>3807.800048828125</ele>
        <time>2026-08-15T17:28:32.000Z</time>
        <extensions>
          <ns3:TrackPointExtension>
            <ns3:hr>98</ns3:hr>
            <ns3:cad>57</ns3:cad>
          </ns3:TrackPointExtension>
        </extensions>
      </trkpt>
      <trkpt lat="37.9922657646238803863525390625" lon="-107.74011634290218353271484375">
        <ele>3807.199951171875</ele>
        <time>2026-08-15T17:28:35.000Z</time>
        <extensions>
          <ns3:TrackPointExtension>
            <ns3:hr>97</ns3:hr>
            <ns3:cad>57</ns3:cad>
          </ns3:TrackPointExtension>
        </extensions>
      </trkpt>
      <trkpt lat="37.992273978888988494873046875" lon="-107.74009027518332004547119140625">
        <ele>3806.800048828125</ele>
        <time>2026-08-15T17:28:37.000Z</time>
        <extensions>
          <ns3:TrackPointExtension>
            <ns3:hr>96</ns3:hr>
            <ns3:cad>57</ns3:cad>
          </ns3:TrackPointExtension>
        </extensions>
      </trkpt>
      <trkpt lat="37.99228512682020664215087890625" lon="-107.740063033998012542724609375">
        <ele>3806.199951171875</ele>
        <time>2026-08-15T17:28:41.000Z</time>
        <extensions>
          <ns3:TrackPointExtension>
            <ns3:hr>93</ns3:hr>
            <ns3:cad>55</ns3:cad>
          </ns3:TrackPointExtension>
        </extensions>
      </trkpt>
      <trkpt lat="37.99228244461119174957275390625" lon="-107.74004970677196979522705078125">
        <ele>3806.199951171875</ele>
        <time>2026-08-15T17:28:42.000Z</time>
        <extensions>
          <ns3:TrackPointExtension>
            <ns3:hr>92</ns3:hr>
            <ns3:cad>55</ns3:cad>
          </ns3:TrackPointExtension>
        </extensions>
      </trkpt>
      <trkpt lat="37.9922882281243801116943359375" lon="-107.74001483805477619171142578125">
        <ele>3805.60009765625</ele>
        <time>2026-08-15T17:28:45.000Z</time>
        <extensions>
          <ns3:TrackPointExtension>
            <ns3:hr>91</ns3:hr>
            <ns3:cad>0</ns3:cad>
          </ns3:TrackPointExtension>
        </extensions>
      </trkpt>
      <trkpt lat="37.9923002980649471282958984375" lon="-107.739983908832073211669921875">
        <ele>3804.39990234375</ele>
        <time>2026-08-15T17:28:49.000Z</time>
        <extensions>
          <ns3:TrackPointExtension>
            <ns3:hr>91</ns3:hr>
            <ns3:cad>0</ns3:cad>
          </ns3:TrackPointExtension>
        </extensions>
      </trkpt>
      <trkpt lat="37.99230272881686687469482421875" lon="-107.7399830706417560577392578125">
        <ele>3804.199951171875</ele>
        <time>2026-08-15T17:28:50.000Z</time>
        <extensions>
          <ns3:TrackPointExtension>
            <ns3:hr>90</ns3:hr>
            <ns3:cad>0</ns3:cad>
          </ns3:TrackPointExtension>
        </extensions>
      </trkpt>
      <trkpt lat="37.99230390228331089019775390625" lon="-107.73996756412088871002197265625">
        <ele>3803.199951171875</ele>
        <time>2026-08-15T17:28:55.000Z</time>
        <extensions>
          <ns3:TrackPointExtension>
            <ns3:hr>89</ns3:hr>
            <ns3:cad>0</ns3:cad>
          </ns3:TrackPointExtension>
        </extensions>
      </trkpt>
      <trkpt lat="37.9923053272068500518798828125" lon="-107.7399555779993534088134765625">
        <ele>3803</ele>
        <time>2026-08-15T17:28:56.000Z</time>
        <extensions>
          <ns3:TrackPointExtension>
            <ns3:hr>89</ns3:hr>
            <ns3:cad>0</ns3:cad>
          </ns3:TrackPointExtension>
        </extensions>
      </trkpt>
      <trkpt lat="37.99231790006160736083984375" lon="-107.7399260737001895904541015625">
        <ele>3802</ele>
        <time>2026-08-15T17:28:59.000Z</time>
        <extensions>
          <ns3:TrackPointExtension>
            <ns3:hr>89</ns3:hr>
            <ns3:cad>63</ns3:cad>
          </ns3:TrackPointExtension>
        </extensions>
      </trkpt>
      <trkpt lat="37.99232234247028827667236328125" lon="-107.7399036101996898651123046875">
        <ele>3801.60009765625</ele>
        <time>2026-08-15T17:29:02.000Z</time>
        <extensions>
          <ns3:TrackPointExtension>
            <ns3:hr>88</ns3:hr>
            <ns3:cad>64</ns3:cad>
          </ns3:TrackPointExtension>
        </extensions>
      </trkpt>
      <trkpt lat="37.99232971854507923126220703125" lon="-107.73987754248082637786865234375">
        <ele>3801</ele>
        <time>2026-08-15T17:29:05.000Z</time>
        <extensions>
          <ns3:TrackPointExtension>
            <ns3:hr>88</ns3:hr>
            <ns3:cad>64</ns3:cad>
          </ns3:TrackPointExtension>
        </extensions>
      </trkpt>
      <trkpt lat="37.992328293621540069580078125" lon="-107.73984770290553569793701171875">
        <ele>3800</ele>
        <time>2026-08-15T17:29:09.000Z</time>
        <extensions>
          <ns3:TrackPointExtension>
            <ns3:hr>91</ns3:hr>
            <ns3:cad>60</ns3:cad>
          </ns3:TrackPointExtension>
        </extensions>
      </trkpt>
      <trkpt lat="37.99232997000217437744140625" lon="-107.7398181147873401641845703125">
        <ele>3799.199951171875</ele>
        <time>2026-08-15T17:29:11.000Z</time>
        <extensions>
          <ns3:TrackPointExtension>
            <ns3:hr>95</ns3:hr>
            <ns3:cad>0</ns3:cad>
          </ns3:TrackPointExtension>
        </extensions>
      </trkpt>
      <trkpt lat="37.99233223311603069305419921875" lon="-107.739807553589344024658203125">
        <ele>3798.60009765625</ele>
        <time>2026-08-15T17:29:12.000Z</time>
        <extensions>
          <ns3:TrackPointExtension>
            <ns3:hr>96</ns3:hr>
            <ns3:cad>0</ns3:cad>
          </ns3:TrackPointExtension>
        </extensions>
      </trkpt>
      <trkpt lat="37.99232535995543003082275390625" lon="-107.7397889457643032073974609375">
        <ele>3798</ele>
        <time>2026-08-15T17:29:14.000Z</time>
        <extensions>
          <ns3:TrackPointExtension>
            <ns3:hr>96</ns3:hr>
            <ns3:cad>64</ns3:cad>
          </ns3:TrackPointExtension>
        </extensions>
      </trkpt>
      <trkpt lat="37.99232452176511287689208984375" lon="-107.7397825755178928375244140625">
        <ele>3797.60009765625</ele>
        <time>2026-08-15T17:29:15.000Z</time>
        <extensions>
          <ns3:TrackPointExtension>
            <ns3:hr>96</ns3:hr>
            <ns3:cad>65</ns3:cad>
          </ns3:TrackPointExtension>
        </extensions>
      </trkpt>
      <trkpt lat="37.99233072437345981597900390625" lon="-107.7397386543452739715576171875">
        <ele>3796.60009765625</ele>
        <time>2026-08-15T17:29:20.000Z</time>
        <extensions>
          <ns3:TrackPointExtension>
            <ns3:hr>99</ns3:hr>
            <ns3:cad>68</ns3:cad>
          </ns3:TrackPointExtension>
        </extensions>
      </trkpt>
      <trkpt lat="37.9923344962298870086669921875" lon="-107.73971040733158588409423828125">
        <ele>3795.199951171875</ele>
        <time>2026-08-15T17:29:24.000Z</time>
        <extensions>
          <ns3:TrackPointExtension>
            <ns3:hr>97</ns3:hr>
            <ns3:cad>62</ns3:cad>
          </ns3:TrackPointExtension>
        </extensions>
      </trkpt>
      <trkpt lat="37.99233105964958667755126953125" lon="-107.73968626745045185089111328125">
        <ele>3794.199951171875</ele>
        <time>2026-08-15T17:29:28.000Z</time>
        <extensions>
          <ns3:TrackPointExtension>
            <ns3:hr>97</ns3:hr>
            <ns3:cad>62</ns3:cad>
          </ns3:TrackPointExtension>
        </extensions>
      </trkpt>
      <trkpt lat="37.9923311434686183929443359375" lon="-107.7396729402244091033935546875">
        <ele>3794</ele>
        <time>2026-08-15T17:29:29.000Z</time>
        <extensions>
          <ns3:TrackPointExtension>
            <ns3:hr>97</ns3:hr>
            <ns3:cad>0</ns3:cad>
          </ns3:TrackPointExtension>
        </extensions>
      </trkpt>
      <trkpt lat="37.99232770688831806182861328125" lon="-107.739636562764644622802734375">
        <ele>3793.199951171875</ele>
        <time>2026-08-15T17:29:32.000Z</time>
        <extensions>
          <ns3:TrackPointExtension>
            <ns3:hr>98</ns3:hr>
            <ns3:cad>0</ns3:cad>
          </ns3:TrackPointExtension>
        </extensions>
      </trkpt>
      <trkpt lat="37.9923133738338947296142578125" lon="-107.7395951561629772186279296875">
        <ele>3792.60009765625</ele>
        <time>2026-08-15T17:29:37.000Z</time>
        <extensions>
          <ns3:TrackPointExtension>
            <ns3:hr>98</ns3:hr>
            <ns3:cad>57</ns3:cad>
          </ns3:TrackPointExtension>
        </extensions>
      </trkpt>
      <trkpt lat="37.99230524338781833648681640625" lon="-107.739594317972660064697265625">
        <ele>3792.39990234375</ele>
        <time>2026-08-15T17:29:38.000Z</time>
        <extensions>
          <ns3:TrackPointExtension>
            <ns3:hr>97</ns3:hr>
            <ns3:cad>57</ns3:cad>
          </ns3:TrackPointExtension>
        </extensions>
      </trkpt>
      <trkpt lat="37.99229283817112445831298828125" lon="-107.73959037847816944122314453125">
        <ele>3792.199951171875</ele>
        <time>2026-08-15T17:29:40.000Z</time>
        <extensions>
          <ns3:TrackPointExtension>
            <ns3:hr>97</ns3:hr>
            <ns3:cad>57</ns3:cad>
          </ns3:TrackPointExtension>
        </extensions>
      </trkpt>
      <trkpt lat="37.99226098693907260894775390625" lon="-107.7395716868340969085693359375">
        <ele>3791.199951171875</ele>
        <time>2026-08-15T17:29:44.000Z</time>
        <extensions>
          <ns3:TrackPointExtension>
            <ns3:hr>95</ns3:hr>
            <ns3:cad>57</ns3:cad>
          </ns3:TrackPointExtension>
        </extensions>
      </trkpt>
      <trkpt lat="37.99225277267396450042724609375" lon="-107.7395673282444477081298828125">
        <ele>3790.800048828125</ele>
        <time>2026-08-15T17:29:45.000Z</time>
        <extensions>
          <ns3:TrackPointExtension>
            <ns3:hr>95</ns3:hr>
            <ns3:cad>59</ns3:cad>
          </ns3:TrackPointExtension>
        </extensions>
      </trkpt>
      <trkpt lat="37.99222025088965892791748046875" lon="-107.73954830132424831390380859375">
        <ele>3789.800048828125</ele>
        <time>2026-08-15T17:29:49.000Z</time>
        <extensions>
          <ns3:TrackPointExtension>
            <ns3:hr>92</ns3:hr>
            <ns3:cad>62</ns3:cad>
          </ns3:TrackPointExtension>
        </extensions>
      </trkpt>
      <trkpt lat="37.9922023974359035491943359375" lon="-107.73954126052558422088623046875">
        <ele>3789.39990234375</ele>
        <time>2026-08-15T17:29:51.000Z</time>
        <extensions>
          <ns3:TrackPointExtension>
            <ns3:hr>90</ns3:hr>
            <ns3:cad>60</ns3:cad>
          </ns3:TrackPointExtension>
        </extensions>
      </trkpt>
      <trkpt lat="37.992178760468959808349609375" lon="-107.7395421825349330902099609375">
        <ele>3789</ele>
        <time>2026-08-15T17:29:53.000Z</time>
        <extensions>
          <ns3:TrackPointExtension>
            <ns3:hr>87</ns3:hr>
            <ns3:cad>60</ns3:cad>
          </ns3:TrackPointExtension>
        </extensions>
      </trkpt>
      <trkpt lat="37.992159314453601837158203125" lon="-107.73954327218234539031982421875">
        <ele>3788.800048828125</ele>
        <time>2026-08-15T17:29:55.000Z</time>
        <extensions>
          <ns3:TrackPointExtension>
            <ns3:hr>87</ns3:hr>
            <ns3:cad>60</ns3:cad>
          </ns3:TrackPointExtension>
        </extensions>
      </trkpt>
      <trkpt lat="37.99213777296245098114013671875" lon="-107.73954293690621852874755859375">
        <ele>3788.199951171875</ele>
        <time>2026-08-15T17:29:58.000Z</time>
        <extensions>
          <ns3:TrackPointExtension>
            <ns3:hr>87</ns3:hr>
            <ns3:cad>56</ns3:cad>
          </ns3:TrackPointExtension>
        </extensions>
      </trkpt>
      <trkpt lat="37.99212075769901275634765625" lon="-107.7395569346845149993896484375">
        <ele>3787.60009765625</ele>
        <time>2026-08-15T17:30:01.000Z</time>
        <extensions>
          <ns3:TrackPointExtension>
            <ns3:hr>87</ns3:hr>
            <ns3:cad>56</ns3:cad>
          </ns3:TrackPointExtension>
        </extensions>
      </trkpt>
      <trkpt lat="37.992102988064289093017578125" lon="-107.73957394994795322418212890625">
        <ele>3787.199951171875</ele>
        <time>2026-08-15T17:30:05.000Z</time>
        <extensions>
          <ns3:TrackPointExtension>
            <ns3:hr>88</ns3:hr>
            <ns3:cad>55</ns3:cad>
          </ns3:TrackPointExtension>
        </extensions>
      </trkpt>
      <trkpt lat="37.992071807384490966796875" lon="-107.73958249948918819427490234375">
        <ele>3786.60009765625</ele>
        <time>2026-08-15T17:30:10.000Z</time>
        <extensions>
          <ns3:TrackPointExtension>
            <ns3:hr>89</ns3:hr>
            <ns3:cad>55</ns3:cad>
          </ns3:TrackPointExtension>
        </extensions>
      </trkpt>
      <trkpt lat="37.9920662753283977508544921875" lon="-107.7395777218043804168701171875">
        <ele>3786.39990234375</ele>
        <time>2026-08-15T17:30:11.000Z</time>
        <extensions>
          <ns3:TrackPointExtension>
            <ns3:hr>89</ns3:hr>
            <ns3:cad>55</ns3:cad>
          </ns3:TrackPointExtension>
        </extensions>
      </trkpt>
      <trkpt lat="37.99204087816178798675537109375" lon="-107.73955852724611759185791015625">
        <ele>3785.39990234375</ele>
        <time>2026-08-15T17:30:17.000Z</time>
        <extensions>
          <ns3:TrackPointExtension>
            <ns3:hr>88</ns3:hr>
            <ns3:cad>54</ns3:cad>
          </ns3:TrackPointExtension>
        </extensions>
      </trkpt>
      <trkpt lat="37.99202880822122097015380859375" lon="-107.73954771459102630615234375">
        <ele>3785</ele>
        <time>2026-08-15T17:30:20.000Z</time>
        <extensions>
          <ns3:TrackPointExtension>
            <ns3:hr>90</ns3:hr>
            <ns3:cad>54</ns3:cad>
          </ns3:TrackPointExtension>
        </extensions>
      </trkpt>
      <trkpt lat="37.992000393569469451904296875" lon="-107.73954394273459911346435546875">
        <ele>3784.39990234375</ele>
        <time>2026-08-15T17:30:23.000Z</time>
        <extensions>
          <ns3:TrackPointExtension>
            <ns3:hr>91</ns3:hr>
            <ns3:cad>61</ns3:cad>
          </ns3:TrackPointExtension>
        </extensions>
      </trkpt>
      <trkpt lat="37.99198740161955356597900390625" lon="-107.73954528383910655975341796875">
        <ele>3783.60009765625</ele>
        <time>2026-08-15T17:30:26.000Z</time>
        <extensions>
          <ns3:TrackPointExtension>
            <ns3:hr>91</ns3:hr>
            <ns3:cad>60</ns3:cad>
          </ns3:TrackPointExtension>
        </extensions>
      </trkpt>
      <trkpt lat="37.9919774271547794342041015625" lon="-107.739533968269824981689453125">
        <ele>3783.199951171875</ele>
        <time>2026-08-15T17:30:28.000Z</time>
        <extensions>
          <ns3:TrackPointExtension>
            <ns3:hr>90</ns3:hr>
            <ns3:cad>59</ns3:cad>
          </ns3:TrackPointExtension>
        </extensions>
      </trkpt>
      <trkpt lat="37.9919502697885036468505859375" lon="-107.739523239433765411376953125">
        <ele>3782.60009765625</ele>
        <time>2026-08-15T17:30:32.000Z</time>
        <extensions>
          <ns3:TrackPointExtension>
            <ns3:hr>91</ns3:hr>
            <ns3:cad>65</ns3:cad>
          </ns3:TrackPointExtension>
        </extensions>
      </trkpt>
      <trkpt lat="37.99193342216312885284423828125" lon="-107.73950974456965923309326171875">
        <ele>3782.199951171875</ele>
        <time>2026-08-15T17:30:34.000Z</time>
        <extensions>
          <ns3:TrackPointExtension>
            <ns3:hr>91</ns3:hr>
            <ns3:cad>61</ns3:cad>
          </ns3:TrackPointExtension>
        </extensions>
      </trkpt>
      <trkpt lat="37.99189201556146144866943359375" lon="-107.7394828386604785919189453125">
        <ele>3781.60009765625</ele>
        <time>2026-08-15T17:30:38.000Z</time>
        <extensions>
          <ns3:TrackPointExtension>
            <ns3:hr>93</ns3:hr>
            <ns3:cad>59</ns3:cad>
          </ns3:TrackPointExtension>
        </extensions>
      </trkpt>
      <trkpt lat="37.99184138886630535125732421875" lon="-107.739428021013736724853515625">
        <ele>3781.39990234375</ele>
        <time>2026-08-15T17:30:44.000Z</time>
        <extensions>
          <ns3:TrackPointExtension>
            <ns3:hr>95</ns3:hr>
            <ns3:cad>57</ns3:cad>
          </ns3:TrackPointExtension>
        </extensions>
      </trkpt>
      <trkpt lat="37.9918342642486095428466796875" lon="-107.7394191361963748931884765625">
        <ele>3781.39990234375</ele>
        <time>2026-08-15T17:30:45.000Z</time>
        <extensions>
          <ns3:TrackPointExtension>
            <ns3:hr>95</ns3:hr>
            <ns3:cad>57</ns3:cad>
          </ns3:TrackPointExtension>
        </extensions>
      </trkpt>
      <trkpt lat="37.991813980042934417724609375" lon="-107.73939759470522403717041015625">
        <ele>3781</ele>
        <time>2026-08-15T17:30:47.000Z</time>
        <extensions>
          <ns3:TrackPointExtension>
            <ns3:hr>96</ns3:hr>
            <ns3:cad>55</ns3:cad>
          </ns3:TrackPointExtension>
        </extensions>
      </trkpt>
      <trkpt lat="37.99176980741322040557861328125" lon="-107.7393497340381145477294921875">
        <ele>3780.39990234375</ele>
        <time>2026-08-15T17:30:52.000Z</time>
        <extensions>
          <ns3:TrackPointExtension>
            <ns3:hr>96</ns3:hr>
            <ns3:cad>56</ns3:cad>
          </ns3:TrackPointExtension>
        </extensions>
      </trkpt>
      <trkpt lat="37.99171549268066883087158203125" lon="-107.73929600603878498077392578125">
        <ele>3780</ele>
        <time>2026-08-15T17:30:58.000Z</time>
        <extensions>
          <ns3:TrackPointExtension>
            <ns3:hr>96</ns3:hr>
            <ns3:cad>55</ns3:cad>
          </ns3:TrackPointExtension>
        </extensions>
      </trkpt>
      <trkpt lat="37.99170275218784809112548828125" lon="-107.7392759732902050018310546875">
        <ele>3780</ele>
        <time>2026-08-15T17:31:00.000Z</time>
        <extensions>
          <ns3:TrackPointExtension>
            <ns3:hr>95</ns3:hr>
            <ns3:cad>53</ns3:cad>
          </ns3:TrackPointExtension>
        </extensions>
      </trkpt>
      <trkpt lat="37.9916552267968654632568359375" lon="-107.73920799605548381805419921875">
        <ele>3780.199951171875</ele>
        <time>2026-08-15T17:31:06.000Z</time>
        <extensions>
          <ns3:TrackPointExtension>
            <ns3:hr>96</ns3:hr>
            <ns3:cad>53</ns3:cad>
          </ns3:TrackPointExtension>
        </extensions>
      </trkpt>
      <trkpt lat="37.991650365293025970458984375" lon="-107.7391981892287731170654296875">
        <ele>3780.199951171875</ele>
        <time>2026-08-15T17:31:07.000Z</time>
        <extensions>
          <ns3:TrackPointExtension>
            <ns3:hr>96</ns3:hr>
            <ns3:cad>53</ns3:cad>
          </ns3:TrackPointExtension>
        </extensions>
      </trkpt>
      <trkpt lat="37.99159931950271129608154296875" lon="-107.73913591168820858001708984375">
        <ele>3779.800048828125</ele>
        <time>2026-08-15T17:31:13.000Z</time>
        <extensions>
          <ns3:TrackPointExtension>
            <ns3:hr>97</ns3:hr>
            <ns3:cad>54</ns3:cad>
          </ns3:TrackPointExtension>
        </extensions>
      </trkpt>
      <trkpt lat="37.9915734194219112396240234375" lon="-107.739110849797725677490234375">
        <ele>3779.800048828125</ele>
        <time>2026-08-15T17:31:16.000Z</time>
        <extensions>
          <ns3:TrackPointExtension>
            <ns3:hr>97</ns3:hr>
            <ns3:cad>54</ns3:cad>
          </ns3:TrackPointExtension>
        </extensions>
      </trkpt>
      <trkpt lat="37.99152505584061145782470703125" lon="-107.73904454894363880157470703125">
        <ele>3779.800048828125</ele>
        <time>2026-08-15T17:31:22.000Z</time>
        <extensions>
          <ns3:TrackPointExtension>
            <ns3:hr>97</ns3:hr>
            <ns3:cad>48</ns3:cad>
          </ns3:TrackPointExtension>
        </extensions>
      </trkpt>
      <trkpt lat="37.9915127344429492950439453125" lon="-107.739018984138965606689453125">
        <ele>3779.60009765625</ele>
        <time>2026-08-15T17:31:24.000Z</time>
        <extensions>
          <ns3:TrackPointExtension>
            <ns3:hr>97</ns3:hr>
            <ns3:cad>50</ns3:cad>
          </ns3:TrackPointExtension>
        </extensions>
      </trkpt>
      <trkpt lat="37.99146319739520549774169921875" lon="-107.73896634578704833984375">
        <ele>3779.60009765625</ele>
        <time>2026-08-15T17:31:30.000Z</time>
        <extensions>
          <ns3:TrackPointExtension>
            <ns3:hr>98</ns3:hr>
            <ns3:cad>52</ns3:cad>
          </ns3:TrackPointExtension>
        </extensions>
      </trkpt>
      <trkpt lat="37.99142782576382160186767578125" lon="-107.7389034815132617950439453125">
        <ele>3779.60009765625</ele>
        <time>2026-08-15T17:31:36.000Z</time>
        <extensions>
          <ns3:TrackPointExtension>
            <ns3:hr>98</ns3:hr>
            <ns3:cad>54</ns3:cad>
          </ns3:TrackPointExtension>
        </extensions>
      </trkpt>
      <trkpt lat="37.9914064519107341766357421875" lon="-107.73888051509857177734375">
        <ele>3779.800048828125</ele>
        <time>2026-08-15T17:31:39.000Z</time>
        <extensions>
          <ns3:TrackPointExtension>
            <ns3:hr>99</ns3:hr>
            <ns3:cad>54</ns3:cad>
          </ns3:TrackPointExtension>
        </extensions>
      </trkpt>
      <trkpt lat="37.99136227928102016448974609375" lon="-107.73882326669991016387939453125">
        <ele>3780.199951171875</ele>
        <time>2026-08-15T17:31:45.000Z</time>
        <extensions>
          <ns3:TrackPointExtension>
            <ns3:hr>101</ns3:hr>
            <ns3:cad>53</ns3:cad>
          </ns3:TrackPointExtension>
        </extensions>
      </trkpt>
      <trkpt lat="37.991350628435611724853515625" lon="-107.7388136275112628936767578125">
        <ele>3780.199951171875</ele>
        <time>2026-08-15T17:31:48.000Z</time>
        <extensions>
          <ns3:TrackPointExtension>
            <ns3:hr>100</ns3:hr>
            <ns3:cad>53</ns3:cad>
          </ns3:TrackPointExtension>
        </extensions>
      </trkpt>
      <trkpt lat="37.99130796454846858978271484375" lon="-107.73876375518739223480224609375">
        <ele>3779.800048828125</ele>
        <time>2026-08-15T17:31:54.000Z</time>
        <extensions>
          <ns3:TrackPointExtension>
            <ns3:hr>100</ns3:hr>
            <ns3:cad>53</ns3:cad>
          </ns3:TrackPointExtension>
        </extensions>
      </trkpt>
      <trkpt lat="37.99128097482025623321533203125" lon="-107.73871312849223613739013671875">
        <ele>3779.800048828125</ele>
        <time>2026-08-15T17:31:58.000Z</time>
        <extensions>
          <ns3:TrackPointExtension>
            <ns3:hr>100</ns3:hr>
            <ns3:cad>53</ns3:cad>
          </ns3:TrackPointExtension>
        </extensions>
      </trkpt>
      <trkpt lat="37.991239316761493682861328125" lon="-107.73865546099841594696044921875">
        <ele>3779.39990234375</ele>
        <time>2026-08-15T17:32:04.000Z</time>
        <extensions>
          <ns3:TrackPointExtension>
            <ns3:hr>100</ns3:hr>
            <ns3:cad>51</ns3:cad>
          </ns3:TrackPointExtension>
        </extensions>
      </trkpt>
      <trkpt lat="37.99121123738586902618408203125" lon="-107.73862981237471103668212890625">
        <ele>3778.800048828125</ele>
        <time>2026-08-15T17:32:07.000Z</time>
        <extensions>
          <ns3:TrackPointExtension>
            <ns3:hr>99</ns3:hr>
            <ns3:cad>53</ns3:cad>
          </ns3:TrackPointExtension>
        </extensions>
      </trkpt>
      <trkpt lat="37.9911623708903789520263671875" lon="-107.73860114626586437225341796875">
        <ele>3778.60009765625</ele>
        <time>2026-08-15T17:32:13.000Z</time>
        <extensions>
          <ns3:TrackPointExtension>
            <ns3:hr>99</ns3:hr>
            <ns3:cad>52</ns3:cad>
          </ns3:TrackPointExtension>
        </extensions>
      </trkpt>
      <trkpt lat="37.99114569090306758880615234375" lon="-107.73858840577304363250732421875">
        <ele>3778.60009765625</ele>
        <time>2026-08-15T17:32:15.000Z</time>
        <extensions>
          <ns3:TrackPointExtension>
            <ns3:hr>99</ns3:hr>
            <ns3:cad>53</ns3:cad>
          </ns3:TrackPointExtension>
        </extensions>
      </trkpt>
      <trkpt lat="37.99110461957752704620361328125" lon="-107.73858077824115753173828125">
        <ele>3777.800048828125</ele>
        <time>2026-08-15T17:32:19.000Z</time>
        <extensions>
          <ns3:TrackPointExtension>
            <ns3:hr>98</ns3:hr>
            <ns3:cad>52</ns3:cad>
          </ns3:TrackPointExtension>
        </extensions>
      </trkpt>
      <trkpt lat="37.99105416052043437957763671875" lon="-107.73856476880609989166259765625">
        <ele>3777</ele>
        <time>2026-08-15T17:32:24.000Z</time>
        <extensions>
          <ns3:TrackPointExtension>
            <ns3:hr>96</ns3:hr>
            <ns3:cad>53</ns3:cad>
          </ns3:TrackPointExtension>
        </extensions>
      </trkpt>
      <trkpt lat="37.99102306365966796875" lon="-107.7385544590651988983154296875">
        <ele>3776.800048828125</ele>
        <time>2026-08-15T17:32:27.000Z</time>
        <extensions>
          <ns3:TrackPointExtension>
            <ns3:hr>95</ns3:hr>
            <ns3:cad>56</ns3:cad>
          </ns3:TrackPointExtension>
        </extensions>
      </trkpt>
      <trkpt lat="37.99095575697720050811767578125" lon="-107.73853291757404804229736328125">
        <ele>3776.60009765625</ele>
        <time>2026-08-15T17:32:33.000Z</time>
        <extensions>
          <ns3:TrackPointExtension>
            <ns3:hr>94</ns3:hr>
            <ns3:cad>52</ns3:cad>
          </ns3:TrackPointExtension>
        </extensions>
      </trkpt>
      <trkpt lat="37.9909340478479862213134765625" lon="-107.7385212667286396026611328125">
        <ele>3776.800048828125</ele>
        <time>2026-08-15T17:32:35.000Z</time>
        <extensions>
          <ns3:TrackPointExtension>
            <ns3:hr>94</ns3:hr>
            <ns3:cad>55</ns3:cad>
          </ns3:TrackPointExtension>
        </extensions>
      </trkpt>
      <trkpt lat="37.990875542163848876953125" lon="-107.7384954504668712615966796875">
        <ele>3776.60009765625</ele>
        <time>2026-08-15T17:32:41.000Z</time>
        <extensions>
          <ns3:TrackPointExtension>
            <ns3:hr>93</ns3:hr>
            <ns3:cad>52</ns3:cad>
          </ns3:TrackPointExtension>
        </extensions>
      </trkpt>
      <trkpt lat="37.9908455349504947662353515625" lon="-107.7384910918772220611572265625">
        <ele>3776.199951171875</ele>
        <time>2026-08-15T17:32:44.000Z</time>
        <extensions>
          <ns3:TrackPointExtension>
            <ns3:hr>94</ns3:hr>
            <ns3:cad>51</ns3:cad>
          </ns3:TrackPointExtension>
        </extensions>
      </trkpt>
      <trkpt lat="37.99078878946602344512939453125" lon="-107.73845605552196502685546875">
        <ele>3776</ele>
        <time>2026-08-15T17:32:50.000Z</time>
        <extensions>
          <ns3:TrackPointExtension>
            <ns3:hr>95</ns3:hr>
            <ns3:cad>49</ns3:cad>
          </ns3:TrackPointExtension>
        </extensions>
      </trkpt>
      <trkpt lat="37.99077856354415416717529296875" lon="-107.7384515292942523956298828125">
        <ele>3776</ele>
        <time>2026-08-15T17:32:51.000Z</time>
        <extensions>
          <ns3:TrackPointExtension>
            <ns3:hr>96</ns3:hr>
            <ns3:cad>49</ns3:cad>
          </ns3:TrackPointExtension>
        </extensions>
      </trkpt>
      <trkpt lat="37.99075090326368808746337890625" lon="-107.73842831142246723175048828125">
        <ele>3776.199951171875</ele>
        <time>2026-08-15T17:32:54.000Z</time>
        <extensions>
          <ns3:TrackPointExtension>
            <ns3:hr>92</ns3:hr>
            <ns3:cad>52</ns3:cad>
          </ns3:TrackPointExtension>
        </extensions>
      </trkpt>
      <trkpt lat="37.9907141067087650299072265625" lon="-107.73837835527956485748291015625">
        <ele>3776.800048828125</ele>
        <time>2026-08-15T17:33:00.000Z</time>
        <extensions>
          <ns3:TrackPointExtension>
            <ns3:hr>90</ns3:hr>
            <ns3:cad>51</ns3:cad>
          </ns3:TrackPointExtension>
        </extensions>
      </trkpt>
      <trkpt lat="37.990695498883724212646484375" lon="-107.7383615076541900634765625">
        <ele>3777.800048828125</ele>
        <time>2026-08-15T17:33:04.000Z</time>
        <extensions>
          <ns3:TrackPointExtension>
            <ns3:hr>89</ns3:hr>
            <ns3:cad>0</ns3:cad>
          </ns3:TrackPointExtension>
        </extensions>
      </trkpt>
      <trkpt lat="37.99069373868405818939208984375" lon="-107.73836125619709491729736328125">
        <ele>3778</ele>
        <time>2026-08-15T17:33:05.000Z</time>
        <extensions>
          <ns3:TrackPointExtension>
            <ns3:hr>90</ns3:hr>
            <ns3:cad>0</ns3:cad>
          </ns3:TrackPointExtension>
        </extensions>
      </trkpt>
      <trkpt lat="37.99069373868405818939208984375" lon="-107.73836125619709491729736328125">
        <ele>3778.39990234375</ele>
        <time>2026-08-15T17:33:07.000Z</time>
        <extensions>
          <ns3:TrackPointExtension>
            <ns3:hr>91</ns3:hr>
            <ns3:cad>0</ns3:cad>
          </ns3:TrackPointExtension>
        </extensions>
      </trkpt>
      <trkpt lat="37.9906913079321384429931640625" lon="-107.7383593283593654632568359375">
        <ele>3777.800048828125</ele>
        <time>2026-08-15T17:33:10.000Z</time>
        <extensions>
          <ns3:TrackPointExtension>
            <ns3:hr>94</ns3:hr>
            <ns3:cad>0</ns3:cad>
          </ns3:TrackPointExtension>
        </extensions>
      </trkpt>
      <trkpt lat="37.99067948944866657257080078125" lon="-107.73837265558540821075439453125">
        <ele>3776.800048828125</ele>
        <time>2026-08-15T17:33:12.000Z</time>
        <extensions>
          <ns3:TrackPointExtension>
            <ns3:hr>95</ns3:hr>
            <ns3:cad>0</ns3:cad>
          </ns3:TrackPointExtension>
        </extensions>
      </trkpt>
      <trkpt lat="37.9906718619167804718017578125" lon="-107.73838355205953121185302734375">
        <ele>3777</ele>
        <time>2026-08-15T17:33:13.000Z</time>
        <extensions>
          <ns3:TrackPointExtension>
            <ns3:hr>95</ns3:hr>
            <ns3:cad>0</ns3:cad>
          </ns3:TrackPointExtension>
        </extensions>
      </trkpt>
      <trkpt lat="37.99060924910008907318115234375" lon="-107.73840450681746006011962890625">
        <ele>3777</ele>
        <time>2026-08-15T17:33:19.000Z</time>
        <extensions>
          <ns3:TrackPointExtension>
            <ns3:hr>94</ns3:hr>
            <ns3:cad>50</ns3:cad>
          </ns3:TrackPointExtension>
        </extensions>
      </trkpt>
      <trkpt lat="37.9906014539301395416259765625" lon="-107.738404087722301483154296875">
        <ele>3777</ele>
        <time>2026-08-15T17:33:20.000Z</time>
        <extensions>
          <ns3:TrackPointExtension>
            <ns3:hr>94</ns3:hr>
            <ns3:cad>51</ns3:cad>
          </ns3:TrackPointExtension>
        </extensions>
      </trkpt>
      <trkpt lat="37.99055560491979122161865234375" lon="-107.73840970359742641448974609375">
        <ele>3776.800048828125</ele>
        <time>2026-08-15T17:33:26.000Z</time>
        <extensions>
          <ns3:TrackPointExtension>
            <ns3:hr>91</ns3:hr>
            <ns3:cad>45</ns3:cad>
          </ns3:TrackPointExtension>
        </extensions>
      </trkpt>
      <trkpt lat="37.990546636283397674560546875" lon="-107.73840970359742641448974609375">
        <ele>3776.800048828125</ele>
        <time>2026-08-15T17:33:28.000Z</time>
        <extensions>
          <ns3:TrackPointExtension>
            <ns3:hr>91</ns3:hr>
            <ns3:cad>0</ns3:cad>
          </ns3:TrackPointExtension>
        </extensions>
      </trkpt>
      <trkpt lat="37.990523837506771087646484375" lon="-107.73840107023715972900390625">
        <ele>3776.800048828125</ele>
        <time>2026-08-15T17:33:34.000Z</time>
        <extensions>
          <ns3:TrackPointExtension>
            <ns3:hr>93</ns3:hr>
            <ns3:cad>0</ns3:cad>
          </ns3:TrackPointExtension>
        </extensions>
      </trkpt>
      <trkpt lat="37.99052911810576915740966796875" lon="-107.73839595727622509002685546875">
        <ele>3776.60009765625</ele>
        <time>2026-08-15T17:33:35.000Z</time>
        <extensions>
          <ns3:TrackPointExtension>
            <ns3:hr>93</ns3:hr>
            <ns3:cad>0</ns3:cad>
          </ns3:TrackPointExtension>
        </extensions>
      </trkpt>
      <trkpt lat="37.99054227769374847412109375" lon="-107.7384009025990962982177734375">
        <ele>3776.60009765625</ele>
        <time>2026-08-15T17:33:41.000Z</time>
        <extensions>
          <ns3:TrackPointExtension>
            <ns3:hr>92</ns3:hr>
            <ns3:cad>0</ns3:cad>
          </ns3:TrackPointExtension>
        </extensions>
      </trkpt>
      <trkpt lat="37.99053850583732128143310546875" lon="-107.7384002320468425750732421875">
        <ele>3776.39990234375</ele>
        <time>2026-08-15T17:33:47.000Z</time>
        <extensions>
          <ns3:TrackPointExtension>
            <ns3:hr>94</ns3:hr>
            <ns3:cad>0</ns3:cad>
          </ns3:TrackPointExtension>
        </extensions>
      </trkpt>
      <trkpt lat="37.99053850583732128143310546875" lon="-107.7384002320468425750732421875">
        <ele>3776.39990234375</ele>
        <time>2026-08-15T17:33:49.000Z</time>
        <extensions>
          <ns3:TrackPointExtension>
            <ns3:hr>93</ns3:hr>
            <ns3:cad>0</ns3:cad>
          </ns3:TrackPointExtension>
        </extensions>
      </trkpt>
      <trkpt lat="37.99053850583732128143310546875" lon="-107.7384002320468425750732421875">
        <ele>3776.199951171875</ele>
        <time>2026-08-15T17:33:54.000Z</time>
        <extensions>
          <ns3:TrackPointExtension>
            <ns3:hr>96</ns3:hr>
            <ns3:cad>0</ns3:cad>
          </ns3:TrackPointExtension>
        </extensions>
      </trkpt>
      <trkpt lat="37.99053850583732128143310546875" lon="-107.7384002320468425750732421875">
        <ele>3776.199951171875</ele>
        <time>2026-08-15T17:34:00.000Z</time>
        <extensions>
          <ns3:TrackPointExtension>
            <ns3:hr>95</ns3:hr>
            <ns3:cad>0</ns3:cad>
          </ns3:TrackPointExtension>
        </extensions>
      </trkpt>
      <trkpt lat="37.99053850583732128143310546875" lon="-107.7384002320468425750732421875">
        <ele>3776</ele>
        <time>2026-08-15T17:34:03.000Z</time>
        <extensions>
          <ns3:TrackPointExtension>
            <ns3:hr>97</ns3:hr>
            <ns3:cad>0</ns3:cad>
          </ns3:TrackPointExtension>
        </extensions>
      </trkpt>
      <trkpt lat="37.99053850583732128143310546875" lon="-107.7384002320468425750732421875">
        <ele>3776</ele>
        <time>2026-08-15T17:34:09.000Z</time>
        <extensions>
          <ns3:TrackPointExtension>
            <ns3:hr>99</ns3:hr>
            <ns3:cad>0</ns3:cad>
          </ns3:TrackPointExtension>
        </extensions>
      </trkpt>
      <trkpt lat="37.99053850583732128143310546875" lon="-107.7384002320468425750732421875">
        <ele>3775.800048828125</ele>
        <time>2026-08-15T17:34:11.000Z</time>
        <extensions>
          <ns3:TrackPointExtension>
            <ns3:hr>100</ns3:hr>
            <ns3:cad>0</ns3:cad>
          </ns3:TrackPointExtension>
        </extensions>
      </trkpt>
      <trkpt lat="37.99053850583732128143310546875" lon="-107.7384002320468425750732421875">
        <ele>3775.60009765625</ele>
        <time>2026-08-15T17:34:12.000Z</time>
        <extensions>
          <ns3:TrackPointExtension>
            <ns3:hr>100</ns3:hr>
            <ns3:cad>0</ns3:cad>
          </ns3:TrackPointExtension>
        </extensions>
      </trkpt>
      <trkpt lat="37.99053850583732128143310546875" lon="-107.7384002320468425750732421875">
        <ele>3775</ele>
        <time>2026-08-15T17:34:18.000Z</time>
        <extensions>
          <ns3:TrackPointExtension>
            <ns3:hr>102</ns3:hr>
            <ns3:cad>0</ns3:cad>
          </ns3:TrackPointExtension>
        </extensions>
      </trkpt>
      <trkpt lat="37.99053850583732128143310546875" lon="-107.7384002320468425750732421875">
        <ele>3775</ele>
        <time>2026-08-15T17:34:21.000Z</time>
        <extensions>
          <ns3:TrackPointExtension>
            <ns3:hr>99</ns3:hr>
            <ns3:cad>0</ns3:cad>
          </ns3:TrackPointExtension>
        </extensions>
      </trkpt>
      <trkpt lat="37.99053850583732128143310546875" lon="-107.7384002320468425750732421875">
        <ele>3775</ele>
        <time>2026-08-15T17:34:23.000Z</time>
        <extensions>
          <ns3:TrackPointExtension>
            <ns3:hr>96</ns3:hr>
            <ns3:cad>0</ns3:cad>
          </ns3:TrackPointExtension>
        </extensions>
      </trkpt>
      <trkpt lat="37.99053850583732128143310546875" lon="-107.7384002320468425750732421875">
        <ele>3774.800048828125</ele>
        <time>2026-08-15T17:34:24.000Z</time>
        <extensions>
          <ns3:TrackPointExtension>
            <ns3:hr>94</ns3:hr>
            <ns3:cad>0</ns3:cad>
          </ns3:TrackPointExtension>
        </extensions>
      </trkpt>
      <trkpt lat="37.99053850583732128143310546875" lon="-107.7384002320468425750732421875">
        <ele>3774.60009765625</ele>
        <time>2026-08-15T17:34:30.000Z</time>
        <extensions>
          <ns3:TrackPointExtension>
            <ns3:hr>93</ns3:hr>
            <ns3:cad>0</ns3:cad>
          </ns3:TrackPointExtension>
        </extensions>
      </trkpt>
      <trkpt lat="37.99053850583732128143310546875" lon="-107.7384002320468425750732421875">
        <ele>3774.60009765625</ele>
        <time>2026-08-15T17:34:31.000Z</time>
        <extensions>
          <ns3:TrackPointExtension>
            <ns3:hr>94</ns3:hr>
            <ns3:cad>0</ns3:cad>
          </ns3:TrackPointExtension>
        </extensions>
      </trkpt>
      <trkpt lat="37.99053850583732128143310546875" lon="-107.7384002320468425750732421875">
        <ele>3775.199951171875</ele>
        <time>2026-08-15T17:34:37.000Z</time>
        <extensions>
          <ns3:TrackPointExtension>
            <ns3:hr>94</ns3:hr>
            <ns3:cad>0</ns3:cad>
          </ns3:TrackPointExtension>
        </extensions>
      </trkpt>
      <trkpt lat="37.99053850583732128143310546875" lon="-107.7384002320468425750732421875">
        <ele>3774.800048828125</ele>
        <time>2026-08-15T17:34:41.000Z</time>
        <extensions>
          <ns3:TrackPointExtension>
            <ns3:hr>93</ns3:hr>
            <ns3:cad>0</ns3:cad>
          </ns3:TrackPointExtension>
        </extensions>
      </trkpt>
      <trkpt lat="37.99053850583732128143310546875" lon="-107.7384002320468425750732421875">
        <ele>3775.199951171875</ele>
        <time>2026-08-15T17:34:47.000Z</time>
        <extensions>
          <ns3:TrackPointExtension>
            <ns3:hr>93</ns3:hr>
            <ns3:cad>0</ns3:cad>
          </ns3:TrackPointExtension>
        </extensions>
      </trkpt>
      <trkpt lat="37.99053850583732128143310546875" lon="-107.7384002320468425750732421875">
        <ele>3774.800048828125</ele>
        <time>2026-08-15T17:34:49.000Z</time>
        <extensions>
          <ns3:TrackPointExtension>
            <ns3:hr>93</ns3:hr>
            <ns3:cad>0</ns3:cad>
          </ns3:TrackPointExtension>
        </extensions>
      </trkpt>
      <trkpt lat="37.99053850583732128143310546875" lon="-107.7384002320468425750732421875">
        <ele>3774.60009765625</ele>
        <time>2026-08-15T17:34:53.000Z</time>
        <extensions>
          <ns3:TrackPointExtension>
            <ns3:hr>96</ns3:hr>
            <ns3:cad>0</ns3:cad>
          </ns3:TrackPointExtension>
        </extensions>
      </trkpt>
      <trkpt lat="37.99053850583732128143310546875" lon="-107.7384002320468425750732421875">
        <ele>3774.800048828125</ele>
        <time>2026-08-15T17:34:56.000Z</time>
        <extensions>
          <ns3:TrackPointExtension>
            <ns3:hr>99</ns3:hr>
            <ns3:cad>0</ns3:cad>
          </ns3:TrackPointExtension>
        </extensions>
      </trkpt>
      <trkpt lat="37.99053850583732128143310546875" lon="-107.7384002320468425750732421875">
        <ele>3775</ele>
        <time>2026-08-15T17:34:58.000Z</time>
        <extensions>
          <ns3:TrackPointExtension>
            <ns3:hr>100</ns3:hr>
            <ns3:cad>0</ns3:cad>
          </ns3:TrackPointExtension>
        </extensions>
      </trkpt>
      <trkpt lat="37.99053850583732128143310546875" lon="-107.7384002320468425750732421875">
        <ele>3774.60009765625</ele>
        <time>2026-08-15T17:35:04.000Z</time>
        <extensions>
          <ns3:TrackPointExtension>
            <ns3:hr>99</ns3:hr>
            <ns3:cad>0</ns3:cad>
          </ns3:TrackPointExtension>
        </extensions>
      </trkpt>
      <trkpt lat="37.99053850583732128143310546875" lon="-107.7384002320468425750732421875">
        <ele>3774.39990234375</ele>
        <time>2026-08-15T17:35:08.000Z</time>
        <extensions>
          <ns3:TrackPointExtension>
            <ns3:hr>99</ns3:hr>
            <ns3:cad>0</ns3:cad>
          </ns3:TrackPointExtension>
        </extensions>
      </trkpt>
      <trkpt lat="37.99053850583732128143310546875" lon="-107.7384002320468425750732421875">
        <ele>3775</ele>
        <time>2026-08-15T17:35:14.000Z</time>
        <extensions>
          <ns3:TrackPointExtension>
            <ns3:hr>98</ns3:hr>
            <ns3:cad>0</ns3:cad>
          </ns3:TrackPointExtension>
        </extensions>
      </trkpt>
      <trkpt lat="37.99053850583732128143310546875" lon="-107.7384002320468425750732421875">
        <ele>3775</ele>
        <time>2026-08-15T17:35:16.000Z</time>
        <extensions>
          <ns3:TrackPointExtension>
            <ns3:hr>98</ns3:hr>
            <ns3:cad>0</ns3:cad>
          </ns3:TrackPointExtension>
        </extensions>
      </trkpt>
      <trkpt lat="37.99053850583732128143310546875" lon="-107.7384002320468425750732421875">
        <ele>3774.800048828125</ele>
        <time>2026-08-15T17:35:22.000Z</time>
        <extensions>
          <ns3:TrackPointExtension>
            <ns3:hr>100</ns3:hr>
            <ns3:cad>0</ns3:cad>
          </ns3:TrackPointExtension>
        </extensions>
      </trkpt>
      <trkpt lat="37.99053850583732128143310546875" lon="-107.7384002320468425750732421875">
        <ele>3774.800048828125</ele>
        <time>2026-08-15T17:35:23.000Z</time>
        <extensions>
          <ns3:TrackPointExtension>
            <ns3:hr>103</ns3:hr>
            <ns3:cad>0</ns3:cad>
          </ns3:TrackPointExtension>
        </extensions>
      </trkpt>
      <trkpt lat="37.99053850583732128143310546875" lon="-107.7384002320468425750732421875">
        <ele>3774.800048828125</ele>
        <time>2026-08-15T17:35:24.000Z</time>
        <extensions>
          <ns3:TrackPointExtension>
            <ns3:hr>106</ns3:hr>
            <ns3:cad>0</ns3:cad>
          </ns3:TrackPointExtension>
        </extensions>
      </trkpt>
      <trkpt lat="37.99053850583732128143310546875" lon="-107.7384002320468425750732421875">
        <ele>3774.800048828125</ele>
        <time>2026-08-15T17:35:25.000Z</time>
        <extensions>
          <ns3:TrackPointExtension>
            <ns3:hr>106</ns3:hr>
            <ns3:cad>0</ns3:cad>
          </ns3:TrackPointExtension>
        </extensions>
      </trkpt>
      <trkpt lat="37.99053850583732128143310546875" lon="-107.7384002320468425750732421875">
        <ele>3774.800048828125</ele>
        <time>2026-08-15T17:35:29.000Z</time>
        <extensions>
          <ns3:TrackPointExtension>
            <ns3:hr>106</ns3:hr>
            <ns3:cad>0</ns3:cad>
          </ns3:TrackPointExtension>
        </extensions>
      </trkpt>
      <trkpt lat="37.99053850583732128143310546875" lon="-107.7384002320468425750732421875">
        <ele>3774.800048828125</ele>
        <time>2026-08-15T17:35:35.000Z</time>
        <extensions>
          <ns3:TrackPointExtension>
            <ns3:hr>107</ns3:hr>
            <ns3:cad>0</ns3:cad>
          </ns3:TrackPointExtension>
        </extensions>
      </trkpt>
      <trkpt lat="37.9905246756970882415771484375" lon="-107.7384009025990962982177734375">
        <ele>3774.800048828125</ele>
        <time>2026-08-15T17:35:39.000Z</time>
        <extensions>
          <ns3:TrackPointExtension>
            <ns3:hr>107</ns3:hr>
            <ns3:cad>0</ns3:cad>
          </ns3:TrackPointExtension>
        </extensions>
      </trkpt>
      <trkpt lat="37.99051889218389987945556640625" lon="-107.73839662782847881317138671875">
        <ele>3774.60009765625</ele>
        <time>2026-08-15T17:35:45.000Z</time>
        <extensions>
          <ns3:TrackPointExtension>
            <ns3:hr>107</ns3:hr>
            <ns3:cad>0</ns3:cad>
          </ns3:TrackPointExtension>
        </extensions>
      </trkpt>
      <trkpt lat="37.99051922746002674102783203125" lon="-107.73839629255235195159912109375">
        <ele>3774.39990234375</ele>
        <time>2026-08-15T17:35:47.000Z</time>
        <extensions>
          <ns3:TrackPointExtension>
            <ns3:hr>111</ns3:hr>
            <ns3:cad>0</ns3:cad>
          </ns3:TrackPointExtension>
        </extensions>
      </trkpt>
      <trkpt lat="37.99051922746002674102783203125" lon="-107.73839629255235195159912109375">
        <ele>3774.60009765625</ele>
        <time>2026-08-15T17:35:49.000Z</time>
        <extensions>
          <ns3:TrackPointExtension>
            <ns3:hr>111</ns3:hr>
            <ns3:cad>0</ns3:cad>
          </ns3:TrackPointExtension>
        </extensions>
      </trkpt>
      <trkpt lat="37.99051922746002674102783203125" lon="-107.73839629255235195159912109375">
        <ele>3774.60009765625</ele>
        <time>2026-08-15T17:35:51.000Z</time>
        <extensions>
          <ns3:TrackPointExtension>
            <ns3:hr>107</ns3:hr>
            <ns3:cad>0</ns3:cad>
          </ns3:TrackPointExtension>
        </extensions>
      </trkpt>
      <trkpt lat="37.99051922746002674102783203125" lon="-107.73839629255235195159912109375">
        <ele>3774.800048828125</ele>
        <time>2026-08-15T17:35:57.000Z</time>
        <extensions>
          <ns3:TrackPointExtension>
            <ns3:hr>107</ns3:hr>
            <ns3:cad>0</ns3:cad>
          </ns3:TrackPointExtension>
        </extensions>
      </trkpt>
      <trkpt lat="37.99051922746002674102783203125" lon="-107.73839629255235195159912109375">
        <ele>3775</ele>
        <time>2026-08-15T17:36:01.000Z</time>
        <extensions>
          <ns3:TrackPointExtension>
            <ns3:hr>109</ns3:hr>
            <ns3:cad>0</ns3:cad>
          </ns3:TrackPointExtension>
        </extensions>
      </trkpt>
      <trkpt lat="37.99051922746002674102783203125" lon="-107.73839629255235195159912109375">
        <ele>3775</ele>
        <time>2026-08-15T17:36:03.000Z</time>
        <extensions>
          <ns3:TrackPointExtension>
            <ns3:hr>104</ns3:hr>
            <ns3:cad>0</ns3:cad>
          </ns3:TrackPointExtension>
        </extensions>
      </trkpt>
      <trkpt lat="37.99051922746002674102783203125" lon="-107.73839629255235195159912109375">
        <ele>3774.800048828125</ele>
        <time>2026-08-15T17:36:04.000Z</time>
        <extensions>
          <ns3:TrackPointExtension>
            <ns3:hr>97</ns3:hr>
            <ns3:cad>0</ns3:cad>
          </ns3:TrackPointExtension>
        </extensions>
      </trkpt>
      <trkpt lat="37.99051922746002674102783203125" lon="-107.73839629255235195159912109375">
        <ele>3774.800048828125</ele>
        <time>2026-08-15T17:36:05.000Z</time>
        <extensions>
          <ns3:TrackPointExtension>
            <ns3:hr>94</ns3:hr>
            <ns3:cad>0</ns3:cad>
          </ns3:TrackPointExtension>
        </extensions>
      </trkpt>
      <trkpt lat="37.99051922746002674102783203125" lon="-107.73839629255235195159912109375">
        <ele>3775</ele>
        <time>2026-08-15T17:36:08.000Z</time>
        <extensions>
          <ns3:TrackPointExtension>
            <ns3:hr>91</ns3:hr>
            <ns3:cad>0</ns3:cad>
          </ns3:TrackPointExtension>
        </extensions>
      </trkpt>
      <trkpt lat="37.99051922746002674102783203125" lon="-107.73839629255235195159912109375">
        <ele>3775</ele>
        <time>2026-08-15T17:36:12.000Z</time>
        <extensions>
          <ns3:TrackPointExtension>
            <ns3:hr>90</ns3:hr>
            <ns3:cad>0</ns3:cad>
          </ns3:TrackPointExtension>
        </extensions>
      </trkpt>
      <trkpt lat="37.99051922746002674102783203125" lon="-107.73839629255235195159912109375">
        <ele>3774.60009765625</ele>
        <time>2026-08-15T17:36:18.000Z</time>
        <extensions>
          <ns3:TrackPointExtension>
            <ns3:hr>91</ns3:hr>
            <ns3:cad>0</ns3:cad>
          </ns3:TrackPointExtension>
        </extensions>
      </trkpt>
      <trkpt lat="37.99051922746002674102783203125" lon="-107.73839629255235195159912109375">
        <ele>3774.800048828125</ele>
        <time>2026-08-15T17:36:22.000Z</time>
        <extensions>
          <ns3:TrackPointExtension>
            <ns3:hr>93</ns3:hr>
            <ns3:cad>0</ns3:cad>
          </ns3:TrackPointExtension>
        </extensions>
      </trkpt>
      <trkpt lat="37.99051922746002674102783203125" lon="-107.73839629255235195159912109375">
        <ele>3775</ele>
        <time>2026-08-15T17:36:25.000Z</time>
        <extensions>
          <ns3:TrackPointExtension>
            <ns3:hr>96</ns3:hr>
            <ns3:cad>0</ns3:cad>
          </ns3:TrackPointExtension>
        </extensions>
      </trkpt>
      <trkpt lat="37.99051922746002674102783203125" lon="-107.73839629255235195159912109375">
        <ele>3775.199951171875</ele>
        <time>2026-08-15T17:36:28.000Z</time>
        <extensions>
          <ns3:TrackPointExtension>
            <ns3:hr>99</ns3:hr>
            <ns3:cad>0</ns3:cad>
          </ns3:TrackPointExtension>
        </extensions>
      </trkpt>
      <trkpt lat="37.99051922746002674102783203125" lon="-107.73839629255235195159912109375">
        <ele>3775.199951171875</ele>
        <time>2026-08-15T17:36:29.000Z</time>
        <extensions>
          <ns3:TrackPointExtension>
            <ns3:hr>99</ns3:hr>
            <ns3:cad>0</ns3:cad>
          </ns3:TrackPointExtension>
        </extensions>
      </trkpt>
      <trkpt lat="37.99051922746002674102783203125" lon="-107.73839629255235195159912109375">
        <ele>3775</ele>
        <time>2026-08-15T17:36:35.000Z</time>
        <extensions>
          <ns3:TrackPointExtension>
            <ns3:hr>100</ns3:hr>
            <ns3:cad>0</ns3:cad>
          </ns3:TrackPointExtension>
        </extensions>
      </trkpt>
      <trkpt lat="37.99051922746002674102783203125" lon="-107.73839629255235195159912109375">
        <ele>3774.800048828125</ele>
        <time>2026-08-15T17:36:38.000Z</time>
        <extensions>
          <ns3:TrackPointExtension>
            <ns3:hr>100</ns3:hr>
            <ns3:cad>0</ns3:cad>
          </ns3:TrackPointExtension>
        </extensions>
      </trkpt>
      <trkpt lat="37.99051939509809017181396484375" lon="-107.73839914239943027496337890625">
        <ele>3775</ele>
        <time>2026-08-15T17:36:44.000Z</time>
        <extensions>
          <ns3:TrackPointExtension>
            <ns3:hr>100</ns3:hr>
            <ns3:cad>0</ns3:cad>
          </ns3:TrackPointExtension>
        </extensions>
      </trkpt>
      <trkpt lat="37.99051922746002674102783203125" lon="-107.73839629255235195159912109375">
        <ele>3774.800048828125</ele>
        <time>2026-08-15T17:36:46.000Z</time>
        <extensions>
          <ns3:TrackPointExtension>
            <ns3:hr>101</ns3:hr>
            <ns3:cad>0</ns3:cad>
          </ns3:TrackPointExtension>
        </extensions>
      </trkpt>
      <trkpt lat="37.99051922746002674102783203125" lon="-107.73839629255235195159912109375">
        <ele>3774.39990234375</ele>
        <time>2026-08-15T17:36:52.000Z</time>
        <extensions>
          <ns3:TrackPointExtension>
            <ns3:hr>101</ns3:hr>
            <ns3:cad>0</ns3:cad>
          </ns3:TrackPointExtension>
        </extensions>
      </trkpt>
      <trkpt lat="37.99051922746002674102783203125" lon="-107.73839629255235195159912109375">
        <ele>3774.800048828125</ele>
        <time>2026-08-15T17:36:57.000Z</time>
        <extensions>
          <ns3:TrackPointExtension>
            <ns3:hr>98</ns3:hr>
            <ns3:cad>0</ns3:cad>
          </ns3:TrackPointExtension>
        </extensions>
      </trkpt>
      <trkpt lat="37.99051922746002674102783203125" lon="-107.73839629255235195159912109375">
        <ele>3774.800048828125</ele>
        <time>2026-08-15T17:36:59.000Z</time>
        <extensions>
          <ns3:TrackPointExtension>
            <ns3:hr>97</ns3:hr>
            <ns3:cad>0</ns3:cad>
          </ns3:TrackPointExtension>
        </extensions>
      </trkpt>
      <trkpt lat="37.99051922746002674102783203125" lon="-107.73839629255235195159912109375">
        <ele>3774.800048828125</ele>
        <time>2026-08-15T17:37:05.000Z</time>
        <extensions>
          <ns3:TrackPointExtension>
            <ns3:hr>97</ns3:hr>
            <ns3:cad>0</ns3:cad>
          </ns3:TrackPointExtension>
        </extensions>
      </trkpt>
      <trkpt lat="37.99051922746002674102783203125" lon="-107.73839629255235195159912109375">
        <ele>3774.60009765625</ele>
        <time>2026-08-15T17:37:11.000Z</time>
        <extensions>
          <ns3:TrackPointExtension>
            <ns3:hr>96</ns3:hr>
            <ns3:cad>0</ns3:cad>
          </ns3:TrackPointExtension>
        </extensions>
      </trkpt>
      <trkpt lat="37.99051922746002674102783203125" lon="-107.73839629255235195159912109375">
        <ele>3774.800048828125</ele>
        <time>2026-08-15T17:37:17.000Z</time>
        <extensions>
          <ns3:TrackPointExtension>
            <ns3:hr>94</ns3:hr>
            <ns3:cad>0</ns3:cad>
          </ns3:TrackPointExtension>
        </extensions>
      </trkpt>
      <trkpt lat="37.99051922746002674102783203125" lon="-107.73839629255235195159912109375">
        <ele>3774.800048828125</ele>
        <time>2026-08-15T17:37:22.000Z</time>
        <extensions>
          <ns3:TrackPointExtension>
            <ns3:hr>89</ns3:hr>
            <ns3:cad>0</ns3:cad>
          </ns3:TrackPointExtension>
        </extensions>
      </trkpt>
      <trkpt lat="37.99051922746002674102783203125" lon="-107.73839629255235195159912109375">
        <ele>3775</ele>
        <time>2026-08-15T17:37:24.000Z</time>
        <extensions>
          <ns3:TrackPointExtension>
            <ns3:hr>86</ns3:hr>
            <ns3:cad>0</ns3:cad>
          </ns3:TrackPointExtension>
        </extensions>
      </trkpt>
      <trkpt lat="37.99051922746002674102783203125" lon="-107.73839629255235195159912109375">
        <ele>3774.800048828125</ele>
        <time>2026-08-15T17:37:30.000Z</time>
        <extensions>
          <ns3:TrackPointExtension>
            <ns3:hr>88</ns3:hr>
            <ns3:cad>0</ns3:cad>
          </ns3:TrackPointExtension>
        </extensions>
      </trkpt>
      <trkpt lat="37.99051922746002674102783203125" lon="-107.73839629255235195159912109375">
        <ele>3774.800048828125</ele>
        <time>2026-08-15T17:37:32.000Z</time>
        <extensions>
          <ns3:TrackPointExtension>
            <ns3:hr>89</ns3:hr>
            <ns3:cad>0</ns3:cad>
          </ns3:TrackPointExtension>
        </extensions>
      </trkpt>
      <trkpt lat="37.99051922746002674102783203125" lon="-107.73839629255235195159912109375">
        <ele>3775.39990234375</ele>
        <time>2026-08-15T17:37:38.000Z</time>
        <extensions>
          <ns3:TrackPointExtension>
            <ns3:hr>92</ns3:hr>
            <ns3:cad>0</ns3:cad>
          </ns3:TrackPointExtension>
        </extensions>
      </trkpt>
      <trkpt lat="37.99051922746002674102783203125" lon="-107.73839629255235195159912109375">
        <ele>3775.39990234375</ele>
        <time>2026-08-15T17:37:43.000Z</time>
        <extensions>
          <ns3:TrackPointExtension>
            <ns3:hr>95</ns3:hr>
            <ns3:cad>0</ns3:cad>
          </ns3:TrackPointExtension>
        </extensions>
      </trkpt>
      <trkpt lat="37.99051922746002674102783203125" lon="-107.73839629255235195159912109375">
        <ele>3775.60009765625</ele>
        <time>2026-08-15T17:37:49.000Z</time>
        <extensions>
          <ns3:TrackPointExtension>
            <ns3:hr>96</ns3:hr>
            <ns3:cad>0</ns3:cad>
          </ns3:TrackPointExtension>
        </extensions>
      </trkpt>
      <trkpt lat="37.99051922746002674102783203125" lon="-107.73839629255235195159912109375">
        <ele>3775.800048828125</ele>
        <time>2026-08-15T17:37:51.000Z</time>
        <extensions>
          <ns3:TrackPointExtension>
            <ns3:hr>95</ns3:hr>
            <ns3:cad>0</ns3:cad>
          </ns3:TrackPointExtension>
        </extensions>
      </trkpt>
      <trkpt lat="37.99051922746002674102783203125" lon="-107.73839629255235195159912109375">
        <ele>3776</ele>
        <time>2026-08-15T17:37:53.000Z</time>
        <extensions>
          <ns3:TrackPointExtension>
            <ns3:hr>93</ns3:hr>
            <ns3:cad>0</ns3:cad>
          </ns3:TrackPointExtension>
        </extensions>
      </trkpt>
      <trkpt lat="37.99051922746002674102783203125" lon="-107.73839629255235195159912109375">
        <ele>3776</ele>
        <time>2026-08-15T17:37:59.000Z</time>
        <extensions>
          <ns3:TrackPointExtension>
            <ns3:hr>92</ns3:hr>
            <ns3:cad>0</ns3:cad>
          </ns3:TrackPointExtension>
        </extensions>
      </trkpt>
      <trkpt lat="37.99051922746002674102783203125" lon="-107.73839629255235195159912109375">
        <ele>3776</ele>
        <time>2026-08-15T17:38:05.000Z</time>
        <extensions>
          <ns3:TrackPointExtension>
            <ns3:hr>94</ns3:hr>
            <ns3:cad>0</ns3:cad>
          </ns3:TrackPointExtension>
        </extensions>
      </trkpt>
      <trkpt lat="37.99051922746002674102783203125" lon="-107.73839629255235195159912109375">
        <ele>3775.60009765625</ele>
        <time>2026-08-15T17:38:11.000Z</time>
        <extensions>
          <ns3:TrackPointExtension>
            <ns3:hr>97</ns3:hr>
            <ns3:cad>0</ns3:cad>
          </ns3:TrackPointExtension>
        </extensions>
      </trkpt>
      <trkpt lat="37.99051922746002674102783203125" lon="-107.73839629255235195159912109375">
        <ele>3775.60009765625</ele>
        <time>2026-08-15T17:38:15.000Z</time>
        <extensions>
          <ns3:TrackPointExtension>
            <ns3:hr>104</ns3:hr>
            <ns3:cad>0</ns3:cad>
          </ns3:TrackPointExtension>
        </extensions>
      </trkpt>
      <trkpt lat="37.99051922746002674102783203125" lon="-107.73839629255235195159912109375">
        <ele>3775.39990234375</ele>
        <time>2026-08-15T17:38:17.000Z</time>
        <extensions>
          <ns3:TrackPointExtension>
            <ns3:hr>107</ns3:hr>
            <ns3:cad>0</ns3:cad>
          </ns3:TrackPointExtension>
        </extensions>
      </trkpt>
      <trkpt lat="37.99051922746002674102783203125" lon="-107.73839629255235195159912109375">
        <ele>3775.60009765625</ele>
        <time>2026-08-15T17:38:23.000Z</time>
        <extensions>
          <ns3:TrackPointExtension>
            <ns3:hr>111</ns3:hr>
            <ns3:cad>0</ns3:cad>
          </ns3:TrackPointExtension>
        </extensions>
      </trkpt>
      <trkpt lat="37.99051922746002674102783203125" lon="-107.73839629255235195159912109375">
        <ele>3775.39990234375</ele>
        <time>2026-08-15T17:38:26.000Z</time>
        <extensions>
          <ns3:TrackPointExtension>
            <ns3:hr>106</ns3:hr>
            <ns3:cad>0</ns3:cad>
          </ns3:TrackPointExtension>
        </extensions>
      </trkpt>
      <trkpt lat="37.99051922746002674102783203125" lon="-107.73839629255235195159912109375">
        <ele>3775.39990234375</ele>
        <time>2026-08-15T17:38:27.000Z</time>
        <extensions>
          <ns3:TrackPointExtension>
            <ns3:hr>103</ns3:hr>
            <ns3:cad>0</ns3:cad>
          </ns3:TrackPointExtension>
        </extensions>
      </trkpt>
      <trkpt lat="37.99051922746002674102783203125" lon="-107.73839629255235195159912109375">
        <ele>3775.39990234375</ele>
        <time>2026-08-15T17:38:28.000Z</time>
        <extensions>
          <ns3:TrackPointExtension>
            <ns3:hr>100</ns3:hr>
            <ns3:cad>0</ns3:cad>
          </ns3:TrackPointExtension>
        </extensions>
      </trkpt>
      <trkpt lat="37.99051922746002674102783203125" lon="-107.73839629255235195159912109375">
        <ele>3775.60009765625</ele>
        <time>2026-08-15T17:38:29.000Z</time>
        <extensions>
          <ns3:TrackPointExtension>
            <ns3:hr>100</ns3:hr>
            <ns3:cad>0</ns3:cad>
          </ns3:TrackPointExtension>
        </extensions>
      </trkpt>
      <trkpt lat="37.99051922746002674102783203125" lon="-107.73839629255235195159912109375">
        <ele>3775.199951171875</ele>
        <time>2026-08-15T17:38:34.000Z</time>
        <extensions>
          <ns3:TrackPointExtension>
            <ns3:hr>97</ns3:hr>
            <ns3:cad>0</ns3:cad>
          </ns3:TrackPointExtension>
        </extensions>
      </trkpt>
      <trkpt lat="37.99051922746002674102783203125" lon="-107.73839629255235195159912109375">
        <ele>3775</ele>
        <time>2026-08-15T17:38:37.000Z</time>
        <extensions>
          <ns3:TrackPointExtension>
            <ns3:hr>96</ns3:hr>
            <ns3:cad>0</ns3:cad>
          </ns3:TrackPointExtension>
        </extensions>
      </trkpt>
      <trkpt lat="37.99051922746002674102783203125" lon="-107.73839629255235195159912109375">
        <ele>3775</ele>
        <time>2026-08-15T17:38:43.000Z</time>
        <extensions>
          <ns3:TrackPointExtension>
            <ns3:hr>95</ns3:hr>
            <ns3:cad>0</ns3:cad>
          </ns3:TrackPointExtension>
        </extensions>
      </trkpt>
      <trkpt lat="37.99051922746002674102783203125" lon="-107.73839629255235195159912109375">
        <ele>3775.199951171875</ele>
        <time>2026-08-15T17:38:45.000Z</time>
        <extensions>
          <ns3:TrackPointExtension>
            <ns3:hr>91</ns3:hr>
            <ns3:cad>0</ns3:cad>
          </ns3:TrackPointExtension>
        </extensions>
      </trkpt>
      <trkpt lat="37.99051922746002674102783203125" lon="-107.73839629255235195159912109375">
        <ele>3775.199951171875</ele>
        <time>2026-08-15T17:38:47.000Z</time>
        <extensions>
          <ns3:TrackPointExtension>
            <ns3:hr>86</ns3:hr>
            <ns3:cad>0</ns3:cad>
          </ns3:TrackPointExtension>
        </extensions>
      </trkpt>
      <trkpt lat="37.99051922746002674102783203125" lon="-107.73839629255235195159912109375">
        <ele>3775.199951171875</ele>
        <time>2026-08-15T17:38:48.000Z</time>
        <extensions>
          <ns3:TrackPointExtension>
            <ns3:hr>86</ns3:hr>
            <ns3:cad>0</ns3:cad>
          </ns3:TrackPointExtension>
        </extensions>
      </trkpt>
      <trkpt lat="37.99051922746002674102783203125" lon="-107.73839629255235195159912109375">
        <ele>3775</ele>
        <time>2026-08-15T17:38:53.000Z</time>
        <extensions>
          <ns3:TrackPointExtension>
            <ns3:hr>84</ns3:hr>
            <ns3:cad>0</ns3:cad>
          </ns3:TrackPointExtension>
        </extensions>
      </trkpt>
      <trkpt lat="37.99051922746002674102783203125" lon="-107.73839629255235195159912109375">
        <ele>3775</ele>
        <time>2026-08-15T17:38:59.000Z</time>
        <extensions>
          <ns3:TrackPointExtension>
            <ns3:hr>86</ns3:hr>
            <ns3:cad>0</ns3:cad>
          </ns3:TrackPointExtension>
        </extensions>
      </trkpt>
      <trkpt lat="37.99051922746002674102783203125" lon="-107.73839629255235195159912109375">
        <ele>3774.800048828125</ele>
        <time>2026-08-15T17:39:01.000Z</time>
        <extensions>
          <ns3:TrackPointExtension>
            <ns3:hr>85</ns3:hr>
            <ns3:cad>0</ns3:cad>
          </ns3:TrackPointExtension>
        </extensions>
      </trkpt>
      <trkpt lat="37.99051922746002674102783203125" lon="-107.73839629255235195159912109375">
        <ele>3775</ele>
        <time>2026-08-15T17:39:04.000Z</time>
        <extensions>
          <ns3:TrackPointExtension>
            <ns3:hr>83</ns3:hr>
            <ns3:cad>0</ns3:cad>
          </ns3:TrackPointExtension>
        </extensions>
      </trkpt>
      <trkpt lat="37.99051922746002674102783203125" lon="-107.73839629255235195159912109375">
        <ele>3775.199951171875</ele>
        <time>2026-08-15T17:39:09.000Z</time>
        <extensions>
          <ns3:TrackPointExtension>
            <ns3:hr>86</ns3:hr>
            <ns3:cad>0</ns3:cad>
          </ns3:TrackPointExtension>
        </extensions>
      </trkpt>
      <trkpt lat="37.99051922746002674102783203125" lon="-107.73839629255235195159912109375">
        <ele>3775.199951171875</ele>
        <time>2026-08-15T17:39:11.000Z</time>
        <extensions>
          <ns3:TrackPointExtension>
            <ns3:hr>89</ns3:hr>
            <ns3:cad>0</ns3:cad>
          </ns3:TrackPointExtension>
        </extensions>
      </trkpt>
      <trkpt lat="37.99051922746002674102783203125" lon="-107.73839629255235195159912109375">
        <ele>3775.39990234375</ele>
        <time>2026-08-15T17:39:15.000Z</time>
        <extensions>
          <ns3:TrackPointExtension>
            <ns3:hr>91</ns3:hr>
            <ns3:cad>0</ns3:cad>
          </ns3:TrackPointExtension>
        </extensions>
      </trkpt>
      <trkpt lat="37.99051922746002674102783203125" lon="-107.73839629255235195159912109375">
        <ele>3775</ele>
        <time>2026-08-15T17:39:21.000Z</time>
        <extensions>
          <ns3:TrackPointExtension>
            <ns3:hr>91</ns3:hr>
            <ns3:cad>0</ns3:cad>
          </ns3:TrackPointExtension>
        </extensions>
      </trkpt>
      <trkpt lat="37.99051922746002674102783203125" lon="-107.73839629255235195159912109375">
        <ele>3774.800048828125</ele>
        <time>2026-08-15T17:39:27.000Z</time>
        <extensions>
          <ns3:TrackPointExtension>
            <ns3:hr>90</ns3:hr>
            <ns3:cad>0</ns3:cad>
          </ns3:TrackPointExtension>
        </extensions>
      </trkpt>
      <trkpt lat="37.99051922746002674102783203125" lon="-107.73839629255235195159912109375">
        <ele>3775</ele>
        <time>2026-08-15T17:39:30.000Z</time>
        <extensions>
          <ns3:TrackPointExtension>
            <ns3:hr>90</ns3:hr>
            <ns3:cad>0</ns3:cad>
          </ns3:TrackPointExtension>
        </extensions>
      </trkpt>
      <trkpt lat="37.99051922746002674102783203125" lon="-107.73839629255235195159912109375">
        <ele>3775.39990234375</ele>
        <time>2026-08-15T17:39:35.000Z</time>
        <extensions>
          <ns3:TrackPointExtension>
            <ns3:hr>95</ns3:hr>
            <ns3:cad>0</ns3:cad>
          </ns3:TrackPointExtension>
        </extensions>
      </trkpt>
      <trkpt lat="37.9905266873538494110107421875" lon="-107.73839302361011505126953125">
        <ele>3775.800048828125</ele>
        <time>2026-08-15T17:39:37.000Z</time>
        <extensions>
          <ns3:TrackPointExtension>
            <ns3:hr>98</ns3:hr>
            <ns3:cad>0</ns3:cad>
          </ns3:TrackPointExtension>
        </extensions>
      </trkpt>
      <trkpt lat="37.9905270226299762725830078125" lon="-107.73839796893298625946044921875">
        <ele>3775.800048828125</ele>
        <time>2026-08-15T17:39:38.000Z</time>
        <extensions>
          <ns3:TrackPointExtension>
            <ns3:hr>99</ns3:hr>
            <ns3:cad>0</ns3:cad>
          </ns3:TrackPointExtension>
        </extensions>
      </trkpt>
      <trkpt lat="37.99051922746002674102783203125" lon="-107.73839629255235195159912109375">
        <ele>3775.800048828125</ele>
        <time>2026-08-15T17:39:42.000Z</time>
        <extensions>
          <ns3:TrackPointExtension>
            <ns3:hr>104</ns3:hr>
            <ns3:cad>0</ns3:cad>
          </ns3:TrackPointExtension>
        </extensions>
      </trkpt>
      <trkpt lat="37.99051922746002674102783203125" lon="-107.73839629255235195159912109375">
        <ele>3775.800048828125</ele>
        <time>2026-08-15T17:39:43.000Z</time>
        <extensions>
          <ns3:TrackPointExtension>
            <ns3:hr>105</ns3:hr>
            <ns3:cad>0</ns3:cad>
          </ns3:TrackPointExtension>
        </extensions>
      </trkpt>
      <trkpt lat="37.9905327223241329193115234375" lon="-107.738399393856525421142578125">
        <ele>3776</ele>
        <time>2026-08-15T17:39:49.000Z</time>
        <extensions>
          <ns3:TrackPointExtension>
            <ns3:hr>107</ns3:hr>
            <ns3:cad>0</ns3:cad>
          </ns3:TrackPointExtension>
        </extensions>
      </trkpt>
      <trkpt lat="37.9905199818313121795654296875" lon="-107.73839813657104969024658203125">
        <ele>3775.800048828125</ele>
        <time>2026-08-15T17:39:54.000Z</time>
        <extensions>
          <ns3:TrackPointExtension>
            <ns3:hr>108</ns3:hr>
            <ns3:cad>0</ns3:cad>
          </ns3:TrackPointExtension>
        </extensions>
      </trkpt>
      <trkpt lat="37.99051922746002674102783203125" lon="-107.73839629255235195159912109375">
        <ele>3775.800048828125</ele>
        <time>2026-08-15T17:39:59.000Z</time>
        <extensions>
          <ns3:TrackPointExtension>
            <ns3:hr>104</ns3:hr>
            <ns3:cad>0</ns3:cad>
          </ns3:TrackPointExtension>
        </extensions>
      </trkpt>
      <trkpt lat="37.99051922746002674102783203125" lon="-107.73839629255235195159912109375">
        <ele>3775.800048828125</ele>
        <time>2026-08-15T17:40:01.000Z</time>
        <extensions>
          <ns3:TrackPointExtension>
            <ns3:hr>100</ns3:hr>
            <ns3:cad>0</ns3:cad>
          </ns3:TrackPointExtension>
        </extensions>
      </trkpt>
      <trkpt lat="37.99051922746002674102783203125" lon="-107.73839629255235195159912109375">
        <ele>3775.800048828125</ele>
        <time>2026-08-15T17:40:04.000Z</time>
        <extensions>
          <ns3:TrackPointExtension>
            <ns3:hr>99</ns3:hr>
            <ns3:cad>0</ns3:cad>
          </ns3:TrackPointExtension>
        </extensions>
      </trkpt>
      <trkpt lat="37.99051922746002674102783203125" lon="-107.73839629255235195159912109375">
        <ele>3775.39990234375</ele>
        <time>2026-08-15T17:40:08.000Z</time>
        <extensions>
          <ns3:TrackPointExtension>
            <ns3:hr>103</ns3:hr>
            <ns3:cad>0</ns3:cad>
          </ns3:TrackPointExtension>
        </extensions>
      </trkpt>
      <trkpt lat="37.99051922746002674102783203125" lon="-107.73839629255235195159912109375">
        <ele>3775.39990234375</ele>
        <time>2026-08-15T17:40:09.000Z</time>
        <extensions>
          <ns3:TrackPointExtension>
            <ns3:hr>110</ns3:hr>
            <ns3:cad>0</ns3:cad>
          </ns3:TrackPointExtension>
        </extensions>
      </trkpt>
      <trkpt lat="37.99051922746002674102783203125" lon="-107.73839629255235195159912109375">
        <ele>3775.39990234375</ele>
        <time>2026-08-15T17:40:10.000Z</time>
        <extensions>
          <ns3:TrackPointExtension>
            <ns3:hr>110</ns3:hr>
            <ns3:cad>0</ns3:cad>
          </ns3:TrackPointExtension>
        </extensions>
      </trkpt>
      <trkpt lat="37.99053288996219635009765625" lon="-107.7383998967707157135009765625">
        <ele>3775.60009765625</ele>
        <time>2026-08-15T17:40:13.000Z</time>
        <extensions>
          <ns3:TrackPointExtension>
            <ns3:hr>109</ns3:hr>
            <ns3:cad>0</ns3:cad>
          </ns3:TrackPointExtension>
        </extensions>
      </trkpt>
      <trkpt lat="37.99051922746002674102783203125" lon="-107.73839629255235195159912109375">
        <ele>3774.800048828125</ele>
        <time>2026-08-15T17:40:19.000Z</time>
        <extensions>
          <ns3:TrackPointExtension>
            <ns3:hr>108</ns3:hr>
            <ns3:cad>0</ns3:cad>
          </ns3:TrackPointExtension>
        </extensions>
      </trkpt>
      <trkpt lat="37.99051922746002674102783203125" lon="-107.73839629255235195159912109375">
        <ele>3774.60009765625</ele>
        <time>2026-08-15T17:40:21.000Z</time>
        <extensions>
          <ns3:TrackPointExtension>
            <ns3:hr>108</ns3:hr>
            <ns3:cad>0</ns3:cad>
          </ns3:TrackPointExtension>
        </extensions>
      </trkpt>
      <trkpt lat="37.99051922746002674102783203125" lon="-107.73839629255235195159912109375">
        <ele>3775.199951171875</ele>
        <time>2026-08-15T17:40:27.000Z</time>
        <extensions>
          <ns3:TrackPointExtension>
            <ns3:hr>107</ns3:hr>
            <ns3:cad>0</ns3:cad>
          </ns3:TrackPointExtension>
        </extensions>
      </trkpt>
      <trkpt lat="37.99051922746002674102783203125" lon="-107.73839629255235195159912109375">
        <ele>3775.199951171875</ele>
        <time>2026-08-15T17:40:32.000Z</time>
        <extensions>
          <ns3:TrackPointExtension>
            <ns3:hr>107</ns3:hr>
            <ns3:cad>0</ns3:cad>
          </ns3:TrackPointExtension>
        </extensions>
      </trkpt>
      <trkpt lat="37.99051922746002674102783203125" lon="-107.73839629255235195159912109375">
        <ele>3774.800048828125</ele>
        <time>2026-08-15T17:40:38.000Z</time>
        <extensions>
          <ns3:TrackPointExtension>
            <ns3:hr>106</ns3:hr>
            <ns3:cad>0</ns3:cad>
          </ns3:TrackPointExtension>
        </extensions>
      </trkpt>
      <trkpt lat="37.99051922746002674102783203125" lon="-107.73839629255235195159912109375">
        <ele>3774.800048828125</ele>
        <time>2026-08-15T17:40:43.000Z</time>
        <extensions>
          <ns3:TrackPointExtension>
            <ns3:hr>112</ns3:hr>
            <ns3:cad>0</ns3:cad>
          </ns3:TrackPointExtension>
        </extensions>
      </trkpt>
      <trkpt lat="37.99051922746002674102783203125" lon="-107.73839629255235195159912109375">
        <ele>3774.60009765625</ele>
        <time>2026-08-15T17:40:46.000Z</time>
        <extensions>
          <ns3:TrackPointExtension>
            <ns3:hr>115</ns3:hr>
            <ns3:cad>0</ns3:cad>
          </ns3:TrackPointExtension>
        </extensions>
      </trkpt>
      <trkpt lat="37.99051922746002674102783203125" lon="-107.73839629255235195159912109375">
        <ele>3774.60009765625</ele>
        <time>2026-08-15T17:40:52.000Z</time>
        <extensions>
          <ns3:TrackPointExtension>
            <ns3:hr>115</ns3:hr>
            <ns3:cad>0</ns3:cad>
          </ns3:TrackPointExtension>
        </extensions>
      </trkpt>
      <trkpt lat="37.99051922746002674102783203125" lon="-107.73839629255235195159912109375">
        <ele>3774.800048828125</ele>
        <time>2026-08-15T17:40:58.000Z</time>
        <extensions>
          <ns3:TrackPointExtension>
            <ns3:hr>117</ns3:hr>
            <ns3:cad>0</ns3:cad>
          </ns3:TrackPointExtension>
        </extensions>
      </trkpt>
      <trkpt lat="37.99051922746002674102783203125" lon="-107.73839629255235195159912109375">
        <ele>3774.800048828125</ele>
        <time>2026-08-15T17:41:03.000Z</time>
        <extensions>
          <ns3:TrackPointExtension>
            <ns3:hr>116</ns3:hr>
            <ns3:cad>0</ns3:cad>
          </ns3:TrackPointExtension>
        </extensions>
      </trkpt>
      <trkpt lat="37.99051922746002674102783203125" lon="-107.73839629255235195159912109375">
        <ele>3775</ele>
        <time>2026-08-15T17:41:06.000Z</time>
        <extensions>
          <ns3:TrackPointExtension>
            <ns3:hr>113</ns3:hr>
            <ns3:cad>0</ns3:cad>
          </ns3:TrackPointExtension>
        </extensions>
      </trkpt>
      <trkpt lat="37.99051922746002674102783203125" lon="-107.73839629255235195159912109375">
        <ele>3774.800048828125</ele>
        <time>2026-08-15T17:41:09.000Z</time>
        <extensions>
          <ns3:TrackPointExtension>
            <ns3:hr>110</ns3:hr>
            <ns3:cad>0</ns3:cad>
          </ns3:TrackPointExtension>
        </extensions>
      </trkpt>
      <trkpt lat="37.99051922746002674102783203125" lon="-107.73839629255235195159912109375">
        <ele>3774.60009765625</ele>
        <time>2026-08-15T17:41:10.000Z</time>
        <extensions>
          <ns3:TrackPointExtension>
            <ns3:hr>107</ns3:hr>
            <ns3:cad>0</ns3:cad>
          </ns3:TrackPointExtension>
        </extensions>
      </trkpt>
      <trkpt lat="37.99051922746002674102783203125" lon="-107.73839629255235195159912109375">
        <ele>3774.39990234375</ele>
        <time>2026-08-15T17:41:12.000Z</time>
        <extensions>
          <ns3:TrackPointExtension>
            <ns3:hr>104</ns3:hr>
            <ns3:cad>0</ns3:cad>
          </ns3:TrackPointExtension>
        </extensions>
      </trkpt>
      <trkpt lat="37.99052492715418338775634765625" lon="-107.7384116314351558685302734375">
        <ele>3774.60009765625</ele>
        <time>2026-08-15T17:41:18.000Z</time>
        <extensions>
          <ns3:TrackPointExtension>
            <ns3:hr>108</ns3:hr>
            <ns3:cad>0</ns3:cad>
          </ns3:TrackPointExtension>
        </extensions>
      </trkpt>
      <trkpt lat="37.99052492715418338775634765625" lon="-107.7384116314351558685302734375">
        <ele>3774.60009765625</ele>
        <time>2026-08-15T17:41:19.000Z</time>
        <extensions>
          <ns3:TrackPointExtension>
            <ns3:hr>111</ns3:hr>
            <ns3:cad>0</ns3:cad>
          </ns3:TrackPointExtension>
        </extensions>
      </trkpt>
      <trkpt lat="37.99052492715418338775634765625" lon="-107.7384116314351558685302734375">
        <ele>3774.60009765625</ele>
        <time>2026-08-15T17:41:20.000Z</time>
        <extensions>
          <ns3:TrackPointExtension>
            <ns3:hr>112</ns3:hr>
            <ns3:cad>0</ns3:cad>
          </ns3:TrackPointExtension>
        </extensions>
      </trkpt>
      <trkpt lat="37.99052492715418338775634765625" lon="-107.7384116314351558685302734375">
        <ele>3774.800048828125</ele>
        <time>2026-08-15T17:41:25.000Z</time>
        <extensions>
          <ns3:TrackPointExtension>
            <ns3:hr>109</ns3:hr>
            <ns3:cad>0</ns3:cad>
          </ns3:TrackPointExtension>
        </extensions>
      </trkpt>
      <trkpt lat="37.99052492715418338775634765625" lon="-107.7384116314351558685302734375">
        <ele>3774.800048828125</ele>
        <time>2026-08-15T17:41:26.000Z</time>
        <extensions>
          <ns3:TrackPointExtension>
            <ns3:hr>103</ns3:hr>
            <ns3:cad>0</ns3:cad>
          </ns3:TrackPointExtension>
        </extensions>
      </trkpt>
      <trkpt lat="37.99052492715418338775634765625" lon="-107.7384116314351558685302734375">
        <ele>3775</ele>
        <time>2026-08-15T17:41:27.000Z</time>
        <extensions>
          <ns3:TrackPointExtension>
            <ns3:hr>98</ns3:hr>
            <ns3:cad>0</ns3:cad>
          </ns3:TrackPointExtension>
        </extensions>
      </trkpt>
      <trkpt lat="37.99052492715418338775634765625" lon="-107.7384116314351558685302734375">
        <ele>3774.800048828125</ele>
        <time>2026-08-15T17:41:33.000Z</time>
        <extensions>
          <ns3:TrackPointExtension>
            <ns3:hr>98</ns3:hr>
            <ns3:cad>0</ns3:cad>
          </ns3:TrackPointExtension>
        </extensions>
      </trkpt>
      <trkpt lat="37.99051185138523578643798828125" lon="-107.73840316571295261383056640625">
        <ele>3774.800048828125</ele>
        <time>2026-08-15T17:41:39.000Z</time>
        <extensions>
          <ns3:TrackPointExtension>
            <ns3:hr>100</ns3:hr>
            <ns3:cad>0</ns3:cad>
          </ns3:TrackPointExtension>
        </extensions>
      </trkpt>
      <trkpt lat="37.99048997461795806884765625" lon="-107.73839578963816165924072265625">
        <ele>3775.199951171875</ele>
        <time>2026-08-15T17:41:45.000Z</time>
        <extensions>
          <ns3:TrackPointExtension>
            <ns3:hr>101</ns3:hr>
            <ns3:cad>0</ns3:cad>
          </ns3:TrackPointExtension>
        </extensions>
      </trkpt>
      <trkpt lat="37.99049106426537036895751953125" lon="-107.73839428089559078216552734375">
        <ele>3775</ele>
        <time>2026-08-15T17:41:46.000Z</time>
        <extensions>
          <ns3:TrackPointExtension>
            <ns3:hr>101</ns3:hr>
            <ns3:cad>0</ns3:cad>
          </ns3:TrackPointExtension>
        </extensions>
      </trkpt>
      <trkpt lat="37.99048553220927715301513671875" lon="-107.73839361034333705902099609375">
        <ele>3775</ele>
        <time>2026-08-15T17:41:52.000Z</time>
        <extensions>
          <ns3:TrackPointExtension>
            <ns3:hr>100</ns3:hr>
            <ns3:cad>0</ns3:cad>
          </ns3:TrackPointExtension>
        </extensions>
      </trkpt>
      <trkpt lat="37.9904717020690441131591796875" lon="-107.73839059285819530487060546875">
        <ele>3774.60009765625</ele>
        <time>2026-08-15T17:41:55.000Z</time>
        <extensions>
          <ns3:TrackPointExtension>
            <ns3:hr>100</ns3:hr>
            <ns3:cad>41</ns3:cad>
          </ns3:TrackPointExtension>
        </extensions>
      </trkpt>
      <trkpt lat="37.99046994186937808990478515625" lon="-107.7383908443152904510498046875">
        <ele>3774</ele>
        <time>2026-08-15T17:42:01.000Z</time>
        <extensions>
          <ns3:TrackPointExtension>
            <ns3:hr>100</ns3:hr>
            <ns3:cad>0</ns3:cad>
          </ns3:TrackPointExtension>
        </extensions>
      </trkpt>
      <trkpt lat="37.99045778810977935791015625" lon="-107.738392353057861328125">
        <ele>3773.800048828125</ele>
        <time>2026-08-15T17:42:05.000Z</time>
        <extensions>
          <ns3:TrackPointExtension>
            <ns3:hr>101</ns3:hr>
            <ns3:cad>0</ns3:cad>
          </ns3:TrackPointExtension>
        </extensions>
      </trkpt>
      <trkpt lat="37.990449406206607818603515625" lon="-107.738389670848846435546875">
        <ele>3773.60009765625</ele>
        <time>2026-08-15T17:42:06.000Z</time>
        <extensions>
          <ns3:TrackPointExtension>
            <ns3:hr>101</ns3:hr>
            <ns3:cad>0</ns3:cad>
          </ns3:TrackPointExtension>
        </extensions>
      </trkpt>
      <trkpt lat="37.99042065627872943878173828125" lon="-107.73838439024984836578369140625">
        <ele>3772.800048828125</ele>
        <time>2026-08-15T17:42:10.000Z</time>
        <extensions>
          <ns3:TrackPointExtension>
            <ns3:hr>103</ns3:hr>
            <ns3:cad>0</ns3:cad>
          </ns3:TrackPointExtension>
        </extensions>
      </trkpt>
      <trkpt lat="37.99041948281228542327880859375" lon="-107.73838304914534091949462890625">
        <ele>3772.60009765625</ele>
        <time>2026-08-15T17:42:11.000Z</time>
        <extensions>
          <ns3:TrackPointExtension>
            <ns3:hr>103</ns3:hr>
            <ns3:cad>0</ns3:cad>
          </ns3:TrackPointExtension>
        </extensions>
      </trkpt>
      <trkpt lat="37.99039366655051708221435546875" lon="-107.73837156593799591064453125">
        <ele>3772.39990234375</ele>
        <time>2026-08-15T17:42:16.000Z</time>
        <extensions>
          <ns3:TrackPointExtension>
            <ns3:hr>96</ns3:hr>
            <ns3:cad>0</ns3:cad>
          </ns3:TrackPointExtension>
        </extensions>
      </trkpt>
      <trkpt lat="37.99038679338991641998291015625" lon="-107.73836762644350528717041015625">
        <ele>3771.39990234375</ele>
        <time>2026-08-15T17:42:20.000Z</time>
        <extensions>
          <ns3:TrackPointExtension>
            <ns3:hr>93</ns3:hr>
            <ns3:cad>0</ns3:cad>
          </ns3:TrackPointExtension>
        </extensions>
      </trkpt>
      <trkpt lat="37.99038142897188663482666015625" lon="-107.73837164975702762603759765625">
        <ele>3770.800048828125</ele>
        <time>2026-08-15T17:42:23.000Z</time>
        <extensions>
          <ns3:TrackPointExtension>
            <ns3:hr>96</ns3:hr>
            <ns3:cad>0</ns3:cad>
          </ns3:TrackPointExtension>
        </extensions>
      </trkpt>
      <trkpt lat="37.99037237651646137237548828125" lon="-107.73836754262447357177734375">
        <ele>3770.39990234375</ele>
        <time>2026-08-15T17:42:26.000Z</time>
        <extensions>
          <ns3:TrackPointExtension>
            <ns3:hr>97</ns3:hr>
            <ns3:cad>0</ns3:cad>
          </ns3:TrackPointExtension>
        </extensions>
      </trkpt>
      <trkpt lat="37.99037237651646137237548828125" lon="-107.73837299086153507232666015625">
        <ele>3770.39990234375</ele>
        <time>2026-08-15T17:42:28.000Z</time>
        <extensions>
          <ns3:TrackPointExtension>
            <ns3:hr>96</ns3:hr>
            <ns3:cad>0</ns3:cad>
          </ns3:TrackPointExtension>
        </extensions>
      </trkpt>
      <trkpt lat="37.99037539400160312652587890625" lon="-107.73834818042814731597900390625">
        <ele>3769.60009765625</ele>
        <time>2026-08-15T17:42:33.000Z</time>
        <extensions>
          <ns3:TrackPointExtension>
            <ns3:hr>96</ns3:hr>
            <ns3:cad>0</ns3:cad>
          </ns3:TrackPointExtension>
        </extensions>
      </trkpt>
      <trkpt lat="37.9903681017458438873291015625" lon="-107.738343738019466400146484375">
        <ele>3769.199951171875</ele>
        <time>2026-08-15T17:42:34.000Z</time>
        <extensions>
          <ns3:TrackPointExtension>
            <ns3:hr>95</ns3:hr>
            <ns3:cad>66</ns3:cad>
          </ns3:TrackPointExtension>
        </extensions>
      </trkpt>
      <trkpt lat="37.99033968709409236907958984375" lon="-107.7383472584187984466552734375">
        <ele>3768.39990234375</ele>
        <time>2026-08-15T17:42:39.000Z</time>
        <extensions>
          <ns3:TrackPointExtension>
            <ns3:hr>96</ns3:hr>
            <ns3:cad>0</ns3:cad>
          </ns3:TrackPointExtension>
        </extensions>
      </trkpt>
      <trkpt lat="37.9903328977525234222412109375" lon="-107.7383358590304851531982421875">
        <ele>3768</ele>
        <time>2026-08-15T17:42:45.000Z</time>
        <extensions>
          <ns3:TrackPointExtension>
            <ns3:hr>97</ns3:hr>
            <ns3:cad>0</ns3:cad>
          </ns3:TrackPointExtension>
        </extensions>
      </trkpt>
      <trkpt lat="37.99032711423933506011962890625" lon="-107.7383304946124553680419921875">
        <ele>3767.60009765625</ele>
        <time>2026-08-15T17:42:47.000Z</time>
        <extensions>
          <ns3:TrackPointExtension>
            <ns3:hr>95</ns3:hr>
            <ns3:cad>0</ns3:cad>
          </ns3:TrackPointExtension>
        </extensions>
      </trkpt>
      <trkpt lat="37.99031806178390979766845703125" lon="-107.7382979728281497955322265625">
        <ele>3767.39990234375</ele>
        <time>2026-08-15T17:42:53.000Z</time>
        <extensions>
          <ns3:TrackPointExtension>
            <ns3:hr>92</ns3:hr>
            <ns3:cad>0</ns3:cad>
          </ns3:TrackPointExtension>
        </extensions>
      </trkpt>
      <trkpt lat="37.99031336791813373565673828125" lon="-107.7382838912308216094970703125">
        <ele>3766.800048828125</ele>
        <time>2026-08-15T17:42:56.000Z</time>
        <extensions>
          <ns3:TrackPointExtension>
            <ns3:hr>92</ns3:hr>
            <ns3:cad>0</ns3:cad>
          </ns3:TrackPointExtension>
        </extensions>
      </trkpt>
      <trkpt lat="37.9903100989758968353271484375" lon="-107.73827626369893550872802734375">
        <ele>3766.39990234375</ele>
        <time>2026-08-15T17:42:59.000Z</time>
        <extensions>
          <ns3:TrackPointExtension>
            <ns3:hr>94</ns3:hr>
            <ns3:cad>0</ns3:cad>
          </ns3:TrackPointExtension>
        </extensions>
      </trkpt>
      <trkpt lat="37.99029693938791751861572265625" lon="-107.738278023898601531982421875">
        <ele>3765.800048828125</ele>
        <time>2026-08-15T17:43:04.000Z</time>
        <extensions>
          <ns3:TrackPointExtension>
            <ns3:hr>94</ns3:hr>
            <ns3:cad>0</ns3:cad>
          </ns3:TrackPointExtension>
        </extensions>
      </trkpt>
      <trkpt lat="37.9902948439121246337890625" lon="-107.73827634751796722412109375">
        <ele>3765.800048828125</ele>
        <time>2026-08-15T17:43:05.000Z</time>
        <extensions>
          <ns3:TrackPointExtension>
            <ns3:hr>95</ns3:hr>
            <ns3:cad>0</ns3:cad>
          </ns3:TrackPointExtension>
        </extensions>
      </trkpt>
      <trkpt lat="37.99028746783733367919921875" lon="-107.738272659480571746826171875">
        <ele>3765.39990234375</ele>
        <time>2026-08-15T17:43:11.000Z</time>
        <extensions>
          <ns3:TrackPointExtension>
            <ns3:hr>94</ns3:hr>
            <ns3:cad>0</ns3:cad>
          </ns3:TrackPointExtension>
        </extensions>
      </trkpt>
      <trkpt lat="37.99028704874217510223388671875" lon="-107.73827224038541316986083984375">
        <ele>3765.39990234375</ele>
        <time>2026-08-15T17:43:12.000Z</time>
        <extensions>
          <ns3:TrackPointExtension>
            <ns3:hr>94</ns3:hr>
            <ns3:cad>0</ns3:cad>
          </ns3:TrackPointExtension>
        </extensions>
      </trkpt>
      <trkpt lat="37.9902742244303226470947265625" lon="-107.7382644452154636383056640625">
        <ele>3764.800048828125</ele>
        <time>2026-08-15T17:43:17.000Z</time>
        <extensions>
          <ns3:TrackPointExtension>
            <ns3:hr>95</ns3:hr>
            <ns3:cad>0</ns3:cad>
          </ns3:TrackPointExtension>
        </extensions>
      </trkpt>
      <trkpt lat="37.99025670625269412994384765625" lon="-107.7382734976708889007568359375">
        <ele>3764.39990234375</ele>
        <time>2026-08-15T17:43:23.000Z</time>
        <extensions>
          <ns3:TrackPointExtension>
            <ns3:hr>96</ns3:hr>
            <ns3:cad>0</ns3:cad>
          </ns3:TrackPointExtension>
        </extensions>
      </trkpt>
      <trkpt lat="37.99025251530110836029052734375" lon="-107.7382741682231426239013671875">
        <ele>3764.39990234375</ele>
        <time>2026-08-15T17:43:24.000Z</time>
        <extensions>
          <ns3:TrackPointExtension>
            <ns3:hr>97</ns3:hr>
            <ns3:cad>0</ns3:cad>
          </ns3:TrackPointExtension>
        </extensions>
      </trkpt>
      <trkpt lat="37.99024430103600025177001953125" lon="-107.7382684685289859771728515625">
        <ele>3764.39990234375</ele>
        <time>2026-08-15T17:43:30.000Z</time>
        <extensions>
          <ns3:TrackPointExtension>
            <ns3:hr>97</ns3:hr>
            <ns3:cad>0</ns3:cad>
          </ns3:TrackPointExtension>
        </extensions>
      </trkpt>
      <trkpt lat="37.99024279229342937469482421875" lon="-107.73826452903449535369873046875">
        <ele>3764.39990234375</ele>
        <time>2026-08-15T17:43:31.000Z</time>
        <extensions>
          <ns3:TrackPointExtension>
            <ns3:hr>96</ns3:hr>
            <ns3:cad>0</ns3:cad>
          </ns3:TrackPointExtension>
        </extensions>
      </trkpt>
      <trkpt lat="37.990232147276401519775390625" lon="-107.7382523752748966217041015625">
        <ele>3763.800048828125</ele>
        <time>2026-08-15T17:43:36.000Z</time>
        <extensions>
          <ns3:TrackPointExtension>
            <ns3:hr>96</ns3:hr>
            <ns3:cad>68</ns3:cad>
          </ns3:TrackPointExtension>
        </extensions>
      </trkpt>
      <trkpt lat="37.99022837541997432708740234375" lon="-107.7382523752748966217041015625">
        <ele>3763.39990234375</ele>
        <time>2026-08-15T17:43:39.000Z</time>
        <extensions>
          <ns3:TrackPointExtension>
            <ns3:hr>98</ns3:hr>
            <ns3:cad>0</ns3:cad>
          </ns3:TrackPointExtension>
        </extensions>
      </trkpt>
      <trkpt lat="37.9902316443622112274169921875" lon="-107.7382500283420085906982421875">
        <ele>3763.60009765625</ele>
        <time>2026-08-15T17:43:44.000Z</time>
        <extensions>
          <ns3:TrackPointExtension>
            <ns3:hr>101</ns3:hr>
            <ns3:cad>0</ns3:cad>
          </ns3:TrackPointExtension>
        </extensions>
      </trkpt>
      <trkpt lat="37.990226782858371734619140625" lon="-107.738245837390422821044921875">
        <ele>3763.60009765625</ele>
        <time>2026-08-15T17:43:45.000Z</time>
        <extensions>
          <ns3:TrackPointExtension>
            <ns3:hr>101</ns3:hr>
            <ns3:cad>0</ns3:cad>
          </ns3:TrackPointExtension>
        </extensions>
      </trkpt>
      <trkpt lat="37.9902051575481891632080078125" lon="-107.73822396062314510345458984375">
        <ele>3762.60009765625</ele>
        <time>2026-08-15T17:43:49.000Z</time>
        <extensions>
          <ns3:TrackPointExtension>
            <ns3:hr>102</ns3:hr>
            <ns3:cad>0</ns3:cad>
          </ns3:TrackPointExtension>
        </extensions>
      </trkpt>
      <trkpt lat="37.99019669182598590850830078125" lon="-107.73819915018975734710693359375">
        <ele>3762.39990234375</ele>
        <time>2026-08-15T17:43:55.000Z</time>
        <extensions>
          <ns3:TrackPointExtension>
            <ns3:hr>101</ns3:hr>
            <ns3:cad>0</ns3:cad>
          </ns3:TrackPointExtension>
        </extensions>
      </trkpt>
      <trkpt lat="37.99017925746738910675048828125" lon="-107.7381898462772369384765625">
        <ele>3762.60009765625</ele>
        <time>2026-08-15T17:43:57.000Z</time>
        <extensions>
          <ns3:TrackPointExtension>
            <ns3:hr>97</ns3:hr>
            <ns3:cad>0</ns3:cad>
          </ns3:TrackPointExtension>
        </extensions>
      </trkpt>
      <trkpt lat="37.9901612363755702972412109375" lon="-107.73817576467990875244140625">
        <ele>3762.800048828125</ele>
        <time>2026-08-15T17:44:01.000Z</time>
        <extensions>
          <ns3:TrackPointExtension>
            <ns3:hr>97</ns3:hr>
            <ns3:cad>0</ns3:cad>
          </ns3:TrackPointExtension>
        </extensions>
      </trkpt>
      <trkpt lat="37.99014665186405181884765625" lon="-107.73815958760678768157958984375">
        <ele>3762.800048828125</ele>
        <time>2026-08-15T17:44:07.000Z</time>
        <extensions>
          <ns3:TrackPointExtension>
            <ns3:hr>98</ns3:hr>
            <ns3:cad>0</ns3:cad>
          </ns3:TrackPointExtension>
        </extensions>
      </trkpt>
      <trkpt lat="37.99014472402632236480712890625" lon="-107.7381501160562038421630859375">
        <ele>3762.60009765625</ele>
        <time>2026-08-15T17:44:09.000Z</time>
        <extensions>
          <ns3:TrackPointExtension>
            <ns3:hr>97</ns3:hr>
            <ns3:cad>0</ns3:cad>
          </ns3:TrackPointExtension>
        </extensions>
      </trkpt>
      <trkpt lat="37.99014438875019550323486328125" lon="-107.7381169237196445465087890625">
        <ele>3762</ele>
        <time>2026-08-15T17:44:14.000Z</time>
        <extensions>
          <ns3:TrackPointExtension>
            <ns3:hr>94</ns3:hr>
            <ns3:cad>0</ns3:cad>
          </ns3:TrackPointExtension>
        </extensions>
      </trkpt>
      <trkpt lat="37.990128211677074432373046875" lon="-107.738091945648193359375">
        <ele>3761.39990234375</ele>
        <time>2026-08-15T17:44:19.000Z</time>
        <extensions>
          <ns3:TrackPointExtension>
            <ns3:hr>94</ns3:hr>
            <ns3:cad>0</ns3:cad>
          </ns3:TrackPointExtension>
        </extensions>
      </trkpt>
      <trkpt lat="37.99012477509677410125732421875" lon="-107.73809052072465419769287109375">
        <ele>3761.39990234375</ele>
        <time>2026-08-15T17:44:20.000Z</time>
        <extensions>
          <ns3:TrackPointExtension>
            <ns3:hr>93</ns3:hr>
            <ns3:cad>0</ns3:cad>
          </ns3:TrackPointExtension>
        </extensions>
      </trkpt>
      <trkpt lat="37.99012443982064723968505859375" lon="-107.73808431811630725860595703125">
        <ele>3761.39990234375</ele>
        <time>2026-08-15T17:44:26.000Z</time>
        <extensions>
          <ns3:TrackPointExtension>
            <ns3:hr>93</ns3:hr>
            <ns3:cad>57</ns3:cad>
          </ns3:TrackPointExtension>
        </extensions>
      </trkpt>
      <trkpt lat="37.9901240207254886627197265625" lon="-107.73807006888091564178466796875">
        <ele>3761</ele>
        <time>2026-08-15T17:44:28.000Z</time>
        <extensions>
          <ns3:TrackPointExtension>
            <ns3:hr>93</ns3:hr>
            <ns3:cad>0</ns3:cad>
          </ns3:TrackPointExtension>
        </extensions>
      </trkpt>
      <trkpt lat="37.990122847259044647216796875" lon="-107.73805179633200168609619140625">
        <ele>3760.39990234375</ele>
        <time>2026-08-15T17:44:30.000Z</time>
        <extensions>
          <ns3:TrackPointExtension>
            <ns3:hr>92</ns3:hr>
            <ns3:cad>0</ns3:cad>
          </ns3:TrackPointExtension>
        </extensions>
      </trkpt>
      <trkpt lat="37.99013055860996246337890625" lon="-107.73803989402949810028076171875">
        <ele>3759.60009765625</ele>
        <time>2026-08-15T17:44:33.000Z</time>
        <extensions>
          <ns3:TrackPointExtension>
            <ns3:hr>92</ns3:hr>
            <ns3:cad>0</ns3:cad>
          </ns3:TrackPointExtension>
        </extensions>
      </trkpt>
      <trkpt lat="37.99013030715286731719970703125" lon="-107.738037295639514923095703125">
        <ele>3759.39990234375</ele>
        <time>2026-08-15T17:44:34.000Z</time>
        <extensions>
          <ns3:TrackPointExtension>
            <ns3:hr>92</ns3:hr>
            <ns3:cad>0</ns3:cad>
          </ns3:TrackPointExtension>
        </extensions>
      </trkpt>
      <trkpt lat="37.9901216737926006317138671875" lon="-107.7380176819860935211181640625">
        <ele>3758.60009765625</ele>
        <time>2026-08-15T17:44:38.000Z</time>
        <extensions>
          <ns3:TrackPointExtension>
            <ns3:hr>93</ns3:hr>
            <ns3:cad>0</ns3:cad>
          </ns3:TrackPointExtension>
        </extensions>
      </trkpt>
      <trkpt lat="37.99013298936188220977783203125" lon="-107.738016508519649505615234375">
        <ele>3758.199951171875</ele>
        <time>2026-08-15T17:44:41.000Z</time>
        <extensions>
          <ns3:TrackPointExtension>
            <ns3:hr>93</ns3:hr>
            <ns3:cad>0</ns3:cad>
          </ns3:TrackPointExtension>
        </extensions>
      </trkpt>
      <trkpt lat="37.99015226773917675018310546875" lon="-107.7380093000829219818115234375">
        <ele>3757.800048828125</ele>
        <time>2026-08-15T17:44:43.000Z</time>
        <extensions>
          <ns3:TrackPointExtension>
            <ns3:hr>92</ns3:hr>
            <ns3:cad>0</ns3:cad>
          </ns3:TrackPointExtension>
        </extensions>
      </trkpt>
      <trkpt lat="37.9901568777859210968017578125" lon="-107.7380046062171459197998046875">
        <ele>3757</ele>
        <time>2026-08-15T17:44:46.000Z</time>
        <extensions>
          <ns3:TrackPointExtension>
            <ns3:hr>90</ns3:hr>
            <ns3:cad>0</ns3:cad>
          </ns3:TrackPointExtension>
        </extensions>
      </trkpt>
      <trkpt lat="37.99016886390745639801025390625" lon="-107.73799798451364040374755859375">
        <ele>3756.800048828125</ele>
        <time>2026-08-15T17:44:48.000Z</time>
        <extensions>
          <ns3:TrackPointExtension>
            <ns3:hr>92</ns3:hr>
            <ns3:cad>0</ns3:cad>
          </ns3:TrackPointExtension>
        </extensions>
      </trkpt>
      <trkpt lat="37.99017137847840785980224609375" lon="-107.7379744313657283782958984375">
        <ele>3756.39990234375</ele>
        <time>2026-08-15T17:44:50.000Z</time>
        <extensions>
          <ns3:TrackPointExtension>
            <ns3:hr>95</ns3:hr>
            <ns3:cad>0</ns3:cad>
          </ns3:TrackPointExtension>
        </extensions>
      </trkpt>
      <trkpt lat="37.9901726357638835906982421875" lon="-107.73794920183718204498291015625">
        <ele>3756</ele>
        <time>2026-08-15T17:44:53.000Z</time>
        <extensions>
          <ns3:TrackPointExtension>
            <ns3:hr>95</ns3:hr>
            <ns3:cad>0</ns3:cad>
          </ns3:TrackPointExtension>
        </extensions>
      </trkpt>
      <trkpt lat="37.990167103707790374755859375" lon="-107.73794232867658138275146484375">
        <ele>3755.800048828125</ele>
        <time>2026-08-15T17:44:54.000Z</time>
        <extensions>
          <ns3:TrackPointExtension>
            <ns3:hr>94</ns3:hr>
            <ns3:cad>0</ns3:cad>
          </ns3:TrackPointExtension>
        </extensions>
      </trkpt>
      <trkpt lat="37.990161739289760589599609375" lon="-107.73792154155671596527099609375">
        <ele>3754.800048828125</ele>
        <time>2026-08-15T17:44:58.000Z</time>
        <extensions>
          <ns3:TrackPointExtension>
            <ns3:hr>94</ns3:hr>
            <ns3:cad>0</ns3:cad>
          </ns3:TrackPointExtension>
        </extensions>
      </trkpt>
      <trkpt lat="37.9901634156703948974609375" lon="-107.73791399784386157989501953125">
        <ele>3754.60009765625</ele>
        <time>2026-08-15T17:44:59.000Z</time>
        <extensions>
          <ns3:TrackPointExtension>
            <ns3:hr>93</ns3:hr>
            <ns3:cad>0</ns3:cad>
          </ns3:TrackPointExtension>
        </extensions>
      </trkpt>
      <trkpt lat="37.9901632480323314666748046875" lon="-107.7378862537443637847900390625">
        <ele>3753.60009765625</ele>
        <time>2026-08-15T17:45:03.000Z</time>
        <extensions>
          <ns3:TrackPointExtension>
            <ns3:hr>94</ns3:hr>
            <ns3:cad>71</ns3:cad>
          </ns3:TrackPointExtension>
        </extensions>
      </trkpt>
      <trkpt lat="37.99015494994819164276123046875" lon="-107.73788013495504856109619140625">
        <ele>3753.39990234375</ele>
        <time>2026-08-15T17:45:05.000Z</time>
        <extensions>
          <ns3:TrackPointExtension>
            <ns3:hr>95</ns3:hr>
            <ns3:cad>71</ns3:cad>
          </ns3:TrackPointExtension>
        </extensions>
      </trkpt>
      <trkpt lat="37.990145646035671234130859375" lon="-107.73786102421581745147705078125">
        <ele>3753.199951171875</ele>
        <time>2026-08-15T17:45:11.000Z</time>
        <extensions>
          <ns3:TrackPointExtension>
            <ns3:hr>97</ns3:hr>
            <ns3:cad>0</ns3:cad>
          </ns3:TrackPointExtension>
        </extensions>
      </trkpt>
      <trkpt lat="37.9901421256363391876220703125" lon="-107.737858928740024566650390625">
        <ele>3753.199951171875</ele>
        <time>2026-08-15T17:45:12.000Z</time>
        <extensions>
          <ns3:TrackPointExtension>
            <ns3:hr>97</ns3:hr>
            <ns3:cad>0</ns3:cad>
          </ns3:TrackPointExtension>
        </extensions>
      </trkpt>
      <trkpt lat="37.99012158997356891632080078125" lon="-107.73785431869328022003173828125">
        <ele>3753</ele>
        <time>2026-08-15T17:45:14.000Z</time>
        <extensions>
          <ns3:TrackPointExtension>
            <ns3:hr>101</ns3:hr>
            <ns3:cad>0</ns3:cad>
          </ns3:TrackPointExtension>
        </extensions>
      </trkpt>
      <trkpt lat="37.99010734073817729949951171875" lon="-107.7378557436168193817138671875">
        <ele>3752.60009765625</ele>
        <time>2026-08-15T17:45:16.000Z</time>
        <extensions>
          <ns3:TrackPointExtension>
            <ns3:hr>105</ns3:hr>
            <ns3:cad>0</ns3:cad>
          </ns3:TrackPointExtension>
        </extensions>
      </trkpt>
      <trkpt lat="37.99009510315954685211181640625" lon="-107.73785817436873912811279296875">
        <ele>3752.199951171875</ele>
        <time>2026-08-15T17:45:18.000Z</time>
        <extensions>
          <ns3:TrackPointExtension>
            <ns3:hr>107</ns3:hr>
            <ns3:cad>0</ns3:cad>
          </ns3:TrackPointExtension>
        </extensions>
      </trkpt>
      <trkpt lat="37.99009560607373714447021484375" lon="-107.7378621138632297515869140625">
        <ele>3751.60009765625</ele>
        <time>2026-08-15T17:45:21.000Z</time>
        <extensions>
          <ns3:TrackPointExtension>
            <ns3:hr>109</ns3:hr>
            <ns3:cad>0</ns3:cad>
          </ns3:TrackPointExtension>
        </extensions>
      </trkpt>
      <trkpt lat="37.990094684064388275146484375" lon="-107.7378621138632297515869140625">
        <ele>3751.60009765625</ele>
        <time>2026-08-15T17:45:22.000Z</time>
        <extensions>
          <ns3:TrackPointExtension>
            <ns3:hr>109</ns3:hr>
            <ns3:cad>0</ns3:cad>
          </ns3:TrackPointExtension>
        </extensions>
      </trkpt>
      <trkpt lat="37.99009862355887889862060546875" lon="-107.73786186240613460540771484375">
        <ele>3752</ele>
        <time>2026-08-15T17:45:28.000Z</time>
        <extensions>
          <ns3:TrackPointExtension>
            <ns3:hr>107</ns3:hr>
            <ns3:cad>0</ns3:cad>
          </ns3:TrackPointExtension>
        </extensions>
      </trkpt>
      <trkpt lat="37.99009703099727630615234375" lon="-107.7378580905497074127197265625">
        <ele>3751.800048828125</ele>
        <time>2026-08-15T17:45:30.000Z</time>
        <extensions>
          <ns3:TrackPointExtension>
            <ns3:hr>107</ns3:hr>
            <ns3:cad>0</ns3:cad>
          </ns3:TrackPointExtension>
        </extensions>
      </trkpt>
      <trkpt lat="37.990081943571567535400390625" lon="-107.737841494381427764892578125">
        <ele>3751</ele>
        <time>2026-08-15T17:45:36.000Z</time>
        <extensions>
          <ns3:TrackPointExtension>
            <ns3:hr>105</ns3:hr>
            <ns3:cad>0</ns3:cad>
          </ns3:TrackPointExtension>
        </extensions>
      </trkpt>
      <trkpt lat="37.99007917754352092742919921875" lon="-107.73784794844686985015869140625">
        <ele>3750.39990234375</ele>
        <time>2026-08-15T17:45:38.000Z</time>
        <extensions>
          <ns3:TrackPointExtension>
            <ns3:hr>105</ns3:hr>
            <ns3:cad>0</ns3:cad>
          </ns3:TrackPointExtension>
        </extensions>
      </trkpt>
      <trkpt lat="37.99006073735654354095458984375" lon="-107.73784694261848926544189453125">
        <ele>3750</ele>
        <time>2026-08-15T17:45:42.000Z</time>
        <extensions>
          <ns3:TrackPointExtension>
            <ns3:hr>105</ns3:hr>
            <ns3:cad>0</ns3:cad>
          </ns3:TrackPointExtension>
        </extensions>
      </trkpt>
      <trkpt lat="37.990051768720149993896484375" lon="-107.73783353157341480255126953125">
        <ele>3749.39990234375</ele>
        <time>2026-08-15T17:45:48.000Z</time>
        <extensions>
          <ns3:TrackPointExtension>
            <ns3:hr>105</ns3:hr>
            <ns3:cad>0</ns3:cad>
          </ns3:TrackPointExtension>
        </extensions>
      </trkpt>
      <trkpt lat="37.9900480806827545166015625" lon="-107.7378275804221630096435546875">
        <ele>3749.39990234375</ele>
        <time>2026-08-15T17:45:49.000Z</time>
        <extensions>
          <ns3:TrackPointExtension>
            <ns3:hr>104</ns3:hr>
            <ns3:cad>0</ns3:cad>
          </ns3:TrackPointExtension>
        </extensions>
      </trkpt>
      <trkpt lat="37.990036346018314361572265625" lon="-107.7378238923847675323486328125">
        <ele>3749.199951171875</ele>
        <time>2026-08-15T17:45:52.000Z</time>
        <extensions>
          <ns3:TrackPointExtension>
            <ns3:hr>100</ns3:hr>
            <ns3:cad>0</ns3:cad>
          </ns3:TrackPointExtension>
        </extensions>
      </trkpt>
      <trkpt lat="37.9900361783802509307861328125" lon="-107.737823389470577239990234375">
        <ele>3749</ele>
        <time>2026-08-15T17:45:54.000Z</time>
        <extensions>
          <ns3:TrackPointExtension>
            <ns3:hr>98</ns3:hr>
            <ns3:cad>0</ns3:cad>
          </ns3:TrackPointExtension>
        </extensions>
      </trkpt>
      <trkpt lat="37.99001698382198810577392578125" lon="-107.73783646523952484130859375">
        <ele>3748.39990234375</ele>
        <time>2026-08-15T17:46:00.000Z</time>
        <extensions>
          <ns3:TrackPointExtension>
            <ns3:hr>96</ns3:hr>
            <ns3:cad>0</ns3:cad>
          </ns3:TrackPointExtension>
        </extensions>
      </trkpt>
      <trkpt lat="37.99001388251781463623046875" lon="-107.7378356270492076873779296875">
        <ele>3748</ele>
        <time>2026-08-15T17:46:01.000Z</time>
        <extensions>
          <ns3:TrackPointExtension>
            <ns3:hr>96</ns3:hr>
            <ns3:cad>0</ns3:cad>
          </ns3:TrackPointExtension>
        </extensions>
      </trkpt>
      <trkpt lat="37.99000122584402561187744140625" lon="-107.73781458847224712371826171875">
        <ele>3747.60009765625</ele>
        <time>2026-08-15T17:46:07.000Z</time>
        <extensions>
          <ns3:TrackPointExtension>
            <ns3:hr>94</ns3:hr>
            <ns3:cad>0</ns3:cad>
          </ns3:TrackPointExtension>
        </extensions>
      </trkpt>
      <trkpt lat="37.98998161219060420989990234375" lon="-107.73780855350196361541748046875">
        <ele>3747</ele>
        <time>2026-08-15T17:46:10.000Z</time>
        <extensions>
          <ns3:TrackPointExtension>
            <ns3:hr>93</ns3:hr>
            <ns3:cad>0</ns3:cad>
          </ns3:TrackPointExtension>
        </extensions>
      </trkpt>
      <trkpt lat="37.98996250145137310028076171875" lon="-107.73780687712132930755615234375">
        <ele>3747</ele>
        <time>2026-08-15T17:46:13.000Z</time>
        <extensions>
          <ns3:TrackPointExtension>
            <ns3:hr>91</ns3:hr>
            <ns3:cad>0</ns3:cad>
          </ns3:TrackPointExtension>
        </extensions>
      </trkpt>
      <trkpt lat="37.989939115941524505615234375" lon="-107.7377873472869396209716796875">
        <ele>3747.199951171875</ele>
        <time>2026-08-15T17:46:19.000Z</time>
        <extensions>
          <ns3:TrackPointExtension>
            <ns3:hr>90</ns3:hr>
            <ns3:cad>0</ns3:cad>
          </ns3:TrackPointExtension>
        </extensions>
      </trkpt>
      <trkpt lat="37.9899352602660655975341796875" lon="-107.73778458125889301300048828125">
        <ele>3747.199951171875</ele>
        <time>2026-08-15T17:46:20.000Z</time>
        <extensions>
          <ns3:TrackPointExtension>
            <ns3:hr>89</ns3:hr>
            <ns3:cad>0</ns3:cad>
          </ns3:TrackPointExtension>
        </extensions>
      </trkpt>
      <trkpt lat="37.98992780037224292755126953125" lon="-107.73777008056640625">
        <ele>3747.39990234375</ele>
        <time>2026-08-15T17:46:25.000Z</time>
        <extensions>
          <ns3:TrackPointExtension>
            <ns3:hr>86</ns3:hr>
            <ns3:cad>71</ns3:cad>
          </ns3:TrackPointExtension>
        </extensions>
      </trkpt>
      <trkpt lat="37.98992729745805263519287109375" lon="-107.73776915855705738067626953125">
        <ele>3747.199951171875</ele>
        <time>2026-08-15T17:46:26.000Z</time>
        <extensions>
          <ns3:TrackPointExtension>
            <ns3:hr>86</ns3:hr>
            <ns3:cad>0</ns3:cad>
          </ns3:TrackPointExtension>
        </extensions>
      </trkpt>
      <trkpt lat="37.98993400298058986663818359375" lon="-107.7377699129283428192138671875">
        <ele>3747</ele>
        <time>2026-08-15T17:46:29.000Z</time>
        <extensions>
          <ns3:TrackPointExtension>
            <ns3:hr>89</ns3:hr>
            <ns3:cad>0</ns3:cad>
          </ns3:TrackPointExtension>
        </extensions>
      </trkpt>
      <trkpt lat="37.989939115941524505615234375" lon="-107.73777016438543796539306640625">
        <ele>3746.60009765625</ele>
        <time>2026-08-15T17:46:33.000Z</time>
        <extensions>
          <ns3:TrackPointExtension>
            <ns3:hr>92</ns3:hr>
            <ns3:cad>0</ns3:cad>
          </ns3:TrackPointExtension>
        </extensions>
      </trkpt>
      <trkpt lat="37.989943139255046844482421875" lon="-107.7377541549503803253173828125">
        <ele>3746.199951171875</ele>
        <time>2026-08-15T17:46:39.000Z</time>
        <extensions>
          <ns3:TrackPointExtension>
            <ns3:hr>94</ns3:hr>
            <ns3:cad>0</ns3:cad>
          </ns3:TrackPointExtension>
        </extensions>
      </trkpt>
      <trkpt lat="37.9899406246840953826904296875" lon="-107.7377474494278430938720703125">
        <ele>3745.800048828125</ele>
        <time>2026-08-15T17:46:41.000Z</time>
        <extensions>
          <ns3:TrackPointExtension>
            <ns3:hr>93</ns3:hr>
            <ns3:cad>0</ns3:cad>
          </ns3:TrackPointExtension>
        </extensions>
      </trkpt>
      <trkpt lat="37.98994104377925395965576171875" lon="-107.73776060901582241058349609375">
        <ele>3744.800048828125</ele>
        <time>2026-08-15T17:46:45.000Z</time>
        <extensions>
          <ns3:TrackPointExtension>
            <ns3:hr>94</ns3:hr>
            <ns3:cad>0</ns3:cad>
          </ns3:TrackPointExtension>
        </extensions>
      </trkpt>
      <trkpt lat="37.98994104377925395965576171875" lon="-107.73776060901582241058349609375">
        <ele>3744.60009765625</ele>
        <time>2026-08-15T17:46:48.000Z</time>
        <extensions>
          <ns3:TrackPointExtension>
            <ns3:hr>93</ns3:hr>
            <ns3:cad>0</ns3:cad>
          </ns3:TrackPointExtension>
        </extensions>
      </trkpt>
      <trkpt lat="37.98994104377925395965576171875" lon="-107.73776060901582241058349609375">
        <ele>3744.60009765625</ele>
        <time>2026-08-15T17:46:53.000Z</time>
        <extensions>
          <ns3:TrackPointExtension>
            <ns3:hr>88</ns3:hr>
            <ns3:cad>0</ns3:cad>
          </ns3:TrackPointExtension>
        </extensions>
      </trkpt>
      <trkpt lat="37.98994054086506366729736328125" lon="-107.73774518631398677825927734375">
        <ele>3745</ele>
        <time>2026-08-15T17:46:55.000Z</time>
        <extensions>
          <ns3:TrackPointExtension>
            <ns3:hr>91</ns3:hr>
            <ns3:cad>0</ns3:cad>
          </ns3:TrackPointExtension>
        </extensions>
      </trkpt>
      <trkpt lat="37.989933080971240997314453125" lon="-107.7377367205917835235595703125">
        <ele>3745.60009765625</ele>
        <time>2026-08-15T17:46:57.000Z</time>
        <extensions>
          <ns3:TrackPointExtension>
            <ns3:hr>94</ns3:hr>
            <ns3:cad>0</ns3:cad>
          </ns3:TrackPointExtension>
        </extensions>
      </trkpt>
      <trkpt lat="37.9899386130273342132568359375" lon="-107.73773328401148319244384765625">
        <ele>3745.60009765625</ele>
        <time>2026-08-15T17:46:59.000Z</time>
        <extensions>
          <ns3:TrackPointExtension>
            <ns3:hr>100</ns3:hr>
            <ns3:cad>0</ns3:cad>
          </ns3:TrackPointExtension>
        </extensions>
      </trkpt>
      <trkpt lat="37.98993970267474651336669921875" lon="-107.73772892542183399200439453125">
        <ele>3745.60009765625</ele>
        <time>2026-08-15T17:47:00.000Z</time>
        <extensions>
          <ns3:TrackPointExtension>
            <ns3:hr>103</ns3:hr>
            <ns3:cad>0</ns3:cad>
          </ns3:TrackPointExtension>
        </extensions>
      </trkpt>
      <trkpt lat="37.98994012176990509033203125" lon="-107.73772439919412136077880859375">
        <ele>3745.39990234375</ele>
        <time>2026-08-15T17:47:01.000Z</time>
        <extensions>
          <ns3:TrackPointExtension>
            <ns3:hr>103</ns3:hr>
            <ns3:cad>0</ns3:cad>
          </ns3:TrackPointExtension>
        </extensions>
      </trkpt>
      <trkpt lat="37.9899439774453639984130859375" lon="-107.7377182804048061370849609375">
        <ele>3745</ele>
        <time>2026-08-15T17:47:03.000Z</time>
        <extensions>
          <ns3:TrackPointExtension>
            <ns3:hr>103</ns3:hr>
            <ns3:cad>0</ns3:cad>
          </ns3:TrackPointExtension>
        </extensions>
      </trkpt>
      <trkpt lat="37.98995462246239185333251953125" lon="-107.73769992403686046600341796875">
        <ele>3743.60009765625</ele>
        <time>2026-08-15T17:47:07.000Z</time>
        <extensions>
          <ns3:TrackPointExtension>
            <ns3:hr>101</ns3:hr>
            <ns3:cad>0</ns3:cad>
          </ns3:TrackPointExtension>
        </extensions>
      </trkpt>
      <trkpt lat="37.98995428718626499176025390625" lon="-107.73769539780914783477783203125">
        <ele>3743.199951171875</ele>
        <time>2026-08-15T17:47:09.000Z</time>
        <extensions>
          <ns3:TrackPointExtension>
            <ns3:hr>101</ns3:hr>
            <ns3:cad>0</ns3:cad>
          </ns3:TrackPointExtension>
        </extensions>
      </trkpt>
      <trkpt lat="37.98994858749210834503173828125" lon="-107.73768894374370574951171875">
        <ele>3742.800048828125</ele>
        <time>2026-08-15T17:47:14.000Z</time>
        <extensions>
          <ns3:TrackPointExtension>
            <ns3:hr>98</ns3:hr>
            <ns3:cad>0</ns3:cad>
          </ns3:TrackPointExtension>
        </extensions>
      </trkpt>
      <trkpt lat="37.98995755612850189208984375" lon="-107.737675197422504425048828125">
        <ele>3742.39990234375</ele>
        <time>2026-08-15T17:47:17.000Z</time>
        <extensions>
          <ns3:TrackPointExtension>
            <ns3:hr>97</ns3:hr>
            <ns3:cad>48</ns3:cad>
          </ns3:TrackPointExtension>
        </extensions>
      </trkpt>
      <trkpt lat="37.98995965160429477691650390625" lon="-107.73766773752868175506591796875">
        <ele>3742</ele>
        <time>2026-08-15T17:47:19.000Z</time>
        <extensions>
          <ns3:TrackPointExtension>
            <ns3:hr>97</ns3:hr>
            <ns3:cad>48</ns3:cad>
          </ns3:TrackPointExtension>
        </extensions>
      </trkpt>
      <trkpt lat="37.98996015451848506927490234375" lon="-107.7376569248735904693603515625">
        <ele>3741.199951171875</ele>
        <time>2026-08-15T17:47:21.000Z</time>
        <extensions>
          <ns3:TrackPointExtension>
            <ns3:hr>96</ns3:hr>
            <ns3:cad>48</ns3:cad>
          </ns3:TrackPointExtension>
        </extensions>
      </trkpt>
      <trkpt lat="37.98996149562299251556396484375" lon="-107.7376507222652435302734375">
        <ele>3740.39990234375</ele>
        <time>2026-08-15T17:47:25.000Z</time>
        <extensions>
          <ns3:TrackPointExtension>
            <ns3:hr>94</ns3:hr>
            <ns3:cad>0</ns3:cad>
          </ns3:TrackPointExtension>
        </extensions>
      </trkpt>
      <trkpt lat="37.98996300436556339263916015625" lon="-107.7376451902091503143310546875">
        <ele>3740.39990234375</ele>
        <time>2026-08-15T17:47:28.000Z</time>
        <extensions>
          <ns3:TrackPointExtension>
            <ns3:hr>91</ns3:hr>
            <ns3:cad>0</ns3:cad>
          </ns3:TrackPointExtension>
        </extensions>
      </trkpt>
      <trkpt lat="37.98996300436556339263916015625" lon="-107.7376451902091503143310546875">
        <ele>3740.800048828125</ele>
        <time>2026-08-15T17:47:33.000Z</time>
        <extensions>
          <ns3:TrackPointExtension>
            <ns3:hr>93</ns3:hr>
            <ns3:cad>0</ns3:cad>
          </ns3:TrackPointExtension>
        </extensions>
      </trkpt>
      <trkpt lat="37.98997767269611358642578125" lon="-107.737651057541370391845703125">
        <ele>3740.199951171875</ele>
        <time>2026-08-15T17:47:38.000Z</time>
        <extensions>
          <ns3:TrackPointExtension>
            <ns3:hr>92</ns3:hr>
            <ns3:cad>0</ns3:cad>
          </ns3:TrackPointExtension>
        </extensions>
      </trkpt>
      <trkpt lat="37.9899798519909381866455078125" lon="-107.73764644749462604522705078125">
        <ele>3740</ele>
        <time>2026-08-15T17:47:39.000Z</time>
        <extensions>
          <ns3:TrackPointExtension>
            <ns3:hr>92</ns3:hr>
            <ns3:cad>0</ns3:cad>
          </ns3:TrackPointExtension>
        </extensions>
      </trkpt>
      <trkpt lat="37.98997473903000354766845703125" lon="-107.7376131713390350341796875">
        <ele>3739.199951171875</ele>
        <time>2026-08-15T17:47:44.000Z</time>
        <extensions>
          <ns3:TrackPointExtension>
            <ns3:hr>94</ns3:hr>
            <ns3:cad>0</ns3:cad>
          </ns3:TrackPointExtension>
        </extensions>
      </trkpt>
      <trkpt lat="37.98997809179127216339111328125" lon="-107.73761074058711528778076171875">
        <ele>3739</ele>
        <time>2026-08-15T17:47:45.000Z</time>
        <extensions>
          <ns3:TrackPointExtension>
            <ns3:hr>94</ns3:hr>
            <ns3:cad>0</ns3:cad>
          </ns3:TrackPointExtension>
        </extensions>
      </trkpt>
      <trkpt lat="37.98996803350746631622314453125" lon="-107.73759908974170684814453125">
        <ele>3737.800048828125</ele>
        <time>2026-08-15T17:47:50.000Z</time>
        <extensions>
          <ns3:TrackPointExtension>
            <ns3:hr>94</ns3:hr>
            <ns3:cad>0</ns3:cad>
          </ns3:TrackPointExtension>
        </extensions>
      </trkpt>
      <trkpt lat="37.98996736295521259307861328125" lon="-107.7375912107527256011962890625">
        <ele>3737.39990234375</ele>
        <time>2026-08-15T17:47:52.000Z</time>
        <extensions>
          <ns3:TrackPointExtension>
            <ns3:hr>94</ns3:hr>
            <ns3:cad>0</ns3:cad>
          </ns3:TrackPointExtension>
        </extensions>
      </trkpt>
      <trkpt lat="37.989979684352874755859375" lon="-107.73757360875606536865234375">
        <ele>3736.800048828125</ele>
        <time>2026-08-15T17:47:57.000Z</time>
        <extensions>
          <ns3:TrackPointExtension>
            <ns3:hr>93</ns3:hr>
            <ns3:cad>0</ns3:cad>
          </ns3:TrackPointExtension>
        </extensions>
      </trkpt>
      <trkpt lat="37.98998462967574596405029296875" lon="-107.73757318966090679168701171875">
        <ele>3736.60009765625</ele>
        <time>2026-08-15T17:47:58.000Z</time>
        <extensions>
          <ns3:TrackPointExtension>
            <ns3:hr>92</ns3:hr>
            <ns3:cad>0</ns3:cad>
          </ns3:TrackPointExtension>
        </extensions>
      </trkpt>
      <trkpt lat="37.98998479731380939483642578125" lon="-107.73757184855639934539794921875">
        <ele>3736.60009765625</ele>
        <time>2026-08-15T17:48:01.000Z</time>
        <extensions>
          <ns3:TrackPointExtension>
            <ns3:hr>88</ns3:hr>
            <ns3:cad>0</ns3:cad>
          </ns3:TrackPointExtension>
        </extensions>
      </trkpt>
      <trkpt lat="37.98999351449310779571533203125" lon="-107.73756497539579868316650390625">
        <ele>3736.60009765625</ele>
        <time>2026-08-15T17:48:04.000Z</time>
        <extensions>
          <ns3:TrackPointExtension>
            <ns3:hr>91</ns3:hr>
            <ns3:cad>0</ns3:cad>
          </ns3:TrackPointExtension>
        </extensions>
      </trkpt>
      <trkpt lat="37.98999301157891750335693359375" lon="-107.7375533245503902435302734375">
        <ele>3735.800048828125</ele>
        <time>2026-08-15T17:48:08.000Z</time>
        <extensions>
          <ns3:TrackPointExtension>
            <ns3:hr>92</ns3:hr>
            <ns3:cad>0</ns3:cad>
          </ns3:TrackPointExtension>
        </extensions>
      </trkpt>
      <trkpt lat="37.9899976216256618499755859375" lon="-107.7375519834458827972412109375">
        <ele>3735.60009765625</ele>
        <time>2026-08-15T17:48:10.000Z</time>
        <extensions>
          <ns3:TrackPointExtension>
            <ns3:hr>91</ns3:hr>
            <ns3:cad>0</ns3:cad>
          </ns3:TrackPointExtension>
        </extensions>
      </trkpt>
      <trkpt lat="37.9899966157972812652587890625" lon="-107.7375184558331966400146484375">
        <ele>3734.60009765625</ele>
        <time>2026-08-15T17:48:15.000Z</time>
        <extensions>
          <ns3:TrackPointExtension>
            <ns3:hr>92</ns3:hr>
            <ns3:cad>0</ns3:cad>
          </ns3:TrackPointExtension>
        </extensions>
      </trkpt>
      <trkpt lat="37.9899929277598857879638671875" lon="-107.73751116357743740081787109375">
        <ele>3734</ele>
        <time>2026-08-15T17:48:17.000Z</time>
        <extensions>
          <ns3:TrackPointExtension>
            <ns3:hr>92</ns3:hr>
            <ns3:cad>0</ns3:cad>
          </ns3:TrackPointExtension>
        </extensions>
      </trkpt>
      <trkpt lat="37.9899882338941097259521484375" lon="-107.73749305866658687591552734375">
        <ele>3733.60009765625</ele>
        <time>2026-08-15T17:48:21.000Z</time>
        <extensions>
          <ns3:TrackPointExtension>
            <ns3:hr>92</ns3:hr>
            <ns3:cad>0</ns3:cad>
          </ns3:TrackPointExtension>
        </extensions>
      </trkpt>
      <trkpt lat="37.9899882338941097259521484375" lon="-107.73748509585857391357421875">
        <ele>3733.39990234375</ele>
        <time>2026-08-15T17:48:22.000Z</time>
        <extensions>
          <ns3:TrackPointExtension>
            <ns3:hr>92</ns3:hr>
            <ns3:cad>0</ns3:cad>
          </ns3:TrackPointExtension>
        </extensions>
      </trkpt>
      <trkpt lat="37.98998479731380939483642578125" lon="-107.73748375475406646728515625">
        <ele>3732.39990234375</ele>
        <time>2026-08-15T17:48:25.000Z</time>
        <extensions>
          <ns3:TrackPointExtension>
            <ns3:hr>91</ns3:hr>
            <ns3:cad>0</ns3:cad>
          </ns3:TrackPointExtension>
        </extensions>
      </trkpt>
      <trkpt lat="37.98998010344803333282470703125" lon="-107.73747570812702178955078125">
        <ele>3732.39990234375</ele>
        <time>2026-08-15T17:48:29.000Z</time>
        <extensions>
          <ns3:TrackPointExtension>
            <ns3:hr>91</ns3:hr>
            <ns3:cad>0</ns3:cad>
          </ns3:TrackPointExtension>
        </extensions>
      </trkpt>
      <trkpt lat="37.98997239209711551666259765625" lon="-107.73744276724755764007568359375">
        <ele>3731.39990234375</ele>
        <time>2026-08-15T17:48:35.000Z</time>
        <extensions>
          <ns3:TrackPointExtension>
            <ns3:hr>90</ns3:hr>
            <ns3:cad>0</ns3:cad>
          </ns3:TrackPointExtension>
        </extensions>
      </trkpt>
      <trkpt lat="37.98997700214385986328125" lon="-107.7374227344989776611328125">
        <ele>3730.199951171875</ele>
        <time>2026-08-15T17:48:39.000Z</time>
        <extensions>
          <ns3:TrackPointExtension>
            <ns3:hr>90</ns3:hr>
            <ns3:cad>0</ns3:cad>
          </ns3:TrackPointExtension>
        </extensions>
      </trkpt>
      <trkpt lat="37.9899791814386844635009765625" lon="-107.73740840144455432891845703125">
        <ele>3730</ele>
        <time>2026-08-15T17:48:41.000Z</time>
        <extensions>
          <ns3:TrackPointExtension>
            <ns3:hr>89</ns3:hr>
            <ns3:cad>0</ns3:cad>
          </ns3:TrackPointExtension>
        </extensions>
      </trkpt>
      <trkpt lat="37.9899781756103038787841796875" lon="-107.7373783104121685028076171875">
        <ele>3729.199951171875</ele>
        <time>2026-08-15T17:48:45.000Z</time>
        <extensions>
          <ns3:TrackPointExtension>
            <ns3:hr>88</ns3:hr>
            <ns3:cad>0</ns3:cad>
          </ns3:TrackPointExtension>
        </extensions>
      </trkpt>
      <trkpt lat="37.9899798519909381866455078125" lon="-107.73737755604088306427001953125">
        <ele>3728.60009765625</ele>
        <time>2026-08-15T17:48:48.000Z</time>
        <extensions>
          <ns3:TrackPointExtension>
            <ns3:hr>87</ns3:hr>
            <ns3:cad>0</ns3:cad>
          </ns3:TrackPointExtension>
        </extensions>
      </trkpt>
      <trkpt lat="37.989992089569568634033203125" lon="-107.73737017996609210968017578125">
        <ele>3728.199951171875</ele>
        <time>2026-08-15T17:48:51.000Z</time>
        <extensions>
          <ns3:TrackPointExtension>
            <ns3:hr>85</ns3:hr>
            <ns3:cad>0</ns3:cad>
          </ns3:TrackPointExtension>
        </extensions>
      </trkpt>
      <trkpt lat="37.98999602906405925750732421875" lon="-107.73735006339848041534423828125">
        <ele>3727.39990234375</ele>
        <time>2026-08-15T17:48:55.000Z</time>
        <extensions>
          <ns3:TrackPointExtension>
            <ns3:hr>82</ns3:hr>
            <ns3:cad>0</ns3:cad>
          </ns3:TrackPointExtension>
        </extensions>
      </trkpt>
      <trkpt lat="37.98998680897057056427001953125" lon="-107.73734017275273799896240234375">
        <ele>3727</ele>
        <time>2026-08-15T17:48:57.000Z</time>
        <extensions>
          <ns3:TrackPointExtension>
            <ns3:hr>81</ns3:hr>
            <ns3:cad>0</ns3:cad>
          </ns3:TrackPointExtension>
        </extensions>
      </trkpt>
      <trkpt lat="37.9899986274540424346923828125" lon="-107.73730932734906673431396484375">
        <ele>3726.199951171875</ele>
        <time>2026-08-15T17:49:01.000Z</time>
        <extensions>
          <ns3:TrackPointExtension>
            <ns3:hr>83</ns3:hr>
            <ns3:cad>0</ns3:cad>
          </ns3:TrackPointExtension>
        </extensions>
      </trkpt>
      <trkpt lat="37.990006841719150543212890625" lon="-107.737306393682956695556640625">
        <ele>3726</ele>
        <time>2026-08-15T17:49:02.000Z</time>
        <extensions>
          <ns3:TrackPointExtension>
            <ns3:hr>84</ns3:hr>
            <ns3:cad>0</ns3:cad>
          </ns3:TrackPointExtension>
        </extensions>
      </trkpt>
      <trkpt lat="37.99002503044903278350830078125" lon="-107.7372901327908039093017578125">
        <ele>3724.800048828125</ele>
        <time>2026-08-15T17:49:07.000Z</time>
        <extensions>
          <ns3:TrackPointExtension>
            <ns3:hr>82</ns3:hr>
            <ns3:cad>0</ns3:cad>
          </ns3:TrackPointExtension>
        </extensions>
      </trkpt>
      <trkpt lat="37.99001262523233890533447265625" lon="-107.73728066124022006988525390625">
        <ele>3723.800048828125</ele>
        <time>2026-08-15T17:49:12.000Z</time>
        <extensions>
          <ns3:TrackPointExtension>
            <ns3:hr>81</ns3:hr>
            <ns3:cad>0</ns3:cad>
          </ns3:TrackPointExtension>
        </extensions>
      </trkpt>
      <trkpt lat="37.9900140501558780670166015625" lon="-107.7372804097831249237060546875">
        <ele>3723.60009765625</ele>
        <time>2026-08-15T17:49:13.000Z</time>
        <extensions>
          <ns3:TrackPointExtension>
            <ns3:hr>82</ns3:hr>
            <ns3:cad>0</ns3:cad>
          </ns3:TrackPointExtension>
        </extensions>
      </trkpt>
      <trkpt lat="37.9900140501558780670166015625" lon="-107.7372804097831249237060546875">
        <ele>3723.60009765625</ele>
        <time>2026-08-15T17:49:18.000Z</time>
        <extensions>
          <ns3:TrackPointExtension>
            <ns3:hr>85</ns3:hr>
            <ns3:cad>0</ns3:cad>
          </ns3:TrackPointExtension>
        </extensions>
      </trkpt>
      <trkpt lat="37.9900140501558780670166015625" lon="-107.7372804097831249237060546875">
        <ele>3723.60009765625</ele>
        <time>2026-08-15T17:49:20.000Z</time>
        <extensions>
          <ns3:TrackPointExtension>
            <ns3:hr>88</ns3:hr>
            <ns3:cad>0</ns3:cad>
          </ns3:TrackPointExtension>
        </extensions>
      </trkpt>
      <trkpt lat="37.9900140501558780670166015625" lon="-107.7372804097831249237060546875">
        <ele>3723.60009765625</ele>
        <time>2026-08-15T17:49:23.000Z</time>
        <extensions>
          <ns3:TrackPointExtension>
            <ns3:hr>92</ns3:hr>
            <ns3:cad>0</ns3:cad>
          </ns3:TrackPointExtension>
        </extensions>
      </trkpt>
      <trkpt lat="37.9900140501558780670166015625" lon="-107.7372804097831249237060546875">
        <ele>3723.800048828125</ele>
        <time>2026-08-15T17:49:29.000Z</time>
        <extensions>
          <ns3:TrackPointExtension>
            <ns3:hr>92</ns3:hr>
            <ns3:cad>0</ns3:cad>
          </ns3:TrackPointExtension>
        </extensions>
      </trkpt>
      <trkpt lat="37.9900140501558780670166015625" lon="-107.7372804097831249237060546875">
        <ele>3723.800048828125</ele>
        <time>2026-08-15T17:49:30.000Z</time>
        <extensions>
          <ns3:TrackPointExtension>
            <ns3:hr>92</ns3:hr>
            <ns3:cad>0</ns3:cad>
          </ns3:TrackPointExtension>
        </extensions>
      </trkpt>
      <trkpt lat="37.98999535851180553436279296875" lon="-107.73726649582386016845703125">
        <ele>3723.800048828125</ele>
        <time>2026-08-15T17:49:36.000Z</time>
        <extensions>
          <ns3:TrackPointExtension>
            <ns3:hr>91</ns3:hr>
            <ns3:cad>0</ns3:cad>
          </ns3:TrackPointExtension>
        </extensions>
      </trkpt>
      <trkpt lat="37.98999452032148838043212890625" lon="-107.73726507090032100677490234375">
        <ele>3723.800048828125</ele>
        <time>2026-08-15T17:49:41.000Z</time>
        <extensions>
          <ns3:TrackPointExtension>
            <ns3:hr>94</ns3:hr>
            <ns3:cad>0</ns3:cad>
          </ns3:TrackPointExtension>
        </extensions>
      </trkpt>
      <trkpt lat="37.98999452032148838043212890625" lon="-107.73726507090032100677490234375">
        <ele>3723.800048828125</ele>
        <time>2026-08-15T17:49:47.000Z</time>
        <extensions>
          <ns3:TrackPointExtension>
            <ns3:hr>95</ns3:hr>
            <ns3:cad>0</ns3:cad>
          </ns3:TrackPointExtension>
        </extensions>
      </trkpt>
      <trkpt lat="37.98999452032148838043212890625" lon="-107.73726507090032100677490234375">
        <ele>3723.800048828125</ele>
        <time>2026-08-15T17:49:51.000Z</time>
        <extensions>
          <ns3:TrackPointExtension>
            <ns3:hr>96</ns3:hr>
            <ns3:cad>0</ns3:cad>
          </ns3:TrackPointExtension>
        </extensions>
      </trkpt>
      <trkpt lat="37.98999016173183917999267578125" lon="-107.73725333623588085174560546875">
        <ele>3723</ele>
        <time>2026-08-15T17:49:57.000Z</time>
        <extensions>
          <ns3:TrackPointExtension>
            <ns3:hr>95</ns3:hr>
            <ns3:cad>0</ns3:cad>
          </ns3:TrackPointExtension>
        </extensions>
      </trkpt>
      <trkpt lat="37.98999452032148838043212890625" lon="-107.73726507090032100677490234375">
        <ele>3723</ele>
        <time>2026-08-15T17:50:03.000Z</time>
        <extensions>
          <ns3:TrackPointExtension>
            <ns3:hr>95</ns3:hr>
            <ns3:cad>0</ns3:cad>
          </ns3:TrackPointExtension>
        </extensions>
      </trkpt>
      <trkpt lat="37.98999452032148838043212890625" lon="-107.73726507090032100677490234375">
        <ele>3722.800048828125</ele>
        <time>2026-08-15T17:50:09.000Z</time>
        <extensions>
          <ns3:TrackPointExtension>
            <ns3:hr>92</ns3:hr>
            <ns3:cad>0</ns3:cad>
          </ns3:TrackPointExtension>
        </extensions>
      </trkpt>
      <trkpt lat="37.9899956099689006805419921875" lon="-107.73724713362753391265869140625">
        <ele>3722.800048828125</ele>
        <time>2026-08-15T17:50:10.000Z</time>
        <extensions>
          <ns3:TrackPointExtension>
            <ns3:hr>92</ns3:hr>
            <ns3:cad>0</ns3:cad>
          </ns3:TrackPointExtension>
        </extensions>
      </trkpt>
      <trkpt lat="37.9899969510734081268310546875" lon="-107.73724612779915332794189453125">
        <ele>3722.60009765625</ele>
        <time>2026-08-15T17:50:11.000Z</time>
        <extensions>
          <ns3:TrackPointExtension>
            <ns3:hr>92</ns3:hr>
            <ns3:cad>0</ns3:cad>
          </ns3:TrackPointExtension>
        </extensions>
      </trkpt>
      <trkpt lat="37.98998815007507801055908203125" lon="-107.73724528960883617401123046875">
        <ele>3722.39990234375</ele>
        <time>2026-08-15T17:50:16.000Z</time>
        <extensions>
          <ns3:TrackPointExtension>
            <ns3:hr>96</ns3:hr>
            <ns3:cad>0</ns3:cad>
          </ns3:TrackPointExtension>
        </extensions>
      </trkpt>
      <trkpt lat="37.98998815007507801055908203125" lon="-107.73724528960883617401123046875">
        <ele>3722.39990234375</ele>
        <time>2026-08-15T17:50:18.000Z</time>
        <extensions>
          <ns3:TrackPointExtension>
            <ns3:hr>99</ns3:hr>
            <ns3:cad>0</ns3:cad>
          </ns3:TrackPointExtension>
        </extensions>
      </trkpt>
      <trkpt lat="37.98998815007507801055908203125" lon="-107.73724528960883617401123046875">
        <ele>3722.60009765625</ele>
        <time>2026-08-15T17:50:23.000Z</time>
        <extensions>
          <ns3:TrackPointExtension>
            <ns3:hr>96</ns3:hr>
            <ns3:cad>0</ns3:cad>
          </ns3:TrackPointExtension>
        </extensions>
      </trkpt>
      <trkpt lat="37.98998395912349224090576171875" lon="-107.73722902871668338775634765625">
        <ele>3722.39990234375</ele>
        <time>2026-08-15T17:50:26.000Z</time>
        <extensions>
          <ns3:TrackPointExtension>
            <ns3:hr>93</ns3:hr>
            <ns3:cad>0</ns3:cad>
          </ns3:TrackPointExtension>
        </extensions>
      </trkpt>
      <trkpt lat="37.989979349076747894287109375" lon="-107.73722936399281024932861328125">
        <ele>3722</ele>
        <time>2026-08-15T17:50:28.000Z</time>
        <extensions>
          <ns3:TrackPointExtension>
            <ns3:hr>96</ns3:hr>
            <ns3:cad>0</ns3:cad>
          </ns3:TrackPointExtension>
        </extensions>
      </trkpt>
      <trkpt lat="37.9899704642593860626220703125" lon="-107.73723288439214229583740234375">
        <ele>3721.800048828125</ele>
        <time>2026-08-15T17:50:30.000Z</time>
        <extensions>
          <ns3:TrackPointExtension>
            <ns3:hr>99</ns3:hr>
            <ns3:cad>0</ns3:cad>
          </ns3:TrackPointExtension>
        </extensions>
      </trkpt>
      <trkpt lat="37.9899622499942779541015625" lon="-107.737233974039554595947265625">
        <ele>3721.60009765625</ele>
        <time>2026-08-15T17:50:32.000Z</time>
        <extensions>
          <ns3:TrackPointExtension>
            <ns3:hr>100</ns3:hr>
            <ns3:cad>0</ns3:cad>
          </ns3:TrackPointExtension>
        </extensions>
      </trkpt>
      <trkpt lat="37.98994339071214199066162109375" lon="-107.73722936399281024932861328125">
        <ele>3721.39990234375</ele>
        <time>2026-08-15T17:50:36.000Z</time>
        <extensions>
          <ns3:TrackPointExtension>
            <ns3:hr>102</ns3:hr>
            <ns3:cad>0</ns3:cad>
          </ns3:TrackPointExtension>
        </extensions>
      </trkpt>
      <trkpt lat="37.989939786493778228759765625" lon="-107.73722869344055652618408203125">
        <ele>3721.199951171875</ele>
        <time>2026-08-15T17:50:42.000Z</time>
        <extensions>
          <ns3:TrackPointExtension>
            <ns3:hr>101</ns3:hr>
            <ns3:cad>0</ns3:cad>
          </ns3:TrackPointExtension>
        </extensions>
      </trkpt>
      <trkpt lat="37.9899322427809238433837890625" lon="-107.73722198791801929473876953125">
        <ele>3721.199951171875</ele>
        <time>2026-08-15T17:50:44.000Z</time>
        <extensions>
          <ns3:TrackPointExtension>
            <ns3:hr>101</ns3:hr>
            <ns3:cad>0</ns3:cad>
          </ns3:TrackPointExtension>
        </extensions>
      </trkpt>
      <trkpt lat="37.989939786493778228759765625" lon="-107.73722869344055652618408203125">
        <ele>3720.60009765625</ele>
        <time>2026-08-15T17:50:49.000Z</time>
        <extensions>
          <ns3:TrackPointExtension>
            <ns3:hr>100</ns3:hr>
            <ns3:cad>0</ns3:cad>
          </ns3:TrackPointExtension>
        </extensions>
      </trkpt>
      <trkpt lat="37.98993299715220928192138671875" lon="-107.737218551337718963623046875">
        <ele>3720.60009765625</ele>
        <time>2026-08-15T17:50:51.000Z</time>
        <extensions>
          <ns3:TrackPointExtension>
            <ns3:hr>99</ns3:hr>
            <ns3:cad>0</ns3:cad>
          </ns3:TrackPointExtension>
        </extensions>
      </trkpt>
      <trkpt lat="37.98992880620062351226806640625" lon="-107.73719298653304576873779296875">
        <ele>3720.60009765625</ele>
        <time>2026-08-15T17:50:57.000Z</time>
        <extensions>
          <ns3:TrackPointExtension>
            <ns3:hr>99</ns3:hr>
            <ns3:cad>77</ns3:cad>
          </ns3:TrackPointExtension>
        </extensions>
      </trkpt>
      <trkpt lat="37.98992780037224292755126953125" lon="-107.7371892146766185760498046875">
        <ele>3720.39990234375</ele>
        <time>2026-08-15T17:50:58.000Z</time>
        <extensions>
          <ns3:TrackPointExtension>
            <ns3:hr>98</ns3:hr>
            <ns3:cad>77</ns3:cad>
          </ns3:TrackPointExtension>
        </extensions>
      </trkpt>
      <trkpt lat="37.98991522751748561859130859375" lon="-107.737168930470943450927734375">
        <ele>3720.199951171875</ele>
        <time>2026-08-15T17:51:03.000Z</time>
        <extensions>
          <ns3:TrackPointExtension>
            <ns3:hr>95</ns3:hr>
            <ns3:cad>0</ns3:cad>
          </ns3:TrackPointExtension>
        </extensions>
      </trkpt>
      <trkpt lat="37.98991103656589984893798828125" lon="-107.737160213291645050048828125">
        <ele>3720.39990234375</ele>
        <time>2026-08-15T17:51:05.000Z</time>
        <extensions>
          <ns3:TrackPointExtension>
            <ns3:hr>93</ns3:hr>
            <ns3:cad>0</ns3:cad>
          </ns3:TrackPointExtension>
        </extensions>
      </trkpt>
      <trkpt lat="37.9899017326533794403076171875" lon="-107.73715040646493434906005859375">
        <ele>3720.39990234375</ele>
        <time>2026-08-15T17:51:07.000Z</time>
        <extensions>
          <ns3:TrackPointExtension>
            <ns3:hr>88</ns3:hr>
            <ns3:cad>0</ns3:cad>
          </ns3:TrackPointExtension>
        </extensions>
      </trkpt>
      <trkpt lat="37.98988287337124347686767578125" lon="-107.73713867180049419403076171875">
        <ele>3720</ele>
        <time>2026-08-15T17:51:10.000Z</time>
        <extensions>
          <ns3:TrackPointExtension>
            <ns3:hr>85</ns3:hr>
            <ns3:cad>0</ns3:cad>
          </ns3:TrackPointExtension>
        </extensions>
      </trkpt>
      <trkpt lat="37.98987281508743762969970703125" lon="-107.73713464848697185516357421875">
        <ele>3720</ele>
        <time>2026-08-15T17:51:12.000Z</time>
        <extensions>
          <ns3:TrackPointExtension>
            <ns3:hr>84</ns3:hr>
            <ns3:cad>0</ns3:cad>
          </ns3:TrackPointExtension>
        </extensions>
      </trkpt>
      <trkpt lat="37.9898366890847682952880859375" lon="-107.7371151186525821685791015625">
        <ele>3720.60009765625</ele>
        <time>2026-08-15T17:51:18.000Z</time>
        <extensions>
          <ns3:TrackPointExtension>
            <ns3:hr>87</ns3:hr>
            <ns3:cad>0</ns3:cad>
          </ns3:TrackPointExtension>
        </extensions>
      </trkpt>
      <trkpt lat="37.9898118786513805389404296875" lon="-107.737105898559093475341796875">
        <ele>3720.199951171875</ele>
        <time>2026-08-15T17:51:24.000Z</time>
        <extensions>
          <ns3:TrackPointExtension>
            <ns3:hr>88</ns3:hr>
            <ns3:cad>0</ns3:cad>
          </ns3:TrackPointExtension>
        </extensions>
      </trkpt>
      <trkpt lat="37.98980659805238246917724609375" lon="-107.7371087484061717987060546875">
        <ele>3720.199951171875</ele>
        <time>2026-08-15T17:51:25.000Z</time>
        <extensions>
          <ns3:TrackPointExtension>
            <ns3:hr>88</ns3:hr>
            <ns3:cad>0</ns3:cad>
          </ns3:TrackPointExtension>
        </extensions>
      </trkpt>
      <trkpt lat="37.989781536161899566650390625" lon="-107.7371117658913135528564453125">
        <ele>3719.800048828125</ele>
        <time>2026-08-15T17:51:31.000Z</time>
        <extensions>
          <ns3:TrackPointExtension>
            <ns3:hr>90</ns3:hr>
            <ns3:cad>0</ns3:cad>
          </ns3:TrackPointExtension>
        </extensions>
      </trkpt>
      <trkpt lat="37.98977742902934551239013671875" lon="-107.73711226880550384521484375">
        <ele>3719.800048828125</ele>
        <time>2026-08-15T17:51:32.000Z</time>
        <extensions>
          <ns3:TrackPointExtension>
            <ns3:hr>90</ns3:hr>
            <ns3:cad>0</ns3:cad>
          </ns3:TrackPointExtension>
        </extensions>
      </trkpt>
      <trkpt lat="37.989776842296123504638671875" lon="-107.73711252026259899139404296875">
        <ele>3720.199951171875</ele>
        <time>2026-08-15T17:51:38.000Z</time>
        <extensions>
          <ns3:TrackPointExtension>
            <ns3:hr>86</ns3:hr>
            <ns3:cad>0</ns3:cad>
          </ns3:TrackPointExtension>
        </extensions>
      </trkpt>
      <trkpt lat="37.989776842296123504638671875" lon="-107.73711252026259899139404296875">
        <ele>3720.199951171875</ele>
        <time>2026-08-15T17:51:40.000Z</time>
        <extensions>
          <ns3:TrackPointExtension>
            <ns3:hr>83</ns3:hr>
            <ns3:cad>0</ns3:cad>
          </ns3:TrackPointExtension>
        </extensions>
      </trkpt>
      <trkpt lat="37.989776842296123504638671875" lon="-107.73711252026259899139404296875">
        <ele>3720</ele>
        <time>2026-08-15T17:51:41.000Z</time>
        <extensions>
          <ns3:TrackPointExtension>
            <ns3:hr>83</ns3:hr>
            <ns3:cad>0</ns3:cad>
          </ns3:TrackPointExtension>
        </extensions>
      </trkpt>
      <trkpt lat="37.989776842296123504638671875" lon="-107.73711252026259899139404296875">
        <ele>3719.60009765625</ele>
        <time>2026-08-15T17:51:44.000Z</time>
        <extensions>
          <ns3:TrackPointExtension>
            <ns3:hr>83</ns3:hr>
            <ns3:cad>0</ns3:cad>
          </ns3:TrackPointExtension>
        </extensions>
      </trkpt>
      <trkpt lat="37.989776842296123504638671875" lon="-107.73711252026259899139404296875">
        <ele>3719.39990234375</ele>
        <time>2026-08-15T17:51:49.000Z</time>
        <extensions>
          <ns3:TrackPointExtension>
            <ns3:hr>86</ns3:hr>
            <ns3:cad>0</ns3:cad>
          </ns3:TrackPointExtension>
        </extensions>
      </trkpt>
      <trkpt lat="37.989776842296123504638671875" lon="-107.73711252026259899139404296875">
        <ele>3719.800048828125</ele>
        <time>2026-08-15T17:51:52.000Z</time>
        <extensions>
          <ns3:TrackPointExtension>
            <ns3:hr>99</ns3:hr>
            <ns3:cad>0</ns3:cad>
          </ns3:TrackPointExtension>
        </extensions>
      </trkpt>
      <trkpt lat="37.989777512848377227783203125" lon="-107.73710749112069606781005859375">
        <ele>3719.800048828125</ele>
        <time>2026-08-15T17:51:53.000Z</time>
        <extensions>
          <ns3:TrackPointExtension>
            <ns3:hr>104</ns3:hr>
            <ns3:cad>0</ns3:cad>
          </ns3:TrackPointExtension>
        </extensions>
      </trkpt>
      <trkpt lat="37.9897783510386943817138671875" lon="-107.73710078559815883636474609375">
        <ele>3719.800048828125</ele>
        <time>2026-08-15T17:51:56.000Z</time>
        <extensions>
          <ns3:TrackPointExtension>
            <ns3:hr>106</ns3:hr>
            <ns3:cad>0</ns3:cad>
          </ns3:TrackPointExtension>
        </extensions>
      </trkpt>
      <trkpt lat="37.9897703044116497039794921875" lon="-107.73709483444690704345703125">
        <ele>3718.60009765625</ele>
        <time>2026-08-15T17:52:02.000Z</time>
        <extensions>
          <ns3:TrackPointExtension>
            <ns3:hr>105</ns3:hr>
            <ns3:cad>0</ns3:cad>
          </ns3:TrackPointExtension>
        </extensions>
      </trkpt>
      <trkpt lat="37.9897669516503810882568359375" lon="-107.73709081113338470458984375">
        <ele>3718.39990234375</ele>
        <time>2026-08-15T17:52:03.000Z</time>
        <extensions>
          <ns3:TrackPointExtension>
            <ns3:hr>104</ns3:hr>
            <ns3:cad>0</ns3:cad>
          </ns3:TrackPointExtension>
        </extensions>
      </trkpt>
      <trkpt lat="37.98975278623402118682861328125" lon="-107.73708318360149860382080078125">
        <ele>3718</ele>
        <time>2026-08-15T17:52:09.000Z</time>
        <extensions>
          <ns3:TrackPointExtension>
            <ns3:hr>102</ns3:hr>
            <ns3:cad>0</ns3:cad>
          </ns3:TrackPointExtension>
        </extensions>
      </trkpt>
      <trkpt lat="37.9897481761872768402099609375" lon="-107.73708452470600605010986328125">
        <ele>3717.800048828125</ele>
        <time>2026-08-15T17:52:10.000Z</time>
        <extensions>
          <ns3:TrackPointExtension>
            <ns3:hr>99</ns3:hr>
            <ns3:cad>0</ns3:cad>
          </ns3:TrackPointExtension>
        </extensions>
      </trkpt>
      <trkpt lat="37.98974205739796161651611328125" lon="-107.7370842732489109039306640625">
        <ele>3717.60009765625</ele>
        <time>2026-08-15T17:52:11.000Z</time>
        <extensions>
          <ns3:TrackPointExtension>
            <ns3:hr>94</ns3:hr>
            <ns3:cad>0</ns3:cad>
          </ns3:TrackPointExtension>
        </extensions>
      </trkpt>
      <trkpt lat="37.989736609160900115966796875" lon="-107.73708234541118144989013671875">
        <ele>3717.39990234375</ele>
        <time>2026-08-15T17:52:12.000Z</time>
        <extensions>
          <ns3:TrackPointExtension>
            <ns3:hr>89</ns3:hr>
            <ns3:cad>0</ns3:cad>
          </ns3:TrackPointExtension>
        </extensions>
      </trkpt>
      <trkpt lat="37.989732585847377777099609375" lon="-107.73707966320216655731201171875">
        <ele>3717.199951171875</ele>
        <time>2026-08-15T17:52:13.000Z</time>
        <extensions>
          <ns3:TrackPointExtension>
            <ns3:hr>85</ns3:hr>
            <ns3:cad>0</ns3:cad>
          </ns3:TrackPointExtension>
        </extensions>
      </trkpt>
      <trkpt lat="37.98972730524837970733642578125" lon="-107.73707807064056396484375">
        <ele>3717</ele>
        <time>2026-08-15T17:52:14.000Z</time>
        <extensions>
          <ns3:TrackPointExtension>
            <ns3:hr>85</ns3:hr>
            <ns3:cad>0</ns3:cad>
          </ns3:TrackPointExtension>
        </extensions>
      </trkpt>
      <trkpt lat="37.98970802687108516693115234375" lon="-107.7370794117450714111328125">
        <ele>3716.800048828125</ele>
        <time>2026-08-15T17:52:18.000Z</time>
        <extensions>
          <ns3:TrackPointExtension>
            <ns3:hr>84</ns3:hr>
            <ns3:cad>0</ns3:cad>
          </ns3:TrackPointExtension>
        </extensions>
      </trkpt>
      <trkpt lat="37.9897069372236728668212890625" lon="-107.73705837316811084747314453125">
        <ele>3716.60009765625</ele>
        <time>2026-08-15T17:52:24.000Z</time>
        <extensions>
          <ns3:TrackPointExtension>
            <ns3:hr>83</ns3:hr>
            <ns3:cad>0</ns3:cad>
          </ns3:TrackPointExtension>
        </extensions>
      </trkpt>
      <trkpt lat="37.98970852978527545928955078125" lon="-107.73704814724624156951904296875">
        <ele>3716.60009765625</ele>
        <time>2026-08-15T17:52:26.000Z</time>
        <extensions>
          <ns3:TrackPointExtension>
            <ns3:hr>83</ns3:hr>
            <ns3:cad>0</ns3:cad>
          </ns3:TrackPointExtension>
        </extensions>
      </trkpt>
      <trkpt lat="37.98970140516757965087890625" lon="-107.7370390109717845916748046875">
        <ele>3716.199951171875</ele>
        <time>2026-08-15T17:52:30.000Z</time>
        <extensions>
          <ns3:TrackPointExtension>
            <ns3:hr>84</ns3:hr>
            <ns3:cad>0</ns3:cad>
          </ns3:TrackPointExtension>
        </extensions>
      </trkpt>
      <trkpt lat="37.989682964980602264404296875" lon="-107.737036161124706268310546875">
        <ele>3715.800048828125</ele>
        <time>2026-08-15T17:52:33.000Z</time>
        <extensions>
          <ns3:TrackPointExtension>
            <ns3:hr>85</ns3:hr>
            <ns3:cad>0</ns3:cad>
          </ns3:TrackPointExtension>
        </extensions>
      </trkpt>
      <trkpt lat="37.98966930247843265533447265625" lon="-107.73703188635408878326416015625">
        <ele>3715.199951171875</ele>
        <time>2026-08-15T17:52:36.000Z</time>
        <extensions>
          <ns3:TrackPointExtension>
            <ns3:hr>87</ns3:hr>
            <ns3:cad>0</ns3:cad>
          </ns3:TrackPointExtension>
        </extensions>
      </trkpt>
      <trkpt lat="37.9896539635956287384033203125" lon="-107.73703088052570819854736328125">
        <ele>3714.60009765625</ele>
        <time>2026-08-15T17:52:41.000Z</time>
        <extensions>
          <ns3:TrackPointExtension>
            <ns3:hr>89</ns3:hr>
            <ns3:cad>0</ns3:cad>
          </ns3:TrackPointExtension>
        </extensions>
      </trkpt>
      <trkpt lat="37.9896430671215057373046875" lon="-107.73702233098447322845458984375">
        <ele>3714.199951171875</ele>
        <time>2026-08-15T17:52:44.000Z</time>
        <extensions>
          <ns3:TrackPointExtension>
            <ns3:hr>90</ns3:hr>
            <ns3:cad>0</ns3:cad>
          </ns3:TrackPointExtension>
        </extensions>
      </trkpt>
      <trkpt lat="37.9896425642073154449462890625" lon="-107.73702233098447322845458984375">
        <ele>3714</ele>
        <time>2026-08-15T17:52:45.000Z</time>
        <extensions>
          <ns3:TrackPointExtension>
            <ns3:hr>94</ns3:hr>
            <ns3:cad>0</ns3:cad>
          </ns3:TrackPointExtension>
        </extensions>
      </trkpt>
      <trkpt lat="37.98964030109345912933349609375" lon="-107.7370230853557586669921875">
        <ele>3714</ele>
        <time>2026-08-15T17:52:46.000Z</time>
        <extensions>
          <ns3:TrackPointExtension>
            <ns3:hr>100</ns3:hr>
            <ns3:cad>0</ns3:cad>
          </ns3:TrackPointExtension>
        </extensions>
      </trkpt>
      <trkpt lat="37.989640720188617706298828125" lon="-107.7370249293744564056396484375">
        <ele>3714.199951171875</ele>
        <time>2026-08-15T17:52:47.000Z</time>
        <extensions>
          <ns3:TrackPointExtension>
            <ns3:hr>103</ns3:hr>
            <ns3:cad>0</ns3:cad>
          </ns3:TrackPointExtension>
        </extensions>
      </trkpt>
      <trkpt lat="37.98964063636958599090576171875" lon="-107.737024091184139251708984375">
        <ele>3714.39990234375</ele>
        <time>2026-08-15T17:52:49.000Z</time>
        <extensions>
          <ns3:TrackPointExtension>
            <ns3:hr>106</ns3:hr>
            <ns3:cad>0</ns3:cad>
          </ns3:TrackPointExtension>
        </extensions>
      </trkpt>
      <trkpt lat="37.98962764441967010498046875" lon="-107.737016379833221435546875">
        <ele>3713.199951171875</ele>
        <time>2026-08-15T17:52:55.000Z</time>
        <extensions>
          <ns3:TrackPointExtension>
            <ns3:hr>108</ns3:hr>
            <ns3:cad>0</ns3:cad>
          </ns3:TrackPointExtension>
        </extensions>
      </trkpt>
      <trkpt lat="37.989627309143543243408203125" lon="-107.7370172180235385894775390625">
        <ele>3713.199951171875</ele>
        <time>2026-08-15T17:52:56.000Z</time>
        <extensions>
          <ns3:TrackPointExtension>
            <ns3:hr>108</ns3:hr>
            <ns3:cad>0</ns3:cad>
          </ns3:TrackPointExtension>
        </extensions>
      </trkpt>
      <trkpt lat="37.98959738574922084808349609375" lon="-107.73700405843555927276611328125">
        <ele>3713.199951171875</ele>
        <time>2026-08-15T17:53:02.000Z</time>
        <extensions>
          <ns3:TrackPointExtension>
            <ns3:hr>107</ns3:hr>
            <ns3:cad>0</ns3:cad>
          </ns3:TrackPointExtension>
        </extensions>
      </trkpt>
      <trkpt lat="37.98959637992084026336669921875" lon="-107.73699265904724597930908203125">
        <ele>3713.39990234375</ele>
        <time>2026-08-15T17:53:06.000Z</time>
        <extensions>
          <ns3:TrackPointExtension>
            <ns3:hr>104</ns3:hr>
            <ns3:cad>0</ns3:cad>
          </ns3:TrackPointExtension>
        </extensions>
      </trkpt>
      <trkpt lat="37.98960040323436260223388671875" lon="-107.73698310367763042449951171875">
        <ele>3713.39990234375</ele>
        <time>2026-08-15T17:53:08.000Z</time>
        <extensions>
          <ns3:TrackPointExtension>
            <ns3:hr>101</ns3:hr>
            <ns3:cad>0</ns3:cad>
          </ns3:TrackPointExtension>
        </extensions>
      </trkpt>
      <trkpt lat="37.9896006546914577484130859375" lon="-107.73698125965893268585205078125">
        <ele>3713.199951171875</ele>
        <time>2026-08-15T17:53:09.000Z</time>
        <extensions>
          <ns3:TrackPointExtension>
            <ns3:hr>99</ns3:hr>
            <ns3:cad>0</ns3:cad>
          </ns3:TrackPointExtension>
        </extensions>
      </trkpt>
      <trkpt lat="37.9896026663482189178466796875" lon="-107.73695477284491062164306640625">
        <ele>3712</ele>
        <time>2026-08-15T17:53:13.000Z</time>
        <extensions>
          <ns3:TrackPointExtension>
            <ns3:hr>98</ns3:hr>
            <ns3:cad>0</ns3:cad>
          </ns3:TrackPointExtension>
        </extensions>
      </trkpt>
      <trkpt lat="37.98959922976791858673095703125" lon="-107.736946977674961090087890625">
        <ele>3711.60009765625</ele>
        <time>2026-08-15T17:53:15.000Z</time>
        <extensions>
          <ns3:TrackPointExtension>
            <ns3:hr>98</ns3:hr>
            <ns3:cad>0</ns3:cad>
          </ns3:TrackPointExtension>
        </extensions>
      </trkpt>
      <trkpt lat="37.9895905964076519012451171875" lon="-107.73694999516010284423828125">
        <ele>3711.39990234375</ele>
        <time>2026-08-15T17:53:21.000Z</time>
        <extensions>
          <ns3:TrackPointExtension>
            <ns3:hr>96</ns3:hr>
            <ns3:cad>0</ns3:cad>
          </ns3:TrackPointExtension>
        </extensions>
      </trkpt>
      <trkpt lat="37.98959403298795223236083984375" lon="-107.73694437928497791290283203125">
        <ele>3711.39990234375</ele>
        <time>2026-08-15T17:53:23.000Z</time>
        <extensions>
          <ns3:TrackPointExtension>
            <ns3:hr>95</ns3:hr>
            <ns3:cad>0</ns3:cad>
          </ns3:TrackPointExtension>
        </extensions>
      </trkpt>
      <trkpt lat="37.98957877792418003082275390625" lon="-107.73694102652370929718017578125">
        <ele>3711</ele>
        <time>2026-08-15T17:53:29.000Z</time>
        <extensions>
          <ns3:TrackPointExtension>
            <ns3:hr>93</ns3:hr>
            <ns3:cad>0</ns3:cad>
          </ns3:TrackPointExtension>
        </extensions>
      </trkpt>
      <trkpt lat="37.9895778559148311614990234375" lon="-107.73694253526628017425537109375">
        <ele>3711</ele>
        <time>2026-08-15T17:53:30.000Z</time>
        <extensions>
          <ns3:TrackPointExtension>
            <ns3:hr>92</ns3:hr>
            <ns3:cad>0</ns3:cad>
          </ns3:TrackPointExtension>
        </extensions>
      </trkpt>
      <trkpt lat="37.9895785264670848846435546875" lon="-107.73694203235208988189697265625">
        <ele>3710.60009765625</ele>
        <time>2026-08-15T17:53:31.000Z</time>
        <extensions>
          <ns3:TrackPointExtension>
            <ns3:hr>91</ns3:hr>
            <ns3:cad>0</ns3:cad>
          </ns3:TrackPointExtension>
        </extensions>
      </trkpt>
      <trkpt lat="37.98957525752484798431396484375" lon="-107.73693230934441089630126953125">
        <ele>3710</ele>
        <time>2026-08-15T17:53:37.000Z</time>
        <extensions>
          <ns3:TrackPointExtension>
            <ns3:hr>90</ns3:hr>
            <ns3:cad>0</ns3:cad>
          </ns3:TrackPointExtension>
        </extensions>
      </trkpt>
      <trkpt lat="37.98956670798361301422119140625" lon="-107.736926190555095672607421875">
        <ele>3709.800048828125</ele>
        <time>2026-08-15T17:53:39.000Z</time>
        <extensions>
          <ns3:TrackPointExtension>
            <ns3:hr>89</ns3:hr>
            <ns3:cad>0</ns3:cad>
          </ns3:TrackPointExtension>
        </extensions>
      </trkpt>
      <trkpt lat="37.98956461250782012939453125" lon="-107.73692660965025424957275390625">
        <ele>3709.800048828125</ele>
        <time>2026-08-15T17:53:40.000Z</time>
        <extensions>
          <ns3:TrackPointExtension>
            <ns3:hr>89</ns3:hr>
            <ns3:cad>0</ns3:cad>
          </ns3:TrackPointExtension>
        </extensions>
      </trkpt>
      <trkpt lat="37.98955815844237804412841796875" lon="-107.736912779510021209716796875">
        <ele>3709.60009765625</ele>
        <time>2026-08-15T17:53:43.000Z</time>
        <extensions>
          <ns3:TrackPointExtension>
            <ns3:hr>86</ns3:hr>
            <ns3:cad>0</ns3:cad>
          </ns3:TrackPointExtension>
        </extensions>
      </trkpt>
      <trkpt lat="37.989542484283447265625" lon="-107.7369022183120250701904296875">
        <ele>3709.39990234375</ele>
        <time>2026-08-15T17:53:47.000Z</time>
        <extensions>
          <ns3:TrackPointExtension>
            <ns3:hr>83</ns3:hr>
            <ns3:cad>0</ns3:cad>
          </ns3:TrackPointExtension>
        </extensions>
      </trkpt>
      <trkpt lat="37.989534437656402587890625" lon="-107.7369002066552639007568359375">
        <ele>3709</ele>
        <time>2026-08-15T17:53:48.000Z</time>
        <extensions>
          <ns3:TrackPointExtension>
            <ns3:hr>81</ns3:hr>
            <ns3:cad>0</ns3:cad>
          </ns3:TrackPointExtension>
        </extensions>
      </trkpt>
      <trkpt lat="37.98953376710414886474609375" lon="-107.73689744062721729278564453125">
        <ele>3708.800048828125</ele>
        <time>2026-08-15T17:53:49.000Z</time>
        <extensions>
          <ns3:TrackPointExtension>
            <ns3:hr>80</ns3:hr>
            <ns3:cad>0</ns3:cad>
          </ns3:TrackPointExtension>
        </extensions>
      </trkpt>
      <trkpt lat="37.989528067409992218017578125" lon="-107.736894004046916961669921875">
        <ele>3708.39990234375</ele>
        <time>2026-08-15T17:53:55.000Z</time>
        <extensions>
          <ns3:TrackPointExtension>
            <ns3:hr>79</ns3:hr>
            <ns3:cad>0</ns3:cad>
          </ns3:TrackPointExtension>
        </extensions>
      </trkpt>
      <trkpt lat="37.98952840268611907958984375" lon="-107.7368943393230438232421875">
        <ele>3708.199951171875</ele>
        <time>2026-08-15T17:54:01.000Z</time>
        <extensions>
          <ns3:TrackPointExtension>
            <ns3:hr>80</ns3:hr>
            <ns3:cad>0</ns3:cad>
          </ns3:TrackPointExtension>
        </extensions>
      </trkpt>
      <trkpt lat="37.98952580429613590240478515625" lon="-107.7368970215320587158203125">
        <ele>3707.800048828125</ele>
        <time>2026-08-15T17:54:06.000Z</time>
        <extensions>
          <ns3:TrackPointExtension>
            <ns3:hr>82</ns3:hr>
            <ns3:cad>0</ns3:cad>
          </ns3:TrackPointExtension>
        </extensions>
      </trkpt>
      <trkpt lat="37.9895035922527313232421875" lon="-107.73690230213105678558349609375">
        <ele>3708.199951171875</ele>
        <time>2026-08-15T17:54:10.000Z</time>
        <extensions>
          <ns3:TrackPointExtension>
            <ns3:hr>85</ns3:hr>
            <ns3:cad>0</ns3:cad>
          </ns3:TrackPointExtension>
        </extensions>
      </trkpt>
      <trkpt lat="37.98949998803436756134033203125" lon="-107.73690573871135711669921875">
        <ele>3708.199951171875</ele>
        <time>2026-08-15T17:54:12.000Z</time>
        <extensions>
          <ns3:TrackPointExtension>
            <ns3:hr>85</ns3:hr>
            <ns3:cad>0</ns3:cad>
          </ns3:TrackPointExtension>
        </extensions>
      </trkpt>
      <trkpt lat="37.9894888401031494140625" lon="-107.736906744539737701416015625">
        <ele>3708</ele>
        <time>2026-08-15T17:54:18.000Z</time>
        <extensions>
          <ns3:TrackPointExtension>
            <ns3:hr>85</ns3:hr>
            <ns3:cad>0</ns3:cad>
          </ns3:TrackPointExtension>
        </extensions>
      </trkpt>
      <trkpt lat="37.98948372714221477508544921875" lon="-107.73690012283623218536376953125">
        <ele>3708</ele>
        <time>2026-08-15T17:54:20.000Z</time>
        <extensions>
          <ns3:TrackPointExtension>
            <ns3:hr>88</ns3:hr>
            <ns3:cad>0</ns3:cad>
          </ns3:TrackPointExtension>
        </extensions>
      </trkpt>
      <trkpt lat="37.98947651870548725128173828125" lon="-107.73689844645559787750244140625">
        <ele>3707.800048828125</ele>
        <time>2026-08-15T17:54:21.000Z</time>
        <extensions>
          <ns3:TrackPointExtension>
            <ns3:hr>91</ns3:hr>
            <ns3:cad>0</ns3:cad>
          </ns3:TrackPointExtension>
        </extensions>
      </trkpt>
      <trkpt lat="37.98946830444037914276123046875" lon="-107.73689542897045612335205078125">
        <ele>3707.800048828125</ele>
        <time>2026-08-15T17:54:22.000Z</time>
        <extensions>
          <ns3:TrackPointExtension>
            <ns3:hr>92</ns3:hr>
            <ns3:cad>0</ns3:cad>
          </ns3:TrackPointExtension>
        </extensions>
      </trkpt>
      <trkpt lat="37.9894526302814483642578125" lon="-107.736892998218536376953125">
        <ele>3707.39990234375</ele>
        <time>2026-08-15T17:54:25.000Z</time>
        <extensions>
          <ns3:TrackPointExtension>
            <ns3:hr>89</ns3:hr>
            <ns3:cad>0</ns3:cad>
          </ns3:TrackPointExtension>
        </extensions>
      </trkpt>
      <trkpt lat="37.989442236721515655517578125" lon="-107.73688537068665027618408203125">
        <ele>3707.199951171875</ele>
        <time>2026-08-15T17:54:27.000Z</time>
        <extensions>
          <ns3:TrackPointExtension>
            <ns3:hr>87</ns3:hr>
            <ns3:cad>0</ns3:cad>
          </ns3:TrackPointExtension>
        </extensions>
      </trkpt>
      <trkpt lat="37.98942119814455509185791015625" lon="-107.73687489330768585205078125">
        <ele>3706.60009765625</ele>
        <time>2026-08-15T17:54:31.000Z</time>
        <extensions>
          <ns3:TrackPointExtension>
            <ns3:hr>87</ns3:hr>
            <ns3:cad>0</ns3:cad>
          </ns3:TrackPointExtension>
        </extensions>
      </trkpt>
      <trkpt lat="37.9894125647842884063720703125" lon="-107.73687212727963924407958984375">
        <ele>3706.39990234375</ele>
        <time>2026-08-15T17:54:35.000Z</time>
        <extensions>
          <ns3:TrackPointExtension>
            <ns3:hr>85</ns3:hr>
            <ns3:cad>0</ns3:cad>
          </ns3:TrackPointExtension>
        </extensions>
      </trkpt>
      <trkpt lat="37.98940879292786121368408203125" lon="-107.73687045089900493621826171875">
        <ele>3706.199951171875</ele>
        <time>2026-08-15T17:54:36.000Z</time>
        <extensions>
          <ns3:TrackPointExtension>
            <ns3:hr>82</ns3:hr>
            <ns3:cad>0</ns3:cad>
          </ns3:TrackPointExtension>
        </extensions>
      </trkpt>
      <trkpt lat="37.98939831554889678955078125" lon="-107.73686491884291172027587890625">
        <ele>3705.800048828125</ele>
        <time>2026-08-15T17:54:39.000Z</time>
        <extensions>
          <ns3:TrackPointExtension>
            <ns3:hr>79</ns3:hr>
            <ns3:cad>0</ns3:cad>
          </ns3:TrackPointExtension>
        </extensions>
      </trkpt>
      <trkpt lat="37.9893780313432216644287109375" lon="-107.736863158643245697021484375">
        <ele>3705.60009765625</ele>
        <time>2026-08-15T17:54:43.000Z</time>
        <extensions>
          <ns3:TrackPointExtension>
            <ns3:hr>79</ns3:hr>
            <ns3:cad>0</ns3:cad>
          </ns3:TrackPointExtension>
        </extensions>
      </trkpt>
      <trkpt lat="37.98937157727777957916259765625" lon="-107.73686106316745281219482421875">
        <ele>3705.199951171875</ele>
        <time>2026-08-15T17:54:49.000Z</time>
        <extensions>
          <ns3:TrackPointExtension>
            <ns3:hr>79</ns3:hr>
            <ns3:cad>0</ns3:cad>
          </ns3:TrackPointExtension>
        </extensions>
      </trkpt>
      <trkpt lat="37.98936545848846435546875" lon="-107.736858464777469635009765625">
        <ele>3705.199951171875</ele>
        <time>2026-08-15T17:54:51.000Z</time>
        <extensions>
          <ns3:TrackPointExtension>
            <ns3:hr>80</ns3:hr>
            <ns3:cad>0</ns3:cad>
          </ns3:TrackPointExtension>
        </extensions>
      </trkpt>
      <trkpt lat="37.989359088242053985595703125" lon="-107.7368567883968353271484375">
        <ele>3705</ele>
        <time>2026-08-15T17:54:53.000Z</time>
        <extensions>
          <ns3:TrackPointExtension>
            <ns3:hr>83</ns3:hr>
            <ns3:cad>0</ns3:cad>
          </ns3:TrackPointExtension>
        </extensions>
      </trkpt>
      <trkpt lat="37.98935011960566043853759765625" lon="-107.73685687221586704254150390625">
        <ele>3704.60009765625</ele>
        <time>2026-08-15T17:54:55.000Z</time>
        <extensions>
          <ns3:TrackPointExtension>
            <ns3:hr>88</ns3:hr>
            <ns3:cad>0</ns3:cad>
          </ns3:TrackPointExtension>
        </extensions>
      </trkpt>
      <trkpt lat="37.98934726975858211517333984375" lon="-107.7368552796542644500732421875">
        <ele>3704.60009765625</ele>
        <time>2026-08-15T17:54:56.000Z</time>
        <extensions>
          <ns3:TrackPointExtension>
            <ns3:hr>90</ns3:hr>
            <ns3:cad>0</ns3:cad>
          </ns3:TrackPointExtension>
        </extensions>
      </trkpt>
      <trkpt lat="37.9893346130847930908203125" lon="-107.7368418686091899871826171875">
        <ele>3704.199951171875</ele>
        <time>2026-08-15T17:54:58.000Z</time>
        <extensions>
          <ns3:TrackPointExtension>
            <ns3:hr>93</ns3:hr>
            <ns3:cad>0</ns3:cad>
          </ns3:TrackPointExtension>
        </extensions>
      </trkpt>
      <trkpt lat="37.98932799138128757476806640625" lon="-107.73683776147663593292236328125">
        <ele>3704</ele>
        <time>2026-08-15T17:54:59.000Z</time>
        <extensions>
          <ns3:TrackPointExtension>
            <ns3:hr>93</ns3:hr>
            <ns3:cad>0</ns3:cad>
          </ns3:TrackPointExtension>
        </extensions>
      </trkpt>
      <trkpt lat="37.9893190227448940277099609375" lon="-107.73684496991336345672607421875">
        <ele>3703.60009765625</ele>
        <time>2026-08-15T17:55:05.000Z</time>
        <extensions>
          <ns3:TrackPointExtension>
            <ns3:hr>93</ns3:hr>
            <ns3:cad>0</ns3:cad>
          </ns3:TrackPointExtension>
        </extensions>
      </trkpt>
      <trkpt lat="37.98929479904472827911376953125" lon="-107.73684832267463207244873046875">
        <ele>3703.60009765625</ele>
        <time>2026-08-15T17:55:11.000Z</time>
        <extensions>
          <ns3:TrackPointExtension>
            <ns3:hr>92</ns3:hr>
            <ns3:cad>0</ns3:cad>
          </ns3:TrackPointExtension>
        </extensions>
      </trkpt>
      <trkpt lat="37.9892891831696033477783203125" lon="-107.73684815503656864166259765625">
        <ele>3703.199951171875</ele>
        <time>2026-08-15T17:55:14.000Z</time>
        <extensions>
          <ns3:TrackPointExtension>
            <ns3:hr>89</ns3:hr>
            <ns3:cad>0</ns3:cad>
          </ns3:TrackPointExtension>
        </extensions>
      </trkpt>
      <trkpt lat="37.9892891831696033477783203125" lon="-107.73684815503656864166259765625">
        <ele>3703</ele>
        <time>2026-08-15T17:55:15.000Z</time>
        <extensions>
          <ns3:TrackPointExtension>
            <ns3:hr>89</ns3:hr>
            <ns3:cad>0</ns3:cad>
          </ns3:TrackPointExtension>
        </extensions>
      </trkpt>
      <trkpt lat="37.9892630316317081451416015625" lon="-107.7368529327213764190673828125">
        <ele>3703.60009765625</ele>
        <time>2026-08-15T17:55:21.000Z</time>
        <extensions>
          <ns3:TrackPointExtension>
            <ns3:hr>89</ns3:hr>
            <ns3:cad>62</ns3:cad>
          </ns3:TrackPointExtension>
        </extensions>
      </trkpt>
      <trkpt lat="37.98922841437160968780517578125" lon="-107.7368482388556003570556640625">
        <ele>3702.800048828125</ele>
        <time>2026-08-15T17:55:27.000Z</time>
        <extensions>
          <ns3:TrackPointExtension>
            <ns3:hr>91</ns3:hr>
            <ns3:cad>0</ns3:cad>
          </ns3:TrackPointExtension>
        </extensions>
      </trkpt>
      <trkpt lat="37.98921299166977405548095703125" lon="-107.73684614337980747222900390625">
        <ele>3702.800048828125</ele>
        <time>2026-08-15T17:55:29.000Z</time>
        <extensions>
          <ns3:TrackPointExtension>
            <ns3:hr>91</ns3:hr>
            <ns3:cad>0</ns3:cad>
          </ns3:TrackPointExtension>
        </extensions>
      </trkpt>
      <trkpt lat="37.98919036053121089935302734375" lon="-107.73683943785727024078369140625">
        <ele>3702.800048828125</ele>
        <time>2026-08-15T17:55:34.000Z</time>
        <extensions>
          <ns3:TrackPointExtension>
            <ns3:hr>91</ns3:hr>
            <ns3:cad>0</ns3:cad>
          </ns3:TrackPointExtension>
        </extensions>
      </trkpt>
      <trkpt lat="37.98919438384473323822021484375" lon="-107.73682124912738800048828125">
        <ele>3702.800048828125</ele>
        <time>2026-08-15T17:55:40.000Z</time>
        <extensions>
          <ns3:TrackPointExtension>
            <ns3:hr>89</ns3:hr>
            <ns3:cad>0</ns3:cad>
          </ns3:TrackPointExtension>
        </extensions>
      </trkpt>
      <trkpt lat="37.98919538967311382293701171875" lon="-107.73681747727096080780029296875">
        <ele>3702.60009765625</ele>
        <time>2026-08-15T17:55:41.000Z</time>
        <extensions>
          <ns3:TrackPointExtension>
            <ns3:hr>89</ns3:hr>
            <ns3:cad>0</ns3:cad>
          </ns3:TrackPointExtension>
        </extensions>
      </trkpt>
      <trkpt lat="37.9891936294734477996826171875" lon="-107.73681546561419963836669921875">
        <ele>3702.39990234375</ele>
        <time>2026-08-15T17:55:42.000Z</time>
        <extensions>
          <ns3:TrackPointExtension>
            <ns3:hr>88</ns3:hr>
            <ns3:cad>0</ns3:cad>
          </ns3:TrackPointExtension>
        </extensions>
      </trkpt>
      <trkpt lat="37.9891939647495746612548828125" lon="-107.7367986179888248443603515625">
        <ele>3701.39990234375</ele>
        <time>2026-08-15T17:55:47.000Z</time>
        <extensions>
          <ns3:TrackPointExtension>
            <ns3:hr>91</ns3:hr>
            <ns3:cad>0</ns3:cad>
          </ns3:TrackPointExtension>
        </extensions>
      </trkpt>
      <trkpt lat="37.989194132387638092041015625" lon="-107.7367868833243846893310546875">
        <ele>3700.800048828125</ele>
        <time>2026-08-15T17:55:50.000Z</time>
        <extensions>
          <ns3:TrackPointExtension>
            <ns3:hr>94</ns3:hr>
            <ns3:cad>0</ns3:cad>
          </ns3:TrackPointExtension>
        </extensions>
      </trkpt>
      <trkpt lat="37.9891969822347164154052734375" lon="-107.73677808232605457305908203125">
        <ele>3700.199951171875</ele>
        <time>2026-08-15T17:55:52.000Z</time>
        <extensions>
          <ns3:TrackPointExtension>
            <ns3:hr>95</ns3:hr>
            <ns3:cad>0</ns3:cad>
          </ns3:TrackPointExtension>
        </extensions>
      </trkpt>
      <trkpt lat="37.98919756896793842315673828125" lon="-107.73677741177380084991455078125">
        <ele>3700</ele>
        <time>2026-08-15T17:55:53.000Z</time>
        <extensions>
          <ns3:TrackPointExtension>
            <ns3:hr>95</ns3:hr>
            <ns3:cad>0</ns3:cad>
          </ns3:TrackPointExtension>
        </extensions>
      </trkpt>
      <trkpt lat="37.98918918706476688385009765625" lon="-107.73676148615777492523193359375">
        <ele>3699</ele>
        <time>2026-08-15T17:55:58.000Z</time>
        <extensions>
          <ns3:TrackPointExtension>
            <ns3:hr>95</ns3:hr>
            <ns3:cad>0</ns3:cad>
          </ns3:TrackPointExtension>
        </extensions>
      </trkpt>
      <trkpt lat="37.9891899414360523223876953125" lon="-107.736763916909694671630859375">
        <ele>3698.60009765625</ele>
        <time>2026-08-15T17:56:00.000Z</time>
        <extensions>
          <ns3:TrackPointExtension>
            <ns3:hr>96</ns3:hr>
            <ns3:cad>0</ns3:cad>
          </ns3:TrackPointExtension>
        </extensions>
      </trkpt>
      <trkpt lat="37.9891865886747837066650390625" lon="-107.736757211387157440185546875">
        <ele>3698.39990234375</ele>
        <time>2026-08-15T17:56:01.000Z</time>
        <extensions>
          <ns3:TrackPointExtension>
            <ns3:hr>99</ns3:hr>
            <ns3:cad>0</ns3:cad>
          </ns3:TrackPointExtension>
        </extensions>
      </trkpt>
      <trkpt lat="37.98917225562036037445068359375" lon="-107.73674321360886096954345703125">
        <ele>3697.800048828125</ele>
        <time>2026-08-15T17:56:05.000Z</time>
        <extensions>
          <ns3:TrackPointExtension>
            <ns3:hr>99</ns3:hr>
            <ns3:cad>0</ns3:cad>
          </ns3:TrackPointExtension>
        </extensions>
      </trkpt>
      <trkpt lat="37.98917192034423351287841796875" lon="-107.7367412857711315155029296875">
        <ele>3697.60009765625</ele>
        <time>2026-08-15T17:56:07.000Z</time>
        <extensions>
          <ns3:TrackPointExtension>
            <ns3:hr>99</ns3:hr>
            <ns3:cad>0</ns3:cad>
          </ns3:TrackPointExtension>
        </extensions>
      </trkpt>
      <trkpt lat="37.98917946405708789825439453125" lon="-107.73672410286962985992431640625">
        <ele>3697.39990234375</ele>
        <time>2026-08-15T17:56:13.000Z</time>
        <extensions>
          <ns3:TrackPointExtension>
            <ns3:hr>98</ns3:hr>
            <ns3:cad>0</ns3:cad>
          </ns3:TrackPointExtension>
        </extensions>
      </trkpt>
      <trkpt lat="37.98917963169515132904052734375" lon="-107.73671530187129974365234375">
        <ele>3697.199951171875</ele>
        <time>2026-08-15T17:56:14.000Z</time>
        <extensions>
          <ns3:TrackPointExtension>
            <ns3:hr>98</ns3:hr>
            <ns3:cad>0</ns3:cad>
          </ns3:TrackPointExtension>
        </extensions>
      </trkpt>
      <trkpt lat="37.98917929641902446746826171875" lon="-107.73670951835811138153076171875">
        <ele>3696.800048828125</ele>
        <time>2026-08-15T17:56:16.000Z</time>
        <extensions>
          <ns3:TrackPointExtension>
            <ns3:hr>98</ns3:hr>
            <ns3:cad>0</ns3:cad>
          </ns3:TrackPointExtension>
        </extensions>
      </trkpt>
      <trkpt lat="37.989180721342563629150390625" lon="-107.73670666851103305816650390625">
        <ele>3696.199951171875</ele>
        <time>2026-08-15T17:56:21.000Z</time>
        <extensions>
          <ns3:TrackPointExtension>
            <ns3:hr>98</ns3:hr>
            <ns3:cad>0</ns3:cad>
          </ns3:TrackPointExtension>
        </extensions>
      </trkpt>
      <trkpt lat="37.98917963169515132904052734375" lon="-107.736705578863620758056640625">
        <ele>3695.60009765625</ele>
        <time>2026-08-15T17:56:25.000Z</time>
        <extensions>
          <ns3:TrackPointExtension>
            <ns3:hr>97</ns3:hr>
            <ns3:cad>0</ns3:cad>
          </ns3:TrackPointExtension>
        </extensions>
      </trkpt>
      <trkpt lat="37.98917426727712154388427734375" lon="-107.7366963587701320648193359375">
        <ele>3694.39990234375</ele>
        <time>2026-08-15T17:56:28.000Z</time>
        <extensions>
          <ns3:TrackPointExtension>
            <ns3:hr>98</ns3:hr>
            <ns3:cad>0</ns3:cad>
          </ns3:TrackPointExtension>
        </extensions>
      </trkpt>
      <trkpt lat="37.989176698029041290283203125" lon="-107.7366859652101993560791015625">
        <ele>3694.39990234375</ele>
        <time>2026-08-15T17:56:34.000Z</time>
        <extensions>
          <ns3:TrackPointExtension>
            <ns3:hr>98</ns3:hr>
            <ns3:cad>0</ns3:cad>
          </ns3:TrackPointExtension>
        </extensions>
      </trkpt>
      <trkpt lat="37.989176698029041290283203125" lon="-107.7366859652101993560791015625">
        <ele>3694.60009765625</ele>
        <time>2026-08-15T17:56:36.000Z</time>
        <extensions>
          <ns3:TrackPointExtension>
            <ns3:hr>97</ns3:hr>
            <ns3:cad>0</ns3:cad>
          </ns3:TrackPointExtension>
        </extensions>
      </trkpt>
      <trkpt lat="37.989176698029041290283203125" lon="-107.7366859652101993560791015625">
        <ele>3694.39990234375</ele>
        <time>2026-08-15T17:56:39.000Z</time>
        <extensions>
          <ns3:TrackPointExtension>
            <ns3:hr>94</ns3:hr>
            <ns3:cad>0</ns3:cad>
          </ns3:TrackPointExtension>
        </extensions>
      </trkpt>
      <trkpt lat="37.989176698029041290283203125" lon="-107.7366859652101993560791015625">
        <ele>3695</ele>
        <time>2026-08-15T17:56:45.000Z</time>
        <extensions>
          <ns3:TrackPointExtension>
            <ns3:hr>93</ns3:hr>
            <ns3:cad>0</ns3:cad>
          </ns3:TrackPointExtension>
        </extensions>
      </trkpt>
      <trkpt lat="37.989176698029041290283203125" lon="-107.7366859652101993560791015625">
        <ele>3694.199951171875</ele>
        <time>2026-08-15T17:56:51.000Z</time>
        <extensions>
          <ns3:TrackPointExtension>
            <ns3:hr>94</ns3:hr>
            <ns3:cad>0</ns3:cad>
          </ns3:TrackPointExtension>
        </extensions>
      </trkpt>
      <trkpt lat="37.989176698029041290283203125" lon="-107.7366859652101993560791015625">
        <ele>3694</ele>
        <time>2026-08-15T17:56:53.000Z</time>
        <extensions>
          <ns3:TrackPointExtension>
            <ns3:hr>95</ns3:hr>
            <ns3:cad>0</ns3:cad>
          </ns3:TrackPointExtension>
        </extensions>
      </trkpt>
      <trkpt lat="37.98917845822870731353759765625" lon="-107.73670113645493984222412109375">
        <ele>3693.60009765625</ele>
        <time>2026-08-15T17:56:59.000Z</time>
        <extensions>
          <ns3:TrackPointExtension>
            <ns3:hr>98</ns3:hr>
            <ns3:cad>55</ns3:cad>
          </ns3:TrackPointExtension>
        </extensions>
      </trkpt>
      <trkpt lat="37.9891832359135150909423828125" lon="-107.736689485609531402587890625">
        <ele>3693.60009765625</ele>
        <time>2026-08-15T17:57:01.000Z</time>
        <extensions>
          <ns3:TrackPointExtension>
            <ns3:hr>102</ns3:hr>
            <ns3:cad>55</ns3:cad>
          </ns3:TrackPointExtension>
        </extensions>
      </trkpt>
      <trkpt lat="37.98919220454990863800048828125" lon="-107.73668713867664337158203125">
        <ele>3693.39990234375</ele>
        <time>2026-08-15T17:57:03.000Z</time>
        <extensions>
          <ns3:TrackPointExtension>
            <ns3:hr>104</ns3:hr>
            <ns3:cad>55</ns3:cad>
          </ns3:TrackPointExtension>
        </extensions>
      </trkpt>
      <trkpt lat="37.98919404856860637664794921875" lon="-107.73666995577514171600341796875">
        <ele>3693.199951171875</ele>
        <time>2026-08-15T17:57:04.000Z</time>
        <extensions>
          <ns3:TrackPointExtension>
            <ns3:hr>105</ns3:hr>
            <ns3:cad>55</ns3:cad>
          </ns3:TrackPointExtension>
        </extensions>
      </trkpt>
      <trkpt lat="37.98919756896793842315673828125" lon="-107.7366460673511028289794921875">
        <ele>3692.39990234375</ele>
        <time>2026-08-15T17:57:09.000Z</time>
        <extensions>
          <ns3:TrackPointExtension>
            <ns3:hr>104</ns3:hr>
            <ns3:cad>0</ns3:cad>
          </ns3:TrackPointExtension>
        </extensions>
      </trkpt>
      <trkpt lat="37.9892003349959850311279296875" lon="-107.7366234362125396728515625">
        <ele>3691.199951171875</ele>
        <time>2026-08-15T17:57:14.000Z</time>
        <extensions>
          <ns3:TrackPointExtension>
            <ns3:hr>102</ns3:hr>
            <ns3:cad>0</ns3:cad>
          </ns3:TrackPointExtension>
        </extensions>
      </trkpt>
      <trkpt lat="37.98920117318630218505859375" lon="-107.7366078458726406097412109375">
        <ele>3690.199951171875</ele>
        <time>2026-08-15T17:57:19.000Z</time>
        <extensions>
          <ns3:TrackPointExtension>
            <ns3:hr>102</ns3:hr>
            <ns3:cad>0</ns3:cad>
          </ns3:TrackPointExtension>
        </extensions>
      </trkpt>
      <trkpt lat="37.9892005026340484619140625" lon="-107.73660759441554546356201171875">
        <ele>3690.199951171875</ele>
        <time>2026-08-15T17:57:20.000Z</time>
        <extensions>
          <ns3:TrackPointExtension>
            <ns3:hr>101</ns3:hr>
            <ns3:cad>0</ns3:cad>
          </ns3:TrackPointExtension>
        </extensions>
      </trkpt>
      <trkpt lat="37.98919287510216236114501953125" lon="-107.7366046607494354248046875">
        <ele>3689.800048828125</ele>
        <time>2026-08-15T17:57:26.000Z</time>
        <extensions>
          <ns3:TrackPointExtension>
            <ns3:hr>100</ns3:hr>
            <ns3:cad>0</ns3:cad>
          </ns3:TrackPointExtension>
        </extensions>
      </trkpt>
      <trkpt lat="37.9891882650554180145263671875" lon="-107.7365930937230587005615234375">
        <ele>3689.39990234375</ele>
        <time>2026-08-15T17:57:28.000Z</time>
        <extensions>
          <ns3:TrackPointExtension>
            <ns3:hr>100</ns3:hr>
            <ns3:cad>0</ns3:cad>
          </ns3:TrackPointExtension>
        </extensions>
      </trkpt>
      <trkpt lat="37.989184744656085968017578125" lon="-107.73658387362957000732421875">
        <ele>3689.199951171875</ele>
        <time>2026-08-15T17:57:30.000Z</time>
        <extensions>
          <ns3:TrackPointExtension>
            <ns3:hr>100</ns3:hr>
            <ns3:cad>0</ns3:cad>
          </ns3:TrackPointExtension>
        </extensions>
      </trkpt>
      <trkpt lat="37.9891859181225299835205078125" lon="-107.7365843765437602996826171875">
        <ele>3689</ele>
        <time>2026-08-15T17:57:32.000Z</time>
        <extensions>
          <ns3:TrackPointExtension>
            <ns3:hr>97</ns3:hr>
            <ns3:cad>0</ns3:cad>
          </ns3:TrackPointExtension>
        </extensions>
      </trkpt>
      <trkpt lat="37.989194132387638092041015625" lon="-107.73658311925828456878662109375">
        <ele>3688.800048828125</ele>
        <time>2026-08-15T17:57:35.000Z</time>
        <extensions>
          <ns3:TrackPointExtension>
            <ns3:hr>101</ns3:hr>
            <ns3:cad>0</ns3:cad>
          </ns3:TrackPointExtension>
        </extensions>
      </trkpt>
      <trkpt lat="37.98919622786343097686767578125" lon="-107.73657909594476222991943359375">
        <ele>3688.39990234375</ele>
        <time>2026-08-15T17:57:36.000Z</time>
        <extensions>
          <ns3:TrackPointExtension>
            <ns3:hr>101</ns3:hr>
            <ns3:cad>0</ns3:cad>
          </ns3:TrackPointExtension>
        </extensions>
      </trkpt>
      <trkpt lat="37.98920008353888988494873046875" lon="-107.7365776710212230682373046875">
        <ele>3688</ele>
        <time>2026-08-15T17:57:38.000Z</time>
        <extensions>
          <ns3:TrackPointExtension>
            <ns3:hr>103</ns3:hr>
            <ns3:cad>0</ns3:cad>
          </ns3:TrackPointExtension>
        </extensions>
      </trkpt>
      <trkpt lat="37.989185750484466552734375" lon="-107.736552022397518157958984375">
        <ele>3687.199951171875</ele>
        <time>2026-08-15T17:57:42.000Z</time>
        <extensions>
          <ns3:TrackPointExtension>
            <ns3:hr>103</ns3:hr>
            <ns3:cad>0</ns3:cad>
          </ns3:TrackPointExtension>
        </extensions>
      </trkpt>
      <trkpt lat="37.98918164335191249847412109375" lon="-107.7365374378859996795654296875">
        <ele>3687</ele>
        <time>2026-08-15T17:57:45.000Z</time>
        <extensions>
          <ns3:TrackPointExtension>
            <ns3:hr>100</ns3:hr>
            <ns3:cad>0</ns3:cad>
          </ns3:TrackPointExtension>
        </extensions>
      </trkpt>
      <trkpt lat="37.9891790449619293212890625" lon="-107.73653517477214336395263671875">
        <ele>3686.800048828125</ele>
        <time>2026-08-15T17:57:47.000Z</time>
        <extensions>
          <ns3:TrackPointExtension>
            <ns3:hr>99</ns3:hr>
            <ns3:cad>0</ns3:cad>
          </ns3:TrackPointExtension>
        </extensions>
      </trkpt>
      <trkpt lat="37.9891852475702762603759765625" lon="-107.7365303970873355865478515625">
        <ele>3686.199951171875</ele>
        <time>2026-08-15T17:57:50.000Z</time>
        <extensions>
          <ns3:TrackPointExtension>
            <ns3:hr>96</ns3:hr>
            <ns3:cad>0</ns3:cad>
          </ns3:TrackPointExtension>
        </extensions>
      </trkpt>
      <trkpt lat="37.98918533138930797576904296875" lon="-107.7365193329751491546630859375">
        <ele>3685.800048828125</ele>
        <time>2026-08-15T17:57:52.000Z</time>
        <extensions>
          <ns3:TrackPointExtension>
            <ns3:hr>95</ns3:hr>
            <ns3:cad>0</ns3:cad>
          </ns3:TrackPointExtension>
        </extensions>
      </trkpt>
      <trkpt lat="37.98918767832219600677490234375" lon="-107.73650701157748699188232421875">
        <ele>3685.39990234375</ele>
        <time>2026-08-15T17:57:55.000Z</time>
        <extensions>
          <ns3:TrackPointExtension>
            <ns3:hr>95</ns3:hr>
            <ns3:cad>0</ns3:cad>
          </ns3:TrackPointExtension>
        </extensions>
      </trkpt>
      <trkpt lat="37.9891829006373882293701171875" lon="-107.7364730648696422576904296875">
        <ele>3684.60009765625</ele>
        <time>2026-08-15T17:58:00.000Z</time>
        <extensions>
          <ns3:TrackPointExtension>
            <ns3:hr>95</ns3:hr>
            <ns3:cad>0</ns3:cad>
          </ns3:TrackPointExtension>
        </extensions>
      </trkpt>
      <trkpt lat="37.98918432556092739105224609375" lon="-107.736469209194183349609375">
        <ele>3684.60009765625</ele>
        <time>2026-08-15T17:58:01.000Z</time>
        <extensions>
          <ns3:TrackPointExtension>
            <ns3:hr>96</ns3:hr>
            <ns3:cad>0</ns3:cad>
          </ns3:TrackPointExtension>
        </extensions>
      </trkpt>
      <trkpt lat="37.98917946405708789825439453125" lon="-107.7364544570446014404296875">
        <ele>3683.60009765625</ele>
        <time>2026-08-15T17:58:06.000Z</time>
        <extensions>
          <ns3:TrackPointExtension>
            <ns3:hr>97</ns3:hr>
            <ns3:cad>0</ns3:cad>
          </ns3:TrackPointExtension>
        </extensions>
      </trkpt>
      <trkpt lat="37.98917946405708789825439453125" lon="-107.73645319975912570953369140625">
        <ele>3683.39990234375</ele>
        <time>2026-08-15T17:58:07.000Z</time>
        <extensions>
          <ns3:TrackPointExtension>
            <ns3:hr>98</ns3:hr>
            <ns3:cad>0</ns3:cad>
          </ns3:TrackPointExtension>
        </extensions>
      </trkpt>
      <trkpt lat="37.98917158506810665130615234375" lon="-107.73645102046430110931396484375">
        <ele>3682.60009765625</ele>
        <time>2026-08-15T17:58:13.000Z</time>
        <extensions>
          <ns3:TrackPointExtension>
            <ns3:hr>95</ns3:hr>
            <ns3:cad>0</ns3:cad>
          </ns3:TrackPointExtension>
        </extensions>
      </trkpt>
      <trkpt lat="37.989169657230377197265625" lon="-107.73645110428333282470703125">
        <ele>3682.60009765625</ele>
        <time>2026-08-15T17:58:14.000Z</time>
        <extensions>
          <ns3:TrackPointExtension>
            <ns3:hr>94</ns3:hr>
            <ns3:cad>0</ns3:cad>
          </ns3:TrackPointExtension>
        </extensions>
      </trkpt>
      <trkpt lat="37.98916739411652088165283203125" lon="-107.7364506013691425323486328125">
        <ele>3682.39990234375</ele>
        <time>2026-08-15T17:58:20.000Z</time>
        <extensions>
          <ns3:TrackPointExtension>
            <ns3:hr>93</ns3:hr>
            <ns3:cad>0</ns3:cad>
          </ns3:TrackPointExtension>
        </extensions>
      </trkpt>
      <trkpt lat="37.98916739411652088165283203125" lon="-107.7364506013691425323486328125">
        <ele>3682.199951171875</ele>
        <time>2026-08-15T17:58:23.000Z</time>
        <extensions>
          <ns3:TrackPointExtension>
            <ns3:hr>93</ns3:hr>
            <ns3:cad>0</ns3:cad>
          </ns3:TrackPointExtension>
        </extensions>
      </trkpt>
      <trkpt lat="37.98916739411652088165283203125" lon="-107.7364506013691425323486328125">
        <ele>3682.60009765625</ele>
        <time>2026-08-15T17:58:27.000Z</time>
        <extensions>
          <ns3:TrackPointExtension>
            <ns3:hr>90</ns3:hr>
            <ns3:cad>0</ns3:cad>
          </ns3:TrackPointExtension>
        </extensions>
      </trkpt>
      <trkpt lat="37.9891768656671047210693359375" lon="-107.73643677122890949249267578125">
        <ele>3683.199951171875</ele>
        <time>2026-08-15T17:58:31.000Z</time>
        <extensions>
          <ns3:TrackPointExtension>
            <ns3:hr>89</ns3:hr>
            <ns3:cad>0</ns3:cad>
          </ns3:TrackPointExtension>
        </extensions>
      </trkpt>
      <trkpt lat="37.98918013460934162139892578125" lon="-107.73640324361622333526611328125">
        <ele>3682</ele>
        <time>2026-08-15T17:58:37.000Z</time>
        <extensions>
          <ns3:TrackPointExtension>
            <ns3:hr>89</ns3:hr>
            <ns3:cad>62</ns3:cad>
          </ns3:TrackPointExtension>
        </extensions>
      </trkpt>
      <trkpt lat="37.9891763627529144287109375" lon="-107.73639620281755924224853515625">
        <ele>3681.60009765625</ele>
        <time>2026-08-15T17:58:38.000Z</time>
        <extensions>
          <ns3:TrackPointExtension>
            <ns3:hr>89</ns3:hr>
            <ns3:cad>62</ns3:cad>
          </ns3:TrackPointExtension>
        </extensions>
      </trkpt>
      <trkpt lat="37.9891617782413959503173828125" lon="-107.73637457750737667083740234375">
        <ele>3680.39990234375</ele>
        <time>2026-08-15T17:58:42.000Z</time>
        <extensions>
          <ns3:TrackPointExtension>
            <ns3:hr>90</ns3:hr>
            <ns3:cad>0</ns3:cad>
          </ns3:TrackPointExtension>
        </extensions>
      </trkpt>
      <trkpt lat="37.98915289342403411865234375" lon="-107.73637407459318637847900390625">
        <ele>3680.199951171875</ele>
        <time>2026-08-15T17:58:43.000Z</time>
        <extensions>
          <ns3:TrackPointExtension>
            <ns3:hr>91</ns3:hr>
            <ns3:cad>0</ns3:cad>
          </ns3:TrackPointExtension>
        </extensions>
      </trkpt>
      <trkpt lat="37.989144511520862579345703125" lon="-107.73637122474610805511474609375">
        <ele>3680</ele>
        <time>2026-08-15T17:58:45.000Z</time>
        <extensions>
          <ns3:TrackPointExtension>
            <ns3:hr>92</ns3:hr>
            <ns3:cad>0</ns3:cad>
          </ns3:TrackPointExtension>
        </extensions>
      </trkpt>
      <trkpt lat="37.9891124926507472991943359375" lon="-107.73634591139853000640869140625">
        <ele>3679.800048828125</ele>
        <time>2026-08-15T17:58:51.000Z</time>
        <extensions>
          <ns3:TrackPointExtension>
            <ns3:hr>91</ns3:hr>
            <ns3:cad>0</ns3:cad>
          </ns3:TrackPointExtension>
        </extensions>
      </trkpt>
      <trkpt lat="37.98908290453255176544189453125" lon="-107.73632512427866458892822265625">
        <ele>3679.39990234375</ele>
        <time>2026-08-15T17:58:56.000Z</time>
        <extensions>
          <ns3:TrackPointExtension>
            <ns3:hr>90</ns3:hr>
            <ns3:cad>53</ns3:cad>
          </ns3:TrackPointExtension>
        </extensions>
      </trkpt>
      <trkpt lat="37.98907049931585788726806640625" lon="-107.73631003685295581817626953125">
        <ele>3679.199951171875</ele>
        <time>2026-08-15T17:58:58.000Z</time>
        <extensions>
          <ns3:TrackPointExtension>
            <ns3:hr>91</ns3:hr>
            <ns3:cad>0</ns3:cad>
          </ns3:TrackPointExtension>
        </extensions>
      </trkpt>
      <trkpt lat="37.9890370555222034454345703125" lon="-107.736284472048282623291015625">
        <ele>3678.800048828125</ele>
        <time>2026-08-15T17:59:04.000Z</time>
        <extensions>
          <ns3:TrackPointExtension>
            <ns3:hr>91</ns3:hr>
            <ns3:cad>0</ns3:cad>
          </ns3:TrackPointExtension>
        </extensions>
      </trkpt>
      <trkpt lat="37.98902624286711215972900390625" lon="-107.7362749166786670684814453125">
        <ele>3678.199951171875</ele>
        <time>2026-08-15T17:59:06.000Z</time>
        <extensions>
          <ns3:TrackPointExtension>
            <ns3:hr>91</ns3:hr>
            <ns3:cad>0</ns3:cad>
          </ns3:TrackPointExtension>
        </extensions>
      </trkpt>
      <trkpt lat="37.98901618458330631256103515625" lon="-107.73625941015779972076416015625">
        <ele>3677.199951171875</ele>
        <time>2026-08-15T17:59:12.000Z</time>
        <extensions>
          <ns3:TrackPointExtension>
            <ns3:hr>93</ns3:hr>
            <ns3:cad>0</ns3:cad>
          </ns3:TrackPointExtension>
        </extensions>
      </trkpt>
      <trkpt lat="37.98903378657996654510498046875" lon="-107.73624398745596408843994140625">
        <ele>3677.199951171875</ele>
        <time>2026-08-15T17:59:13.000Z</time>
        <extensions>
          <ns3:TrackPointExtension>
            <ns3:hr>93</ns3:hr>
            <ns3:cad>0</ns3:cad>
          </ns3:TrackPointExtension>
        </extensions>
      </trkpt>
      <trkpt lat="37.98904015682637691497802734375" lon="-107.73623342625796794891357421875">
        <ele>3677</ele>
        <time>2026-08-15T17:59:15.000Z</time>
        <extensions>
          <ns3:TrackPointExtension>
            <ns3:hr>92</ns3:hr>
            <ns3:cad>0</ns3:cad>
          </ns3:TrackPointExtension>
        </extensions>
      </trkpt>
      <trkpt lat="37.98904149793088436126708984375" lon="-107.736210040748119354248046875">
        <ele>3676</ele>
        <time>2026-08-15T17:59:18.000Z</time>
        <extensions>
          <ns3:TrackPointExtension>
            <ns3:hr>93</ns3:hr>
            <ns3:cad>55</ns3:cad>
          </ns3:TrackPointExtension>
        </extensions>
      </trkpt>
      <trkpt lat="37.98904166556894779205322265625" lon="-107.73620844818651676177978515625">
        <ele>3675.800048828125</ele>
        <time>2026-08-15T17:59:19.000Z</time>
        <extensions>
          <ns3:TrackPointExtension>
            <ns3:hr>93</ns3:hr>
            <ns3:cad>0</ns3:cad>
          </ns3:TrackPointExtension>
        </extensions>
      </trkpt>
      <trkpt lat="37.98904133029282093048095703125" lon="-107.73620702326297760009765625">
        <ele>3675.800048828125</ele>
        <time>2026-08-15T17:59:25.000Z</time>
        <extensions>
          <ns3:TrackPointExtension>
            <ns3:hr>93</ns3:hr>
            <ns3:cad>0</ns3:cad>
          </ns3:TrackPointExtension>
        </extensions>
      </trkpt>
      <trkpt lat="37.98903646878898143768310546875" lon="-107.73619973100721836090087890625">
        <ele>3675.800048828125</ele>
        <time>2026-08-15T17:59:29.000Z</time>
        <extensions>
          <ns3:TrackPointExtension>
            <ns3:hr>95</ns3:hr>
            <ns3:cad>0</ns3:cad>
          </ns3:TrackPointExtension>
        </extensions>
      </trkpt>
      <trkpt lat="37.98904133029282093048095703125" lon="-107.73620702326297760009765625">
        <ele>3676.199951171875</ele>
        <time>2026-08-15T17:59:35.000Z</time>
        <extensions>
          <ns3:TrackPointExtension>
            <ns3:hr>94</ns3:hr>
            <ns3:cad>0</ns3:cad>
          </ns3:TrackPointExtension>
        </extensions>
      </trkpt>
      <trkpt lat="37.989013753831386566162109375" lon="-107.73618229664862155914306640625">
        <ele>3675.800048828125</ele>
        <time>2026-08-15T17:59:39.000Z</time>
        <extensions>
          <ns3:TrackPointExtension>
            <ns3:hr>95</ns3:hr>
            <ns3:cad>0</ns3:cad>
          </ns3:TrackPointExtension>
        </extensions>
      </trkpt>
      <trkpt lat="37.98899690620601177215576171875" lon="-107.73615044541656970977783203125">
        <ele>3674.800048828125</ele>
        <time>2026-08-15T17:59:44.000Z</time>
        <extensions>
          <ns3:TrackPointExtension>
            <ns3:hr>96</ns3:hr>
            <ns3:cad>0</ns3:cad>
          </ns3:TrackPointExtension>
        </extensions>
      </trkpt>
      <trkpt lat="37.98898466862738132476806640625" lon="-107.73613904602825641632080078125">
        <ele>3674.60009765625</ele>
        <time>2026-08-15T17:59:46.000Z</time>
        <extensions>
          <ns3:TrackPointExtension>
            <ns3:hr>96</ns3:hr>
            <ns3:cad>75</ns3:cad>
          </ns3:TrackPointExtension>
        </extensions>
      </trkpt>
      <trkpt lat="37.98894627951085567474365234375" lon="-107.73610107600688934326171875">
        <ele>3674</ele>
        <time>2026-08-15T17:59:52.000Z</time>
        <extensions>
          <ns3:TrackPointExtension>
            <ns3:hr>97</ns3:hr>
            <ns3:cad>0</ns3:cad>
          </ns3:TrackPointExtension>
        </extensions>
      </trkpt>
      <trkpt lat="37.98892683349549770355224609375" lon="-107.73607785813510417938232421875">
        <ele>3673.60009765625</ele>
        <time>2026-08-15T17:59:55.000Z</time>
        <extensions>
          <ns3:TrackPointExtension>
            <ns3:hr>98</ns3:hr>
            <ns3:cad>0</ns3:cad>
          </ns3:TrackPointExtension>
        </extensions>
      </trkpt>
      <trkpt lat="37.98890872858464717864990234375" lon="-107.7360573224723339080810546875">
        <ele>3673.60009765625</ele>
        <time>2026-08-15T17:59:59.000Z</time>
        <extensions>
          <ns3:TrackPointExtension>
            <ns3:hr>98</ns3:hr>
            <ns3:cad>0</ns3:cad>
          </ns3:TrackPointExtension>
        </extensions>
      </trkpt>
      <trkpt lat="37.988893054425716400146484375" lon="-107.736049108207225799560546875">
        <ele>3673.800048828125</ele>
        <time>2026-08-15T18:00:02.000Z</time>
        <extensions>
          <ns3:TrackPointExtension>
            <ns3:hr>95</ns3:hr>
            <ns3:cad>0</ns3:cad>
          </ns3:TrackPointExtension>
        </extensions>
      </trkpt>
      <trkpt lat="37.98887637443840503692626953125" lon="-107.7360308356583118438720703125">
        <ele>3674.199951171875</ele>
        <time>2026-08-15T18:00:06.000Z</time>
        <extensions>
          <ns3:TrackPointExtension>
            <ns3:hr>93</ns3:hr>
            <ns3:cad>0</ns3:cad>
          </ns3:TrackPointExtension>
        </extensions>
      </trkpt>
      <trkpt lat="37.988843433558940887451171875" lon="-107.735998146235942840576171875">
        <ele>3674.60009765625</ele>
        <time>2026-08-15T18:00:12.000Z</time>
        <extensions>
          <ns3:TrackPointExtension>
            <ns3:hr>95</ns3:hr>
            <ns3:cad>56</ns3:cad>
          </ns3:TrackPointExtension>
        </extensions>
      </trkpt>
      <trkpt lat="37.9888429306447505950927734375" lon="-107.7359845675528049468994140625">
        <ele>3674.800048828125</ele>
        <time>2026-08-15T18:00:13.000Z</time>
        <extensions>
          <ns3:TrackPointExtension>
            <ns3:hr>96</ns3:hr>
            <ns3:cad>56</ns3:cad>
          </ns3:TrackPointExtension>
        </extensions>
      </trkpt>
      <trkpt lat="37.98883480019867420196533203125" lon="-107.73595883511006832122802734375">
        <ele>3675.800048828125</ele>
        <time>2026-08-15T18:00:17.000Z</time>
        <extensions>
          <ns3:TrackPointExtension>
            <ns3:hr>99</ns3:hr>
            <ns3:cad>0</ns3:cad>
          </ns3:TrackPointExtension>
        </extensions>
      </trkpt>
      <trkpt lat="37.98882608301937580108642578125" lon="-107.735951878130435943603515625">
        <ele>3676</ele>
        <time>2026-08-15T18:00:19.000Z</time>
        <extensions>
          <ns3:TrackPointExtension>
            <ns3:hr>101</ns3:hr>
            <ns3:cad>0</ns3:cad>
          </ns3:TrackPointExtension>
        </extensions>
      </trkpt>
      <trkpt lat="37.98880512826144695281982421875" lon="-107.7359470166265964508056640625">
        <ele>3676.199951171875</ele>
        <time>2026-08-15T18:00:22.000Z</time>
        <extensions>
          <ns3:TrackPointExtension>
            <ns3:hr>104</ns3:hr>
            <ns3:cad>0</ns3:cad>
          </ns3:TrackPointExtension>
        </extensions>
      </trkpt>
      <trkpt lat="37.98879104666411876678466796875" lon="-107.73593838326632976531982421875">
        <ele>3676.199951171875</ele>
        <time>2026-08-15T18:00:24.000Z</time>
        <extensions>
          <ns3:TrackPointExtension>
            <ns3:hr>106</ns3:hr>
            <ns3:cad>0</ns3:cad>
          </ns3:TrackPointExtension>
        </extensions>
      </trkpt>
      <trkpt lat="37.98874159343540668487548828125" lon="-107.73592136800289154052734375">
        <ele>3675.39990234375</ele>
        <time>2026-08-15T18:00:30.000Z</time>
        <extensions>
          <ns3:TrackPointExtension>
            <ns3:hr>109</ns3:hr>
            <ns3:cad>0</ns3:cad>
          </ns3:TrackPointExtension>
        </extensions>
      </trkpt>
      <trkpt lat="37.98870270140469074249267578125" lon="-107.73592329584062099456787109375">
        <ele>3675.39990234375</ele>
        <time>2026-08-15T18:00:35.000Z</time>
        <extensions>
          <ns3:TrackPointExtension>
            <ns3:hr>110</ns3:hr>
            <ns3:cad>0</ns3:cad>
          </ns3:TrackPointExtension>
        </extensions>
      </trkpt>
      <trkpt lat="37.9886967502534389495849609375" lon="-107.73592430166900157928466796875">
        <ele>3675.39990234375</ele>
        <time>2026-08-15T18:00:41.000Z</time>
        <extensions>
          <ns3:TrackPointExtension>
            <ns3:hr>110</ns3:hr>
            <ns3:cad>0</ns3:cad>
          </ns3:TrackPointExtension>
        </extensions>
      </trkpt>
      <trkpt lat="37.9886949062347412109375" lon="-107.73591625504195690155029296875">
        <ele>3675</ele>
        <time>2026-08-15T18:00:43.000Z</time>
        <extensions>
          <ns3:TrackPointExtension>
            <ns3:hr>110</ns3:hr>
            <ns3:cad>0</ns3:cad>
          </ns3:TrackPointExtension>
        </extensions>
      </trkpt>
      <trkpt lat="37.98869482241570949554443359375" lon="-107.7359144948422908782958984375">
        <ele>3674.800048828125</ele>
        <time>2026-08-15T18:00:46.000Z</time>
        <extensions>
          <ns3:TrackPointExtension>
            <ns3:hr>110</ns3:hr>
            <ns3:cad>0</ns3:cad>
          </ns3:TrackPointExtension>
        </extensions>
      </trkpt>
      <trkpt lat="37.98868727870285511016845703125" lon="-107.73589664138853549957275390625">
        <ele>3673.800048828125</ele>
        <time>2026-08-15T18:00:50.000Z</time>
        <extensions>
          <ns3:TrackPointExtension>
            <ns3:hr>110</ns3:hr>
            <ns3:cad>0</ns3:cad>
          </ns3:TrackPointExtension>
        </extensions>
      </trkpt>
      <trkpt lat="37.9886856861412525177001953125" lon="-107.7358963899314403533935546875">
        <ele>3673.60009765625</ele>
        <time>2026-08-15T18:00:51.000Z</time>
        <extensions>
          <ns3:TrackPointExtension>
            <ns3:hr>110</ns3:hr>
            <ns3:cad>0</ns3:cad>
          </ns3:TrackPointExtension>
        </extensions>
      </trkpt>
      <trkpt lat="37.9886846803128719329833984375" lon="-107.73588943295180797576904296875">
        <ele>3672.39990234375</ele>
        <time>2026-08-15T18:00:55.000Z</time>
        <extensions>
          <ns3:TrackPointExtension>
            <ns3:hr>109</ns3:hr>
            <ns3:cad>0</ns3:cad>
          </ns3:TrackPointExtension>
        </extensions>
      </trkpt>
      <trkpt lat="37.98868627287447452545166015625" lon="-107.73587174713611602783203125">
        <ele>3672</ele>
        <time>2026-08-15T18:00:58.000Z</time>
        <extensions>
          <ns3:TrackPointExtension>
            <ns3:hr>109</ns3:hr>
            <ns3:cad>0</ns3:cad>
          </ns3:TrackPointExtension>
        </extensions>
      </trkpt>
      <trkpt lat="37.9886930622160434722900390625" lon="-107.73586613126099109649658203125">
        <ele>3671.800048828125</ele>
        <time>2026-08-15T18:01:01.000Z</time>
        <extensions>
          <ns3:TrackPointExtension>
            <ns3:hr>106</ns3:hr>
            <ns3:cad>0</ns3:cad>
          </ns3:TrackPointExtension>
        </extensions>
      </trkpt>
      <trkpt lat="37.9886870272457599639892578125" lon="-107.73585272021591663360595703125">
        <ele>3671.199951171875</ele>
        <time>2026-08-15T18:01:04.000Z</time>
        <extensions>
          <ns3:TrackPointExtension>
            <ns3:hr>104</ns3:hr>
            <ns3:cad>0</ns3:cad>
          </ns3:TrackPointExtension>
        </extensions>
      </trkpt>
      <trkpt lat="37.98867688514292240142822265625" lon="-107.73584500886499881744384765625">
        <ele>3671</ele>
        <time>2026-08-15T18:01:06.000Z</time>
        <extensions>
          <ns3:TrackPointExtension>
            <ns3:hr>104</ns3:hr>
            <ns3:cad>48</ns3:cad>
          </ns3:TrackPointExtension>
        </extensions>
      </trkpt>
      <trkpt lat="37.9886586964130401611328125" lon="-107.73584299720823764801025390625">
        <ele>3671</ele>
        <time>2026-08-15T18:01:10.000Z</time>
        <extensions>
          <ns3:TrackPointExtension>
            <ns3:hr>101</ns3:hr>
            <ns3:cad>41</ns3:cad>
          </ns3:TrackPointExtension>
        </extensions>
      </trkpt>
      <trkpt lat="37.98865760676562786102294921875" lon="-107.73584383539855480194091796875">
        <ele>3670.39990234375</ele>
        <time>2026-08-15T18:01:13.000Z</time>
        <extensions>
          <ns3:TrackPointExtension>
            <ns3:hr>100</ns3:hr>
            <ns3:cad>0</ns3:cad>
          </ns3:TrackPointExtension>
        </extensions>
      </trkpt>
      <trkpt lat="37.9886605404317378997802734375" lon="-107.7358380518853664398193359375">
        <ele>3670</ele>
        <time>2026-08-15T18:01:16.000Z</time>
        <extensions>
          <ns3:TrackPointExtension>
            <ns3:hr>99</ns3:hr>
            <ns3:cad>0</ns3:cad>
          </ns3:TrackPointExtension>
        </extensions>
      </trkpt>
      <trkpt lat="37.9886511527001857757568359375" lon="-107.73583595640957355499267578125">
        <ele>3669.800048828125</ele>
        <time>2026-08-15T18:01:20.000Z</time>
        <extensions>
          <ns3:TrackPointExtension>
            <ns3:hr>99</ns3:hr>
            <ns3:cad>0</ns3:cad>
          </ns3:TrackPointExtension>
        </extensions>
      </trkpt>
      <trkpt lat="37.98862307332456111907958984375" lon="-107.7358350344002246856689453125">
        <ele>3669</ele>
        <time>2026-08-15T18:01:25.000Z</time>
        <extensions>
          <ns3:TrackPointExtension>
            <ns3:hr>98</ns3:hr>
            <ns3:cad>0</ns3:cad>
          </ns3:TrackPointExtension>
        </extensions>
      </trkpt>
      <trkpt lat="37.98861033283174037933349609375" lon="-107.735825479030609130859375">
        <ele>3668.39990234375</ele>
        <time>2026-08-15T18:01:27.000Z</time>
        <extensions>
          <ns3:TrackPointExtension>
            <ns3:hr>98</ns3:hr>
            <ns3:cad>0</ns3:cad>
          </ns3:TrackPointExtension>
        </extensions>
      </trkpt>
      <trkpt lat="37.9886011965572834014892578125" lon="-107.73582614958286285400390625">
        <ele>3668</ele>
        <time>2026-08-15T18:01:30.000Z</time>
        <extensions>
          <ns3:TrackPointExtension>
            <ns3:hr>98</ns3:hr>
            <ns3:cad>0</ns3:cad>
          </ns3:TrackPointExtension>
        </extensions>
      </trkpt>
      <trkpt lat="37.9885978437960147857666015625" lon="-107.7358189411461353302001953125">
        <ele>3667.199951171875</ele>
        <time>2026-08-15T18:01:34.000Z</time>
        <extensions>
          <ns3:TrackPointExtension>
            <ns3:hr>97</ns3:hr>
            <ns3:cad>0</ns3:cad>
          </ns3:TrackPointExtension>
        </extensions>
      </trkpt>
      <trkpt lat="37.9885861091315746307373046875" lon="-107.7358108945190906524658203125">
        <ele>3666.800048828125</ele>
        <time>2026-08-15T18:01:37.000Z</time>
        <extensions>
          <ns3:TrackPointExtension>
            <ns3:hr>97</ns3:hr>
            <ns3:cad>0</ns3:cad>
          </ns3:TrackPointExtension>
        </extensions>
      </trkpt>
      <trkpt lat="37.9885683394968509674072265625" lon="-107.73581852205097675323486328125">
        <ele>3666.39990234375</ele>
        <time>2026-08-15T18:01:39.000Z</time>
        <extensions>
          <ns3:TrackPointExtension>
            <ns3:hr>96</ns3:hr>
            <ns3:cad>0</ns3:cad>
          </ns3:TrackPointExtension>
        </extensions>
      </trkpt>
      <trkpt lat="37.988549731671810150146484375" lon="-107.7358132414519786834716796875">
        <ele>3665.60009765625</ele>
        <time>2026-08-15T18:01:42.000Z</time>
        <extensions>
          <ns3:TrackPointExtension>
            <ns3:hr>97</ns3:hr>
            <ns3:cad>0</ns3:cad>
          </ns3:TrackPointExtension>
        </extensions>
      </trkpt>
      <trkpt lat="37.98853732645511627197265625" lon="-107.73580871522426605224609375">
        <ele>3665.39990234375</ele>
        <time>2026-08-15T18:01:44.000Z</time>
        <extensions>
          <ns3:TrackPointExtension>
            <ns3:hr>98</ns3:hr>
            <ns3:cad>0</ns3:cad>
          </ns3:TrackPointExtension>
        </extensions>
      </trkpt>
      <trkpt lat="37.98852249048650264739990234375" lon="-107.73581407964229583740234375">
        <ele>3664.60009765625</ele>
        <time>2026-08-15T18:01:49.000Z</time>
        <extensions>
          <ns3:TrackPointExtension>
            <ns3:hr>99</ns3:hr>
            <ns3:cad>0</ns3:cad>
          </ns3:TrackPointExtension>
        </extensions>
      </trkpt>
      <trkpt lat="37.9885197244584560394287109375" lon="-107.7358145825564861297607421875">
        <ele>3664.199951171875</ele>
        <time>2026-08-15T18:01:51.000Z</time>
        <extensions>
          <ns3:TrackPointExtension>
            <ns3:hr>99</ns3:hr>
            <ns3:cad>0</ns3:cad>
          </ns3:TrackPointExtension>
        </extensions>
      </trkpt>
      <trkpt lat="37.9885002784430980682373046875" lon="-107.73580209352076053619384765625">
        <ele>3663.39990234375</ele>
        <time>2026-08-15T18:01:55.000Z</time>
        <extensions>
          <ns3:TrackPointExtension>
            <ns3:hr>100</ns3:hr>
            <ns3:cad>0</ns3:cad>
          </ns3:TrackPointExtension>
        </extensions>
      </trkpt>
      <trkpt lat="37.98848745413124561309814453125" lon="-107.7357937954366207122802734375">
        <ele>3662.800048828125</ele>
        <time>2026-08-15T18:01:58.000Z</time>
        <extensions>
          <ns3:TrackPointExtension>
            <ns3:hr>100</ns3:hr>
            <ns3:cad>0</ns3:cad>
          </ns3:TrackPointExtension>
        </extensions>
      </trkpt>
      <trkpt lat="37.9884751327335834503173828125" lon="-107.735800333321094512939453125">
        <ele>3662.39990234375</ele>
        <time>2026-08-15T18:02:02.000Z</time>
        <extensions>
          <ns3:TrackPointExtension>
            <ns3:hr>100</ns3:hr>
            <ns3:cad>0</ns3:cad>
          </ns3:TrackPointExtension>
        </extensions>
      </trkpt>
      <trkpt lat="37.98847454600036144256591796875" lon="-107.73580159060657024383544921875">
        <ele>3662.199951171875</ele>
        <time>2026-08-15T18:02:04.000Z</time>
        <extensions>
          <ns3:TrackPointExtension>
            <ns3:hr>101</ns3:hr>
            <ns3:cad>0</ns3:cad>
          </ns3:TrackPointExtension>
        </extensions>
      </trkpt>
      <trkpt lat="37.9884690977632999420166015625" lon="-107.73580226115882396697998046875">
        <ele>3662</ele>
        <time>2026-08-15T18:02:06.000Z</time>
        <extensions>
          <ns3:TrackPointExtension>
            <ns3:hr>105</ns3:hr>
            <ns3:cad>0</ns3:cad>
          </ns3:TrackPointExtension>
        </extensions>
      </trkpt>
      <trkpt lat="37.98846423625946044921875" lon="-107.73580209352076053619384765625">
        <ele>3662</ele>
        <time>2026-08-15T18:02:07.000Z</time>
        <extensions>
          <ns3:TrackPointExtension>
            <ns3:hr>108</ns3:hr>
            <ns3:cad>0</ns3:cad>
          </ns3:TrackPointExtension>
        </extensions>
      </trkpt>
      <trkpt lat="37.988456189632415771484375" lon="-107.7357924543321132659912109375">
        <ele>3661.60009765625</ele>
        <time>2026-08-15T18:02:10.000Z</time>
        <extensions>
          <ns3:TrackPointExtension>
            <ns3:hr>105</ns3:hr>
            <ns3:cad>0</ns3:cad>
          </ns3:TrackPointExtension>
        </extensions>
      </trkpt>
      <trkpt lat="37.98845744691789150238037109375" lon="-107.73579396307468414306640625">
        <ele>3661.199951171875</ele>
        <time>2026-08-15T18:02:11.000Z</time>
        <extensions>
          <ns3:TrackPointExtension>
            <ns3:hr>104</ns3:hr>
            <ns3:cad>0</ns3:cad>
          </ns3:TrackPointExtension>
        </extensions>
      </trkpt>
      <trkpt lat="37.98845677636563777923583984375" lon="-107.73579454980790615081787109375">
        <ele>3661</ele>
        <time>2026-08-15T18:02:13.000Z</time>
        <extensions>
          <ns3:TrackPointExtension>
            <ns3:hr>103</ns3:hr>
            <ns3:cad>0</ns3:cad>
          </ns3:TrackPointExtension>
        </extensions>
      </trkpt>
      <trkpt lat="37.988456524908542633056640625" lon="-107.735786251723766326904296875">
        <ele>3661.39990234375</ele>
        <time>2026-08-15T18:02:19.000Z</time>
        <extensions>
          <ns3:TrackPointExtension>
            <ns3:hr>100</ns3:hr>
            <ns3:cad>0</ns3:cad>
          </ns3:TrackPointExtension>
        </extensions>
      </trkpt>
      <trkpt lat="37.98845778219401836395263671875" lon="-107.73578449152410030364990234375">
        <ele>3661.199951171875</ele>
        <time>2026-08-15T18:02:20.000Z</time>
        <extensions>
          <ns3:TrackPointExtension>
            <ns3:hr>101</ns3:hr>
            <ns3:cad>0</ns3:cad>
          </ns3:TrackPointExtension>
        </extensions>
      </trkpt>
      <trkpt lat="37.98844671808183193206787109375" lon="-107.7357669733464717864990234375">
        <ele>3660.199951171875</ele>
        <time>2026-08-15T18:02:24.000Z</time>
        <extensions>
          <ns3:TrackPointExtension>
            <ns3:hr>101</ns3:hr>
            <ns3:cad>0</ns3:cad>
          </ns3:TrackPointExtension>
        </extensions>
      </trkpt>
      <trkpt lat="37.9884385876357555389404296875" lon="-107.73575599305331707000732421875">
        <ele>3660</ele>
        <time>2026-08-15T18:02:26.000Z</time>
        <extensions>
          <ns3:TrackPointExtension>
            <ns3:hr>104</ns3:hr>
            <ns3:cad>0</ns3:cad>
          </ns3:TrackPointExtension>
        </extensions>
      </trkpt>
      <trkpt lat="37.9884372465312480926513671875" lon="-107.7357103116810321807861328125">
        <ele>3659.199951171875</ele>
        <time>2026-08-15T18:02:31.000Z</time>
        <extensions>
          <ns3:TrackPointExtension>
            <ns3:hr>103</ns3:hr>
            <ns3:cad>0</ns3:cad>
          </ns3:TrackPointExtension>
        </extensions>
      </trkpt>
      <trkpt lat="37.98843808472156524658203125" lon="-107.73569195531308650970458984375">
        <ele>3658.800048828125</ele>
        <time>2026-08-15T18:02:33.000Z</time>
        <extensions>
          <ns3:TrackPointExtension>
            <ns3:hr>102</ns3:hr>
            <ns3:cad>0</ns3:cad>
          </ns3:TrackPointExtension>
        </extensions>
      </trkpt>
      <trkpt lat="37.9884224943816661834716796875" lon="-107.73567301221191883087158203125">
        <ele>3658</ele>
        <time>2026-08-15T18:02:36.000Z</time>
        <extensions>
          <ns3:TrackPointExtension>
            <ns3:hr>101</ns3:hr>
            <ns3:cad>43</ns3:cad>
          </ns3:TrackPointExtension>
        </extensions>
      </trkpt>
      <trkpt lat="37.98842811025679111480712890625" lon="-107.735656835138797760009765625">
        <ele>3657.39990234375</ele>
        <time>2026-08-15T18:02:39.000Z</time>
        <extensions>
          <ns3:TrackPointExtension>
            <ns3:hr>101</ns3:hr>
            <ns3:cad>0</ns3:cad>
          </ns3:TrackPointExtension>
        </extensions>
      </trkpt>
      <trkpt lat="37.9884097538888454437255859375" lon="-107.7356392331421375274658203125">
        <ele>3657</ele>
        <time>2026-08-15T18:02:42.000Z</time>
        <extensions>
          <ns3:TrackPointExtension>
            <ns3:hr>101</ns3:hr>
            <ns3:cad>0</ns3:cad>
          </ns3:TrackPointExtension>
        </extensions>
      </trkpt>
      <trkpt lat="37.988400198519229888916015625" lon="-107.73563629947602748870849609375">
        <ele>3656.60009765625</ele>
        <time>2026-08-15T18:02:44.000Z</time>
        <extensions>
          <ns3:TrackPointExtension>
            <ns3:hr>100</ns3:hr>
            <ns3:cad>0</ns3:cad>
          </ns3:TrackPointExtension>
        </extensions>
      </trkpt>
      <trkpt lat="37.9883770644664764404296875" lon="-107.7355782128870487213134765625">
        <ele>3656</ele>
        <time>2026-08-15T18:02:50.000Z</time>
        <extensions>
          <ns3:TrackPointExtension>
            <ns3:hr>98</ns3:hr>
            <ns3:cad>0</ns3:cad>
          </ns3:TrackPointExtension>
        </extensions>
      </trkpt>
      <trkpt lat="37.9883722029626369476318359375" lon="-107.73555398918688297271728515625">
        <ele>3655.800048828125</ele>
        <time>2026-08-15T18:02:52.000Z</time>
        <extensions>
          <ns3:TrackPointExtension>
            <ns3:hr>99</ns3:hr>
            <ns3:cad>0</ns3:cad>
          </ns3:TrackPointExtension>
        </extensions>
      </trkpt>
      <trkpt lat="37.98837731592357158660888671875" lon="-107.735503613948822021484375">
        <ele>3655</ele>
        <time>2026-08-15T18:02:57.000Z</time>
        <extensions>
          <ns3:TrackPointExtension>
            <ns3:hr>99</ns3:hr>
            <ns3:cad>0</ns3:cad>
          </ns3:TrackPointExtension>
        </extensions>
      </trkpt>
      <trkpt lat="37.98839525319635868072509765625" lon="-107.735420130193233489990234375">
        <ele>3655</ele>
        <time>2026-08-15T18:03:03.000Z</time>
        <extensions>
          <ns3:TrackPointExtension>
            <ns3:hr>101</ns3:hr>
            <ns3:cad>0</ns3:cad>
          </ns3:TrackPointExtension>
        </extensions>
      </trkpt>
      <trkpt lat="37.98836323432624340057373046875" lon="-107.73534209467470645904541015625">
        <ele>3655</ele>
        <time>2026-08-15T18:03:09.000Z</time>
        <extensions>
          <ns3:TrackPointExtension>
            <ns3:hr>102</ns3:hr>
            <ns3:cad>0</ns3:cad>
          </ns3:TrackPointExtension>
        </extensions>
      </trkpt>
      <trkpt lat="37.98835904337465763092041015625" lon="-107.7353291027247905731201171875">
        <ele>3655</ele>
        <time>2026-08-15T18:03:10.000Z</time>
        <extensions>
          <ns3:TrackPointExtension>
            <ns3:hr>102</ns3:hr>
            <ns3:cad>0</ns3:cad>
          </ns3:TrackPointExtension>
        </extensions>
      </trkpt>
      <trkpt lat="37.98835418187081813812255859375" lon="-107.73523514159023761749267578125">
        <ele>3655</ele>
        <time>2026-08-15T18:03:16.000Z</time>
        <extensions>
          <ns3:TrackPointExtension>
            <ns3:hr>103</ns3:hr>
            <ns3:cad>0</ns3:cad>
          </ns3:TrackPointExtension>
        </extensions>
      </trkpt>
      <trkpt lat="37.98832476139068603515625" lon="-107.73515693843364715576171875">
        <ele>3655</ele>
        <time>2026-08-15T18:03:22.000Z</time>
        <extensions>
          <ns3:TrackPointExtension>
            <ns3:hr>103</ns3:hr>
            <ns3:cad>52</ns3:cad>
          </ns3:TrackPointExtension>
        </extensions>
      </trkpt>
      <trkpt lat="37.988305985927581787109375" lon="-107.73508678190410137176513671875">
        <ele>3654.60009765625</ele>
        <time>2026-08-15T18:03:27.000Z</time>
        <extensions>
          <ns3:TrackPointExtension>
            <ns3:hr>104</ns3:hr>
            <ns3:cad>0</ns3:cad>
          </ns3:TrackPointExtension>
        </extensions>
      </trkpt>
      <trkpt lat="37.98829886130988597869873046875" lon="-107.73506113328039646148681640625">
        <ele>3654.60009765625</ele>
        <time>2026-08-15T18:03:29.000Z</time>
        <extensions>
          <ns3:TrackPointExtension>
            <ns3:hr>103</ns3:hr>
            <ns3:cad>0</ns3:cad>
          </ns3:TrackPointExtension>
        </extensions>
      </trkpt>
      <trkpt lat="37.98828293569386005401611328125" lon="-107.73497463203966617584228515625">
        <ele>3655.199951171875</ele>
        <time>2026-08-15T18:03:35.000Z</time>
        <extensions>
          <ns3:TrackPointExtension>
            <ns3:hr>103</ns3:hr>
            <ns3:cad>0</ns3:cad>
          </ns3:TrackPointExtension>
        </extensions>
      </trkpt>
      <trkpt lat="37.988262735307216644287109375" lon="-107.73491478525102138519287109375">
        <ele>3655.39990234375</ele>
        <time>2026-08-15T18:03:39.000Z</time>
        <extensions>
          <ns3:TrackPointExtension>
            <ns3:hr>103</ns3:hr>
            <ns3:cad>51</ns3:cad>
          </ns3:TrackPointExtension>
        </extensions>
      </trkpt>
      <trkpt lat="37.9882508330047130584716796875" lon="-107.7348934113979339599609375">
        <ele>3655.199951171875</ele>
        <time>2026-08-15T18:03:41.000Z</time>
        <extensions>
          <ns3:TrackPointExtension>
            <ns3:hr>103</ns3:hr>
            <ns3:cad>53</ns3:cad>
          </ns3:TrackPointExtension>
        </extensions>
      </trkpt>
      <trkpt lat="37.98823893070220947265625" lon="-107.73482124321162700653076171875">
        <ele>3654.39990234375</ele>
        <time>2026-08-15T18:03:47.000Z</time>
        <extensions>
          <ns3:TrackPointExtension>
            <ns3:hr>102</ns3:hr>
            <ns3:cad>52</ns3:cad>
          </ns3:TrackPointExtension>
        </extensions>
      </trkpt>
      <trkpt lat="37.9882349073886871337890625" lon="-107.73473273031413555145263671875">
        <ele>3653.800048828125</ele>
        <time>2026-08-15T18:03:53.000Z</time>
        <extensions>
          <ns3:TrackPointExtension>
            <ns3:hr>103</ns3:hr>
            <ns3:cad>52</ns3:cad>
          </ns3:TrackPointExtension>
        </extensions>
      </trkpt>
      <trkpt lat="37.98823365010321140289306640625" lon="-107.73471781052649021148681640625">
        <ele>3653.800048828125</ele>
        <time>2026-08-15T18:03:54.000Z</time>
        <extensions>
          <ns3:TrackPointExtension>
            <ns3:hr>103</ns3:hr>
            <ns3:cad>52</ns3:cad>
          </ns3:TrackPointExtension>
        </extensions>
      </trkpt>
      <trkpt lat="37.988227866590023040771484375" lon="-107.7346729673445224761962890625">
        <ele>3653.60009765625</ele>
        <time>2026-08-15T18:03:57.000Z</time>
        <extensions>
          <ns3:TrackPointExtension>
            <ns3:hr>102</ns3:hr>
            <ns3:cad>0</ns3:cad>
          </ns3:TrackPointExtension>
        </extensions>
      </trkpt>
      <trkpt lat="37.9882270283997058868408203125" lon="-107.734641619026660919189453125">
        <ele>3653</ele>
        <time>2026-08-15T18:04:01.000Z</time>
        <extensions>
          <ns3:TrackPointExtension>
            <ns3:hr>101</ns3:hr>
            <ns3:cad>0</ns3:cad>
          </ns3:TrackPointExtension>
        </extensions>
      </trkpt>
      <trkpt lat="37.98822644166648387908935546875" lon="-107.7346226759254932403564453125">
        <ele>3652.60009765625</ele>
        <time>2026-08-15T18:04:03.000Z</time>
        <extensions>
          <ns3:TrackPointExtension>
            <ns3:hr>102</ns3:hr>
            <ns3:cad>51</ns3:cad>
          </ns3:TrackPointExtension>
        </extensions>
      </trkpt>
      <trkpt lat="37.988213114440441131591796875" lon="-107.7346117794513702392578125">
        <ele>3652.800048828125</ele>
        <time>2026-08-15T18:04:07.000Z</time>
        <extensions>
          <ns3:TrackPointExtension>
            <ns3:hr>101</ns3:hr>
            <ns3:cad>0</ns3:cad>
          </ns3:TrackPointExtension>
        </extensions>
      </trkpt>
      <trkpt lat="37.98821118660271167755126953125" lon="-107.73460549302399158477783203125">
        <ele>3652.800048828125</ele>
        <time>2026-08-15T18:04:08.000Z</time>
        <extensions>
          <ns3:TrackPointExtension>
            <ns3:hr>100</ns3:hr>
            <ns3:cad>0</ns3:cad>
          </ns3:TrackPointExtension>
        </extensions>
      </trkpt>
      <trkpt lat="37.988213784992694854736328125" lon="-107.73459627293050289154052734375">
        <ele>3652.39990234375</ele>
        <time>2026-08-15T18:04:14.000Z</time>
        <extensions>
          <ns3:TrackPointExtension>
            <ns3:hr>100</ns3:hr>
            <ns3:cad>0</ns3:cad>
          </ns3:TrackPointExtension>
        </extensions>
      </trkpt>
      <trkpt lat="37.988214455544948577880859375" lon="-107.73459057323634624481201171875">
        <ele>3652.199951171875</ele>
        <time>2026-08-15T18:04:15.000Z</time>
        <extensions>
          <ns3:TrackPointExtension>
            <ns3:hr>99</ns3:hr>
            <ns3:cad>0</ns3:cad>
          </ns3:TrackPointExtension>
        </extensions>
      </trkpt>
      <trkpt lat="37.988219819962978363037109375" lon="-107.73455838672816753387451171875">
        <ele>3651.39990234375</ele>
        <time>2026-08-15T18:04:18.000Z</time>
        <extensions>
          <ns3:TrackPointExtension>
            <ns3:hr>100</ns3:hr>
            <ns3:cad>0</ns3:cad>
          </ns3:TrackPointExtension>
        </extensions>
      </trkpt>
      <trkpt lat="37.98822459764778614044189453125" lon="-107.73453776724636554718017578125">
        <ele>3651</ele>
        <time>2026-08-15T18:04:21.000Z</time>
        <extensions>
          <ns3:TrackPointExtension>
            <ns3:hr>100</ns3:hr>
            <ns3:cad>0</ns3:cad>
          </ns3:TrackPointExtension>
        </extensions>
      </trkpt>
      <trkpt lat="37.98823826014995574951171875" lon="-107.7344972826540470123291015625">
        <ele>3650.39990234375</ele>
        <time>2026-08-15T18:04:27.000Z</time>
        <extensions>
          <ns3:TrackPointExtension>
            <ns3:hr>98</ns3:hr>
            <ns3:cad>42</ns3:cad>
          </ns3:TrackPointExtension>
        </extensions>
      </trkpt>
      <trkpt lat="37.98823968507349491119384765625" lon="-107.7344929240643978118896484375">
        <ele>3650</ele>
        <time>2026-08-15T18:04:28.000Z</time>
        <extensions>
          <ns3:TrackPointExtension>
            <ns3:hr>98</ns3:hr>
            <ns3:cad>42</ns3:cad>
          </ns3:TrackPointExtension>
        </extensions>
      </trkpt>
      <trkpt lat="37.9882240109145641326904296875" lon="-107.73445864208042621612548828125">
        <ele>3649.39990234375</ele>
        <time>2026-08-15T18:04:33.000Z</time>
        <extensions>
          <ns3:TrackPointExtension>
            <ns3:hr>97</ns3:hr>
            <ns3:cad>0</ns3:cad>
          </ns3:TrackPointExtension>
        </extensions>
      </trkpt>
      <trkpt lat="37.98820741474628448486328125" lon="-107.73442176170647144317626953125">
        <ele>3648.199951171875</ele>
        <time>2026-08-15T18:04:37.000Z</time>
        <extensions>
          <ns3:TrackPointExtension>
            <ns3:hr>97</ns3:hr>
            <ns3:cad>0</ns3:cad>
          </ns3:TrackPointExtension>
        </extensions>
      </trkpt>
      <trkpt lat="37.988198362290859222412109375" lon="-107.7344084344804286956787109375">
        <ele>3648</ele>
        <time>2026-08-15T18:04:38.000Z</time>
        <extensions>
          <ns3:TrackPointExtension>
            <ns3:hr>98</ns3:hr>
            <ns3:cad>0</ns3:cad>
          </ns3:TrackPointExtension>
        </extensions>
      </trkpt>
      <trkpt lat="37.98816927708685398101806640625" lon="-107.73433241061866283416748046875">
        <ele>3647.800048828125</ele>
        <time>2026-08-15T18:04:43.000Z</time>
        <extensions>
          <ns3:TrackPointExtension>
            <ns3:hr>99</ns3:hr>
            <ns3:cad>18</ns3:cad>
          </ns3:TrackPointExtension>
        </extensions>
      </trkpt>
      <trkpt lat="37.9881599731743335723876953125" lon="-107.734307013452053070068359375">
        <ele>3647.800048828125</ele>
        <time>2026-08-15T18:04:45.000Z</time>
        <extensions>
          <ns3:TrackPointExtension>
            <ns3:hr>102</ns3:hr>
            <ns3:cad>18</ns3:cad>
          </ns3:TrackPointExtension>
        </extensions>
      </trkpt>
      <trkpt lat="37.98813742585480213165283203125" lon="-107.73427256383001804351806640625">
        <ele>3647.39990234375</ele>
        <time>2026-08-15T18:04:48.000Z</time>
        <extensions>
          <ns3:TrackPointExtension>
            <ns3:hr>105</ns3:hr>
            <ns3:cad>18</ns3:cad>
          </ns3:TrackPointExtension>
        </extensions>
      </trkpt>
      <trkpt lat="37.98812435008585453033447265625" lon="-107.7342595718801021575927734375">
        <ele>3647.199951171875</ele>
        <time>2026-08-15T18:04:50.000Z</time>
        <extensions>
          <ns3:TrackPointExtension>
            <ns3:hr>105</ns3:hr>
            <ns3:cad>54</ns3:cad>
          </ns3:TrackPointExtension>
        </extensions>
      </trkpt>
      <trkpt lat="37.9880694486200809478759765625" lon="-107.734224535524845123291015625">
        <ele>3646.60009765625</ele>
        <time>2026-08-15T18:04:56.000Z</time>
        <extensions>
          <ns3:TrackPointExtension>
            <ns3:hr>105</ns3:hr>
            <ns3:cad>52</ns3:cad>
          </ns3:TrackPointExtension>
        </extensions>
      </trkpt>
      <trkpt lat="37.98805846832692623138427734375" lon="-107.73422621190547943115234375">
        <ele>3646.60009765625</ele>
        <time>2026-08-15T18:04:57.000Z</time>
        <extensions>
          <ns3:TrackPointExtension>
            <ns3:hr>106</ns3:hr>
            <ns3:cad>52</ns3:cad>
          </ns3:TrackPointExtension>
        </extensions>
      </trkpt>
      <trkpt lat="37.988016307353973388671875" lon="-107.7342310734093189239501953125">
        <ele>3646.39990234375</ele>
        <time>2026-08-15T18:05:02.000Z</time>
        <extensions>
          <ns3:TrackPointExtension>
            <ns3:hr>105</ns3:hr>
            <ns3:cad>0</ns3:cad>
          </ns3:TrackPointExtension>
        </extensions>
      </trkpt>
      <trkpt lat="37.98798973672091960906982421875" lon="-107.73422344587743282318115234375">
        <ele>3646.199951171875</ele>
        <time>2026-08-15T18:05:07.000Z</time>
        <extensions>
          <ns3:TrackPointExtension>
            <ns3:hr>105</ns3:hr>
            <ns3:cad>0</ns3:cad>
          </ns3:TrackPointExtension>
        </extensions>
      </trkpt>
      <trkpt lat="37.98798437230288982391357421875" lon="-107.73422361351549625396728515625">
        <ele>3646.199951171875</ele>
        <time>2026-08-15T18:05:08.000Z</time>
        <extensions>
          <ns3:TrackPointExtension>
            <ns3:hr>105</ns3:hr>
            <ns3:cad>0</ns3:cad>
          </ns3:TrackPointExtension>
        </extensions>
      </trkpt>
      <trkpt lat="37.98796140588819980621337890625" lon="-107.73424104787409305572509765625">
        <ele>3645.800048828125</ele>
        <time>2026-08-15T18:05:13.000Z</time>
        <extensions>
          <ns3:TrackPointExtension>
            <ns3:hr>103</ns3:hr>
            <ns3:cad>0</ns3:cad>
          </ns3:TrackPointExtension>
        </extensions>
      </trkpt>
      <trkpt lat="37.987930811941623687744140625" lon="-107.73423216305673122406005859375">
        <ele>3645.60009765625</ele>
        <time>2026-08-15T18:05:19.000Z</time>
        <extensions>
          <ns3:TrackPointExtension>
            <ns3:hr>104</ns3:hr>
            <ns3:cad>0</ns3:cad>
          </ns3:TrackPointExtension>
        </extensions>
      </trkpt>
      <trkpt lat="37.98792452551424503326416015625" lon="-107.73422881029546260833740234375">
        <ele>3645.199951171875</ele>
        <time>2026-08-15T18:05:22.000Z</time>
        <extensions>
          <ns3:TrackPointExtension>
            <ns3:hr>104</ns3:hr>
            <ns3:cad>0</ns3:cad>
          </ns3:TrackPointExtension>
        </extensions>
      </trkpt>
      <trkpt lat="37.98792712390422821044921875" lon="-107.73421321995556354522705078125">
        <ele>3644.60009765625</ele>
        <time>2026-08-15T18:05:24.000Z</time>
        <extensions>
          <ns3:TrackPointExtension>
            <ns3:hr>103</ns3:hr>
            <ns3:cad>0</ns3:cad>
          </ns3:TrackPointExtension>
        </extensions>
      </trkpt>
      <trkpt lat="37.9879237711429595947265625" lon="-107.7341992221772670745849609375">
        <ele>3644</ele>
        <time>2026-08-15T18:05:26.000Z</time>
        <extensions>
          <ns3:TrackPointExtension>
            <ns3:hr>103</ns3:hr>
            <ns3:cad>0</ns3:cad>
          </ns3:TrackPointExtension>
        </extensions>
      </trkpt>
      <trkpt lat="37.98792938701808452606201171875" lon="-107.7341804467141628265380859375">
        <ele>3643.39990234375</ele>
        <time>2026-08-15T18:05:30.000Z</time>
        <extensions>
          <ns3:TrackPointExtension>
            <ns3:hr>104</ns3:hr>
            <ns3:cad>0</ns3:cad>
          </ns3:TrackPointExtension>
        </extensions>
      </trkpt>
      <trkpt lat="37.98791631124913692474365234375" lon="-107.73416544310748577117919921875">
        <ele>3643</ele>
        <time>2026-08-15T18:05:32.000Z</time>
        <extensions>
          <ns3:TrackPointExtension>
            <ns3:hr>105</ns3:hr>
            <ns3:cad>0</ns3:cad>
          </ns3:TrackPointExtension>
        </extensions>
      </trkpt>
      <trkpt lat="37.98791237175464630126953125" lon="-107.734154798090457916259765625">
        <ele>3642.800048828125</ele>
        <time>2026-08-15T18:05:35.000Z</time>
        <extensions>
          <ns3:TrackPointExtension>
            <ns3:hr>105</ns3:hr>
            <ns3:cad>0</ns3:cad>
          </ns3:TrackPointExtension>
        </extensions>
      </trkpt>
      <trkpt lat="37.9879101924598217010498046875" lon="-107.7341036684811115264892578125">
        <ele>3642.199951171875</ele>
        <time>2026-08-15T18:05:41.000Z</time>
        <extensions>
          <ns3:TrackPointExtension>
            <ns3:hr>105</ns3:hr>
            <ns3:cad>0</ns3:cad>
          </ns3:TrackPointExtension>
        </extensions>
      </trkpt>
      <trkpt lat="37.98792100511491298675537109375" lon="-107.73404072038829326629638671875">
        <ele>3642.199951171875</ele>
        <time>2026-08-15T18:05:46.000Z</time>
        <extensions>
          <ns3:TrackPointExtension>
            <ns3:hr>104</ns3:hr>
            <ns3:cad>0</ns3:cad>
          </ns3:TrackPointExtension>
        </extensions>
      </trkpt>
      <trkpt lat="37.98792687244713306427001953125" lon="-107.73396327160298824310302734375">
        <ele>3642.60009765625</ele>
        <time>2026-08-15T18:05:52.000Z</time>
        <extensions>
          <ns3:TrackPointExtension>
            <ns3:hr>101</ns3:hr>
            <ns3:cad>0</ns3:cad>
          </ns3:TrackPointExtension>
        </extensions>
      </trkpt>
      <trkpt lat="37.98792284913361072540283203125" lon="-107.7339534647762775421142578125">
        <ele>3642.39990234375</ele>
        <time>2026-08-15T18:05:53.000Z</time>
        <extensions>
          <ns3:TrackPointExtension>
            <ns3:hr>101</ns3:hr>
            <ns3:cad>0</ns3:cad>
          </ns3:TrackPointExtension>
        </extensions>
      </trkpt>
      <trkpt lat="37.987903319299221038818359375" lon="-107.7339467592537403106689453125">
        <ele>3642</ele>
        <time>2026-08-15T18:05:55.000Z</time>
        <extensions>
          <ns3:TrackPointExtension>
            <ns3:hr>100</ns3:hr>
            <ns3:cad>0</ns3:cad>
          </ns3:TrackPointExtension>
        </extensions>
      </trkpt>
      <trkpt lat="37.98787624575197696685791015625" lon="-107.73392220027744770050048828125">
        <ele>3641.39990234375</ele>
        <time>2026-08-15T18:05:59.000Z</time>
        <extensions>
          <ns3:TrackPointExtension>
            <ns3:hr>98</ns3:hr>
            <ns3:cad>51</ns3:cad>
          </ns3:TrackPointExtension>
        </extensions>
      </trkpt>
      <trkpt lat="37.98785931430757045745849609375" lon="-107.73389152251183986663818359375">
        <ele>3640.800048828125</ele>
        <time>2026-08-15T18:06:03.000Z</time>
        <extensions>
          <ns3:TrackPointExtension>
            <ns3:hr>98</ns3:hr>
            <ns3:cad>51</ns3:cad>
          </ns3:TrackPointExtension>
        </extensions>
      </trkpt>
      <trkpt lat="37.98785177059471607208251953125" lon="-107.73388146422803401947021484375">
        <ele>3639.800048828125</ele>
        <time>2026-08-15T18:06:06.000Z</time>
        <extensions>
          <ns3:TrackPointExtension>
            <ns3:hr>97</ns3:hr>
            <ns3:cad>51</ns3:cad>
          </ns3:TrackPointExtension>
        </extensions>
      </trkpt>
      <trkpt lat="37.987851016223430633544921875" lon="-107.7338626049458980560302734375">
        <ele>3639.199951171875</ele>
        <time>2026-08-15T18:06:08.000Z</time>
        <extensions>
          <ns3:TrackPointExtension>
            <ns3:hr>96</ns3:hr>
            <ns3:cad>49</ns3:cad>
          </ns3:TrackPointExtension>
        </extensions>
      </trkpt>
      <trkpt lat="37.98785294406116008758544921875" lon="-107.73384190164506435394287109375">
        <ele>3639</ele>
        <time>2026-08-15T18:06:11.000Z</time>
        <extensions>
          <ns3:TrackPointExtension>
            <ns3:hr>96</ns3:hr>
            <ns3:cad>52</ns3:cad>
          </ns3:TrackPointExtension>
        </extensions>
      </trkpt>
      <trkpt lat="37.987853027880191802978515625" lon="-107.73383863270282745361328125">
        <ele>3639</ele>
        <time>2026-08-15T18:06:12.000Z</time>
        <extensions>
          <ns3:TrackPointExtension>
            <ns3:hr>97</ns3:hr>
            <ns3:cad>52</ns3:cad>
          </ns3:TrackPointExtension>
        </extensions>
      </trkpt>
      <trkpt lat="37.98785797320306301116943359375" lon="-107.73382966406643390655517578125">
        <ele>3639</ele>
        <time>2026-08-15T18:06:13.000Z</time>
        <extensions>
          <ns3:TrackPointExtension>
            <ns3:hr>97</ns3:hr>
            <ns3:cad>52</ns3:cad>
          </ns3:TrackPointExtension>
        </extensions>
      </trkpt>
      <trkpt lat="37.98786316998302936553955078125" lon="-107.733826898038387298583984375">
        <ele>3638.60009765625</ele>
        <time>2026-08-15T18:06:15.000Z</time>
        <extensions>
          <ns3:TrackPointExtension>
            <ns3:hr>98</ns3:hr>
            <ns3:cad>53</ns3:cad>
          </ns3:TrackPointExtension>
        </extensions>
      </trkpt>
      <trkpt lat="37.98787674866616725921630859375" lon="-107.73380166850984096527099609375">
        <ele>3638.199951171875</ele>
        <time>2026-08-15T18:06:17.000Z</time>
        <extensions>
          <ns3:TrackPointExtension>
            <ns3:hr>98</ns3:hr>
            <ns3:cad>0</ns3:cad>
          </ns3:TrackPointExtension>
        </extensions>
      </trkpt>
      <trkpt lat="37.9878808557987213134765625" lon="-107.73380150087177753448486328125">
        <ele>3638</ele>
        <time>2026-08-15T18:06:18.000Z</time>
        <extensions>
          <ns3:TrackPointExtension>
            <ns3:hr>101</ns3:hr>
            <ns3:cad>0</ns3:cad>
          </ns3:TrackPointExtension>
        </extensions>
      </trkpt>
      <trkpt lat="37.98789435066282749176025390625" lon="-107.73378306068480014801025390625">
        <ele>3637.800048828125</ele>
        <time>2026-08-15T18:06:20.000Z</time>
        <extensions>
          <ns3:TrackPointExtension>
            <ns3:hr>108</ns3:hr>
            <ns3:cad>0</ns3:cad>
          </ns3:TrackPointExtension>
        </extensions>
      </trkpt>
      <trkpt lat="37.98789820633828639984130859375" lon="-107.73378222249448299407958984375">
        <ele>3637.60009765625</ele>
        <time>2026-08-15T18:06:21.000Z</time>
        <extensions>
          <ns3:TrackPointExtension>
            <ns3:hr>111</ns3:hr>
            <ns3:cad>0</ns3:cad>
          </ns3:TrackPointExtension>
        </extensions>
      </trkpt>
      <trkpt lat="37.9879008047282695770263671875" lon="-107.73378155194222927093505859375">
        <ele>3637.39990234375</ele>
        <time>2026-08-15T18:06:22.000Z</time>
        <extensions>
          <ns3:TrackPointExtension>
            <ns3:hr>112</ns3:hr>
            <ns3:cad>71</ns3:cad>
          </ns3:TrackPointExtension>
        </extensions>
      </trkpt>
      <trkpt lat="37.9879009723663330078125" lon="-107.73376378230750560760498046875">
        <ele>3636.60009765625</ele>
        <time>2026-08-15T18:06:26.000Z</time>
        <extensions>
          <ns3:TrackPointExtension>
            <ns3:hr>110</ns3:hr>
            <ns3:cad>0</ns3:cad>
          </ns3:TrackPointExtension>
        </extensions>
      </trkpt>
      <trkpt lat="37.9879128746688365936279296875" lon="-107.7337355352938175201416015625">
        <ele>3636.39990234375</ele>
        <time>2026-08-15T18:06:29.000Z</time>
        <extensions>
          <ns3:TrackPointExtension>
            <ns3:hr>106</ns3:hr>
            <ns3:cad>0</ns3:cad>
          </ns3:TrackPointExtension>
        </extensions>
      </trkpt>
      <trkpt lat="37.987902648746967315673828125" lon="-107.73371784947812557220458984375">
        <ele>3636.60009765625</ele>
        <time>2026-08-15T18:06:31.000Z</time>
        <extensions>
          <ns3:TrackPointExtension>
            <ns3:hr>103</ns3:hr>
            <ns3:cad>0</ns3:cad>
          </ns3:TrackPointExtension>
        </extensions>
      </trkpt>
      <trkpt lat="37.9878826998174190521240234375" lon="-107.733708880841732025146484375">
        <ele>3636.39990234375</ele>
        <time>2026-08-15T18:06:33.000Z</time>
        <extensions>
          <ns3:TrackPointExtension>
            <ns3:hr>103</ns3:hr>
            <ns3:cad>0</ns3:cad>
          </ns3:TrackPointExtension>
        </extensions>
      </trkpt>
      <trkpt lat="37.987855374813079833984375" lon="-107.73368264548480510711669921875">
        <ele>3636.199951171875</ele>
        <time>2026-08-15T18:06:37.000Z</time>
        <extensions>
          <ns3:TrackPointExtension>
            <ns3:hr>101</ns3:hr>
            <ns3:cad>0</ns3:cad>
          </ns3:TrackPointExtension>
        </extensions>
      </trkpt>
      <trkpt lat="37.987853698432445526123046875" lon="-107.73367309011518955230712890625">
        <ele>3636</ele>
        <time>2026-08-15T18:06:38.000Z</time>
        <extensions>
          <ns3:TrackPointExtension>
            <ns3:hr>100</ns3:hr>
            <ns3:cad>0</ns3:cad>
          </ns3:TrackPointExtension>
        </extensions>
      </trkpt>
      <trkpt lat="37.9878531955182552337646484375" lon="-107.73366604931652545928955078125">
        <ele>3635.39990234375</ele>
        <time>2026-08-15T18:06:39.000Z</time>
        <extensions>
          <ns3:TrackPointExtension>
            <ns3:hr>99</ns3:hr>
            <ns3:cad>57</ns3:cad>
          </ns3:TrackPointExtension>
        </extensions>
      </trkpt>
      <trkpt lat="37.98786149360239505767822265625" lon="-107.733638472855091094970703125">
        <ele>3634</ele>
        <time>2026-08-15T18:06:42.000Z</time>
        <extensions>
          <ns3:TrackPointExtension>
            <ns3:hr>99</ns3:hr>
            <ns3:cad>57</ns3:cad>
          </ns3:TrackPointExtension>
        </extensions>
      </trkpt>
      <trkpt lat="37.98786677420139312744140625" lon="-107.73360519669950008392333984375">
        <ele>3633.60009765625</ele>
        <time>2026-08-15T18:06:45.000Z</time>
        <extensions>
          <ns3:TrackPointExtension>
            <ns3:hr>99</ns3:hr>
            <ns3:cad>0</ns3:cad>
          </ns3:TrackPointExtension>
        </extensions>
      </trkpt>
      <trkpt lat="37.98785747028887271881103515625" lon="-107.73359664715826511383056640625">
        <ele>3633.800048828125</ele>
        <time>2026-08-15T18:06:47.000Z</time>
        <extensions>
          <ns3:TrackPointExtension>
            <ns3:hr>101</ns3:hr>
            <ns3:cad>0</ns3:cad>
          </ns3:TrackPointExtension>
        </extensions>
      </trkpt>
      <trkpt lat="37.98785964958369731903076171875" lon="-107.73357099853456020355224609375">
        <ele>3633.800048828125</ele>
        <time>2026-08-15T18:06:49.000Z</time>
        <extensions>
          <ns3:TrackPointExtension>
            <ns3:hr>101</ns3:hr>
            <ns3:cad>0</ns3:cad>
          </ns3:TrackPointExtension>
        </extensions>
      </trkpt>
      <trkpt lat="37.987855039536952972412109375" lon="-107.7335139177739620208740234375">
        <ele>3632.800048828125</ele>
        <time>2026-08-15T18:06:53.000Z</time>
        <extensions>
          <ns3:TrackPointExtension>
            <ns3:hr>100</ns3:hr>
            <ns3:cad>58</ns3:cad>
          </ns3:TrackPointExtension>
        </extensions>
      </trkpt>
      <trkpt lat="37.98785009421408176422119140625" lon="-107.73350561968982219696044921875">
        <ele>3632.60009765625</ele>
        <time>2026-08-15T18:06:54.000Z</time>
        <extensions>
          <ns3:TrackPointExtension>
            <ns3:hr>100</ns3:hr>
            <ns3:cad>58</ns3:cad>
          </ns3:TrackPointExtension>
        </extensions>
      </trkpt>
      <trkpt lat="37.98784665763378143310546875" lon="-107.73348198272287845611572265625">
        <ele>3631.60009765625</ele>
        <time>2026-08-15T18:06:56.000Z</time>
        <extensions>
          <ns3:TrackPointExtension>
            <ns3:hr>100</ns3:hr>
            <ns3:cad>59</ns3:cad>
          </ns3:TrackPointExtension>
        </extensions>
      </trkpt>
      <trkpt lat="37.98784405924379825592041015625" lon="-107.7334357984364032745361328125">
        <ele>3631</ele>
        <time>2026-08-15T18:07:00.000Z</time>
        <extensions>
          <ns3:TrackPointExtension>
            <ns3:hr>100</ns3:hr>
            <ns3:cad>58</ns3:cad>
          </ns3:TrackPointExtension>
        </extensions>
      </trkpt>
      <trkpt lat="37.98783182166516780853271484375" lon="-107.7334150113165378570556640625">
        <ele>3630.39990234375</ele>
        <time>2026-08-15T18:07:02.000Z</time>
        <extensions>
          <ns3:TrackPointExtension>
            <ns3:hr>101</ns3:hr>
            <ns3:cad>59</ns3:cad>
          </ns3:TrackPointExtension>
        </extensions>
      </trkpt>
      <trkpt lat="37.98783366568386554718017578125" lon="-107.733368910849094390869140625">
        <ele>3629.800048828125</ele>
        <time>2026-08-15T18:07:07.000Z</time>
        <extensions>
          <ns3:TrackPointExtension>
            <ns3:hr>103</ns3:hr>
            <ns3:cad>0</ns3:cad>
          </ns3:TrackPointExtension>
        </extensions>
      </trkpt>
      <trkpt lat="37.987825535237789154052734375" lon="-107.7333456091582775115966796875">
        <ele>3629.39990234375</ele>
        <time>2026-08-15T18:07:09.000Z</time>
        <extensions>
          <ns3:TrackPointExtension>
            <ns3:hr>105</ns3:hr>
            <ns3:cad>0</ns3:cad>
          </ns3:TrackPointExtension>
        </extensions>
      </trkpt>
      <trkpt lat="37.9878029040992259979248046875" lon="-107.733309566974639892578125">
        <ele>3628.199951171875</ele>
        <time>2026-08-15T18:07:12.000Z</time>
        <extensions>
          <ns3:TrackPointExtension>
            <ns3:hr>106</ns3:hr>
            <ns3:cad>0</ns3:cad>
          </ns3:TrackPointExtension>
        </extensions>
      </trkpt>
      <trkpt lat="37.9877965338528156280517578125" lon="-107.7332959882915019989013671875">
        <ele>3627.800048828125</ele>
        <time>2026-08-15T18:07:13.000Z</time>
        <extensions>
          <ns3:TrackPointExtension>
            <ns3:hr>106</ns3:hr>
            <ns3:cad>0</ns3:cad>
          </ns3:TrackPointExtension>
        </extensions>
      </trkpt>
      <trkpt lat="37.98778438009321689605712890625" lon="-107.7332601137459278106689453125">
        <ele>3627</ele>
        <time>2026-08-15T18:07:16.000Z</time>
        <extensions>
          <ns3:TrackPointExtension>
            <ns3:hr>106</ns3:hr>
            <ns3:cad>0</ns3:cad>
          </ns3:TrackPointExtension>
        </extensions>
      </trkpt>
      <trkpt lat="37.98776359297335147857666015625" lon="-107.7332071401178836822509765625">
        <ele>3626.199951171875</ele>
        <time>2026-08-15T18:07:20.000Z</time>
        <extensions>
          <ns3:TrackPointExtension>
            <ns3:hr>106</ns3:hr>
            <ns3:cad>18</ns3:cad>
          </ns3:TrackPointExtension>
        </extensions>
      </trkpt>
      <trkpt lat="37.98775102011859416961669921875" lon="-107.73315559141337871551513671875">
        <ele>3626.199951171875</ele>
        <time>2026-08-15T18:07:25.000Z</time>
        <extensions>
          <ns3:TrackPointExtension>
            <ns3:hr>105</ns3:hr>
            <ns3:cad>18</ns3:cad>
          </ns3:TrackPointExtension>
        </extensions>
      </trkpt>
      <trkpt lat="37.9877204261720180511474609375" lon="-107.73307747207581996917724609375">
        <ele>3626.199951171875</ele>
        <time>2026-08-15T18:07:31.000Z</time>
        <extensions>
          <ns3:TrackPointExtension>
            <ns3:hr>104</ns3:hr>
            <ns3:cad>18</ns3:cad>
          </ns3:TrackPointExtension>
        </extensions>
      </trkpt>
      <trkpt lat="37.98770961351692676544189453125" lon="-107.73301242850720882415771484375">
        <ele>3626.800048828125</ele>
        <time>2026-08-15T18:07:36.000Z</time>
        <extensions>
          <ns3:TrackPointExtension>
            <ns3:hr>101</ns3:hr>
            <ns3:cad>55</ns3:cad>
          </ns3:TrackPointExtension>
        </extensions>
      </trkpt>
      <trkpt lat="37.9877065122127532958984375" lon="-107.73293347097933292388916015625">
        <ele>3627.60009765625</ele>
        <time>2026-08-15T18:07:42.000Z</time>
        <extensions>
          <ns3:TrackPointExtension>
            <ns3:hr>100</ns3:hr>
            <ns3:cad>0</ns3:cad>
          </ns3:TrackPointExtension>
        </extensions>
      </trkpt>
      <trkpt lat="37.9877065122127532958984375" lon="-107.7329208143055438995361328125">
        <ele>3627.60009765625</ele>
        <time>2026-08-15T18:07:43.000Z</time>
        <extensions>
          <ns3:TrackPointExtension>
            <ns3:hr>100</ns3:hr>
            <ns3:cad>0</ns3:cad>
          </ns3:TrackPointExtension>
        </extensions>
      </trkpt>
      <trkpt lat="37.987702153623104095458984375" lon="-107.73288066498935222625732421875">
        <ele>3627.60009765625</ele>
        <time>2026-08-15T18:07:46.000Z</time>
        <extensions>
          <ns3:TrackPointExtension>
            <ns3:hr>103</ns3:hr>
            <ns3:cad>0</ns3:cad>
          </ns3:TrackPointExtension>
        </extensions>
      </trkpt>
      <trkpt lat="37.98769938759505748748779296875" lon="-107.7328497357666492462158203125">
        <ele>3627.199951171875</ele>
        <time>2026-08-15T18:07:49.000Z</time>
        <extensions>
          <ns3:TrackPointExtension>
            <ns3:hr>104</ns3:hr>
            <ns3:cad>66</ns3:cad>
          </ns3:TrackPointExtension>
        </extensions>
      </trkpt>
      <trkpt lat="37.987694442272186279296875" lon="-107.7327622286975383758544921875">
        <ele>3627.39990234375</ele>
        <time>2026-08-15T18:07:55.000Z</time>
        <extensions>
          <ns3:TrackPointExtension>
            <ns3:hr>107</ns3:hr>
            <ns3:cad>0</ns3:cad>
          </ns3:TrackPointExtension>
        </extensions>
      </trkpt>
      <trkpt lat="37.98768849112093448638916015625" lon="-107.7326854504644870758056640625">
        <ele>3626.39990234375</ele>
        <time>2026-08-15T18:08:01.000Z</time>
        <extensions>
          <ns3:TrackPointExtension>
            <ns3:hr>107</ns3:hr>
            <ns3:cad>75</ns3:cad>
          </ns3:TrackPointExtension>
        </extensions>
      </trkpt>
      <trkpt lat="37.9876822046935558319091796875" lon="-107.73267631419003009796142578125">
        <ele>3626.199951171875</ele>
        <time>2026-08-15T18:08:02.000Z</time>
        <extensions>
          <ns3:TrackPointExtension>
            <ns3:hr>107</ns3:hr>
            <ns3:cad>75</ns3:cad>
          </ns3:TrackPointExtension>
        </extensions>
      </trkpt>
      <trkpt lat="37.9876765049993991851806640625" lon="-107.732669524848461151123046875">
        <ele>3626</ele>
        <time>2026-08-15T18:08:03.000Z</time>
        <extensions>
          <ns3:TrackPointExtension>
            <ns3:hr>107</ns3:hr>
            <ns3:cad>75</ns3:cad>
          </ns3:TrackPointExtension>
        </extensions>
      </trkpt>
      <trkpt lat="37.987672984600067138671875" lon="-107.7326537668704986572265625">
        <ele>3625.39990234375</ele>
        <time>2026-08-15T18:08:07.000Z</time>
        <extensions>
          <ns3:TrackPointExtension>
            <ns3:hr>107</ns3:hr>
            <ns3:cad>63</ns3:cad>
          </ns3:TrackPointExtension>
        </extensions>
      </trkpt>
      <trkpt lat="37.987661920487880706787109375" lon="-107.73260741494596004486083984375">
        <ele>3624.800048828125</ele>
        <time>2026-08-15T18:08:11.000Z</time>
        <extensions>
          <ns3:TrackPointExtension>
            <ns3:hr>108</ns3:hr>
            <ns3:cad>63</ns3:cad>
          </ns3:TrackPointExtension>
        </extensions>
      </trkpt>
      <trkpt lat="37.98765487968921661376953125" lon="-107.7325811795890331268310546875">
        <ele>3624.60009765625</ele>
        <time>2026-08-15T18:08:14.000Z</time>
        <extensions>
          <ns3:TrackPointExtension>
            <ns3:hr>109</ns3:hr>
            <ns3:cad>63</ns3:cad>
          </ns3:TrackPointExtension>
        </extensions>
      </trkpt>
      <trkpt lat="37.98763216473162174224853515625" lon="-107.7325624041259288787841796875">
        <ele>3623.60009765625</ele>
        <time>2026-08-15T18:08:18.000Z</time>
        <extensions>
          <ns3:TrackPointExtension>
            <ns3:hr>110</ns3:hr>
            <ns3:cad>0</ns3:cad>
          </ns3:TrackPointExtension>
        </extensions>
      </trkpt>
      <trkpt lat="37.98760768957436084747314453125" lon="-107.7325379289686679840087890625">
        <ele>3622.60009765625</ele>
        <time>2026-08-15T18:08:21.000Z</time>
        <extensions>
          <ns3:TrackPointExtension>
            <ns3:hr>108</ns3:hr>
            <ns3:cad>0</ns3:cad>
          </ns3:TrackPointExtension>
        </extensions>
      </trkpt>
      <trkpt lat="37.98761053942143917083740234375" lon="-107.7325087599456310272216796875">
        <ele>3621.60009765625</ele>
        <time>2026-08-15T18:08:24.000Z</time>
        <extensions>
          <ns3:TrackPointExtension>
            <ns3:hr>108</ns3:hr>
            <ns3:cad>0</ns3:cad>
          </ns3:TrackPointExtension>
        </extensions>
      </trkpt>
      <trkpt lat="37.98761355690658092498779296875" lon="-107.7324765734374523162841796875">
        <ele>3621</ele>
        <time>2026-08-15T18:08:26.000Z</time>
        <extensions>
          <ns3:TrackPointExtension>
            <ns3:hr>108</ns3:hr>
            <ns3:cad>0</ns3:cad>
          </ns3:TrackPointExtension>
        </extensions>
      </trkpt>
      <trkpt lat="37.9876057617366313934326171875" lon="-107.73241764865815639495849609375">
        <ele>3620.39990234375</ele>
        <time>2026-08-15T18:08:31.000Z</time>
        <extensions>
          <ns3:TrackPointExtension>
            <ns3:hr>107</ns3:hr>
            <ns3:cad>0</ns3:cad>
          </ns3:TrackPointExtension>
        </extensions>
      </trkpt>
      <trkpt lat="37.98759846948087215423583984375" lon="-107.7323587238788604736328125">
        <ele>3619.39990234375</ele>
        <time>2026-08-15T18:08:35.000Z</time>
        <extensions>
          <ns3:TrackPointExtension>
            <ns3:hr>106</ns3:hr>
            <ns3:cad>0</ns3:cad>
          </ns3:TrackPointExtension>
        </extensions>
      </trkpt>
      <trkpt lat="37.98758137039840221405029296875" lon="-107.7323414571583271026611328125">
        <ele>3619.199951171875</ele>
        <time>2026-08-15T18:08:37.000Z</time>
        <extensions>
          <ns3:TrackPointExtension>
            <ns3:hr>107</ns3:hr>
            <ns3:cad>0</ns3:cad>
          </ns3:TrackPointExtension>
        </extensions>
      </trkpt>
      <trkpt lat="37.98757147975265979766845703125" lon="-107.73233181796967983245849609375">
        <ele>3619</ele>
        <time>2026-08-15T18:08:38.000Z</time>
        <extensions>
          <ns3:TrackPointExtension>
            <ns3:hr>107</ns3:hr>
            <ns3:cad>0</ns3:cad>
          </ns3:TrackPointExtension>
        </extensions>
      </trkpt>
      <trkpt lat="37.98756108619272708892822265625" lon="-107.73227917961776256561279296875">
        <ele>3618.60009765625</ele>
        <time>2026-08-15T18:08:43.000Z</time>
        <extensions>
          <ns3:TrackPointExtension>
            <ns3:hr>108</ns3:hr>
            <ns3:cad>0</ns3:cad>
          </ns3:TrackPointExtension>
        </extensions>
      </trkpt>
      <trkpt lat="37.98756427131593227386474609375" lon="-107.7322676964104175567626953125">
        <ele>3618.39990234375</ele>
        <time>2026-08-15T18:08:44.000Z</time>
        <extensions>
          <ns3:TrackPointExtension>
            <ns3:hr>108</ns3:hr>
            <ns3:cad>0</ns3:cad>
          </ns3:TrackPointExtension>
        </extensions>
      </trkpt>
      <trkpt lat="37.98756745643913745880126953125" lon="-107.7322603203356266021728515625">
        <ele>3618</ele>
        <time>2026-08-15T18:08:45.000Z</time>
        <extensions>
          <ns3:TrackPointExtension>
            <ns3:hr>109</ns3:hr>
            <ns3:cad>0</ns3:cad>
          </ns3:TrackPointExtension>
        </extensions>
      </trkpt>
      <trkpt lat="37.9875791072845458984375" lon="-107.7322308160364627838134765625">
        <ele>3617.39990234375</ele>
        <time>2026-08-15T18:08:49.000Z</time>
        <extensions>
          <ns3:TrackPointExtension>
            <ns3:hr>111</ns3:hr>
            <ns3:cad>0</ns3:cad>
          </ns3:TrackPointExtension>
        </extensions>
      </trkpt>
      <trkpt lat="37.9875884950160980224609375" lon="-107.732222937047481536865234375">
        <ele>3617.199951171875</ele>
        <time>2026-08-15T18:08:50.000Z</time>
        <extensions>
          <ns3:TrackPointExtension>
            <ns3:hr>111</ns3:hr>
            <ns3:cad>0</ns3:cad>
          </ns3:TrackPointExtension>
        </extensions>
      </trkpt>
      <trkpt lat="37.9876124672591686248779296875" lon="-107.7321999706327915191650390625">
        <ele>3616.39990234375</ele>
        <time>2026-08-15T18:08:55.000Z</time>
        <extensions>
          <ns3:TrackPointExtension>
            <ns3:hr>110</ns3:hr>
            <ns3:cad>0</ns3:cad>
          </ns3:TrackPointExtension>
        </extensions>
      </trkpt>
      <trkpt lat="37.98761665821075439453125" lon="-107.73218848742544651031494140625">
        <ele>3616.199951171875</ele>
        <time>2026-08-15T18:08:58.000Z</time>
        <extensions>
          <ns3:TrackPointExtension>
            <ns3:hr>103</ns3:hr>
            <ns3:cad>0</ns3:cad>
          </ns3:TrackPointExtension>
        </extensions>
      </trkpt>
      <trkpt lat="37.987619340419769287109375" lon="-107.73218664340674877166748046875">
        <ele>3616</ele>
        <time>2026-08-15T18:08:59.000Z</time>
        <extensions>
          <ns3:TrackPointExtension>
            <ns3:hr>99</ns3:hr>
            <ns3:cad>0</ns3:cad>
          </ns3:TrackPointExtension>
        </extensions>
      </trkpt>
      <trkpt lat="37.987620346248149871826171875" lon="-107.73218479938805103302001953125">
        <ele>3615.39990234375</ele>
        <time>2026-08-15T18:09:02.000Z</time>
        <extensions>
          <ns3:TrackPointExtension>
            <ns3:hr>97</ns3:hr>
            <ns3:cad>0</ns3:cad>
          </ns3:TrackPointExtension>
        </extensions>
      </trkpt>
      <trkpt lat="37.9876231960952281951904296875" lon="-107.7321822009980678558349609375">
        <ele>3616</ele>
        <time>2026-08-15T18:09:08.000Z</time>
        <extensions>
          <ns3:TrackPointExtension>
            <ns3:hr>98</ns3:hr>
            <ns3:cad>0</ns3:cad>
          </ns3:TrackPointExtension>
        </extensions>
      </trkpt>
      <trkpt lat="37.98764272592961788177490234375" lon="-107.73216719739139080047607421875">
        <ele>3615.60009765625</ele>
        <time>2026-08-15T18:09:11.000Z</time>
        <extensions>
          <ns3:TrackPointExtension>
            <ns3:hr>99</ns3:hr>
            <ns3:cad>0</ns3:cad>
          </ns3:TrackPointExtension>
        </extensions>
      </trkpt>
      <trkpt lat="37.987657226622104644775390625" lon="-107.732151187956333160400390625">
        <ele>3614.800048828125</ele>
        <time>2026-08-15T18:09:14.000Z</time>
        <extensions>
          <ns3:TrackPointExtension>
            <ns3:hr>100</ns3:hr>
            <ns3:cad>0</ns3:cad>
          </ns3:TrackPointExtension>
        </extensions>
      </trkpt>
      <trkpt lat="37.98765429295599460601806640625" lon="-107.73212914355099201202392578125">
        <ele>3614.199951171875</ele>
        <time>2026-08-15T18:09:17.000Z</time>
        <extensions>
          <ns3:TrackPointExtension>
            <ns3:hr>101</ns3:hr>
            <ns3:cad>0</ns3:cad>
          </ns3:TrackPointExtension>
        </extensions>
      </trkpt>
      <trkpt lat="37.98764624632894992828369140625" lon="-107.732113637030124664306640625">
        <ele>3613.800048828125</ele>
        <time>2026-08-15T18:09:20.000Z</time>
        <extensions>
          <ns3:TrackPointExtension>
            <ns3:hr>102</ns3:hr>
            <ns3:cad>54</ns3:cad>
          </ns3:TrackPointExtension>
        </extensions>
      </trkpt>
      <trkpt lat="37.9876463301479816436767578125" lon="-107.7321054227650165557861328125">
        <ele>3613</ele>
        <time>2026-08-15T18:09:24.000Z</time>
        <extensions>
          <ns3:TrackPointExtension>
            <ns3:hr>102</ns3:hr>
            <ns3:cad>0</ns3:cad>
          </ns3:TrackPointExtension>
        </extensions>
      </trkpt>
      <trkpt lat="37.9876463301479816436767578125" lon="-107.7321054227650165557861328125">
        <ele>3613.199951171875</ele>
        <time>2026-08-15T18:09:30.000Z</time>
        <extensions>
          <ns3:TrackPointExtension>
            <ns3:hr>103</ns3:hr>
            <ns3:cad>0</ns3:cad>
          </ns3:TrackPointExtension>
        </extensions>
      </trkpt>
      <trkpt lat="37.98764037899672985076904296875" lon="-107.73209393955767154693603515625">
        <ele>3612.800048828125</ele>
        <time>2026-08-15T18:09:32.000Z</time>
        <extensions>
          <ns3:TrackPointExtension>
            <ns3:hr>103</ns3:hr>
            <ns3:cad>0</ns3:cad>
          </ns3:TrackPointExtension>
        </extensions>
      </trkpt>
      <trkpt lat="37.98764004372060298919677734375" lon="-107.7320970408618450164794921875">
        <ele>3612.800048828125</ele>
        <time>2026-08-15T18:09:33.000Z</time>
        <extensions>
          <ns3:TrackPointExtension>
            <ns3:hr>104</ns3:hr>
            <ns3:cad>0</ns3:cad>
          </ns3:TrackPointExtension>
        </extensions>
      </trkpt>
      <trkpt lat="37.987645827233791351318359375" lon="-107.7320903353393077850341796875">
        <ele>3611.60009765625</ele>
        <time>2026-08-15T18:09:38.000Z</time>
        <extensions>
          <ns3:TrackPointExtension>
            <ns3:hr>104</ns3:hr>
            <ns3:cad>0</ns3:cad>
          </ns3:TrackPointExtension>
        </extensions>
      </trkpt>
      <trkpt lat="37.9876567237079143524169921875" lon="-107.73207566700875759124755859375">
        <ele>3611</ele>
        <time>2026-08-15T18:09:42.000Z</time>
        <extensions>
          <ns3:TrackPointExtension>
            <ns3:hr>107</ns3:hr>
            <ns3:cad>0</ns3:cad>
          </ns3:TrackPointExtension>
        </extensions>
      </trkpt>
      <trkpt lat="37.987656556069850921630859375" lon="-107.73207130841910839080810546875">
        <ele>3610.60009765625</ele>
        <time>2026-08-15T18:09:44.000Z</time>
        <extensions>
          <ns3:TrackPointExtension>
            <ns3:hr>107</ns3:hr>
            <ns3:cad>45</ns3:cad>
          </ns3:TrackPointExtension>
        </extensions>
      </trkpt>
      <trkpt lat="37.9876582324504852294921875" lon="-107.73206912912428379058837890625">
        <ele>3610.39990234375</ele>
        <time>2026-08-15T18:09:45.000Z</time>
        <extensions>
          <ns3:TrackPointExtension>
            <ns3:hr>107</ns3:hr>
            <ns3:cad>45</ns3:cad>
          </ns3:TrackPointExtension>
        </extensions>
      </trkpt>
      <trkpt lat="37.98764959909021854400634765625" lon="-107.7320477552711963653564453125">
        <ele>3609.39990234375</ele>
        <time>2026-08-15T18:09:51.000Z</time>
        <extensions>
          <ns3:TrackPointExtension>
            <ns3:hr>105</ns3:hr>
            <ns3:cad>0</ns3:cad>
          </ns3:TrackPointExtension>
        </extensions>
      </trkpt>
      <trkpt lat="37.98763836733996868133544921875" lon="-107.7320226095616817474365234375">
        <ele>3609.199951171875</ele>
        <time>2026-08-15T18:09:56.000Z</time>
        <extensions>
          <ns3:TrackPointExtension>
            <ns3:hr>102</ns3:hr>
            <ns3:cad>0</ns3:cad>
          </ns3:TrackPointExtension>
        </extensions>
      </trkpt>
      <trkpt lat="37.9876362718641757965087890625" lon="-107.732005678117275238037109375">
        <ele>3609.199951171875</ele>
        <time>2026-08-15T18:09:58.000Z</time>
        <extensions>
          <ns3:TrackPointExtension>
            <ns3:hr>99</ns3:hr>
            <ns3:cad>75</ns3:cad>
          </ns3:TrackPointExtension>
        </extensions>
      </trkpt>
      <trkpt lat="37.98763786442577838897705078125" lon="-107.7320021577179431915283203125">
        <ele>3609.199951171875</ele>
        <time>2026-08-15T18:09:59.000Z</time>
        <extensions>
          <ns3:TrackPointExtension>
            <ns3:hr>98</ns3:hr>
            <ns3:cad>75</ns3:cad>
          </ns3:TrackPointExtension>
        </extensions>
      </trkpt>
      <trkpt lat="37.9876708053052425384521484375" lon="-107.73197625763714313507080078125">
        <ele>3609.199951171875</ele>
        <time>2026-08-15T18:10:05.000Z</time>
        <extensions>
          <ns3:TrackPointExtension>
            <ns3:hr>97</ns3:hr>
            <ns3:cad>41</ns3:cad>
          </ns3:TrackPointExtension>
        </extensions>
      </trkpt>
      <trkpt lat="37.9877023212611675262451171875" lon="-107.73193401284515857696533203125">
        <ele>3608.199951171875</ele>
        <time>2026-08-15T18:10:10.000Z</time>
        <extensions>
          <ns3:TrackPointExtension>
            <ns3:hr>98</ns3:hr>
            <ns3:cad>0</ns3:cad>
          </ns3:TrackPointExtension>
        </extensions>
      </trkpt>
      <trkpt lat="37.987705506384372711181640625" lon="-107.73187148384749889373779296875">
        <ele>3608</ele>
        <time>2026-08-15T18:10:15.000Z</time>
        <extensions>
          <ns3:TrackPointExtension>
            <ns3:hr>101</ns3:hr>
            <ns3:cad>0</ns3:cad>
          </ns3:TrackPointExtension>
        </extensions>
      </trkpt>
      <trkpt lat="37.987697124481201171875" lon="-107.73182957433164119720458984375">
        <ele>3609.199951171875</ele>
        <time>2026-08-15T18:10:19.000Z</time>
        <extensions>
          <ns3:TrackPointExtension>
            <ns3:hr>104</ns3:hr>
            <ns3:cad>0</ns3:cad>
          </ns3:TrackPointExtension>
        </extensions>
      </trkpt>
      <trkpt lat="37.9876989684998989105224609375" lon="-107.73181163705885410308837890625">
        <ele>3609.39990234375</ele>
        <time>2026-08-15T18:10:21.000Z</time>
        <extensions>
          <ns3:TrackPointExtension>
            <ns3:hr>106</ns3:hr>
            <ns3:cad>0</ns3:cad>
          </ns3:TrackPointExtension>
        </extensions>
      </trkpt>
      <trkpt lat="37.98769653774797916412353515625" lon="-107.73180794902145862579345703125">
        <ele>3609.39990234375</ele>
        <time>2026-08-15T18:10:22.000Z</time>
        <extensions>
          <ns3:TrackPointExtension>
            <ns3:hr>106</ns3:hr>
            <ns3:cad>0</ns3:cad>
          </ns3:TrackPointExtension>
        </extensions>
      </trkpt>
      <trkpt lat="37.98770257271826267242431640625" lon="-107.7317949570715427398681640625">
        <ele>3609.39990234375</ele>
        <time>2026-08-15T18:10:24.000Z</time>
        <extensions>
          <ns3:TrackPointExtension>
            <ns3:hr>106</ns3:hr>
            <ns3:cad>0</ns3:cad>
          </ns3:TrackPointExtension>
        </extensions>
      </trkpt>
      <trkpt lat="37.98769913613796234130859375" lon="-107.7317766845226287841796875">
        <ele>3609.60009765625</ele>
        <time>2026-08-15T18:10:26.000Z</time>
        <extensions>
          <ns3:TrackPointExtension>
            <ns3:hr>109</ns3:hr>
            <ns3:cad>0</ns3:cad>
          </ns3:TrackPointExtension>
        </extensions>
      </trkpt>
      <trkpt lat="37.98769687302410602569580078125" lon="-107.73176821880042552947998046875">
        <ele>3609.60009765625</ele>
        <time>2026-08-15T18:10:27.000Z</time>
        <extensions>
          <ns3:TrackPointExtension>
            <ns3:hr>109</ns3:hr>
            <ns3:cad>0</ns3:cad>
          </ns3:TrackPointExtension>
        </extensions>
      </trkpt>
      <trkpt lat="37.987701483070850372314453125" lon="-107.7317359484732151031494140625">
        <ele>3610.39990234375</ele>
        <time>2026-08-15T18:10:30.000Z</time>
        <extensions>
          <ns3:TrackPointExtension>
            <ns3:hr>110</ns3:hr>
            <ns3:cad>0</ns3:cad>
          </ns3:TrackPointExtension>
        </extensions>
      </trkpt>
      <trkpt lat="37.98770181834697723388671875" lon="-107.731701917946338653564453125">
        <ele>3610.800048828125</ele>
        <time>2026-08-15T18:10:33.000Z</time>
        <extensions>
          <ns3:TrackPointExtension>
            <ns3:hr>109</ns3:hr>
            <ns3:cad>0</ns3:cad>
          </ns3:TrackPointExtension>
        </extensions>
      </trkpt>
      <trkpt lat="37.9877050034701824188232421875" lon="-107.7316774427890777587890625">
        <ele>3611.39990234375</ele>
        <time>2026-08-15T18:10:36.000Z</time>
        <extensions>
          <ns3:TrackPointExtension>
            <ns3:hr>109</ns3:hr>
            <ns3:cad>0</ns3:cad>
          </ns3:TrackPointExtension>
        </extensions>
      </trkpt>
      <trkpt lat="37.98771531321108341217041015625" lon="-107.73165539838373661041259765625">
        <ele>3611.60009765625</ele>
        <time>2026-08-15T18:10:38.000Z</time>
        <extensions>
          <ns3:TrackPointExtension>
            <ns3:hr>110</ns3:hr>
            <ns3:cad>0</ns3:cad>
          </ns3:TrackPointExtension>
        </extensions>
      </trkpt>
      <trkpt lat="37.9877063445746898651123046875" lon="-107.73162044584751129150390625">
        <ele>3611.60009765625</ele>
        <time>2026-08-15T18:10:43.000Z</time>
        <extensions>
          <ns3:TrackPointExtension>
            <ns3:hr>112</ns3:hr>
            <ns3:cad>0</ns3:cad>
          </ns3:TrackPointExtension>
        </extensions>
      </trkpt>
      <trkpt lat="37.98770441673696041107177734375" lon="-107.73161751218140125274658203125">
        <ele>3611.60009765625</ele>
        <time>2026-08-15T18:10:44.000Z</time>
        <extensions>
          <ns3:TrackPointExtension>
            <ns3:hr>112</ns3:hr>
            <ns3:cad>0</ns3:cad>
          </ns3:TrackPointExtension>
        </extensions>
      </trkpt>
      <trkpt lat="37.98770257271826267242431640625" lon="-107.731626816093921661376953125">
        <ele>3611.199951171875</ele>
        <time>2026-08-15T18:10:49.000Z</time>
        <extensions>
          <ns3:TrackPointExtension>
            <ns3:hr>115</ns3:hr>
            <ns3:cad>0</ns3:cad>
          </ns3:TrackPointExtension>
        </extensions>
      </trkpt>
      <trkpt lat="37.9876984655857086181640625" lon="-107.7316236309707164764404296875">
        <ele>3611.199951171875</ele>
        <time>2026-08-15T18:10:50.000Z</time>
        <extensions>
          <ns3:TrackPointExtension>
            <ns3:hr>114</ns3:hr>
            <ns3:cad>0</ns3:cad>
          </ns3:TrackPointExtension>
        </extensions>
      </trkpt>
      <trkpt lat="37.9876716434955596923828125" lon="-107.7315934561192989349365234375">
        <ele>3612.39990234375</ele>
        <time>2026-08-15T18:10:55.000Z</time>
        <extensions>
          <ns3:TrackPointExtension>
            <ns3:hr>115</ns3:hr>
            <ns3:cad>0</ns3:cad>
          </ns3:TrackPointExtension>
        </extensions>
      </trkpt>
      <trkpt lat="37.98764817416667938232421875" lon="-107.731579877436161041259765625">
        <ele>3613.199951171875</ele>
        <time>2026-08-15T18:11:01.000Z</time>
        <extensions>
          <ns3:TrackPointExtension>
            <ns3:hr>116</ns3:hr>
            <ns3:cad>0</ns3:cad>
          </ns3:TrackPointExtension>
        </extensions>
      </trkpt>
      <trkpt lat="37.98764825798571109771728515625" lon="-107.7315750159323215484619140625">
        <ele>3613.39990234375</ele>
        <time>2026-08-15T18:11:02.000Z</time>
        <extensions>
          <ns3:TrackPointExtension>
            <ns3:hr>116</ns3:hr>
            <ns3:cad>0</ns3:cad>
          </ns3:TrackPointExtension>
        </extensions>
      </trkpt>
      <trkpt lat="37.98764415085315704345703125" lon="-107.73156269453465938568115234375">
        <ele>3613.60009765625</ele>
        <time>2026-08-15T18:11:03.000Z</time>
        <extensions>
          <ns3:TrackPointExtension>
            <ns3:hr>116</ns3:hr>
            <ns3:cad>0</ns3:cad>
          </ns3:TrackPointExtension>
        </extensions>
      </trkpt>
      <trkpt lat="37.987629063427448272705078125" lon="-107.73155515082180500030517578125">
        <ele>3614.39990234375</ele>
        <time>2026-08-15T18:11:07.000Z</time>
        <extensions>
          <ns3:TrackPointExtension>
            <ns3:hr>115</ns3:hr>
            <ns3:cad>0</ns3:cad>
          </ns3:TrackPointExtension>
        </extensions>
      </trkpt>
      <trkpt lat="37.98762001097202301025390625" lon="-107.73154668509960174560546875">
        <ele>3614.60009765625</ele>
        <time>2026-08-15T18:11:08.000Z</time>
        <extensions>
          <ns3:TrackPointExtension>
            <ns3:hr>116</ns3:hr>
            <ns3:cad>0</ns3:cad>
          </ns3:TrackPointExtension>
        </extensions>
      </trkpt>
      <trkpt lat="37.98759209923446178436279296875" lon="-107.731536962091922760009765625">
        <ele>3615.199951171875</ele>
        <time>2026-08-15T18:11:13.000Z</time>
        <extensions>
          <ns3:TrackPointExtension>
            <ns3:hr>118</ns3:hr>
            <ns3:cad>0</ns3:cad>
          </ns3:TrackPointExtension>
        </extensions>
      </trkpt>
      <trkpt lat="37.98755287192761898040771484375" lon="-107.7315186895430088043212890625">
        <ele>3615.60009765625</ele>
        <time>2026-08-15T18:11:19.000Z</time>
        <extensions>
          <ns3:TrackPointExtension>
            <ns3:hr>118</ns3:hr>
            <ns3:cad>0</ns3:cad>
          </ns3:TrackPointExtension>
        </extensions>
      </trkpt>
      <trkpt lat="37.98755027353763580322265625" lon="-107.73151726461946964263916015625">
        <ele>3615.800048828125</ele>
        <time>2026-08-15T18:11:20.000Z</time>
        <extensions>
          <ns3:TrackPointExtension>
            <ns3:hr>118</ns3:hr>
            <ns3:cad>0</ns3:cad>
          </ns3:TrackPointExtension>
        </extensions>
      </trkpt>
      <trkpt lat="37.9875323362648487091064453125" lon="-107.73151793517172336578369140625">
        <ele>3616.60009765625</ele>
        <time>2026-08-15T18:11:24.000Z</time>
        <extensions>
          <ns3:TrackPointExtension>
            <ns3:hr>119</ns3:hr>
            <ns3:cad>54</ns3:cad>
          </ns3:TrackPointExtension>
        </extensions>
      </trkpt>
      <trkpt lat="37.987525463104248046875" lon="-107.731519527733325958251953125">
        <ele>3616.800048828125</ele>
        <time>2026-08-15T18:11:26.000Z</time>
        <extensions>
          <ns3:TrackPointExtension>
            <ns3:hr>118</ns3:hr>
            <ns3:cad>54</ns3:cad>
          </ns3:TrackPointExtension>
        </extensions>
      </trkpt>
      <trkpt lat="37.9874892532825469970703125" lon="-107.73151894100010395050048828125">
        <ele>3617.60009765625</ele>
        <time>2026-08-15T18:11:31.000Z</time>
        <extensions>
          <ns3:TrackPointExtension>
            <ns3:hr>118</ns3:hr>
            <ns3:cad>0</ns3:cad>
          </ns3:TrackPointExtension>
        </extensions>
      </trkpt>
      <trkpt lat="37.9874609224498271942138671875" lon="-107.731520868837833404541015625">
        <ele>3618</ele>
        <time>2026-08-15T18:11:35.000Z</time>
        <extensions>
          <ns3:TrackPointExtension>
            <ns3:hr>118</ns3:hr>
            <ns3:cad>0</ns3:cad>
          </ns3:TrackPointExtension>
        </extensions>
      </trkpt>
      <trkpt lat="37.9874381236732006072998046875" lon="-107.73149949498474597930908203125">
        <ele>3618.199951171875</ele>
        <time>2026-08-15T18:11:39.000Z</time>
        <extensions>
          <ns3:TrackPointExtension>
            <ns3:hr>119</ns3:hr>
            <ns3:cad>0</ns3:cad>
          </ns3:TrackPointExtension>
        </extensions>
      </trkpt>
      <trkpt lat="37.9874166660010814666748046875" lon="-107.73149647749960422515869140625">
        <ele>3619</ele>
        <time>2026-08-15T18:11:43.000Z</time>
        <extensions>
          <ns3:TrackPointExtension>
            <ns3:hr>121</ns3:hr>
            <ns3:cad>0</ns3:cad>
          </ns3:TrackPointExtension>
        </extensions>
      </trkpt>
      <trkpt lat="37.98738875426352024078369140625" lon="-107.7314789593219757080078125">
        <ele>3619.60009765625</ele>
        <time>2026-08-15T18:11:47.000Z</time>
        <extensions>
          <ns3:TrackPointExtension>
            <ns3:hr>122</ns3:hr>
            <ns3:cad>0</ns3:cad>
          </ns3:TrackPointExtension>
        </extensions>
      </trkpt>
      <trkpt lat="37.987379617989063262939453125" lon="-107.7314583398401737213134765625">
        <ele>3620</ele>
        <time>2026-08-15T18:11:51.000Z</time>
        <extensions>
          <ns3:TrackPointExtension>
            <ns3:hr>123</ns3:hr>
            <ns3:cad>0</ns3:cad>
          </ns3:TrackPointExtension>
        </extensions>
      </trkpt>
      <trkpt lat="37.987372912466526031494140625" lon="-107.73144082166254520416259765625">
        <ele>3620.199951171875</ele>
        <time>2026-08-15T18:11:53.000Z</time>
        <extensions>
          <ns3:TrackPointExtension>
            <ns3:hr>123</ns3:hr>
            <ns3:cad>0</ns3:cad>
          </ns3:TrackPointExtension>
        </extensions>
      </trkpt>
      <trkpt lat="37.98735556192696094512939453125" lon="-107.73139773868024349212646484375">
        <ele>3621</ele>
        <time>2026-08-15T18:11:58.000Z</time>
        <extensions>
          <ns3:TrackPointExtension>
            <ns3:hr>123</ns3:hr>
            <ns3:cad>0</ns3:cad>
          </ns3:TrackPointExtension>
        </extensions>
      </trkpt>
      <trkpt lat="37.98735623247921466827392578125" lon="-107.73139421828091144561767578125">
        <ele>3621.199951171875</ele>
        <time>2026-08-15T18:11:59.000Z</time>
        <extensions>
          <ns3:TrackPointExtension>
            <ns3:hr>124</ns3:hr>
            <ns3:cad>65</ns3:cad>
          </ns3:TrackPointExtension>
        </extensions>
      </trkpt>
      <trkpt lat="37.9873462580144405364990234375" lon="-107.7313664741814136505126953125">
        <ele>3621.60009765625</ele>
        <time>2026-08-15T18:12:02.000Z</time>
        <extensions>
          <ns3:TrackPointExtension>
            <ns3:hr>127</ns3:hr>
            <ns3:cad>65</ns3:cad>
          </ns3:TrackPointExtension>
        </extensions>
      </trkpt>
      <trkpt lat="37.98734164796769618988037109375" lon="-107.73135893046855926513671875">
        <ele>3621.60009765625</ele>
        <time>2026-08-15T18:12:03.000Z</time>
        <extensions>
          <ns3:TrackPointExtension>
            <ns3:hr>128</ns3:hr>
            <ns3:cad>65</ns3:cad>
          </ns3:TrackPointExtension>
        </extensions>
      </trkpt>
      <trkpt lat="37.987338714301586151123046875" lon="-107.73133152164518833160400390625">
        <ele>3622.199951171875</ele>
        <time>2026-08-15T18:12:07.000Z</time>
        <extensions>
          <ns3:TrackPointExtension>
            <ns3:hr>129</ns3:hr>
            <ns3:cad>0</ns3:cad>
          </ns3:TrackPointExtension>
        </extensions>
      </trkpt>
      <trkpt lat="37.987335026264190673828125" lon="-107.73133470676839351654052734375">
        <ele>3622.800048828125</ele>
        <time>2026-08-15T18:12:09.000Z</time>
        <extensions>
          <ns3:TrackPointExtension>
            <ns3:hr>130</ns3:hr>
            <ns3:cad>0</ns3:cad>
          </ns3:TrackPointExtension>
        </extensions>
      </trkpt>
      <trkpt lat="37.9873284883797168731689453125" lon="-107.73132615722715854644775390625">
        <ele>3623.199951171875</ele>
        <time>2026-08-15T18:12:11.000Z</time>
        <extensions>
          <ns3:TrackPointExtension>
            <ns3:hr>131</ns3:hr>
            <ns3:cad>0</ns3:cad>
          </ns3:TrackPointExtension>
        </extensions>
      </trkpt>
      <trkpt lat="37.98731700517237186431884765625" lon="-107.7313014306128025054931640625">
        <ele>3624</ele>
        <time>2026-08-15T18:12:16.000Z</time>
        <extensions>
          <ns3:TrackPointExtension>
            <ns3:hr>133</ns3:hr>
            <ns3:cad>0</ns3:cad>
          </ns3:TrackPointExtension>
        </extensions>
      </trkpt>
      <trkpt lat="37.98730887472629547119140625" lon="-107.7312938868999481201171875">
        <ele>3624.39990234375</ele>
        <time>2026-08-15T18:12:19.000Z</time>
        <extensions>
          <ns3:TrackPointExtension>
            <ns3:hr>134</ns3:hr>
            <ns3:cad>0</ns3:cad>
          </ns3:TrackPointExtension>
        </extensions>
      </trkpt>
      <trkpt lat="37.9872986488044261932373046875" lon="-107.7312853373587131500244140625">
        <ele>3625</ele>
        <time>2026-08-15T18:12:21.000Z</time>
        <extensions>
          <ns3:TrackPointExtension>
            <ns3:hr>134</ns3:hr>
            <ns3:cad>0</ns3:cad>
          </ns3:TrackPointExtension>
        </extensions>
      </trkpt>
      <trkpt lat="37.98729973845183849334716796875" lon="-107.73128240369260311126708984375">
        <ele>3625.60009765625</ele>
        <time>2026-08-15T18:12:23.000Z</time>
        <extensions>
          <ns3:TrackPointExtension>
            <ns3:hr>132</ns3:hr>
            <ns3:cad>0</ns3:cad>
          </ns3:TrackPointExtension>
        </extensions>
      </trkpt>
      <trkpt lat="37.98729169182479381561279296875" lon="-107.7312751114368438720703125">
        <ele>3626</ele>
        <time>2026-08-15T18:12:26.000Z</time>
        <extensions>
          <ns3:TrackPointExtension>
            <ns3:hr>130</ns3:hr>
            <ns3:cad>0</ns3:cad>
          </ns3:TrackPointExtension>
        </extensions>
      </trkpt>
      <trkpt lat="37.98728339374065399169921875" lon="-107.731278799474239349365234375">
        <ele>3626.60009765625</ele>
        <time>2026-08-15T18:12:29.000Z</time>
        <extensions>
          <ns3:TrackPointExtension>
            <ns3:hr>128</ns3:hr>
            <ns3:cad>0</ns3:cad>
          </ns3:TrackPointExtension>
        </extensions>
      </trkpt>
      <trkpt lat="37.98727844841778278350830078125" lon="-107.73127150721848011016845703125">
        <ele>3627.199951171875</ele>
        <time>2026-08-15T18:12:32.000Z</time>
        <extensions>
          <ns3:TrackPointExtension>
            <ns3:hr>126</ns3:hr>
            <ns3:cad>0</ns3:cad>
          </ns3:TrackPointExtension>
        </extensions>
      </trkpt>
      <trkpt lat="37.98726839013397693634033203125" lon="-107.73125558160245418548583984375">
        <ele>3627.800048828125</ele>
        <time>2026-08-15T18:12:35.000Z</time>
        <extensions>
          <ns3:TrackPointExtension>
            <ns3:hr>127</ns3:hr>
            <ns3:cad>0</ns3:cad>
          </ns3:TrackPointExtension>
        </extensions>
      </trkpt>
      <trkpt lat="37.9872574098408222198486328125" lon="-107.73124015890061855316162109375">
        <ele>3628.60009765625</ele>
        <time>2026-08-15T18:12:39.000Z</time>
        <extensions>
          <ns3:TrackPointExtension>
            <ns3:hr>128</ns3:hr>
            <ns3:cad>0</ns3:cad>
          </ns3:TrackPointExtension>
        </extensions>
      </trkpt>
      <trkpt lat="37.98725925385951995849609375" lon="-107.73122875951230525970458984375">
        <ele>3628.800048828125</ele>
        <time>2026-08-15T18:12:41.000Z</time>
        <extensions>
          <ns3:TrackPointExtension>
            <ns3:hr>127</ns3:hr>
            <ns3:cad>0</ns3:cad>
          </ns3:TrackPointExtension>
        </extensions>
      </trkpt>
      <trkpt lat="37.98725011758506298065185546875" lon="-107.73119858466088771820068359375">
        <ele>3629.199951171875</ele>
        <time>2026-08-15T18:12:45.000Z</time>
        <extensions>
          <ns3:TrackPointExtension>
            <ns3:hr>126</ns3:hr>
            <ns3:cad>0</ns3:cad>
          </ns3:TrackPointExtension>
        </extensions>
      </trkpt>
      <trkpt lat="37.987240143120288848876953125" lon="-107.73117628879845142364501953125">
        <ele>3630</ele>
        <time>2026-08-15T18:12:51.000Z</time>
        <extensions>
          <ns3:TrackPointExtension>
            <ns3:hr>124</ns3:hr>
            <ns3:cad>0</ns3:cad>
          </ns3:TrackPointExtension>
        </extensions>
      </trkpt>
      <trkpt lat="37.98722413368523120880126953125" lon="-107.73114343173801898956298828125">
        <ele>3631</ele>
        <time>2026-08-15T18:12:56.000Z</time>
        <extensions>
          <ns3:TrackPointExtension>
            <ns3:hr>127</ns3:hr>
            <ns3:cad>0</ns3:cad>
          </ns3:TrackPointExtension>
        </extensions>
      </trkpt>
      <trkpt lat="37.98722262494266033172607421875" lon="-107.73114108480513095855712890625">
        <ele>3631</ele>
        <time>2026-08-15T18:12:57.000Z</time>
        <extensions>
          <ns3:TrackPointExtension>
            <ns3:hr>126</ns3:hr>
            <ns3:cad>0</ns3:cad>
          </ns3:TrackPointExtension>
        </extensions>
      </trkpt>
      <trkpt lat="37.9872218705713748931884765625" lon="-107.73113890551030635833740234375">
        <ele>3631</ele>
        <time>2026-08-15T18:12:58.000Z</time>
        <extensions>
          <ns3:TrackPointExtension>
            <ns3:hr>127</ns3:hr>
            <ns3:cad>0</ns3:cad>
          </ns3:TrackPointExtension>
        </extensions>
      </trkpt>
      <trkpt lat="37.98722212202847003936767578125" lon="-107.7311213873326778411865234375">
        <ele>3632.199951171875</ele>
        <time>2026-08-15T18:13:03.000Z</time>
        <extensions>
          <ns3:TrackPointExtension>
            <ns3:hr>127</ns3:hr>
            <ns3:cad>0</ns3:cad>
          </ns3:TrackPointExtension>
        </extensions>
      </trkpt>
      <trkpt lat="37.9872235469520092010498046875" lon="-107.7311160229146480560302734375">
        <ele>3632.39990234375</ele>
        <time>2026-08-15T18:13:04.000Z</time>
        <extensions>
          <ns3:TrackPointExtension>
            <ns3:hr>127</ns3:hr>
            <ns3:cad>0</ns3:cad>
          </ns3:TrackPointExtension>
        </extensions>
      </trkpt>
      <trkpt lat="37.98721910454332828521728515625" lon="-107.73107972927391529083251953125">
        <ele>3633.199951171875</ele>
        <time>2026-08-15T18:13:10.000Z</time>
        <extensions>
          <ns3:TrackPointExtension>
            <ns3:hr>126</ns3:hr>
            <ns3:cad>0</ns3:cad>
          </ns3:TrackPointExtension>
        </extensions>
      </trkpt>
      <trkpt lat="37.98721943981945514678955078125" lon="-107.731056176126003265380859375">
        <ele>3634.199951171875</ele>
        <time>2026-08-15T18:13:16.000Z</time>
        <extensions>
          <ns3:TrackPointExtension>
            <ns3:hr>124</ns3:hr>
            <ns3:cad>0</ns3:cad>
          </ns3:TrackPointExtension>
        </extensions>
      </trkpt>
      <trkpt lat="37.98722044564783573150634765625" lon="-107.73105315864086151123046875">
        <ele>3634.199951171875</ele>
        <time>2026-08-15T18:13:17.000Z</time>
        <extensions>
          <ns3:TrackPointExtension>
            <ns3:hr>120</ns3:hr>
            <ns3:cad>0</ns3:cad>
          </ns3:TrackPointExtension>
        </extensions>
      </trkpt>
      <trkpt lat="37.98722161911427974700927734375" lon="-107.731044776737689971923828125">
        <ele>3634.39990234375</ele>
        <time>2026-08-15T18:13:18.000Z</time>
        <extensions>
          <ns3:TrackPointExtension>
            <ns3:hr>117</ns3:hr>
            <ns3:cad>0</ns3:cad>
          </ns3:TrackPointExtension>
        </extensions>
      </trkpt>
      <trkpt lat="37.98721994273364543914794921875" lon="-107.731037400662899017333984375">
        <ele>3634.60009765625</ele>
        <time>2026-08-15T18:13:19.000Z</time>
        <extensions>
          <ns3:TrackPointExtension>
            <ns3:hr>117</ns3:hr>
            <ns3:cad>0</ns3:cad>
          </ns3:TrackPointExtension>
        </extensions>
      </trkpt>
      <trkpt lat="37.98722094856202602386474609375" lon="-107.73102139122784137725830078125">
        <ele>3635.199951171875</ele>
        <time>2026-08-15T18:13:21.000Z</time>
        <extensions>
          <ns3:TrackPointExtension>
            <ns3:hr>114</ns3:hr>
            <ns3:cad>0</ns3:cad>
          </ns3:TrackPointExtension>
        </extensions>
      </trkpt>
      <trkpt lat="37.98722329549491405487060546875" lon="-107.73100798018276691436767578125">
        <ele>3635.39990234375</ele>
        <time>2026-08-15T18:13:22.000Z</time>
        <extensions>
          <ns3:TrackPointExtension>
            <ns3:hr>115</ns3:hr>
            <ns3:cad>0</ns3:cad>
          </ns3:TrackPointExtension>
        </extensions>
      </trkpt>
      <trkpt lat="37.98722329549491405487060546875" lon="-107.7309993468225002288818359375">
        <ele>3635.800048828125</ele>
        <time>2026-08-15T18:13:24.000Z</time>
        <extensions>
          <ns3:TrackPointExtension>
            <ns3:hr>116</ns3:hr>
            <ns3:cad>0</ns3:cad>
          </ns3:TrackPointExtension>
        </extensions>
      </trkpt>
      <trkpt lat="37.9872084595263004302978515625" lon="-107.730992138385772705078125">
        <ele>3636.39990234375</ele>
        <time>2026-08-15T18:13:30.000Z</time>
        <extensions>
          <ns3:TrackPointExtension>
            <ns3:hr>116</ns3:hr>
            <ns3:cad>0</ns3:cad>
          </ns3:TrackPointExtension>
        </extensions>
      </trkpt>
      <trkpt lat="37.9872044362127780914306640625" lon="-107.73099289275705814361572265625">
        <ele>3636.60009765625</ele>
        <time>2026-08-15T18:13:31.000Z</time>
        <extensions>
          <ns3:TrackPointExtension>
            <ns3:hr>115</ns3:hr>
            <ns3:cad>0</ns3:cad>
          </ns3:TrackPointExtension>
        </extensions>
      </trkpt>
      <trkpt lat="37.98719622194766998291015625" lon="-107.73097679950296878814697265625">
        <ele>3637.60009765625</ele>
        <time>2026-08-15T18:13:36.000Z</time>
        <extensions>
          <ns3:TrackPointExtension>
            <ns3:hr>113</ns3:hr>
            <ns3:cad>0</ns3:cad>
          </ns3:TrackPointExtension>
        </extensions>
      </trkpt>
      <trkpt lat="37.98719664104282855987548828125" lon="-107.73097537457942962646484375">
        <ele>3637.800048828125</ele>
        <time>2026-08-15T18:13:37.000Z</time>
        <extensions>
          <ns3:TrackPointExtension>
            <ns3:hr>113</ns3:hr>
            <ns3:cad>0</ns3:cad>
          </ns3:TrackPointExtension>
        </extensions>
      </trkpt>
      <trkpt lat="37.98719798214733600616455078125" lon="-107.73096791468560695648193359375">
        <ele>3638.39990234375</ele>
        <time>2026-08-15T18:13:43.000Z</time>
        <extensions>
          <ns3:TrackPointExtension>
            <ns3:hr>117</ns3:hr>
            <ns3:cad>0</ns3:cad>
          </ns3:TrackPointExtension>
        </extensions>
      </trkpt>
      <trkpt lat="37.98720032908022403717041015625" lon="-107.7309430204331874847412109375">
        <ele>3638.60009765625</ele>
        <time>2026-08-15T18:13:46.000Z</time>
        <extensions>
          <ns3:TrackPointExtension>
            <ns3:hr>120</ns3:hr>
            <ns3:cad>0</ns3:cad>
          </ns3:TrackPointExtension>
        </extensions>
      </trkpt>
      <trkpt lat="37.9872017540037631988525390625" lon="-107.73094126023352146148681640625">
        <ele>3638.800048828125</ele>
        <time>2026-08-15T18:13:47.000Z</time>
        <extensions>
          <ns3:TrackPointExtension>
            <ns3:hr>120</ns3:hr>
            <ns3:cad>0</ns3:cad>
          </ns3:TrackPointExtension>
        </extensions>
      </trkpt>
      <trkpt lat="37.98722212202847003936767578125" lon="-107.7309242449700832366943359375">
        <ele>3639.60009765625</ele>
        <time>2026-08-15T18:13:50.000Z</time>
        <extensions>
          <ns3:TrackPointExtension>
            <ns3:hr>119</ns3:hr>
            <ns3:cad>0</ns3:cad>
          </ns3:TrackPointExtension>
        </extensions>
      </trkpt>
      <trkpt lat="37.987230755388736724853515625" lon="-107.73090303875505924224853515625">
        <ele>3640</ele>
        <time>2026-08-15T18:13:52.000Z</time>
        <extensions>
          <ns3:TrackPointExtension>
            <ns3:hr>119</ns3:hr>
            <ns3:cad>0</ns3:cad>
          </ns3:TrackPointExtension>
        </extensions>
      </trkpt>
      <trkpt lat="37.987233102321624755859375" lon="-107.73086230270564556121826171875">
        <ele>3640.39990234375</ele>
        <time>2026-08-15T18:13:56.000Z</time>
        <extensions>
          <ns3:TrackPointExtension>
            <ns3:hr>118</ns3:hr>
            <ns3:cad>0</ns3:cad>
          </ns3:TrackPointExtension>
        </extensions>
      </trkpt>
      <trkpt lat="37.987232767045497894287109375" lon="-107.73084738291800022125244140625">
        <ele>3640.800048828125</ele>
        <time>2026-08-15T18:13:58.000Z</time>
        <extensions>
          <ns3:TrackPointExtension>
            <ns3:hr>115</ns3:hr>
            <ns3:cad>0</ns3:cad>
          </ns3:TrackPointExtension>
        </extensions>
      </trkpt>
      <trkpt lat="37.98722899518907070159912109375" lon="-107.7308434434235095977783203125">
        <ele>3641</ele>
        <time>2026-08-15T18:13:59.000Z</time>
        <extensions>
          <ns3:TrackPointExtension>
            <ns3:hr>113</ns3:hr>
            <ns3:cad>0</ns3:cad>
          </ns3:TrackPointExtension>
        </extensions>
      </trkpt>
      <trkpt lat="37.9872275702655315399169921875" lon="-107.73083531297743320465087890625">
        <ele>3641</ele>
        <time>2026-08-15T18:14:00.000Z</time>
        <extensions>
          <ns3:TrackPointExtension>
            <ns3:hr>111</ns3:hr>
            <ns3:cad>0</ns3:cad>
          </ns3:TrackPointExtension>
        </extensions>
      </trkpt>
      <trkpt lat="37.98722262494266033172607421875" lon="-107.7307981811463832855224609375">
        <ele>3642</ele>
        <time>2026-08-15T18:14:06.000Z</time>
        <extensions>
          <ns3:TrackPointExtension>
            <ns3:hr>112</ns3:hr>
            <ns3:cad>0</ns3:cad>
          </ns3:TrackPointExtension>
        </extensions>
      </trkpt>
      <trkpt lat="37.98722363077104091644287109375" lon="-107.7307891286909580230712890625">
        <ele>3642.199951171875</ele>
        <time>2026-08-15T18:14:07.000Z</time>
        <extensions>
          <ns3:TrackPointExtension>
            <ns3:hr>112</ns3:hr>
            <ns3:cad>0</ns3:cad>
          </ns3:TrackPointExtension>
        </extensions>
      </trkpt>
      <trkpt lat="37.98722329549491405487060546875" lon="-107.73077948950231075286865234375">
        <ele>3642.39990234375</ele>
        <time>2026-08-15T18:14:08.000Z</time>
        <extensions>
          <ns3:TrackPointExtension>
            <ns3:hr>112</ns3:hr>
            <ns3:cad>0</ns3:cad>
          </ns3:TrackPointExtension>
        </extensions>
      </trkpt>
      <trkpt lat="37.9872188530862331390380859375" lon="-107.73076138459146022796630859375">
        <ele>3643.199951171875</ele>
        <time>2026-08-15T18:14:11.000Z</time>
        <extensions>
          <ns3:TrackPointExtension>
            <ns3:hr>112</ns3:hr>
            <ns3:cad>61</ns3:cad>
          </ns3:TrackPointExtension>
        </extensions>
      </trkpt>
      <trkpt lat="37.9872268997132778167724609375" lon="-107.7307455427944660186767578125">
        <ele>3643.39990234375</ele>
        <time>2026-08-15T18:14:14.000Z</time>
        <extensions>
          <ns3:TrackPointExtension>
            <ns3:hr>114</ns3:hr>
            <ns3:cad>0</ns3:cad>
          </ns3:TrackPointExtension>
        </extensions>
      </trkpt>
      <trkpt lat="37.98722865991294384002685546875" lon="-107.73071059025824069976806640625">
        <ele>3644</ele>
        <time>2026-08-15T18:14:19.000Z</time>
        <extensions>
          <ns3:TrackPointExtension>
            <ns3:hr>117</ns3:hr>
            <ns3:cad>0</ns3:cad>
          </ns3:TrackPointExtension>
        </extensions>
      </trkpt>
      <trkpt lat="37.9872292466461658477783203125" lon="-107.73070271126925945281982421875">
        <ele>3644.199951171875</ele>
        <time>2026-08-15T18:14:20.000Z</time>
        <extensions>
          <ns3:TrackPointExtension>
            <ns3:hr>118</ns3:hr>
            <ns3:cad>0</ns3:cad>
          </ns3:TrackPointExtension>
        </extensions>
      </trkpt>
      <trkpt lat="37.987226732075214385986328125" lon="-107.73068829439580440521240234375">
        <ele>3644.39990234375</ele>
        <time>2026-08-15T18:14:21.000Z</time>
        <extensions>
          <ns3:TrackPointExtension>
            <ns3:hr>118</ns3:hr>
            <ns3:cad>0</ns3:cad>
          </ns3:TrackPointExtension>
        </extensions>
      </trkpt>
      <trkpt lat="37.98723419196903705596923828125" lon="-107.73064412176609039306640625">
        <ele>3645.199951171875</ele>
        <time>2026-08-15T18:14:26.000Z</time>
        <extensions>
          <ns3:TrackPointExtension>
            <ns3:hr>117</ns3:hr>
            <ns3:cad>0</ns3:cad>
          </ns3:TrackPointExtension>
        </extensions>
      </trkpt>
      <trkpt lat="37.98723720945417881011962890625" lon="-107.730634398758411407470703125">
        <ele>3645.39990234375</ele>
        <time>2026-08-15T18:14:27.000Z</time>
        <extensions>
          <ns3:TrackPointExtension>
            <ns3:hr>117</ns3:hr>
            <ns3:cad>0</ns3:cad>
          </ns3:TrackPointExtension>
        </extensions>
      </trkpt>
      <trkpt lat="37.9872339405119419097900390625" lon="-107.73062073625624179840087890625">
        <ele>3646.199951171875</ele>
        <time>2026-08-15T18:14:31.000Z</time>
        <extensions>
          <ns3:TrackPointExtension>
            <ns3:hr>117</ns3:hr>
            <ns3:cad>0</ns3:cad>
          </ns3:TrackPointExtension>
        </extensions>
      </trkpt>
      <trkpt lat="37.987240143120288848876953125" lon="-107.730584107339382171630859375">
        <ele>3646.60009765625</ele>
        <time>2026-08-15T18:14:35.000Z</time>
        <extensions>
          <ns3:TrackPointExtension>
            <ns3:hr>117</ns3:hr>
            <ns3:cad>0</ns3:cad>
          </ns3:TrackPointExtension>
        </extensions>
      </trkpt>
      <trkpt lat="37.98724190331995487213134765625" lon="-107.73057932965457439422607421875">
        <ele>3646.800048828125</ele>
        <time>2026-08-15T18:14:36.000Z</time>
        <extensions>
          <ns3:TrackPointExtension>
            <ns3:hr>118</ns3:hr>
            <ns3:cad>0</ns3:cad>
          </ns3:TrackPointExtension>
        </extensions>
      </trkpt>
      <trkpt lat="37.98724659718573093414306640625" lon="-107.73051110096275806427001953125">
        <ele>3646.800048828125</ele>
        <time>2026-08-15T18:14:42.000Z</time>
        <extensions>
          <ns3:TrackPointExtension>
            <ns3:hr>116</ns3:hr>
            <ns3:cad>0</ns3:cad>
          </ns3:TrackPointExtension>
        </extensions>
      </trkpt>
      <trkpt lat="37.987236119806766510009765625" lon="-107.73045360110700130462646484375">
        <ele>3647.39990234375</ele>
        <time>2026-08-15T18:14:48.000Z</time>
        <extensions>
          <ns3:TrackPointExtension>
            <ns3:hr>118</ns3:hr>
            <ns3:cad>0</ns3:cad>
          </ns3:TrackPointExtension>
        </extensions>
      </trkpt>
      <trkpt lat="37.98722463659942150115966796875" lon="-107.73041772656142711639404296875">
        <ele>3647.60009765625</ele>
        <time>2026-08-15T18:14:53.000Z</time>
        <extensions>
          <ns3:TrackPointExtension>
            <ns3:hr>121</ns3:hr>
            <ns3:cad>0</ns3:cad>
          </ns3:TrackPointExtension>
        </extensions>
      </trkpt>
      <trkpt lat="37.987222373485565185546875" lon="-107.7304099313914775848388671875">
        <ele>3647.800048828125</ele>
        <time>2026-08-15T18:14:54.000Z</time>
        <extensions>
          <ns3:TrackPointExtension>
            <ns3:hr>122</ns3:hr>
            <ns3:cad>0</ns3:cad>
          </ns3:TrackPointExtension>
        </extensions>
      </trkpt>
      <trkpt lat="37.98722078092396259307861328125" lon="-107.7303953468799591064453125">
        <ele>3648.60009765625</ele>
        <time>2026-08-15T18:14:58.000Z</time>
        <extensions>
          <ns3:TrackPointExtension>
            <ns3:hr>124</ns3:hr>
            <ns3:cad>0</ns3:cad>
          </ns3:TrackPointExtension>
        </extensions>
      </trkpt>
      <trkpt lat="37.9872195236384868621826171875" lon="-107.73038922809064388275146484375">
        <ele>3648.800048828125</ele>
        <time>2026-08-15T18:14:59.000Z</time>
        <extensions>
          <ns3:TrackPointExtension>
            <ns3:hr>124</ns3:hr>
            <ns3:cad>0</ns3:cad>
          </ns3:TrackPointExtension>
        </extensions>
      </trkpt>
      <trkpt lat="37.98719563521444797515869140625" lon="-107.73038101382553577423095703125">
        <ele>3649.60009765625</ele>
        <time>2026-08-15T18:15:05.000Z</time>
        <extensions>
          <ns3:TrackPointExtension>
            <ns3:hr>123</ns3:hr>
            <ns3:cad>0</ns3:cad>
          </ns3:TrackPointExtension>
        </extensions>
      </trkpt>
      <trkpt lat="37.98718356527388095855712890625" lon="-107.73036106489598751068115234375">
        <ele>3650.39990234375</ele>
        <time>2026-08-15T18:15:10.000Z</time>
        <extensions>
          <ns3:TrackPointExtension>
            <ns3:hr>124</ns3:hr>
            <ns3:cad>0</ns3:cad>
          </ns3:TrackPointExtension>
        </extensions>
      </trkpt>
      <trkpt lat="37.9871809668838977813720703125" lon="-107.73035033605992794036865234375">
        <ele>3650.800048828125</ele>
        <time>2026-08-15T18:15:13.000Z</time>
        <extensions>
          <ns3:TrackPointExtension>
            <ns3:hr>125</ns3:hr>
            <ns3:cad>0</ns3:cad>
          </ns3:TrackPointExtension>
        </extensions>
      </trkpt>
      <trkpt lat="37.98717342317104339599609375" lon="-107.730330638587474822998046875">
        <ele>3651.199951171875</ele>
        <time>2026-08-15T18:15:18.000Z</time>
        <extensions>
          <ns3:TrackPointExtension>
            <ns3:hr>126</ns3:hr>
            <ns3:cad>0</ns3:cad>
          </ns3:TrackPointExtension>
        </extensions>
      </trkpt>
      <trkpt lat="37.9871615208685398101806640625" lon="-107.73032351396977901458740234375">
        <ele>3651.800048828125</ele>
        <time>2026-08-15T18:15:22.000Z</time>
        <extensions>
          <ns3:TrackPointExtension>
            <ns3:hr>126</ns3:hr>
            <ns3:cad>0</ns3:cad>
          </ns3:TrackPointExtension>
        </extensions>
      </trkpt>
      <trkpt lat="37.98715892247855663299560546875" lon="-107.7303180657327175140380859375">
        <ele>3652</ele>
        <time>2026-08-15T18:15:24.000Z</time>
        <extensions>
          <ns3:TrackPointExtension>
            <ns3:hr>125</ns3:hr>
            <ns3:cad>0</ns3:cad>
          </ns3:TrackPointExtension>
        </extensions>
      </trkpt>
      <trkpt lat="37.987135536968708038330078125" lon="-107.73028814233839511871337890625">
        <ele>3653</ele>
        <time>2026-08-15T18:15:30.000Z</time>
        <extensions>
          <ns3:TrackPointExtension>
            <ns3:hr>125</ns3:hr>
            <ns3:cad>0</ns3:cad>
          </ns3:TrackPointExtension>
        </extensions>
      </trkpt>
      <trkpt lat="37.98713050782680511474609375" lon="-107.730283699929714202880859375">
        <ele>3653.39990234375</ele>
        <time>2026-08-15T18:15:31.000Z</time>
        <extensions>
          <ns3:TrackPointExtension>
            <ns3:hr>124</ns3:hr>
            <ns3:cad>0</ns3:cad>
          </ns3:TrackPointExtension>
        </extensions>
      </trkpt>
      <trkpt lat="37.98708952032029628753662109375" lon="-107.73026836104691028594970703125">
        <ele>3654</ele>
        <time>2026-08-15T18:15:37.000Z</time>
        <extensions>
          <ns3:TrackPointExtension>
            <ns3:hr>123</ns3:hr>
            <ns3:cad>0</ns3:cad>
          </ns3:TrackPointExtension>
        </extensions>
      </trkpt>
      <trkpt lat="37.98707996495068073272705078125" lon="-107.7302644215524196624755859375">
        <ele>3654.199951171875</ele>
        <time>2026-08-15T18:15:38.000Z</time>
        <extensions>
          <ns3:TrackPointExtension>
            <ns3:hr>123</ns3:hr>
            <ns3:cad>0</ns3:cad>
          </ns3:TrackPointExtension>
        </extensions>
      </trkpt>
      <trkpt lat="37.9870492033660411834716796875" lon="-107.73023365996778011322021484375">
        <ele>3654.60009765625</ele>
        <time>2026-08-15T18:15:43.000Z</time>
        <extensions>
          <ns3:TrackPointExtension>
            <ns3:hr>126</ns3:hr>
            <ns3:cad>0</ns3:cad>
          </ns3:TrackPointExtension>
        </extensions>
      </trkpt>
      <trkpt lat="37.98704643733799457550048828125" lon="-107.73022058419883251190185546875">
        <ele>3654.60009765625</ele>
        <time>2026-08-15T18:15:44.000Z</time>
        <extensions>
          <ns3:TrackPointExtension>
            <ns3:hr>127</ns3:hr>
            <ns3:cad>0</ns3:cad>
          </ns3:TrackPointExtension>
        </extensions>
      </trkpt>
      <trkpt lat="37.98704694025218486785888671875" lon="-107.73021362721920013427734375">
        <ele>3654.800048828125</ele>
        <time>2026-08-15T18:15:45.000Z</time>
        <extensions>
          <ns3:TrackPointExtension>
            <ns3:hr>132</ns3:hr>
            <ns3:cad>0</ns3:cad>
          </ns3:TrackPointExtension>
        </extensions>
      </trkpt>
      <trkpt lat="37.98704476095736026763916015625" lon="-107.7302044071257114410400390625">
        <ele>3655</ele>
        <time>2026-08-15T18:15:46.000Z</time>
        <extensions>
          <ns3:TrackPointExtension>
            <ns3:hr>135</ns3:hr>
            <ns3:cad>0</ns3:cad>
          </ns3:TrackPointExtension>
        </extensions>
      </trkpt>
      <trkpt lat="37.9870418272912502288818359375" lon="-107.730196528136730194091796875">
        <ele>3655.199951171875</ele>
        <time>2026-08-15T18:15:48.000Z</time>
        <extensions>
          <ns3:TrackPointExtension>
            <ns3:hr>136</ns3:hr>
            <ns3:cad>0</ns3:cad>
          </ns3:TrackPointExtension>
        </extensions>
      </trkpt>
      <trkpt lat="37.9870386421680450439453125" lon="-107.73018957115709781646728515625">
        <ele>3655.39990234375</ele>
        <time>2026-08-15T18:15:49.000Z</time>
        <extensions>
          <ns3:TrackPointExtension>
            <ns3:hr>136</ns3:hr>
            <ns3:cad>0</ns3:cad>
          </ns3:TrackPointExtension>
        </extensions>
      </trkpt>
      <trkpt lat="37.9870321042835712432861328125" lon="-107.7301420457661151885986328125">
        <ele>3656</ele>
        <time>2026-08-15T18:15:55.000Z</time>
        <extensions>
          <ns3:TrackPointExtension>
            <ns3:hr>137</ns3:hr>
            <ns3:cad>0</ns3:cad>
          </ns3:TrackPointExtension>
        </extensions>
      </trkpt>
      <trkpt lat="37.98702766187489032745361328125" lon="-107.730129472911357879638671875">
        <ele>3656.39990234375</ele>
        <time>2026-08-15T18:15:58.000Z</time>
        <extensions>
          <ns3:TrackPointExtension>
            <ns3:hr>138</ns3:hr>
            <ns3:cad>0</ns3:cad>
          </ns3:TrackPointExtension>
        </extensions>
      </trkpt>
      <trkpt lat="37.98701995052397251129150390625" lon="-107.7301189117133617401123046875">
        <ele>3657</ele>
        <time>2026-08-15T18:16:01.000Z</time>
        <extensions>
          <ns3:TrackPointExtension>
            <ns3:hr>137</ns3:hr>
            <ns3:cad>0</ns3:cad>
          </ns3:TrackPointExtension>
        </extensions>
      </trkpt>
      <trkpt lat="37.98701693303883075714111328125" lon="-107.730111368000507354736328125">
        <ele>3657.39990234375</ele>
        <time>2026-08-15T18:16:03.000Z</time>
        <extensions>
          <ns3:TrackPointExtension>
            <ns3:hr>137</ns3:hr>
            <ns3:cad>0</ns3:cad>
          </ns3:TrackPointExtension>
        </extensions>
      </trkpt>
      <trkpt lat="37.9870136640965938568115234375" lon="-107.7301018126308917999267578125">
        <ele>3658</ele>
        <time>2026-08-15T18:16:06.000Z</time>
        <extensions>
          <ns3:TrackPointExtension>
            <ns3:hr>138</ns3:hr>
            <ns3:cad>0</ns3:cad>
          </ns3:TrackPointExtension>
        </extensions>
      </trkpt>
      <trkpt lat="37.987002097070217132568359375" lon="-107.73008027113974094390869140625">
        <ele>3658.60009765625</ele>
        <time>2026-08-15T18:16:09.000Z</time>
        <extensions>
          <ns3:TrackPointExtension>
            <ns3:hr>136</ns3:hr>
            <ns3:cad>0</ns3:cad>
          </ns3:TrackPointExtension>
        </extensions>
      </trkpt>
      <trkpt lat="37.9869975708425045013427734375" lon="-107.73007909767329692840576171875">
        <ele>3658.800048828125</ele>
        <time>2026-08-15T18:16:11.000Z</time>
        <extensions>
          <ns3:TrackPointExtension>
            <ns3:hr>133</ns3:hr>
            <ns3:cad>0</ns3:cad>
          </ns3:TrackPointExtension>
        </extensions>
      </trkpt>
      <trkpt lat="37.98699564300477504730224609375" lon="-107.7300726436078548431396484375">
        <ele>3659</ele>
        <time>2026-08-15T18:16:12.000Z</time>
        <extensions>
          <ns3:TrackPointExtension>
            <ns3:hr>132</ns3:hr>
            <ns3:cad>0</ns3:cad>
          </ns3:TrackPointExtension>
        </extensions>
      </trkpt>
      <trkpt lat="37.98699178732931613922119140625" lon="-107.73006199859082698822021484375">
        <ele>3659.60009765625</ele>
        <time>2026-08-15T18:16:16.000Z</time>
        <extensions>
          <ns3:TrackPointExtension>
            <ns3:hr>130</ns3:hr>
            <ns3:cad>0</ns3:cad>
          </ns3:TrackPointExtension>
        </extensions>
      </trkpt>
      <trkpt lat="37.9869895242154598236083984375" lon="-107.730055712163448333740234375">
        <ele>3659.60009765625</ele>
        <time>2026-08-15T18:16:17.000Z</time>
        <extensions>
          <ns3:TrackPointExtension>
            <ns3:hr>127</ns3:hr>
            <ns3:cad>0</ns3:cad>
          </ns3:TrackPointExtension>
        </extensions>
      </trkpt>
      <trkpt lat="37.9869875125586986541748046875" lon="-107.73004892282187938690185546875">
        <ele>3659.60009765625</ele>
        <time>2026-08-15T18:16:18.000Z</time>
        <extensions>
          <ns3:TrackPointExtension>
            <ns3:hr>127</ns3:hr>
            <ns3:cad>0</ns3:cad>
          </ns3:TrackPointExtension>
        </extensions>
      </trkpt>
      <trkpt lat="37.98698374070227146148681640625" lon="-107.73001187480986118316650390625">
        <ele>3659.60009765625</ele>
        <time>2026-08-15T18:16:24.000Z</time>
        <extensions>
          <ns3:TrackPointExtension>
            <ns3:hr>125</ns3:hr>
            <ns3:cad>0</ns3:cad>
          </ns3:TrackPointExtension>
        </extensions>
      </trkpt>
      <trkpt lat="37.98698223195970058441162109375" lon="-107.73000575602054595947265625">
        <ele>3659.800048828125</ele>
        <time>2026-08-15T18:16:26.000Z</time>
        <extensions>
          <ns3:TrackPointExtension>
            <ns3:hr>125</ns3:hr>
            <ns3:cad>0</ns3:cad>
          </ns3:TrackPointExtension>
        </extensions>
      </trkpt>
      <trkpt lat="37.98697762191295623779296875" lon="-107.72998840548098087310791015625">
        <ele>3660.60009765625</ele>
        <time>2026-08-15T18:16:30.000Z</time>
        <extensions>
          <ns3:TrackPointExtension>
            <ns3:hr>123</ns3:hr>
            <ns3:cad>0</ns3:cad>
          </ns3:TrackPointExtension>
        </extensions>
      </trkpt>
      <trkpt lat="37.9869730956852436065673828125" lon="-107.72997264750301837921142578125">
        <ele>3660.800048828125</ele>
        <time>2026-08-15T18:16:31.000Z</time>
        <extensions>
          <ns3:TrackPointExtension>
            <ns3:hr>122</ns3:hr>
            <ns3:cad>0</ns3:cad>
          </ns3:TrackPointExtension>
        </extensions>
      </trkpt>
      <trkpt lat="37.98696261830627918243408203125" lon="-107.729963846504688262939453125">
        <ele>3661.800048828125</ele>
        <time>2026-08-15T18:16:35.000Z</time>
        <extensions>
          <ns3:TrackPointExtension>
            <ns3:hr>123</ns3:hr>
            <ns3:cad>0</ns3:cad>
          </ns3:TrackPointExtension>
        </extensions>
      </trkpt>
      <trkpt lat="37.98695339821279048919677734375" lon="-107.7299281395971775054931640625">
        <ele>3663</ele>
        <time>2026-08-15T18:16:40.000Z</time>
        <extensions>
          <ns3:TrackPointExtension>
            <ns3:hr>125</ns3:hr>
            <ns3:cad>0</ns3:cad>
          </ns3:TrackPointExtension>
        </extensions>
      </trkpt>
      <trkpt lat="37.986943423748016357421875" lon="-107.72992688231170177459716796875">
        <ele>3663.199951171875</ele>
        <time>2026-08-15T18:16:41.000Z</time>
        <extensions>
          <ns3:TrackPointExtension>
            <ns3:hr>124</ns3:hr>
            <ns3:cad>0</ns3:cad>
          </ns3:TrackPointExtension>
        </extensions>
      </trkpt>
      <trkpt lat="37.98694333992898464202880859375" lon="-107.729930989444255828857421875">
        <ele>3662</ele>
        <time>2026-08-15T18:16:46.000Z</time>
        <extensions>
          <ns3:TrackPointExtension>
            <ns3:hr>122</ns3:hr>
            <ns3:cad>0</ns3:cad>
          </ns3:TrackPointExtension>
        </extensions>
      </trkpt>
      <trkpt lat="37.98694333992898464202880859375" lon="-107.729930989444255828857421875">
        <ele>3661.800048828125</ele>
        <time>2026-08-15T18:16:47.000Z</time>
        <extensions>
          <ns3:TrackPointExtension>
            <ns3:hr>122</ns3:hr>
            <ns3:cad>0</ns3:cad>
          </ns3:TrackPointExtension>
        </extensions>
      </trkpt>
      <trkpt lat="37.98694333992898464202880859375" lon="-107.729930989444255828857421875">
        <ele>3661.60009765625</ele>
        <time>2026-08-15T18:16:53.000Z</time>
        <extensions>
          <ns3:TrackPointExtension>
            <ns3:hr>123</ns3:hr>
            <ns3:cad>0</ns3:cad>
          </ns3:TrackPointExtension>
        </extensions>
      </trkpt>
      <trkpt lat="37.98694082535803318023681640625" lon="-107.7299586497247219085693359375">
        <ele>3662.199951171875</ele>
        <time>2026-08-15T18:16:56.000Z</time>
        <extensions>
          <ns3:TrackPointExtension>
            <ns3:hr>123</ns3:hr>
            <ns3:cad>0</ns3:cad>
          </ns3:TrackPointExtension>
        </extensions>
      </trkpt>
      <trkpt lat="37.986937053501605987548828125" lon="-107.72997650317847728729248046875">
        <ele>3663</ele>
        <time>2026-08-15T18:16:58.000Z</time>
        <extensions>
          <ns3:TrackPointExtension>
            <ns3:hr>121</ns3:hr>
            <ns3:cad>74</ns3:cad>
          </ns3:TrackPointExtension>
        </extensions>
      </trkpt>
      <trkpt lat="37.98692557029426097869873046875" lon="-107.72999879904091358184814453125">
        <ele>3663.60009765625</ele>
        <time>2026-08-15T18:17:01.000Z</time>
        <extensions>
          <ns3:TrackPointExtension>
            <ns3:hr>118</ns3:hr>
            <ns3:cad>74</ns3:cad>
          </ns3:TrackPointExtension>
        </extensions>
      </trkpt>
      <trkpt lat="37.98691903240978717803955078125" lon="-107.73001086898148059844970703125">
        <ele>3663.800048828125</ele>
        <time>2026-08-15T18:17:03.000Z</time>
        <extensions>
          <ns3:TrackPointExtension>
            <ns3:hr>117</ns3:hr>
            <ns3:cad>0</ns3:cad>
          </ns3:TrackPointExtension>
        </extensions>
      </trkpt>
      <trkpt lat="37.98691685311496257781982421875" lon="-107.7300166524946689605712890625">
        <ele>3664</ele>
        <time>2026-08-15T18:17:04.000Z</time>
        <extensions>
          <ns3:TrackPointExtension>
            <ns3:hr>117</ns3:hr>
            <ns3:cad>0</ns3:cad>
          </ns3:TrackPointExtension>
        </extensions>
      </trkpt>
      <trkpt lat="37.98690025694668292999267578125" lon="-107.73007255978882312774658203125">
        <ele>3665</ele>
        <time>2026-08-15T18:17:10.000Z</time>
        <extensions>
          <ns3:TrackPointExtension>
            <ns3:hr>117</ns3:hr>
            <ns3:cad>0</ns3:cad>
          </ns3:TrackPointExtension>
        </extensions>
      </trkpt>
      <trkpt lat="37.98689757473766803741455078125" lon="-107.7300780080258846282958984375">
        <ele>3665.199951171875</ele>
        <time>2026-08-15T18:17:11.000Z</time>
        <extensions>
          <ns3:TrackPointExtension>
            <ns3:hr>117</ns3:hr>
            <ns3:cad>0</ns3:cad>
          </ns3:TrackPointExtension>
        </extensions>
      </trkpt>
      <trkpt lat="37.98690243624150753021240234375" lon="-107.73007054813206195831298828125">
        <ele>3665.39990234375</ele>
        <time>2026-08-15T18:17:13.000Z</time>
        <extensions>
          <ns3:TrackPointExtension>
            <ns3:hr>116</ns3:hr>
            <ns3:cad>0</ns3:cad>
          </ns3:TrackPointExtension>
        </extensions>
      </trkpt>
      <trkpt lat="37.986907549202442169189453125" lon="-107.73005579598248004913330078125">
        <ele>3665.39990234375</ele>
        <time>2026-08-15T18:17:16.000Z</time>
        <extensions>
          <ns3:TrackPointExtension>
            <ns3:hr>119</ns3:hr>
            <ns3:cad>0</ns3:cad>
          </ns3:TrackPointExtension>
        </extensions>
      </trkpt>
      <trkpt lat="37.9869107343256473541259765625" lon="-107.7300491742789745330810546875">
        <ele>3665.39990234375</ele>
        <time>2026-08-15T18:17:17.000Z</time>
        <extensions>
          <ns3:TrackPointExtension>
            <ns3:hr>120</ns3:hr>
            <ns3:cad>0</ns3:cad>
          </ns3:TrackPointExtension>
        </extensions>
      </trkpt>
      <trkpt lat="37.98691450618207454681396484375" lon="-107.73001640103757381439208984375">
        <ele>3665.199951171875</ele>
        <time>2026-08-15T18:17:21.000Z</time>
        <extensions>
          <ns3:TrackPointExtension>
            <ns3:hr>121</ns3:hr>
            <ns3:cad>0</ns3:cad>
          </ns3:TrackPointExtension>
        </extensions>
      </trkpt>
      <trkpt lat="37.986908219754695892333984375" lon="-107.72999846376478672027587890625">
        <ele>3664.39990234375</ele>
        <time>2026-08-15T18:17:26.000Z</time>
        <extensions>
          <ns3:TrackPointExtension>
            <ns3:hr>119</ns3:hr>
            <ns3:cad>0</ns3:cad>
          </ns3:TrackPointExtension>
        </extensions>
      </trkpt>
      <trkpt lat="37.9868976585566997528076171875" lon="-107.729999385774135589599609375">
        <ele>3664.199951171875</ele>
        <time>2026-08-15T18:17:28.000Z</time>
        <extensions>
          <ns3:TrackPointExtension>
            <ns3:hr>117</ns3:hr>
            <ns3:cad>0</ns3:cad>
          </ns3:TrackPointExtension>
        </extensions>
      </trkpt>
      <trkpt lat="37.98687636852264404296875" lon="-107.73000516928732395172119140625">
        <ele>3663.199951171875</ele>
        <time>2026-08-15T18:17:32.000Z</time>
        <extensions>
          <ns3:TrackPointExtension>
            <ns3:hr>115</ns3:hr>
            <ns3:cad>0</ns3:cad>
          </ns3:TrackPointExtension>
        </extensions>
      </trkpt>
      <trkpt lat="37.9868698306381702423095703125" lon="-107.73000902496278285980224609375">
        <ele>3663</ele>
        <time>2026-08-15T18:17:33.000Z</time>
        <extensions>
          <ns3:TrackPointExtension>
            <ns3:hr>115</ns3:hr>
            <ns3:cad>0</ns3:cad>
          </ns3:TrackPointExtension>
        </extensions>
      </trkpt>
      <trkpt lat="37.98683504574000835418701171875" lon="-107.73002159781754016876220703125">
        <ele>3662.199951171875</ele>
        <time>2026-08-15T18:17:39.000Z</time>
        <extensions>
          <ns3:TrackPointExtension>
            <ns3:hr>116</ns3:hr>
            <ns3:cad>0</ns3:cad>
          </ns3:TrackPointExtension>
        </extensions>
      </trkpt>
      <trkpt lat="37.9868198744952678680419921875" lon="-107.7300246991217136383056640625">
        <ele>3661.800048828125</ele>
        <time>2026-08-15T18:17:41.000Z</time>
        <extensions>
          <ns3:TrackPointExtension>
            <ns3:hr>115</ns3:hr>
            <ns3:cad>0</ns3:cad>
          </ns3:TrackPointExtension>
        </extensions>
      </trkpt>
      <trkpt lat="37.9867816530168056488037109375" lon="-107.730042971670627593994140625">
        <ele>3661.199951171875</ele>
        <time>2026-08-15T18:17:45.000Z</time>
        <extensions>
          <ns3:TrackPointExtension>
            <ns3:hr>113</ns3:hr>
            <ns3:cad>0</ns3:cad>
          </ns3:TrackPointExtension>
        </extensions>
      </trkpt>
      <trkpt lat="37.98675357364118099212646484375" lon="-107.73008530028164386749267578125">
        <ele>3661.199951171875</ele>
        <time>2026-08-15T18:17:50.000Z</time>
        <extensions>
          <ns3:TrackPointExtension>
            <ns3:hr>116</ns3:hr>
            <ns3:cad>0</ns3:cad>
          </ns3:TrackPointExtension>
        </extensions>
      </trkpt>
      <trkpt lat="37.9867528192698955535888671875" lon="-107.73009217344224452972412109375">
        <ele>3661.39990234375</ele>
        <time>2026-08-15T18:17:51.000Z</time>
        <extensions>
          <ns3:TrackPointExtension>
            <ns3:hr>116</ns3:hr>
            <ns3:cad>0</ns3:cad>
          </ns3:TrackPointExtension>
        </extensions>
      </trkpt>
      <trkpt lat="37.98671250231564044952392578125" lon="-107.73011530749499797821044921875">
        <ele>3661.39990234375</ele>
        <time>2026-08-15T18:17:57.000Z</time>
        <extensions>
          <ns3:TrackPointExtension>
            <ns3:hr>113</ns3:hr>
            <ns3:cad>0</ns3:cad>
          </ns3:TrackPointExtension>
        </extensions>
      </trkpt>
      <trkpt lat="37.98668014816939830780029296875" lon="-107.73013659752905368804931640625">
        <ele>3660.800048828125</ele>
        <time>2026-08-15T18:18:01.000Z</time>
        <extensions>
          <ns3:TrackPointExtension>
            <ns3:hr>111</ns3:hr>
            <ns3:cad>0</ns3:cad>
          </ns3:TrackPointExtension>
        </extensions>
      </trkpt>
      <trkpt lat="37.9866726882755756378173828125" lon="-107.730154283344745635986328125">
        <ele>3660.39990234375</ele>
        <time>2026-08-15T18:18:03.000Z</time>
        <extensions>
          <ns3:TrackPointExtension>
            <ns3:hr>111</ns3:hr>
            <ns3:cad>0</ns3:cad>
          </ns3:TrackPointExtension>
        </extensions>
      </trkpt>
      <trkpt lat="37.986648716032505035400390625" lon="-107.73020289838314056396484375">
        <ele>3660.60009765625</ele>
        <time>2026-08-15T18:18:08.000Z</time>
        <extensions>
          <ns3:TrackPointExtension>
            <ns3:hr>113</ns3:hr>
            <ns3:cad>0</ns3:cad>
          </ns3:TrackPointExtension>
        </extensions>
      </trkpt>
      <trkpt lat="37.9866354726254940032958984375" lon="-107.73025226779282093048095703125">
        <ele>3661.199951171875</ele>
        <time>2026-08-15T18:18:14.000Z</time>
        <extensions>
          <ns3:TrackPointExtension>
            <ns3:hr>114</ns3:hr>
            <ns3:cad>0</ns3:cad>
          </ns3:TrackPointExtension>
        </extensions>
      </trkpt>
      <trkpt lat="37.98662868328392505645751953125" lon="-107.73025176487863063812255859375">
        <ele>3661.199951171875</ele>
        <time>2026-08-15T18:18:15.000Z</time>
        <extensions>
          <ns3:TrackPointExtension>
            <ns3:hr>114</ns3:hr>
            <ns3:cad>0</ns3:cad>
          </ns3:TrackPointExtension>
        </extensions>
      </trkpt>
      <trkpt lat="37.9866016097366809844970703125" lon="-107.73027121089398860931396484375">
        <ele>3661</ele>
        <time>2026-08-15T18:18:21.000Z</time>
        <extensions>
          <ns3:TrackPointExtension>
            <ns3:hr>116</ns3:hr>
            <ns3:cad>0</ns3:cad>
          </ns3:TrackPointExtension>
        </extensions>
      </trkpt>
      <trkpt lat="37.98655760474503040313720703125" lon="-107.73030775599181652069091796875">
        <ele>3660.39990234375</ele>
        <time>2026-08-15T18:18:27.000Z</time>
        <extensions>
          <ns3:TrackPointExtension>
            <ns3:hr>117</ns3:hr>
            <ns3:cad>0</ns3:cad>
          </ns3:TrackPointExtension>
        </extensions>
      </trkpt>
      <trkpt lat="37.986512593924999237060546875" lon="-107.73034933023154735565185546875">
        <ele>3660</ele>
        <time>2026-08-15T18:18:33.000Z</time>
        <extensions>
          <ns3:TrackPointExtension>
            <ns3:hr>117</ns3:hr>
            <ns3:cad>0</ns3:cad>
          </ns3:TrackPointExtension>
        </extensions>
      </trkpt>
      <trkpt lat="37.98647495917975902557373046875" lon="-107.7303767390549182891845703125">
        <ele>3660</ele>
        <time>2026-08-15T18:18:38.000Z</time>
        <extensions>
          <ns3:TrackPointExtension>
            <ns3:hr>116</ns3:hr>
            <ns3:cad>40</ns3:cad>
          </ns3:TrackPointExtension>
        </extensions>
      </trkpt>
      <trkpt lat="37.9864172078669071197509765625" lon="-107.73042795248329639434814453125">
        <ele>3660</ele>
        <time>2026-08-15T18:18:44.000Z</time>
        <extensions>
          <ns3:TrackPointExtension>
            <ns3:hr>113</ns3:hr>
            <ns3:cad>41</ns3:cad>
          </ns3:TrackPointExtension>
        </extensions>
      </trkpt>
      <trkpt lat="37.98640765249729156494140625" lon="-107.7304354123771190643310546875">
        <ele>3660</ele>
        <time>2026-08-15T18:18:45.000Z</time>
        <extensions>
          <ns3:TrackPointExtension>
            <ns3:hr>112</ns3:hr>
            <ns3:cad>41</ns3:cad>
          </ns3:TrackPointExtension>
        </extensions>
      </trkpt>
      <trkpt lat="37.98637202940881252288818359375" lon="-107.7304531820118427276611328125">
        <ele>3659.60009765625</ele>
        <time>2026-08-15T18:18:48.000Z</time>
        <extensions>
          <ns3:TrackPointExtension>
            <ns3:hr>110</ns3:hr>
            <ns3:cad>53</ns3:cad>
          </ns3:TrackPointExtension>
        </extensions>
      </trkpt>
      <trkpt lat="37.986330874264240264892578125" lon="-107.73047983646392822265625">
        <ele>3659.39990234375</ele>
        <time>2026-08-15T18:18:52.000Z</time>
        <extensions>
          <ns3:TrackPointExtension>
            <ns3:hr>110</ns3:hr>
            <ns3:cad>0</ns3:cad>
          </ns3:TrackPointExtension>
        </extensions>
      </trkpt>
      <trkpt lat="37.9862784035503864288330078125" lon="-107.730529792606830596923828125">
        <ele>3659.199951171875</ele>
        <time>2026-08-15T18:18:58.000Z</time>
        <extensions>
          <ns3:TrackPointExtension>
            <ns3:hr>111</ns3:hr>
            <ns3:cad>0</ns3:cad>
          </ns3:TrackPointExtension>
        </extensions>
      </trkpt>
      <trkpt lat="37.98627379350364208221435546875" lon="-107.73053339682519435882568359375">
        <ele>3659.199951171875</ele>
        <time>2026-08-15T18:18:59.000Z</time>
        <extensions>
          <ns3:TrackPointExtension>
            <ns3:hr>111</ns3:hr>
            <ns3:cad>0</ns3:cad>
          </ns3:TrackPointExtension>
        </extensions>
      </trkpt>
      <trkpt lat="37.986228950321674346923828125" lon="-107.73056541569530963897705078125">
        <ele>3658.60009765625</ele>
        <time>2026-08-15T18:19:03.000Z</time>
        <extensions>
          <ns3:TrackPointExtension>
            <ns3:hr>110</ns3:hr>
            <ns3:cad>0</ns3:cad>
          </ns3:TrackPointExtension>
        </extensions>
      </trkpt>
      <trkpt lat="37.98619978129863739013671875" lon="-107.73058150894939899444580078125">
        <ele>3658.60009765625</ele>
        <time>2026-08-15T18:19:06.000Z</time>
        <extensions>
          <ns3:TrackPointExtension>
            <ns3:hr>110</ns3:hr>
            <ns3:cad>0</ns3:cad>
          </ns3:TrackPointExtension>
        </extensions>
      </trkpt>
      <trkpt lat="37.98615175299346446990966796875" lon="-107.73063045926392078399658203125">
        <ele>3659.199951171875</ele>
        <time>2026-08-15T18:19:12.000Z</time>
        <extensions>
          <ns3:TrackPointExtension>
            <ns3:hr>110</ns3:hr>
            <ns3:cad>0</ns3:cad>
          </ns3:TrackPointExtension>
        </extensions>
      </trkpt>
      <trkpt lat="37.986143790185451507568359375" lon="-107.73063632659614086151123046875">
        <ele>3659.199951171875</ele>
        <time>2026-08-15T18:19:13.000Z</time>
        <extensions>
          <ns3:TrackPointExtension>
            <ns3:hr>111</ns3:hr>
            <ns3:cad>0</ns3:cad>
          </ns3:TrackPointExtension>
        </extensions>
      </trkpt>
      <trkpt lat="37.9861137829720973968505859375" lon="-107.7306804992258548736572265625">
        <ele>3659.60009765625</ele>
        <time>2026-08-15T18:19:17.000Z</time>
        <extensions>
          <ns3:TrackPointExtension>
            <ns3:hr>113</ns3:hr>
            <ns3:cad>0</ns3:cad>
          </ns3:TrackPointExtension>
        </extensions>
      </trkpt>
      <trkpt lat="37.9860940016806125640869140625" lon="-107.73070723749697208404541015625">
        <ele>3659.60009765625</ele>
        <time>2026-08-15T18:19:19.000Z</time>
        <extensions>
          <ns3:TrackPointExtension>
            <ns3:hr>112</ns3:hr>
            <ns3:cad>0</ns3:cad>
          </ns3:TrackPointExtension>
        </extensions>
      </trkpt>
      <trkpt lat="37.98604823648929595947265625" lon="-107.7307519130408763885498046875">
        <ele>3659.39990234375</ele>
        <time>2026-08-15T18:19:24.000Z</time>
        <extensions>
          <ns3:TrackPointExtension>
            <ns3:hr>109</ns3:hr>
            <ns3:cad>0</ns3:cad>
          </ns3:TrackPointExtension>
        </extensions>
      </trkpt>
      <trkpt lat="37.986041866242885589599609375" lon="-107.7307562716305255889892578125">
        <ele>3659.39990234375</ele>
        <time>2026-08-15T18:19:25.000Z</time>
        <extensions>
          <ns3:TrackPointExtension>
            <ns3:hr>109</ns3:hr>
            <ns3:cad>0</ns3:cad>
          </ns3:TrackPointExtension>
        </extensions>
      </trkpt>
      <trkpt lat="37.9860247671604156494140625" lon="-107.73075367324054241180419921875">
        <ele>3659.60009765625</ele>
        <time>2026-08-15T18:19:28.000Z</time>
        <extensions>
          <ns3:TrackPointExtension>
            <ns3:hr>109</ns3:hr>
            <ns3:cad>0</ns3:cad>
          </ns3:TrackPointExtension>
        </extensions>
      </trkpt>
      <trkpt lat="37.9860059916973114013671875" lon="-107.730765827000141143798828125">
        <ele>3659.60009765625</ele>
        <time>2026-08-15T18:19:30.000Z</time>
        <extensions>
          <ns3:TrackPointExtension>
            <ns3:hr>111</ns3:hr>
            <ns3:cad>0</ns3:cad>
          </ns3:TrackPointExtension>
        </extensions>
      </trkpt>
      <trkpt lat="37.98600154928863048553466796875" lon="-107.7307723648846149444580078125">
        <ele>3659.60009765625</ele>
        <time>2026-08-15T18:19:31.000Z</time>
        <extensions>
          <ns3:TrackPointExtension>
            <ns3:hr>111</ns3:hr>
            <ns3:cad>0</ns3:cad>
          </ns3:TrackPointExtension>
        </extensions>
      </trkpt>
      <trkpt lat="37.98598788678646087646484375" lon="-107.73078854195773601531982421875">
        <ele>3659.39990234375</ele>
        <time>2026-08-15T18:19:33.000Z</time>
        <extensions>
          <ns3:TrackPointExtension>
            <ns3:hr>114</ns3:hr>
            <ns3:cad>0</ns3:cad>
          </ns3:TrackPointExtension>
        </extensions>
      </trkpt>
      <trkpt lat="37.9859488271176815032958984375" lon="-107.73083531297743320465087890625">
        <ele>3659</ele>
        <time>2026-08-15T18:19:38.000Z</time>
        <extensions>
          <ns3:TrackPointExtension>
            <ns3:hr>116</ns3:hr>
            <ns3:cad>0</ns3:cad>
          </ns3:TrackPointExtension>
        </extensions>
      </trkpt>
      <trkpt lat="37.98589937388896942138671875" lon="-107.730865739285945892333984375">
        <ele>3658.60009765625</ele>
        <time>2026-08-15T18:19:43.000Z</time>
        <extensions>
          <ns3:TrackPointExtension>
            <ns3:hr>116</ns3:hr>
            <ns3:cad>0</ns3:cad>
          </ns3:TrackPointExtension>
        </extensions>
      </trkpt>
      <trkpt lat="37.98588889651000499725341796875" lon="-107.73087210953235626220703125">
        <ele>3658.39990234375</ele>
        <time>2026-08-15T18:19:44.000Z</time>
        <extensions>
          <ns3:TrackPointExtension>
            <ns3:hr>116</ns3:hr>
            <ns3:cad>0</ns3:cad>
          </ns3:TrackPointExtension>
        </extensions>
      </trkpt>
      <trkpt lat="37.98583508469164371490478515625" lon="-107.73089298047125339508056640625">
        <ele>3657.800048828125</ele>
        <time>2026-08-15T18:19:50.000Z</time>
        <extensions>
          <ns3:TrackPointExtension>
            <ns3:hr>115</ns3:hr>
            <ns3:cad>0</ns3:cad>
          </ns3:TrackPointExtension>
        </extensions>
      </trkpt>
      <trkpt lat="37.9858247749507427215576171875" lon="-107.7308947406709194183349609375">
        <ele>3657.60009765625</ele>
        <time>2026-08-15T18:19:51.000Z</time>
        <extensions>
          <ns3:TrackPointExtension>
            <ns3:hr>114</ns3:hr>
            <ns3:cad>0</ns3:cad>
          </ns3:TrackPointExtension>
        </extensions>
      </trkpt>
      <trkpt lat="37.9858180694282054901123046875" lon="-107.73089532740414142608642578125">
        <ele>3657.60009765625</ele>
        <time>2026-08-15T18:19:52.000Z</time>
        <extensions>
          <ns3:TrackPointExtension>
            <ns3:hr>114</ns3:hr>
            <ns3:cad>0</ns3:cad>
          </ns3:TrackPointExtension>
        </extensions>
      </trkpt>
      <trkpt lat="37.98575696535408496856689453125" lon="-107.73091661743819713592529296875">
        <ele>3656.60009765625</ele>
        <time>2026-08-15T18:19:57.000Z</time>
        <extensions>
          <ns3:TrackPointExtension>
            <ns3:hr>112</ns3:hr>
            <ns3:cad>0</ns3:cad>
          </ns3:TrackPointExtension>
        </extensions>
      </trkpt>
      <trkpt lat="37.98573802225291728973388671875" lon="-107.7309183776378631591796875">
        <ele>3656.39990234375</ele>
        <time>2026-08-15T18:19:59.000Z</time>
        <extensions>
          <ns3:TrackPointExtension>
            <ns3:hr>110</ns3:hr>
            <ns3:cad>0</ns3:cad>
          </ns3:TrackPointExtension>
        </extensions>
      </trkpt>
      <trkpt lat="37.985696531832218170166015625" lon="-107.7309292741119861602783203125">
        <ele>3655.60009765625</ele>
        <time>2026-08-15T18:20:03.000Z</time>
        <extensions>
          <ns3:TrackPointExtension>
            <ns3:hr>107</ns3:hr>
            <ns3:cad>58</ns3:cad>
          </ns3:TrackPointExtension>
        </extensions>
      </trkpt>
      <trkpt lat="37.9856869764626026153564453125" lon="-107.73093053139746189117431640625">
        <ele>3655.39990234375</ele>
        <time>2026-08-15T18:20:04.000Z</time>
        <extensions>
          <ns3:TrackPointExtension>
            <ns3:hr>107</ns3:hr>
            <ns3:cad>58</ns3:cad>
          </ns3:TrackPointExtension>
        </extensions>
      </trkpt>
      <trkpt lat="37.985663004219532012939453125" lon="-107.730942182242870330810546875">
        <ele>3655</ele>
        <time>2026-08-15T18:20:06.000Z</time>
        <extensions>
          <ns3:TrackPointExtension>
            <ns3:hr>105</ns3:hr>
            <ns3:cad>0</ns3:cad>
          </ns3:TrackPointExtension>
        </extensions>
      </trkpt>
      <trkpt lat="37.98565302975475788116455078125" lon="-107.730944193899631500244140625">
        <ele>3655</ele>
        <time>2026-08-15T18:20:07.000Z</time>
        <extensions>
          <ns3:TrackPointExtension>
            <ns3:hr>101</ns3:hr>
            <ns3:cad>0</ns3:cad>
          </ns3:TrackPointExtension>
        </extensions>
      </trkpt>
      <trkpt lat="37.98561162315309047698974609375" lon="-107.7309701777994632720947265625">
        <ele>3654.60009765625</ele>
        <time>2026-08-15T18:20:12.000Z</time>
        <extensions>
          <ns3:TrackPointExtension>
            <ns3:hr>98</ns3:hr>
            <ns3:cad>60</ns3:cad>
          </ns3:TrackPointExtension>
        </extensions>
      </trkpt>
      <trkpt lat="37.9855929315090179443359375" lon="-107.73098409175872802734375">
        <ele>3654.39990234375</ele>
        <time>2026-08-15T18:20:14.000Z</time>
        <extensions>
          <ns3:TrackPointExtension>
            <ns3:hr>99</ns3:hr>
            <ns3:cad>0</ns3:cad>
          </ns3:TrackPointExtension>
        </extensions>
      </trkpt>
      <trkpt lat="37.98552931286394596099853515625" lon="-107.73101183585822582244873046875">
        <ele>3653.800048828125</ele>
        <time>2026-08-15T18:20:20.000Z</time>
        <extensions>
          <ns3:TrackPointExtension>
            <ns3:hr>99</ns3:hr>
            <ns3:cad>0</ns3:cad>
          </ns3:TrackPointExtension>
        </extensions>
      </trkpt>
      <trkpt lat="37.985522858798503875732421875" lon="-107.731017284095287322998046875">
        <ele>3653.800048828125</ele>
        <time>2026-08-15T18:20:21.000Z</time>
        <extensions>
          <ns3:TrackPointExtension>
            <ns3:hr>99</ns3:hr>
            <ns3:cad>0</ns3:cad>
          </ns3:TrackPointExtension>
        </extensions>
      </trkpt>
      <trkpt lat="37.98546678386628627777099609375" lon="-107.73103262297809123992919921875">
        <ele>3653.800048828125</ele>
        <time>2026-08-15T18:20:26.000Z</time>
        <extensions>
          <ns3:TrackPointExtension>
            <ns3:hr>99</ns3:hr>
            <ns3:cad>0</ns3:cad>
          </ns3:TrackPointExtension>
        </extensions>
      </trkpt>
      <trkpt lat="37.9854127205908298492431640625" lon="-107.7310498058795928955078125">
        <ele>3653.39990234375</ele>
        <time>2026-08-15T18:20:31.000Z</time>
        <extensions>
          <ns3:TrackPointExtension>
            <ns3:hr>101</ns3:hr>
            <ns3:cad>0</ns3:cad>
          </ns3:TrackPointExtension>
        </extensions>
      </trkpt>
      <trkpt lat="37.98540257848799228668212890625" lon="-107.7310513146221637725830078125">
        <ele>3653.199951171875</ele>
        <time>2026-08-15T18:20:32.000Z</time>
        <extensions>
          <ns3:TrackPointExtension>
            <ns3:hr>101</ns3:hr>
            <ns3:cad>0</ns3:cad>
          </ns3:TrackPointExtension>
        </extensions>
      </trkpt>
      <trkpt lat="37.9853389598429203033447265625" lon="-107.73105039261281490325927734375">
        <ele>3653</ele>
        <time>2026-08-15T18:20:38.000Z</time>
        <extensions>
          <ns3:TrackPointExtension>
            <ns3:hr>100</ns3:hr>
            <ns3:cad>51</ns3:cad>
          </ns3:TrackPointExtension>
        </extensions>
      </trkpt>
      <trkpt lat="37.98526662401854991912841796875" lon="-107.73106346838176250457763671875">
        <ele>3652.800048828125</ele>
        <time>2026-08-15T18:20:44.000Z</time>
        <extensions>
          <ns3:TrackPointExtension>
            <ns3:hr>101</ns3:hr>
            <ns3:cad>50</ns3:cad>
          </ns3:TrackPointExtension>
        </extensions>
      </trkpt>
      <trkpt lat="37.98525438643991947174072265625" lon="-107.7310657314956188201904296875">
        <ele>3652.60009765625</ele>
        <time>2026-08-15T18:20:45.000Z</time>
        <extensions>
          <ns3:TrackPointExtension>
            <ns3:hr>101</ns3:hr>
            <ns3:cad>50</ns3:cad>
          </ns3:TrackPointExtension>
        </extensions>
      </trkpt>
      <trkpt lat="37.98519194126129150390625" lon="-107.731042094528675079345703125">
        <ele>3652.60009765625</ele>
        <time>2026-08-15T18:20:51.000Z</time>
        <extensions>
          <ns3:TrackPointExtension>
            <ns3:hr>101</ns3:hr>
            <ns3:cad>54</ns3:cad>
          </ns3:TrackPointExtension>
        </extensions>
      </trkpt>
      <trkpt lat="37.98513050191104412078857421875" lon="-107.73105609230697154998779296875">
        <ele>3652.39990234375</ele>
        <time>2026-08-15T18:20:57.000Z</time>
        <extensions>
          <ns3:TrackPointExtension>
            <ns3:hr>104</ns3:hr>
            <ns3:cad>55</ns3:cad>
          </ns3:TrackPointExtension>
        </extensions>
      </trkpt>
      <trkpt lat="37.9851220361888408660888671875" lon="-107.73105810396373271942138671875">
        <ele>3652.60009765625</ele>
        <time>2026-08-15T18:20:58.000Z</time>
        <extensions>
          <ns3:TrackPointExtension>
            <ns3:hr>103</ns3:hr>
            <ns3:cad>55</ns3:cad>
          </ns3:TrackPointExtension>
        </extensions>
      </trkpt>
      <trkpt lat="37.98506076447665691375732421875" lon="-107.7310553379356861114501953125">
        <ele>3653</ele>
        <time>2026-08-15T18:21:04.000Z</time>
        <extensions>
          <ns3:TrackPointExtension>
            <ns3:hr>102</ns3:hr>
            <ns3:cad>0</ns3:cad>
          </ns3:TrackPointExtension>
        </extensions>
      </trkpt>
      <trkpt lat="37.9850036837160587310791015625" lon="-107.7310717664659023284912109375">
        <ele>3652.199951171875</ele>
        <time>2026-08-15T18:21:09.000Z</time>
        <extensions>
          <ns3:TrackPointExtension>
            <ns3:hr>102</ns3:hr>
            <ns3:cad>0</ns3:cad>
          </ns3:TrackPointExtension>
        </extensions>
      </trkpt>
      <trkpt lat="37.98497845418751239776611328125" lon="-107.731095068156719207763671875">
        <ele>3651.800048828125</ele>
        <time>2026-08-15T18:21:12.000Z</time>
        <extensions>
          <ns3:TrackPointExtension>
            <ns3:hr>102</ns3:hr>
            <ns3:cad>0</ns3:cad>
          </ns3:TrackPointExtension>
        </extensions>
      </trkpt>
      <trkpt lat="37.9849208705127239227294921875" lon="-107.7311284281313419342041015625">
        <ele>3651.199951171875</ele>
        <time>2026-08-15T18:21:18.000Z</time>
        <extensions>
          <ns3:TrackPointExtension>
            <ns3:hr>101</ns3:hr>
            <ns3:cad>68</ns3:cad>
          </ns3:TrackPointExtension>
        </extensions>
      </trkpt>
      <trkpt lat="37.98491676338016986846923828125" lon="-107.73112281225621700286865234375">
        <ele>3650.199951171875</ele>
        <time>2026-08-15T18:21:24.000Z</time>
        <extensions>
          <ns3:TrackPointExtension>
            <ns3:hr>101</ns3:hr>
            <ns3:cad>0</ns3:cad>
          </ns3:TrackPointExtension>
        </extensions>
      </trkpt>
      <trkpt lat="37.9849148355424404144287109375" lon="-107.7311237342655658721923828125">
        <ele>3650</ele>
        <time>2026-08-15T18:21:25.000Z</time>
        <extensions>
          <ns3:TrackPointExtension>
            <ns3:hr>101</ns3:hr>
            <ns3:cad>0</ns3:cad>
          </ns3:TrackPointExtension>
        </extensions>
      </trkpt>
      <trkpt lat="37.9848863370716571807861328125" lon="-107.73115231655538082122802734375">
        <ele>3649.199951171875</ele>
        <time>2026-08-15T18:21:29.000Z</time>
        <extensions>
          <ns3:TrackPointExtension>
            <ns3:hr>100</ns3:hr>
            <ns3:cad>0</ns3:cad>
          </ns3:TrackPointExtension>
        </extensions>
      </trkpt>
      <trkpt lat="37.984873093664646148681640625" lon="-107.7311817370355129241943359375">
        <ele>3649.199951171875</ele>
        <time>2026-08-15T18:21:32.000Z</time>
        <extensions>
          <ns3:TrackPointExtension>
            <ns3:hr>102</ns3:hr>
            <ns3:cad>0</ns3:cad>
          </ns3:TrackPointExtension>
        </extensions>
      </trkpt>
      <trkpt lat="37.98486010171473026275634765625" lon="-107.73121031932532787322998046875">
        <ele>3649.39990234375</ele>
        <time>2026-08-15T18:21:35.000Z</time>
        <extensions>
          <ns3:TrackPointExtension>
            <ns3:hr>105</ns3:hr>
            <ns3:cad>0</ns3:cad>
          </ns3:TrackPointExtension>
        </extensions>
      </trkpt>
      <trkpt lat="37.9848434217274188995361328125" lon="-107.73123093880712985992431640625">
        <ele>3649.199951171875</ele>
        <time>2026-08-15T18:21:38.000Z</time>
        <extensions>
          <ns3:TrackPointExtension>
            <ns3:hr>106</ns3:hr>
            <ns3:cad>0</ns3:cad>
          </ns3:TrackPointExtension>
        </extensions>
      </trkpt>
      <trkpt lat="37.984807379543781280517578125" lon="-107.73129413835704326629638671875">
        <ele>3648.39990234375</ele>
        <time>2026-08-15T18:21:44.000Z</time>
        <extensions>
          <ns3:TrackPointExtension>
            <ns3:hr>108</ns3:hr>
            <ns3:cad>41</ns3:cad>
          </ns3:TrackPointExtension>
        </extensions>
      </trkpt>
      <trkpt lat="37.984796650707721710205078125" lon="-107.73131291382014751434326171875">
        <ele>3648</ele>
        <time>2026-08-15T18:21:46.000Z</time>
        <extensions>
          <ns3:TrackPointExtension>
            <ns3:hr>108</ns3:hr>
            <ns3:cad>41</ns3:cad>
          </ns3:TrackPointExtension>
        </extensions>
      </trkpt>
      <trkpt lat="37.984760440886020660400390625" lon="-107.73134107701480388641357421875">
        <ele>3647.60009765625</ele>
        <time>2026-08-15T18:21:52.000Z</time>
        <extensions>
          <ns3:TrackPointExtension>
            <ns3:hr>108</ns3:hr>
            <ns3:cad>53</ns3:cad>
          </ns3:TrackPointExtension>
        </extensions>
      </trkpt>
      <trkpt lat="37.9847539030015468597412109375" lon="-107.73134442977607250213623046875">
        <ele>3647.60009765625</ele>
        <time>2026-08-15T18:21:53.000Z</time>
        <extensions>
          <ns3:TrackPointExtension>
            <ns3:hr>107</ns3:hr>
            <ns3:cad>53</ns3:cad>
          </ns3:TrackPointExtension>
        </extensions>
      </trkpt>
      <trkpt lat="37.98473269678652286529541015625" lon="-107.73136052303016185760498046875">
        <ele>3646.800048828125</ele>
        <time>2026-08-15T18:21:56.000Z</time>
        <extensions>
          <ns3:TrackPointExtension>
            <ns3:hr>107</ns3:hr>
            <ns3:cad>0</ns3:cad>
          </ns3:TrackPointExtension>
        </extensions>
      </trkpt>
      <trkpt lat="37.984698079526424407958984375" lon="-107.7314013428986072540283203125">
        <ele>3646.199951171875</ele>
        <time>2026-08-15T18:22:01.000Z</time>
        <extensions>
          <ns3:TrackPointExtension>
            <ns3:hr>108</ns3:hr>
            <ns3:cad>0</ns3:cad>
          </ns3:TrackPointExtension>
        </extensions>
      </trkpt>
      <trkpt lat="37.98465692438185214996337890625" lon="-107.73144568316638469696044921875">
        <ele>3646.199951171875</ele>
        <time>2026-08-15T18:22:07.000Z</time>
        <extensions>
          <ns3:TrackPointExtension>
            <ns3:hr>109</ns3:hr>
            <ns3:cad>0</ns3:cad>
          </ns3:TrackPointExtension>
        </extensions>
      </trkpt>
      <trkpt lat="37.98464669845998287200927734375" lon="-107.731455825269222259521484375">
        <ele>3646</ele>
        <time>2026-08-15T18:22:08.000Z</time>
        <extensions>
          <ns3:TrackPointExtension>
            <ns3:hr>109</ns3:hr>
            <ns3:cad>0</ns3:cad>
          </ns3:TrackPointExtension>
        </extensions>
      </trkpt>
      <trkpt lat="37.984624989330768585205078125" lon="-107.73150452412664890289306640625">
        <ele>3645.60009765625</ele>
        <time>2026-08-15T18:22:13.000Z</time>
        <extensions>
          <ns3:TrackPointExtension>
            <ns3:hr>109</ns3:hr>
            <ns3:cad>0</ns3:cad>
          </ns3:TrackPointExtension>
        </extensions>
      </trkpt>
      <trkpt lat="37.984616272151470184326171875" lon="-107.7315150015056133270263671875">
        <ele>3645.60009765625</ele>
        <time>2026-08-15T18:22:14.000Z</time>
        <extensions>
          <ns3:TrackPointExtension>
            <ns3:hr>108</ns3:hr>
            <ns3:cad>0</ns3:cad>
          </ns3:TrackPointExtension>
        </extensions>
      </trkpt>
      <trkpt lat="37.98461115919053554534912109375" lon="-107.73152212612330913543701171875">
        <ele>3645.800048828125</ele>
        <time>2026-08-15T18:22:17.000Z</time>
        <extensions>
          <ns3:TrackPointExtension>
            <ns3:hr>105</ns3:hr>
            <ns3:cad>0</ns3:cad>
          </ns3:TrackPointExtension>
        </extensions>
      </trkpt>
      <trkpt lat="37.984612248837947845458984375" lon="-107.7315223775804042816162109375">
        <ele>3645.39990234375</ele>
        <time>2026-08-15T18:22:19.000Z</time>
        <extensions>
          <ns3:TrackPointExtension>
            <ns3:hr>102</ns3:hr>
            <ns3:cad>0</ns3:cad>
          </ns3:TrackPointExtension>
        </extensions>
      </trkpt>
      <trkpt lat="37.98461032100021839141845703125" lon="-107.73153017275035381317138671875">
        <ele>3644.60009765625</ele>
        <time>2026-08-15T18:22:23.000Z</time>
        <extensions>
          <ns3:TrackPointExtension>
            <ns3:hr>99</ns3:hr>
            <ns3:cad>0</ns3:cad>
          </ns3:TrackPointExtension>
        </extensions>
      </trkpt>
      <trkpt lat="37.98459674231708049774169921875" lon="-107.73155397735536098480224609375">
        <ele>3645</ele>
        <time>2026-08-15T18:22:26.000Z</time>
        <extensions>
          <ns3:TrackPointExtension>
            <ns3:hr>98</ns3:hr>
            <ns3:cad>0</ns3:cad>
          </ns3:TrackPointExtension>
        </extensions>
      </trkpt>
      <trkpt lat="37.98457712866365909576416015625" lon="-107.7316179312765598297119140625">
        <ele>3644.199951171875</ele>
        <time>2026-08-15T18:22:32.000Z</time>
        <extensions>
          <ns3:TrackPointExtension>
            <ns3:hr>97</ns3:hr>
            <ns3:cad>0</ns3:cad>
          </ns3:TrackPointExtension>
        </extensions>
      </trkpt>
      <trkpt lat="37.98457302153110504150390625" lon="-107.73162421770393848419189453125">
        <ele>3644.199951171875</ele>
        <time>2026-08-15T18:22:33.000Z</time>
        <extensions>
          <ns3:TrackPointExtension>
            <ns3:hr>97</ns3:hr>
            <ns3:cad>0</ns3:cad>
          </ns3:TrackPointExtension>
        </extensions>
      </trkpt>
      <trkpt lat="37.98455114476382732391357421875" lon="-107.73167467676103115081787109375">
        <ele>3644</ele>
        <time>2026-08-15T18:22:38.000Z</time>
        <extensions>
          <ns3:TrackPointExtension>
            <ns3:hr>96</ns3:hr>
            <ns3:cad>0</ns3:cad>
          </ns3:TrackPointExtension>
        </extensions>
      </trkpt>
      <trkpt lat="37.9845255799591541290283203125" lon="-107.73168976418673992156982421875">
        <ele>3643.60009765625</ele>
        <time>2026-08-15T18:22:43.000Z</time>
        <extensions>
          <ns3:TrackPointExtension>
            <ns3:hr>98</ns3:hr>
            <ns3:cad>0</ns3:cad>
          </ns3:TrackPointExtension>
        </extensions>
      </trkpt>
      <trkpt lat="37.98451401293277740478515625" lon="-107.73169579915702342987060546875">
        <ele>3643</ele>
        <time>2026-08-15T18:22:45.000Z</time>
        <extensions>
          <ns3:TrackPointExtension>
            <ns3:hr>98</ns3:hr>
            <ns3:cad>0</ns3:cad>
          </ns3:TrackPointExtension>
        </extensions>
      </trkpt>
      <trkpt lat="37.984506301581859588623046875" lon="-107.7317040972411632537841796875">
        <ele>3642.60009765625</ele>
        <time>2026-08-15T18:22:47.000Z</time>
        <extensions>
          <ns3:TrackPointExtension>
            <ns3:hr>98</ns3:hr>
            <ns3:cad>0</ns3:cad>
          </ns3:TrackPointExtension>
        </extensions>
      </trkpt>
      <trkpt lat="37.9844876937568187713623046875" lon="-107.73173150606453418731689453125">
        <ele>3641.39990234375</ele>
        <time>2026-08-15T18:22:50.000Z</time>
        <extensions>
          <ns3:TrackPointExtension>
            <ns3:hr>99</ns3:hr>
            <ns3:cad>0</ns3:cad>
          </ns3:TrackPointExtension>
        </extensions>
      </trkpt>
      <trkpt lat="37.98447654582560062408447265625" lon="-107.73175899870693683624267578125">
        <ele>3640.60009765625</ele>
        <time>2026-08-15T18:22:52.000Z</time>
        <extensions>
          <ns3:TrackPointExtension>
            <ns3:hr>100</ns3:hr>
            <ns3:cad>0</ns3:cad>
          </ns3:TrackPointExtension>
        </extensions>
      </trkpt>
      <trkpt lat="37.98445793800055980682373046875" lon="-107.7318221144378185272216796875">
        <ele>3640.800048828125</ele>
        <time>2026-08-15T18:22:58.000Z</time>
        <extensions>
          <ns3:TrackPointExtension>
            <ns3:hr>102</ns3:hr>
            <ns3:cad>0</ns3:cad>
          </ns3:TrackPointExtension>
        </extensions>
      </trkpt>
      <trkpt lat="37.984454669058322906494140625" lon="-107.7318382076919078826904296875">
        <ele>3640.800048828125</ele>
        <time>2026-08-15T18:22:59.000Z</time>
        <extensions>
          <ns3:TrackPointExtension>
            <ns3:hr>102</ns3:hr>
            <ns3:cad>0</ns3:cad>
          </ns3:TrackPointExtension>
        </extensions>
      </trkpt>
      <trkpt lat="37.98443396575748920440673828125" lon="-107.73189512081444263458251953125">
        <ele>3640.39990234375</ele>
        <time>2026-08-15T18:23:04.000Z</time>
        <extensions>
          <ns3:TrackPointExtension>
            <ns3:hr>103</ns3:hr>
            <ns3:cad>51</ns3:cad>
          </ns3:TrackPointExtension>
        </extensions>
      </trkpt>
      <trkpt lat="37.98443161882460117340087890625" lon="-107.73190350271761417388916015625">
        <ele>3640.39990234375</ele>
        <time>2026-08-15T18:23:05.000Z</time>
        <extensions>
          <ns3:TrackPointExtension>
            <ns3:hr>103</ns3:hr>
            <ns3:cad>0</ns3:cad>
          </ns3:TrackPointExtension>
        </extensions>
      </trkpt>
      <trkpt lat="37.98441208899021148681640625" lon="-107.73193602450191974639892578125">
        <ele>3640</ele>
        <time>2026-08-15T18:23:11.000Z</time>
        <extensions>
          <ns3:TrackPointExtension>
            <ns3:hr>104</ns3:hr>
            <ns3:cad>0</ns3:cad>
          </ns3:TrackPointExtension>
        </extensions>
      </trkpt>
      <trkpt lat="37.98439390026032924652099609375" lon="-107.732004337012767791748046875">
        <ele>3639.39990234375</ele>
        <time>2026-08-15T18:23:16.000Z</time>
        <extensions>
          <ns3:TrackPointExtension>
            <ns3:hr>104</ns3:hr>
            <ns3:cad>0</ns3:cad>
          </ns3:TrackPointExtension>
        </extensions>
      </trkpt>
      <trkpt lat="37.98439188860356807708740234375" lon="-107.7320108748972415924072265625">
        <ele>3639.39990234375</ele>
        <time>2026-08-15T18:23:17.000Z</time>
        <extensions>
          <ns3:TrackPointExtension>
            <ns3:hr>104</ns3:hr>
            <ns3:cad>0</ns3:cad>
          </ns3:TrackPointExtension>
        </extensions>
      </trkpt>
      <trkpt lat="37.9843770526349544525146484375" lon="-107.73203409276902675628662109375">
        <ele>3640</ele>
        <time>2026-08-15T18:23:22.000Z</time>
        <extensions>
          <ns3:TrackPointExtension>
            <ns3:hr>103</ns3:hr>
            <ns3:cad>0</ns3:cad>
          </ns3:TrackPointExtension>
        </extensions>
      </trkpt>
      <trkpt lat="37.98436473123729228973388671875" lon="-107.7320427261292934417724609375">
        <ele>3639.60009765625</ele>
        <time>2026-08-15T18:23:25.000Z</time>
        <extensions>
          <ns3:TrackPointExtension>
            <ns3:hr>100</ns3:hr>
            <ns3:cad>0</ns3:cad>
          </ns3:TrackPointExtension>
        </extensions>
      </trkpt>
      <trkpt lat="37.98435576260089874267578125" lon="-107.73205420933663845062255859375">
        <ele>3638.800048828125</ele>
        <time>2026-08-15T18:23:28.000Z</time>
        <extensions>
          <ns3:TrackPointExtension>
            <ns3:hr>97</ns3:hr>
            <ns3:cad>0</ns3:cad>
          </ns3:TrackPointExtension>
        </extensions>
      </trkpt>
      <trkpt lat="37.984356768429279327392578125" lon="-107.73205496370792388916015625">
        <ele>3638.60009765625</ele>
        <time>2026-08-15T18:23:29.000Z</time>
        <extensions>
          <ns3:TrackPointExtension>
            <ns3:hr>97</ns3:hr>
            <ns3:cad>0</ns3:cad>
          </ns3:TrackPointExtension>
        </extensions>
      </trkpt>
      <trkpt lat="37.98434503376483917236328125" lon="-107.73206409998238086700439453125">
        <ele>3638.199951171875</ele>
        <time>2026-08-15T18:23:31.000Z</time>
        <extensions>
          <ns3:TrackPointExtension>
            <ns3:hr>96</ns3:hr>
            <ns3:cad>0</ns3:cad>
          </ns3:TrackPointExtension>
        </extensions>
      </trkpt>
      <trkpt lat="37.984338663518428802490234375" lon="-107.73207776248455047607421875">
        <ele>3637.39990234375</ele>
        <time>2026-08-15T18:23:34.000Z</time>
        <extensions>
          <ns3:TrackPointExtension>
            <ns3:hr>97</ns3:hr>
            <ns3:cad>0</ns3:cad>
          </ns3:TrackPointExtension>
        </extensions>
      </trkpt>
      <trkpt lat="37.98433522693812847137451171875" lon="-107.73208036087453365325927734375">
        <ele>3637</ele>
        <time>2026-08-15T18:23:35.000Z</time>
        <extensions>
          <ns3:TrackPointExtension>
            <ns3:hr>97</ns3:hr>
            <ns3:cad>0</ns3:cad>
          </ns3:TrackPointExtension>
        </extensions>
      </trkpt>
      <trkpt lat="37.9843264259397983551025390625" lon="-107.732086144387722015380859375">
        <ele>3636.800048828125</ele>
        <time>2026-08-15T18:23:39.000Z</time>
        <extensions>
          <ns3:TrackPointExtension>
            <ns3:hr>94</ns3:hr>
            <ns3:cad>0</ns3:cad>
          </ns3:TrackPointExtension>
        </extensions>
      </trkpt>
      <trkpt lat="37.9843240790069103240966796875" lon="-107.73211020044982433319091796875">
        <ele>3636</ele>
        <time>2026-08-15T18:23:42.000Z</time>
        <extensions>
          <ns3:TrackPointExtension>
            <ns3:hr>94</ns3:hr>
            <ns3:cad>0</ns3:cad>
          </ns3:TrackPointExtension>
        </extensions>
      </trkpt>
      <trkpt lat="37.98432265408337116241455078125" lon="-107.73211958818137645721435546875">
        <ele>3635.800048828125</ele>
        <time>2026-08-15T18:23:43.000Z</time>
        <extensions>
          <ns3:TrackPointExtension>
            <ns3:hr>93</ns3:hr>
            <ns3:cad>0</ns3:cad>
          </ns3:TrackPointExtension>
        </extensions>
      </trkpt>
      <trkpt lat="37.984305135905742645263671875" lon="-107.73218278773128986358642578125">
        <ele>3635.60009765625</ele>
        <time>2026-08-15T18:23:49.000Z</time>
        <extensions>
          <ns3:TrackPointExtension>
            <ns3:hr>94</ns3:hr>
            <ns3:cad>0</ns3:cad>
          </ns3:TrackPointExtension>
        </extensions>
      </trkpt>
      <trkpt lat="37.98430153168737888336181640625" lon="-107.73221363313496112823486328125">
        <ele>3634.800048828125</ele>
        <time>2026-08-15T18:23:53.000Z</time>
        <extensions>
          <ns3:TrackPointExtension>
            <ns3:hr>94</ns3:hr>
            <ns3:cad>0</ns3:cad>
          </ns3:TrackPointExtension>
        </extensions>
      </trkpt>
      <trkpt lat="37.9842928983271121978759765625" lon="-107.73222587071359157562255859375">
        <ele>3634.800048828125</ele>
        <time>2026-08-15T18:23:55.000Z</time>
        <extensions>
          <ns3:TrackPointExtension>
            <ns3:hr>95</ns3:hr>
            <ns3:cad>0</ns3:cad>
          </ns3:TrackPointExtension>
        </extensions>
      </trkpt>
      <trkpt lat="37.9842700995504856109619140625" lon="-107.732255794107913970947265625">
        <ele>3634.39990234375</ele>
        <time>2026-08-15T18:24:00.000Z</time>
        <extensions>
          <ns3:TrackPointExtension>
            <ns3:hr>98</ns3:hr>
            <ns3:cad>0</ns3:cad>
          </ns3:TrackPointExtension>
        </extensions>
      </trkpt>
      <trkpt lat="37.98425459302961826324462890625" lon="-107.73228119127452373504638671875">
        <ele>3633.60009765625</ele>
        <time>2026-08-15T18:24:02.000Z</time>
        <extensions>
          <ns3:TrackPointExtension>
            <ns3:hr>97</ns3:hr>
            <ns3:cad>0</ns3:cad>
          </ns3:TrackPointExtension>
        </extensions>
      </trkpt>
      <trkpt lat="37.98422575928270816802978515625" lon="-107.73233215324580669403076171875">
        <ele>3633</ele>
        <time>2026-08-15T18:24:07.000Z</time>
        <extensions>
          <ns3:TrackPointExtension>
            <ns3:hr>95</ns3:hr>
            <ns3:cad>0</ns3:cad>
          </ns3:TrackPointExtension>
        </extensions>
      </trkpt>
      <trkpt lat="37.98419591970741748809814453125" lon="-107.732375822961330413818359375">
        <ele>3632.60009765625</ele>
        <time>2026-08-15T18:24:12.000Z</time>
        <extensions>
          <ns3:TrackPointExtension>
            <ns3:hr>96</ns3:hr>
            <ns3:cad>0</ns3:cad>
          </ns3:TrackPointExtension>
        </extensions>
      </trkpt>
      <trkpt lat="37.98417563550174236297607421875" lon="-107.7324400283396244049072265625">
        <ele>3631.800048828125</ele>
        <time>2026-08-15T18:24:17.000Z</time>
        <extensions>
          <ns3:TrackPointExtension>
            <ns3:hr>98</ns3:hr>
            <ns3:cad>0</ns3:cad>
          </ns3:TrackPointExtension>
        </extensions>
      </trkpt>
      <trkpt lat="37.9841745458543300628662109375" lon="-107.7324738912284374237060546875">
        <ele>3632</ele>
        <time>2026-08-15T18:24:19.000Z</time>
        <extensions>
          <ns3:TrackPointExtension>
            <ns3:hr>101</ns3:hr>
            <ns3:cad>0</ns3:cad>
          </ns3:TrackPointExtension>
        </extensions>
      </trkpt>
      <trkpt lat="37.98416800796985626220703125" lon="-107.7324876375496387481689453125">
        <ele>3632</ele>
        <time>2026-08-15T18:24:21.000Z</time>
        <extensions>
          <ns3:TrackPointExtension>
            <ns3:hr>104</ns3:hr>
            <ns3:cad>0</ns3:cad>
          </ns3:TrackPointExtension>
        </extensions>
      </trkpt>
      <trkpt lat="37.984161637723445892333984375" lon="-107.73249861784279346466064453125">
        <ele>3632</ele>
        <time>2026-08-15T18:24:22.000Z</time>
        <extensions>
          <ns3:TrackPointExtension>
            <ns3:hr>105</ns3:hr>
            <ns3:cad>0</ns3:cad>
          </ns3:TrackPointExtension>
        </extensions>
      </trkpt>
      <trkpt lat="37.98413087613880634307861328125" lon="-107.7325580455362796783447265625">
        <ele>3631.39990234375</ele>
        <time>2026-08-15T18:24:28.000Z</time>
        <extensions>
          <ns3:TrackPointExtension>
            <ns3:hr>104</ns3:hr>
            <ns3:cad>0</ns3:cad>
          </ns3:TrackPointExtension>
        </extensions>
      </trkpt>
      <trkpt lat="37.98411972820758819580078125" lon="-107.73256994783878326416015625">
        <ele>3631.39990234375</ele>
        <time>2026-08-15T18:24:29.000Z</time>
        <extensions>
          <ns3:TrackPointExtension>
            <ns3:hr>103</ns3:hr>
            <ns3:cad>0</ns3:cad>
          </ns3:TrackPointExtension>
        </extensions>
      </trkpt>
      <trkpt lat="37.98407304100692272186279296875" lon="-107.732643373310565948486328125">
        <ele>3631.199951171875</ele>
        <time>2026-08-15T18:24:35.000Z</time>
        <extensions>
          <ns3:TrackPointExtension>
            <ns3:hr>102</ns3:hr>
            <ns3:cad>0</ns3:cad>
          </ns3:TrackPointExtension>
        </extensions>
      </trkpt>
      <trkpt lat="37.98405191861093044281005859375" lon="-107.73266877047717571258544921875">
        <ele>3631.199951171875</ele>
        <time>2026-08-15T18:24:37.000Z</time>
        <extensions>
          <ns3:TrackPointExtension>
            <ns3:hr>101</ns3:hr>
            <ns3:cad>0</ns3:cad>
          </ns3:TrackPointExtension>
        </extensions>
      </trkpt>
      <trkpt lat="37.98401243984699249267578125" lon="-107.73269425146281719207763671875">
        <ele>3631.199951171875</ele>
        <time>2026-08-15T18:24:42.000Z</time>
        <extensions>
          <ns3:TrackPointExtension>
            <ns3:hr>100</ns3:hr>
            <ns3:cad>0</ns3:cad>
          </ns3:TrackPointExtension>
        </extensions>
      </trkpt>
      <trkpt lat="37.9839713685214519500732421875" lon="-107.7327558584511280059814453125">
        <ele>3630.800048828125</ele>
        <time>2026-08-15T18:24:48.000Z</time>
        <extensions>
          <ns3:TrackPointExtension>
            <ns3:hr>99</ns3:hr>
            <ns3:cad>56</ns3:cad>
          </ns3:TrackPointExtension>
        </extensions>
      </trkpt>
      <trkpt lat="37.983966507017612457275390625" lon="-107.73277203552424907684326171875">
        <ele>3630.800048828125</ele>
        <time>2026-08-15T18:24:49.000Z</time>
        <extensions>
          <ns3:TrackPointExtension>
            <ns3:hr>101</ns3:hr>
            <ns3:cad>56</ns3:cad>
          </ns3:TrackPointExtension>
        </extensions>
      </trkpt>
      <trkpt lat="37.98396072350442409515380859375" lon="-107.73278108797967433929443359375">
        <ele>3631</ele>
        <time>2026-08-15T18:24:50.000Z</time>
        <extensions>
          <ns3:TrackPointExtension>
            <ns3:hr>104</ns3:hr>
            <ns3:cad>56</ns3:cad>
          </ns3:TrackPointExtension>
        </extensions>
      </trkpt>
      <trkpt lat="37.98395435325801372528076171875" lon="-107.73279030807316303253173828125">
        <ele>3631</ele>
        <time>2026-08-15T18:24:51.000Z</time>
        <extensions>
          <ns3:TrackPointExtension>
            <ns3:hr>110</ns3:hr>
            <ns3:cad>56</ns3:cad>
          </ns3:TrackPointExtension>
        </extensions>
      </trkpt>
      <trkpt lat="37.983950078487396240234375" lon="-107.73280120454728603363037109375">
        <ele>3630.800048828125</ele>
        <time>2026-08-15T18:24:52.000Z</time>
        <extensions>
          <ns3:TrackPointExtension>
            <ns3:hr>113</ns3:hr>
            <ns3:cad>52</ns3:cad>
          </ns3:TrackPointExtension>
        </extensions>
      </trkpt>
      <trkpt lat="37.98392753116786479949951171875" lon="-107.732858620584011077880859375">
        <ele>3630.60009765625</ele>
        <time>2026-08-15T18:24:57.000Z</time>
        <extensions>
          <ns3:TrackPointExtension>
            <ns3:hr>114</ns3:hr>
            <ns3:cad>0</ns3:cad>
          </ns3:TrackPointExtension>
        </extensions>
      </trkpt>
      <trkpt lat="37.9839086718857288360595703125" lon="-107.73289910517632961273193359375">
        <ele>3630.60009765625</ele>
        <time>2026-08-15T18:25:01.000Z</time>
        <extensions>
          <ns3:TrackPointExtension>
            <ns3:hr>117</ns3:hr>
            <ns3:cad>54</ns3:cad>
          </ns3:TrackPointExtension>
        </extensions>
      </trkpt>
      <trkpt lat="37.98390246927738189697265625" lon="-107.7329060621559619903564453125">
        <ele>3630.60009765625</ele>
        <time>2026-08-15T18:25:02.000Z</time>
        <extensions>
          <ns3:TrackPointExtension>
            <ns3:hr>120</ns3:hr>
            <ns3:cad>47</ns3:cad>
          </ns3:TrackPointExtension>
        </extensions>
      </trkpt>
      <trkpt lat="37.98389576375484466552734375" lon="-107.73291519843041896820068359375">
        <ele>3630.60009765625</ele>
        <time>2026-08-15T18:25:03.000Z</time>
        <extensions>
          <ns3:TrackPointExtension>
            <ns3:hr>120</ns3:hr>
            <ns3:cad>47</ns3:cad>
          </ns3:TrackPointExtension>
        </extensions>
      </trkpt>
      <trkpt lat="37.98388771712779998779296875" lon="-107.73292534053325653076171875">
        <ele>3630.60009765625</ele>
        <time>2026-08-15T18:25:04.000Z</time>
        <extensions>
          <ns3:TrackPointExtension>
            <ns3:hr>120</ns3:hr>
            <ns3:cad>47</ns3:cad>
          </ns3:TrackPointExtension>
        </extensions>
      </trkpt>
      <trkpt lat="37.98385209403932094573974609375" lon="-107.7329825051128864288330078125">
        <ele>3630.39990234375</ele>
        <time>2026-08-15T18:25:09.000Z</time>
        <extensions>
          <ns3:TrackPointExtension>
            <ns3:hr>118</ns3:hr>
            <ns3:cad>0</ns3:cad>
          </ns3:TrackPointExtension>
        </extensions>
      </trkpt>
      <trkpt lat="37.98382736742496490478515625" lon="-107.73301075212657451629638671875">
        <ele>3630</ele>
        <time>2026-08-15T18:25:12.000Z</time>
        <extensions>
          <ns3:TrackPointExtension>
            <ns3:hr>116</ns3:hr>
            <ns3:cad>0</ns3:cad>
          </ns3:TrackPointExtension>
        </extensions>
      </trkpt>
      <trkpt lat="37.983780764043331146240234375" lon="-107.7330619655549526214599609375">
        <ele>3629.800048828125</ele>
        <time>2026-08-15T18:25:18.000Z</time>
        <extensions>
          <ns3:TrackPointExtension>
            <ns3:hr>116</ns3:hr>
            <ns3:cad>0</ns3:cad>
          </ns3:TrackPointExtension>
        </extensions>
      </trkpt>
      <trkpt lat="37.983767688274383544921875" lon="-107.73307965137064456939697265625">
        <ele>3629.199951171875</ele>
        <time>2026-08-15T18:25:20.000Z</time>
        <extensions>
          <ns3:TrackPointExtension>
            <ns3:hr>115</ns3:hr>
            <ns3:cad>0</ns3:cad>
          </ns3:TrackPointExtension>
        </extensions>
      </trkpt>
      <trkpt lat="37.9837467335164546966552734375" lon="-107.73309691809117794036865234375">
        <ele>3628.60009765625</ele>
        <time>2026-08-15T18:25:22.000Z</time>
        <extensions>
          <ns3:TrackPointExtension>
            <ns3:hr>112</ns3:hr>
            <ns3:cad>0</ns3:cad>
          </ns3:TrackPointExtension>
        </extensions>
      </trkpt>
      <trkpt lat="37.9837306402623653411865234375" lon="-107.73310848511755466461181640625">
        <ele>3628.199951171875</ele>
        <time>2026-08-15T18:25:24.000Z</time>
        <extensions>
          <ns3:TrackPointExtension>
            <ns3:hr>108</ns3:hr>
            <ns3:cad>0</ns3:cad>
          </ns3:TrackPointExtension>
        </extensions>
      </trkpt>
      <trkpt lat="37.983705997467041015625" lon="-107.7331367321312427520751953125">
        <ele>3628.199951171875</ele>
        <time>2026-08-15T18:25:27.000Z</time>
        <extensions>
          <ns3:TrackPointExtension>
            <ns3:hr>106</ns3:hr>
            <ns3:cad>0</ns3:cad>
          </ns3:TrackPointExtension>
        </extensions>
      </trkpt>
      <trkpt lat="37.983690239489078521728515625" lon="-107.73315542377531528472900390625">
        <ele>3628</ele>
        <time>2026-08-15T18:25:29.000Z</time>
        <extensions>
          <ns3:TrackPointExtension>
            <ns3:hr>105</ns3:hr>
            <ns3:cad>0</ns3:cad>
          </ns3:TrackPointExtension>
        </extensions>
      </trkpt>
      <trkpt lat="37.9836612381041049957275390625" lon="-107.7332057990133762359619140625">
        <ele>3628</ele>
        <time>2026-08-15T18:25:34.000Z</time>
        <extensions>
          <ns3:TrackPointExtension>
            <ns3:hr>102</ns3:hr>
            <ns3:cad>0</ns3:cad>
          </ns3:TrackPointExtension>
        </extensions>
      </trkpt>
      <trkpt lat="37.98363634385168552398681640625" lon="-107.7332168631255626678466796875">
        <ele>3627.800048828125</ele>
        <time>2026-08-15T18:25:38.000Z</time>
        <extensions>
          <ns3:TrackPointExtension>
            <ns3:hr>99</ns3:hr>
            <ns3:cad>0</ns3:cad>
          </ns3:TrackPointExtension>
        </extensions>
      </trkpt>
      <trkpt lat="37.9836263693869113922119140625" lon="-107.73321912623941898345947265625">
        <ele>3627.800048828125</ele>
        <time>2026-08-15T18:25:39.000Z</time>
        <extensions>
          <ns3:TrackPointExtension>
            <ns3:hr>99</ns3:hr>
            <ns3:cad>0</ns3:cad>
          </ns3:TrackPointExtension>
        </extensions>
      </trkpt>
      <trkpt lat="37.98359401524066925048828125" lon="-107.7332671545445919036865234375">
        <ele>3626.800048828125</ele>
        <time>2026-08-15T18:25:45.000Z</time>
        <extensions>
          <ns3:TrackPointExtension>
            <ns3:hr>99</ns3:hr>
            <ns3:cad>0</ns3:cad>
          </ns3:TrackPointExtension>
        </extensions>
      </trkpt>
      <trkpt lat="37.98354975879192352294921875" lon="-107.73332792334258556365966796875">
        <ele>3626</ele>
        <time>2026-08-15T18:25:51.000Z</time>
        <extensions>
          <ns3:TrackPointExtension>
            <ns3:hr>100</ns3:hr>
            <ns3:cad>0</ns3:cad>
          </ns3:TrackPointExtension>
        </extensions>
      </trkpt>
      <trkpt lat="37.98354305326938629150390625" lon="-107.7333492971956729888916015625">
        <ele>3625.800048828125</ele>
        <time>2026-08-15T18:25:53.000Z</time>
        <extensions>
          <ns3:TrackPointExtension>
            <ns3:hr>100</ns3:hr>
            <ns3:cad>0</ns3:cad>
          </ns3:TrackPointExtension>
        </extensions>
      </trkpt>
      <trkpt lat="37.98352964222431182861328125" lon="-107.73336798883974552154541015625">
        <ele>3625.800048828125</ele>
        <time>2026-08-15T18:25:55.000Z</time>
        <extensions>
          <ns3:TrackPointExtension>
            <ns3:hr>101</ns3:hr>
            <ns3:cad>0</ns3:cad>
          </ns3:TrackPointExtension>
        </extensions>
      </trkpt>
      <trkpt lat="37.98348111100494861602783203125" lon="-107.73342833854258060455322265625">
        <ele>3625</ele>
        <time>2026-08-15T18:26:01.000Z</time>
        <extensions>
          <ns3:TrackPointExtension>
            <ns3:hr>102</ns3:hr>
            <ns3:cad>56</ns3:cad>
          </ns3:TrackPointExtension>
        </extensions>
      </trkpt>
      <trkpt lat="37.9834386147558689117431640625" lon="-107.73347661830484867095947265625">
        <ele>3624.800048828125</ele>
        <time>2026-08-15T18:26:07.000Z</time>
        <extensions>
          <ns3:TrackPointExtension>
            <ns3:hr>102</ns3:hr>
            <ns3:cad>0</ns3:cad>
          </ns3:TrackPointExtension>
        </extensions>
      </trkpt>
      <trkpt lat="37.98343048430979251861572265625" lon="-107.73348147980868816375732421875">
        <ele>3624.800048828125</ele>
        <time>2026-08-15T18:26:08.000Z</time>
        <extensions>
          <ns3:TrackPointExtension>
            <ns3:hr>102</ns3:hr>
            <ns3:cad>0</ns3:cad>
          </ns3:TrackPointExtension>
        </extensions>
      </trkpt>
      <trkpt lat="37.98339343629777431488037109375" lon="-107.73351274430751800537109375">
        <ele>3624.199951171875</ele>
        <time>2026-08-15T18:26:13.000Z</time>
        <extensions>
          <ns3:TrackPointExtension>
            <ns3:hr>102</ns3:hr>
            <ns3:cad>0</ns3:cad>
          </ns3:TrackPointExtension>
        </extensions>
      </trkpt>
      <trkpt lat="37.98338354565203189849853515625" lon="-107.733540236949920654296875">
        <ele>3623.800048828125</ele>
        <time>2026-08-15T18:26:15.000Z</time>
        <extensions>
          <ns3:TrackPointExtension>
            <ns3:hr>102</ns3:hr>
            <ns3:cad>0</ns3:cad>
          </ns3:TrackPointExtension>
        </extensions>
      </trkpt>
      <trkpt lat="37.9833678714931011199951171875" lon="-107.73358256556093692779541015625">
        <ele>3623</ele>
        <time>2026-08-15T18:26:18.000Z</time>
        <extensions>
          <ns3:TrackPointExtension>
            <ns3:hr>104</ns3:hr>
            <ns3:cad>0</ns3:cad>
          </ns3:TrackPointExtension>
        </extensions>
      </trkpt>
      <trkpt lat="37.98332923091948032379150390625" lon="-107.73360905237495899200439453125">
        <ele>3622.60009765625</ele>
        <time>2026-08-15T18:26:21.000Z</time>
        <extensions>
          <ns3:TrackPointExtension>
            <ns3:hr>106</ns3:hr>
            <ns3:cad>0</ns3:cad>
          </ns3:TrackPointExtension>
        </extensions>
      </trkpt>
      <trkpt lat="37.98330157063901424407958984375" lon="-107.73361190222203731536865234375">
        <ele>3622.199951171875</ele>
        <time>2026-08-15T18:26:24.000Z</time>
        <extensions>
          <ns3:TrackPointExtension>
            <ns3:hr>107</ns3:hr>
            <ns3:cad>62</ns3:cad>
          </ns3:TrackPointExtension>
        </extensions>
      </trkpt>
      <trkpt lat="37.9832354374229907989501953125" lon="-107.73361642844974994659423828125">
        <ele>3622</ele>
        <time>2026-08-15T18:26:30.000Z</time>
        <extensions>
          <ns3:TrackPointExtension>
            <ns3:hr>107</ns3:hr>
            <ns3:cad>62</ns3:cad>
          </ns3:TrackPointExtension>
        </extensions>
      </trkpt>
      <trkpt lat="37.98322244547307491302490234375" lon="-107.7336205355823040008544921875">
        <ele>3622</ele>
        <time>2026-08-15T18:26:31.000Z</time>
        <extensions>
          <ns3:TrackPointExtension>
            <ns3:hr>107</ns3:hr>
            <ns3:cad>62</ns3:cad>
          </ns3:TrackPointExtension>
        </extensions>
      </trkpt>
      <trkpt lat="37.9831586591899394989013671875" lon="-107.7336664684116840362548828125">
        <ele>3622.800048828125</ele>
        <time>2026-08-15T18:26:37.000Z</time>
        <extensions>
          <ns3:TrackPointExtension>
            <ns3:hr>107</ns3:hr>
            <ns3:cad>0</ns3:cad>
          </ns3:TrackPointExtension>
        </extensions>
      </trkpt>
      <trkpt lat="37.983147762715816497802734375" lon="-107.73367728106677532196044921875">
        <ele>3623</ele>
        <time>2026-08-15T18:26:38.000Z</time>
        <extensions>
          <ns3:TrackPointExtension>
            <ns3:hr>107</ns3:hr>
            <ns3:cad>0</ns3:cad>
          </ns3:TrackPointExtension>
        </extensions>
      </trkpt>
      <trkpt lat="37.9831006564199924468994140625" lon="-107.73371147923171520233154296875">
        <ele>3622.60009765625</ele>
        <time>2026-08-15T18:26:44.000Z</time>
        <extensions>
          <ns3:TrackPointExtension>
            <ns3:hr>106</ns3:hr>
            <ns3:cad>0</ns3:cad>
          </ns3:TrackPointExtension>
        </extensions>
      </trkpt>
      <trkpt lat="37.9830922745168209075927734375" lon="-107.73372120223939418792724609375">
        <ele>3622.60009765625</ele>
        <time>2026-08-15T18:26:45.000Z</time>
        <extensions>
          <ns3:TrackPointExtension>
            <ns3:hr>107</ns3:hr>
            <ns3:cad>0</ns3:cad>
          </ns3:TrackPointExtension>
        </extensions>
      </trkpt>
      <trkpt lat="37.98303888179361820220947265625" lon="-107.7337536402046680450439453125">
        <ele>3621.800048828125</ele>
        <time>2026-08-15T18:26:51.000Z</time>
        <extensions>
          <ns3:TrackPointExtension>
            <ns3:hr>105</ns3:hr>
            <ns3:cad>0</ns3:cad>
          </ns3:TrackPointExtension>
        </extensions>
      </trkpt>
      <trkpt lat="37.9830215312540531158447265625" lon="-107.733759172260761260986328125">
        <ele>3621.60009765625</ele>
        <time>2026-08-15T18:26:53.000Z</time>
        <extensions>
          <ns3:TrackPointExtension>
            <ns3:hr>108</ns3:hr>
            <ns3:cad>0</ns3:cad>
          </ns3:TrackPointExtension>
        </extensions>
      </trkpt>
      <trkpt lat="37.98301734030246734619140625" lon="-107.73376126773655414581298828125">
        <ele>3621.39990234375</ele>
        <time>2026-08-15T18:26:54.000Z</time>
        <extensions>
          <ns3:TrackPointExtension>
            <ns3:hr>109</ns3:hr>
            <ns3:cad>0</ns3:cad>
          </ns3:TrackPointExtension>
        </extensions>
      </trkpt>
      <trkpt lat="37.98299278132617473602294921875" lon="-107.7337754331529140472412109375">
        <ele>3620.39990234375</ele>
        <time>2026-08-15T18:26:58.000Z</time>
        <extensions>
          <ns3:TrackPointExtension>
            <ns3:hr>109</ns3:hr>
            <ns3:cad>0</ns3:cad>
          </ns3:TrackPointExtension>
        </extensions>
      </trkpt>
      <trkpt lat="37.9829831421375274658203125" lon="-107.73378306068480014801025390625">
        <ele>3620.199951171875</ele>
        <time>2026-08-15T18:26:59.000Z</time>
        <extensions>
          <ns3:TrackPointExtension>
            <ns3:hr>109</ns3:hr>
            <ns3:cad>0</ns3:cad>
          </ns3:TrackPointExtension>
        </extensions>
      </trkpt>
      <trkpt lat="37.98295590095221996307373046875" lon="-107.7337965555489063262939453125">
        <ele>3619.60009765625</ele>
        <time>2026-08-15T18:27:02.000Z</time>
        <extensions>
          <ns3:TrackPointExtension>
            <ns3:hr>106</ns3:hr>
            <ns3:cad>0</ns3:cad>
          </ns3:TrackPointExtension>
        </extensions>
      </trkpt>
      <trkpt lat="37.98291818238794803619384765625" lon="-107.73382731713354587554931640625">
        <ele>3619.199951171875</ele>
        <time>2026-08-15T18:27:06.000Z</time>
        <extensions>
          <ns3:TrackPointExtension>
            <ns3:hr>104</ns3:hr>
            <ns3:cad>0</ns3:cad>
          </ns3:TrackPointExtension>
        </extensions>
      </trkpt>
      <trkpt lat="37.98289798200130462646484375" lon="-107.7338455058634281158447265625">
        <ele>3618.800048828125</ele>
        <time>2026-08-15T18:27:08.000Z</time>
        <extensions>
          <ns3:TrackPointExtension>
            <ns3:hr>103</ns3:hr>
            <ns3:cad>0</ns3:cad>
          </ns3:TrackPointExtension>
        </extensions>
      </trkpt>
      <trkpt lat="37.98285238444805145263671875" lon="-107.73389160633087158203125">
        <ele>3618</ele>
        <time>2026-08-15T18:27:14.000Z</time>
        <extensions>
          <ns3:TrackPointExtension>
            <ns3:hr>102</ns3:hr>
            <ns3:cad>55</ns3:cad>
          </ns3:TrackPointExtension>
        </extensions>
      </trkpt>
      <trkpt lat="37.982845343649387359619140625" lon="-107.7338941209018230438232421875">
        <ele>3617.800048828125</ele>
        <time>2026-08-15T18:27:15.000Z</time>
        <extensions>
          <ns3:TrackPointExtension>
            <ns3:hr>102</ns3:hr>
            <ns3:cad>55</ns3:cad>
          </ns3:TrackPointExtension>
        </extensions>
      </trkpt>
      <trkpt lat="37.98280368559062480926513671875" lon="-107.7339063584804534912109375">
        <ele>3617.199951171875</ele>
        <time>2026-08-15T18:27:19.000Z</time>
        <extensions>
          <ns3:TrackPointExtension>
            <ns3:hr>100</ns3:hr>
            <ns3:cad>55</ns3:cad>
          </ns3:TrackPointExtension>
        </extensions>
      </trkpt>
      <trkpt lat="37.98277786932885646820068359375" lon="-107.73391507565975189208984375">
        <ele>3617</ele>
        <time>2026-08-15T18:27:22.000Z</time>
        <extensions>
          <ns3:TrackPointExtension>
            <ns3:hr>98</ns3:hr>
            <ns3:cad>55</ns3:cad>
          </ns3:TrackPointExtension>
        </extensions>
      </trkpt>
      <trkpt lat="37.9827559925615787506103515625" lon="-107.733927480876445770263671875">
        <ele>3616</ele>
        <time>2026-08-15T18:27:25.000Z</time>
        <extensions>
          <ns3:TrackPointExtension>
            <ns3:hr>97</ns3:hr>
            <ns3:cad>54</ns3:cad>
          </ns3:TrackPointExtension>
        </extensions>
      </trkpt>
      <trkpt lat="37.9827479459345340728759765625" lon="-107.73393251001834869384765625">
        <ele>3615.800048828125</ele>
        <time>2026-08-15T18:27:26.000Z</time>
        <extensions>
          <ns3:TrackPointExtension>
            <ns3:hr>97</ns3:hr>
            <ns3:cad>0</ns3:cad>
          </ns3:TrackPointExtension>
        </extensions>
      </trkpt>
      <trkpt lat="37.98270285129547119140625" lon="-107.733988501131534576416015625">
        <ele>3615.60009765625</ele>
        <time>2026-08-15T18:27:31.000Z</time>
        <extensions>
          <ns3:TrackPointExtension>
            <ns3:hr>96</ns3:hr>
            <ns3:cad>56</ns3:cad>
          </ns3:TrackPointExtension>
        </extensions>
      </trkpt>
      <trkpt lat="37.98264409415423870086669921875" lon="-107.73402345366775989532470703125">
        <ele>3615.800048828125</ele>
        <time>2026-08-15T18:27:37.000Z</time>
        <extensions>
          <ns3:TrackPointExtension>
            <ns3:hr>96</ns3:hr>
            <ns3:cad>0</ns3:cad>
          </ns3:TrackPointExtension>
        </extensions>
      </trkpt>
      <trkpt lat="37.98259397037327289581298828125" lon="-107.7340362779796123504638671875">
        <ele>3615.800048828125</ele>
        <time>2026-08-15T18:27:43.000Z</time>
        <extensions>
          <ns3:TrackPointExtension>
            <ns3:hr>97</ns3:hr>
            <ns3:cad>0</ns3:cad>
          </ns3:TrackPointExtension>
        </extensions>
      </trkpt>
      <trkpt lat="37.98258148133754730224609375" lon="-107.7340592443943023681640625">
        <ele>3615.199951171875</ele>
        <time>2026-08-15T18:27:46.000Z</time>
        <extensions>
          <ns3:TrackPointExtension>
            <ns3:hr>98</ns3:hr>
            <ns3:cad>0</ns3:cad>
          </ns3:TrackPointExtension>
        </extensions>
      </trkpt>
      <trkpt lat="37.9825357161462306976318359375" lon="-107.73410492576658725738525390625">
        <ele>3615</ele>
        <time>2026-08-15T18:27:52.000Z</time>
        <extensions>
          <ns3:TrackPointExtension>
            <ns3:hr>97</ns3:hr>
            <ns3:cad>0</ns3:cad>
          </ns3:TrackPointExtension>
        </extensions>
      </trkpt>
      <trkpt lat="37.98253160901367664337158203125" lon="-107.734107188880443572998046875">
        <ele>3615</ele>
        <time>2026-08-15T18:27:53.000Z</time>
        <extensions>
          <ns3:TrackPointExtension>
            <ns3:hr>97</ns3:hr>
            <ns3:cad>0</ns3:cad>
          </ns3:TrackPointExtension>
        </extensions>
      </trkpt>
      <trkpt lat="37.98249296844005584716796875" lon="-107.734129987657070159912109375">
        <ele>3614.800048828125</ele>
        <time>2026-08-15T18:27:57.000Z</time>
        <extensions>
          <ns3:TrackPointExtension>
            <ns3:hr>98</ns3:hr>
            <ns3:cad>53</ns3:cad>
          </ns3:TrackPointExtension>
        </extensions>
      </trkpt>
      <trkpt lat="37.9824800603091716766357421875" lon="-107.7341368608176708221435546875">
        <ele>3614.60009765625</ele>
        <time>2026-08-15T18:27:58.000Z</time>
        <extensions>
          <ns3:TrackPointExtension>
            <ns3:hr>98</ns3:hr>
            <ns3:cad>53</ns3:cad>
          </ns3:TrackPointExtension>
        </extensions>
      </trkpt>
      <trkpt lat="37.98241660930216312408447265625" lon="-107.73416896350681781768798828125">
        <ele>3614.39990234375</ele>
        <time>2026-08-15T18:28:04.000Z</time>
        <extensions>
          <ns3:TrackPointExtension>
            <ns3:hr>98</ns3:hr>
            <ns3:cad>0</ns3:cad>
          </ns3:TrackPointExtension>
        </extensions>
      </trkpt>
      <trkpt lat="37.98240487463772296905517578125" lon="-107.7341720648109912872314453125">
        <ele>3614.39990234375</ele>
        <time>2026-08-15T18:28:05.000Z</time>
        <extensions>
          <ns3:TrackPointExtension>
            <ns3:hr>99</ns3:hr>
            <ns3:cad>0</ns3:cad>
          </ns3:TrackPointExtension>
        </extensions>
      </trkpt>
      <trkpt lat="37.9823633842170238494873046875" lon="-107.7341945283114910125732421875">
        <ele>3613.60009765625</ele>
        <time>2026-08-15T18:28:09.000Z</time>
        <extensions>
          <ns3:TrackPointExtension>
            <ns3:hr>99</ns3:hr>
            <ns3:cad>0</ns3:cad>
          </ns3:TrackPointExtension>
        </extensions>
      </trkpt>
      <trkpt lat="37.982354499399662017822265625" lon="-107.7341988869011402130126953125">
        <ele>3613.60009765625</ele>
        <time>2026-08-15T18:28:11.000Z</time>
        <extensions>
          <ns3:TrackPointExtension>
            <ns3:hr>99</ns3:hr>
            <ns3:cad>0</ns3:cad>
          </ns3:TrackPointExtension>
        </extensions>
      </trkpt>
      <trkpt lat="37.982303202152252197265625" lon="-107.73421959020197391510009765625">
        <ele>3614.199951171875</ele>
        <time>2026-08-15T18:28:17.000Z</time>
        <extensions>
          <ns3:TrackPointExtension>
            <ns3:hr>99</ns3:hr>
            <ns3:cad>0</ns3:cad>
          </ns3:TrackPointExtension>
        </extensions>
      </trkpt>
      <trkpt lat="37.9822562634944915771484375" lon="-107.7342314086854457855224609375">
        <ele>3613.60009765625</ele>
        <time>2026-08-15T18:28:23.000Z</time>
        <extensions>
          <ns3:TrackPointExtension>
            <ns3:hr>101</ns3:hr>
            <ns3:cad>0</ns3:cad>
          </ns3:TrackPointExtension>
        </extensions>
      </trkpt>
      <trkpt lat="37.98225148580968379974365234375" lon="-107.73422881029546260833740234375">
        <ele>3613.60009765625</ele>
        <time>2026-08-15T18:28:24.000Z</time>
        <extensions>
          <ns3:TrackPointExtension>
            <ns3:hr>98</ns3:hr>
            <ns3:cad>0</ns3:cad>
          </ns3:TrackPointExtension>
        </extensions>
      </trkpt>
      <trkpt lat="37.9822389967739582061767578125" lon="-107.734223864972591400146484375">
        <ele>3613.39990234375</ele>
        <time>2026-08-15T18:28:26.000Z</time>
        <extensions>
          <ns3:TrackPointExtension>
            <ns3:hr>95</ns3:hr>
            <ns3:cad>0</ns3:cad>
          </ns3:TrackPointExtension>
        </extensions>
      </trkpt>
      <trkpt lat="37.982186861336231231689453125" lon="-107.7342243678867816925048828125">
        <ele>3613</ele>
        <time>2026-08-15T18:28:32.000Z</time>
        <extensions>
          <ns3:TrackPointExtension>
            <ns3:hr>94</ns3:hr>
            <ns3:cad>0</ns3:cad>
          </ns3:TrackPointExtension>
        </extensions>
      </trkpt>
      <trkpt lat="37.98212978057563304901123046875" lon="-107.734243981540203094482421875">
        <ele>3612.800048828125</ele>
        <time>2026-08-15T18:28:38.000Z</time>
        <extensions>
          <ns3:TrackPointExtension>
            <ns3:hr>95</ns3:hr>
            <ns3:cad>44</ns3:cad>
          </ns3:TrackPointExtension>
        </extensions>
      </trkpt>
      <trkpt lat="37.98211804591119289398193359375" lon="-107.73425144143402576446533203125">
        <ele>3612.800048828125</ele>
        <time>2026-08-15T18:28:39.000Z</time>
        <extensions>
          <ns3:TrackPointExtension>
            <ns3:hr>94</ns3:hr>
            <ns3:cad>44</ns3:cad>
          </ns3:TrackPointExtension>
        </extensions>
      </trkpt>
      <trkpt lat="37.98206473700702190399169921875" lon="-107.7342692948877811431884765625">
        <ele>3613.199951171875</ele>
        <time>2026-08-15T18:28:45.000Z</time>
        <extensions>
          <ns3:TrackPointExtension>
            <ns3:hr>92</ns3:hr>
            <ns3:cad>0</ns3:cad>
          </ns3:TrackPointExtension>
        </extensions>
      </trkpt>
      <trkpt lat="37.9820247553288936614990234375" lon="-107.7343055047094821929931640625">
        <ele>3613.800048828125</ele>
        <time>2026-08-15T18:28:51.000Z</time>
        <extensions>
          <ns3:TrackPointExtension>
            <ns3:hr>91</ns3:hr>
            <ns3:cad>53</ns3:cad>
          </ns3:TrackPointExtension>
        </extensions>
      </trkpt>
      <trkpt lat="37.9819942452013492584228515625" lon="-107.73435403592884540557861328125">
        <ele>3614.60009765625</ele>
        <time>2026-08-15T18:28:57.000Z</time>
        <extensions>
          <ns3:TrackPointExtension>
            <ns3:hr>94</ns3:hr>
            <ns3:cad>0</ns3:cad>
          </ns3:TrackPointExtension>
        </extensions>
      </trkpt>
      <trkpt lat="37.981994412839412689208984375" lon="-107.73435495793819427490234375">
        <ele>3614.800048828125</ele>
        <time>2026-08-15T18:28:59.000Z</time>
        <extensions>
          <ns3:TrackPointExtension>
            <ns3:hr>97</ns3:hr>
            <ns3:cad>0</ns3:cad>
          </ns3:TrackPointExtension>
        </extensions>
      </trkpt>
      <trkpt lat="37.98199902288615703582763671875" lon="-107.73434833623468875885009765625">
        <ele>3615</ele>
        <time>2026-08-15T18:29:04.000Z</time>
        <extensions>
          <ns3:TrackPointExtension>
            <ns3:hr>99</ns3:hr>
            <ns3:cad>0</ns3:cad>
          </ns3:TrackPointExtension>
        </extensions>
      </trkpt>
      <trkpt lat="37.98199399374425411224365234375" lon="-107.7343537844717502593994140625">
        <ele>3614.199951171875</ele>
        <time>2026-08-15T18:29:10.000Z</time>
        <extensions>
          <ns3:TrackPointExtension>
            <ns3:hr>99</ns3:hr>
            <ns3:cad>0</ns3:cad>
          </ns3:TrackPointExtension>
        </extensions>
      </trkpt>
      <trkpt lat="37.98199399374425411224365234375" lon="-107.7343537844717502593994140625">
        <ele>3614.199951171875</ele>
        <time>2026-08-15T18:29:11.000Z</time>
        <extensions>
          <ns3:TrackPointExtension>
            <ns3:hr>99</ns3:hr>
            <ns3:cad>0</ns3:cad>
          </ns3:TrackPointExtension>
        </extensions>
      </trkpt>
      <trkpt lat="37.9819647409021854400634765625" lon="-107.734367363154888153076171875">
        <ele>3614.60009765625</ele>
        <time>2026-08-15T18:29:17.000Z</time>
        <extensions>
          <ns3:TrackPointExtension>
            <ns3:hr>98</ns3:hr>
            <ns3:cad>0</ns3:cad>
          </ns3:TrackPointExtension>
        </extensions>
      </trkpt>
      <trkpt lat="37.9819312132894992828369140625" lon="-107.73441170342266559600830078125">
        <ele>3613.60009765625</ele>
        <time>2026-08-15T18:29:23.000Z</time>
        <extensions>
          <ns3:TrackPointExtension>
            <ns3:hr>97</ns3:hr>
            <ns3:cad>0</ns3:cad>
          </ns3:TrackPointExtension>
        </extensions>
      </trkpt>
      <trkpt lat="37.98193045891821384429931640625" lon="-107.7344161458313465118408203125">
        <ele>3613.800048828125</ele>
        <time>2026-08-15T18:29:29.000Z</time>
        <extensions>
          <ns3:TrackPointExtension>
            <ns3:hr>96</ns3:hr>
            <ns3:cad>0</ns3:cad>
          </ns3:TrackPointExtension>
        </extensions>
      </trkpt>
      <trkpt lat="37.98193045891821384429931640625" lon="-107.7344161458313465118408203125">
        <ele>3613.199951171875</ele>
        <time>2026-08-15T18:29:35.000Z</time>
        <extensions>
          <ns3:TrackPointExtension>
            <ns3:hr>98</ns3:hr>
            <ns3:cad>0</ns3:cad>
          </ns3:TrackPointExtension>
        </extensions>
      </trkpt>
      <trkpt lat="37.98193045891821384429931640625" lon="-107.7344161458313465118408203125">
        <ele>3613.39990234375</ele>
        <time>2026-08-15T18:29:37.000Z</time>
        <extensions>
          <ns3:TrackPointExtension>
            <ns3:hr>101</ns3:hr>
            <ns3:cad>0</ns3:cad>
          </ns3:TrackPointExtension>
        </extensions>
      </trkpt>
      <trkpt lat="37.98193045891821384429931640625" lon="-107.7344161458313465118408203125">
        <ele>3614</ele>
        <time>2026-08-15T18:29:39.000Z</time>
        <extensions>
          <ns3:TrackPointExtension>
            <ns3:hr>104</ns3:hr>
            <ns3:cad>0</ns3:cad>
          </ns3:TrackPointExtension>
        </extensions>
      </trkpt>
      <trkpt lat="37.98193079419434070587158203125" lon="-107.73442746140062808990478515625">
        <ele>3614.60009765625</ele>
        <time>2026-08-15T18:29:42.000Z</time>
        <extensions>
          <ns3:TrackPointExtension>
            <ns3:hr>105</ns3:hr>
            <ns3:cad>0</ns3:cad>
          </ns3:TrackPointExtension>
        </extensions>
      </trkpt>
      <trkpt lat="37.98190112225711345672607421875" lon="-107.73448714055120944976806640625">
        <ele>3614.199951171875</ele>
        <time>2026-08-15T18:29:48.000Z</time>
        <extensions>
          <ns3:TrackPointExtension>
            <ns3:hr>102</ns3:hr>
            <ns3:cad>0</ns3:cad>
          </ns3:TrackPointExtension>
        </extensions>
      </trkpt>
      <trkpt lat="37.98189676366746425628662109375" lon="-107.7344937622547149658203125">
        <ele>3614</ele>
        <time>2026-08-15T18:29:49.000Z</time>
        <extensions>
          <ns3:TrackPointExtension>
            <ns3:hr>102</ns3:hr>
            <ns3:cad>0</ns3:cad>
          </ns3:TrackPointExtension>
        </extensions>
      </trkpt>
      <trkpt lat="37.98189491964876651763916015625" lon="-107.7344825305044651031494140625">
        <ele>3613.60009765625</ele>
        <time>2026-08-15T18:29:51.000Z</time>
        <extensions>
          <ns3:TrackPointExtension>
            <ns3:hr>101</ns3:hr>
            <ns3:cad>0</ns3:cad>
          </ns3:TrackPointExtension>
        </extensions>
      </trkpt>
      <trkpt lat="37.98189818859100341796875" lon="-107.73448311723768711090087890625">
        <ele>3613.39990234375</ele>
        <time>2026-08-15T18:29:54.000Z</time>
        <extensions>
          <ns3:TrackPointExtension>
            <ns3:hr>103</ns3:hr>
            <ns3:cad>0</ns3:cad>
          </ns3:TrackPointExtension>
        </extensions>
      </trkpt>
      <trkpt lat="37.98189818859100341796875" lon="-107.73448311723768711090087890625">
        <ele>3614.199951171875</ele>
        <time>2026-08-15T18:29:59.000Z</time>
        <extensions>
          <ns3:TrackPointExtension>
            <ns3:hr>100</ns3:hr>
            <ns3:cad>0</ns3:cad>
          </ns3:TrackPointExtension>
        </extensions>
      </trkpt>
      <trkpt lat="37.98189818859100341796875" lon="-107.73448311723768711090087890625">
        <ele>3614.39990234375</ele>
        <time>2026-08-15T18:30:02.000Z</time>
        <extensions>
          <ns3:TrackPointExtension>
            <ns3:hr>97</ns3:hr>
            <ns3:cad>0</ns3:cad>
          </ns3:TrackPointExtension>
        </extensions>
      </trkpt>
      <trkpt lat="37.98189818859100341796875" lon="-107.73448311723768711090087890625">
        <ele>3614.60009765625</ele>
        <time>2026-08-15T18:30:04.000Z</time>
        <extensions>
          <ns3:TrackPointExtension>
            <ns3:hr>96</ns3:hr>
            <ns3:cad>0</ns3:cad>
          </ns3:TrackPointExtension>
        </extensions>
      </trkpt>
      <trkpt lat="37.98190958797931671142578125" lon="-107.73448378778994083404541015625">
        <ele>3614.800048828125</ele>
        <time>2026-08-15T18:30:06.000Z</time>
        <extensions>
          <ns3:TrackPointExtension>
            <ns3:hr>96</ns3:hr>
            <ns3:cad>0</ns3:cad>
          </ns3:TrackPointExtension>
        </extensions>
      </trkpt>
      <trkpt lat="37.9819328896701335906982421875" lon="-107.73444036953151226043701171875">
        <ele>3614.199951171875</ele>
        <time>2026-08-15T18:30:10.000Z</time>
        <extensions>
          <ns3:TrackPointExtension>
            <ns3:hr>95</ns3:hr>
            <ns3:cad>0</ns3:cad>
          </ns3:TrackPointExtension>
        </extensions>
      </trkpt>
      <trkpt lat="37.98195744864642620086669921875" lon="-107.73439963348209857940673828125">
        <ele>3614.199951171875</ele>
        <time>2026-08-15T18:30:16.000Z</time>
        <extensions>
          <ns3:TrackPointExtension>
            <ns3:hr>94</ns3:hr>
            <ns3:cad>0</ns3:cad>
          </ns3:TrackPointExtension>
        </extensions>
      </trkpt>
      <trkpt lat="37.98195878975093364715576171875" lon="-107.73439242504537105560302734375">
        <ele>3614.199951171875</ele>
        <time>2026-08-15T18:30:18.000Z</time>
        <extensions>
          <ns3:TrackPointExtension>
            <ns3:hr>96</ns3:hr>
            <ns3:cad>0</ns3:cad>
          </ns3:TrackPointExtension>
        </extensions>
      </trkpt>
      <trkpt lat="37.98195543698966503143310546875" lon="-107.73437281139194965362548828125">
        <ele>3614</ele>
        <time>2026-08-15T18:30:20.000Z</time>
        <extensions>
          <ns3:TrackPointExtension>
            <ns3:hr>99</ns3:hr>
            <ns3:cad>0</ns3:cad>
          </ns3:TrackPointExtension>
        </extensions>
      </trkpt>
      <trkpt lat="37.98195359297096729278564453125" lon="-107.73436526767909526824951171875">
        <ele>3613.60009765625</ele>
        <time>2026-08-15T18:30:22.000Z</time>
        <extensions>
          <ns3:TrackPointExtension>
            <ns3:hr>101</ns3:hr>
            <ns3:cad>0</ns3:cad>
          </ns3:TrackPointExtension>
        </extensions>
      </trkpt>
      <trkpt lat="37.98195208422839641571044921875" lon="-107.734370045363903045654296875">
        <ele>3612.39990234375</ele>
        <time>2026-08-15T18:30:24.000Z</time>
        <extensions>
          <ns3:TrackPointExtension>
            <ns3:hr>102</ns3:hr>
            <ns3:cad>0</ns3:cad>
          </ns3:TrackPointExtension>
        </extensions>
      </trkpt>
      <trkpt lat="37.98197169788181781768798828125" lon="-107.7343494258821010589599609375">
        <ele>3613.39990234375</ele>
        <time>2026-08-15T18:30:30.000Z</time>
        <extensions>
          <ns3:TrackPointExtension>
            <ns3:hr>100</ns3:hr>
            <ns3:cad>66</ns3:cad>
          </ns3:TrackPointExtension>
        </extensions>
      </trkpt>
      <trkpt lat="37.9819701053202152252197265625" lon="-107.7343417145311832427978515625">
        <ele>3613.60009765625</ele>
        <time>2026-08-15T18:30:31.000Z</time>
        <extensions>
          <ns3:TrackPointExtension>
            <ns3:hr>100</ns3:hr>
            <ns3:cad>66</ns3:cad>
          </ns3:TrackPointExtension>
        </extensions>
      </trkpt>
      <trkpt lat="37.981976307928562164306640625" lon="-107.73431665264070034027099609375">
        <ele>3613.39990234375</ele>
        <time>2026-08-15T18:30:36.000Z</time>
        <extensions>
          <ns3:TrackPointExtension>
            <ns3:hr>97</ns3:hr>
            <ns3:cad>66</ns3:cad>
          </ns3:TrackPointExtension>
        </extensions>
      </trkpt>
      <trkpt lat="37.98197287134826183319091796875" lon="-107.73429117165505886077880859375">
        <ele>3613.199951171875</ele>
        <time>2026-08-15T18:30:39.000Z</time>
        <extensions>
          <ns3:TrackPointExtension>
            <ns3:hr>96</ns3:hr>
            <ns3:cad>0</ns3:cad>
          </ns3:TrackPointExtension>
        </extensions>
      </trkpt>
      <trkpt lat="37.9819687642157077789306640625" lon="-107.73427658714354038238525390625">
        <ele>3612</ele>
        <time>2026-08-15T18:30:41.000Z</time>
        <extensions>
          <ns3:TrackPointExtension>
            <ns3:hr>96</ns3:hr>
            <ns3:cad>0</ns3:cad>
          </ns3:TrackPointExtension>
        </extensions>
      </trkpt>
      <trkpt lat="37.98197471536695957183837890625" lon="-107.7342806942760944366455078125">
        <ele>3610.800048828125</ele>
        <time>2026-08-15T18:30:43.000Z</time>
        <extensions>
          <ns3:TrackPointExtension>
            <ns3:hr>95</ns3:hr>
            <ns3:cad>0</ns3:cad>
          </ns3:TrackPointExtension>
        </extensions>
      </trkpt>
      <trkpt lat="37.9819754697382450103759765625" lon="-107.7342662774026393890380859375">
        <ele>3610.199951171875</ele>
        <time>2026-08-15T18:30:45.000Z</time>
        <extensions>
          <ns3:TrackPointExtension>
            <ns3:hr>95</ns3:hr>
            <ns3:cad>49</ns3:cad>
          </ns3:TrackPointExtension>
        </extensions>
      </trkpt>
      <trkpt lat="37.9819640703499317169189453125" lon="-107.7342545427381992340087890625">
        <ele>3609.39990234375</ele>
        <time>2026-08-15T18:30:47.000Z</time>
        <extensions>
          <ns3:TrackPointExtension>
            <ns3:hr>95</ns3:hr>
            <ns3:cad>49</ns3:cad>
          </ns3:TrackPointExtension>
        </extensions>
      </trkpt>
      <trkpt lat="37.9819520004093647003173828125" lon="-107.73424641229212284088134765625">
        <ele>3608.199951171875</ele>
        <time>2026-08-15T18:30:49.000Z</time>
        <extensions>
          <ns3:TrackPointExtension>
            <ns3:hr>94</ns3:hr>
            <ns3:cad>68</ns3:cad>
          </ns3:TrackPointExtension>
        </extensions>
      </trkpt>
      <trkpt lat="37.98194051720201969146728515625" lon="-107.73424004204571247100830078125">
        <ele>3608.199951171875</ele>
        <time>2026-08-15T18:30:52.000Z</time>
        <extensions>
          <ns3:TrackPointExtension>
            <ns3:hr>94</ns3:hr>
            <ns3:cad>0</ns3:cad>
          </ns3:TrackPointExtension>
        </extensions>
      </trkpt>
      <trkpt lat="37.98189894296228885650634765625" lon="-107.73424272425472736358642578125">
        <ele>3608</ele>
        <time>2026-08-15T18:30:58.000Z</time>
        <extensions>
          <ns3:TrackPointExtension>
            <ns3:hr>97</ns3:hr>
            <ns3:cad>41</ns3:cad>
          </ns3:TrackPointExtension>
        </extensions>
      </trkpt>
      <trkpt lat="37.98189173452556133270263671875" lon="-107.73424523882567882537841796875">
        <ele>3608.199951171875</ele>
        <time>2026-08-15T18:30:59.000Z</time>
        <extensions>
          <ns3:TrackPointExtension>
            <ns3:hr>98</ns3:hr>
            <ns3:cad>67</ns3:cad>
          </ns3:TrackPointExtension>
        </extensions>
      </trkpt>
      <trkpt lat="37.98189173452556133270263671875" lon="-107.7342458255589008331298828125">
        <ele>3607</ele>
        <time>2026-08-15T18:31:02.000Z</time>
        <extensions>
          <ns3:TrackPointExtension>
            <ns3:hr>98</ns3:hr>
            <ns3:cad>0</ns3:cad>
          </ns3:TrackPointExtension>
        </extensions>
      </trkpt>
      <trkpt lat="37.981889806687831878662109375" lon="-107.7342300675809383392333984375">
        <ele>3606.199951171875</ele>
        <time>2026-08-15T18:31:05.000Z</time>
        <extensions>
          <ns3:TrackPointExtension>
            <ns3:hr>98</ns3:hr>
            <ns3:cad>0</ns3:cad>
          </ns3:TrackPointExtension>
        </extensions>
      </trkpt>
      <trkpt lat="37.98188921995460987091064453125" lon="-107.7342228591442108154296875">
        <ele>3606</ele>
        <time>2026-08-15T18:31:08.000Z</time>
        <extensions>
          <ns3:TrackPointExtension>
            <ns3:hr>98</ns3:hr>
            <ns3:cad>0</ns3:cad>
          </ns3:TrackPointExtension>
        </extensions>
      </trkpt>
      <trkpt lat="37.98189290799200534820556640625" lon="-107.73421104066073894500732421875">
        <ele>3605.60009765625</ele>
        <time>2026-08-15T18:31:11.000Z</time>
        <extensions>
          <ns3:TrackPointExtension>
            <ns3:hr>99</ns3:hr>
            <ns3:cad>0</ns3:cad>
          </ns3:TrackPointExtension>
        </extensions>
      </trkpt>
      <trkpt lat="37.98189559020102024078369140625" lon="-107.73419796489179134368896484375">
        <ele>3605</ele>
        <time>2026-08-15T18:31:13.000Z</time>
        <extensions>
          <ns3:TrackPointExtension>
            <ns3:hr>102</ns3:hr>
            <ns3:cad>0</ns3:cad>
          </ns3:TrackPointExtension>
        </extensions>
      </trkpt>
      <trkpt lat="37.98189039342105388641357421875" lon="-107.7342005632817745208740234375">
        <ele>3604.800048828125</ele>
        <time>2026-08-15T18:31:14.000Z</time>
        <extensions>
          <ns3:TrackPointExtension>
            <ns3:hr>104</ns3:hr>
            <ns3:cad>0</ns3:cad>
          </ns3:TrackPointExtension>
        </extensions>
      </trkpt>
      <trkpt lat="37.98188251443207263946533203125" lon="-107.73419779725372791290283203125">
        <ele>3604.39990234375</ele>
        <time>2026-08-15T18:31:16.000Z</time>
        <extensions>
          <ns3:TrackPointExtension>
            <ns3:hr>105</ns3:hr>
            <ns3:cad>0</ns3:cad>
          </ns3:TrackPointExtension>
        </extensions>
      </trkpt>
      <trkpt lat="37.98187480308115482330322265625" lon="-107.7341905049979686737060546875">
        <ele>3603.60009765625</ele>
        <time>2026-08-15T18:31:21.000Z</time>
        <extensions>
          <ns3:TrackPointExtension>
            <ns3:hr>104</ns3:hr>
            <ns3:cad>0</ns3:cad>
          </ns3:TrackPointExtension>
        </extensions>
      </trkpt>
      <trkpt lat="37.9818685166537761688232421875" lon="-107.73418354801833629608154296875">
        <ele>3603.60009765625</ele>
        <time>2026-08-15T18:31:22.000Z</time>
        <extensions>
          <ns3:TrackPointExtension>
            <ns3:hr>104</ns3:hr>
            <ns3:cad>0</ns3:cad>
          </ns3:TrackPointExtension>
        </extensions>
      </trkpt>
      <trkpt lat="37.98184596933424472808837890625" lon="-107.7341844700276851654052734375">
        <ele>3602.39990234375</ele>
        <time>2026-08-15T18:31:28.000Z</time>
        <extensions>
          <ns3:TrackPointExtension>
            <ns3:hr>103</ns3:hr>
            <ns3:cad>0</ns3:cad>
          </ns3:TrackPointExtension>
        </extensions>
      </trkpt>
      <trkpt lat="37.9818363301455974578857421875" lon="-107.73418790660798549652099609375">
        <ele>3602.199951171875</ele>
        <time>2026-08-15T18:31:29.000Z</time>
        <extensions>
          <ns3:TrackPointExtension>
            <ns3:hr>103</ns3:hr>
            <ns3:cad>0</ns3:cad>
          </ns3:TrackPointExtension>
        </extensions>
      </trkpt>
      <trkpt lat="37.9818458855152130126953125" lon="-107.734168209135532379150390625">
        <ele>3601.39990234375</ele>
        <time>2026-08-15T18:31:32.000Z</time>
        <extensions>
          <ns3:TrackPointExtension>
            <ns3:hr>104</ns3:hr>
            <ns3:cad>0</ns3:cad>
          </ns3:TrackPointExtension>
        </extensions>
      </trkpt>
      <trkpt lat="37.9818467237055301666259765625" lon="-107.73416829295456409454345703125">
        <ele>3600.800048828125</ele>
        <time>2026-08-15T18:31:34.000Z</time>
        <extensions>
          <ns3:TrackPointExtension>
            <ns3:hr>105</ns3:hr>
            <ns3:cad>0</ns3:cad>
          </ns3:TrackPointExtension>
        </extensions>
      </trkpt>
      <trkpt lat="37.98185284249484539031982421875" lon="-107.7341660298407077789306640625">
        <ele>3601.39990234375</ele>
        <time>2026-08-15T18:31:40.000Z</time>
        <extensions>
          <ns3:TrackPointExtension>
            <ns3:hr>105</ns3:hr>
            <ns3:cad>0</ns3:cad>
          </ns3:TrackPointExtension>
        </extensions>
      </trkpt>
      <trkpt lat="37.98185284249484539031982421875" lon="-107.7341660298407077789306640625">
        <ele>3601.60009765625</ele>
        <time>2026-08-15T18:31:42.000Z</time>
        <extensions>
          <ns3:TrackPointExtension>
            <ns3:hr>102</ns3:hr>
            <ns3:cad>0</ns3:cad>
          </ns3:TrackPointExtension>
        </extensions>
      </trkpt>
      <trkpt lat="37.9818477295339107513427734375" lon="-107.73416049778461456298828125">
        <ele>3601.39990234375</ele>
        <time>2026-08-15T18:31:44.000Z</time>
        <extensions>
          <ns3:TrackPointExtension>
            <ns3:hr>100</ns3:hr>
            <ns3:cad>80</ns3:cad>
          </ns3:TrackPointExtension>
        </extensions>
      </trkpt>
      <trkpt lat="37.98183607868850231170654296875" lon="-107.73414465598762035369873046875">
        <ele>3600.39990234375</ele>
        <time>2026-08-15T18:31:48.000Z</time>
        <extensions>
          <ns3:TrackPointExtension>
            <ns3:hr>99</ns3:hr>
            <ns3:cad>0</ns3:cad>
          </ns3:TrackPointExtension>
        </extensions>
      </trkpt>
      <trkpt lat="37.9818162135779857635498046875" lon="-107.73413375951349735260009765625">
        <ele>3599.39990234375</ele>
        <time>2026-08-15T18:31:52.000Z</time>
        <extensions>
          <ns3:TrackPointExtension>
            <ns3:hr>100</ns3:hr>
            <ns3:cad>0</ns3:cad>
          </ns3:TrackPointExtension>
        </extensions>
      </trkpt>
      <trkpt lat="37.9818098433315753936767578125" lon="-107.73413258604705333709716796875">
        <ele>3599</ele>
        <time>2026-08-15T18:31:53.000Z</time>
        <extensions>
          <ns3:TrackPointExtension>
            <ns3:hr>101</ns3:hr>
            <ns3:cad>0</ns3:cad>
          </ns3:TrackPointExtension>
        </extensions>
      </trkpt>
      <trkpt lat="37.98178243450820446014404296875" lon="-107.73414147086441516876220703125">
        <ele>3598.800048828125</ele>
        <time>2026-08-15T18:31:57.000Z</time>
        <extensions>
          <ns3:TrackPointExtension>
            <ns3:hr>101</ns3:hr>
            <ns3:cad>0</ns3:cad>
          </ns3:TrackPointExtension>
        </extensions>
      </trkpt>
      <trkpt lat="37.9817622341215610504150390625" lon="-107.73414331488311290740966796875">
        <ele>3598.39990234375</ele>
        <time>2026-08-15T18:32:00.000Z</time>
        <extensions>
          <ns3:TrackPointExtension>
            <ns3:hr>101</ns3:hr>
            <ns3:cad>0</ns3:cad>
          </ns3:TrackPointExtension>
        </extensions>
      </trkpt>
      <trkpt lat="37.98176030628383159637451171875" lon="-107.7341408841311931610107421875">
        <ele>3597.800048828125</ele>
        <time>2026-08-15T18:32:02.000Z</time>
        <extensions>
          <ns3:TrackPointExtension>
            <ns3:hr>101</ns3:hr>
            <ns3:cad>0</ns3:cad>
          </ns3:TrackPointExtension>
        </extensions>
      </trkpt>
      <trkpt lat="37.9817468114197254180908203125" lon="-107.73414281196892261505126953125">
        <ele>3597.199951171875</ele>
        <time>2026-08-15T18:32:05.000Z</time>
        <extensions>
          <ns3:TrackPointExtension>
            <ns3:hr>101</ns3:hr>
            <ns3:cad>0</ns3:cad>
          </ns3:TrackPointExtension>
        </extensions>
      </trkpt>
      <trkpt lat="37.98174086026847362518310546875" lon="-107.73414482362568378448486328125">
        <ele>3596.800048828125</ele>
        <time>2026-08-15T18:32:07.000Z</time>
        <extensions>
          <ns3:TrackPointExtension>
            <ns3:hr>101</ns3:hr>
            <ns3:cad>0</ns3:cad>
          </ns3:TrackPointExtension>
        </extensions>
      </trkpt>
      <trkpt lat="37.981721498072147369384765625" lon="-107.73415111005306243896484375">
        <ele>3596</ele>
        <time>2026-08-15T18:32:13.000Z</time>
        <extensions>
          <ns3:TrackPointExtension>
            <ns3:hr>101</ns3:hr>
            <ns3:cad>0</ns3:cad>
          </ns3:TrackPointExtension>
        </extensions>
      </trkpt>
      <trkpt lat="37.98171512782573699951171875" lon="-107.73415504954755306243896484375">
        <ele>3596</ele>
        <time>2026-08-15T18:32:14.000Z</time>
        <extensions>
          <ns3:TrackPointExtension>
            <ns3:hr>101</ns3:hr>
            <ns3:cad>0</ns3:cad>
          </ns3:TrackPointExtension>
        </extensions>
      </trkpt>
      <trkpt lat="37.9817104339599609375" lon="-107.73414767347276210784912109375">
        <ele>3595</ele>
        <time>2026-08-15T18:32:18.000Z</time>
        <extensions>
          <ns3:TrackPointExtension>
            <ns3:hr>102</ns3:hr>
            <ns3:cad>0</ns3:cad>
          </ns3:TrackPointExtension>
        </extensions>
      </trkpt>
      <trkpt lat="37.9817095957696437835693359375" lon="-107.73414934985339641571044921875">
        <ele>3594.800048828125</ele>
        <time>2026-08-15T18:32:20.000Z</time>
        <extensions>
          <ns3:TrackPointExtension>
            <ns3:hr>103</ns3:hr>
            <ns3:cad>0</ns3:cad>
          </ns3:TrackPointExtension>
        </extensions>
      </trkpt>
      <trkpt lat="37.981714121997356414794921875" lon="-107.7341318316757678985595703125">
        <ele>3594</ele>
        <time>2026-08-15T18:32:24.000Z</time>
        <extensions>
          <ns3:TrackPointExtension>
            <ns3:hr>104</ns3:hr>
            <ns3:cad>0</ns3:cad>
          </ns3:TrackPointExtension>
        </extensions>
      </trkpt>
      <trkpt lat="37.98170615918934345245361328125" lon="-107.7341182529926300048828125">
        <ele>3593.60009765625</ele>
        <time>2026-08-15T18:32:26.000Z</time>
        <extensions>
          <ns3:TrackPointExtension>
            <ns3:hr>104</ns3:hr>
            <ns3:cad>0</ns3:cad>
          </ns3:TrackPointExtension>
        </extensions>
      </trkpt>
      <trkpt lat="37.9817106015980243682861328125" lon="-107.73410408757627010345458984375">
        <ele>3593</ele>
        <time>2026-08-15T18:32:30.000Z</time>
        <extensions>
          <ns3:TrackPointExtension>
            <ns3:hr>105</ns3:hr>
            <ns3:cad>0</ns3:cad>
          </ns3:TrackPointExtension>
        </extensions>
      </trkpt>
      <trkpt lat="37.981710769236087799072265625" lon="-107.7341026626527309417724609375">
        <ele>3592.800048828125</ele>
        <time>2026-08-15T18:32:31.000Z</time>
        <extensions>
          <ns3:TrackPointExtension>
            <ns3:hr>106</ns3:hr>
            <ns3:cad>0</ns3:cad>
          </ns3:TrackPointExtension>
        </extensions>
      </trkpt>
      <trkpt lat="37.98171110451221466064453125" lon="-107.734072320163249969482421875">
        <ele>3592</ele>
        <time>2026-08-15T18:32:36.000Z</time>
        <extensions>
          <ns3:TrackPointExtension>
            <ns3:hr>104</ns3:hr>
            <ns3:cad>0</ns3:cad>
          </ns3:TrackPointExtension>
        </extensions>
      </trkpt>
      <trkpt lat="37.98170951195061206817626953125" lon="-107.734058238565921783447265625">
        <ele>3591.800048828125</ele>
        <time>2026-08-15T18:32:38.000Z</time>
        <extensions>
          <ns3:TrackPointExtension>
            <ns3:hr>104</ns3:hr>
            <ns3:cad>0</ns3:cad>
          </ns3:TrackPointExtension>
        </extensions>
      </trkpt>
      <trkpt lat="37.981710769236087799072265625" lon="-107.73404088802635669708251953125">
        <ele>3591.39990234375</ele>
        <time>2026-08-15T18:32:41.000Z</time>
        <extensions>
          <ns3:TrackPointExtension>
            <ns3:hr>104</ns3:hr>
            <ns3:cad>0</ns3:cad>
          </ns3:TrackPointExtension>
        </extensions>
      </trkpt>
      <trkpt lat="37.98171437345445156097412109375" lon="-107.73401557467877864837646484375">
        <ele>3590.60009765625</ele>
        <time>2026-08-15T18:32:45.000Z</time>
        <extensions>
          <ns3:TrackPointExtension>
            <ns3:hr>103</ns3:hr>
            <ns3:cad>0</ns3:cad>
          </ns3:TrackPointExtension>
        </extensions>
      </trkpt>
      <trkpt lat="37.9817028902471065521240234375" lon="-107.7339930273592472076416015625">
        <ele>3589.800048828125</ele>
        <time>2026-08-15T18:32:48.000Z</time>
        <extensions>
          <ns3:TrackPointExtension>
            <ns3:hr>99</ns3:hr>
            <ns3:cad>0</ns3:cad>
          </ns3:TrackPointExtension>
        </extensions>
      </trkpt>
      <trkpt lat="37.9817052371799945831298828125" lon="-107.73399160243570804595947265625">
        <ele>3589.60009765625</ele>
        <time>2026-08-15T18:32:49.000Z</time>
        <extensions>
          <ns3:TrackPointExtension>
            <ns3:hr>99</ns3:hr>
            <ns3:cad>0</ns3:cad>
          </ns3:TrackPointExtension>
        </extensions>
      </trkpt>
      <trkpt lat="37.98170582391321659088134765625" lon="-107.73396075703203678131103515625">
        <ele>3588.60009765625</ele>
        <time>2026-08-15T18:32:53.000Z</time>
        <extensions>
          <ns3:TrackPointExtension>
            <ns3:hr>97</ns3:hr>
            <ns3:cad>0</ns3:cad>
          </ns3:TrackPointExtension>
        </extensions>
      </trkpt>
      <trkpt lat="37.98170163296163082122802734375" lon="-107.73393728770315647125244140625">
        <ele>3587.39990234375</ele>
        <time>2026-08-15T18:32:59.000Z</time>
        <extensions>
          <ns3:TrackPointExtension>
            <ns3:hr>95</ns3:hr>
            <ns3:cad>0</ns3:cad>
          </ns3:TrackPointExtension>
        </extensions>
      </trkpt>
      <trkpt lat="37.98168285749852657318115234375" lon="-107.7339598350226879119873046875">
        <ele>3586.39990234375</ele>
        <time>2026-08-15T18:33:04.000Z</time>
        <extensions>
          <ns3:TrackPointExtension>
            <ns3:hr>95</ns3:hr>
            <ns3:cad>0</ns3:cad>
          </ns3:TrackPointExtension>
        </extensions>
      </trkpt>
      <trkpt lat="37.98168285749852657318115234375" lon="-107.7339598350226879119873046875">
        <ele>3586.199951171875</ele>
        <time>2026-08-15T18:33:05.000Z</time>
        <extensions>
          <ns3:TrackPointExtension>
            <ns3:hr>94</ns3:hr>
            <ns3:cad>0</ns3:cad>
          </ns3:TrackPointExtension>
        </extensions>
      </trkpt>
      <trkpt lat="37.98168285749852657318115234375" lon="-107.7339598350226879119873046875">
        <ele>3586.39990234375</ele>
        <time>2026-08-15T18:33:11.000Z</time>
        <extensions>
          <ns3:TrackPointExtension>
            <ns3:hr>96</ns3:hr>
            <ns3:cad>0</ns3:cad>
          </ns3:TrackPointExtension>
        </extensions>
      </trkpt>
      <trkpt lat="37.98168285749852657318115234375" lon="-107.7339598350226879119873046875">
        <ele>3586.39990234375</ele>
        <time>2026-08-15T18:33:12.000Z</time>
        <extensions>
          <ns3:TrackPointExtension>
            <ns3:hr>99</ns3:hr>
            <ns3:cad>0</ns3:cad>
          </ns3:TrackPointExtension>
        </extensions>
      </trkpt>
      <trkpt lat="37.98168956302106380462646484375" lon="-107.73396394215524196624755859375">
        <ele>3586.39990234375</ele>
        <time>2026-08-15T18:33:14.000Z</time>
        <extensions>
          <ns3:TrackPointExtension>
            <ns3:hr>103</ns3:hr>
            <ns3:cad>0</ns3:cad>
          </ns3:TrackPointExtension>
        </extensions>
      </trkpt>
      <trkpt lat="37.98169576562941074371337890625" lon="-107.7339605055749416351318359375">
        <ele>3586.199951171875</ele>
        <time>2026-08-15T18:33:15.000Z</time>
        <extensions>
          <ns3:TrackPointExtension>
            <ns3:hr>106</ns3:hr>
            <ns3:cad>0</ns3:cad>
          </ns3:TrackPointExtension>
        </extensions>
      </trkpt>
      <trkpt lat="37.9817082546651363372802734375" lon="-107.733942568302154541015625">
        <ele>3586.199951171875</ele>
        <time>2026-08-15T18:33:17.000Z</time>
        <extensions>
          <ns3:TrackPointExtension>
            <ns3:hr>108</ns3:hr>
            <ns3:cad>0</ns3:cad>
          </ns3:TrackPointExtension>
        </extensions>
      </trkpt>
      <trkpt lat="37.98172996379435062408447265625" lon="-107.73389093577861785888671875">
        <ele>3586.39990234375</ele>
        <time>2026-08-15T18:33:23.000Z</time>
        <extensions>
          <ns3:TrackPointExtension>
            <ns3:hr>110</ns3:hr>
            <ns3:cad>0</ns3:cad>
          </ns3:TrackPointExtension>
        </extensions>
      </trkpt>
      <trkpt lat="37.981732897460460662841796875" lon="-107.73388699628412723541259765625">
        <ele>3586.199951171875</ele>
        <time>2026-08-15T18:33:24.000Z</time>
        <extensions>
          <ns3:TrackPointExtension>
            <ns3:hr>110</ns3:hr>
            <ns3:cad>0</ns3:cad>
          </ns3:TrackPointExtension>
        </extensions>
      </trkpt>
      <trkpt lat="37.98173331655561923980712890625" lon="-107.7338636107742786407470703125">
        <ele>3585.800048828125</ele>
        <time>2026-08-15T18:33:30.000Z</time>
        <extensions>
          <ns3:TrackPointExtension>
            <ns3:hr>109</ns3:hr>
            <ns3:cad>0</ns3:cad>
          </ns3:TrackPointExtension>
        </extensions>
      </trkpt>
      <trkpt lat="37.9817193187773227691650390625" lon="-107.733857072889804840087890625">
        <ele>3585.199951171875</ele>
        <time>2026-08-15T18:33:35.000Z</time>
        <extensions>
          <ns3:TrackPointExtension>
            <ns3:hr>110</ns3:hr>
            <ns3:cad>0</ns3:cad>
          </ns3:TrackPointExtension>
        </extensions>
      </trkpt>
      <trkpt lat="37.9817196540534496307373046875" lon="-107.73385648615658283233642578125">
        <ele>3584.199951171875</ele>
        <time>2026-08-15T18:33:41.000Z</time>
        <extensions>
          <ns3:TrackPointExtension>
            <ns3:hr>111</ns3:hr>
            <ns3:cad>0</ns3:cad>
          </ns3:TrackPointExtension>
        </extensions>
      </trkpt>
      <trkpt lat="37.9817173071205615997314453125" lon="-107.73383871652185916900634765625">
        <ele>3584.199951171875</ele>
        <time>2026-08-15T18:33:42.000Z</time>
        <extensions>
          <ns3:TrackPointExtension>
            <ns3:hr>111</ns3:hr>
            <ns3:cad>0</ns3:cad>
          </ns3:TrackPointExtension>
        </extensions>
      </trkpt>
      <trkpt lat="37.98171688802540302276611328125" lon="-107.73383771069347858428955078125">
        <ele>3583.800048828125</ele>
        <time>2026-08-15T18:33:48.000Z</time>
        <extensions>
          <ns3:TrackPointExtension>
            <ns3:hr>109</ns3:hr>
            <ns3:cad>0</ns3:cad>
          </ns3:TrackPointExtension>
        </extensions>
      </trkpt>
      <trkpt lat="37.98171688802540302276611328125" lon="-107.73383771069347858428955078125">
        <ele>3584</ele>
        <time>2026-08-15T18:33:54.000Z</time>
        <extensions>
          <ns3:TrackPointExtension>
            <ns3:hr>110</ns3:hr>
            <ns3:cad>0</ns3:cad>
          </ns3:TrackPointExtension>
        </extensions>
      </trkpt>
      <trkpt lat="37.98171688802540302276611328125" lon="-107.73383771069347858428955078125">
        <ele>3584</ele>
        <time>2026-08-15T18:33:55.000Z</time>
        <extensions>
          <ns3:TrackPointExtension>
            <ns3:hr>110</ns3:hr>
            <ns3:cad>0</ns3:cad>
          </ns3:TrackPointExtension>
        </extensions>
      </trkpt>
      <trkpt lat="37.98171336762607097625732421875" lon="-107.73384667932987213134765625">
        <ele>3584</ele>
        <time>2026-08-15T18:34:00.000Z</time>
        <extensions>
          <ns3:TrackPointExtension>
            <ns3:hr>107</ns3:hr>
            <ns3:cad>0</ns3:cad>
          </ns3:TrackPointExtension>
        </extensions>
      </trkpt>
      <trkpt lat="37.9816891439259052276611328125" lon="-107.7338572405278682708740234375">
        <ele>3584</ele>
        <time>2026-08-15T18:34:03.000Z</time>
        <extensions>
          <ns3:TrackPointExtension>
            <ns3:hr>104</ns3:hr>
            <ns3:cad>0</ns3:cad>
          </ns3:TrackPointExtension>
        </extensions>
      </trkpt>
      <trkpt lat="37.98166475258767604827880859375" lon="-107.73386352695524692535400390625">
        <ele>3583</ele>
        <time>2026-08-15T18:34:07.000Z</time>
        <extensions>
          <ns3:TrackPointExtension>
            <ns3:hr>104</ns3:hr>
            <ns3:cad>0</ns3:cad>
          </ns3:TrackPointExtension>
        </extensions>
      </trkpt>
      <trkpt lat="37.98165477812290191650390625" lon="-107.73385874927043914794921875">
        <ele>3582.199951171875</ele>
        <time>2026-08-15T18:34:10.000Z</time>
        <extensions>
          <ns3:TrackPointExtension>
            <ns3:hr>103</ns3:hr>
            <ns3:cad>0</ns3:cad>
          </ns3:TrackPointExtension>
        </extensions>
      </trkpt>
      <trkpt lat="37.9816525988280773162841796875" lon="-107.73385497741401195526123046875">
        <ele>3581.800048828125</ele>
        <time>2026-08-15T18:34:12.000Z</time>
        <extensions>
          <ns3:TrackPointExtension>
            <ns3:hr>103</ns3:hr>
            <ns3:cad>0</ns3:cad>
          </ns3:TrackPointExtension>
        </extensions>
      </trkpt>
      <trkpt lat="37.98163323663175106048583984375" lon="-107.7338481880724430084228515625">
        <ele>3581.199951171875</ele>
        <time>2026-08-15T18:34:16.000Z</time>
        <extensions>
          <ns3:TrackPointExtension>
            <ns3:hr>106</ns3:hr>
            <ns3:cad>0</ns3:cad>
          </ns3:TrackPointExtension>
        </extensions>
      </trkpt>
      <trkpt lat="37.98162351362407207489013671875" lon="-107.73384424857795238494873046875">
        <ele>3580.60009765625</ele>
        <time>2026-08-15T18:34:18.000Z</time>
        <extensions>
          <ns3:TrackPointExtension>
            <ns3:hr>108</ns3:hr>
            <ns3:cad>55</ns3:cad>
          </ns3:TrackPointExtension>
        </extensions>
      </trkpt>
      <trkpt lat="37.981605827808380126953125" lon="-107.7338580787181854248046875">
        <ele>3580</ele>
        <time>2026-08-15T18:34:21.000Z</time>
        <extensions>
          <ns3:TrackPointExtension>
            <ns3:hr>109</ns3:hr>
            <ns3:cad>55</ns3:cad>
          </ns3:TrackPointExtension>
        </extensions>
      </trkpt>
      <trkpt lat="37.98159166239202022552490234375" lon="-107.7338696457445621490478515625">
        <ele>3579.60009765625</ele>
        <time>2026-08-15T18:34:23.000Z</time>
        <extensions>
          <ns3:TrackPointExtension>
            <ns3:hr>109</ns3:hr>
            <ns3:cad>0</ns3:cad>
          </ns3:TrackPointExtension>
        </extensions>
      </trkpt>
      <trkpt lat="37.9815741442143917083740234375" lon="-107.73389018140733242034912109375">
        <ele>3579</ele>
        <time>2026-08-15T18:34:27.000Z</time>
        <extensions>
          <ns3:TrackPointExtension>
            <ns3:hr>108</ns3:hr>
            <ns3:cad>0</ns3:cad>
          </ns3:TrackPointExtension>
        </extensions>
      </trkpt>
      <trkpt lat="37.98154455609619617462158203125" lon="-107.7338984794914722442626953125">
        <ele>3578.39990234375</ele>
        <time>2026-08-15T18:34:31.000Z</time>
        <extensions>
          <ns3:TrackPointExtension>
            <ns3:hr>107</ns3:hr>
            <ns3:cad>0</ns3:cad>
          </ns3:TrackPointExtension>
        </extensions>
      </trkpt>
      <trkpt lat="37.98153215087950229644775390625" lon="-107.73391013033688068389892578125">
        <ele>3577.800048828125</ele>
        <time>2026-08-15T18:34:33.000Z</time>
        <extensions>
          <ns3:TrackPointExtension>
            <ns3:hr>106</ns3:hr>
            <ns3:cad>0</ns3:cad>
          </ns3:TrackPointExtension>
        </extensions>
      </trkpt>
      <trkpt lat="37.98152259550988674163818359375" lon="-107.7339222840964794158935546875">
        <ele>3577.60009765625</ele>
        <time>2026-08-15T18:34:37.000Z</time>
        <extensions>
          <ns3:TrackPointExtension>
            <ns3:hr>103</ns3:hr>
            <ns3:cad>0</ns3:cad>
          </ns3:TrackPointExtension>
        </extensions>
      </trkpt>
      <trkpt lat="37.98151672817766666412353515625" lon="-107.73392052389681339263916015625">
        <ele>3577.199951171875</ele>
        <time>2026-08-15T18:34:40.000Z</time>
        <extensions>
          <ns3:TrackPointExtension>
            <ns3:hr>102</ns3:hr>
            <ns3:cad>0</ns3:cad>
          </ns3:TrackPointExtension>
        </extensions>
      </trkpt>
      <trkpt lat="37.9814933426678180694580078125" lon="-107.73390945978462696075439453125">
        <ele>3576.199951171875</ele>
        <time>2026-08-15T18:34:46.000Z</time>
        <extensions>
          <ns3:TrackPointExtension>
            <ns3:hr>102</ns3:hr>
            <ns3:cad>0</ns3:cad>
          </ns3:TrackPointExtension>
        </extensions>
      </trkpt>
      <trkpt lat="37.98149057663977146148681640625" lon="-107.7338937856256961822509765625">
        <ele>3575</ele>
        <time>2026-08-15T18:34:52.000Z</time>
        <extensions>
          <ns3:TrackPointExtension>
            <ns3:hr>103</ns3:hr>
            <ns3:cad>0</ns3:cad>
          </ns3:TrackPointExtension>
        </extensions>
      </trkpt>
      <trkpt lat="37.9814851284027099609375" lon="-107.7338823862373828887939453125">
        <ele>3574.39990234375</ele>
        <time>2026-08-15T18:34:56.000Z</time>
        <extensions>
          <ns3:TrackPointExtension>
            <ns3:hr>104</ns3:hr>
            <ns3:cad>0</ns3:cad>
          </ns3:TrackPointExtension>
        </extensions>
      </trkpt>
      <trkpt lat="37.98147381283342838287353515625" lon="-107.73389554582536220550537109375">
        <ele>3574</ele>
        <time>2026-08-15T18:34:58.000Z</time>
        <extensions>
          <ns3:TrackPointExtension>
            <ns3:hr>105</ns3:hr>
            <ns3:cad>0</ns3:cad>
          </ns3:TrackPointExtension>
        </extensions>
      </trkpt>
      <trkpt lat="37.9814571328461170196533203125" lon="-107.7339061908423900604248046875">
        <ele>3573.60009765625</ele>
        <time>2026-08-15T18:35:01.000Z</time>
        <extensions>
          <ns3:TrackPointExtension>
            <ns3:hr>110</ns3:hr>
            <ns3:cad>0</ns3:cad>
          </ns3:TrackPointExtension>
        </extensions>
      </trkpt>
      <trkpt lat="37.98144531436264514923095703125" lon="-107.73390912450850009918212890625">
        <ele>3573.199951171875</ele>
        <time>2026-08-15T18:35:03.000Z</time>
        <extensions>
          <ns3:TrackPointExtension>
            <ns3:hr>112</ns3:hr>
            <ns3:cad>0</ns3:cad>
          </ns3:TrackPointExtension>
        </extensions>
      </trkpt>
      <trkpt lat="37.98143575899302959442138671875" lon="-107.73391331546008586883544921875">
        <ele>3572.800048828125</ele>
        <time>2026-08-15T18:35:05.000Z</time>
        <extensions>
          <ns3:TrackPointExtension>
            <ns3:hr>114</ns3:hr>
            <ns3:cad>0</ns3:cad>
          </ns3:TrackPointExtension>
        </extensions>
      </trkpt>
      <trkpt lat="37.98142142593860626220703125" lon="-107.7339139021933078765869140625">
        <ele>3572</ele>
        <time>2026-08-15T18:35:10.000Z</time>
        <extensions>
          <ns3:TrackPointExtension>
            <ns3:hr>114</ns3:hr>
            <ns3:cad>0</ns3:cad>
          </ns3:TrackPointExtension>
        </extensions>
      </trkpt>
      <trkpt lat="37.98141648061573505401611328125" lon="-107.73391381837427616119384765625">
        <ele>3571.60009765625</ele>
        <time>2026-08-15T18:35:12.000Z</time>
        <extensions>
          <ns3:TrackPointExtension>
            <ns3:hr>114</ns3:hr>
            <ns3:cad>0</ns3:cad>
          </ns3:TrackPointExtension>
        </extensions>
      </trkpt>
      <trkpt lat="37.981411032378673553466796875" lon="-107.73391515947878360748291015625">
        <ele>3571</ele>
        <time>2026-08-15T18:35:17.000Z</time>
        <extensions>
          <ns3:TrackPointExtension>
            <ns3:hr>117</ns3:hr>
            <ns3:cad>0</ns3:cad>
          </ns3:TrackPointExtension>
        </extensions>
      </trkpt>
      <trkpt lat="37.98140206374228000640869140625" lon="-107.73390971124172210693359375">
        <ele>3570.800048828125</ele>
        <time>2026-08-15T18:35:21.000Z</time>
        <extensions>
          <ns3:TrackPointExtension>
            <ns3:hr>117</ns3:hr>
            <ns3:cad>0</ns3:cad>
          </ns3:TrackPointExtension>
        </extensions>
      </trkpt>
      <trkpt lat="37.98139804042875766754150390625" lon="-107.7339155785739421844482421875">
        <ele>3570.60009765625</ele>
        <time>2026-08-15T18:35:22.000Z</time>
        <extensions>
          <ns3:TrackPointExtension>
            <ns3:hr>116</ns3:hr>
            <ns3:cad>0</ns3:cad>
          </ns3:TrackPointExtension>
        </extensions>
      </trkpt>
      <trkpt lat="37.9813759960234165191650390625" lon="-107.73393611423671245574951171875">
        <ele>3569.39990234375</ele>
        <time>2026-08-15T18:35:26.000Z</time>
        <extensions>
          <ns3:TrackPointExtension>
            <ns3:hr>113</ns3:hr>
            <ns3:cad>0</ns3:cad>
          </ns3:TrackPointExtension>
        </extensions>
      </trkpt>
      <trkpt lat="37.9813448153436183929443359375" lon="-107.73397534154355525970458984375">
        <ele>3569.199951171875</ele>
        <time>2026-08-15T18:35:32.000Z</time>
        <extensions>
          <ns3:TrackPointExtension>
            <ns3:hr>111</ns3:hr>
            <ns3:cad>0</ns3:cad>
          </ns3:TrackPointExtension>
        </extensions>
      </trkpt>
      <trkpt lat="37.981335259974002838134765625" lon="-107.73399042896926403045654296875">
        <ele>3569</ele>
        <time>2026-08-15T18:35:34.000Z</time>
        <extensions>
          <ns3:TrackPointExtension>
            <ns3:hr>110</ns3:hr>
            <ns3:cad>0</ns3:cad>
          </ns3:TrackPointExtension>
        </extensions>
      </trkpt>
      <trkpt lat="37.98131790943443775177001953125" lon="-107.73400585167109966278076171875">
        <ele>3568.60009765625</ele>
        <time>2026-08-15T18:35:37.000Z</time>
        <extensions>
          <ns3:TrackPointExtension>
            <ns3:hr>113</ns3:hr>
            <ns3:cad>0</ns3:cad>
          </ns3:TrackPointExtension>
        </extensions>
      </trkpt>
      <trkpt lat="37.981305420398712158203125" lon="-107.73401741869747638702392578125">
        <ele>3568.39990234375</ele>
        <time>2026-08-15T18:35:39.000Z</time>
        <extensions>
          <ns3:TrackPointExtension>
            <ns3:hr>113</ns3:hr>
            <ns3:cad>0</ns3:cad>
          </ns3:TrackPointExtension>
        </extensions>
      </trkpt>
      <trkpt lat="37.9812871478497982025146484375" lon="-107.7340352721512317657470703125">
        <ele>3567.60009765625</ele>
        <time>2026-08-15T18:35:42.000Z</time>
        <extensions>
          <ns3:TrackPointExtension>
            <ns3:hr>114</ns3:hr>
            <ns3:cad>0</ns3:cad>
          </ns3:TrackPointExtension>
        </extensions>
      </trkpt>
      <trkpt lat="37.98128102906048297882080078125" lon="-107.73403979837894439697265625">
        <ele>3567.39990234375</ele>
        <time>2026-08-15T18:35:43.000Z</time>
        <extensions>
          <ns3:TrackPointExtension>
            <ns3:hr>114</ns3:hr>
            <ns3:cad>0</ns3:cad>
          </ns3:TrackPointExtension>
        </extensions>
      </trkpt>
      <trkpt lat="37.981267534196376800537109375" lon="-107.73406167514622211456298828125">
        <ele>3566.60009765625</ele>
        <time>2026-08-15T18:35:46.000Z</time>
        <extensions>
          <ns3:TrackPointExtension>
            <ns3:hr>114</ns3:hr>
            <ns3:cad>0</ns3:cad>
          </ns3:TrackPointExtension>
        </extensions>
      </trkpt>
      <trkpt lat="37.98125638626515865325927734375" lon="-107.73407659493386745452880859375">
        <ele>3566.199951171875</ele>
        <time>2026-08-15T18:35:49.000Z</time>
        <extensions>
          <ns3:TrackPointExtension>
            <ns3:hr>115</ns3:hr>
            <ns3:cad>0</ns3:cad>
          </ns3:TrackPointExtension>
        </extensions>
      </trkpt>
      <trkpt lat="37.98121078871190547943115234375" lon="-107.7341130562126636505126953125">
        <ele>3565.39990234375</ele>
        <time>2026-08-15T18:35:55.000Z</time>
        <extensions>
          <ns3:TrackPointExtension>
            <ns3:hr>115</ns3:hr>
            <ns3:cad>0</ns3:cad>
          </ns3:TrackPointExtension>
        </extensions>
      </trkpt>
      <trkpt lat="37.98120559193193912506103515625" lon="-107.73412018083035945892333984375">
        <ele>3565.199951171875</ele>
        <time>2026-08-15T18:35:56.000Z</time>
        <extensions>
          <ns3:TrackPointExtension>
            <ns3:hr>115</ns3:hr>
            <ns3:cad>0</ns3:cad>
          </ns3:TrackPointExtension>
        </extensions>
      </trkpt>
      <trkpt lat="37.9812016524374485015869140625" lon="-107.73412638343870639801025390625">
        <ele>3564.800048828125</ele>
        <time>2026-08-15T18:35:57.000Z</time>
        <extensions>
          <ns3:TrackPointExtension>
            <ns3:hr>115</ns3:hr>
            <ns3:cad>0</ns3:cad>
          </ns3:TrackPointExtension>
        </extensions>
      </trkpt>
      <trkpt lat="37.98118899576365947723388671875" lon="-107.7341398783028125762939453125">
        <ele>3564.39990234375</ele>
        <time>2026-08-15T18:36:03.000Z</time>
        <extensions>
          <ns3:TrackPointExtension>
            <ns3:hr>113</ns3:hr>
            <ns3:cad>0</ns3:cad>
          </ns3:TrackPointExtension>
        </extensions>
      </trkpt>
      <trkpt lat="37.98118899576365947723388671875" lon="-107.7341398783028125762939453125">
        <ele>3564.60009765625</ele>
        <time>2026-08-15T18:36:05.000Z</time>
        <extensions>
          <ns3:TrackPointExtension>
            <ns3:hr>110</ns3:hr>
            <ns3:cad>0</ns3:cad>
          </ns3:TrackPointExtension>
        </extensions>
      </trkpt>
      <trkpt lat="37.98118899576365947723388671875" lon="-107.7341398783028125762939453125">
        <ele>3564.60009765625</ele>
        <time>2026-08-15T18:36:07.000Z</time>
        <extensions>
          <ns3:TrackPointExtension>
            <ns3:hr>107</ns3:hr>
            <ns3:cad>0</ns3:cad>
          </ns3:TrackPointExtension>
        </extensions>
      </trkpt>
      <trkpt lat="37.98118941485881805419921875" lon="-107.73415421135723590850830078125">
        <ele>3564.60009765625</ele>
        <time>2026-08-15T18:36:12.000Z</time>
        <extensions>
          <ns3:TrackPointExtension>
            <ns3:hr>105</ns3:hr>
            <ns3:cad>0</ns3:cad>
          </ns3:TrackPointExtension>
        </extensions>
      </trkpt>
      <trkpt lat="37.98116368241608142852783203125" lon="-107.73420098237693309783935546875">
        <ele>3564.199951171875</ele>
        <time>2026-08-15T18:36:17.000Z</time>
        <extensions>
          <ns3:TrackPointExtension>
            <ns3:hr>106</ns3:hr>
            <ns3:cad>56</ns3:cad>
          </ns3:TrackPointExtension>
        </extensions>
      </trkpt>
      <trkpt lat="37.98116167075932025909423828125" lon="-107.7342062629759311676025390625">
        <ele>3564</ele>
        <time>2026-08-15T18:36:18.000Z</time>
        <extensions>
          <ns3:TrackPointExtension>
            <ns3:hr>106</ns3:hr>
            <ns3:cad>56</ns3:cad>
          </ns3:TrackPointExtension>
        </extensions>
      </trkpt>
      <trkpt lat="37.981164939701557159423828125" lon="-107.73419528268277645111083984375">
        <ele>3563.39990234375</ele>
        <time>2026-08-15T18:36:23.000Z</time>
        <extensions>
          <ns3:TrackPointExtension>
            <ns3:hr>108</ns3:hr>
            <ns3:cad>0</ns3:cad>
          </ns3:TrackPointExtension>
        </extensions>
      </trkpt>
      <trkpt lat="37.98116452060639858245849609375" lon="-107.734195031225681304931640625">
        <ele>3563.60009765625</ele>
        <time>2026-08-15T18:36:29.000Z</time>
        <extensions>
          <ns3:TrackPointExtension>
            <ns3:hr>110</ns3:hr>
            <ns3:cad>0</ns3:cad>
          </ns3:TrackPointExtension>
        </extensions>
      </trkpt>
      <trkpt lat="37.98116452060639858245849609375" lon="-107.734195031225681304931640625">
        <ele>3563.800048828125</ele>
        <time>2026-08-15T18:36:33.000Z</time>
        <extensions>
          <ns3:TrackPointExtension>
            <ns3:hr>107</ns3:hr>
            <ns3:cad>0</ns3:cad>
          </ns3:TrackPointExtension>
        </extensions>
      </trkpt>
      <trkpt lat="37.98116452060639858245849609375" lon="-107.734195031225681304931640625">
        <ele>3563.800048828125</ele>
        <time>2026-08-15T18:36:39.000Z</time>
        <extensions>
          <ns3:TrackPointExtension>
            <ns3:hr>108</ns3:hr>
            <ns3:cad>0</ns3:cad>
          </ns3:TrackPointExtension>
        </extensions>
      </trkpt>
      <trkpt lat="37.98116452060639858245849609375" lon="-107.734195031225681304931640625">
        <ele>3563.800048828125</ele>
        <time>2026-08-15T18:36:41.000Z</time>
        <extensions>
          <ns3:TrackPointExtension>
            <ns3:hr>109</ns3:hr>
            <ns3:cad>0</ns3:cad>
          </ns3:TrackPointExtension>
        </extensions>
      </trkpt>
      <trkpt lat="37.98114775680005550384521484375" lon="-107.7342190034687519073486328125">
        <ele>3563.39990234375</ele>
        <time>2026-08-15T18:36:47.000Z</time>
        <extensions>
          <ns3:TrackPointExtension>
            <ns3:hr>107</ns3:hr>
            <ns3:cad>0</ns3:cad>
          </ns3:TrackPointExtension>
        </extensions>
      </trkpt>
      <trkpt lat="37.9811470024287700653076171875" lon="-107.73421623744070529937744140625">
        <ele>3563.60009765625</ele>
        <time>2026-08-15T18:36:53.000Z</time>
        <extensions>
          <ns3:TrackPointExtension>
            <ns3:hr>109</ns3:hr>
            <ns3:cad>0</ns3:cad>
          </ns3:TrackPointExtension>
        </extensions>
      </trkpt>
      <trkpt lat="37.9811470024287700653076171875" lon="-107.73421623744070529937744140625">
        <ele>3563.39990234375</ele>
        <time>2026-08-15T18:36:55.000Z</time>
        <extensions>
          <ns3:TrackPointExtension>
            <ns3:hr>108</ns3:hr>
            <ns3:cad>0</ns3:cad>
          </ns3:TrackPointExtension>
        </extensions>
      </trkpt>
      <trkpt lat="37.98113451339304447174072265625" lon="-107.73422780446708202362060546875">
        <ele>3562.800048828125</ele>
        <time>2026-08-15T18:36:59.000Z</time>
        <extensions>
          <ns3:TrackPointExtension>
            <ns3:hr>108</ns3:hr>
            <ns3:cad>0</ns3:cad>
          </ns3:TrackPointExtension>
        </extensions>
      </trkpt>
      <trkpt lat="37.98112914897501468658447265625" lon="-107.73423015139997005462646484375">
        <ele>3562.60009765625</ele>
        <time>2026-08-15T18:37:00.000Z</time>
        <extensions>
          <ns3:TrackPointExtension>
            <ns3:hr>108</ns3:hr>
            <ns3:cad>0</ns3:cad>
          </ns3:TrackPointExtension>
        </extensions>
      </trkpt>
      <trkpt lat="37.98111037351191043853759765625" lon="-107.73422797210514545440673828125">
        <ele>3561.800048828125</ele>
        <time>2026-08-15T18:37:03.000Z</time>
        <extensions>
          <ns3:TrackPointExtension>
            <ns3:hr>107</ns3:hr>
            <ns3:cad>0</ns3:cad>
          </ns3:TrackPointExtension>
        </extensions>
      </trkpt>
      <trkpt lat="37.98110165633261203765869140625" lon="-107.73423962295055389404296875">
        <ele>3561.39990234375</ele>
        <time>2026-08-15T18:37:05.000Z</time>
        <extensions>
          <ns3:TrackPointExtension>
            <ns3:hr>106</ns3:hr>
            <ns3:cad>0</ns3:cad>
          </ns3:TrackPointExtension>
        </extensions>
      </trkpt>
      <trkpt lat="37.9810910113155841827392578125" lon="-107.73426719941198825836181640625">
        <ele>3561</ele>
        <time>2026-08-15T18:37:08.000Z</time>
        <extensions>
          <ns3:TrackPointExtension>
            <ns3:hr>109</ns3:hr>
            <ns3:cad>0</ns3:cad>
          </ns3:TrackPointExtension>
        </extensions>
      </trkpt>
      <trkpt lat="37.98108455725014209747314453125" lon="-107.7342827059328556060791015625">
        <ele>3560.60009765625</ele>
        <time>2026-08-15T18:37:10.000Z</time>
        <extensions>
          <ns3:TrackPointExtension>
            <ns3:hr>112</ns3:hr>
            <ns3:cad>0</ns3:cad>
          </ns3:TrackPointExtension>
        </extensions>
      </trkpt>
      <trkpt lat="37.98107047565281391143798828125" lon="-107.73429720662534236907958984375">
        <ele>3560.39990234375</ele>
        <time>2026-08-15T18:37:15.000Z</time>
        <extensions>
          <ns3:TrackPointExtension>
            <ns3:hr>110</ns3:hr>
            <ns3:cad>0</ns3:cad>
          </ns3:TrackPointExtension>
        </extensions>
      </trkpt>
      <trkpt lat="37.98105924390256404876708984375" lon="-107.73430055938661098480224609375">
        <ele>3560.199951171875</ele>
        <time>2026-08-15T18:37:18.000Z</time>
        <extensions>
          <ns3:TrackPointExtension>
            <ns3:hr>107</ns3:hr>
            <ns3:cad>0</ns3:cad>
          </ns3:TrackPointExtension>
        </extensions>
      </trkpt>
      <trkpt lat="37.98104717396199703216552734375" lon="-107.7343021519482135772705078125">
        <ele>3559.800048828125</ele>
        <time>2026-08-15T18:37:21.000Z</time>
        <extensions>
          <ns3:TrackPointExtension>
            <ns3:hr>105</ns3:hr>
            <ns3:cad>0</ns3:cad>
          </ns3:TrackPointExtension>
        </extensions>
      </trkpt>
      <trkpt lat="37.9810430668294429779052734375" lon="-107.73430424742400646209716796875">
        <ele>3559.60009765625</ele>
        <time>2026-08-15T18:37:22.000Z</time>
        <extensions>
          <ns3:TrackPointExtension>
            <ns3:hr>105</ns3:hr>
            <ns3:cad>0</ns3:cad>
          </ns3:TrackPointExtension>
        </extensions>
      </trkpt>
      <trkpt lat="37.98103376291692256927490234375" lon="-107.7343044988811016082763671875">
        <ele>3558.800048828125</ele>
        <time>2026-08-15T18:37:27.000Z</time>
        <extensions>
          <ns3:TrackPointExtension>
            <ns3:hr>105</ns3:hr>
            <ns3:cad>0</ns3:cad>
          </ns3:TrackPointExtension>
        </extensions>
      </trkpt>
      <trkpt lat="37.9810242913663387298583984375" lon="-107.73430709727108478546142578125">
        <ele>3558.60009765625</ele>
        <time>2026-08-15T18:37:29.000Z</time>
        <extensions>
          <ns3:TrackPointExtension>
            <ns3:hr>105</ns3:hr>
            <ns3:cad>0</ns3:cad>
          </ns3:TrackPointExtension>
        </extensions>
      </trkpt>
      <trkpt lat="37.9810071922838687896728515625" lon="-107.7343145571649074554443359375">
        <ele>3558</ele>
        <time>2026-08-15T18:37:33.000Z</time>
        <extensions>
          <ns3:TrackPointExtension>
            <ns3:hr>105</ns3:hr>
            <ns3:cad>0</ns3:cad>
          </ns3:TrackPointExtension>
        </extensions>
      </trkpt>
      <trkpt lat="37.98100140877068042755126953125" lon="-107.734314389526844024658203125">
        <ele>3557.800048828125</ele>
        <time>2026-08-15T18:37:35.000Z</time>
        <extensions>
          <ns3:TrackPointExtension>
            <ns3:hr>108</ns3:hr>
            <ns3:cad>17</ns3:cad>
          </ns3:TrackPointExtension>
        </extensions>
      </trkpt>
      <trkpt lat="37.98099202103912830352783203125" lon="-107.73432008922100067138671875">
        <ele>3557.60009765625</ele>
        <time>2026-08-15T18:37:37.000Z</time>
        <extensions>
          <ns3:TrackPointExtension>
            <ns3:hr>110</ns3:hr>
            <ns3:cad>17</ns3:cad>
          </ns3:TrackPointExtension>
        </extensions>
      </trkpt>
      <trkpt lat="37.98098481260240077972412109375" lon="-107.7343247830867767333984375">
        <ele>3557.199951171875</ele>
        <time>2026-08-15T18:37:38.000Z</time>
        <extensions>
          <ns3:TrackPointExtension>
            <ns3:hr>110</ns3:hr>
            <ns3:cad>0</ns3:cad>
          </ns3:TrackPointExtension>
        </extensions>
      </trkpt>
      <trkpt lat="37.9809753410518169403076171875" lon="-107.73433878086507320404052734375">
        <ele>3556.39990234375</ele>
        <time>2026-08-15T18:37:41.000Z</time>
        <extensions>
          <ns3:TrackPointExtension>
            <ns3:hr>113</ns3:hr>
            <ns3:cad>0</ns3:cad>
          </ns3:TrackPointExtension>
        </extensions>
      </trkpt>
      <trkpt lat="37.98098556697368621826171875" lon="-107.73433928377926349639892578125">
        <ele>3555.800048828125</ele>
        <time>2026-08-15T18:37:44.000Z</time>
        <extensions>
          <ns3:TrackPointExtension>
            <ns3:hr>112</ns3:hr>
            <ns3:cad>0</ns3:cad>
          </ns3:TrackPointExtension>
        </extensions>
      </trkpt>
      <trkpt lat="37.98098581843078136444091796875" lon="-107.734321095049381256103515625">
        <ele>3555.39990234375</ele>
        <time>2026-08-15T18:37:47.000Z</time>
        <extensions>
          <ns3:TrackPointExtension>
            <ns3:hr>109</ns3:hr>
            <ns3:cad>0</ns3:cad>
          </ns3:TrackPointExtension>
        </extensions>
      </trkpt>
      <trkpt lat="37.98098514787852764129638671875" lon="-107.73431296460330486297607421875">
        <ele>3555.199951171875</ele>
        <time>2026-08-15T18:37:48.000Z</time>
        <extensions>
          <ns3:TrackPointExtension>
            <ns3:hr>109</ns3:hr>
            <ns3:cad>0</ns3:cad>
          </ns3:TrackPointExtension>
        </extensions>
      </trkpt>
      <trkpt lat="37.98098481260240077972412109375" lon="-107.73430407978594303131103515625">
        <ele>3555</ele>
        <time>2026-08-15T18:37:49.000Z</time>
        <extensions>
          <ns3:TrackPointExtension>
            <ns3:hr>109</ns3:hr>
            <ns3:cad>0</ns3:cad>
          </ns3:TrackPointExtension>
        </extensions>
      </trkpt>
      <trkpt lat="37.98098347149789333343505859375" lon="-107.73425714112818241119384765625">
        <ele>3554.199951171875</ele>
        <time>2026-08-15T18:37:53.000Z</time>
        <extensions>
          <ns3:TrackPointExtension>
            <ns3:hr>110</ns3:hr>
            <ns3:cad>0</ns3:cad>
          </ns3:TrackPointExtension>
        </extensions>
      </trkpt>
      <trkpt lat="37.98098347149789333343505859375" lon="-107.7342475019395351409912109375">
        <ele>3553.800048828125</ele>
        <time>2026-08-15T18:37:57.000Z</time>
        <extensions>
          <ns3:TrackPointExtension>
            <ns3:hr>110</ns3:hr>
            <ns3:cad>0</ns3:cad>
          </ns3:TrackPointExtension>
        </extensions>
      </trkpt>
      <trkpt lat="37.98098347149789333343505859375" lon="-107.7342475019395351409912109375">
        <ele>3554.199951171875</ele>
        <time>2026-08-15T18:38:03.000Z</time>
        <extensions>
          <ns3:TrackPointExtension>
            <ns3:hr>110</ns3:hr>
            <ns3:cad>0</ns3:cad>
          </ns3:TrackPointExtension>
        </extensions>
      </trkpt>
      <trkpt lat="37.98098347149789333343505859375" lon="-107.7342475019395351409912109375">
        <ele>3554</ele>
        <time>2026-08-15T18:38:05.000Z</time>
        <extensions>
          <ns3:TrackPointExtension>
            <ns3:hr>107</ns3:hr>
            <ns3:cad>0</ns3:cad>
          </ns3:TrackPointExtension>
        </extensions>
      </trkpt>
      <trkpt lat="37.98098347149789333343505859375" lon="-107.7342475019395351409912109375">
        <ele>3553.800048828125</ele>
        <time>2026-08-15T18:38:06.000Z</time>
        <extensions>
          <ns3:TrackPointExtension>
            <ns3:hr>103</ns3:hr>
            <ns3:cad>0</ns3:cad>
          </ns3:TrackPointExtension>
        </extensions>
      </trkpt>
      <trkpt lat="37.98098347149789333343505859375" lon="-107.7342475019395351409912109375">
        <ele>3553.60009765625</ele>
        <time>2026-08-15T18:38:08.000Z</time>
        <extensions>
          <ns3:TrackPointExtension>
            <ns3:hr>102</ns3:hr>
            <ns3:cad>0</ns3:cad>
          </ns3:TrackPointExtension>
        </extensions>
      </trkpt>
      <trkpt lat="37.98098347149789333343505859375" lon="-107.7342475019395351409912109375">
        <ele>3553.800048828125</ele>
        <time>2026-08-15T18:38:14.000Z</time>
        <extensions>
          <ns3:TrackPointExtension>
            <ns3:hr>104</ns3:hr>
            <ns3:cad>0</ns3:cad>
          </ns3:TrackPointExtension>
        </extensions>
      </trkpt>
      <trkpt lat="37.98098347149789333343505859375" lon="-107.7342475019395351409912109375">
        <ele>3553.800048828125</ele>
        <time>2026-08-15T18:38:18.000Z</time>
        <extensions>
          <ns3:TrackPointExtension>
            <ns3:hr>106</ns3:hr>
            <ns3:cad>0</ns3:cad>
          </ns3:TrackPointExtension>
        </extensions>
      </trkpt>
      <trkpt lat="37.98098347149789333343505859375" lon="-107.7342475019395351409912109375">
        <ele>3554.199951171875</ele>
        <time>2026-08-15T18:38:24.000Z</time>
        <extensions>
          <ns3:TrackPointExtension>
            <ns3:hr>106</ns3:hr>
            <ns3:cad>0</ns3:cad>
          </ns3:TrackPointExtension>
        </extensions>
      </trkpt>
      <trkpt lat="37.98098347149789333343505859375" lon="-107.7342475019395351409912109375">
        <ele>3554.39990234375</ele>
        <time>2026-08-15T18:38:29.000Z</time>
        <extensions>
          <ns3:TrackPointExtension>
            <ns3:hr>107</ns3:hr>
            <ns3:cad>0</ns3:cad>
          </ns3:TrackPointExtension>
        </extensions>
      </trkpt>
      <trkpt lat="37.98098347149789333343505859375" lon="-107.7342475019395351409912109375">
        <ele>3554.199951171875</ele>
        <time>2026-08-15T18:38:35.000Z</time>
        <extensions>
          <ns3:TrackPointExtension>
            <ns3:hr>107</ns3:hr>
            <ns3:cad>0</ns3:cad>
          </ns3:TrackPointExtension>
        </extensions>
      </trkpt>
      <trkpt lat="37.98098347149789333343505859375" lon="-107.7342475019395351409912109375">
        <ele>3554.39990234375</ele>
        <time>2026-08-15T18:38:41.000Z</time>
        <extensions>
          <ns3:TrackPointExtension>
            <ns3:hr>107</ns3:hr>
            <ns3:cad>0</ns3:cad>
          </ns3:TrackPointExtension>
        </extensions>
      </trkpt>
      <trkpt lat="37.98098347149789333343505859375" lon="-107.7342475019395351409912109375">
        <ele>3554.39990234375</ele>
        <time>2026-08-15T18:38:43.000Z</time>
        <extensions>
          <ns3:TrackPointExtension>
            <ns3:hr>108</ns3:hr>
            <ns3:cad>0</ns3:cad>
          </ns3:TrackPointExtension>
        </extensions>
      </trkpt>
      <trkpt lat="37.98098347149789333343505859375" lon="-107.7342475019395351409912109375">
        <ele>3554.39990234375</ele>
        <time>2026-08-15T18:38:49.000Z</time>
        <extensions>
          <ns3:TrackPointExtension>
            <ns3:hr>107</ns3:hr>
            <ns3:cad>0</ns3:cad>
          </ns3:TrackPointExtension>
        </extensions>
      </trkpt>
      <trkpt lat="37.98098347149789333343505859375" lon="-107.7342475019395351409912109375">
        <ele>3554.39990234375</ele>
        <time>2026-08-15T18:38:52.000Z</time>
        <extensions>
          <ns3:TrackPointExtension>
            <ns3:hr>104</ns3:hr>
            <ns3:cad>0</ns3:cad>
          </ns3:TrackPointExtension>
        </extensions>
      </trkpt>
      <trkpt lat="37.9809874109923839569091796875" lon="-107.73424255661666393280029296875">
        <ele>3554.800048828125</ele>
        <time>2026-08-15T18:38:58.000Z</time>
        <extensions>
          <ns3:TrackPointExtension>
            <ns3:hr>103</ns3:hr>
            <ns3:cad>0</ns3:cad>
          </ns3:TrackPointExtension>
        </extensions>
      </trkpt>
      <trkpt lat="37.98098422586917877197265625" lon="-107.73419779725372791290283203125">
        <ele>3554</ele>
        <time>2026-08-15T18:39:04.000Z</time>
        <extensions>
          <ns3:TrackPointExtension>
            <ns3:hr>102</ns3:hr>
            <ns3:cad>0</ns3:cad>
          </ns3:TrackPointExtension>
        </extensions>
      </trkpt>
      <trkpt lat="37.98098288476467132568359375" lon="-107.73419410921633243560791015625">
        <ele>3553.800048828125</ele>
        <time>2026-08-15T18:39:05.000Z</time>
        <extensions>
          <ns3:TrackPointExtension>
            <ns3:hr>103</ns3:hr>
            <ns3:cad>0</ns3:cad>
          </ns3:TrackPointExtension>
        </extensions>
      </trkpt>
      <trkpt lat="37.98097676597535610198974609375" lon="-107.73414398543536663055419921875">
        <ele>3553.60009765625</ele>
        <time>2026-08-15T18:39:11.000Z</time>
        <extensions>
          <ns3:TrackPointExtension>
            <ns3:hr>104</ns3:hr>
            <ns3:cad>57</ns3:cad>
          </ns3:TrackPointExtension>
        </extensions>
      </trkpt>
      <trkpt lat="37.98097643069922924041748046875" lon="-107.73412638343870639801025390625">
        <ele>3553</ele>
        <time>2026-08-15T18:39:13.000Z</time>
        <extensions>
          <ns3:TrackPointExtension>
            <ns3:hr>104</ns3:hr>
            <ns3:cad>55</ns3:cad>
          </ns3:TrackPointExtension>
        </extensions>
      </trkpt>
      <trkpt lat="37.98097710125148296356201171875" lon="-107.73408782668411731719970703125">
        <ele>3551.800048828125</ele>
        <time>2026-08-15T18:39:17.000Z</time>
        <extensions>
          <ns3:TrackPointExtension>
            <ns3:hr>104</ns3:hr>
            <ns3:cad>52</ns3:cad>
          </ns3:TrackPointExtension>
        </extensions>
      </trkpt>
      <trkpt lat="37.98098179511725902557373046875" lon="-107.7340560592710971832275390625">
        <ele>3551.199951171875</ele>
        <time>2026-08-15T18:39:20.000Z</time>
        <extensions>
          <ns3:TrackPointExtension>
            <ns3:hr>103</ns3:hr>
            <ns3:cad>52</ns3:cad>
          </ns3:TrackPointExtension>
        </extensions>
      </trkpt>
      <trkpt lat="37.98098824918270111083984375" lon="-107.73404692299664020538330078125">
        <ele>3551.199951171875</ele>
        <time>2026-08-15T18:39:21.000Z</time>
        <extensions>
          <ns3:TrackPointExtension>
            <ns3:hr>102</ns3:hr>
            <ns3:cad>0</ns3:cad>
          </ns3:TrackPointExtension>
        </extensions>
      </trkpt>
      <trkpt lat="37.9809964634478092193603515625" lon="-107.73402647115290164947509765625">
        <ele>3551.199951171875</ele>
        <time>2026-08-15T18:39:23.000Z</time>
        <extensions>
          <ns3:TrackPointExtension>
            <ns3:hr>97</ns3:hr>
            <ns3:cad>75</ns3:cad>
          </ns3:TrackPointExtension>
        </extensions>
      </trkpt>
      <trkpt lat="37.9810001514852046966552734375" lon="-107.73398556746542453765869140625">
        <ele>3551</ele>
        <time>2026-08-15T18:39:26.000Z</time>
        <extensions>
          <ns3:TrackPointExtension>
            <ns3:hr>94</ns3:hr>
            <ns3:cad>0</ns3:cad>
          </ns3:TrackPointExtension>
        </extensions>
      </trkpt>
      <trkpt lat="37.98100576736032962799072265625" lon="-107.733958996832370758056640625">
        <ele>3550.60009765625</ele>
        <time>2026-08-15T18:39:28.000Z</time>
        <extensions>
          <ns3:TrackPointExtension>
            <ns3:hr>93</ns3:hr>
            <ns3:cad>0</ns3:cad>
          </ns3:TrackPointExtension>
        </extensions>
      </trkpt>
      <trkpt lat="37.98100861720740795135498046875" lon="-107.73394667543470859527587890625">
        <ele>3550.60009765625</ele>
        <time>2026-08-15T18:39:29.000Z</time>
        <extensions>
          <ns3:TrackPointExtension>
            <ns3:hr>93</ns3:hr>
            <ns3:cad>0</ns3:cad>
          </ns3:TrackPointExtension>
        </extensions>
      </trkpt>
      <trkpt lat="37.9810045100748538970947265625" lon="-107.7339310012757778167724609375">
        <ele>3550.39990234375</ele>
        <time>2026-08-15T18:39:30.000Z</time>
        <extensions>
          <ns3:TrackPointExtension>
            <ns3:hr>93</ns3:hr>
            <ns3:cad>0</ns3:cad>
          </ns3:TrackPointExtension>
        </extensions>
      </trkpt>
      <trkpt lat="37.98101012594997882843017578125" lon="-107.73387861438095569610595703125">
        <ele>3549.60009765625</ele>
        <time>2026-08-15T18:39:35.000Z</time>
        <extensions>
          <ns3:TrackPointExtension>
            <ns3:hr>92</ns3:hr>
            <ns3:cad>73</ns3:cad>
          </ns3:TrackPointExtension>
        </extensions>
      </trkpt>
      <trkpt lat="37.9810024984180927276611328125" lon="-107.7338646166026592254638671875">
        <ele>3549.60009765625</ele>
        <time>2026-08-15T18:39:36.000Z</time>
        <extensions>
          <ns3:TrackPointExtension>
            <ns3:hr>93</ns3:hr>
            <ns3:cad>73</ns3:cad>
          </ns3:TrackPointExtension>
        </extensions>
      </trkpt>
      <trkpt lat="37.98099067993462085723876953125" lon="-107.73387777619063854217529296875">
        <ele>3549.199951171875</ele>
        <time>2026-08-15T18:39:38.000Z</time>
        <extensions>
          <ns3:TrackPointExtension>
            <ns3:hr>92</ns3:hr>
            <ns3:cad>73</ns3:cad>
          </ns3:TrackPointExtension>
        </extensions>
      </trkpt>
      <trkpt lat="37.9809847287833690643310546875" lon="-107.7338840626180171966552734375">
        <ele>3549</ele>
        <time>2026-08-15T18:39:39.000Z</time>
        <extensions>
          <ns3:TrackPointExtension>
            <ns3:hr>93</ns3:hr>
            <ns3:cad>73</ns3:cad>
          </ns3:TrackPointExtension>
        </extensions>
      </trkpt>
      <trkpt lat="37.9809622652828693389892578125" lon="-107.73390359245240688323974609375">
        <ele>3548.60009765625</ele>
        <time>2026-08-15T18:39:42.000Z</time>
        <extensions>
          <ns3:TrackPointExtension>
            <ns3:hr>94</ns3:hr>
            <ns3:cad>0</ns3:cad>
          </ns3:TrackPointExtension>
        </extensions>
      </trkpt>
      <trkpt lat="37.980932258069515228271484375" lon="-107.7339551411569118499755859375">
        <ele>3547.800048828125</ele>
        <time>2026-08-15T18:39:47.000Z</time>
        <extensions>
          <ns3:TrackPointExtension>
            <ns3:hr>96</ns3:hr>
            <ns3:cad>43</ns3:cad>
          </ns3:TrackPointExtension>
        </extensions>
      </trkpt>
      <trkpt lat="37.98091775737702846527099609375" lon="-107.7339789457619190216064453125">
        <ele>3547.39990234375</ele>
        <time>2026-08-15T18:39:49.000Z</time>
        <extensions>
          <ns3:TrackPointExtension>
            <ns3:hr>95</ns3:hr>
            <ns3:cad>75</ns3:cad>
          </ns3:TrackPointExtension>
        </extensions>
      </trkpt>
      <trkpt lat="37.98090300522744655609130859375" lon="-107.7340042591094970703125">
        <ele>3547</ele>
        <time>2026-08-15T18:39:52.000Z</time>
        <extensions>
          <ns3:TrackPointExtension>
            <ns3:hr>96</ns3:hr>
            <ns3:cad>0</ns3:cad>
          </ns3:TrackPointExtension>
        </extensions>
      </trkpt>
      <trkpt lat="37.9808828048408031463623046875" lon="-107.7340379543602466583251953125">
        <ele>3546.199951171875</ele>
        <time>2026-08-15T18:39:55.000Z</time>
        <extensions>
          <ns3:TrackPointExtension>
            <ns3:hr>95</ns3:hr>
            <ns3:cad>0</ns3:cad>
          </ns3:TrackPointExtension>
        </extensions>
      </trkpt>
      <trkpt lat="37.98084718175232410430908203125" lon="-107.734095789492130279541015625">
        <ele>3545.39990234375</ele>
        <time>2026-08-15T18:40:00.000Z</time>
        <extensions>
          <ns3:TrackPointExtension>
            <ns3:hr>94</ns3:hr>
            <ns3:cad>0</ns3:cad>
          </ns3:TrackPointExtension>
        </extensions>
      </trkpt>
      <trkpt lat="37.98083729110658168792724609375" lon="-107.73411498405039310455322265625">
        <ele>3545.199951171875</ele>
        <time>2026-08-15T18:40:02.000Z</time>
        <extensions>
          <ns3:TrackPointExtension>
            <ns3:hr>95</ns3:hr>
            <ns3:cad>0</ns3:cad>
          </ns3:TrackPointExtension>
        </extensions>
      </trkpt>
      <trkpt lat="37.980816923081874847412109375" lon="-107.73415404371917247772216796875">
        <ele>3544.60009765625</ele>
        <time>2026-08-15T18:40:07.000Z</time>
        <extensions>
          <ns3:TrackPointExtension>
            <ns3:hr>96</ns3:hr>
            <ns3:cad>0</ns3:cad>
          </ns3:TrackPointExtension>
        </extensions>
      </trkpt>
      <trkpt lat="37.98079336993396282196044921875" lon="-107.73417851887643337249755859375">
        <ele>3544</ele>
        <time>2026-08-15T18:40:11.000Z</time>
        <extensions>
          <ns3:TrackPointExtension>
            <ns3:hr>99</ns3:hr>
            <ns3:cad>0</ns3:cad>
          </ns3:TrackPointExtension>
        </extensions>
      </trkpt>
      <trkpt lat="37.98077769577503204345703125" lon="-107.734194360673427581787109375">
        <ele>3543.800048828125</ele>
        <time>2026-08-15T18:40:13.000Z</time>
        <extensions>
          <ns3:TrackPointExtension>
            <ns3:hr>103</ns3:hr>
            <ns3:cad>58</ns3:cad>
          </ns3:TrackPointExtension>
        </extensions>
      </trkpt>
      <trkpt lat="37.98077157698571681976318359375" lon="-107.73420383222401142120361328125">
        <ele>3543.60009765625</ele>
        <time>2026-08-15T18:40:14.000Z</time>
        <extensions>
          <ns3:TrackPointExtension>
            <ns3:hr>103</ns3:hr>
            <ns3:cad>58</ns3:cad>
          </ns3:TrackPointExtension>
        </extensions>
      </trkpt>
      <trkpt lat="37.980752550065517425537109375" lon="-107.734220512211322784423828125">
        <ele>3543</ele>
        <time>2026-08-15T18:40:17.000Z</time>
        <extensions>
          <ns3:TrackPointExtension>
            <ns3:hr>103</ns3:hr>
            <ns3:cad>0</ns3:cad>
          </ns3:TrackPointExtension>
        </extensions>
      </trkpt>
      <trkpt lat="37.9807262308895587921142578125" lon="-107.73424775339663028717041015625">
        <ele>3542.199951171875</ele>
        <time>2026-08-15T18:40:21.000Z</time>
        <extensions>
          <ns3:TrackPointExtension>
            <ns3:hr>104</ns3:hr>
            <ns3:cad>0</ns3:cad>
          </ns3:TrackPointExtension>
        </extensions>
      </trkpt>
      <trkpt lat="37.98071198165416717529296875" lon="-107.734266109764575958251953125">
        <ele>3541.800048828125</ele>
        <time>2026-08-15T18:40:23.000Z</time>
        <extensions>
          <ns3:TrackPointExtension>
            <ns3:hr>105</ns3:hr>
            <ns3:cad>0</ns3:cad>
          </ns3:TrackPointExtension>
        </extensions>
      </trkpt>
      <trkpt lat="37.980676107108592987060546875" lon="-107.73430072702467441558837890625">
        <ele>3540.60009765625</ele>
        <time>2026-08-15T18:40:28.000Z</time>
        <extensions>
          <ns3:TrackPointExtension>
            <ns3:hr>104</ns3:hr>
            <ns3:cad>56</ns3:cad>
          </ns3:TrackPointExtension>
        </extensions>
      </trkpt>
      <trkpt lat="37.98065423034131526947021484375" lon="-107.73434062488377094268798828125">
        <ele>3539.60009765625</ele>
        <time>2026-08-15T18:40:34.000Z</time>
        <extensions>
          <ns3:TrackPointExtension>
            <ns3:hr>102</ns3:hr>
            <ns3:cad>0</ns3:cad>
          </ns3:TrackPointExtension>
        </extensions>
      </trkpt>
      <trkpt lat="37.980651296675205230712890625" lon="-107.73434431292116641998291015625">
        <ele>3539.60009765625</ele>
        <time>2026-08-15T18:40:35.000Z</time>
        <extensions>
          <ns3:TrackPointExtension>
            <ns3:hr>102</ns3:hr>
            <ns3:cad>0</ns3:cad>
          </ns3:TrackPointExtension>
        </extensions>
      </trkpt>
      <trkpt lat="37.98065288923680782318115234375" lon="-107.73434196598827838897705078125">
        <ele>3539.60009765625</ele>
        <time>2026-08-15T18:40:41.000Z</time>
        <extensions>
          <ns3:TrackPointExtension>
            <ns3:hr>101</ns3:hr>
            <ns3:cad>0</ns3:cad>
          </ns3:TrackPointExtension>
        </extensions>
      </trkpt>
      <trkpt lat="37.98064433969557285308837890625" lon="-107.73436409421265125274658203125">
        <ele>3539.60009765625</ele>
        <time>2026-08-15T18:40:47.000Z</time>
        <extensions>
          <ns3:TrackPointExtension>
            <ns3:hr>100</ns3:hr>
            <ns3:cad>0</ns3:cad>
          </ns3:TrackPointExtension>
        </extensions>
      </trkpt>
      <trkpt lat="37.9806467704474925994873046875" lon="-107.73437784053385257720947265625">
        <ele>3539.60009765625</ele>
        <time>2026-08-15T18:40:51.000Z</time>
        <extensions>
          <ns3:TrackPointExtension>
            <ns3:hr>103</ns3:hr>
            <ns3:cad>60</ns3:cad>
          </ns3:TrackPointExtension>
        </extensions>
      </trkpt>
      <trkpt lat="37.98063956201076507568359375" lon="-107.73439058102667331695556640625">
        <ele>3539.199951171875</ele>
        <time>2026-08-15T18:40:54.000Z</time>
        <extensions>
          <ns3:TrackPointExtension>
            <ns3:hr>105</ns3:hr>
            <ns3:cad>60</ns3:cad>
          </ns3:TrackPointExtension>
        </extensions>
      </trkpt>
      <trkpt lat="37.98062321729958057403564453125" lon="-107.7344208396971225738525390625">
        <ele>3538.39990234375</ele>
        <time>2026-08-15T18:40:59.000Z</time>
        <extensions>
          <ns3:TrackPointExtension>
            <ns3:hr>106</ns3:hr>
            <ns3:cad>0</ns3:cad>
          </ns3:TrackPointExtension>
        </extensions>
      </trkpt>
      <trkpt lat="37.980595640838146209716796875" lon="-107.7344547025859355926513671875">
        <ele>3537.800048828125</ele>
        <time>2026-08-15T18:41:04.000Z</time>
        <extensions>
          <ns3:TrackPointExtension>
            <ns3:hr>103</ns3:hr>
            <ns3:cad>0</ns3:cad>
          </ns3:TrackPointExtension>
        </extensions>
      </trkpt>
      <trkpt lat="37.98058985732495784759521484375" lon="-107.73446534760296344757080078125">
        <ele>3537.60009765625</ele>
        <time>2026-08-15T18:41:05.000Z</time>
        <extensions>
          <ns3:TrackPointExtension>
            <ns3:hr>101</ns3:hr>
            <ns3:cad>0</ns3:cad>
          </ns3:TrackPointExtension>
        </extensions>
      </trkpt>
      <trkpt lat="37.98058264888823032379150390625" lon="-107.734478004276752471923828125">
        <ele>3537.39990234375</ele>
        <time>2026-08-15T18:41:06.000Z</time>
        <extensions>
          <ns3:TrackPointExtension>
            <ns3:hr>100</ns3:hr>
            <ns3:cad>0</ns3:cad>
          </ns3:TrackPointExtension>
        </extensions>
      </trkpt>
      <trkpt lat="37.98055884428322315216064453125" lon="-107.7345106936991214752197265625">
        <ele>3536.199951171875</ele>
        <time>2026-08-15T18:41:10.000Z</time>
        <extensions>
          <ns3:TrackPointExtension>
            <ns3:hr>101</ns3:hr>
            <ns3:cad>0</ns3:cad>
          </ns3:TrackPointExtension>
        </extensions>
      </trkpt>
      <trkpt lat="37.98054945655167102813720703125" lon="-107.73452586494386196136474609375">
        <ele>3536</ele>
        <time>2026-08-15T18:41:13.000Z</time>
        <extensions>
          <ns3:TrackPointExtension>
            <ns3:hr>101</ns3:hr>
            <ns3:cad>0</ns3:cad>
          </ns3:TrackPointExtension>
        </extensions>
      </trkpt>
      <trkpt lat="37.98052615486085414886474609375" lon="-107.7345646731555461883544921875">
        <ele>3535.199951171875</ele>
        <time>2026-08-15T18:41:19.000Z</time>
        <extensions>
          <ns3:TrackPointExtension>
            <ns3:hr>102</ns3:hr>
            <ns3:cad>0</ns3:cad>
          </ns3:TrackPointExtension>
        </extensions>
      </trkpt>
      <trkpt lat="37.9805109836161136627197265625" lon="-107.73458621464669704437255859375">
        <ele>3534.39990234375</ele>
        <time>2026-08-15T18:41:22.000Z</time>
        <extensions>
          <ns3:TrackPointExtension>
            <ns3:hr>106</ns3:hr>
            <ns3:cad>0</ns3:cad>
          </ns3:TrackPointExtension>
        </extensions>
      </trkpt>
      <trkpt lat="37.98050721175968647003173828125" lon="-107.734590657055377960205078125">
        <ele>3534.199951171875</ele>
        <time>2026-08-15T18:41:23.000Z</time>
        <extensions>
          <ns3:TrackPointExtension>
            <ns3:hr>107</ns3:hr>
            <ns3:cad>0</ns3:cad>
          </ns3:TrackPointExtension>
        </extensions>
      </trkpt>
      <trkpt lat="37.9804913699626922607421875" lon="-107.73460767231881618499755859375">
        <ele>3533.39990234375</ele>
        <time>2026-08-15T18:41:26.000Z</time>
        <extensions>
          <ns3:TrackPointExtension>
            <ns3:hr>110</ns3:hr>
            <ns3:cad>0</ns3:cad>
          </ns3:TrackPointExtension>
        </extensions>
      </trkpt>
      <trkpt lat="37.98047603107988834381103515625" lon="-107.7346246875822544097900390625">
        <ele>3533</ele>
        <time>2026-08-15T18:41:28.000Z</time>
        <extensions>
          <ns3:TrackPointExtension>
            <ns3:hr>110</ns3:hr>
            <ns3:cad>0</ns3:cad>
          </ns3:TrackPointExtension>
        </extensions>
      </trkpt>
      <trkpt lat="37.9804566688835620880126953125" lon="-107.7346736378967761993408203125">
        <ele>3532.199951171875</ele>
        <time>2026-08-15T18:41:34.000Z</time>
        <extensions>
          <ns3:TrackPointExtension>
            <ns3:hr>109</ns3:hr>
            <ns3:cad>0</ns3:cad>
          </ns3:TrackPointExtension>
        </extensions>
      </trkpt>
      <trkpt lat="37.98045893199741840362548828125" lon="-107.73467573337256908416748046875">
        <ele>3532</ele>
        <time>2026-08-15T18:41:35.000Z</time>
        <extensions>
          <ns3:TrackPointExtension>
            <ns3:hr>107</ns3:hr>
            <ns3:cad>0</ns3:cad>
          </ns3:TrackPointExtension>
        </extensions>
      </trkpt>
      <trkpt lat="37.9804603569209575653076171875" lon="-107.73467858321964740753173828125">
        <ele>3532</ele>
        <time>2026-08-15T18:41:37.000Z</time>
        <extensions>
          <ns3:TrackPointExtension>
            <ns3:hr>105</ns3:hr>
            <ns3:cad>0</ns3:cad>
          </ns3:TrackPointExtension>
        </extensions>
      </trkpt>
      <trkpt lat="37.980462871491909027099609375" lon="-107.7346843667328357696533203125">
        <ele>3532.39990234375</ele>
        <time>2026-08-15T18:41:43.000Z</time>
        <extensions>
          <ns3:TrackPointExtension>
            <ns3:hr>104</ns3:hr>
            <ns3:cad>0</ns3:cad>
          </ns3:TrackPointExtension>
        </extensions>
      </trkpt>
      <trkpt lat="37.9804603569209575653076171875" lon="-107.73467858321964740753173828125">
        <ele>3532.199951171875</ele>
        <time>2026-08-15T18:41:49.000Z</time>
        <extensions>
          <ns3:TrackPointExtension>
            <ns3:hr>103</ns3:hr>
            <ns3:cad>0</ns3:cad>
          </ns3:TrackPointExtension>
        </extensions>
      </trkpt>
      <trkpt lat="37.9804603569209575653076171875" lon="-107.73467858321964740753173828125">
        <ele>3532.39990234375</ele>
        <time>2026-08-15T18:41:53.000Z</time>
        <extensions>
          <ns3:TrackPointExtension>
            <ns3:hr>106</ns3:hr>
            <ns3:cad>0</ns3:cad>
          </ns3:TrackPointExtension>
        </extensions>
      </trkpt>
      <trkpt lat="37.9804603569209575653076171875" lon="-107.73467858321964740753173828125">
        <ele>3532.199951171875</ele>
        <time>2026-08-15T18:41:59.000Z</time>
        <extensions>
          <ns3:TrackPointExtension>
            <ns3:hr>105</ns3:hr>
            <ns3:cad>0</ns3:cad>
          </ns3:TrackPointExtension>
        </extensions>
      </trkpt>
      <trkpt lat="37.9804603569209575653076171875" lon="-107.73467858321964740753173828125">
        <ele>3532</ele>
        <time>2026-08-15T18:42:04.000Z</time>
        <extensions>
          <ns3:TrackPointExtension>
            <ns3:hr>106</ns3:hr>
            <ns3:cad>0</ns3:cad>
          </ns3:TrackPointExtension>
        </extensions>
      </trkpt>
      <trkpt lat="37.9804603569209575653076171875" lon="-107.73467858321964740753173828125">
        <ele>3532.199951171875</ele>
        <time>2026-08-15T18:42:10.000Z</time>
        <extensions>
          <ns3:TrackPointExtension>
            <ns3:hr>106</ns3:hr>
            <ns3:cad>0</ns3:cad>
          </ns3:TrackPointExtension>
        </extensions>
      </trkpt>
      <trkpt lat="37.98045893199741840362548828125" lon="-107.73470490239560604095458984375">
        <ele>3531.800048828125</ele>
        <time>2026-08-15T18:42:12.000Z</time>
        <extensions>
          <ns3:TrackPointExtension>
            <ns3:hr>106</ns3:hr>
            <ns3:cad>0</ns3:cad>
          </ns3:TrackPointExtension>
        </extensions>
      </trkpt>
      <trkpt lat="37.9804456047713756561279296875" lon="-107.73475133813917636871337890625">
        <ele>3532</ele>
        <time>2026-08-15T18:42:18.000Z</time>
        <extensions>
          <ns3:TrackPointExtension>
            <ns3:hr>108</ns3:hr>
            <ns3:cad>0</ns3:cad>
          </ns3:TrackPointExtension>
        </extensions>
      </trkpt>
      <trkpt lat="37.9804422520101070404052734375" lon="-107.73482074029743671417236328125">
        <ele>3531.39990234375</ele>
        <time>2026-08-15T18:42:24.000Z</time>
        <extensions>
          <ns3:TrackPointExtension>
            <ns3:hr>110</ns3:hr>
            <ns3:cad>68</ns3:cad>
          </ns3:TrackPointExtension>
        </extensions>
      </trkpt>
      <trkpt lat="37.980436049401760101318359375" lon="-107.73489885963499546051025390625">
        <ele>3531.199951171875</ele>
        <time>2026-08-15T18:42:30.000Z</time>
        <extensions>
          <ns3:TrackPointExtension>
            <ns3:hr>110</ns3:hr>
            <ns3:cad>68</ns3:cad>
          </ns3:TrackPointExtension>
        </extensions>
      </trkpt>
      <trkpt lat="37.9804244823753833770751953125" lon="-107.7349331416189670562744140625">
        <ele>3531</ele>
        <time>2026-08-15T18:42:34.000Z</time>
        <extensions>
          <ns3:TrackPointExtension>
            <ns3:hr>108</ns3:hr>
            <ns3:cad>68</ns3:cad>
          </ns3:TrackPointExtension>
        </extensions>
      </trkpt>
      <trkpt lat="37.98042657785117626190185546875" lon="-107.73492920212447643280029296875">
        <ele>3530.800048828125</ele>
        <time>2026-08-15T18:42:36.000Z</time>
        <extensions>
          <ns3:TrackPointExtension>
            <ns3:hr>109</ns3:hr>
            <ns3:cad>52</ns3:cad>
          </ns3:TrackPointExtension>
        </extensions>
      </trkpt>
      <trkpt lat="37.980428002774715423583984375" lon="-107.7349375002086162567138671875">
        <ele>3530.800048828125</ele>
        <time>2026-08-15T18:42:37.000Z</time>
        <extensions>
          <ns3:TrackPointExtension>
            <ns3:hr>110</ns3:hr>
            <ns3:cad>0</ns3:cad>
          </ns3:TrackPointExtension>
        </extensions>
      </trkpt>
      <trkpt lat="37.9804157651960849761962890625" lon="-107.734979577362537384033203125">
        <ele>3530.60009765625</ele>
        <time>2026-08-15T18:42:41.000Z</time>
        <extensions>
          <ns3:TrackPointExtension>
            <ns3:hr>113</ns3:hr>
            <ns3:cad>0</ns3:cad>
          </ns3:TrackPointExtension>
        </extensions>
      </trkpt>
      <trkpt lat="37.98041098751127719879150390625" lon="-107.73498703725636005401611328125">
        <ele>3530.39990234375</ele>
        <time>2026-08-15T18:42:42.000Z</time>
        <extensions>
          <ns3:TrackPointExtension>
            <ns3:hr>114</ns3:hr>
            <ns3:cad>0</ns3:cad>
          </ns3:TrackPointExtension>
        </extensions>
      </trkpt>
      <trkpt lat="37.9803993366658687591552734375" lon="-107.73501000367105007171630859375">
        <ele>3530</ele>
        <time>2026-08-15T18:42:45.000Z</time>
        <extensions>
          <ns3:TrackPointExtension>
            <ns3:hr>115</ns3:hr>
            <ns3:cad>73</ns3:cad>
          </ns3:TrackPointExtension>
        </extensions>
      </trkpt>
      <trkpt lat="37.98038550652563571929931640625" lon="-107.7350632287561893463134765625">
        <ele>3529.199951171875</ele>
        <time>2026-08-15T18:42:49.000Z</time>
        <extensions>
          <ns3:TrackPointExtension>
            <ns3:hr>118</ns3:hr>
            <ns3:cad>73</ns3:cad>
          </ns3:TrackPointExtension>
        </extensions>
      </trkpt>
      <trkpt lat="37.9803832434117794036865234375" lon="-107.73507588542997837066650390625">
        <ele>3529</ele>
        <time>2026-08-15T18:42:50.000Z</time>
        <extensions>
          <ns3:TrackPointExtension>
            <ns3:hr>119</ns3:hr>
            <ns3:cad>73</ns3:cad>
          </ns3:TrackPointExtension>
        </extensions>
      </trkpt>
      <trkpt lat="37.9803778789937496185302734375" lon="-107.73514059372246265411376953125">
        <ele>3528.800048828125</ele>
        <time>2026-08-15T18:42:55.000Z</time>
        <extensions>
          <ns3:TrackPointExtension>
            <ns3:hr>120</ns3:hr>
            <ns3:cad>73</ns3:cad>
          </ns3:TrackPointExtension>
        </extensions>
      </trkpt>
      <trkpt lat="37.980357594788074493408203125" lon="-107.73520647548139095306396484375">
        <ele>3528</ele>
        <time>2026-08-15T18:43:01.000Z</time>
        <extensions>
          <ns3:TrackPointExtension>
            <ns3:hr>120</ns3:hr>
            <ns3:cad>0</ns3:cad>
          </ns3:TrackPointExtension>
        </extensions>
      </trkpt>
      <trkpt lat="37.98035851679742336273193359375" lon="-107.7352171204984188079833984375">
        <ele>3527.800048828125</ele>
        <time>2026-08-15T18:43:02.000Z</time>
        <extensions>
          <ns3:TrackPointExtension>
            <ns3:hr>120</ns3:hr>
            <ns3:cad>0</ns3:cad>
          </ns3:TrackPointExtension>
        </extensions>
      </trkpt>
      <trkpt lat="37.9803426750004291534423828125" lon="-107.73525894619524478912353515625">
        <ele>3526.60009765625</ele>
        <time>2026-08-15T18:43:08.000Z</time>
        <extensions>
          <ns3:TrackPointExtension>
            <ns3:hr>117</ns3:hr>
            <ns3:cad>0</ns3:cad>
          </ns3:TrackPointExtension>
        </extensions>
      </trkpt>
      <trkpt lat="37.98033018596470355987548828125" lon="-107.73530471138656139373779296875">
        <ele>3525.60009765625</ele>
        <time>2026-08-15T18:43:13.000Z</time>
        <extensions>
          <ns3:TrackPointExtension>
            <ns3:hr>115</ns3:hr>
            <ns3:cad>0</ns3:cad>
          </ns3:TrackPointExtension>
        </extensions>
      </trkpt>
      <trkpt lat="37.9803277552127838134765625" lon="-107.73531761951744556427001953125">
        <ele>3525.60009765625</ele>
        <time>2026-08-15T18:43:14.000Z</time>
        <extensions>
          <ns3:TrackPointExtension>
            <ns3:hr>115</ns3:hr>
            <ns3:cad>0</ns3:cad>
          </ns3:TrackPointExtension>
        </extensions>
      </trkpt>
      <trkpt lat="37.98032104969024658203125" lon="-107.735367827117443084716796875">
        <ele>3524.60009765625</ele>
        <time>2026-08-15T18:43:18.000Z</time>
        <extensions>
          <ns3:TrackPointExtension>
            <ns3:hr>117</ns3:hr>
            <ns3:cad>0</ns3:cad>
          </ns3:TrackPointExtension>
        </extensions>
      </trkpt>
      <trkpt lat="37.98031258396804332733154296875" lon="-107.73541535250842571258544921875">
        <ele>3523.800048828125</ele>
        <time>2026-08-15T18:43:23.000Z</time>
        <extensions>
          <ns3:TrackPointExtension>
            <ns3:hr>117</ns3:hr>
            <ns3:cad>0</ns3:cad>
          </ns3:TrackPointExtension>
        </extensions>
      </trkpt>
      <trkpt lat="37.9803108237683773040771484375" lon="-107.73542658425867557525634765625">
        <ele>3523.60009765625</ele>
        <time>2026-08-15T18:43:24.000Z</time>
        <extensions>
          <ns3:TrackPointExtension>
            <ns3:hr>118</ns3:hr>
            <ns3:cad>0</ns3:cad>
          </ns3:TrackPointExtension>
        </extensions>
      </trkpt>
      <trkpt lat="37.98030755482614040374755859375" lon="-107.73546011187136173248291015625">
        <ele>3522.800048828125</ele>
        <time>2026-08-15T18:43:28.000Z</time>
        <extensions>
          <ns3:TrackPointExtension>
            <ns3:hr>118</ns3:hr>
            <ns3:cad>0</ns3:cad>
          </ns3:TrackPointExtension>
        </extensions>
      </trkpt>
      <trkpt lat="37.980307638645172119140625" lon="-107.73547084070742130279541015625">
        <ele>3522.60009765625</ele>
        <time>2026-08-15T18:43:29.000Z</time>
        <extensions>
          <ns3:TrackPointExtension>
            <ns3:hr>118</ns3:hr>
            <ns3:cad>0</ns3:cad>
          </ns3:TrackPointExtension>
        </extensions>
      </trkpt>
      <trkpt lat="37.9802987538278102874755859375" lon="-107.73549095727503299713134765625">
        <ele>3521.800048828125</ele>
        <time>2026-08-15T18:43:32.000Z</time>
        <extensions>
          <ns3:TrackPointExtension>
            <ns3:hr>117</ns3:hr>
            <ns3:cad>0</ns3:cad>
          </ns3:TrackPointExtension>
        </extensions>
      </trkpt>
      <trkpt lat="37.98029347322881221771240234375" lon="-107.73549431003630161285400390625">
        <ele>3521.60009765625</ele>
        <time>2026-08-15T18:43:34.000Z</time>
        <extensions>
          <ns3:TrackPointExtension>
            <ns3:hr>117</ns3:hr>
            <ns3:cad>0</ns3:cad>
          </ns3:TrackPointExtension>
        </extensions>
      </trkpt>
      <trkpt lat="37.9802923835813999176025390625" lon="-107.73550436832010746002197265625">
        <ele>3521.39990234375</ele>
        <time>2026-08-15T18:43:35.000Z</time>
        <extensions>
          <ns3:TrackPointExtension>
            <ns3:hr>117</ns3:hr>
            <ns3:cad>0</ns3:cad>
          </ns3:TrackPointExtension>
        </extensions>
      </trkpt>
      <trkpt lat="37.98028073273599147796630859375" lon="-107.7355255745351314544677734375">
        <ele>3520.39990234375</ele>
        <time>2026-08-15T18:43:39.000Z</time>
        <extensions>
          <ns3:TrackPointExtension>
            <ns3:hr>116</ns3:hr>
            <ns3:cad>0</ns3:cad>
          </ns3:TrackPointExtension>
        </extensions>
      </trkpt>
      <trkpt lat="37.9802813194692134857177734375" lon="-107.73551610298454761505126953125">
        <ele>3519.60009765625</ele>
        <time>2026-08-15T18:43:41.000Z</time>
        <extensions>
          <ns3:TrackPointExtension>
            <ns3:hr>116</ns3:hr>
            <ns3:cad>54</ns3:cad>
          </ns3:TrackPointExtension>
        </extensions>
      </trkpt>
      <trkpt lat="37.9802767932415008544921875" lon="-107.735499925911426544189453125">
        <ele>3519.199951171875</ele>
        <time>2026-08-15T18:43:43.000Z</time>
        <extensions>
          <ns3:TrackPointExtension>
            <ns3:hr>115</ns3:hr>
            <ns3:cad>0</ns3:cad>
          </ns3:TrackPointExtension>
        </extensions>
      </trkpt>
      <trkpt lat="37.98025332391262054443359375" lon="-107.7354481257498264312744140625">
        <ele>3518.39990234375</ele>
        <time>2026-08-15T18:43:48.000Z</time>
        <extensions>
          <ns3:TrackPointExtension>
            <ns3:hr>115</ns3:hr>
            <ns3:cad>0</ns3:cad>
          </ns3:TrackPointExtension>
        </extensions>
      </trkpt>
      <trkpt lat="37.980244271457195281982421875" lon="-107.73542071692645549774169921875">
        <ele>3518.199951171875</ele>
        <time>2026-08-15T18:43:50.000Z</time>
        <extensions>
          <ns3:TrackPointExtension>
            <ns3:hr>114</ns3:hr>
            <ns3:cad>52</ns3:cad>
          </ns3:TrackPointExtension>
        </extensions>
      </trkpt>
      <trkpt lat="37.9802263341844081878662109375" lon="-107.73534871637821197509765625">
        <ele>3517.199951171875</ele>
        <time>2026-08-15T18:43:55.000Z</time>
        <extensions>
          <ns3:TrackPointExtension>
            <ns3:hr>114</ns3:hr>
            <ns3:cad>0</ns3:cad>
          </ns3:TrackPointExtension>
        </extensions>
      </trkpt>
      <trkpt lat="37.980203367769718170166015625" lon="-107.73528300225734710693359375">
        <ele>3517.199951171875</ele>
        <time>2026-08-15T18:44:01.000Z</time>
        <extensions>
          <ns3:TrackPointExtension>
            <ns3:hr>111</ns3:hr>
            <ns3:cad>0</ns3:cad>
          </ns3:TrackPointExtension>
        </extensions>
      </trkpt>
      <trkpt lat="37.98019775189459323883056640625" lon="-107.7352744527161121368408203125">
        <ele>3517.199951171875</ele>
        <time>2026-08-15T18:44:02.000Z</time>
        <extensions>
          <ns3:TrackPointExtension>
            <ns3:hr>111</ns3:hr>
            <ns3:cad>0</ns3:cad>
          </ns3:TrackPointExtension>
        </extensions>
      </trkpt>
      <trkpt lat="37.98017394728958606719970703125" lon="-107.73521955125033855438232421875">
        <ele>3516.199951171875</ele>
        <time>2026-08-15T18:44:08.000Z</time>
        <extensions>
          <ns3:TrackPointExtension>
            <ns3:hr>108</ns3:hr>
            <ns3:cad>0</ns3:cad>
          </ns3:TrackPointExtension>
        </extensions>
      </trkpt>
      <trkpt lat="37.98017017543315887451171875" lon="-107.73521636612713336944580078125">
        <ele>3516</ele>
        <time>2026-08-15T18:44:09.000Z</time>
        <extensions>
          <ns3:TrackPointExtension>
            <ns3:hr>108</ns3:hr>
            <ns3:cad>0</ns3:cad>
          </ns3:TrackPointExtension>
        </extensions>
      </trkpt>
      <trkpt lat="37.9801485501229763031005859375" lon="-107.73518535308539867401123046875">
        <ele>3515</ele>
        <time>2026-08-15T18:44:15.000Z</time>
        <extensions>
          <ns3:TrackPointExtension>
            <ns3:hr>107</ns3:hr>
            <ns3:cad>0</ns3:cad>
          </ns3:TrackPointExtension>
        </extensions>
      </trkpt>
      <trkpt lat="37.9801346361637115478515625" lon="-107.73518417961895465850830078125">
        <ele>3514.800048828125</ele>
        <time>2026-08-15T18:44:17.000Z</time>
        <extensions>
          <ns3:TrackPointExtension>
            <ns3:hr>107</ns3:hr>
            <ns3:cad>0</ns3:cad>
          </ns3:TrackPointExtension>
        </extensions>
      </trkpt>
      <trkpt lat="37.980136312544345855712890625" lon="-107.7351809106767177581787109375">
        <ele>3514.39990234375</ele>
        <time>2026-08-15T18:44:19.000Z</time>
        <extensions>
          <ns3:TrackPointExtension>
            <ns3:hr>106</ns3:hr>
            <ns3:cad>0</ns3:cad>
          </ns3:TrackPointExtension>
        </extensions>
      </trkpt>
      <trkpt lat="37.98013128340244293212890625" lon="-107.73517881520092487335205078125">
        <ele>3514.199951171875</ele>
        <time>2026-08-15T18:44:20.000Z</time>
        <extensions>
          <ns3:TrackPointExtension>
            <ns3:hr>106</ns3:hr>
            <ns3:cad>0</ns3:cad>
          </ns3:TrackPointExtension>
        </extensions>
      </trkpt>
      <trkpt lat="37.98012818209826946258544921875" lon="-107.7351782284677028656005859375">
        <ele>3514.39990234375</ele>
        <time>2026-08-15T18:44:23.000Z</time>
        <extensions>
          <ns3:TrackPointExtension>
            <ns3:hr>110</ns3:hr>
            <ns3:cad>0</ns3:cad>
          </ns3:TrackPointExtension>
        </extensions>
      </trkpt>
      <trkpt lat="37.9801113344728946685791015625" lon="-107.73517412133514881134033203125">
        <ele>3514.199951171875</ele>
        <time>2026-08-15T18:44:26.000Z</time>
        <extensions>
          <ns3:TrackPointExtension>
            <ns3:hr>113</ns3:hr>
            <ns3:cad>0</ns3:cad>
          </ns3:TrackPointExtension>
        </extensions>
      </trkpt>
      <trkpt lat="37.980109490454196929931640625" lon="-107.73517345078289508819580078125">
        <ele>3514</ele>
        <time>2026-08-15T18:44:27.000Z</time>
        <extensions>
          <ns3:TrackPointExtension>
            <ns3:hr>114</ns3:hr>
            <ns3:cad>0</ns3:cad>
          </ns3:TrackPointExtension>
        </extensions>
      </trkpt>
      <trkpt lat="37.980087362229824066162109375" lon="-107.73516406305134296417236328125">
        <ele>3512.800048828125</ele>
        <time>2026-08-15T18:44:32.000Z</time>
        <extensions>
          <ns3:TrackPointExtension>
            <ns3:hr>115</ns3:hr>
            <ns3:cad>0</ns3:cad>
          </ns3:TrackPointExtension>
        </extensions>
      </trkpt>
      <trkpt lat="37.980087362229824066162109375" lon="-107.73516406305134296417236328125">
        <ele>3512.60009765625</ele>
        <time>2026-08-15T18:44:33.000Z</time>
        <extensions>
          <ns3:TrackPointExtension>
            <ns3:hr>115</ns3:hr>
            <ns3:cad>0</ns3:cad>
          </ns3:TrackPointExtension>
        </extensions>
      </trkpt>
      <trkpt lat="37.98007219098508358001708984375" lon="-107.735155262053012847900390625">
        <ele>3511.800048828125</ele>
        <time>2026-08-15T18:44:39.000Z</time>
        <extensions>
          <ns3:TrackPointExtension>
            <ns3:hr>115</ns3:hr>
            <ns3:cad>0</ns3:cad>
          </ns3:TrackPointExtension>
        </extensions>
      </trkpt>
      <trkpt lat="37.98005282878875732421875" lon="-107.73516138084232807159423828125">
        <ele>3510.800048828125</ele>
        <time>2026-08-15T18:44:44.000Z</time>
        <extensions>
          <ns3:TrackPointExtension>
            <ns3:hr>115</ns3:hr>
            <ns3:cad>0</ns3:cad>
          </ns3:TrackPointExtension>
        </extensions>
      </trkpt>
      <trkpt lat="37.98002533614635467529296875" lon="-107.7351752109825611114501953125">
        <ele>3509.60009765625</ele>
        <time>2026-08-15T18:44:50.000Z</time>
        <extensions>
          <ns3:TrackPointExtension>
            <ns3:hr>115</ns3:hr>
            <ns3:cad>0</ns3:cad>
          </ns3:TrackPointExtension>
        </extensions>
      </trkpt>
      <trkpt lat="37.98001821152865886688232421875" lon="-107.735219299793243408203125">
        <ele>3508.60009765625</ele>
        <time>2026-08-15T18:44:54.000Z</time>
        <extensions>
          <ns3:TrackPointExtension>
            <ns3:hr>113</ns3:hr>
            <ns3:cad>19</ns3:cad>
          </ns3:TrackPointExtension>
        </extensions>
      </trkpt>
      <trkpt lat="37.98001904971897602081298828125" lon="-107.735249809920787811279296875">
        <ele>3508.199951171875</ele>
        <time>2026-08-15T18:44:56.000Z</time>
        <extensions>
          <ns3:TrackPointExtension>
            <ns3:hr>113</ns3:hr>
            <ns3:cad>19</ns3:cad>
          </ns3:TrackPointExtension>
        </extensions>
      </trkpt>
      <trkpt lat="37.980024330317974090576171875" lon="-107.7352808229625225067138671875">
        <ele>3508</ele>
        <time>2026-08-15T18:45:01.000Z</time>
        <extensions>
          <ns3:TrackPointExtension>
            <ns3:hr>110</ns3:hr>
            <ns3:cad>0</ns3:cad>
          </ns3:TrackPointExtension>
        </extensions>
      </trkpt>
      <trkpt lat="37.98002525232732295989990234375" lon="-107.7352828346192836761474609375">
        <ele>3508</ele>
        <time>2026-08-15T18:45:02.000Z</time>
        <extensions>
          <ns3:TrackPointExtension>
            <ns3:hr>110</ns3:hr>
            <ns3:cad>0</ns3:cad>
          </ns3:TrackPointExtension>
        </extensions>
      </trkpt>
      <trkpt lat="37.98002391122281551361083984375" lon="-107.735284678637981414794921875">
        <ele>3507.800048828125</ele>
        <time>2026-08-15T18:45:05.000Z</time>
        <extensions>
          <ns3:TrackPointExtension>
            <ns3:hr>114</ns3:hr>
            <ns3:cad>0</ns3:cad>
          </ns3:TrackPointExtension>
        </extensions>
      </trkpt>
      <trkpt lat="37.98002391122281551361083984375" lon="-107.735284678637981414794921875">
        <ele>3507.800048828125</ele>
        <time>2026-08-15T18:45:06.000Z</time>
        <extensions>
          <ns3:TrackPointExtension>
            <ns3:hr>119</ns3:hr>
            <ns3:cad>0</ns3:cad>
          </ns3:TrackPointExtension>
        </extensions>
      </trkpt>
      <trkpt lat="37.98002391122281551361083984375" lon="-107.735284678637981414794921875">
        <ele>3508</ele>
        <time>2026-08-15T18:45:09.000Z</time>
        <extensions>
          <ns3:TrackPointExtension>
            <ns3:hr>122</ns3:hr>
            <ns3:cad>0</ns3:cad>
          </ns3:TrackPointExtension>
        </extensions>
      </trkpt>
      <trkpt lat="37.98001703806221485137939453125" lon="-107.73526229895651340484619140625">
        <ele>3508.39990234375</ele>
        <time>2026-08-15T18:45:13.000Z</time>
        <extensions>
          <ns3:TrackPointExtension>
            <ns3:hr>123</ns3:hr>
            <ns3:cad>0</ns3:cad>
          </ns3:TrackPointExtension>
        </extensions>
      </trkpt>
      <trkpt lat="37.9800248332321643829345703125" lon="-107.73525492288172245025634765625">
        <ele>3508.39990234375</ele>
        <time>2026-08-15T18:45:19.000Z</time>
        <extensions>
          <ns3:TrackPointExtension>
            <ns3:hr>124</ns3:hr>
            <ns3:cad>0</ns3:cad>
          </ns3:TrackPointExtension>
        </extensions>
      </trkpt>
      <trkpt lat="37.98000899143517017364501953125" lon="-107.73520479910075664520263671875">
        <ele>3507.800048828125</ele>
        <time>2026-08-15T18:45:24.000Z</time>
        <extensions>
          <ns3:TrackPointExtension>
            <ns3:hr>123</ns3:hr>
            <ns3:cad>0</ns3:cad>
          </ns3:TrackPointExtension>
        </extensions>
      </trkpt>
      <trkpt lat="37.9799896292388439178466796875" lon="-107.7351866103708744049072265625">
        <ele>3507.39990234375</ele>
        <time>2026-08-15T18:45:27.000Z</time>
        <extensions>
          <ns3:TrackPointExtension>
            <ns3:hr>123</ns3:hr>
            <ns3:cad>0</ns3:cad>
          </ns3:TrackPointExtension>
        </extensions>
      </trkpt>
      <trkpt lat="37.979963980615139007568359375" lon="-107.73515182547271251678466796875">
        <ele>3506.60009765625</ele>
        <time>2026-08-15T18:45:31.000Z</time>
        <extensions>
          <ns3:TrackPointExtension>
            <ns3:hr>124</ns3:hr>
            <ns3:cad>0</ns3:cad>
          </ns3:TrackPointExtension>
        </extensions>
      </trkpt>
      <trkpt lat="37.97995786182582378387451171875" lon="-107.73514352738857269287109375">
        <ele>3506.199951171875</ele>
        <time>2026-08-15T18:45:32.000Z</time>
        <extensions>
          <ns3:TrackPointExtension>
            <ns3:hr>124</ns3:hr>
            <ns3:cad>0</ns3:cad>
          </ns3:TrackPointExtension>
        </extensions>
      </trkpt>
      <trkpt lat="37.97993975691497325897216796875" lon="-107.7351128496229648590087890625">
        <ele>3505.39990234375</ele>
        <time>2026-08-15T18:45:35.000Z</time>
        <extensions>
          <ns3:TrackPointExtension>
            <ns3:hr>120</ns3:hr>
            <ns3:cad>0</ns3:cad>
          </ns3:TrackPointExtension>
        </extensions>
      </trkpt>
      <trkpt lat="37.979935817420482635498046875" lon="-107.73510220460593700408935546875">
        <ele>3505</ele>
        <time>2026-08-15T18:45:36.000Z</time>
        <extensions>
          <ns3:TrackPointExtension>
            <ns3:hr>119</ns3:hr>
            <ns3:cad>0</ns3:cad>
          </ns3:TrackPointExtension>
        </extensions>
      </trkpt>
      <trkpt lat="37.9799235798418521881103515625" lon="-107.735082171857357025146484375">
        <ele>3504.60009765625</ele>
        <time>2026-08-15T18:45:38.000Z</time>
        <extensions>
          <ns3:TrackPointExtension>
            <ns3:hr>118</ns3:hr>
            <ns3:cad>0</ns3:cad>
          </ns3:TrackPointExtension>
        </extensions>
      </trkpt>
      <trkpt lat="37.97990522347390651702880859375" lon="-107.73507102392613887786865234375">
        <ele>3504.39990234375</ele>
        <time>2026-08-15T18:45:40.000Z</time>
        <extensions>
          <ns3:TrackPointExtension>
            <ns3:hr>114</ns3:hr>
            <ns3:cad>0</ns3:cad>
          </ns3:TrackPointExtension>
        </extensions>
      </trkpt>
      <trkpt lat="37.9798863641917705535888671875" lon="-107.73505845107138156890869140625">
        <ele>3503.800048828125</ele>
        <time>2026-08-15T18:45:43.000Z</time>
        <extensions>
          <ns3:TrackPointExtension>
            <ns3:hr>111</ns3:hr>
            <ns3:cad>0</ns3:cad>
          </ns3:TrackPointExtension>
        </extensions>
      </trkpt>
      <trkpt lat="37.97987471334636211395263671875" lon="-107.73504721932113170623779296875">
        <ele>3503.199951171875</ele>
        <time>2026-08-15T18:45:45.000Z</time>
        <extensions>
          <ns3:TrackPointExtension>
            <ns3:hr>109</ns3:hr>
            <ns3:cad>0</ns3:cad>
          </ns3:TrackPointExtension>
        </extensions>
      </trkpt>
      <trkpt lat="37.979863397777080535888671875" lon="-107.73502861149609088897705078125">
        <ele>3502.60009765625</ele>
        <time>2026-08-15T18:45:47.000Z</time>
        <extensions>
          <ns3:TrackPointExtension>
            <ns3:hr>108</ns3:hr>
            <ns3:cad>0</ns3:cad>
          </ns3:TrackPointExtension>
        </extensions>
      </trkpt>
      <trkpt lat="37.97984403558075428009033203125" lon="-107.734999358654022216796875">
        <ele>3501.60009765625</ele>
        <time>2026-08-15T18:45:50.000Z</time>
        <extensions>
          <ns3:TrackPointExtension>
            <ns3:hr>108</ns3:hr>
            <ns3:cad>61</ns3:cad>
          </ns3:TrackPointExtension>
        </extensions>
      </trkpt>
      <trkpt lat="37.9798276908695697784423828125" lon="-107.73497245274484157562255859375">
        <ele>3501</ele>
        <time>2026-08-15T18:45:53.000Z</time>
        <extensions>
          <ns3:TrackPointExtension>
            <ns3:hr>107</ns3:hr>
            <ns3:cad>59</ns3:cad>
          </ns3:TrackPointExtension>
        </extensions>
      </trkpt>
      <trkpt lat="37.979795001447200775146484375" lon="-107.73494194261729717254638671875">
        <ele>3500.60009765625</ele>
        <time>2026-08-15T18:45:57.000Z</time>
        <extensions>
          <ns3:TrackPointExtension>
            <ns3:hr>107</ns3:hr>
            <ns3:cad>59</ns3:cad>
          </ns3:TrackPointExtension>
        </extensions>
      </trkpt>
      <trkpt lat="37.97976876609027385711669921875" lon="-107.7349113486707210540771484375">
        <ele>3499.39990234375</ele>
        <time>2026-08-15T18:46:01.000Z</time>
        <extensions>
          <ns3:TrackPointExtension>
            <ns3:hr>108</ns3:hr>
            <ns3:cad>59</ns3:cad>
          </ns3:TrackPointExtension>
        </extensions>
      </trkpt>
      <trkpt lat="37.979742027819156646728515625" lon="-107.7348826825618743896484375">
        <ele>3498.39990234375</ele>
        <time>2026-08-15T18:46:05.000Z</time>
        <extensions>
          <ns3:TrackPointExtension>
            <ns3:hr>108</ns3:hr>
            <ns3:cad>0</ns3:cad>
          </ns3:TrackPointExtension>
        </extensions>
      </trkpt>
      <trkpt lat="37.97970975749194622039794921875" lon="-107.7348637394607067108154296875">
        <ele>3497.60009765625</ele>
        <time>2026-08-15T18:46:09.000Z</time>
        <extensions>
          <ns3:TrackPointExtension>
            <ns3:hr>108</ns3:hr>
            <ns3:cad>0</ns3:cad>
          </ns3:TrackPointExtension>
        </extensions>
      </trkpt>
      <trkpt lat="37.979694418609142303466796875" lon="-107.73485929705202579498291015625">
        <ele>3497.199951171875</ele>
        <time>2026-08-15T18:46:11.000Z</time>
        <extensions>
          <ns3:TrackPointExtension>
            <ns3:hr>108</ns3:hr>
            <ns3:cad>0</ns3:cad>
          </ns3:TrackPointExtension>
        </extensions>
      </trkpt>
      <trkpt lat="37.97967153601348400115966796875" lon="-107.73483616299927234649658203125">
        <ele>3496.39990234375</ele>
        <time>2026-08-15T18:46:15.000Z</time>
        <extensions>
          <ns3:TrackPointExtension>
            <ns3:hr>108</ns3:hr>
            <ns3:cad>0</ns3:cad>
          </ns3:TrackPointExtension>
        </extensions>
      </trkpt>
      <trkpt lat="37.979664914309978485107421875" lon="-107.734831385314464569091796875">
        <ele>3496</ele>
        <time>2026-08-15T18:46:16.000Z</time>
        <extensions>
          <ns3:TrackPointExtension>
            <ns3:hr>108</ns3:hr>
            <ns3:cad>0</ns3:cad>
          </ns3:TrackPointExtension>
        </extensions>
      </trkpt>
      <trkpt lat="37.9796359129250049591064453125" lon="-107.73480414412915706634521484375">
        <ele>3495</ele>
        <time>2026-08-15T18:46:20.000Z</time>
        <extensions>
          <ns3:TrackPointExtension>
            <ns3:hr>107</ns3:hr>
            <ns3:cad>0</ns3:cad>
          </ns3:TrackPointExtension>
        </extensions>
      </trkpt>
      <trkpt lat="37.979626692831516265869140625" lon="-107.73479375056922435760498046875">
        <ele>3494.800048828125</ele>
        <time>2026-08-15T18:46:21.000Z</time>
        <extensions>
          <ns3:TrackPointExtension>
            <ns3:hr>107</ns3:hr>
            <ns3:cad>0</ns3:cad>
          </ns3:TrackPointExtension>
        </extensions>
      </trkpt>
      <trkpt lat="37.97961202450096607208251953125" lon="-107.73476977832615375518798828125">
        <ele>3493.800048828125</ele>
        <time>2026-08-15T18:46:24.000Z</time>
        <extensions>
          <ns3:TrackPointExtension>
            <ns3:hr>107</ns3:hr>
            <ns3:cad>0</ns3:cad>
          </ns3:TrackPointExtension>
        </extensions>
      </trkpt>
      <trkpt lat="37.97960146330296993255615234375" lon="-107.73474915884435176849365234375">
        <ele>3493.39990234375</ele>
        <time>2026-08-15T18:46:26.000Z</time>
        <extensions>
          <ns3:TrackPointExtension>
            <ns3:hr>107</ns3:hr>
            <ns3:cad>0</ns3:cad>
          </ns3:TrackPointExtension>
        </extensions>
      </trkpt>
      <trkpt lat="37.97958369366824626922607421875" lon="-107.7347413636744022369384765625">
        <ele>3492.800048828125</ele>
        <time>2026-08-15T18:46:28.000Z</time>
        <extensions>
          <ns3:TrackPointExtension>
            <ns3:hr>107</ns3:hr>
            <ns3:cad>59</ns3:cad>
          </ns3:TrackPointExtension>
        </extensions>
      </trkpt>
      <trkpt lat="37.97954882495105266571044921875" lon="-107.734726779162883758544921875">
        <ele>3491.60009765625</ele>
        <time>2026-08-15T18:46:32.000Z</time>
        <extensions>
          <ns3:TrackPointExtension>
            <ns3:hr>107</ns3:hr>
            <ns3:cad>59</ns3:cad>
          </ns3:TrackPointExtension>
        </extensions>
      </trkpt>
      <trkpt lat="37.9795390181243419647216796875" lon="-107.73472166620194911956787109375">
        <ele>3491.39990234375</ele>
        <time>2026-08-15T18:46:33.000Z</time>
        <extensions>
          <ns3:TrackPointExtension>
            <ns3:hr>107</ns3:hr>
            <ns3:cad>0</ns3:cad>
          </ns3:TrackPointExtension>
        </extensions>
      </trkpt>
      <trkpt lat="37.979501299560070037841796875" lon="-107.73471663706004619598388671875">
        <ele>3490.39990234375</ele>
        <time>2026-08-15T18:46:37.000Z</time>
        <extensions>
          <ns3:TrackPointExtension>
            <ns3:hr>108</ns3:hr>
            <ns3:cad>0</ns3:cad>
          </ns3:TrackPointExtension>
        </extensions>
      </trkpt>
      <trkpt lat="37.97947925515472888946533203125" lon="-107.73471730761229991912841796875">
        <ele>3489.60009765625</ele>
        <time>2026-08-15T18:46:40.000Z</time>
        <extensions>
          <ns3:TrackPointExtension>
            <ns3:hr>110</ns3:hr>
            <ns3:cad>0</ns3:cad>
          </ns3:TrackPointExtension>
        </extensions>
      </trkpt>
      <trkpt lat="37.97946416772902011871337890625" lon="-107.73472116328775882720947265625">
        <ele>3489.39990234375</ele>
        <time>2026-08-15T18:46:42.000Z</time>
        <extensions>
          <ns3:TrackPointExtension>
            <ns3:hr>112</ns3:hr>
            <ns3:cad>40</ns3:cad>
          </ns3:TrackPointExtension>
        </extensions>
      </trkpt>
      <trkpt lat="37.97943499870598316192626953125" lon="-107.73472971282899379730224609375">
        <ele>3488.39990234375</ele>
        <time>2026-08-15T18:46:46.000Z</time>
        <extensions>
          <ns3:TrackPointExtension>
            <ns3:hr>112</ns3:hr>
            <ns3:cad>41</ns3:cad>
          </ns3:TrackPointExtension>
        </extensions>
      </trkpt>
      <trkpt lat="37.97942091710865497589111328125" lon="-107.7347433753311634063720703125">
        <ele>3487.800048828125</ele>
        <time>2026-08-15T18:46:48.000Z</time>
        <extensions>
          <ns3:TrackPointExtension>
            <ns3:hr>111</ns3:hr>
            <ns3:cad>0</ns3:cad>
          </ns3:TrackPointExtension>
        </extensions>
      </trkpt>
      <trkpt lat="37.979412116110324859619140625" lon="-107.734789140522480010986328125">
        <ele>3487.199951171875</ele>
        <time>2026-08-15T18:46:51.000Z</time>
        <extensions>
          <ns3:TrackPointExtension>
            <ns3:hr>110</ns3:hr>
            <ns3:cad>0</ns3:cad>
          </ns3:TrackPointExtension>
        </extensions>
      </trkpt>
      <trkpt lat="37.9794092662632465362548828125" lon="-107.73483985103666782379150390625">
        <ele>3486</ele>
        <time>2026-08-15T18:46:55.000Z</time>
        <extensions>
          <ns3:TrackPointExtension>
            <ns3:hr>112</ns3:hr>
            <ns3:cad>0</ns3:cad>
          </ns3:TrackPointExtension>
        </extensions>
      </trkpt>
      <trkpt lat="37.979414127767086029052734375" lon="-107.73484856821596622467041015625">
        <ele>3485.800048828125</ele>
        <time>2026-08-15T18:46:56.000Z</time>
        <extensions>
          <ns3:TrackPointExtension>
            <ns3:hr>113</ns3:hr>
            <ns3:cad>0</ns3:cad>
          </ns3:TrackPointExtension>
        </extensions>
      </trkpt>
      <trkpt lat="37.97941370867192745208740234375" lon="-107.734870947897434234619140625">
        <ele>3485.39990234375</ele>
        <time>2026-08-15T18:46:58.000Z</time>
        <extensions>
          <ns3:TrackPointExtension>
            <ns3:hr>113</ns3:hr>
            <ns3:cad>43</ns3:cad>
          </ns3:TrackPointExtension>
        </extensions>
      </trkpt>
      <trkpt lat="37.97941622324287891387939453125" lon="-107.73490481078624725341796875">
        <ele>3485</ele>
        <time>2026-08-15T18:47:00.000Z</time>
        <extensions>
          <ns3:TrackPointExtension>
            <ns3:hr>113</ns3:hr>
            <ns3:cad>43</ns3:cad>
          </ns3:TrackPointExtension>
        </extensions>
      </trkpt>
      <trkpt lat="37.9794158041477203369140625" lon="-107.73491813801229000091552734375">
        <ele>3484.800048828125</ele>
        <time>2026-08-15T18:47:02.000Z</time>
        <extensions>
          <ns3:TrackPointExtension>
            <ns3:hr>113</ns3:hr>
            <ns3:cad>0</ns3:cad>
          </ns3:TrackPointExtension>
        </extensions>
      </trkpt>
      <trkpt lat="37.9794184863567352294921875" lon="-107.73495099507272243499755859375">
        <ele>3484</ele>
        <time>2026-08-15T18:47:08.000Z</time>
        <extensions>
          <ns3:TrackPointExtension>
            <ns3:hr>111</ns3:hr>
            <ns3:cad>0</ns3:cad>
          </ns3:TrackPointExtension>
        </extensions>
      </trkpt>
      <trkpt lat="37.9794184863567352294921875" lon="-107.73495099507272243499755859375">
        <ele>3483.800048828125</ele>
        <time>2026-08-15T18:47:09.000Z</time>
        <extensions>
          <ns3:TrackPointExtension>
            <ns3:hr>111</ns3:hr>
            <ns3:cad>0</ns3:cad>
          </ns3:TrackPointExtension>
        </extensions>
      </trkpt>
      <trkpt lat="37.97942343167960643768310546875" lon="-107.734973542392253875732421875">
        <ele>3483</ele>
        <time>2026-08-15T18:47:13.000Z</time>
        <extensions>
          <ns3:TrackPointExtension>
            <ns3:hr>112</ns3:hr>
            <ns3:cad>0</ns3:cad>
          </ns3:TrackPointExtension>
        </extensions>
      </trkpt>
      <trkpt lat="37.979422844946384429931640625" lon="-107.73498670198023319244384765625">
        <ele>3482.800048828125</ele>
        <time>2026-08-15T18:47:15.000Z</time>
        <extensions>
          <ns3:TrackPointExtension>
            <ns3:hr>113</ns3:hr>
            <ns3:cad>0</ns3:cad>
          </ns3:TrackPointExtension>
        </extensions>
      </trkpt>
      <trkpt lat="37.9794246889650821685791015625" lon="-107.735027857124805450439453125">
        <ele>3482.199951171875</ele>
        <time>2026-08-15T18:47:20.000Z</time>
        <extensions>
          <ns3:TrackPointExtension>
            <ns3:hr>114</ns3:hr>
            <ns3:cad>0</ns3:cad>
          </ns3:TrackPointExtension>
        </extensions>
      </trkpt>
      <trkpt lat="37.97942292876541614532470703125" lon="-107.73504923097789287567138671875">
        <ele>3481.60009765625</ele>
        <time>2026-08-15T18:47:22.000Z</time>
        <extensions>
          <ns3:TrackPointExtension>
            <ns3:hr>114</ns3:hr>
            <ns3:cad>0</ns3:cad>
          </ns3:TrackPointExtension>
        </extensions>
      </trkpt>
      <trkpt lat="37.979421503841876983642578125" lon="-107.73507689125835895538330078125">
        <ele>3480.800048828125</ele>
        <time>2026-08-15T18:47:25.000Z</time>
        <extensions>
          <ns3:TrackPointExtension>
            <ns3:hr>115</ns3:hr>
            <ns3:cad>0</ns3:cad>
          </ns3:TrackPointExtension>
        </extensions>
      </trkpt>
      <trkpt lat="37.9794226773083209991455078125" lon="-107.73508694954216480255126953125">
        <ele>3480.39990234375</ele>
        <time>2026-08-15T18:47:26.000Z</time>
        <extensions>
          <ns3:TrackPointExtension>
            <ns3:hr>114</ns3:hr>
            <ns3:cad>0</ns3:cad>
          </ns3:TrackPointExtension>
        </extensions>
      </trkpt>
      <trkpt lat="37.979432903230190277099609375" lon="-107.735123746097087860107421875">
        <ele>3479.60009765625</ele>
        <time>2026-08-15T18:47:30.000Z</time>
        <extensions>
          <ns3:TrackPointExtension>
            <ns3:hr>115</ns3:hr>
            <ns3:cad>0</ns3:cad>
          </ns3:TrackPointExtension>
        </extensions>
      </trkpt>
      <trkpt lat="37.9794367589056491851806640625" lon="-107.73513422347605228424072265625">
        <ele>3479.39990234375</ele>
        <time>2026-08-15T18:47:31.000Z</time>
        <extensions>
          <ns3:TrackPointExtension>
            <ns3:hr>115</ns3:hr>
            <ns3:cad>0</ns3:cad>
          </ns3:TrackPointExtension>
        </extensions>
      </trkpt>
      <trkpt lat="37.97945830039680004119873046875" lon="-107.7351996861398220062255859375">
        <ele>3478.39990234375</ele>
        <time>2026-08-15T18:47:36.000Z</time>
        <extensions>
          <ns3:TrackPointExtension>
            <ns3:hr>112</ns3:hr>
            <ns3:cad>0</ns3:cad>
          </ns3:TrackPointExtension>
        </extensions>
      </trkpt>
      <trkpt lat="37.97947389073669910430908203125" lon="-107.73525626398622989654541015625">
        <ele>3477.800048828125</ele>
        <time>2026-08-15T18:47:41.000Z</time>
        <extensions>
          <ns3:TrackPointExtension>
            <ns3:hr>114</ns3:hr>
            <ns3:cad>0</ns3:cad>
          </ns3:TrackPointExtension>
        </extensions>
      </trkpt>
      <trkpt lat="37.979479841887950897216796875" lon="-107.7352975867688655853271484375">
        <ele>3477.199951171875</ele>
        <time>2026-08-15T18:47:44.000Z</time>
        <extensions>
          <ns3:TrackPointExtension>
            <ns3:hr>115</ns3:hr>
            <ns3:cad>20</ns3:cad>
          </ns3:TrackPointExtension>
        </extensions>
      </trkpt>
      <trkpt lat="37.97948964871466159820556640625" lon="-107.73533723317086696624755859375">
        <ele>3476</ele>
        <time>2026-08-15T18:47:47.000Z</time>
        <extensions>
          <ns3:TrackPointExtension>
            <ns3:hr>115</ns3:hr>
            <ns3:cad>20</ns3:cad>
          </ns3:TrackPointExtension>
        </extensions>
      </trkpt>
      <trkpt lat="37.97950222156941890716552734375" lon="-107.73536078631877899169921875">
        <ele>3475.60009765625</ele>
        <time>2026-08-15T18:47:49.000Z</time>
        <extensions>
          <ns3:TrackPointExtension>
            <ns3:hr>118</ns3:hr>
            <ns3:cad>20</ns3:cad>
          </ns3:TrackPointExtension>
        </extensions>
      </trkpt>
      <trkpt lat="37.97951395623385906219482421875" lon="-107.73539590649306774139404296875">
        <ele>3475</ele>
        <time>2026-08-15T18:47:52.000Z</time>
        <extensions>
          <ns3:TrackPointExtension>
            <ns3:hr>118</ns3:hr>
            <ns3:cad>61</ns3:cad>
          </ns3:TrackPointExtension>
        </extensions>
      </trkpt>
      <trkpt lat="37.97950909473001956939697265625" lon="-107.73540906608104705810546875">
        <ele>3474.800048828125</ele>
        <time>2026-08-15T18:47:55.000Z</time>
        <extensions>
          <ns3:TrackPointExtension>
            <ns3:hr>119</ns3:hr>
            <ns3:cad>61</ns3:cad>
          </ns3:TrackPointExtension>
        </extensions>
      </trkpt>
      <trkpt lat="37.97950155101716518402099609375" lon="-107.73539833724498748779296875">
        <ele>3474.60009765625</ele>
        <time>2026-08-15T18:47:56.000Z</time>
        <extensions>
          <ns3:TrackPointExtension>
            <ns3:hr>119</ns3:hr>
            <ns3:cad>0</ns3:cad>
          </ns3:TrackPointExtension>
        </extensions>
      </trkpt>
      <trkpt lat="37.97948679886758327484130859375" lon="-107.7353842556476593017578125">
        <ele>3474</ele>
        <time>2026-08-15T18:47:59.000Z</time>
        <extensions>
          <ns3:TrackPointExtension>
            <ns3:hr>118</ns3:hr>
            <ns3:cad>0</ns3:cad>
          </ns3:TrackPointExtension>
        </extensions>
      </trkpt>
      <trkpt lat="37.9794766567647457122802734375" lon="-107.7353814058005809783935546875">
        <ele>3473.39990234375</ele>
        <time>2026-08-15T18:48:01.000Z</time>
        <extensions>
          <ns3:TrackPointExtension>
            <ns3:hr>118</ns3:hr>
            <ns3:cad>0</ns3:cad>
          </ns3:TrackPointExtension>
        </extensions>
      </trkpt>
      <trkpt lat="37.97945712693035602569580078125" lon="-107.73536271415650844573974609375">
        <ele>3472.800048828125</ele>
        <time>2026-08-15T18:48:04.000Z</time>
        <extensions>
          <ns3:TrackPointExtension>
            <ns3:hr>116</ns3:hr>
            <ns3:cad>43</ns3:cad>
          </ns3:TrackPointExtension>
        </extensions>
      </trkpt>
      <trkpt lat="37.97942292876541614532470703125" lon="-107.73534460924565792083740234375">
        <ele>3472</ele>
        <time>2026-08-15T18:48:08.000Z</time>
        <extensions>
          <ns3:TrackPointExtension>
            <ns3:hr>114</ns3:hr>
            <ns3:cad>0</ns3:cad>
          </ns3:TrackPointExtension>
        </extensions>
      </trkpt>
      <trkpt lat="37.9794142954051494598388671875" lon="-107.73533823899924755096435546875">
        <ele>3471.800048828125</ele>
        <time>2026-08-15T18:48:09.000Z</time>
        <extensions>
          <ns3:TrackPointExtension>
            <ns3:hr>113</ns3:hr>
            <ns3:cad>0</ns3:cad>
          </ns3:TrackPointExtension>
        </extensions>
      </trkpt>
      <trkpt lat="37.9793862998485565185546875" lon="-107.73530169390141963958740234375">
        <ele>3470.60009765625</ele>
        <time>2026-08-15T18:48:13.000Z</time>
        <extensions>
          <ns3:TrackPointExtension>
            <ns3:hr>112</ns3:hr>
            <ns3:cad>0</ns3:cad>
          </ns3:TrackPointExtension>
        </extensions>
      </trkpt>
      <trkpt lat="37.97936819493770599365234375" lon="-107.7352707646787166595458984375">
        <ele>3469.800048828125</ele>
        <time>2026-08-15T18:48:16.000Z</time>
        <extensions>
          <ns3:TrackPointExtension>
            <ns3:hr>112</ns3:hr>
            <ns3:cad>0</ns3:cad>
          </ns3:TrackPointExtension>
        </extensions>
      </trkpt>
      <trkpt lat="37.979354448616504669189453125" lon="-107.73526556789875030517578125">
        <ele>3469.800048828125</ele>
        <time>2026-08-15T18:48:18.000Z</time>
        <extensions>
          <ns3:TrackPointExtension>
            <ns3:hr>113</ns3:hr>
            <ns3:cad>0</ns3:cad>
          </ns3:TrackPointExtension>
        </extensions>
      </trkpt>
      <trkpt lat="37.97932670451700687408447265625" lon="-107.7352506481111049652099609375">
        <ele>3469.60009765625</ele>
        <time>2026-08-15T18:48:21.000Z</time>
        <extensions>
          <ns3:TrackPointExtension>
            <ns3:hr>114</ns3:hr>
            <ns3:cad>0</ns3:cad>
          </ns3:TrackPointExtension>
        </extensions>
      </trkpt>
      <trkpt lat="37.97931983135640621185302734375" lon="-107.73524670861661434173583984375">
        <ele>3469.39990234375</ele>
        <time>2026-08-15T18:48:22.000Z</time>
        <extensions>
          <ns3:TrackPointExtension>
            <ns3:hr>115</ns3:hr>
            <ns3:cad>0</ns3:cad>
          </ns3:TrackPointExtension>
        </extensions>
      </trkpt>
      <trkpt lat="37.97927490435540676116943359375" lon="-107.7352152764797210693359375">
        <ele>3468.199951171875</ele>
        <time>2026-08-15T18:48:27.000Z</time>
        <extensions>
          <ns3:TrackPointExtension>
            <ns3:hr>117</ns3:hr>
            <ns3:cad>76</ns3:cad>
          </ns3:TrackPointExtension>
        </extensions>
      </trkpt>
      <trkpt lat="37.97925822436809539794921875" lon="-107.73519909940659999847412109375">
        <ele>3467.60009765625</ele>
        <time>2026-08-15T18:48:29.000Z</time>
        <extensions>
          <ns3:TrackPointExtension>
            <ns3:hr>116</ns3:hr>
            <ns3:cad>77</ns3:cad>
          </ns3:TrackPointExtension>
        </extensions>
      </trkpt>
      <trkpt lat="37.9792255349457263946533203125" lon="-107.73518644273281097412109375">
        <ele>3467.199951171875</ele>
        <time>2026-08-15T18:48:34.000Z</time>
        <extensions>
          <ns3:TrackPointExtension>
            <ns3:hr>118</ns3:hr>
            <ns3:cad>76</ns3:cad>
          </ns3:TrackPointExtension>
        </extensions>
      </trkpt>
      <trkpt lat="37.97921933233737945556640625" lon="-107.73518904112279415130615234375">
        <ele>3467</ele>
        <time>2026-08-15T18:48:36.000Z</time>
        <extensions>
          <ns3:TrackPointExtension>
            <ns3:hr>119</ns3:hr>
            <ns3:cad>0</ns3:cad>
          </ns3:TrackPointExtension>
        </extensions>
      </trkpt>
      <trkpt lat="37.97919812612235546112060546875" lon="-107.7351913042366504669189453125">
        <ele>3466.39990234375</ele>
        <time>2026-08-15T18:48:39.000Z</time>
        <extensions>
          <ns3:TrackPointExtension>
            <ns3:hr>119</ns3:hr>
            <ns3:cad>0</ns3:cad>
          </ns3:TrackPointExtension>
        </extensions>
      </trkpt>
      <trkpt lat="37.979188822209835052490234375" lon="-107.73519474081695079803466796875">
        <ele>3466</ele>
        <time>2026-08-15T18:48:40.000Z</time>
        <extensions>
          <ns3:TrackPointExtension>
            <ns3:hr>119</ns3:hr>
            <ns3:cad>0</ns3:cad>
          </ns3:TrackPointExtension>
        </extensions>
      </trkpt>
      <trkpt lat="37.97917147167026996612548828125" lon="-107.73518778383731842041015625">
        <ele>3464.800048828125</ele>
        <time>2026-08-15T18:48:43.000Z</time>
        <extensions>
          <ns3:TrackPointExtension>
            <ns3:hr>118</ns3:hr>
            <ns3:cad>0</ns3:cad>
          </ns3:TrackPointExtension>
        </extensions>
      </trkpt>
      <trkpt lat="37.9791611619293689727783203125" lon="-107.73518635891377925872802734375">
        <ele>3464.800048828125</ele>
        <time>2026-08-15T18:48:44.000Z</time>
        <extensions>
          <ns3:TrackPointExtension>
            <ns3:hr>118</ns3:hr>
            <ns3:cad>0</ns3:cad>
          </ns3:TrackPointExtension>
        </extensions>
      </trkpt>
      <trkpt lat="37.97913408838212490081787109375" lon="-107.73518015630543231964111328125">
        <ele>3464.199951171875</ele>
        <time>2026-08-15T18:48:48.000Z</time>
        <extensions>
          <ns3:TrackPointExtension>
            <ns3:hr>117</ns3:hr>
            <ns3:cad>0</ns3:cad>
          </ns3:TrackPointExtension>
        </extensions>
      </trkpt>
      <trkpt lat="37.97912637703120708465576171875" lon="-107.73517412133514881134033203125">
        <ele>3463.800048828125</ele>
        <time>2026-08-15T18:48:49.000Z</time>
        <extensions>
          <ns3:TrackPointExtension>
            <ns3:hr>117</ns3:hr>
            <ns3:cad>0</ns3:cad>
          </ns3:TrackPointExtension>
        </extensions>
      </trkpt>
      <trkpt lat="37.97911967150866985321044921875" lon="-107.7351617999374866485595703125">
        <ele>3463</ele>
        <time>2026-08-15T18:48:51.000Z</time>
        <extensions>
          <ns3:TrackPointExtension>
            <ns3:hr>117</ns3:hr>
            <ns3:cad>0</ns3:cad>
          </ns3:TrackPointExtension>
        </extensions>
      </trkpt>
      <trkpt lat="37.979113720357418060302734375" lon="-107.73515752516686916351318359375">
        <ele>3462.800048828125</ele>
        <time>2026-08-15T18:48:52.000Z</time>
        <extensions>
          <ns3:TrackPointExtension>
            <ns3:hr>117</ns3:hr>
            <ns3:cad>0</ns3:cad>
          </ns3:TrackPointExtension>
        </extensions>
      </trkpt>
      <trkpt lat="37.97910508699715137481689453125" lon="-107.73514981381595134735107421875">
        <ele>3462.39990234375</ele>
        <time>2026-08-15T18:48:53.000Z</time>
        <extensions>
          <ns3:TrackPointExtension>
            <ns3:hr>117</ns3:hr>
            <ns3:cad>0</ns3:cad>
          </ns3:TrackPointExtension>
        </extensions>
      </trkpt>
      <trkpt lat="37.979082204401493072509765625" lon="-107.73513036780059337615966796875">
        <ele>3461.39990234375</ele>
        <time>2026-08-15T18:48:56.000Z</time>
        <extensions>
          <ns3:TrackPointExtension>
            <ns3:hr>117</ns3:hr>
            <ns3:cad>0</ns3:cad>
          </ns3:TrackPointExtension>
        </extensions>
      </trkpt>
      <trkpt lat="37.97905865125358104705810546875" lon="-107.73511469364166259765625">
        <ele>3460.800048828125</ele>
        <time>2026-08-15T18:48:59.000Z</time>
        <extensions>
          <ns3:TrackPointExtension>
            <ns3:hr>118</ns3:hr>
            <ns3:cad>57</ns3:cad>
          </ns3:TrackPointExtension>
        </extensions>
      </trkpt>
      <trkpt lat="37.97903317026793956756591796875" lon="-107.7351007796823978424072265625">
        <ele>3460.39990234375</ele>
        <time>2026-08-15T18:49:04.000Z</time>
        <extensions>
          <ns3:TrackPointExtension>
            <ns3:hr>117</ns3:hr>
            <ns3:cad>54</ns3:cad>
          </ns3:TrackPointExtension>
        </extensions>
      </trkpt>
      <trkpt lat="37.9790242016315460205078125" lon="-107.73508854210376739501953125">
        <ele>3459.800048828125</ele>
        <time>2026-08-15T18:49:06.000Z</time>
        <extensions>
          <ns3:TrackPointExtension>
            <ns3:hr>116</ns3:hr>
            <ns3:cad>54</ns3:cad>
          </ns3:TrackPointExtension>
        </extensions>
      </trkpt>
      <trkpt lat="37.979013808071613311767578125" lon="-107.73507437668740749359130859375">
        <ele>3459</ele>
        <time>2026-08-15T18:49:08.000Z</time>
        <extensions>
          <ns3:TrackPointExtension>
            <ns3:hr>116</ns3:hr>
            <ns3:cad>0</ns3:cad>
          </ns3:TrackPointExtension>
        </extensions>
      </trkpt>
      <trkpt lat="37.978993020951747894287109375" lon="-107.7350551821291446685791015625">
        <ele>3458.39990234375</ele>
        <time>2026-08-15T18:49:11.000Z</time>
        <extensions>
          <ns3:TrackPointExtension>
            <ns3:hr>116</ns3:hr>
            <ns3:cad>0</ns3:cad>
          </ns3:TrackPointExtension>
        </extensions>
      </trkpt>
      <trkpt lat="37.97897852025926113128662109375" lon="-107.73503959178924560546875">
        <ele>3458</ele>
        <time>2026-08-15T18:49:13.000Z</time>
        <extensions>
          <ns3:TrackPointExtension>
            <ns3:hr>115</ns3:hr>
            <ns3:cad>0</ns3:cad>
          </ns3:TrackPointExtension>
        </extensions>
      </trkpt>
      <trkpt lat="37.97896661795675754547119140625" lon="-107.73500665090978145599365234375">
        <ele>3457.60009765625</ele>
        <time>2026-08-15T18:49:16.000Z</time>
        <extensions>
          <ns3:TrackPointExtension>
            <ns3:hr>114</ns3:hr>
            <ns3:cad>0</ns3:cad>
          </ns3:TrackPointExtension>
        </extensions>
      </trkpt>
      <trkpt lat="37.9789506085216999053955078125" lon="-107.7349834330379962921142578125">
        <ele>3457.199951171875</ele>
        <time>2026-08-15T18:49:22.000Z</time>
        <extensions>
          <ns3:TrackPointExtension>
            <ns3:hr>113</ns3:hr>
            <ns3:cad>0</ns3:cad>
          </ns3:TrackPointExtension>
        </extensions>
      </trkpt>
      <trkpt lat="37.9789506085216999053955078125" lon="-107.7349834330379962921142578125">
        <ele>3457.199951171875</ele>
        <time>2026-08-15T18:49:23.000Z</time>
        <extensions>
          <ns3:TrackPointExtension>
            <ns3:hr>113</ns3:hr>
            <ns3:cad>0</ns3:cad>
          </ns3:TrackPointExtension>
        </extensions>
      </trkpt>
      <trkpt lat="37.978934347629547119140625" lon="-107.73498083464801311492919921875">
        <ele>3457</ele>
        <time>2026-08-15T18:49:28.000Z</time>
        <extensions>
          <ns3:TrackPointExtension>
            <ns3:hr>112</ns3:hr>
            <ns3:cad>0</ns3:cad>
          </ns3:TrackPointExtension>
        </extensions>
      </trkpt>
      <trkpt lat="37.97893275506794452667236328125" lon="-107.73498100228607654571533203125">
        <ele>3456.800048828125</ele>
        <time>2026-08-15T18:49:29.000Z</time>
        <extensions>
          <ns3:TrackPointExtension>
            <ns3:hr>113</ns3:hr>
            <ns3:cad>0</ns3:cad>
          </ns3:TrackPointExtension>
        </extensions>
      </trkpt>
      <trkpt lat="37.97892093658447265625" lon="-107.734970860183238983154296875">
        <ele>3456</ele>
        <time>2026-08-15T18:49:32.000Z</time>
        <extensions>
          <ns3:TrackPointExtension>
            <ns3:hr>114</ns3:hr>
            <ns3:cad>0</ns3:cad>
          </ns3:TrackPointExtension>
        </extensions>
      </trkpt>
      <trkpt lat="37.978918254375457763671875" lon="-107.73496306501328945159912109375">
        <ele>3455.800048828125</ele>
        <time>2026-08-15T18:49:33.000Z</time>
        <extensions>
          <ns3:TrackPointExtension>
            <ns3:hr>114</ns3:hr>
            <ns3:cad>0</ns3:cad>
          </ns3:TrackPointExtension>
        </extensions>
      </trkpt>
      <trkpt lat="37.97890417277812957763671875" lon="-107.7349217422306537628173828125">
        <ele>3454.60009765625</ele>
        <time>2026-08-15T18:49:37.000Z</time>
        <extensions>
          <ns3:TrackPointExtension>
            <ns3:hr>114</ns3:hr>
            <ns3:cad>0</ns3:cad>
          </ns3:TrackPointExtension>
        </extensions>
      </trkpt>
      <trkpt lat="37.97889738343656063079833984375" lon="-107.73490053601562976837158203125">
        <ele>3454.39990234375</ele>
        <time>2026-08-15T18:49:39.000Z</time>
        <extensions>
          <ns3:TrackPointExtension>
            <ns3:hr>113</ns3:hr>
            <ns3:cad>0</ns3:cad>
          </ns3:TrackPointExtension>
        </extensions>
      </trkpt>
      <trkpt lat="37.97888942062854766845703125" lon="-107.73482727818191051483154296875">
        <ele>3453.800048828125</ele>
        <time>2026-08-15T18:49:45.000Z</time>
        <extensions>
          <ns3:TrackPointExtension>
            <ns3:hr>111</ns3:hr>
            <ns3:cad>0</ns3:cad>
          </ns3:TrackPointExtension>
        </extensions>
      </trkpt>
      <trkpt lat="37.97888749279081821441650390625" lon="-107.73482174612581729888916015625">
        <ele>3453.800048828125</ele>
        <time>2026-08-15T18:49:46.000Z</time>
        <extensions>
          <ns3:TrackPointExtension>
            <ns3:hr>112</ns3:hr>
            <ns3:cad>0</ns3:cad>
          </ns3:TrackPointExtension>
        </extensions>
      </trkpt>
      <trkpt lat="37.978883720934391021728515625" lon="-107.73479760624468326568603515625">
        <ele>3453.39990234375</ele>
        <time>2026-08-15T18:49:48.000Z</time>
        <extensions>
          <ns3:TrackPointExtension>
            <ns3:hr>114</ns3:hr>
            <ns3:cad>0</ns3:cad>
          </ns3:TrackPointExtension>
        </extensions>
      </trkpt>
      <trkpt lat="37.978884391486644744873046875" lon="-107.734769694507122039794921875">
        <ele>3453.39990234375</ele>
        <time>2026-08-15T18:49:50.000Z</time>
        <extensions>
          <ns3:TrackPointExtension>
            <ns3:hr>115</ns3:hr>
            <ns3:cad>0</ns3:cad>
          </ns3:TrackPointExtension>
        </extensions>
      </trkpt>
      <trkpt lat="37.97887810505926609039306640625" lon="-107.73474396206438541412353515625">
        <ele>3453.199951171875</ele>
        <time>2026-08-15T18:49:53.000Z</time>
        <extensions>
          <ns3:TrackPointExtension>
            <ns3:hr>115</ns3:hr>
            <ns3:cad>0</ns3:cad>
          </ns3:TrackPointExtension>
        </extensions>
      </trkpt>
      <trkpt lat="37.97887743450701236724853515625" lon="-107.7347309701144695281982421875">
        <ele>3453.39990234375</ele>
        <time>2026-08-15T18:49:56.000Z</time>
        <extensions>
          <ns3:TrackPointExtension>
            <ns3:hr>116</ns3:hr>
            <ns3:cad>50</ns3:cad>
          </ns3:TrackPointExtension>
        </extensions>
      </trkpt>
      <trkpt lat="37.97887458465993404388427734375" lon="-107.73471797816455364227294921875">
        <ele>3453</ele>
        <time>2026-08-15T18:49:58.000Z</time>
        <extensions>
          <ns3:TrackPointExtension>
            <ns3:hr>119</ns3:hr>
            <ns3:cad>0</ns3:cad>
          </ns3:TrackPointExtension>
        </extensions>
      </trkpt>
      <trkpt lat="37.9788815416395664215087890625" lon="-107.734697945415973663330078125">
        <ele>3452.199951171875</ele>
        <time>2026-08-15T18:50:01.000Z</time>
        <extensions>
          <ns3:TrackPointExtension>
            <ns3:hr>120</ns3:hr>
            <ns3:cad>0</ns3:cad>
          </ns3:TrackPointExtension>
        </extensions>
      </trkpt>
      <trkpt lat="37.978879697620868682861328125" lon="-107.73469517938792705535888671875">
        <ele>3452.199951171875</ele>
        <time>2026-08-15T18:50:02.000Z</time>
        <extensions>
          <ns3:TrackPointExtension>
            <ns3:hr>120</ns3:hr>
            <ns3:cad>0</ns3:cad>
          </ns3:TrackPointExtension>
        </extensions>
      </trkpt>
      <trkpt lat="37.97889084555208683013916015625" lon="-107.73465075530111789703369140625">
        <ele>3453.39990234375</ele>
        <time>2026-08-15T18:50:06.000Z</time>
        <extensions>
          <ns3:TrackPointExtension>
            <ns3:hr>118</ns3:hr>
            <ns3:cad>0</ns3:cad>
          </ns3:TrackPointExtension>
        </extensions>
      </trkpt>
      <trkpt lat="37.97889688052237033843994140625" lon="-107.73463348858058452606201171875">
        <ele>3453.39990234375</ele>
        <time>2026-08-15T18:50:08.000Z</time>
        <extensions>
          <ns3:TrackPointExtension>
            <ns3:hr>117</ns3:hr>
            <ns3:cad>0</ns3:cad>
          </ns3:TrackPointExtension>
        </extensions>
      </trkpt>
      <trkpt lat="37.9789093695580959320068359375" lon="-107.7345861308276653289794921875">
        <ele>3453.60009765625</ele>
        <time>2026-08-15T18:50:13.000Z</time>
        <extensions>
          <ns3:TrackPointExtension>
            <ns3:hr>114</ns3:hr>
            <ns3:cad>0</ns3:cad>
          </ns3:TrackPointExtension>
        </extensions>
      </trkpt>
      <trkpt lat="37.97892286442220211029052734375" lon="-107.73452393710613250732421875">
        <ele>3453.199951171875</ele>
        <time>2026-08-15T18:50:18.000Z</time>
        <extensions>
          <ns3:TrackPointExtension>
            <ns3:hr>111</ns3:hr>
            <ns3:cad>0</ns3:cad>
          </ns3:TrackPointExtension>
        </extensions>
      </trkpt>
      <trkpt lat="37.97892370261251926422119140625" lon="-107.73451052606105804443359375">
        <ele>3453</ele>
        <time>2026-08-15T18:50:19.000Z</time>
        <extensions>
          <ns3:TrackPointExtension>
            <ns3:hr>109</ns3:hr>
            <ns3:cad>0</ns3:cad>
          </ns3:TrackPointExtension>
        </extensions>
      </trkpt>
      <trkpt lat="37.9789301566779613494873046875" lon="-107.73446082137525081634521484375">
        <ele>3452.199951171875</ele>
        <time>2026-08-15T18:50:23.000Z</time>
        <extensions>
          <ns3:TrackPointExtension>
            <ns3:hr>106</ns3:hr>
            <ns3:cad>0</ns3:cad>
          </ns3:TrackPointExtension>
        </extensions>
      </trkpt>
      <trkpt lat="37.97894172370433807373046875" lon="-107.73441589437425136566162109375">
        <ele>3451.39990234375</ele>
        <time>2026-08-15T18:50:28.000Z</time>
        <extensions>
          <ns3:TrackPointExtension>
            <ns3:hr>105</ns3:hr>
            <ns3:cad>70</ns3:cad>
          </ns3:TrackPointExtension>
        </extensions>
      </trkpt>
      <trkpt lat="37.97894951887428760528564453125" lon="-107.73440550081431865692138671875">
        <ele>3451</ele>
        <time>2026-08-15T18:50:29.000Z</time>
        <extensions>
          <ns3:TrackPointExtension>
            <ns3:hr>104</ns3:hr>
            <ns3:cad>70</ns3:cad>
          </ns3:TrackPointExtension>
        </extensions>
      </trkpt>
      <trkpt lat="37.97898472286760807037353515625" lon="-107.73433593101799488067626953125">
        <ele>3450.199951171875</ele>
        <time>2026-08-15T18:50:35.000Z</time>
        <extensions>
          <ns3:TrackPointExtension>
            <ns3:hr>107</ns3:hr>
            <ns3:cad>0</ns3:cad>
          </ns3:TrackPointExtension>
        </extensions>
      </trkpt>
      <trkpt lat="37.9789874888956546783447265625" lon="-107.7343262918293476104736328125">
        <ele>3449.800048828125</ele>
        <time>2026-08-15T18:50:36.000Z</time>
        <extensions>
          <ns3:TrackPointExtension>
            <ns3:hr>107</ns3:hr>
            <ns3:cad>0</ns3:cad>
          </ns3:TrackPointExtension>
        </extensions>
      </trkpt>
      <trkpt lat="37.979009114205837249755859375" lon="-107.73426904343068599700927734375">
        <ele>3448.800048828125</ele>
        <time>2026-08-15T18:50:41.000Z</time>
        <extensions>
          <ns3:TrackPointExtension>
            <ns3:hr>108</ns3:hr>
            <ns3:cad>58</ns3:cad>
          </ns3:TrackPointExtension>
        </extensions>
      </trkpt>
      <trkpt lat="37.9790136404335498809814453125" lon="-107.7342577278614044189453125">
        <ele>3448.60009765625</ele>
        <time>2026-08-15T18:50:42.000Z</time>
        <extensions>
          <ns3:TrackPointExtension>
            <ns3:hr>109</ns3:hr>
            <ns3:cad>58</ns3:cad>
          </ns3:TrackPointExtension>
        </extensions>
      </trkpt>
      <trkpt lat="37.97902780584990978240966796875" lon="-107.7342277206480503082275390625">
        <ele>3447.800048828125</ele>
        <time>2026-08-15T18:50:45.000Z</time>
        <extensions>
          <ns3:TrackPointExtension>
            <ns3:hr>110</ns3:hr>
            <ns3:cad>58</ns3:cad>
          </ns3:TrackPointExtension>
        </extensions>
      </trkpt>
      <trkpt lat="37.97904272563755512237548828125" lon="-107.7341985516250133514404296875">
        <ele>3447.39990234375</ele>
        <time>2026-08-15T18:50:48.000Z</time>
        <extensions>
          <ns3:TrackPointExtension>
            <ns3:hr>110</ns3:hr>
            <ns3:cad>58</ns3:cad>
          </ns3:TrackPointExtension>
        </extensions>
      </trkpt>
      <trkpt lat="37.97906217165291309356689453125" lon="-107.73415236733853816986083984375">
        <ele>3446.60009765625</ele>
        <time>2026-08-15T18:50:53.000Z</time>
        <extensions>
          <ns3:TrackPointExtension>
            <ns3:hr>108</ns3:hr>
            <ns3:cad>0</ns3:cad>
          </ns3:TrackPointExtension>
        </extensions>
      </trkpt>
      <trkpt lat="37.97907985746860504150390625" lon="-107.73410257883369922637939453125">
        <ele>3445.60009765625</ele>
        <time>2026-08-15T18:50:57.000Z</time>
        <extensions>
          <ns3:TrackPointExtension>
            <ns3:hr>107</ns3:hr>
            <ns3:cad>0</ns3:cad>
          </ns3:TrackPointExtension>
        </extensions>
      </trkpt>
      <trkpt lat="37.97908027656376361846923828125" lon="-107.73409771732985973358154296875">
        <ele>3445.199951171875</ele>
        <time>2026-08-15T18:50:58.000Z</time>
        <extensions>
          <ns3:TrackPointExtension>
            <ns3:hr>107</ns3:hr>
            <ns3:cad>0</ns3:cad>
          </ns3:TrackPointExtension>
        </extensions>
      </trkpt>
      <trkpt lat="37.979071475565433502197265625" lon="-107.7340858988463878631591796875">
        <ele>3444.60009765625</ele>
        <time>2026-08-15T18:51:03.000Z</time>
        <extensions>
          <ns3:TrackPointExtension>
            <ns3:hr>110</ns3:hr>
            <ns3:cad>0</ns3:cad>
          </ns3:TrackPointExtension>
        </extensions>
      </trkpt>
      <trkpt lat="37.9790813662111759185791015625" lon="-107.73407944478094577789306640625">
        <ele>3444.800048828125</ele>
        <time>2026-08-15T18:51:06.000Z</time>
        <extensions>
          <ns3:TrackPointExtension>
            <ns3:hr>109</ns3:hr>
            <ns3:cad>0</ns3:cad>
          </ns3:TrackPointExtension>
        </extensions>
      </trkpt>
      <trkpt lat="37.9790827073156833648681640625" lon="-107.73407843895256519317626953125">
        <ele>3444.800048828125</ele>
        <time>2026-08-15T18:51:07.000Z</time>
        <extensions>
          <ns3:TrackPointExtension>
            <ns3:hr>106</ns3:hr>
            <ns3:cad>0</ns3:cad>
          </ns3:TrackPointExtension>
        </extensions>
      </trkpt>
      <trkpt lat="37.97908279113471508026123046875" lon="-107.73407961241900920867919921875">
        <ele>3445.39990234375</ele>
        <time>2026-08-15T18:51:13.000Z</time>
        <extensions>
          <ns3:TrackPointExtension>
            <ns3:hr>108</ns3:hr>
            <ns3:cad>0</ns3:cad>
          </ns3:TrackPointExtension>
        </extensions>
      </trkpt>
      <trkpt lat="37.97908279113471508026123046875" lon="-107.73407961241900920867919921875">
        <ele>3445.39990234375</ele>
        <time>2026-08-15T18:51:19.000Z</time>
        <extensions>
          <ns3:TrackPointExtension>
            <ns3:hr>108</ns3:hr>
            <ns3:cad>0</ns3:cad>
          </ns3:TrackPointExtension>
        </extensions>
      </trkpt>
      <trkpt lat="37.97908279113471508026123046875" lon="-107.73407961241900920867919921875">
        <ele>3445.199951171875</ele>
        <time>2026-08-15T18:51:25.000Z</time>
        <extensions>
          <ns3:TrackPointExtension>
            <ns3:hr>106</ns3:hr>
            <ns3:cad>0</ns3:cad>
          </ns3:TrackPointExtension>
        </extensions>
      </trkpt>
      <trkpt lat="37.97908279113471508026123046875" lon="-107.73407961241900920867919921875">
        <ele>3445.39990234375</ele>
        <time>2026-08-15T18:51:31.000Z</time>
        <extensions>
          <ns3:TrackPointExtension>
            <ns3:hr>107</ns3:hr>
            <ns3:cad>0</ns3:cad>
          </ns3:TrackPointExtension>
        </extensions>
      </trkpt>
      <trkpt lat="37.97908279113471508026123046875" lon="-107.73407961241900920867919921875">
        <ele>3445.199951171875</ele>
        <time>2026-08-15T18:51:37.000Z</time>
        <extensions>
          <ns3:TrackPointExtension>
            <ns3:hr>109</ns3:hr>
            <ns3:cad>0</ns3:cad>
          </ns3:TrackPointExtension>
        </extensions>
      </trkpt>
      <trkpt lat="37.97908279113471508026123046875" lon="-107.73407961241900920867919921875">
        <ele>3445.39990234375</ele>
        <time>2026-08-15T18:51:43.000Z</time>
        <extensions>
          <ns3:TrackPointExtension>
            <ns3:hr>110</ns3:hr>
            <ns3:cad>0</ns3:cad>
          </ns3:TrackPointExtension>
        </extensions>
      </trkpt>
      <trkpt lat="37.97908279113471508026123046875" lon="-107.73407961241900920867919921875">
        <ele>3445.199951171875</ele>
        <time>2026-08-15T18:51:49.000Z</time>
        <extensions>
          <ns3:TrackPointExtension>
            <ns3:hr>110</ns3:hr>
            <ns3:cad>0</ns3:cad>
          </ns3:TrackPointExtension>
        </extensions>
      </trkpt>
      <trkpt lat="37.97908279113471508026123046875" lon="-107.73407961241900920867919921875">
        <ele>3445.199951171875</ele>
        <time>2026-08-15T18:51:52.000Z</time>
        <extensions>
          <ns3:TrackPointExtension>
            <ns3:hr>111</ns3:hr>
            <ns3:cad>0</ns3:cad>
          </ns3:TrackPointExtension>
        </extensions>
      </trkpt>
      <trkpt lat="37.97908279113471508026123046875" lon="-107.73407961241900920867919921875">
        <ele>3445.39990234375</ele>
        <time>2026-08-15T18:51:58.000Z</time>
        <extensions>
          <ns3:TrackPointExtension>
            <ns3:hr>110</ns3:hr>
            <ns3:cad>0</ns3:cad>
          </ns3:TrackPointExtension>
        </extensions>
      </trkpt>
      <trkpt lat="37.97908279113471508026123046875" lon="-107.73407961241900920867919921875">
        <ele>3444.39990234375</ele>
        <time>2026-08-15T18:52:02.000Z</time>
        <extensions>
          <ns3:TrackPointExtension>
            <ns3:hr>108</ns3:hr>
            <ns3:cad>0</ns3:cad>
          </ns3:TrackPointExtension>
        </extensions>
      </trkpt>
      <trkpt lat="37.97908279113471508026123046875" lon="-107.73407961241900920867919921875">
        <ele>3444.199951171875</ele>
        <time>2026-08-15T18:52:03.000Z</time>
        <extensions>
          <ns3:TrackPointExtension>
            <ns3:hr>107</ns3:hr>
            <ns3:cad>0</ns3:cad>
          </ns3:TrackPointExtension>
        </extensions>
      </trkpt>
      <trkpt lat="37.97908279113471508026123046875" lon="-107.73407961241900920867919921875">
        <ele>3444.39990234375</ele>
        <time>2026-08-15T18:52:06.000Z</time>
        <extensions>
          <ns3:TrackPointExtension>
            <ns3:hr>112</ns3:hr>
            <ns3:cad>0</ns3:cad>
          </ns3:TrackPointExtension>
        </extensions>
      </trkpt>
      <trkpt lat="37.97908279113471508026123046875" lon="-107.73407961241900920867919921875">
        <ele>3444.60009765625</ele>
        <time>2026-08-15T18:52:12.000Z</time>
        <extensions>
          <ns3:TrackPointExtension>
            <ns3:hr>112</ns3:hr>
            <ns3:cad>0</ns3:cad>
          </ns3:TrackPointExtension>
        </extensions>
      </trkpt>
      <trkpt lat="37.97908279113471508026123046875" lon="-107.73407961241900920867919921875">
        <ele>3445.39990234375</ele>
        <time>2026-08-15T18:52:16.000Z</time>
        <extensions>
          <ns3:TrackPointExtension>
            <ns3:hr>113</ns3:hr>
            <ns3:cad>0</ns3:cad>
          </ns3:TrackPointExtension>
        </extensions>
      </trkpt>
      <trkpt lat="37.97908279113471508026123046875" lon="-107.73407961241900920867919921875">
        <ele>3445.800048828125</ele>
        <time>2026-08-15T18:52:22.000Z</time>
        <extensions>
          <ns3:TrackPointExtension>
            <ns3:hr>111</ns3:hr>
            <ns3:cad>0</ns3:cad>
          </ns3:TrackPointExtension>
        </extensions>
      </trkpt>
      <trkpt lat="37.9790733195841312408447265625" lon="-107.734078355133533477783203125">
        <ele>3445.800048828125</ele>
        <time>2026-08-15T18:52:25.000Z</time>
        <extensions>
          <ns3:TrackPointExtension>
            <ns3:hr>110</ns3:hr>
            <ns3:cad>0</ns3:cad>
          </ns3:TrackPointExtension>
        </extensions>
      </trkpt>
      <trkpt lat="37.9790589027106761932373046875" lon="-107.73410039953887462615966796875">
        <ele>3445</ele>
        <time>2026-08-15T18:52:30.000Z</time>
        <extensions>
          <ns3:TrackPointExtension>
            <ns3:hr>109</ns3:hr>
            <ns3:cad>0</ns3:cad>
          </ns3:TrackPointExtension>
        </extensions>
      </trkpt>
      <trkpt lat="37.9790589027106761932373046875" lon="-107.73410039953887462615966796875">
        <ele>3445.199951171875</ele>
        <time>2026-08-15T18:52:35.000Z</time>
        <extensions>
          <ns3:TrackPointExtension>
            <ns3:hr>106</ns3:hr>
            <ns3:cad>0</ns3:cad>
          </ns3:TrackPointExtension>
        </extensions>
      </trkpt>
      <trkpt lat="37.9790589027106761932373046875" lon="-107.73410039953887462615966796875">
        <ele>3445.199951171875</ele>
        <time>2026-08-15T18:52:36.000Z</time>
        <extensions>
          <ns3:TrackPointExtension>
            <ns3:hr>103</ns3:hr>
            <ns3:cad>0</ns3:cad>
          </ns3:TrackPointExtension>
        </extensions>
      </trkpt>
      <trkpt lat="37.9790589027106761932373046875" lon="-107.73410039953887462615966796875">
        <ele>3445</ele>
        <time>2026-08-15T18:52:40.000Z</time>
        <extensions>
          <ns3:TrackPointExtension>
            <ns3:hr>107</ns3:hr>
            <ns3:cad>0</ns3:cad>
          </ns3:TrackPointExtension>
        </extensions>
      </trkpt>
      <trkpt lat="37.9790589027106761932373046875" lon="-107.73410039953887462615966796875">
        <ele>3445.199951171875</ele>
        <time>2026-08-15T18:52:42.000Z</time>
        <extensions>
          <ns3:TrackPointExtension>
            <ns3:hr>111</ns3:hr>
            <ns3:cad>0</ns3:cad>
          </ns3:TrackPointExtension>
        </extensions>
      </trkpt>
      <trkpt lat="37.9790589027106761932373046875" lon="-107.73410039953887462615966796875">
        <ele>3445.199951171875</ele>
        <time>2026-08-15T18:52:47.000Z</time>
        <extensions>
          <ns3:TrackPointExtension>
            <ns3:hr>114</ns3:hr>
            <ns3:cad>0</ns3:cad>
          </ns3:TrackPointExtension>
        </extensions>
      </trkpt>
      <trkpt lat="37.9790589027106761932373046875" lon="-107.73410039953887462615966796875">
        <ele>3445.39990234375</ele>
        <time>2026-08-15T18:52:50.000Z</time>
        <extensions>
          <ns3:TrackPointExtension>
            <ns3:hr>113</ns3:hr>
            <ns3:cad>0</ns3:cad>
          </ns3:TrackPointExtension>
        </extensions>
      </trkpt>
      <trkpt lat="37.9790589027106761932373046875" lon="-107.73410039953887462615966796875">
        <ele>3445.800048828125</ele>
        <time>2026-08-15T18:52:52.000Z</time>
        <extensions>
          <ns3:TrackPointExtension>
            <ns3:hr>110</ns3:hr>
            <ns3:cad>0</ns3:cad>
          </ns3:TrackPointExtension>
        </extensions>
      </trkpt>
      <trkpt lat="37.9790615849196910858154296875" lon="-107.7341016568243503570556640625">
        <ele>3445.800048828125</ele>
        <time>2026-08-15T18:52:54.000Z</time>
        <extensions>
          <ns3:TrackPointExtension>
            <ns3:hr>107</ns3:hr>
            <ns3:cad>0</ns3:cad>
          </ns3:TrackPointExtension>
        </extensions>
      </trkpt>
      <trkpt lat="37.9790320806205272674560546875" lon="-107.734101824462413787841796875">
        <ele>3445.199951171875</ele>
        <time>2026-08-15T18:52:58.000Z</time>
        <extensions>
          <ns3:TrackPointExtension>
            <ns3:hr>105</ns3:hr>
            <ns3:cad>0</ns3:cad>
          </ns3:TrackPointExtension>
        </extensions>
      </trkpt>
      <trkpt lat="37.9790000617504119873046875" lon="-107.7341023273766040802001953125">
        <ele>3444.199951171875</ele>
        <time>2026-08-15T18:53:03.000Z</time>
        <extensions>
          <ns3:TrackPointExtension>
            <ns3:hr>105</ns3:hr>
            <ns3:cad>59</ns3:cad>
          </ns3:TrackPointExtension>
        </extensions>
      </trkpt>
      <trkpt lat="37.97896586358547210693359375" lon="-107.73409687913954257965087890625">
        <ele>3443</ele>
        <time>2026-08-15T18:53:07.000Z</time>
        <extensions>
          <ns3:TrackPointExtension>
            <ns3:hr>104</ns3:hr>
            <ns3:cad>61</ns3:cad>
          </ns3:TrackPointExtension>
        </extensions>
      </trkpt>
      <trkpt lat="37.97892018221318721771240234375" lon="-107.73410475812852382659912109375">
        <ele>3442</ele>
        <time>2026-08-15T18:53:11.000Z</time>
        <extensions>
          <ns3:TrackPointExtension>
            <ns3:hr>105</ns3:hr>
            <ns3:cad>0</ns3:cad>
          </ns3:TrackPointExtension>
        </extensions>
      </trkpt>
      <trkpt lat="37.97889939509332180023193359375" lon="-107.73411531932651996612548828125">
        <ele>3441.39990234375</ele>
        <time>2026-08-15T18:53:13.000Z</time>
        <extensions>
          <ns3:TrackPointExtension>
            <ns3:hr>106</ns3:hr>
            <ns3:cad>0</ns3:cad>
          </ns3:TrackPointExtension>
        </extensions>
      </trkpt>
      <trkpt lat="37.97887659631669521331787109375" lon="-107.734125293791294097900390625">
        <ele>3440.800048828125</ele>
        <time>2026-08-15T18:53:15.000Z</time>
        <extensions>
          <ns3:TrackPointExtension>
            <ns3:hr>106</ns3:hr>
            <ns3:cad>43</ns3:cad>
          </ns3:TrackPointExtension>
        </extensions>
      </trkpt>
      <trkpt lat="37.97883451916277408599853515625" lon="-107.7341522835195064544677734375">
        <ele>3439.60009765625</ele>
        <time>2026-08-15T18:53:19.000Z</time>
        <extensions>
          <ns3:TrackPointExtension>
            <ns3:hr>106</ns3:hr>
            <ns3:cad>43</ns3:cad>
          </ns3:TrackPointExtension>
        </extensions>
      </trkpt>
      <trkpt lat="37.97882236540317535400390625" lon="-107.7341563068330287933349609375">
        <ele>3439.199951171875</ele>
        <time>2026-08-15T18:53:20.000Z</time>
        <extensions>
          <ns3:TrackPointExtension>
            <ns3:hr>106</ns3:hr>
            <ns3:cad>41</ns3:cad>
          </ns3:TrackPointExtension>
        </extensions>
      </trkpt>
      <trkpt lat="37.9788010753691196441650390625" lon="-107.73416317999362945556640625">
        <ele>3438.60009765625</ele>
        <time>2026-08-15T18:53:22.000Z</time>
        <extensions>
          <ns3:TrackPointExtension>
            <ns3:hr>106</ns3:hr>
            <ns3:cad>0</ns3:cad>
          </ns3:TrackPointExtension>
        </extensions>
      </trkpt>
      <trkpt lat="37.97874919138848781585693359375" lon="-107.7341968752443790435791015625">
        <ele>3437.60009765625</ele>
        <time>2026-08-15T18:53:28.000Z</time>
        <extensions>
          <ns3:TrackPointExtension>
            <ns3:hr>105</ns3:hr>
            <ns3:cad>0</ns3:cad>
          </ns3:TrackPointExtension>
        </extensions>
      </trkpt>
      <trkpt lat="37.97874114476144313812255859375" lon="-107.73420467041432857513427734375">
        <ele>3437.60009765625</ele>
        <time>2026-08-15T18:53:29.000Z</time>
        <extensions>
          <ns3:TrackPointExtension>
            <ns3:hr>105</ns3:hr>
            <ns3:cad>58</ns3:cad>
          </ns3:TrackPointExtension>
        </extensions>
      </trkpt>
      <trkpt lat="37.97870434820652008056640625" lon="-107.73421590216457843780517578125">
        <ele>3436.39990234375</ele>
        <time>2026-08-15T18:53:34.000Z</time>
        <extensions>
          <ns3:TrackPointExtension>
            <ns3:hr>108</ns3:hr>
            <ns3:cad>0</ns3:cad>
          </ns3:TrackPointExtension>
        </extensions>
      </trkpt>
      <trkpt lat="37.9786942899227142333984375" lon="-107.73422361351549625396728515625">
        <ele>3436.199951171875</ele>
        <time>2026-08-15T18:53:36.000Z</time>
        <extensions>
          <ns3:TrackPointExtension>
            <ns3:hr>108</ns3:hr>
            <ns3:cad>0</ns3:cad>
          </ns3:TrackPointExtension>
        </extensions>
      </trkpt>
      <trkpt lat="37.97866336070001125335693359375" lon="-107.734245993196964263916015625">
        <ele>3435.39990234375</ele>
        <time>2026-08-15T18:53:39.000Z</time>
        <extensions>
          <ns3:TrackPointExtension>
            <ns3:hr>109</ns3:hr>
            <ns3:cad>0</ns3:cad>
          </ns3:TrackPointExtension>
        </extensions>
      </trkpt>
      <trkpt lat="37.9786354489624500274658203125" lon="-107.7342806942760944366455078125">
        <ele>3434.60009765625</ele>
        <time>2026-08-15T18:53:42.000Z</time>
        <extensions>
          <ns3:TrackPointExtension>
            <ns3:hr>109</ns3:hr>
            <ns3:cad>0</ns3:cad>
          </ns3:TrackPointExtension>
        </extensions>
      </trkpt>
      <trkpt lat="37.97861826606094837188720703125" lon="-107.73429720662534236907958984375">
        <ele>3434.39990234375</ele>
        <time>2026-08-15T18:53:44.000Z</time>
        <extensions>
          <ns3:TrackPointExtension>
            <ns3:hr>110</ns3:hr>
            <ns3:cad>0</ns3:cad>
          </ns3:TrackPointExtension>
        </extensions>
      </trkpt>
      <trkpt lat="37.97859865240752696990966796875" lon="-107.734355293214321136474609375">
        <ele>3434.199951171875</ele>
        <time>2026-08-15T18:53:48.000Z</time>
        <extensions>
          <ns3:TrackPointExtension>
            <ns3:hr>109</ns3:hr>
            <ns3:cad>0</ns3:cad>
          </ns3:TrackPointExtension>
        </extensions>
      </trkpt>
      <trkpt lat="37.97857384197413921356201171875" lon="-107.7344238571822643280029296875">
        <ele>3433.199951171875</ele>
        <time>2026-08-15T18:53:53.000Z</time>
        <extensions>
          <ns3:TrackPointExtension>
            <ns3:hr>109</ns3:hr>
            <ns3:cad>0</ns3:cad>
          </ns3:TrackPointExtension>
        </extensions>
      </trkpt>
      <trkpt lat="37.9785710759460926055908203125" lon="-107.7344402857124805450439453125">
        <ele>3433</ele>
        <time>2026-08-15T18:53:54.000Z</time>
        <extensions>
          <ns3:TrackPointExtension>
            <ns3:hr>108</ns3:hr>
            <ns3:cad>0</ns3:cad>
          </ns3:TrackPointExtension>
        </extensions>
      </trkpt>
      <trkpt lat="37.97855623997747898101806640625" lon="-107.73451614193618297576904296875">
        <ele>3432.60009765625</ele>
        <time>2026-08-15T18:53:59.000Z</time>
        <extensions>
          <ns3:TrackPointExtension>
            <ns3:hr>110</ns3:hr>
            <ns3:cad>0</ns3:cad>
          </ns3:TrackPointExtension>
        </extensions>
      </trkpt>
      <trkpt lat="37.97855506651103496551513671875" lon="-107.73453575558960437774658203125">
        <ele>3432.800048828125</ele>
        <time>2026-08-15T18:54:03.000Z</time>
        <extensions>
          <ns3:TrackPointExtension>
            <ns3:hr>112</ns3:hr>
            <ns3:cad>0</ns3:cad>
          </ns3:TrackPointExtension>
        </extensions>
      </trkpt>
      <trkpt lat="37.97855154611170291900634765625" lon="-107.73454866372048854827880859375">
        <ele>3432.60009765625</ele>
        <time>2026-08-15T18:54:05.000Z</time>
        <extensions>
          <ns3:TrackPointExtension>
            <ns3:hr>112</ns3:hr>
            <ns3:cad>0</ns3:cad>
          </ns3:TrackPointExtension>
        </extensions>
      </trkpt>
      <trkpt lat="37.978551127016544342041015625" lon="-107.734560482203960418701171875">
        <ele>3432.60009765625</ele>
        <time>2026-08-15T18:54:11.000Z</time>
        <extensions>
          <ns3:TrackPointExtension>
            <ns3:hr>113</ns3:hr>
            <ns3:cad>0</ns3:cad>
          </ns3:TrackPointExtension>
        </extensions>
      </trkpt>
      <trkpt lat="37.9785533063113689422607421875" lon="-107.7345961891114711761474609375">
        <ele>3432.800048828125</ele>
        <time>2026-08-15T18:54:14.000Z</time>
        <extensions>
          <ns3:TrackPointExtension>
            <ns3:hr>110</ns3:hr>
            <ns3:cad>0</ns3:cad>
          </ns3:TrackPointExtension>
        </extensions>
      </trkpt>
      <trkpt lat="37.9785494506359100341796875" lon="-107.73463214747607707977294921875">
        <ele>3432.60009765625</ele>
        <time>2026-08-15T18:54:16.000Z</time>
        <extensions>
          <ns3:TrackPointExtension>
            <ns3:hr>109</ns3:hr>
            <ns3:cad>0</ns3:cad>
          </ns3:TrackPointExtension>
        </extensions>
      </trkpt>
      <trkpt lat="37.97853930853307247161865234375" lon="-107.73469953797757625579833984375">
        <ele>3432.199951171875</ele>
        <time>2026-08-15T18:54:21.000Z</time>
        <extensions>
          <ns3:TrackPointExtension>
            <ns3:hr>107</ns3:hr>
            <ns3:cad>0</ns3:cad>
          </ns3:TrackPointExtension>
        </extensions>
      </trkpt>
      <trkpt lat="37.9785355366766452789306640625" lon="-107.7347138710319995880126953125">
        <ele>3432</ele>
        <time>2026-08-15T18:54:22.000Z</time>
        <extensions>
          <ns3:TrackPointExtension>
            <ns3:hr>108</ns3:hr>
            <ns3:cad>0</ns3:cad>
          </ns3:TrackPointExtension>
        </extensions>
      </trkpt>
      <trkpt lat="37.97852723859250545501708984375" lon="-107.73479760624468326568603515625">
        <ele>3431.39990234375</ele>
        <time>2026-08-15T18:54:27.000Z</time>
        <extensions>
          <ns3:TrackPointExtension>
            <ns3:hr>109</ns3:hr>
            <ns3:cad>0</ns3:cad>
          </ns3:TrackPointExtension>
        </extensions>
      </trkpt>
      <trkpt lat="37.97852464020252227783203125" lon="-107.73489533923566341400146484375">
        <ele>3431</ele>
        <time>2026-08-15T18:54:33.000Z</time>
        <extensions>
          <ns3:TrackPointExtension>
            <ns3:hr>108</ns3:hr>
            <ns3:cad>0</ns3:cad>
          </ns3:TrackPointExtension>
        </extensions>
      </trkpt>
      <trkpt lat="37.978522963821887969970703125" lon="-107.7349053137004375457763671875">
        <ele>3431</ele>
        <time>2026-08-15T18:54:34.000Z</time>
        <extensions>
          <ns3:TrackPointExtension>
            <ns3:hr>108</ns3:hr>
            <ns3:cad>0</ns3:cad>
          </ns3:TrackPointExtension>
        </extensions>
      </trkpt>
      <trkpt lat="37.97851818613708019256591796875" lon="-107.73495552130043506622314453125">
        <ele>3430.60009765625</ele>
        <time>2026-08-15T18:54:37.000Z</time>
        <extensions>
          <ns3:TrackPointExtension>
            <ns3:hr>105</ns3:hr>
            <ns3:cad>0</ns3:cad>
          </ns3:TrackPointExtension>
        </extensions>
      </trkpt>
      <trkpt lat="37.978514917194843292236328125" lon="-107.73497027345001697540283203125">
        <ele>3430.39990234375</ele>
        <time>2026-08-15T18:54:38.000Z</time>
        <extensions>
          <ns3:TrackPointExtension>
            <ns3:hr>105</ns3:hr>
            <ns3:cad>0</ns3:cad>
          </ns3:TrackPointExtension>
        </extensions>
      </trkpt>
      <trkpt lat="37.97851148061454296112060546875" lon="-107.73501922376453876495361328125">
        <ele>3429.800048828125</ele>
        <time>2026-08-15T18:54:42.000Z</time>
        <extensions>
          <ns3:TrackPointExtension>
            <ns3:hr>105</ns3:hr>
            <ns3:cad>0</ns3:cad>
          </ns3:TrackPointExtension>
        </extensions>
      </trkpt>
      <trkpt lat="37.97851500101387500762939453125" lon="-107.73505861870944499969482421875">
        <ele>3429.199951171875</ele>
        <time>2026-08-15T18:54:45.000Z</time>
        <extensions>
          <ns3:TrackPointExtension>
            <ns3:hr>105</ns3:hr>
            <ns3:cad>0</ns3:cad>
          </ns3:TrackPointExtension>
        </extensions>
      </trkpt>
      <trkpt lat="37.97851483337581157684326171875" lon="-107.73507420904934406280517578125">
        <ele>3428.800048828125</ele>
        <time>2026-08-15T18:54:46.000Z</time>
        <extensions>
          <ns3:TrackPointExtension>
            <ns3:hr>106</ns3:hr>
            <ns3:cad>0</ns3:cad>
          </ns3:TrackPointExtension>
        </extensions>
      </trkpt>
      <trkpt lat="37.97851013951003551483154296875" lon="-107.7351668290793895721435546875">
        <ele>3427.800048828125</ele>
        <time>2026-08-15T18:54:52.000Z</time>
        <extensions>
          <ns3:TrackPointExtension>
            <ns3:hr>105</ns3:hr>
            <ns3:cad>73</ns3:cad>
          </ns3:TrackPointExtension>
        </extensions>
      </trkpt>
      <trkpt lat="37.97850879840552806854248046875" lon="-107.73518099449574947357177734375">
        <ele>3427.800048828125</ele>
        <time>2026-08-15T18:54:53.000Z</time>
        <extensions>
          <ns3:TrackPointExtension>
            <ns3:hr>105</ns3:hr>
            <ns3:cad>0</ns3:cad>
          </ns3:TrackPointExtension>
        </extensions>
      </trkpt>
      <trkpt lat="37.978512905538082122802734375" lon="-107.73527101613581180572509765625">
        <ele>3426.39990234375</ele>
        <time>2026-08-15T18:54:59.000Z</time>
        <extensions>
          <ns3:TrackPointExtension>
            <ns3:hr>103</ns3:hr>
            <ns3:cad>0</ns3:cad>
          </ns3:TrackPointExtension>
        </extensions>
      </trkpt>
      <trkpt lat="37.9785140790045261383056640625" lon="-107.73528660647571086883544921875">
        <ele>3426.199951171875</ele>
        <time>2026-08-15T18:55:00.000Z</time>
        <extensions>
          <ns3:TrackPointExtension>
            <ns3:hr>103</ns3:hr>
            <ns3:cad>0</ns3:cad>
          </ns3:TrackPointExtension>
        </extensions>
      </trkpt>
      <trkpt lat="37.9784931242465972900390625" lon="-107.735283672809600830078125">
        <ele>3425.39990234375</ele>
        <time>2026-08-15T18:55:04.000Z</time>
        <extensions>
          <ns3:TrackPointExtension>
            <ns3:hr>103</ns3:hr>
            <ns3:cad>40</ns3:cad>
          </ns3:TrackPointExtension>
        </extensions>
      </trkpt>
      <trkpt lat="37.9784877598285675048828125" lon="-107.73526816628873348236083984375">
        <ele>3425.199951171875</ele>
        <time>2026-08-15T18:55:05.000Z</time>
        <extensions>
          <ns3:TrackPointExtension>
            <ns3:hr>103</ns3:hr>
            <ns3:cad>40</ns3:cad>
          </ns3:TrackPointExtension>
        </extensions>
      </trkpt>
      <trkpt lat="37.978460602462291717529296875" lon="-107.73521728813648223876953125">
        <ele>3424.199951171875</ele>
        <time>2026-08-15T18:55:09.000Z</time>
        <extensions>
          <ns3:TrackPointExtension>
            <ns3:hr>103</ns3:hr>
            <ns3:cad>75</ns3:cad>
          </ns3:TrackPointExtension>
        </extensions>
      </trkpt>
      <trkpt lat="37.97844040207564830780029296875" lon="-107.73518032394349575042724609375">
        <ele>3423.60009765625</ele>
        <time>2026-08-15T18:55:12.000Z</time>
        <extensions>
          <ns3:TrackPointExtension>
            <ns3:hr>104</ns3:hr>
            <ns3:cad>75</ns3:cad>
          </ns3:TrackPointExtension>
        </extensions>
      </trkpt>
      <trkpt lat="37.9784259013831615447998046875" lon="-107.73514143191277980804443359375">
        <ele>3423.199951171875</ele>
        <time>2026-08-15T18:55:15.000Z</time>
        <extensions>
          <ns3:TrackPointExtension>
            <ns3:hr>103</ns3:hr>
            <ns3:cad>59</ns3:cad>
          </ns3:TrackPointExtension>
        </extensions>
      </trkpt>
      <trkpt lat="37.978414334356784820556640625" lon="-107.73507823236286640167236328125">
        <ele>3422.800048828125</ele>
        <time>2026-08-15T18:55:19.000Z</time>
        <extensions>
          <ns3:TrackPointExtension>
            <ns3:hr>103</ns3:hr>
            <ns3:cad>57</ns3:cad>
          </ns3:TrackPointExtension>
        </extensions>
      </trkpt>
      <trkpt lat="37.978390194475650787353515625" lon="-107.73500631563365459442138671875">
        <ele>3422.39990234375</ele>
        <time>2026-08-15T18:55:25.000Z</time>
        <extensions>
          <ns3:TrackPointExtension>
            <ns3:hr>102</ns3:hr>
            <ns3:cad>0</ns3:cad>
          </ns3:TrackPointExtension>
        </extensions>
      </trkpt>
      <trkpt lat="37.9783823154866695404052734375" lon="-107.7349824272096157073974609375">
        <ele>3421.800048828125</ele>
        <time>2026-08-15T18:55:27.000Z</time>
        <extensions>
          <ns3:TrackPointExtension>
            <ns3:hr>103</ns3:hr>
            <ns3:cad>71</ns3:cad>
          </ns3:TrackPointExtension>
        </extensions>
      </trkpt>
      <trkpt lat="37.97836513258516788482666015625" lon="-107.73492853157222270965576171875">
        <ele>3420.60009765625</ele>
        <time>2026-08-15T18:55:31.000Z</time>
        <extensions>
          <ns3:TrackPointExtension>
            <ns3:hr>103</ns3:hr>
            <ns3:cad>77</ns3:cad>
          </ns3:TrackPointExtension>
        </extensions>
      </trkpt>
      <trkpt lat="37.97835356555879116058349609375" lon="-107.73488779552280902862548828125">
        <ele>3419.800048828125</ele>
        <time>2026-08-15T18:55:34.000Z</time>
        <extensions>
          <ns3:TrackPointExtension>
            <ns3:hr>103</ns3:hr>
            <ns3:cad>77</ns3:cad>
          </ns3:TrackPointExtension>
        </extensions>
      </trkpt>
      <trkpt lat="37.97834895551204681396484375" lon="-107.7348719537258148193359375">
        <ele>3419.60009765625</ele>
        <time>2026-08-15T18:55:35.000Z</time>
        <extensions>
          <ns3:TrackPointExtension>
            <ns3:hr>103</ns3:hr>
            <ns3:cad>77</ns3:cad>
          </ns3:TrackPointExtension>
        </extensions>
      </trkpt>
      <trkpt lat="37.978340573608875274658203125" lon="-107.73483029566705226898193359375">
        <ele>3419.39990234375</ele>
        <time>2026-08-15T18:55:38.000Z</time>
        <extensions>
          <ns3:TrackPointExtension>
            <ns3:hr>107</ns3:hr>
            <ns3:cad>77</ns3:cad>
          </ns3:TrackPointExtension>
        </extensions>
      </trkpt>
      <trkpt lat="37.978334538638591766357421875" lon="-107.73480045609176158905029296875">
        <ele>3419.60009765625</ele>
        <time>2026-08-15T18:55:40.000Z</time>
        <extensions>
          <ns3:TrackPointExtension>
            <ns3:hr>110</ns3:hr>
            <ns3:cad>59</ns3:cad>
          </ns3:TrackPointExtension>
        </extensions>
      </trkpt>
      <trkpt lat="37.978333197534084320068359375" lon="-107.73478352464735507965087890625">
        <ele>3419.60009765625</ele>
        <time>2026-08-15T18:55:41.000Z</time>
        <extensions>
          <ns3:TrackPointExtension>
            <ns3:hr>111</ns3:hr>
            <ns3:cad>59</ns3:cad>
          </ns3:TrackPointExtension>
        </extensions>
      </trkpt>
      <trkpt lat="37.978323809802532196044921875" lon="-107.73470657877624034881591796875">
        <ele>3419</ele>
        <time>2026-08-15T18:55:47.000Z</time>
        <extensions>
          <ns3:TrackPointExtension>
            <ns3:hr>113</ns3:hr>
            <ns3:cad>0</ns3:cad>
          </ns3:TrackPointExtension>
        </extensions>
      </trkpt>
      <trkpt lat="37.97831886447966098785400390625" lon="-107.7346909046173095703125">
        <ele>3418.60009765625</ele>
        <time>2026-08-15T18:55:48.000Z</time>
        <extensions>
          <ns3:TrackPointExtension>
            <ns3:hr>112</ns3:hr>
            <ns3:cad>0</ns3:cad>
          </ns3:TrackPointExtension>
        </extensions>
      </trkpt>
      <trkpt lat="37.97831702046096324920654296875" lon="-107.73468621075153350830078125">
        <ele>3418.39990234375</ele>
        <time>2026-08-15T18:55:49.000Z</time>
        <extensions>
          <ns3:TrackPointExtension>
            <ns3:hr>111</ns3:hr>
            <ns3:cad>0</ns3:cad>
          </ns3:TrackPointExtension>
        </extensions>
      </trkpt>
      <trkpt lat="37.97832104377448558807373046875" lon="-107.73467841558158397674560546875">
        <ele>3418.199951171875</ele>
        <time>2026-08-15T18:55:51.000Z</time>
        <extensions>
          <ns3:TrackPointExtension>
            <ns3:hr>110</ns3:hr>
            <ns3:cad>0</ns3:cad>
          </ns3:TrackPointExtension>
        </extensions>
      </trkpt>
      <trkpt lat="37.9783182777464389801025390625" lon="-107.73465134203433990478515625">
        <ele>3418.199951171875</ele>
        <time>2026-08-15T18:55:53.000Z</time>
        <extensions>
          <ns3:TrackPointExtension>
            <ns3:hr>110</ns3:hr>
            <ns3:cad>0</ns3:cad>
          </ns3:TrackPointExtension>
        </extensions>
      </trkpt>
      <trkpt lat="37.978311069309711456298828125" lon="-107.734575234353542327880859375">
        <ele>3418</ele>
        <time>2026-08-15T18:55:59.000Z</time>
        <extensions>
          <ns3:TrackPointExtension>
            <ns3:hr>111</ns3:hr>
            <ns3:cad>0</ns3:cad>
          </ns3:TrackPointExtension>
        </extensions>
      </trkpt>
      <trkpt lat="37.97830562107264995574951171875" lon="-107.73451547138392925262451171875">
        <ele>3417.39990234375</ele>
        <time>2026-08-15T18:56:03.000Z</time>
        <extensions>
          <ns3:TrackPointExtension>
            <ns3:hr>113</ns3:hr>
            <ns3:cad>56</ns3:cad>
          </ns3:TrackPointExtension>
        </extensions>
      </trkpt>
      <trkpt lat="37.97829858027398586273193359375" lon="-107.7344459854066371917724609375">
        <ele>3416.60009765625</ele>
        <time>2026-08-15T18:56:07.000Z</time>
        <extensions>
          <ns3:TrackPointExtension>
            <ns3:hr>113</ns3:hr>
            <ns3:cad>56</ns3:cad>
          </ns3:TrackPointExtension>
        </extensions>
      </trkpt>
      <trkpt lat="37.97830126248300075531005859375" lon="-107.7344231866300106048583984375">
        <ele>3416.39990234375</ele>
        <time>2026-08-15T18:56:09.000Z</time>
        <extensions>
          <ns3:TrackPointExtension>
            <ns3:hr>113</ns3:hr>
            <ns3:cad>59</ns3:cad>
          </ns3:TrackPointExtension>
        </extensions>
      </trkpt>
      <trkpt lat="37.9783058725297451019287109375" lon="-107.73437063209712505340576171875">
        <ele>3416.199951171875</ele>
        <time>2026-08-15T18:56:13.000Z</time>
        <extensions>
          <ns3:TrackPointExtension>
            <ns3:hr>113</ns3:hr>
            <ns3:cad>71</ns3:cad>
          </ns3:TrackPointExtension>
        </extensions>
      </trkpt>
      <trkpt lat="37.97831249423325061798095703125" lon="-107.73433241061866283416748046875">
        <ele>3416.60009765625</ele>
        <time>2026-08-15T18:56:16.000Z</time>
        <extensions>
          <ns3:TrackPointExtension>
            <ns3:hr>110</ns3:hr>
            <ns3:cad>71</ns3:cad>
          </ns3:TrackPointExtension>
        </extensions>
      </trkpt>
      <trkpt lat="37.978317774832248687744140625" lon="-107.73431682027876377105712890625">
        <ele>3416.800048828125</ele>
        <time>2026-08-15T18:56:18.000Z</time>
        <extensions>
          <ns3:TrackPointExtension>
            <ns3:hr>107</ns3:hr>
            <ns3:cad>71</ns3:cad>
          </ns3:TrackPointExtension>
        </extensions>
      </trkpt>
      <trkpt lat="37.9783176071941852569580078125" lon="-107.73430625908076763153076171875">
        <ele>3416.60009765625</ele>
        <time>2026-08-15T18:56:19.000Z</time>
        <extensions>
          <ns3:TrackPointExtension>
            <ns3:hr>106</ns3:hr>
            <ns3:cad>71</ns3:cad>
          </ns3:TrackPointExtension>
        </extensions>
      </trkpt>
      <trkpt lat="37.9783119075000286102294921875" lon="-107.73429930210113525390625">
        <ele>3416.39990234375</ele>
        <time>2026-08-15T18:56:20.000Z</time>
        <extensions>
          <ns3:TrackPointExtension>
            <ns3:hr>105</ns3:hr>
            <ns3:cad>50</ns3:cad>
          </ns3:TrackPointExtension>
        </extensions>
      </trkpt>
      <trkpt lat="37.97830277122557163238525390625" lon="-107.73428798653185367584228515625">
        <ele>3416</ele>
        <time>2026-08-15T18:56:25.000Z</time>
        <extensions>
          <ns3:TrackPointExtension>
            <ns3:hr>103</ns3:hr>
            <ns3:cad>0</ns3:cad>
          </ns3:TrackPointExtension>
        </extensions>
      </trkpt>
      <trkpt lat="37.9782919585704803466796875" lon="-107.73427407257258892059326171875">
        <ele>3415.199951171875</ele>
        <time>2026-08-15T18:56:29.000Z</time>
        <extensions>
          <ns3:TrackPointExtension>
            <ns3:hr>103</ns3:hr>
            <ns3:cad>0</ns3:cad>
          </ns3:TrackPointExtension>
        </extensions>
      </trkpt>
      <trkpt lat="37.97828751616179943084716796875" lon="-107.73427071981132030487060546875">
        <ele>3415</ele>
        <time>2026-08-15T18:56:30.000Z</time>
        <extensions>
          <ns3:TrackPointExtension>
            <ns3:hr>103</ns3:hr>
            <ns3:cad>0</ns3:cad>
          </ns3:TrackPointExtension>
        </extensions>
      </trkpt>
      <trkpt lat="37.97827913425862789154052734375" lon="-107.73424976505339145660400390625">
        <ele>3414.199951171875</ele>
        <time>2026-08-15T18:56:33.000Z</time>
        <extensions>
          <ns3:TrackPointExtension>
            <ns3:hr>105</ns3:hr>
            <ns3:cad>0</ns3:cad>
          </ns3:TrackPointExtension>
        </extensions>
      </trkpt>
      <trkpt lat="37.97828164882957935333251953125" lon="-107.73423492908477783203125">
        <ele>3413</ele>
        <time>2026-08-15T18:56:36.000Z</time>
        <extensions>
          <ns3:TrackPointExtension>
            <ns3:hr>106</ns3:hr>
            <ns3:cad>0</ns3:cad>
          </ns3:TrackPointExtension>
        </extensions>
      </trkpt>
      <trkpt lat="37.97828190028667449951171875" lon="-107.73423157632350921630859375">
        <ele>3412.800048828125</ele>
        <time>2026-08-15T18:56:37.000Z</time>
        <extensions>
          <ns3:TrackPointExtension>
            <ns3:hr>106</ns3:hr>
            <ns3:cad>0</ns3:cad>
          </ns3:TrackPointExtension>
        </extensions>
      </trkpt>
      <trkpt lat="37.9782730154693126678466796875" lon="-107.73421539925038814544677734375">
        <ele>3412.60009765625</ele>
        <time>2026-08-15T18:56:43.000Z</time>
        <extensions>
          <ns3:TrackPointExtension>
            <ns3:hr>107</ns3:hr>
            <ns3:cad>0</ns3:cad>
          </ns3:TrackPointExtension>
        </extensions>
      </trkpt>
      <trkpt lat="37.978267483413219451904296875" lon="-107.734211124479770660400390625">
        <ele>3412.60009765625</ele>
        <time>2026-08-15T18:56:44.000Z</time>
        <extensions>
          <ns3:TrackPointExtension>
            <ns3:hr>106</ns3:hr>
            <ns3:cad>0</ns3:cad>
          </ns3:TrackPointExtension>
        </extensions>
      </trkpt>
      <trkpt lat="37.97825918532907962799072265625" lon="-107.73419494740664958953857421875">
        <ele>3411.800048828125</ele>
        <time>2026-08-15T18:56:48.000Z</time>
        <extensions>
          <ns3:TrackPointExtension>
            <ns3:hr>104</ns3:hr>
            <ns3:cad>0</ns3:cad>
          </ns3:TrackPointExtension>
        </extensions>
      </trkpt>
      <trkpt lat="37.97825507819652557373046875" lon="-107.734170891344547271728515625">
        <ele>3411.39990234375</ele>
        <time>2026-08-15T18:56:51.000Z</time>
        <extensions>
          <ns3:TrackPointExtension>
            <ns3:hr>104</ns3:hr>
            <ns3:cad>0</ns3:cad>
          </ns3:TrackPointExtension>
        </extensions>
      </trkpt>
      <trkpt lat="37.978252060711383819580078125" lon="-107.734150774776935577392578125">
        <ele>3410.800048828125</ele>
        <time>2026-08-15T18:56:56.000Z</time>
        <extensions>
          <ns3:TrackPointExtension>
            <ns3:hr>103</ns3:hr>
            <ns3:cad>0</ns3:cad>
          </ns3:TrackPointExtension>
        </extensions>
      </trkpt>
      <trkpt lat="37.978252060711383819580078125" lon="-107.734150774776935577392578125">
        <ele>3410.800048828125</ele>
        <time>2026-08-15T18:56:57.000Z</time>
        <extensions>
          <ns3:TrackPointExtension>
            <ns3:hr>103</ns3:hr>
            <ns3:cad>0</ns3:cad>
          </ns3:TrackPointExtension>
        </extensions>
      </trkpt>
      <trkpt lat="37.9782347939908504486083984375" lon="-107.73413342423737049102783203125">
        <ele>3410</ele>
        <time>2026-08-15T18:57:03.000Z</time>
        <extensions>
          <ns3:TrackPointExtension>
            <ns3:hr>104</ns3:hr>
            <ns3:cad>0</ns3:cad>
          </ns3:TrackPointExtension>
        </extensions>
      </trkpt>
      <trkpt lat="37.97823219560086727142333984375" lon="-107.7341298200190067291259765625">
        <ele>3409.800048828125</ele>
        <time>2026-08-15T18:57:04.000Z</time>
        <extensions>
          <ns3:TrackPointExtension>
            <ns3:hr>105</ns3:hr>
            <ns3:cad>0</ns3:cad>
          </ns3:TrackPointExtension>
        </extensions>
      </trkpt>
      <trkpt lat="37.97822029329836368560791015625" lon="-107.73411565460264682769775390625">
        <ele>3408.800048828125</ele>
        <time>2026-08-15T18:57:08.000Z</time>
        <extensions>
          <ns3:TrackPointExtension>
            <ns3:hr>105</ns3:hr>
            <ns3:cad>0</ns3:cad>
          </ns3:TrackPointExtension>
        </extensions>
      </trkpt>
      <trkpt lat="37.97821710817515850067138671875" lon="-107.73411096073687076568603515625">
        <ele>3408.800048828125</ele>
        <time>2026-08-15T18:57:09.000Z</time>
        <extensions>
          <ns3:TrackPointExtension>
            <ns3:hr>105</ns3:hr>
            <ns3:cad>0</ns3:cad>
          </ns3:TrackPointExtension>
        </extensions>
      </trkpt>
      <trkpt lat="37.978198416531085968017578125" lon="-107.73409788496792316436767578125">
        <ele>3408</ele>
        <time>2026-08-15T18:57:13.000Z</time>
        <extensions>
          <ns3:TrackPointExtension>
            <ns3:hr>106</ns3:hr>
            <ns3:cad>0</ns3:cad>
          </ns3:TrackPointExtension>
        </extensions>
      </trkpt>
      <trkpt lat="37.97819145955145359039306640625" lon="-107.7341143973171710968017578125">
        <ele>3407.60009765625</ele>
        <time>2026-08-15T18:57:16.000Z</time>
        <extensions>
          <ns3:TrackPointExtension>
            <ns3:hr>108</ns3:hr>
            <ns3:cad>0</ns3:cad>
          </ns3:TrackPointExtension>
        </extensions>
      </trkpt>
      <trkpt lat="37.978177629411220550537109375" lon="-107.73413895629346370697021484375">
        <ele>3407</ele>
        <time>2026-08-15T18:57:18.000Z</time>
        <extensions>
          <ns3:TrackPointExtension>
            <ns3:hr>108</ns3:hr>
            <ns3:cad>0</ns3:cad>
          </ns3:TrackPointExtension>
        </extensions>
      </trkpt>
      <trkpt lat="37.97815843485295772552490234375" lon="-107.734168879687786102294921875">
        <ele>3406.60009765625</ele>
        <time>2026-08-15T18:57:21.000Z</time>
        <extensions>
          <ns3:TrackPointExtension>
            <ns3:hr>107</ns3:hr>
            <ns3:cad>0</ns3:cad>
          </ns3:TrackPointExtension>
        </extensions>
      </trkpt>
      <trkpt lat="37.9781405813992023468017578125" lon="-107.734210453927516937255859375">
        <ele>3406.199951171875</ele>
        <time>2026-08-15T18:57:24.000Z</time>
        <extensions>
          <ns3:TrackPointExtension>
            <ns3:hr>106</ns3:hr>
            <ns3:cad>0</ns3:cad>
          </ns3:TrackPointExtension>
        </extensions>
      </trkpt>
      <trkpt lat="37.97810479067265987396240234375" lon="-107.73425999097526073455810546875">
        <ele>3405.39990234375</ele>
        <time>2026-08-15T18:57:29.000Z</time>
        <extensions>
          <ns3:TrackPointExtension>
            <ns3:hr>108</ns3:hr>
            <ns3:cad>0</ns3:cad>
          </ns3:TrackPointExtension>
        </extensions>
      </trkpt>
      <trkpt lat="37.9780976660549640655517578125" lon="-107.7342676185071468353271484375">
        <ele>3405.39990234375</ele>
        <time>2026-08-15T18:57:30.000Z</time>
        <extensions>
          <ns3:TrackPointExtension>
            <ns3:hr>108</ns3:hr>
            <ns3:cad>0</ns3:cad>
          </ns3:TrackPointExtension>
        </extensions>
      </trkpt>
      <trkpt lat="37.97807411290705204010009765625" lon="-107.7343088574707508087158203125">
        <ele>3404.39990234375</ele>
        <time>2026-08-15T18:57:34.000Z</time>
        <extensions>
          <ns3:TrackPointExtension>
            <ns3:hr>108</ns3:hr>
            <ns3:cad>40</ns3:cad>
          </ns3:TrackPointExtension>
        </extensions>
      </trkpt>
      <trkpt lat="37.978054583072662353515625" lon="-107.73435705341398715972900390625">
        <ele>3403.60009765625</ele>
        <time>2026-08-15T18:57:38.000Z</time>
        <extensions>
          <ns3:TrackPointExtension>
            <ns3:hr>109</ns3:hr>
            <ns3:cad>20</ns3:cad>
          </ns3:TrackPointExtension>
        </extensions>
      </trkpt>
      <trkpt lat="37.9780460335314273834228515625" lon="-107.7343769185245037078857421875">
        <ele>3403</ele>
        <time>2026-08-15T18:57:40.000Z</time>
        <extensions>
          <ns3:TrackPointExtension>
            <ns3:hr>108</ns3:hr>
            <ns3:cad>0</ns3:cad>
          </ns3:TrackPointExtension>
        </extensions>
      </trkpt>
      <trkpt lat="37.9780198819935321807861328125" lon="-107.73442829959094524383544921875">
        <ele>3402</ele>
        <time>2026-08-15T18:57:45.000Z</time>
        <extensions>
          <ns3:TrackPointExtension>
            <ns3:hr>107</ns3:hr>
            <ns3:cad>0</ns3:cad>
          </ns3:TrackPointExtension>
        </extensions>
      </trkpt>
      <trkpt lat="37.977983839809894561767578125" lon="-107.73449971340596675872802734375">
        <ele>3401</ele>
        <time>2026-08-15T18:57:51.000Z</time>
        <extensions>
          <ns3:TrackPointExtension>
            <ns3:hr>106</ns3:hr>
            <ns3:cad>77</ns3:cad>
          </ns3:TrackPointExtension>
        </extensions>
      </trkpt>
      <trkpt lat="37.97797889448702335357666015625" lon="-107.73451077751815319061279296875">
        <ele>3400.60009765625</ele>
        <time>2026-08-15T18:57:52.000Z</time>
        <extensions>
          <ns3:TrackPointExtension>
            <ns3:hr>105</ns3:hr>
            <ns3:cad>77</ns3:cad>
          </ns3:TrackPointExtension>
        </extensions>
      </trkpt>
      <trkpt lat="37.9779558442533016204833984375" lon="-107.73458336479961872100830078125">
        <ele>3399.39990234375</ele>
        <time>2026-08-15T18:57:57.000Z</time>
        <extensions>
          <ns3:TrackPointExtension>
            <ns3:hr>103</ns3:hr>
            <ns3:cad>0</ns3:cad>
          </ns3:TrackPointExtension>
        </extensions>
      </trkpt>
      <trkpt lat="37.9779540002346038818359375" lon="-107.7345988713204860687255859375">
        <ele>3399.199951171875</ele>
        <time>2026-08-15T18:57:58.000Z</time>
        <extensions>
          <ns3:TrackPointExtension>
            <ns3:hr>103</ns3:hr>
            <ns3:cad>0</ns3:cad>
          </ns3:TrackPointExtension>
        </extensions>
      </trkpt>
      <trkpt lat="37.9779397509992122650146484375" lon="-107.73468646220862865447998046875">
        <ele>3398.800048828125</ele>
        <time>2026-08-15T18:58:04.000Z</time>
        <extensions>
          <ns3:TrackPointExtension>
            <ns3:hr>103</ns3:hr>
            <ns3:cad>59</ns3:cad>
          </ns3:TrackPointExtension>
        </extensions>
      </trkpt>
      <trkpt lat="37.97793430276215076446533203125" lon="-107.73471579886972904205322265625">
        <ele>3398.39990234375</ele>
        <time>2026-08-15T18:58:06.000Z</time>
        <extensions>
          <ns3:TrackPointExtension>
            <ns3:hr>102</ns3:hr>
            <ns3:cad>55</ns3:cad>
          </ns3:TrackPointExtension>
        </extensions>
      </trkpt>
      <trkpt lat="37.9779162816703319549560546875" lon="-107.73479710333049297332763671875">
        <ele>3397.199951171875</ele>
        <time>2026-08-15T18:58:12.000Z</time>
        <extensions>
          <ns3:TrackPointExtension>
            <ns3:hr>101</ns3:hr>
            <ns3:cad>0</ns3:cad>
          </ns3:TrackPointExtension>
        </extensions>
      </trkpt>
      <trkpt lat="37.9779092408716678619384765625" lon="-107.73482828401029109954833984375">
        <ele>3396.800048828125</ele>
        <time>2026-08-15T18:58:14.000Z</time>
        <extensions>
          <ns3:TrackPointExtension>
            <ns3:hr>101</ns3:hr>
            <ns3:cad>0</ns3:cad>
          </ns3:TrackPointExtension>
        </extensions>
      </trkpt>
      <trkpt lat="37.977901361882686614990234375" lon="-107.73485510610044002532958984375">
        <ele>3396.199951171875</ele>
        <time>2026-08-15T18:58:16.000Z</time>
        <extensions>
          <ns3:TrackPointExtension>
            <ns3:hr>101</ns3:hr>
            <ns3:cad>59</ns3:cad>
          </ns3:TrackPointExtension>
        </extensions>
      </trkpt>
      <trkpt lat="37.9778802394866943359375" lon="-107.7349113486707210540771484375">
        <ele>3395.39990234375</ele>
        <time>2026-08-15T18:58:20.000Z</time>
        <extensions>
          <ns3:TrackPointExtension>
            <ns3:hr>102</ns3:hr>
            <ns3:cad>0</ns3:cad>
          </ns3:TrackPointExtension>
        </extensions>
      </trkpt>
      <trkpt lat="37.97787629999220371246337890625" lon="-107.7349416911602020263671875">
        <ele>3394.800048828125</ele>
        <time>2026-08-15T18:58:22.000Z</time>
        <extensions>
          <ns3:TrackPointExtension>
            <ns3:hr>104</ns3:hr>
            <ns3:cad>0</ns3:cad>
          </ns3:TrackPointExtension>
        </extensions>
      </trkpt>
      <trkpt lat="37.97785635106265544891357421875" lon="-107.735016457736492156982421875">
        <ele>3393.800048828125</ele>
        <time>2026-08-15T18:58:27.000Z</time>
        <extensions>
          <ns3:TrackPointExtension>
            <ns3:hr>105</ns3:hr>
            <ns3:cad>0</ns3:cad>
          </ns3:TrackPointExtension>
        </extensions>
      </trkpt>
      <trkpt lat="37.97783439047634601593017578125" lon="-107.73509030230343341827392578125">
        <ele>3392.800048828125</ele>
        <time>2026-08-15T18:58:33.000Z</time>
        <extensions>
          <ns3:TrackPointExtension>
            <ns3:hr>107</ns3:hr>
            <ns3:cad>0</ns3:cad>
          </ns3:TrackPointExtension>
        </extensions>
      </trkpt>
      <trkpt lat="37.97782902605831623077392578125" lon="-107.735113687813282012939453125">
        <ele>3392.39990234375</ele>
        <time>2026-08-15T18:58:35.000Z</time>
        <extensions>
          <ns3:TrackPointExtension>
            <ns3:hr>110</ns3:hr>
            <ns3:cad>0</ns3:cad>
          </ns3:TrackPointExtension>
        </extensions>
      </trkpt>
      <trkpt lat="37.977827601134777069091796875" lon="-107.735144533216953277587890625">
        <ele>3391.800048828125</ele>
        <time>2026-08-15T18:58:37.000Z</time>
        <extensions>
          <ns3:TrackPointExtension>
            <ns3:hr>113</ns3:hr>
            <ns3:cad>0</ns3:cad>
          </ns3:TrackPointExtension>
        </extensions>
      </trkpt>
      <trkpt lat="37.97782634384930133819580078125" lon="-107.73515735752880573272705078125">
        <ele>3391.60009765625</ele>
        <time>2026-08-15T18:58:38.000Z</time>
        <extensions>
          <ns3:TrackPointExtension>
            <ns3:hr>115</ns3:hr>
            <ns3:cad>0</ns3:cad>
          </ns3:TrackPointExtension>
        </extensions>
      </trkpt>
      <trkpt lat="37.977818548679351806640625" lon="-107.7351970039308071136474609375">
        <ele>3390.800048828125</ele>
        <time>2026-08-15T18:58:41.000Z</time>
        <extensions>
          <ns3:TrackPointExtension>
            <ns3:hr>116</ns3:hr>
            <ns3:cad>0</ns3:cad>
          </ns3:TrackPointExtension>
        </extensions>
      </trkpt>
      <trkpt lat="37.9778133518993854522705078125" lon="-107.735235393047332763671875">
        <ele>3390.39990234375</ele>
        <time>2026-08-15T18:58:44.000Z</time>
        <extensions>
          <ns3:TrackPointExtension>
            <ns3:hr>115</ns3:hr>
            <ns3:cad>0</ns3:cad>
          </ns3:TrackPointExtension>
        </extensions>
      </trkpt>
      <trkpt lat="37.9778073169291019439697265625" lon="-107.7352714352309703826904296875">
        <ele>3389.800048828125</ele>
        <time>2026-08-15T18:58:47.000Z</time>
        <extensions>
          <ns3:TrackPointExtension>
            <ns3:hr>112</ns3:hr>
            <ns3:cad>0</ns3:cad>
          </ns3:TrackPointExtension>
        </extensions>
      </trkpt>
      <trkpt lat="37.97780488617718219757080078125" lon="-107.735278643667697906494140625">
        <ele>3389.60009765625</ele>
        <time>2026-08-15T18:58:48.000Z</time>
        <extensions>
          <ns3:TrackPointExtension>
            <ns3:hr>110</ns3:hr>
            <ns3:cad>0</ns3:cad>
          </ns3:TrackPointExtension>
        </extensions>
      </trkpt>
      <trkpt lat="37.9777985997498035430908203125" lon="-107.73528694175183773040771484375">
        <ele>3389.199951171875</ele>
        <time>2026-08-15T18:58:49.000Z</time>
        <extensions>
          <ns3:TrackPointExtension>
            <ns3:hr>109</ns3:hr>
            <ns3:cad>0</ns3:cad>
          </ns3:TrackPointExtension>
        </extensions>
      </trkpt>
      <trkpt lat="37.977794073522090911865234375" lon="-107.73532382212579250335693359375">
        <ele>3388.39990234375</ele>
        <time>2026-08-15T18:58:52.000Z</time>
        <extensions>
          <ns3:TrackPointExtension>
            <ns3:hr>109</ns3:hr>
            <ns3:cad>0</ns3:cad>
          </ns3:TrackPointExtension>
        </extensions>
      </trkpt>
      <trkpt lat="37.97779248096048831939697265625" lon="-107.7353371493518352508544921875">
        <ele>3388.199951171875</ele>
        <time>2026-08-15T18:58:53.000Z</time>
        <extensions>
          <ns3:TrackPointExtension>
            <ns3:hr>108</ns3:hr>
            <ns3:cad>0</ns3:cad>
          </ns3:TrackPointExtension>
        </extensions>
      </trkpt>
      <trkpt lat="37.9777922295033931732177734375" lon="-107.73534544743597507476806640625">
        <ele>3388.199951171875</ele>
        <time>2026-08-15T18:58:54.000Z</time>
        <extensions>
          <ns3:TrackPointExtension>
            <ns3:hr>108</ns3:hr>
            <ns3:cad>0</ns3:cad>
          </ns3:TrackPointExtension>
        </extensions>
      </trkpt>
      <trkpt lat="37.977794744074344635009765625" lon="-107.735412418842315673828125">
        <ele>3387.199951171875</ele>
        <time>2026-08-15T18:58:59.000Z</time>
        <extensions>
          <ns3:TrackPointExtension>
            <ns3:hr>111</ns3:hr>
            <ns3:cad>61</ns3:cad>
          </ns3:TrackPointExtension>
        </extensions>
      </trkpt>
      <trkpt lat="37.97779382206499576568603515625" lon="-107.7354226447641849517822265625">
        <ele>3387</ele>
        <time>2026-08-15T18:59:00.000Z</time>
        <extensions>
          <ns3:TrackPointExtension>
            <ns3:hr>111</ns3:hr>
            <ns3:cad>61</ns3:cad>
          </ns3:TrackPointExtension>
        </extensions>
      </trkpt>
      <trkpt lat="37.97779365442693233489990234375" lon="-107.7354789711534976959228515625">
        <ele>3386.199951171875</ele>
        <time>2026-08-15T18:59:06.000Z</time>
        <extensions>
          <ns3:TrackPointExtension>
            <ns3:hr>110</ns3:hr>
            <ns3:cad>61</ns3:cad>
          </ns3:TrackPointExtension>
        </extensions>
      </trkpt>
      <trkpt lat="37.97779566608369350433349609375" lon="-107.735485173761844635009765625">
        <ele>3386</ele>
        <time>2026-08-15T18:59:07.000Z</time>
        <extensions>
          <ns3:TrackPointExtension>
            <ns3:hr>110</ns3:hr>
            <ns3:cad>61</ns3:cad>
          </ns3:TrackPointExtension>
        </extensions>
      </trkpt>
      <trkpt lat="37.9777972586452960968017578125" lon="-107.73548978380858898162841796875">
        <ele>3385.800048828125</ele>
        <time>2026-08-15T18:59:08.000Z</time>
        <extensions>
          <ns3:TrackPointExtension>
            <ns3:hr>110</ns3:hr>
            <ns3:cad>74</ns3:cad>
          </ns3:TrackPointExtension>
        </extensions>
      </trkpt>
      <trkpt lat="37.9777918942272663116455078125" lon="-107.7354893647134304046630859375">
        <ele>3385.60009765625</ele>
        <time>2026-08-15T18:59:09.000Z</time>
        <extensions>
          <ns3:TrackPointExtension>
            <ns3:hr>110</ns3:hr>
            <ns3:cad>74</ns3:cad>
          </ns3:TrackPointExtension>
        </extensions>
      </trkpt>
      <trkpt lat="37.97778166830539703369140625" lon="-107.735489197075366973876953125">
        <ele>3385.39990234375</ele>
        <time>2026-08-15T18:59:11.000Z</time>
        <extensions>
          <ns3:TrackPointExtension>
            <ns3:hr>109</ns3:hr>
            <ns3:cad>77</ns3:cad>
          </ns3:TrackPointExtension>
        </extensions>
      </trkpt>
      <trkpt lat="37.9777704365551471710205078125" lon="-107.73547586984932422637939453125">
        <ele>3385</ele>
        <time>2026-08-15T18:59:13.000Z</time>
        <extensions>
          <ns3:TrackPointExtension>
            <ns3:hr>110</ns3:hr>
            <ns3:cad>77</ns3:cad>
          </ns3:TrackPointExtension>
        </extensions>
      </trkpt>
      <trkpt lat="37.97776364721357822418212890625" lon="-107.73546807467937469482421875">
        <ele>3384.60009765625</ele>
        <time>2026-08-15T18:59:14.000Z</time>
        <extensions>
          <ns3:TrackPointExtension>
            <ns3:hr>110</ns3:hr>
            <ns3:cad>77</ns3:cad>
          </ns3:TrackPointExtension>
        </extensions>
      </trkpt>
      <trkpt lat="37.97773984260857105255126953125" lon="-107.735448963940143585205078125">
        <ele>3383.60009765625</ele>
        <time>2026-08-15T18:59:17.000Z</time>
        <extensions>
          <ns3:TrackPointExtension>
            <ns3:hr>110</ns3:hr>
            <ns3:cad>40</ns3:cad>
          </ns3:TrackPointExtension>
        </extensions>
      </trkpt>
      <trkpt lat="37.97771687619388103485107421875" lon="-107.73542809300124645233154296875">
        <ele>3382.60009765625</ele>
        <time>2026-08-15T18:59:20.000Z</time>
        <extensions>
          <ns3:TrackPointExtension>
            <ns3:hr>110</ns3:hr>
            <ns3:cad>40</ns3:cad>
          </ns3:TrackPointExtension>
        </extensions>
      </trkpt>
      <trkpt lat="37.97770765610039234161376953125" lon="-107.73542247712612152099609375">
        <ele>3382.39990234375</ele>
        <time>2026-08-15T18:59:21.000Z</time>
        <extensions>
          <ns3:TrackPointExtension>
            <ns3:hr>110</ns3:hr>
            <ns3:cad>40</ns3:cad>
          </ns3:TrackPointExtension>
        </extensions>
      </trkpt>
      <trkpt lat="37.97767044045031070709228515625" lon="-107.73534863255918025970458984375">
        <ele>3381.39990234375</ele>
        <time>2026-08-15T18:59:27.000Z</time>
        <extensions>
          <ns3:TrackPointExtension>
            <ns3:hr>111</ns3:hr>
            <ns3:cad>0</ns3:cad>
          </ns3:TrackPointExtension>
        </extensions>
      </trkpt>
      <trkpt lat="37.97766407020390033721923828125" lon="-107.73533991537988185882568359375">
        <ele>3381.39990234375</ele>
        <time>2026-08-15T18:59:28.000Z</time>
        <extensions>
          <ns3:TrackPointExtension>
            <ns3:hr>111</ns3:hr>
            <ns3:cad>0</ns3:cad>
          </ns3:TrackPointExtension>
        </extensions>
      </trkpt>
      <trkpt lat="37.97764060087502002716064453125" lon="-107.73530001752078533172607421875">
        <ele>3380.39990234375</ele>
        <time>2026-08-15T18:59:31.000Z</time>
        <extensions>
          <ns3:TrackPointExtension>
            <ns3:hr>110</ns3:hr>
            <ns3:cad>57</ns3:cad>
          </ns3:TrackPointExtension>
        </extensions>
      </trkpt>
      <trkpt lat="37.97762568108737468719482421875" lon="-107.7352835051715373992919921875">
        <ele>3379.800048828125</ele>
        <time>2026-08-15T18:59:33.000Z</time>
        <extensions>
          <ns3:TrackPointExtension>
            <ns3:hr>111</ns3:hr>
            <ns3:cad>57</ns3:cad>
          </ns3:TrackPointExtension>
        </extensions>
      </trkpt>
      <trkpt lat="37.977617047727108001708984375" lon="-107.7352449484169483184814453125">
        <ele>3379</ele>
        <time>2026-08-15T18:59:36.000Z</time>
        <extensions>
          <ns3:TrackPointExtension>
            <ns3:hr>111</ns3:hr>
            <ns3:cad>0</ns3:cad>
          </ns3:TrackPointExtension>
        </extensions>
      </trkpt>
      <trkpt lat="37.97760623507201671600341796875" lon="-107.735204212367534637451171875">
        <ele>3378.199951171875</ele>
        <time>2026-08-15T18:59:39.000Z</time>
        <extensions>
          <ns3:TrackPointExtension>
            <ns3:hr>114</ns3:hr>
            <ns3:cad>0</ns3:cad>
          </ns3:TrackPointExtension>
        </extensions>
      </trkpt>
      <trkpt lat="37.9776014573872089385986328125" lon="-107.73519624955952167510986328125">
        <ele>3378</ele>
        <time>2026-08-15T18:59:40.000Z</time>
        <extensions>
          <ns3:TrackPointExtension>
            <ns3:hr>115</ns3:hr>
            <ns3:cad>0</ns3:cad>
          </ns3:TrackPointExtension>
        </extensions>
      </trkpt>
      <trkpt lat="37.97757958061993122100830078125" lon="-107.7351269312202930450439453125">
        <ele>3377</ele>
        <time>2026-08-15T18:59:46.000Z</time>
        <extensions>
          <ns3:TrackPointExtension>
            <ns3:hr>116</ns3:hr>
            <ns3:cad>0</ns3:cad>
          </ns3:TrackPointExtension>
        </extensions>
      </trkpt>
      <trkpt lat="37.97756331972777843475341796875" lon="-107.7350907213985919952392578125">
        <ele>3375.800048828125</ele>
        <time>2026-08-15T18:59:50.000Z</time>
        <extensions>
          <ns3:TrackPointExtension>
            <ns3:hr>116</ns3:hr>
            <ns3:cad>55</ns3:cad>
          </ns3:TrackPointExtension>
        </extensions>
      </trkpt>
      <trkpt lat="37.97755577601492404937744140625" lon="-107.7350843511521816253662109375">
        <ele>3375.39990234375</ele>
        <time>2026-08-15T18:59:51.000Z</time>
        <extensions>
          <ns3:TrackPointExtension>
            <ns3:hr>116</ns3:hr>
            <ns3:cad>0</ns3:cad>
          </ns3:TrackPointExtension>
        </extensions>
      </trkpt>
      <trkpt lat="37.9775515012443065643310546875" lon="-107.73507722653448581695556640625">
        <ele>3375.199951171875</ele>
        <time>2026-08-15T18:59:52.000Z</time>
        <extensions>
          <ns3:TrackPointExtension>
            <ns3:hr>115</ns3:hr>
            <ns3:cad>0</ns3:cad>
          </ns3:TrackPointExtension>
        </extensions>
      </trkpt>
      <trkpt lat="37.9775489866733551025390625" lon="-107.73506104946136474609375">
        <ele>3375</ele>
        <time>2026-08-15T18:59:53.000Z</time>
        <extensions>
          <ns3:TrackPointExtension>
            <ns3:hr>115</ns3:hr>
            <ns3:cad>60</ns3:cad>
          </ns3:TrackPointExtension>
        </extensions>
      </trkpt>
      <trkpt lat="37.97753624618053436279296875" lon="-107.73502022959291934967041015625">
        <ele>3374.60009765625</ele>
        <time>2026-08-15T18:59:57.000Z</time>
        <extensions>
          <ns3:TrackPointExtension>
            <ns3:hr>115</ns3:hr>
            <ns3:cad>60</ns3:cad>
          </ns3:TrackPointExtension>
        </extensions>
      </trkpt>
      <trkpt lat="37.9775330610573291778564453125" lon="-107.7350089140236377716064453125">
        <ele>3374.39990234375</ele>
        <time>2026-08-15T18:59:58.000Z</time>
        <extensions>
          <ns3:TrackPointExtension>
            <ns3:hr>115</ns3:hr>
            <ns3:cad>53</ns3:cad>
          </ns3:TrackPointExtension>
        </extensions>
      </trkpt>
      <trkpt lat="37.97752526588737964630126953125" lon="-107.73497530259191989898681640625">
        <ele>3373.60009765625</ele>
        <time>2026-08-15T19:00:01.000Z</time>
        <extensions>
          <ns3:TrackPointExtension>
            <ns3:hr>116</ns3:hr>
            <ns3:cad>0</ns3:cad>
          </ns3:TrackPointExtension>
        </extensions>
      </trkpt>
      <trkpt lat="37.9775085859000682830810546875" lon="-107.7349106781184673309326171875">
        <ele>3372.800048828125</ele>
        <time>2026-08-15T19:00:06.000Z</time>
        <extensions>
          <ns3:TrackPointExtension>
            <ns3:hr>115</ns3:hr>
            <ns3:cad>0</ns3:cad>
          </ns3:TrackPointExtension>
        </extensions>
      </trkpt>
      <trkpt lat="37.97750548459589481353759765625" lon="-107.73488762788474559783935546875">
        <ele>3372.39990234375</ele>
        <time>2026-08-15T19:00:08.000Z</time>
        <extensions>
          <ns3:TrackPointExtension>
            <ns3:hr>115</ns3:hr>
            <ns3:cad>0</ns3:cad>
          </ns3:TrackPointExtension>
        </extensions>
      </trkpt>
      <trkpt lat="37.97748721204698085784912109375" lon="-107.73482996039092540740966796875">
        <ele>3371.39990234375</ele>
        <time>2026-08-15T19:00:12.000Z</time>
        <extensions>
          <ns3:TrackPointExtension>
            <ns3:hr>113</ns3:hr>
            <ns3:cad>40</ns3:cad>
          </ns3:TrackPointExtension>
        </extensions>
      </trkpt>
      <trkpt lat="37.9774831049144268035888671875" lon="-107.73481227457523345947265625">
        <ele>3371.199951171875</ele>
        <time>2026-08-15T19:00:13.000Z</time>
        <extensions>
          <ns3:TrackPointExtension>
            <ns3:hr>112</ns3:hr>
            <ns3:cad>40</ns3:cad>
          </ns3:TrackPointExtension>
        </extensions>
      </trkpt>
      <trkpt lat="37.97746323980391025543212890625" lon="-107.7347655035555362701416015625">
        <ele>3370.39990234375</ele>
        <time>2026-08-15T19:00:18.000Z</time>
        <extensions>
          <ns3:TrackPointExtension>
            <ns3:hr>111</ns3:hr>
            <ns3:cad>0</ns3:cad>
          </ns3:TrackPointExtension>
        </extensions>
      </trkpt>
      <trkpt lat="37.9774576239287853240966796875" lon="-107.7347373403608798980712890625">
        <ele>3370.199951171875</ele>
        <time>2026-08-15T19:00:20.000Z</time>
        <extensions>
          <ns3:TrackPointExtension>
            <ns3:hr>111</ns3:hr>
            <ns3:cad>0</ns3:cad>
          </ns3:TrackPointExtension>
        </extensions>
      </trkpt>
      <trkpt lat="37.9774470627307891845703125" lon="-107.734704315662384033203125">
        <ele>3369.199951171875</ele>
        <time>2026-08-15T19:00:23.000Z</time>
        <extensions>
          <ns3:TrackPointExtension>
            <ns3:hr>108</ns3:hr>
            <ns3:cad>0</ns3:cad>
          </ns3:TrackPointExtension>
        </extensions>
      </trkpt>
      <trkpt lat="37.9774311371147632598876953125" lon="-107.73465268313884735107421875">
        <ele>3368.39990234375</ele>
        <time>2026-08-15T19:00:27.000Z</time>
        <extensions>
          <ns3:TrackPointExtension>
            <ns3:hr>105</ns3:hr>
            <ns3:cad>0</ns3:cad>
          </ns3:TrackPointExtension>
        </extensions>
      </trkpt>
      <trkpt lat="37.977427281439304351806640625" lon="-107.73464069701731204986572265625">
        <ele>3368.199951171875</ele>
        <time>2026-08-15T19:00:28.000Z</time>
        <extensions>
          <ns3:TrackPointExtension>
            <ns3:hr>105</ns3:hr>
            <ns3:cad>0</ns3:cad>
          </ns3:TrackPointExtension>
        </extensions>
      </trkpt>
      <trkpt lat="37.9774066619575023651123046875" lon="-107.7345790900290012359619140625">
        <ele>3367.199951171875</ele>
        <time>2026-08-15T19:00:33.000Z</time>
        <extensions>
          <ns3:TrackPointExtension>
            <ns3:hr>104</ns3:hr>
            <ns3:cad>77</ns3:cad>
          </ns3:TrackPointExtension>
        </extensions>
      </trkpt>
      <trkpt lat="37.9774002917110919952392578125" lon="-107.73455570451915264129638671875">
        <ele>3366.800048828125</ele>
        <time>2026-08-15T19:00:35.000Z</time>
        <extensions>
          <ns3:TrackPointExtension>
            <ns3:hr>104</ns3:hr>
            <ns3:cad>77</ns3:cad>
          </ns3:TrackPointExtension>
        </extensions>
      </trkpt>
      <trkpt lat="37.9773892275989055633544921875" lon="-107.7345214225351810455322265625">
        <ele>3366</ele>
        <time>2026-08-15T19:00:39.000Z</time>
        <extensions>
          <ns3:TrackPointExtension>
            <ns3:hr>105</ns3:hr>
            <ns3:cad>0</ns3:cad>
          </ns3:TrackPointExtension>
        </extensions>
      </trkpt>
      <trkpt lat="37.9773815162479877471923828125" lon="-107.73450993932783603668212890625">
        <ele>3365.800048828125</ele>
        <time>2026-08-15T19:00:40.000Z</time>
        <extensions>
          <ns3:TrackPointExtension>
            <ns3:hr>104</ns3:hr>
            <ns3:cad>0</ns3:cad>
          </ns3:TrackPointExtension>
        </extensions>
      </trkpt>
      <trkpt lat="37.97736466862261295318603515625" lon="-107.7344711311161518096923828125">
        <ele>3365</ele>
        <time>2026-08-15T19:00:43.000Z</time>
        <extensions>
          <ns3:TrackPointExtension>
            <ns3:hr>105</ns3:hr>
            <ns3:cad>0</ns3:cad>
          </ns3:TrackPointExtension>
        </extensions>
      </trkpt>
      <trkpt lat="37.977354861795902252197265625" lon="-107.73444321937859058380126953125">
        <ele>3364.199951171875</ele>
        <time>2026-08-15T19:00:46.000Z</time>
        <extensions>
          <ns3:TrackPointExtension>
            <ns3:hr>107</ns3:hr>
            <ns3:cad>0</ns3:cad>
          </ns3:TrackPointExtension>
        </extensions>
      </trkpt>
      <trkpt lat="37.97735326923429965972900390625" lon="-107.73442125879228115081787109375">
        <ele>3363.800048828125</ele>
        <time>2026-08-15T19:00:48.000Z</time>
        <extensions>
          <ns3:TrackPointExtension>
            <ns3:hr>108</ns3:hr>
            <ns3:cad>0</ns3:cad>
          </ns3:TrackPointExtension>
        </extensions>
      </trkpt>
      <trkpt lat="37.9773443005979061126708984375" lon="-107.73440382443368434906005859375">
        <ele>3362.800048828125</ele>
        <time>2026-08-15T19:00:51.000Z</time>
        <extensions>
          <ns3:TrackPointExtension>
            <ns3:hr>108</ns3:hr>
            <ns3:cad>0</ns3:cad>
          </ns3:TrackPointExtension>
        </extensions>
      </trkpt>
      <trkpt lat="37.977341450750827789306640625" lon="-107.73439493961632251739501953125">
        <ele>3362.60009765625</ele>
        <time>2026-08-15T19:00:52.000Z</time>
        <extensions>
          <ns3:TrackPointExtension>
            <ns3:hr>108</ns3:hr>
            <ns3:cad>60</ns3:cad>
          </ns3:TrackPointExtension>
        </extensions>
      </trkpt>
      <trkpt lat="37.97733047045767307281494140625" lon="-107.73434615693986415863037109375">
        <ele>3361.800048828125</ele>
        <time>2026-08-15T19:00:58.000Z</time>
        <extensions>
          <ns3:TrackPointExtension>
            <ns3:hr>109</ns3:hr>
            <ns3:cad>0</ns3:cad>
          </ns3:TrackPointExtension>
        </extensions>
      </trkpt>
      <trkpt lat="37.977328039705753326416015625" lon="-107.73434012196958065032958984375">
        <ele>3361.60009765625</ele>
        <time>2026-08-15T19:00:59.000Z</time>
        <extensions>
          <ns3:TrackPointExtension>
            <ns3:hr>108</ns3:hr>
            <ns3:cad>0</ns3:cad>
          </ns3:TrackPointExtension>
        </extensions>
      </trkpt>
      <trkpt lat="37.9773137904703617095947265625" lon="-107.734298296272754669189453125">
        <ele>3360.39990234375</ele>
        <time>2026-08-15T19:01:03.000Z</time>
        <extensions>
          <ns3:TrackPointExtension>
            <ns3:hr>108</ns3:hr>
            <ns3:cad>75</ns3:cad>
          </ns3:TrackPointExtension>
        </extensions>
      </trkpt>
      <trkpt lat="37.97730834223330020904541015625" lon="-107.73426971398293972015380859375">
        <ele>3360</ele>
        <time>2026-08-15T19:01:05.000Z</time>
        <extensions>
          <ns3:TrackPointExtension>
            <ns3:hr>109</ns3:hr>
            <ns3:cad>77</ns3:cad>
          </ns3:TrackPointExtension>
        </extensions>
      </trkpt>
      <trkpt lat="37.97729015350341796875" lon="-107.73419394157826900482177734375">
        <ele>3359.199951171875</ele>
        <time>2026-08-15T19:01:10.000Z</time>
        <extensions>
          <ns3:TrackPointExtension>
            <ns3:hr>111</ns3:hr>
            <ns3:cad>80</ns3:cad>
          </ns3:TrackPointExtension>
        </extensions>
      </trkpt>
      <trkpt lat="37.97728822566568851470947265625" lon="-107.7341485954821109771728515625">
        <ele>3358.39990234375</ele>
        <time>2026-08-15T19:01:13.000Z</time>
        <extensions>
          <ns3:TrackPointExtension>
            <ns3:hr>112</ns3:hr>
            <ns3:cad>76</ns3:cad>
          </ns3:TrackPointExtension>
        </extensions>
      </trkpt>
      <trkpt lat="37.97728721983730792999267578125" lon="-107.73413711227476596832275390625">
        <ele>3358.199951171875</ele>
        <time>2026-08-15T19:01:14.000Z</time>
        <extensions>
          <ns3:TrackPointExtension>
            <ns3:hr>113</ns3:hr>
            <ns3:cad>76</ns3:cad>
          </ns3:TrackPointExtension>
        </extensions>
      </trkpt>
      <trkpt lat="37.97727783210575580596923828125" lon="-107.7340949513018131256103515625">
        <ele>3357.60009765625</ele>
        <time>2026-08-15T19:01:18.000Z</time>
        <extensions>
          <ns3:TrackPointExtension>
            <ns3:hr>113</ns3:hr>
            <ns3:cad>0</ns3:cad>
          </ns3:TrackPointExtension>
        </extensions>
      </trkpt>
      <trkpt lat="37.97727875411510467529296875" lon="-107.73408246226608753204345703125">
        <ele>3357.39990234375</ele>
        <time>2026-08-15T19:01:19.000Z</time>
        <extensions>
          <ns3:TrackPointExtension>
            <ns3:hr>114</ns3:hr>
            <ns3:cad>0</ns3:cad>
          </ns3:TrackPointExtension>
        </extensions>
      </trkpt>
      <trkpt lat="37.9772712104022502899169921875" lon="-107.73405849002301692962646484375">
        <ele>3357</ele>
        <time>2026-08-15T19:01:21.000Z</time>
        <extensions>
          <ns3:TrackPointExtension>
            <ns3:hr>114</ns3:hr>
            <ns3:cad>0</ns3:cad>
          </ns3:TrackPointExtension>
        </extensions>
      </trkpt>
      <trkpt lat="37.97725905664265155792236328125" lon="-107.73399956524372100830078125">
        <ele>3356</ele>
        <time>2026-08-15T19:01:25.000Z</time>
        <extensions>
          <ns3:TrackPointExtension>
            <ns3:hr>112</ns3:hr>
            <ns3:cad>0</ns3:cad>
          </ns3:TrackPointExtension>
        </extensions>
      </trkpt>
      <trkpt lat="37.97726073302328586578369140625" lon="-107.73395757190883159637451171875">
        <ele>3354.800048828125</ele>
        <time>2026-08-15T19:01:29.000Z</time>
        <extensions>
          <ns3:TrackPointExtension>
            <ns3:hr>111</ns3:hr>
            <ns3:cad>77</ns3:cad>
          </ns3:TrackPointExtension>
        </extensions>
      </trkpt>
      <trkpt lat="37.9772561229765415191650390625" lon="-107.73394684307277202606201171875">
        <ele>3354.60009765625</ele>
        <time>2026-08-15T19:01:30.000Z</time>
        <extensions>
          <ns3:TrackPointExtension>
            <ns3:hr>111</ns3:hr>
            <ns3:cad>77</ns3:cad>
          </ns3:TrackPointExtension>
        </extensions>
      </trkpt>
      <trkpt lat="37.9772437177598476409912109375" lon="-107.73389453999698162078857421875">
        <ele>3353.60009765625</ele>
        <time>2026-08-15T19:01:35.000Z</time>
        <extensions>
          <ns3:TrackPointExtension>
            <ns3:hr>110</ns3:hr>
            <ns3:cad>0</ns3:cad>
          </ns3:TrackPointExtension>
        </extensions>
      </trkpt>
      <trkpt lat="37.977239191532135009765625" lon="-107.7338743396103382110595703125">
        <ele>3353.199951171875</ele>
        <time>2026-08-15T19:01:37.000Z</time>
        <extensions>
          <ns3:TrackPointExtension>
            <ns3:hr>108</ns3:hr>
            <ns3:cad>0</ns3:cad>
          </ns3:TrackPointExtension>
        </extensions>
      </trkpt>
      <trkpt lat="37.9772353358566761016845703125" lon="-107.733845673501491546630859375">
        <ele>3352.39990234375</ele>
        <time>2026-08-15T19:01:40.000Z</time>
        <extensions>
          <ns3:TrackPointExtension>
            <ns3:hr>105</ns3:hr>
            <ns3:cad>19</ns3:cad>
          </ns3:TrackPointExtension>
        </extensions>
      </trkpt>
      <trkpt lat="37.97723206691443920135498046875" lon="-107.73382044397294521331787109375">
        <ele>3351.800048828125</ele>
        <time>2026-08-15T19:01:43.000Z</time>
        <extensions>
          <ns3:TrackPointExtension>
            <ns3:hr>105</ns3:hr>
            <ns3:cad>19</ns3:cad>
          </ns3:TrackPointExtension>
        </extensions>
      </trkpt>
      <trkpt lat="37.97723307274281978607177734375" lon="-107.7338059432804584503173828125">
        <ele>3351.39990234375</ele>
        <time>2026-08-15T19:01:45.000Z</time>
        <extensions>
          <ns3:TrackPointExtension>
            <ns3:hr>105</ns3:hr>
            <ns3:cad>0</ns3:cad>
          </ns3:TrackPointExtension>
        </extensions>
      </trkpt>
      <trkpt lat="37.9772054962813854217529296875" lon="-107.733787000179290771484375">
        <ele>3350.60009765625</ele>
        <time>2026-08-15T19:01:49.000Z</time>
        <extensions>
          <ns3:TrackPointExtension>
            <ns3:hr>106</ns3:hr>
            <ns3:cad>0</ns3:cad>
          </ns3:TrackPointExtension>
        </extensions>
      </trkpt>
      <trkpt lat="37.97719870693981647491455078125" lon="-107.733792029321193695068359375">
        <ele>3350.199951171875</ele>
        <time>2026-08-15T19:01:50.000Z</time>
        <extensions>
          <ns3:TrackPointExtension>
            <ns3:hr>107</ns3:hr>
            <ns3:cad>0</ns3:cad>
          </ns3:TrackPointExtension>
        </extensions>
      </trkpt>
      <trkpt lat="37.97717054374516010284423828125" lon="-107.73379781283438205718994140625">
        <ele>3349.199951171875</ele>
        <time>2026-08-15T19:01:54.000Z</time>
        <extensions>
          <ns3:TrackPointExtension>
            <ns3:hr>110</ns3:hr>
            <ns3:cad>0</ns3:cad>
          </ns3:TrackPointExtension>
        </extensions>
      </trkpt>
      <trkpt lat="37.97716786153614521026611328125" lon="-107.73379915393888950347900390625">
        <ele>3348.800048828125</ele>
        <time>2026-08-15T19:01:56.000Z</time>
        <extensions>
          <ns3:TrackPointExtension>
            <ns3:hr>111</ns3:hr>
            <ns3:cad>0</ns3:cad>
          </ns3:TrackPointExtension>
        </extensions>
      </trkpt>
      <trkpt lat="37.97713349573314189910888671875" lon="-107.733820863068103790283203125">
        <ele>3348.199951171875</ele>
        <time>2026-08-15T19:02:02.000Z</time>
        <extensions>
          <ns3:TrackPointExtension>
            <ns3:hr>112</ns3:hr>
            <ns3:cad>0</ns3:cad>
          </ns3:TrackPointExtension>
        </extensions>
      </trkpt>
      <trkpt lat="37.97710818238556385040283203125" lon="-107.73385279811918735504150390625">
        <ele>3347</ele>
        <time>2026-08-15T19:02:06.000Z</time>
        <extensions>
          <ns3:TrackPointExtension>
            <ns3:hr>112</ns3:hr>
            <ns3:cad>0</ns3:cad>
          </ns3:TrackPointExtension>
        </extensions>
      </trkpt>
      <trkpt lat="37.97708705998957157135009765625" lon="-107.7338902652263641357421875">
        <ele>3346.39990234375</ele>
        <time>2026-08-15T19:02:09.000Z</time>
        <extensions>
          <ns3:TrackPointExtension>
            <ns3:hr>111</ns3:hr>
            <ns3:cad>0</ns3:cad>
          </ns3:TrackPointExtension>
        </extensions>
      </trkpt>
      <trkpt lat="37.97707532532513141632080078125" lon="-107.73391817696392536163330078125">
        <ele>3345.800048828125</ele>
        <time>2026-08-15T19:02:11.000Z</time>
        <extensions>
          <ns3:TrackPointExtension>
            <ns3:hr>111</ns3:hr>
            <ns3:cad>0</ns3:cad>
          </ns3:TrackPointExtension>
        </extensions>
      </trkpt>
      <trkpt lat="37.97705604694783687591552734375" lon="-107.733966372907161712646484375">
        <ele>3345</ele>
        <time>2026-08-15T19:02:16.000Z</time>
        <extensions>
          <ns3:TrackPointExtension>
            <ns3:hr>111</ns3:hr>
            <ns3:cad>0</ns3:cad>
          </ns3:TrackPointExtension>
        </extensions>
      </trkpt>
      <trkpt lat="37.9770536161959171295166015625" lon="-107.73397215642035007476806640625">
        <ele>3344.60009765625</ele>
        <time>2026-08-15T19:02:18.000Z</time>
        <extensions>
          <ns3:TrackPointExtension>
            <ns3:hr>111</ns3:hr>
            <ns3:cad>0</ns3:cad>
          </ns3:TrackPointExtension>
        </extensions>
      </trkpt>
      <trkpt lat="37.977040372788906097412109375" lon="-107.733997888863086700439453125">
        <ele>3343.60009765625</ele>
        <time>2026-08-15T19:02:22.000Z</time>
        <extensions>
          <ns3:TrackPointExtension>
            <ns3:hr>109</ns3:hr>
            <ns3:cad>0</ns3:cad>
          </ns3:TrackPointExtension>
        </extensions>
      </trkpt>
      <trkpt lat="37.97703090123832225799560546875" lon="-107.7340523712337017059326171875">
        <ele>3342.60009765625</ele>
        <time>2026-08-15T19:02:26.000Z</time>
        <extensions>
          <ns3:TrackPointExtension>
            <ns3:hr>106</ns3:hr>
            <ns3:cad>46</ns3:cad>
          </ns3:TrackPointExtension>
        </extensions>
      </trkpt>
      <trkpt lat="37.977027632296085357666015625" lon="-107.73406301625072956085205078125">
        <ele>3342.39990234375</ele>
        <time>2026-08-15T19:02:27.000Z</time>
        <extensions>
          <ns3:TrackPointExtension>
            <ns3:hr>106</ns3:hr>
            <ns3:cad>46</ns3:cad>
          </ns3:TrackPointExtension>
        </extensions>
      </trkpt>
      <trkpt lat="37.97702402807772159576416015625" lon="-107.73407173343002796173095703125">
        <ele>3342.39990234375</ele>
        <time>2026-08-15T19:02:28.000Z</time>
        <extensions>
          <ns3:TrackPointExtension>
            <ns3:hr>105</ns3:hr>
            <ns3:cad>0</ns3:cad>
          </ns3:TrackPointExtension>
        </extensions>
      </trkpt>
      <trkpt lat="37.97700592316687107086181640625" lon="-107.7341301552951335906982421875">
        <ele>3341.39990234375</ele>
        <time>2026-08-15T19:02:34.000Z</time>
        <extensions>
          <ns3:TrackPointExtension>
            <ns3:hr>108</ns3:hr>
            <ns3:cad>0</ns3:cad>
          </ns3:TrackPointExtension>
        </extensions>
      </trkpt>
      <trkpt lat="37.97699972055852413177490234375" lon="-107.73414306342601776123046875">
        <ele>3340.60009765625</ele>
        <time>2026-08-15T19:02:37.000Z</time>
        <extensions>
          <ns3:TrackPointExtension>
            <ns3:hr>106</ns3:hr>
            <ns3:cad>0</ns3:cad>
          </ns3:TrackPointExtension>
        </extensions>
      </trkpt>
      <trkpt lat="37.97699988819658756256103515625" lon="-107.73414348252117633819580078125">
        <ele>3340.199951171875</ele>
        <time>2026-08-15T19:02:39.000Z</time>
        <extensions>
          <ns3:TrackPointExtension>
            <ns3:hr>104</ns3:hr>
            <ns3:cad>0</ns3:cad>
          </ns3:TrackPointExtension>
        </extensions>
      </trkpt>
      <trkpt lat="37.97699988819658756256103515625" lon="-107.73414348252117633819580078125">
        <ele>3340</ele>
        <time>2026-08-15T19:02:41.000Z</time>
        <extensions>
          <ns3:TrackPointExtension>
            <ns3:hr>101</ns3:hr>
            <ns3:cad>0</ns3:cad>
          </ns3:TrackPointExtension>
        </extensions>
      </trkpt>
      <trkpt lat="37.9769979603588581085205078125" lon="-107.734163515269756317138671875">
        <ele>3340.199951171875</ele>
        <time>2026-08-15T19:02:45.000Z</time>
        <extensions>
          <ns3:TrackPointExtension>
            <ns3:hr>99</ns3:hr>
            <ns3:cad>0</ns3:cad>
          </ns3:TrackPointExtension>
        </extensions>
      </trkpt>
      <trkpt lat="37.97699117101728916168212890625" lon="-107.73422813974320888519287109375">
        <ele>3339</ele>
        <time>2026-08-15T19:02:50.000Z</time>
        <extensions>
          <ns3:TrackPointExtension>
            <ns3:hr>102</ns3:hr>
            <ns3:cad>43</ns3:cad>
          </ns3:TrackPointExtension>
        </extensions>
      </trkpt>
      <trkpt lat="37.9769822023808956146240234375" lon="-107.7342548780143260955810546875">
        <ele>3338.199951171875</ele>
        <time>2026-08-15T19:02:52.000Z</time>
        <extensions>
          <ns3:TrackPointExtension>
            <ns3:hr>104</ns3:hr>
            <ns3:cad>43</ns3:cad>
          </ns3:TrackPointExtension>
        </extensions>
      </trkpt>
      <trkpt lat="37.97697608359158039093017578125" lon="-107.73427641950547695159912109375">
        <ele>3337.800048828125</ele>
        <time>2026-08-15T19:02:54.000Z</time>
        <extensions>
          <ns3:TrackPointExtension>
            <ns3:hr>106</ns3:hr>
            <ns3:cad>43</ns3:cad>
          </ns3:TrackPointExtension>
        </extensions>
      </trkpt>
      <trkpt lat="37.976971305906772613525390625" lon="-107.73433358408510684967041015625">
        <ele>3337.199951171875</ele>
        <time>2026-08-15T19:02:58.000Z</time>
        <extensions>
          <ns3:TrackPointExtension>
            <ns3:hr>108</ns3:hr>
            <ns3:cad>42</ns3:cad>
          </ns3:TrackPointExtension>
        </extensions>
      </trkpt>
      <trkpt lat="37.9769669473171234130859375" lon="-107.734353952109813690185546875">
        <ele>3336.800048828125</ele>
        <time>2026-08-15T19:03:00.000Z</time>
        <extensions>
          <ns3:TrackPointExtension>
            <ns3:hr>108</ns3:hr>
            <ns3:cad>42</ns3:cad>
          </ns3:TrackPointExtension>
        </extensions>
      </trkpt>
      <trkpt lat="37.97695529647171497344970703125" lon="-107.73439586162567138671875">
        <ele>3335.800048828125</ele>
        <time>2026-08-15T19:03:05.000Z</time>
        <extensions>
          <ns3:TrackPointExtension>
            <ns3:hr>110</ns3:hr>
            <ns3:cad>79</ns3:cad>
          </ns3:TrackPointExtension>
        </extensions>
      </trkpt>
      <trkpt lat="37.9769523628056049346923828125" lon="-107.73440323770046234130859375">
        <ele>3335.60009765625</ele>
        <time>2026-08-15T19:03:06.000Z</time>
        <extensions>
          <ns3:TrackPointExtension>
            <ns3:hr>111</ns3:hr>
            <ns3:cad>40</ns3:cad>
          </ns3:TrackPointExtension>
        </extensions>
      </trkpt>
      <trkpt lat="37.976943813264369964599609375" lon="-107.7344164811074733734130859375">
        <ele>3334.60009765625</ele>
        <time>2026-08-15T19:03:08.000Z</time>
        <extensions>
          <ns3:TrackPointExtension>
            <ns3:hr>111</ns3:hr>
            <ns3:cad>19</ns3:cad>
          </ns3:TrackPointExtension>
        </extensions>
      </trkpt>
      <trkpt lat="37.97693073749542236328125" lon="-107.73445411585271358489990234375">
        <ele>3333.39990234375</ele>
        <time>2026-08-15T19:03:12.000Z</time>
        <extensions>
          <ns3:TrackPointExtension>
            <ns3:hr>110</ns3:hr>
            <ns3:cad>19</ns3:cad>
          </ns3:TrackPointExtension>
        </extensions>
      </trkpt>
      <trkpt lat="37.976919002830982208251953125" lon="-107.73452150635421276092529296875">
        <ele>3332.199951171875</ele>
        <time>2026-08-15T19:03:17.000Z</time>
        <extensions>
          <ns3:TrackPointExtension>
            <ns3:hr>109</ns3:hr>
            <ns3:cad>0</ns3:cad>
          </ns3:TrackPointExtension>
        </extensions>
      </trkpt>
      <trkpt lat="37.97691355459392070770263671875" lon="-107.73454983718693256378173828125">
        <ele>3331.199951171875</ele>
        <time>2026-08-15T19:03:20.000Z</time>
        <extensions>
          <ns3:TrackPointExtension>
            <ns3:hr>109</ns3:hr>
            <ns3:cad>61</ns3:cad>
          </ns3:TrackPointExtension>
        </extensions>
      </trkpt>
      <trkpt lat="37.97691036947071552276611328125" lon="-107.73457598872482776641845703125">
        <ele>3331.199951171875</ele>
        <time>2026-08-15T19:03:22.000Z</time>
        <extensions>
          <ns3:TrackPointExtension>
            <ns3:hr>109</ns3:hr>
            <ns3:cad>61</ns3:cad>
          </ns3:TrackPointExtension>
        </extensions>
      </trkpt>
      <trkpt lat="37.9768957011401653289794921875" lon="-107.7346283756196498870849609375">
        <ele>3330.60009765625</ele>
        <time>2026-08-15T19:03:26.000Z</time>
        <extensions>
          <ns3:TrackPointExtension>
            <ns3:hr>108</ns3:hr>
            <ns3:cad>0</ns3:cad>
          </ns3:TrackPointExtension>
        </extensions>
      </trkpt>
      <trkpt lat="37.97688446938991546630859375" lon="-107.7346712909638881683349609375">
        <ele>3330</ele>
        <time>2026-08-15T19:03:29.000Z</time>
        <extensions>
          <ns3:TrackPointExtension>
            <ns3:hr>107</ns3:hr>
            <ns3:cad>0</ns3:cad>
          </ns3:TrackPointExtension>
        </extensions>
      </trkpt>
      <trkpt lat="37.9768832959234714508056640625" lon="-107.7347473986446857452392578125">
        <ele>3329</ele>
        <time>2026-08-15T19:03:35.000Z</time>
        <extensions>
          <ns3:TrackPointExtension>
            <ns3:hr>107</ns3:hr>
            <ns3:cad>0</ns3:cad>
          </ns3:TrackPointExtension>
        </extensions>
      </trkpt>
      <trkpt lat="37.9768812842667102813720703125" lon="-107.7347561158239841461181640625">
        <ele>3328.60009765625</ele>
        <time>2026-08-15T19:03:36.000Z</time>
        <extensions>
          <ns3:TrackPointExtension>
            <ns3:hr>107</ns3:hr>
            <ns3:cad>0</ns3:cad>
          </ns3:TrackPointExtension>
        </extensions>
      </trkpt>
      <trkpt lat="37.9768658615648746490478515625" lon="-107.73479391820728778839111328125">
        <ele>3327.800048828125</ele>
        <time>2026-08-15T19:03:40.000Z</time>
        <extensions>
          <ns3:TrackPointExtension>
            <ns3:hr>107</ns3:hr>
            <ns3:cad>58</ns3:cad>
          </ns3:TrackPointExtension>
        </extensions>
      </trkpt>
      <trkpt lat="37.97685094177722930908203125" lon="-107.7348084188997745513916015625">
        <ele>3327.199951171875</ele>
        <time>2026-08-15T19:03:43.000Z</time>
        <extensions>
          <ns3:TrackPointExtension>
            <ns3:hr>104</ns3:hr>
            <ns3:cad>58</ns3:cad>
          </ns3:TrackPointExtension>
        </extensions>
      </trkpt>
      <trkpt lat="37.97684800811111927032470703125" lon="-107.73481789045035839080810546875">
        <ele>3327.199951171875</ele>
        <time>2026-08-15T19:03:44.000Z</time>
        <extensions>
          <ns3:TrackPointExtension>
            <ns3:hr>104</ns3:hr>
            <ns3:cad>58</ns3:cad>
          </ns3:TrackPointExtension>
        </extensions>
      </trkpt>
      <trkpt lat="37.97684130258858203887939453125" lon="-107.7348369173705577850341796875">
        <ele>3326.60009765625</ele>
        <time>2026-08-15T19:03:46.000Z</time>
        <extensions>
          <ns3:TrackPointExtension>
            <ns3:hr>104</ns3:hr>
            <ns3:cad>0</ns3:cad>
          </ns3:TrackPointExtension>
        </extensions>
      </trkpt>
      <trkpt lat="37.97683375887572765350341796875" lon="-107.73488611914217472076416015625">
        <ele>3325.60009765625</ele>
        <time>2026-08-15T19:03:50.000Z</time>
        <extensions>
          <ns3:TrackPointExtension>
            <ns3:hr>102</ns3:hr>
            <ns3:cad>0</ns3:cad>
          </ns3:TrackPointExtension>
        </extensions>
      </trkpt>
      <trkpt lat="37.97682973556220531463623046875" lon="-107.7349220775067806243896484375">
        <ele>3325.199951171875</ele>
        <time>2026-08-15T19:03:52.000Z</time>
        <extensions>
          <ns3:TrackPointExtension>
            <ns3:hr>101</ns3:hr>
            <ns3:cad>0</ns3:cad>
          </ns3:TrackPointExtension>
        </extensions>
      </trkpt>
      <trkpt lat="37.97682571224868297576904296875" lon="-107.73497882299125194549560546875">
        <ele>3324.39990234375</ele>
        <time>2026-08-15T19:03:56.000Z</time>
        <extensions>
          <ns3:TrackPointExtension>
            <ns3:hr>99</ns3:hr>
            <ns3:cad>0</ns3:cad>
          </ns3:TrackPointExtension>
        </extensions>
      </trkpt>
      <trkpt lat="37.976818419992923736572265625" lon="-107.735033221542835235595703125">
        <ele>3324</ele>
        <time>2026-08-15T19:04:00.000Z</time>
        <extensions>
          <ns3:TrackPointExtension>
            <ns3:hr>100</ns3:hr>
            <ns3:cad>0</ns3:cad>
          </ns3:TrackPointExtension>
        </extensions>
      </trkpt>
      <trkpt lat="37.9768091998994350433349609375" lon="-107.735074460506439208984375">
        <ele>3323.199951171875</ele>
        <time>2026-08-15T19:04:03.000Z</time>
        <extensions>
          <ns3:TrackPointExtension>
            <ns3:hr>101</ns3:hr>
            <ns3:cad>42</ns3:cad>
          </ns3:TrackPointExtension>
        </extensions>
      </trkpt>
      <trkpt lat="37.97680174000561237335205078125" lon="-107.73510673083364963531494140625">
        <ele>3322.39990234375</ele>
        <time>2026-08-15T19:04:07.000Z</time>
        <extensions>
          <ns3:TrackPointExtension>
            <ns3:hr>100</ns3:hr>
            <ns3:cad>79</ns3:cad>
          </ns3:TrackPointExtension>
        </extensions>
      </trkpt>
      <trkpt lat="37.97679863870143890380859375" lon="-107.73511980660259723663330078125">
        <ele>3322</ele>
        <time>2026-08-15T19:04:09.000Z</time>
        <extensions>
          <ns3:TrackPointExtension>
            <ns3:hr>100</ns3:hr>
            <ns3:cad>55</ns3:cad>
          </ns3:TrackPointExtension>
        </extensions>
      </trkpt>
      <trkpt lat="37.97679469920694828033447265625" lon="-107.73516758345067501068115234375">
        <ele>3321</ele>
        <time>2026-08-15T19:04:13.000Z</time>
        <extensions>
          <ns3:TrackPointExtension>
            <ns3:hr>100</ns3:hr>
            <ns3:cad>55</ns3:cad>
          </ns3:TrackPointExtension>
        </extensions>
      </trkpt>
      <trkpt lat="37.9767931066453456878662109375" lon="-107.735187448561191558837890625">
        <ele>3320.800048828125</ele>
        <time>2026-08-15T19:04:14.000Z</time>
        <extensions>
          <ns3:TrackPointExtension>
            <ns3:hr>101</ns3:hr>
            <ns3:cad>55</ns3:cad>
          </ns3:TrackPointExtension>
        </extensions>
      </trkpt>
      <trkpt lat="37.97679017297923564910888671875" lon="-107.735275290906429290771484375">
        <ele>3319.800048828125</ele>
        <time>2026-08-15T19:04:19.000Z</time>
        <extensions>
          <ns3:TrackPointExtension>
            <ns3:hr>99</ns3:hr>
            <ns3:cad>55</ns3:cad>
          </ns3:TrackPointExtension>
        </extensions>
      </trkpt>
      <trkpt lat="37.97679050825536251068115234375" lon="-107.73530035279691219329833984375">
        <ele>3319.800048828125</ele>
        <time>2026-08-15T19:04:21.000Z</time>
        <extensions>
          <ns3:TrackPointExtension>
            <ns3:hr>99</ns3:hr>
            <ns3:cad>55</ns3:cad>
          </ns3:TrackPointExtension>
        </extensions>
      </trkpt>
      <trkpt lat="37.976784221827983856201171875" lon="-107.73533455096185207366943359375">
        <ele>3319.199951171875</ele>
        <time>2026-08-15T19:04:26.000Z</time>
        <extensions>
          <ns3:TrackPointExtension>
            <ns3:hr>96</ns3:hr>
            <ns3:cad>54</ns3:cad>
          </ns3:TrackPointExtension>
        </extensions>
      </trkpt>
      <trkpt lat="37.9767847247421741485595703125" lon="-107.735337316989898681640625">
        <ele>3319</ele>
        <time>2026-08-15T19:04:27.000Z</time>
        <extensions>
          <ns3:TrackPointExtension>
            <ns3:hr>91</ns3:hr>
            <ns3:cad>54</ns3:cad>
          </ns3:TrackPointExtension>
        </extensions>
      </trkpt>
      <trkpt lat="37.9767857305705547332763671875" lon="-107.73534209467470645904541015625">
        <ele>3319</ele>
        <time>2026-08-15T19:04:28.000Z</time>
        <extensions>
          <ns3:TrackPointExtension>
            <ns3:hr>91</ns3:hr>
            <ns3:cad>0</ns3:cad>
          </ns3:TrackPointExtension>
        </extensions>
      </trkpt>
      <trkpt lat="37.9767858982086181640625" lon="-107.735342681407928466796875">
        <ele>3319.60009765625</ele>
        <time>2026-08-15T19:04:34.000Z</time>
        <extensions>
          <ns3:TrackPointExtension>
            <ns3:hr>90</ns3:hr>
            <ns3:cad>0</ns3:cad>
          </ns3:TrackPointExtension>
        </extensions>
      </trkpt>
      <trkpt lat="37.9767858982086181640625" lon="-107.735342681407928466796875">
        <ele>3319.60009765625</ele>
        <time>2026-08-15T19:04:35.000Z</time>
        <extensions>
          <ns3:TrackPointExtension>
            <ns3:hr>90</ns3:hr>
            <ns3:cad>0</ns3:cad>
          </ns3:TrackPointExtension>
        </extensions>
      </trkpt>
      <trkpt lat="37.9767858982086181640625" lon="-107.735342681407928466796875">
        <ele>3319.60009765625</ele>
        <time>2026-08-15T19:04:39.000Z</time>
        <extensions>
          <ns3:TrackPointExtension>
            <ns3:hr>93</ns3:hr>
            <ns3:cad>0</ns3:cad>
          </ns3:TrackPointExtension>
        </extensions>
      </trkpt>
      <trkpt lat="37.9767858982086181640625" lon="-107.735342681407928466796875">
        <ele>3319.60009765625</ele>
        <time>2026-08-15T19:04:42.000Z</time>
        <extensions>
          <ns3:TrackPointExtension>
            <ns3:hr>95</ns3:hr>
            <ns3:cad>0</ns3:cad>
          </ns3:TrackPointExtension>
        </extensions>
      </trkpt>
      <trkpt lat="37.9767858982086181640625" lon="-107.735342681407928466796875">
        <ele>3318.800048828125</ele>
        <time>2026-08-15T19:04:47.000Z</time>
        <extensions>
          <ns3:TrackPointExtension>
            <ns3:hr>96</ns3:hr>
            <ns3:cad>0</ns3:cad>
          </ns3:TrackPointExtension>
        </extensions>
      </trkpt>
      <trkpt lat="37.9767858982086181640625" lon="-107.735342681407928466796875">
        <ele>3318.800048828125</ele>
        <time>2026-08-15T19:04:49.000Z</time>
        <extensions>
          <ns3:TrackPointExtension>
            <ns3:hr>96</ns3:hr>
            <ns3:cad>0</ns3:cad>
          </ns3:TrackPointExtension>
        </extensions>
      </trkpt>
      <trkpt lat="37.9767858982086181640625" lon="-107.735342681407928466796875">
        <ele>3318.39990234375</ele>
        <time>2026-08-15T19:04:55.000Z</time>
        <extensions>
          <ns3:TrackPointExtension>
            <ns3:hr>96</ns3:hr>
            <ns3:cad>0</ns3:cad>
          </ns3:TrackPointExtension>
        </extensions>
      </trkpt>
      <trkpt lat="37.97678044997155666351318359375" lon="-107.73538366891443729400634765625">
        <ele>3318.39990234375</ele>
        <time>2026-08-15T19:04:58.000Z</time>
        <extensions>
          <ns3:TrackPointExtension>
            <ns3:hr>97</ns3:hr>
            <ns3:cad>0</ns3:cad>
          </ns3:TrackPointExtension>
        </extensions>
      </trkpt>
      <trkpt lat="37.97677743248641490936279296875" lon="-107.73540194146335124969482421875">
        <ele>3317.800048828125</ele>
        <time>2026-08-15T19:05:02.000Z</time>
        <extensions>
          <ns3:TrackPointExtension>
            <ns3:hr>94</ns3:hr>
            <ns3:cad>0</ns3:cad>
          </ns3:TrackPointExtension>
        </extensions>
      </trkpt>
      <trkpt lat="37.97677843831479549407958984375" lon="-107.7354119159281253814697265625">
        <ele>3317.60009765625</ele>
        <time>2026-08-15T19:05:04.000Z</time>
        <extensions>
          <ns3:TrackPointExtension>
            <ns3:hr>94</ns3:hr>
            <ns3:cad>0</ns3:cad>
          </ns3:TrackPointExtension>
        </extensions>
      </trkpt>
      <trkpt lat="37.976770810782909393310546875" lon="-107.73546078242361545562744140625">
        <ele>3317.199951171875</ele>
        <time>2026-08-15T19:05:10.000Z</time>
        <extensions>
          <ns3:TrackPointExtension>
            <ns3:hr>94</ns3:hr>
            <ns3:cad>0</ns3:cad>
          </ns3:TrackPointExtension>
        </extensions>
      </trkpt>
      <trkpt lat="37.97677257098257541656494140625" lon="-107.73547067306935787200927734375">
        <ele>3317</ele>
        <time>2026-08-15T19:05:11.000Z</time>
        <extensions>
          <ns3:TrackPointExtension>
            <ns3:hr>94</ns3:hr>
            <ns3:cad>0</ns3:cad>
          </ns3:TrackPointExtension>
        </extensions>
      </trkpt>
      <trkpt lat="37.976772151887416839599609375" lon="-107.735486514866352081298828125">
        <ele>3316.800048828125</ele>
        <time>2026-08-15T19:05:12.000Z</time>
        <extensions>
          <ns3:TrackPointExtension>
            <ns3:hr>95</ns3:hr>
            <ns3:cad>0</ns3:cad>
          </ns3:TrackPointExtension>
        </extensions>
      </trkpt>
      <trkpt lat="37.976774163544178009033203125" lon="-107.7355111576616764068603515625">
        <ele>3316.199951171875</ele>
        <time>2026-08-15T19:05:14.000Z</time>
        <extensions>
          <ns3:TrackPointExtension>
            <ns3:hr>98</ns3:hr>
            <ns3:cad>0</ns3:cad>
          </ns3:TrackPointExtension>
        </extensions>
      </trkpt>
      <trkpt lat="37.97677407972514629364013671875" lon="-107.7355222217738628387451171875">
        <ele>3316</ele>
        <time>2026-08-15T19:05:15.000Z</time>
        <extensions>
          <ns3:TrackPointExtension>
            <ns3:hr>101</ns3:hr>
            <ns3:cad>60</ns3:cad>
          </ns3:TrackPointExtension>
        </extensions>
      </trkpt>
      <trkpt lat="37.97677290625870227813720703125" lon="-107.73553437553346157073974609375">
        <ele>3315.800048828125</ele>
        <time>2026-08-15T19:05:16.000Z</time>
        <extensions>
          <ns3:TrackPointExtension>
            <ns3:hr>104</ns3:hr>
            <ns3:cad>60</ns3:cad>
          </ns3:TrackPointExtension>
        </extensions>
      </trkpt>
      <trkpt lat="37.9767733253538608551025390625" lon="-107.73554024286568164825439453125">
        <ele>3315.60009765625</ele>
        <time>2026-08-15T19:05:17.000Z</time>
        <extensions>
          <ns3:TrackPointExtension>
            <ns3:hr>105</ns3:hr>
            <ns3:cad>61</ns3:cad>
          </ns3:TrackPointExtension>
        </extensions>
      </trkpt>
      <trkpt lat="37.97677156515419483184814453125" lon="-107.73554510436952114105224609375">
        <ele>3315.60009765625</ele>
        <time>2026-08-15T19:05:18.000Z</time>
        <extensions>
          <ns3:TrackPointExtension>
            <ns3:hr>105</ns3:hr>
            <ns3:cad>61</ns3:cad>
          </ns3:TrackPointExtension>
        </extensions>
      </trkpt>
      <trkpt lat="37.97675429843366146087646484375" lon="-107.7356000058352947235107421875">
        <ele>3314.60009765625</ele>
        <time>2026-08-15T19:05:23.000Z</time>
        <extensions>
          <ns3:TrackPointExtension>
            <ns3:hr>104</ns3:hr>
            <ns3:cad>60</ns3:cad>
          </ns3:TrackPointExtension>
        </extensions>
      </trkpt>
      <trkpt lat="37.97675178386270999908447265625" lon="-107.73561065085232257843017578125">
        <ele>3314.199951171875</ele>
        <time>2026-08-15T19:05:24.000Z</time>
        <extensions>
          <ns3:TrackPointExtension>
            <ns3:hr>104</ns3:hr>
            <ns3:cad>60</ns3:cad>
          </ns3:TrackPointExtension>
        </extensions>
      </trkpt>
      <trkpt lat="37.9767451621592044830322265625" lon="-107.7356425859034061431884765625">
        <ele>3313.199951171875</ele>
        <time>2026-08-15T19:05:27.000Z</time>
        <extensions>
          <ns3:TrackPointExtension>
            <ns3:hr>102</ns3:hr>
            <ns3:cad>0</ns3:cad>
          </ns3:TrackPointExtension>
        </extensions>
      </trkpt>
      <trkpt lat="37.97674591653048992156982421875" lon="-107.73565960116684436798095703125">
        <ele>3312.60009765625</ele>
        <time>2026-08-15T19:05:29.000Z</time>
        <extensions>
          <ns3:TrackPointExtension>
            <ns3:hr>102</ns3:hr>
            <ns3:cad>0</ns3:cad>
          </ns3:TrackPointExtension>
        </extensions>
      </trkpt>
      <trkpt lat="37.97675010748207569122314453125" lon="-107.7356818132102489471435546875">
        <ele>3311.800048828125</ele>
        <time>2026-08-15T19:05:31.000Z</time>
        <extensions>
          <ns3:TrackPointExtension>
            <ns3:hr>101</ns3:hr>
            <ns3:cad>0</ns3:cad>
          </ns3:TrackPointExtension>
        </extensions>
      </trkpt>
      <trkpt lat="37.97675195150077342987060546875" lon="-107.7357329428195953369140625">
        <ele>3311</ele>
        <time>2026-08-15T19:05:35.000Z</time>
        <extensions>
          <ns3:TrackPointExtension>
            <ns3:hr>101</ns3:hr>
            <ns3:cad>0</ns3:cad>
          </ns3:TrackPointExtension>
        </extensions>
      </trkpt>
      <trkpt lat="37.97675429843366146087646484375" lon="-107.73575029335916042327880859375">
        <ele>3310.60009765625</ele>
        <time>2026-08-15T19:05:37.000Z</time>
        <extensions>
          <ns3:TrackPointExtension>
            <ns3:hr>101</ns3:hr>
            <ns3:cad>0</ns3:cad>
          </ns3:TrackPointExtension>
        </extensions>
      </trkpt>
      <trkpt lat="37.97675438225269317626953125" lon="-107.735799662768840789794921875">
        <ele>3309.800048828125</ele>
        <time>2026-08-15T19:05:42.000Z</time>
        <extensions>
          <ns3:TrackPointExtension>
            <ns3:hr>102</ns3:hr>
            <ns3:cad>0</ns3:cad>
          </ns3:TrackPointExtension>
        </extensions>
      </trkpt>
      <trkpt lat="37.97675111331045627593994140625" lon="-107.73581516928970813751220703125">
        <ele>3309.60009765625</ele>
        <time>2026-08-15T19:05:43.000Z</time>
        <extensions>
          <ns3:TrackPointExtension>
            <ns3:hr>102</ns3:hr>
            <ns3:cad>0</ns3:cad>
          </ns3:TrackPointExtension>
        </extensions>
      </trkpt>
      <trkpt lat="37.97674809582531452178955078125" lon="-107.7358509600162506103515625">
        <ele>3308.800048828125</ele>
        <time>2026-08-15T19:05:47.000Z</time>
        <extensions>
          <ns3:TrackPointExtension>
            <ns3:hr>104</ns3:hr>
            <ns3:cad>0</ns3:cad>
          </ns3:TrackPointExtension>
        </extensions>
      </trkpt>
      <trkpt lat="37.976750694215297698974609375" lon="-107.73586043156683444976806640625">
        <ele>3308.60009765625</ele>
        <time>2026-08-15T19:05:48.000Z</time>
        <extensions>
          <ns3:TrackPointExtension>
            <ns3:hr>104</ns3:hr>
            <ns3:cad>0</ns3:cad>
          </ns3:TrackPointExtension>
        </extensions>
      </trkpt>
      <trkpt lat="37.976746670901775360107421875" lon="-107.7358890138566493988037109375">
        <ele>3307.60009765625</ele>
        <time>2026-08-15T19:05:51.000Z</time>
        <extensions>
          <ns3:TrackPointExtension>
            <ns3:hr>103</ns3:hr>
            <ns3:cad>56</ns3:cad>
          </ns3:TrackPointExtension>
        </extensions>
      </trkpt>
      <trkpt lat="37.9767488501965999603271484375" lon="-107.7359087951481342315673828125">
        <ele>3307.199951171875</ele>
        <time>2026-08-15T19:05:53.000Z</time>
        <extensions>
          <ns3:TrackPointExtension>
            <ns3:hr>102</ns3:hr>
            <ns3:cad>40</ns3:cad>
          </ns3:TrackPointExtension>
        </extensions>
      </trkpt>
      <trkpt lat="37.976744659245014190673828125" lon="-107.73595548234879970550537109375">
        <ele>3306.800048828125</ele>
        <time>2026-08-15T19:05:59.000Z</time>
        <extensions>
          <ns3:TrackPointExtension>
            <ns3:hr>105</ns3:hr>
            <ns3:cad>0</ns3:cad>
          </ns3:TrackPointExtension>
        </extensions>
      </trkpt>
      <trkpt lat="37.976743988692760467529296875" lon="-107.73596101440489292144775390625">
        <ele>3306.39990234375</ele>
        <time>2026-08-15T19:06:00.000Z</time>
        <extensions>
          <ns3:TrackPointExtension>
            <ns3:hr>105</ns3:hr>
            <ns3:cad>0</ns3:cad>
          </ns3:TrackPointExtension>
        </extensions>
      </trkpt>
      <trkpt lat="37.9767443239688873291015625" lon="-107.73597442544996738433837890625">
        <ele>3306.199951171875</ele>
        <time>2026-08-15T19:06:01.000Z</time>
        <extensions>
          <ns3:TrackPointExtension>
            <ns3:hr>105</ns3:hr>
            <ns3:cad>0</ns3:cad>
          </ns3:TrackPointExtension>
        </extensions>
      </trkpt>
      <trkpt lat="37.97674859873950481414794921875" lon="-107.73601080290973186492919921875">
        <ele>3305.39990234375</ele>
        <time>2026-08-15T19:06:04.000Z</time>
        <extensions>
          <ns3:TrackPointExtension>
            <ns3:hr>107</ns3:hr>
            <ns3:cad>0</ns3:cad>
          </ns3:TrackPointExtension>
        </extensions>
      </trkpt>
      <trkpt lat="37.9767443239688873291015625" lon="-107.736032009124755859375">
        <ele>3305</ele>
        <time>2026-08-15T19:06:06.000Z</time>
        <extensions>
          <ns3:TrackPointExtension>
            <ns3:hr>112</ns3:hr>
            <ns3:cad>0</ns3:cad>
          </ns3:TrackPointExtension>
        </extensions>
      </trkpt>
      <trkpt lat="37.9767478443682193756103515625" lon="-107.73605220951139926910400390625">
        <ele>3304.39990234375</ele>
        <time>2026-08-15T19:06:09.000Z</time>
        <extensions>
          <ns3:TrackPointExtension>
            <ns3:hr>114</ns3:hr>
            <ns3:cad>0</ns3:cad>
          </ns3:TrackPointExtension>
        </extensions>
      </trkpt>
      <trkpt lat="37.97674792818725109100341796875" lon="-107.7360905148088932037353515625">
        <ele>3303.60009765625</ele>
        <time>2026-08-15T19:06:12.000Z</time>
        <extensions>
          <ns3:TrackPointExtension>
            <ns3:hr>115</ns3:hr>
            <ns3:cad>0</ns3:cad>
          </ns3:TrackPointExtension>
        </extensions>
      </trkpt>
      <trkpt lat="37.97674960456788539886474609375" lon="-107.736105434596538543701171875">
        <ele>3303.39990234375</ele>
        <time>2026-08-15T19:06:13.000Z</time>
        <extensions>
          <ns3:TrackPointExtension>
            <ns3:hr>116</ns3:hr>
            <ns3:cad>0</ns3:cad>
          </ns3:TrackPointExtension>
        </extensions>
      </trkpt>
      <trkpt lat="37.976756729185581207275390625" lon="-107.73614943958818912506103515625">
        <ele>3302.199951171875</ele>
        <time>2026-08-15T19:06:16.000Z</time>
        <extensions>
          <ns3:TrackPointExtension>
            <ns3:hr>116</ns3:hr>
            <ns3:cad>0</ns3:cad>
          </ns3:TrackPointExtension>
        </extensions>
      </trkpt>
      <trkpt lat="37.97675128094851970672607421875" lon="-107.73620341904461383819580078125">
        <ele>3301.60009765625</ele>
        <time>2026-08-15T19:06:20.000Z</time>
        <extensions>
          <ns3:TrackPointExtension>
            <ns3:hr>116</ns3:hr>
            <ns3:cad>0</ns3:cad>
          </ns3:TrackPointExtension>
        </extensions>
      </trkpt>
      <trkpt lat="37.9767532087862491607666015625" lon="-107.73622873239219188690185546875">
        <ele>3301.199951171875</ele>
        <time>2026-08-15T19:06:22.000Z</time>
        <extensions>
          <ns3:TrackPointExtension>
            <ns3:hr>116</ns3:hr>
            <ns3:cad>0</ns3:cad>
          </ns3:TrackPointExtension>
        </extensions>
      </trkpt>
      <trkpt lat="37.97676469199359416961669921875" lon="-107.73628455586731433868408203125">
        <ele>3300</ele>
        <time>2026-08-15T19:06:26.000Z</time>
        <extensions>
          <ns3:TrackPointExtension>
            <ns3:hr>115</ns3:hr>
            <ns3:cad>0</ns3:cad>
          </ns3:TrackPointExtension>
        </extensions>
      </trkpt>
      <trkpt lat="37.9767703078687191009521484375" lon="-107.736306600272655487060546875">
        <ele>3299.800048828125</ele>
        <time>2026-08-15T19:06:28.000Z</time>
        <extensions>
          <ns3:TrackPointExtension>
            <ns3:hr>114</ns3:hr>
            <ns3:cad>0</ns3:cad>
          </ns3:TrackPointExtension>
        </extensions>
      </trkpt>
      <trkpt lat="37.976771481335163116455078125" lon="-107.7363345958292484283447265625">
        <ele>3299.60009765625</ele>
        <time>2026-08-15T19:06:30.000Z</time>
        <extensions>
          <ns3:TrackPointExtension>
            <ns3:hr>111</ns3:hr>
            <ns3:cad>0</ns3:cad>
          </ns3:TrackPointExtension>
        </extensions>
      </trkpt>
      <trkpt lat="37.9767736606299877166748046875" lon="-107.73634674958884716033935546875">
        <ele>3299.60009765625</ele>
        <time>2026-08-15T19:06:31.000Z</time>
        <extensions>
          <ns3:TrackPointExtension>
            <ns3:hr>108</ns3:hr>
            <ns3:cad>0</ns3:cad>
          </ns3:TrackPointExtension>
        </extensions>
      </trkpt>
      <trkpt lat="37.97677961178123950958251953125" lon="-107.73636259138584136962890625">
        <ele>3299.199951171875</ele>
        <time>2026-08-15T19:06:33.000Z</time>
        <extensions>
          <ns3:TrackPointExtension>
            <ns3:hr>105</ns3:hr>
            <ns3:cad>0</ns3:cad>
          </ns3:TrackPointExtension>
        </extensions>
      </trkpt>
      <trkpt lat="37.9767810367047786712646484375" lon="-107.73637323640286922454833984375">
        <ele>3299.199951171875</ele>
        <time>2026-08-15T19:06:34.000Z</time>
        <extensions>
          <ns3:TrackPointExtension>
            <ns3:hr>104</ns3:hr>
            <ns3:cad>0</ns3:cad>
          </ns3:TrackPointExtension>
        </extensions>
      </trkpt>
      <trkpt lat="37.976796627044677734375" lon="-107.73641514591872692108154296875">
        <ele>3299</ele>
        <time>2026-08-15T19:06:38.000Z</time>
        <extensions>
          <ns3:TrackPointExtension>
            <ns3:hr>101</ns3:hr>
            <ns3:cad>0</ns3:cad>
          </ns3:TrackPointExtension>
        </extensions>
      </trkpt>
      <trkpt lat="37.97680727206170558929443359375" lon="-107.7364901639521121978759765625">
        <ele>3298.39990234375</ele>
        <time>2026-08-15T19:06:44.000Z</time>
        <extensions>
          <ns3:TrackPointExtension>
            <ns3:hr>103</ns3:hr>
            <ns3:cad>60</ns3:cad>
          </ns3:TrackPointExtension>
        </extensions>
      </trkpt>
      <trkpt lat="37.9768113791942596435546875" lon="-107.736499048769474029541015625">
        <ele>3298.199951171875</ele>
        <time>2026-08-15T19:06:45.000Z</time>
        <extensions>
          <ns3:TrackPointExtension>
            <ns3:hr>103</ns3:hr>
            <ns3:cad>60</ns3:cad>
          </ns3:TrackPointExtension>
        </extensions>
      </trkpt>
      <trkpt lat="37.9768112115561962127685546875" lon="-107.73650935851037502288818359375">
        <ele>3297.800048828125</ele>
        <time>2026-08-15T19:06:46.000Z</time>
        <extensions>
          <ns3:TrackPointExtension>
            <ns3:hr>103</ns3:hr>
            <ns3:cad>58</ns3:cad>
          </ns3:TrackPointExtension>
        </extensions>
      </trkpt>
      <trkpt lat="37.97680827789008617401123046875" lon="-107.7365203388035297393798828125">
        <ele>3297.60009765625</ele>
        <time>2026-08-15T19:06:47.000Z</time>
        <extensions>
          <ns3:TrackPointExtension>
            <ns3:hr>104</ns3:hr>
            <ns3:cad>57</ns3:cad>
          </ns3:TrackPointExtension>
        </extensions>
      </trkpt>
      <trkpt lat="37.9768021591007709503173828125" lon="-107.73654372431337833404541015625">
        <ele>3297.199951171875</ele>
        <time>2026-08-15T19:06:50.000Z</time>
        <extensions>
          <ns3:TrackPointExtension>
            <ns3:hr>104</ns3:hr>
            <ns3:cad>0</ns3:cad>
          </ns3:TrackPointExtension>
        </extensions>
      </trkpt>
      <trkpt lat="37.9768085293471813201904296875" lon="-107.73655881173908710479736328125">
        <ele>3296.800048828125</ele>
        <time>2026-08-15T19:06:52.000Z</time>
        <extensions>
          <ns3:TrackPointExtension>
            <ns3:hr>104</ns3:hr>
            <ns3:cad>0</ns3:cad>
          </ns3:TrackPointExtension>
        </extensions>
      </trkpt>
      <trkpt lat="37.97682353295385837554931640625" lon="-107.736580185592174530029296875">
        <ele>3296.199951171875</ele>
        <time>2026-08-15T19:06:55.000Z</time>
        <extensions>
          <ns3:TrackPointExtension>
            <ns3:hr>103</ns3:hr>
            <ns3:cad>0</ns3:cad>
          </ns3:TrackPointExtension>
        </extensions>
      </trkpt>
      <trkpt lat="37.97682470642030239105224609375" lon="-107.73658194579184055328369140625">
        <ele>3296</ele>
        <time>2026-08-15T19:06:56.000Z</time>
        <extensions>
          <ns3:TrackPointExtension>
            <ns3:hr>104</ns3:hr>
            <ns3:cad>0</ns3:cad>
          </ns3:TrackPointExtension>
        </extensions>
      </trkpt>
      <trkpt lat="37.97683107666671276092529296875" lon="-107.73659870959818363189697265625">
        <ele>3295.60009765625</ele>
        <time>2026-08-15T19:06:58.000Z</time>
        <extensions>
          <ns3:TrackPointExtension>
            <ns3:hr>104</ns3:hr>
            <ns3:cad>0</ns3:cad>
          </ns3:TrackPointExtension>
        </extensions>
      </trkpt>
      <trkpt lat="37.97683124430477619171142578125" lon="-107.7366041578352451324462890625">
        <ele>3295.39990234375</ele>
        <time>2026-08-15T19:06:59.000Z</time>
        <extensions>
          <ns3:TrackPointExtension>
            <ns3:hr>105</ns3:hr>
            <ns3:cad>0</ns3:cad>
          </ns3:TrackPointExtension>
        </extensions>
      </trkpt>
      <trkpt lat="37.976835854351520538330078125" lon="-107.736624442040920257568359375">
        <ele>3294.199951171875</ele>
        <time>2026-08-15T19:07:02.000Z</time>
        <extensions>
          <ns3:TrackPointExtension>
            <ns3:hr>106</ns3:hr>
            <ns3:cad>0</ns3:cad>
          </ns3:TrackPointExtension>
        </extensions>
      </trkpt>
      <trkpt lat="37.976833172142505645751953125" lon="-107.7366541139781475067138671875">
        <ele>3293</ele>
        <time>2026-08-15T19:07:05.000Z</time>
        <extensions>
          <ns3:TrackPointExtension>
            <ns3:hr>106</ns3:hr>
            <ns3:cad>0</ns3:cad>
          </ns3:TrackPointExtension>
        </extensions>
      </trkpt>
      <trkpt lat="37.9768340103328227996826171875" lon="-107.73666492663323879241943359375">
        <ele>3292.800048828125</ele>
        <time>2026-08-15T19:07:06.000Z</time>
        <extensions>
          <ns3:TrackPointExtension>
            <ns3:hr>106</ns3:hr>
            <ns3:cad>0</ns3:cad>
          </ns3:TrackPointExtension>
        </extensions>
      </trkpt>
      <trkpt lat="37.97683526761829853057861328125" lon="-107.73669652640819549560546875">
        <ele>3292</ele>
        <time>2026-08-15T19:07:09.000Z</time>
        <extensions>
          <ns3:TrackPointExtension>
            <ns3:hr>105</ns3:hr>
            <ns3:cad>63</ns3:cad>
          </ns3:TrackPointExtension>
        </extensions>
      </trkpt>
      <trkpt lat="37.97683107666671276092529296875" lon="-107.73674271069467067718505859375">
        <ele>3291.199951171875</ele>
        <time>2026-08-15T19:07:15.000Z</time>
        <extensions>
          <ns3:TrackPointExtension>
            <ns3:hr>106</ns3:hr>
            <ns3:cad>0</ns3:cad>
          </ns3:TrackPointExtension>
        </extensions>
      </trkpt>
      <trkpt lat="37.97682990320026874542236328125" lon="-107.73677120916545391082763671875">
        <ele>3290.800048828125</ele>
        <time>2026-08-15T19:07:19.000Z</time>
        <extensions>
          <ns3:TrackPointExtension>
            <ns3:hr>106</ns3:hr>
            <ns3:cad>0</ns3:cad>
          </ns3:TrackPointExtension>
        </extensions>
      </trkpt>
      <trkpt lat="37.9768172465264797210693359375" lon="-107.73676517419517040252685546875">
        <ele>3290.199951171875</ele>
        <time>2026-08-15T19:07:21.000Z</time>
        <extensions>
          <ns3:TrackPointExtension>
            <ns3:hr>105</ns3:hr>
            <ns3:cad>0</ns3:cad>
          </ns3:TrackPointExtension>
        </extensions>
      </trkpt>
      <trkpt lat="37.97680827789008617401123046875" lon="-107.73675913922488689422607421875">
        <ele>3289.800048828125</ele>
        <time>2026-08-15T19:07:23.000Z</time>
        <extensions>
          <ns3:TrackPointExtension>
            <ns3:hr>104</ns3:hr>
            <ns3:cad>0</ns3:cad>
          </ns3:TrackPointExtension>
        </extensions>
      </trkpt>
      <trkpt lat="37.97678547911345958709716796875" lon="-107.7367553673684597015380859375">
        <ele>3289.39990234375</ele>
        <time>2026-08-15T19:07:27.000Z</time>
        <extensions>
          <ns3:TrackPointExtension>
            <ns3:hr>104</ns3:hr>
            <ns3:cad>0</ns3:cad>
          </ns3:TrackPointExtension>
        </extensions>
      </trkpt>
      <trkpt lat="37.97677106224000453948974609375" lon="-107.7367295511066913604736328125">
        <ele>3288.60009765625</ele>
        <time>2026-08-15T19:07:31.000Z</time>
        <extensions>
          <ns3:TrackPointExtension>
            <ns3:hr>105</ns3:hr>
            <ns3:cad>0</ns3:cad>
          </ns3:TrackPointExtension>
        </extensions>
      </trkpt>
      <trkpt lat="37.97674658708274364471435546875" lon="-107.73671873845160007476806640625">
        <ele>3288.39990234375</ele>
        <time>2026-08-15T19:07:33.000Z</time>
        <extensions>
          <ns3:TrackPointExtension>
            <ns3:hr>106</ns3:hr>
            <ns3:cad>0</ns3:cad>
          </ns3:TrackPointExtension>
        </extensions>
      </trkpt>
      <trkpt lat="37.9767156578600406646728515625" lon="-107.736678086221218109130859375">
        <ele>3287.39990234375</ele>
        <time>2026-08-15T19:07:38.000Z</time>
        <extensions>
          <ns3:TrackPointExtension>
            <ns3:hr>106</ns3:hr>
            <ns3:cad>0</ns3:cad>
          </ns3:TrackPointExtension>
        </extensions>
      </trkpt>
      <trkpt lat="37.97670870088040828704833984375" lon="-107.7366718836128711700439453125">
        <ele>3287.199951171875</ele>
        <time>2026-08-15T19:07:39.000Z</time>
        <extensions>
          <ns3:TrackPointExtension>
            <ns3:hr>106</ns3:hr>
            <ns3:cad>0</ns3:cad>
          </ns3:TrackPointExtension>
        </extensions>
      </trkpt>
      <trkpt lat="37.97667131759226322174072265625" lon="-107.73664279840886592864990234375">
        <ele>3286.39990234375</ele>
        <time>2026-08-15T19:07:44.000Z</time>
        <extensions>
          <ns3:TrackPointExtension>
            <ns3:hr>105</ns3:hr>
            <ns3:cad>57</ns3:cad>
          </ns3:TrackPointExtension>
        </extensions>
      </trkpt>
      <trkpt lat="37.97665069811046123504638671875" lon="-107.7366319857537746429443359375">
        <ele>3286.199951171875</ele>
        <time>2026-08-15T19:07:46.000Z</time>
        <extensions>
          <ns3:TrackPointExtension>
            <ns3:hr>104</ns3:hr>
            <ns3:cad>58</ns3:cad>
          </ns3:TrackPointExtension>
        </extensions>
      </trkpt>
      <trkpt lat="37.9766170866787433624267578125" lon="-107.73658630438148975372314453125">
        <ele>3285.39990234375</ele>
        <time>2026-08-15T19:07:52.000Z</time>
        <extensions>
          <ns3:TrackPointExtension>
            <ns3:hr>105</ns3:hr>
            <ns3:cad>58</ns3:cad>
          </ns3:TrackPointExtension>
        </extensions>
      </trkpt>
      <trkpt lat="37.9766130633652210235595703125" lon="-107.7365749888122081756591796875">
        <ele>3285.199951171875</ele>
        <time>2026-08-15T19:07:53.000Z</time>
        <extensions>
          <ns3:TrackPointExtension>
            <ns3:hr>104</ns3:hr>
            <ns3:cad>58</ns3:cad>
          </ns3:TrackPointExtension>
        </extensions>
      </trkpt>
      <trkpt lat="37.97659520991146564483642578125" lon="-107.73655462078750133514404296875">
        <ele>3283.800048828125</ele>
        <time>2026-08-15T19:07:56.000Z</time>
        <extensions>
          <ns3:TrackPointExtension>
            <ns3:hr>105</ns3:hr>
            <ns3:cad>58</ns3:cad>
          </ns3:TrackPointExtension>
        </extensions>
      </trkpt>
      <trkpt lat="37.97658582217991352081298828125" lon="-107.7365511842072010040283203125">
        <ele>3283.39990234375</ele>
        <time>2026-08-15T19:07:57.000Z</time>
        <extensions>
          <ns3:TrackPointExtension>
            <ns3:hr>104</ns3:hr>
            <ns3:cad>58</ns3:cad>
          </ns3:TrackPointExtension>
        </extensions>
      </trkpt>
      <trkpt lat="37.97656419686973094940185546875" lon="-107.73654020391404628753662109375">
        <ele>3282.60009765625</ele>
        <time>2026-08-15T19:08:00.000Z</time>
        <extensions>
          <ns3:TrackPointExtension>
            <ns3:hr>104</ns3:hr>
            <ns3:cad>58</ns3:cad>
          </ns3:TrackPointExtension>
        </extensions>
      </trkpt>
      <trkpt lat="37.97652429901063442230224609375" lon="-107.73651908151805400848388671875">
        <ele>3281.60009765625</ele>
        <time>2026-08-15T19:08:05.000Z</time>
        <extensions>
          <ns3:TrackPointExtension>
            <ns3:hr>104</ns3:hr>
            <ns3:cad>62</ns3:cad>
          </ns3:TrackPointExtension>
        </extensions>
      </trkpt>
      <trkpt lat="37.97649663873016834259033203125" lon="-107.7365042455494403839111328125">
        <ele>3280.800048828125</ele>
        <time>2026-08-15T19:08:08.000Z</time>
        <extensions>
          <ns3:TrackPointExtension>
            <ns3:hr>104</ns3:hr>
            <ns3:cad>62</ns3:cad>
          </ns3:TrackPointExtension>
        </extensions>
      </trkpt>
      <trkpt lat="37.97648079693317413330078125" lon="-107.7365000545978546142578125">
        <ele>3280.60009765625</ele>
        <time>2026-08-15T19:08:10.000Z</time>
        <extensions>
          <ns3:TrackPointExtension>
            <ns3:hr>104</ns3:hr>
            <ns3:cad>62</ns3:cad>
          </ns3:TrackPointExtension>
        </extensions>
      </trkpt>
      <trkpt lat="37.97644031234085559844970703125" lon="-107.73647851310670375823974609375">
        <ele>3279.60009765625</ele>
        <time>2026-08-15T19:08:15.000Z</time>
        <extensions>
          <ns3:TrackPointExtension>
            <ns3:hr>104</ns3:hr>
            <ns3:cad>62</ns3:cad>
          </ns3:TrackPointExtension>
        </extensions>
      </trkpt>
      <trkpt lat="37.9764278233051300048828125" lon="-107.73647599853575229644775390625">
        <ele>3279.199951171875</ele>
        <time>2026-08-15T19:08:16.000Z</time>
        <extensions>
          <ns3:TrackPointExtension>
            <ns3:hr>104</ns3:hr>
            <ns3:cad>62</ns3:cad>
          </ns3:TrackPointExtension>
        </extensions>
      </trkpt>
      <trkpt lat="37.9763929545879364013671875" lon="-107.7364539541304111480712890625">
        <ele>3278.199951171875</ele>
        <time>2026-08-15T19:08:20.000Z</time>
        <extensions>
          <ns3:TrackPointExtension>
            <ns3:hr>105</ns3:hr>
            <ns3:cad>0</ns3:cad>
          </ns3:TrackPointExtension>
        </extensions>
      </trkpt>
      <trkpt lat="37.9763766936957836151123046875" lon="-107.7364452369511127471923828125">
        <ele>3277.800048828125</ele>
        <time>2026-08-15T19:08:22.000Z</time>
        <extensions>
          <ns3:TrackPointExtension>
            <ns3:hr>106</ns3:hr>
            <ns3:cad>0</ns3:cad>
          </ns3:TrackPointExtension>
        </extensions>
      </trkpt>
      <trkpt lat="37.9763686470687389373779296875" lon="-107.7364264614880084991455078125">
        <ele>3277.39990234375</ele>
        <time>2026-08-15T19:08:24.000Z</time>
        <extensions>
          <ns3:TrackPointExtension>
            <ns3:hr>107</ns3:hr>
            <ns3:cad>0</ns3:cad>
          </ns3:TrackPointExtension>
        </extensions>
      </trkpt>
      <trkpt lat="37.976350374519824981689453125" lon="-107.7364006452262401580810546875">
        <ele>3277.199951171875</ele>
        <time>2026-08-15T19:08:27.000Z</time>
        <extensions>
          <ns3:TrackPointExtension>
            <ns3:hr>107</ns3:hr>
            <ns3:cad>0</ns3:cad>
          </ns3:TrackPointExtension>
        </extensions>
      </trkpt>
      <trkpt lat="37.976342327892780303955078125" lon="-107.736375667154788970947265625">
        <ele>3276.39990234375</ele>
        <time>2026-08-15T19:08:30.000Z</time>
        <extensions>
          <ns3:TrackPointExtension>
            <ns3:hr>110</ns3:hr>
            <ns3:cad>73</ns3:cad>
          </ns3:TrackPointExtension>
        </extensions>
      </trkpt>
      <trkpt lat="37.976341657340526580810546875" lon="-107.73636418394744396209716796875">
        <ele>3276</ele>
        <time>2026-08-15T19:08:31.000Z</time>
        <extensions>
          <ns3:TrackPointExtension>
            <ns3:hr>110</ns3:hr>
            <ns3:cad>73</ns3:cad>
          </ns3:TrackPointExtension>
        </extensions>
      </trkpt>
      <trkpt lat="37.97634023241698741912841796875" lon="-107.73635094054043292999267578125">
        <ele>3275.800048828125</ele>
        <time>2026-08-15T19:08:32.000Z</time>
        <extensions>
          <ns3:TrackPointExtension>
            <ns3:hr>110</ns3:hr>
            <ns3:cad>70</ns3:cad>
          </ns3:TrackPointExtension>
        </extensions>
      </trkpt>
      <trkpt lat="37.9763230495154857635498046875" lon="-107.7363124676048755645751953125">
        <ele>3274.800048828125</ele>
        <time>2026-08-15T19:08:35.000Z</time>
        <extensions>
          <ns3:TrackPointExtension>
            <ns3:hr>110</ns3:hr>
            <ns3:cad>0</ns3:cad>
          </ns3:TrackPointExtension>
        </extensions>
      </trkpt>
      <trkpt lat="37.97630100511014461517333984375" lon="-107.73626469075679779052734375">
        <ele>3274</ele>
        <time>2026-08-15T19:08:39.000Z</time>
        <extensions>
          <ns3:TrackPointExtension>
            <ns3:hr>109</ns3:hr>
            <ns3:cad>0</ns3:cad>
          </ns3:TrackPointExtension>
        </extensions>
      </trkpt>
      <trkpt lat="37.97628943808376789093017578125" lon="-107.73625186644494533538818359375">
        <ele>3273.60009765625</ele>
        <time>2026-08-15T19:08:41.000Z</time>
        <extensions>
          <ns3:TrackPointExtension>
            <ns3:hr>108</ns3:hr>
            <ns3:cad>0</ns3:cad>
          </ns3:TrackPointExtension>
        </extensions>
      </trkpt>
      <trkpt lat="37.97628843225538730621337890625" lon="-107.7362531237304210662841796875">
        <ele>3273.60009765625</ele>
        <time>2026-08-15T19:08:44.000Z</time>
        <extensions>
          <ns3:TrackPointExtension>
            <ns3:hr>108</ns3:hr>
            <ns3:cad>0</ns3:cad>
          </ns3:TrackPointExtension>
        </extensions>
      </trkpt>
      <trkpt lat="37.97625775448977947235107421875" lon="-107.73620702326297760009765625">
        <ele>3273.199951171875</ele>
        <time>2026-08-15T19:08:49.000Z</time>
        <extensions>
          <ns3:TrackPointExtension>
            <ns3:hr>107</ns3:hr>
            <ns3:cad>0</ns3:cad>
          </ns3:TrackPointExtension>
        </extensions>
      </trkpt>
      <trkpt lat="37.9762378893792629241943359375" lon="-107.736176513135433197021484375">
        <ele>3272.60009765625</ele>
        <time>2026-08-15T19:08:52.000Z</time>
        <extensions>
          <ns3:TrackPointExtension>
            <ns3:hr>106</ns3:hr>
            <ns3:cad>0</ns3:cad>
          </ns3:TrackPointExtension>
        </extensions>
      </trkpt>
      <trkpt lat="37.97621081583201885223388671875" lon="-107.73612798191606998443603515625">
        <ele>3271.60009765625</ele>
        <time>2026-08-15T19:08:57.000Z</time>
        <extensions>
          <ns3:TrackPointExtension>
            <ns3:hr>106</ns3:hr>
            <ns3:cad>0</ns3:cad>
          </ns3:TrackPointExtension>
        </extensions>
      </trkpt>
      <trkpt lat="37.9761808924376964569091796875" lon="-107.73609730415046215057373046875">
        <ele>3270.60009765625</ele>
        <time>2026-08-15T19:09:01.000Z</time>
        <extensions>
          <ns3:TrackPointExtension>
            <ns3:hr>106</ns3:hr>
            <ns3:cad>55</ns3:cad>
          </ns3:TrackPointExtension>
        </extensions>
      </trkpt>
      <trkpt lat="37.97617636620998382568359375" lon="-107.73609034717082977294921875">
        <ele>3270.60009765625</ele>
        <time>2026-08-15T19:09:02.000Z</time>
        <extensions>
          <ns3:TrackPointExtension>
            <ns3:hr>106</ns3:hr>
            <ns3:cad>55</ns3:cad>
          </ns3:TrackPointExtension>
        </extensions>
      </trkpt>
      <trkpt lat="37.97617041505873203277587890625" lon="-107.73607869632542133331298828125">
        <ele>3270.39990234375</ele>
        <time>2026-08-15T19:09:03.000Z</time>
        <extensions>
          <ns3:TrackPointExtension>
            <ns3:hr>106</ns3:hr>
            <ns3:cad>55</ns3:cad>
          </ns3:TrackPointExtension>
        </extensions>
      </trkpt>
      <trkpt lat="37.9761456884443759918212890625" lon="-107.73604868911206722259521484375">
        <ele>3269.39990234375</ele>
        <time>2026-08-15T19:09:07.000Z</time>
        <extensions>
          <ns3:TrackPointExtension>
            <ns3:hr>105</ns3:hr>
            <ns3:cad>0</ns3:cad>
          </ns3:TrackPointExtension>
        </extensions>
      </trkpt>
      <trkpt lat="37.97613236121833324432373046875" lon="-107.736040055751800537109375">
        <ele>3268.60009765625</ele>
        <time>2026-08-15T19:09:09.000Z</time>
        <extensions>
          <ns3:TrackPointExtension>
            <ns3:hr>106</ns3:hr>
            <ns3:cad>0</ns3:cad>
          </ns3:TrackPointExtension>
        </extensions>
      </trkpt>
      <trkpt lat="37.9761262424290180206298828125" lon="-107.7360331825911998748779296875">
        <ele>3268.199951171875</ele>
        <time>2026-08-15T19:09:10.000Z</time>
        <extensions>
          <ns3:TrackPointExtension>
            <ns3:hr>105</ns3:hr>
            <ns3:cad>0</ns3:cad>
          </ns3:TrackPointExtension>
        </extensions>
      </trkpt>
      <trkpt lat="37.97610570676624774932861328125" lon="-107.7360331825911998748779296875">
        <ele>3267.39990234375</ele>
        <time>2026-08-15T19:09:12.000Z</time>
        <extensions>
          <ns3:TrackPointExtension>
            <ns3:hr>106</ns3:hr>
            <ns3:cad>0</ns3:cad>
          </ns3:TrackPointExtension>
        </extensions>
      </trkpt>
      <trkpt lat="37.976092211902141571044921875" lon="-107.7360308356583118438720703125">
        <ele>3267</ele>
        <time>2026-08-15T19:09:14.000Z</time>
        <extensions>
          <ns3:TrackPointExtension>
            <ns3:hr>105</ns3:hr>
            <ns3:cad>0</ns3:cad>
          </ns3:TrackPointExtension>
        </extensions>
      </trkpt>
      <trkpt lat="37.9760871827602386474609375" lon="-107.73603075183928012847900390625">
        <ele>3266.800048828125</ele>
        <time>2026-08-15T19:09:15.000Z</time>
        <extensions>
          <ns3:TrackPointExtension>
            <ns3:hr>106</ns3:hr>
            <ns3:cad>0</ns3:cad>
          </ns3:TrackPointExtension>
        </extensions>
      </trkpt>
      <trkpt lat="37.97603915445506572723388671875" lon="-107.73602153174579143524169921875">
        <ele>3265.800048828125</ele>
        <time>2026-08-15T19:09:21.000Z</time>
        <extensions>
          <ns3:TrackPointExtension>
            <ns3:hr>107</ns3:hr>
            <ns3:cad>0</ns3:cad>
          </ns3:TrackPointExtension>
        </extensions>
      </trkpt>
      <trkpt lat="37.97602423466742038726806640625" lon="-107.73601281456649303436279296875">
        <ele>3265.199951171875</ele>
        <time>2026-08-15T19:09:23.000Z</time>
        <extensions>
          <ns3:TrackPointExtension>
            <ns3:hr>106</ns3:hr>
            <ns3:cad>0</ns3:cad>
          </ns3:TrackPointExtension>
        </extensions>
      </trkpt>
      <trkpt lat="37.97601048834621906280517578125" lon="-107.73599915206432342529296875">
        <ele>3264.39990234375</ele>
        <time>2026-08-15T19:09:25.000Z</time>
        <extensions>
          <ns3:TrackPointExtension>
            <ns3:hr>105</ns3:hr>
            <ns3:cad>0</ns3:cad>
          </ns3:TrackPointExtension>
        </extensions>
      </trkpt>
      <trkpt lat="37.97596673481166362762451171875" lon="-107.736002169549465179443359375">
        <ele>3263.60009765625</ele>
        <time>2026-08-15T19:09:29.000Z</time>
        <extensions>
          <ns3:TrackPointExtension>
            <ns3:hr>104</ns3:hr>
            <ns3:cad>0</ns3:cad>
          </ns3:TrackPointExtension>
        </extensions>
      </trkpt>
      <trkpt lat="37.97595449723303318023681640625" lon="-107.73600627668201923370361328125">
        <ele>3263.39990234375</ele>
        <time>2026-08-15T19:09:30.000Z</time>
        <extensions>
          <ns3:TrackPointExtension>
            <ns3:hr>104</ns3:hr>
            <ns3:cad>0</ns3:cad>
          </ns3:TrackPointExtension>
        </extensions>
      </trkpt>
      <trkpt lat="37.9759408347308635711669921875" lon="-107.73599638603627681732177734375">
        <ele>3262.800048828125</ele>
        <time>2026-08-15T19:09:32.000Z</time>
        <extensions>
          <ns3:TrackPointExtension>
            <ns3:hr>103</ns3:hr>
            <ns3:cad>0</ns3:cad>
          </ns3:TrackPointExtension>
        </extensions>
      </trkpt>
      <trkpt lat="37.9759324528276920318603515625" lon="-107.73599303327500820159912109375">
        <ele>3262.60009765625</ele>
        <time>2026-08-15T19:09:34.000Z</time>
        <extensions>
          <ns3:TrackPointExtension>
            <ns3:hr>103</ns3:hr>
            <ns3:cad>0</ns3:cad>
          </ns3:TrackPointExtension>
        </extensions>
      </trkpt>
      <trkpt lat="37.9759254120290279388427734375" lon="-107.735994122922420501708984375">
        <ele>3262.60009765625</ele>
        <time>2026-08-15T19:09:37.000Z</time>
        <extensions>
          <ns3:TrackPointExtension>
            <ns3:hr>106</ns3:hr>
            <ns3:cad>0</ns3:cad>
          </ns3:TrackPointExtension>
        </extensions>
      </trkpt>
      <trkpt lat="37.97591811977326869964599609375" lon="-107.736000157892704010009765625">
        <ele>3262.39990234375</ele>
        <time>2026-08-15T19:09:40.000Z</time>
        <extensions>
          <ns3:TrackPointExtension>
            <ns3:hr>107</ns3:hr>
            <ns3:cad>0</ns3:cad>
          </ns3:TrackPointExtension>
        </extensions>
      </trkpt>
      <trkpt lat="37.97590856440365314483642578125" lon="-107.735990099608898162841796875">
        <ele>3262.199951171875</ele>
        <time>2026-08-15T19:09:46.000Z</time>
        <extensions>
          <ns3:TrackPointExtension>
            <ns3:hr>107</ns3:hr>
            <ns3:cad>0</ns3:cad>
          </ns3:TrackPointExtension>
        </extensions>
      </trkpt>
      <trkpt lat="37.97589180059731006622314453125" lon="-107.7359644509851932525634765625">
        <ele>3261.199951171875</ele>
        <time>2026-08-15T19:09:50.000Z</time>
        <extensions>
          <ns3:TrackPointExtension>
            <ns3:hr>108</ns3:hr>
            <ns3:cad>69</ns3:cad>
          </ns3:TrackPointExtension>
        </extensions>
      </trkpt>
      <trkpt lat="37.975889034569263458251953125" lon="-107.7359480224549770355224609375">
        <ele>3260.60009765625</ele>
        <time>2026-08-15T19:09:52.000Z</time>
        <extensions>
          <ns3:TrackPointExtension>
            <ns3:hr>109</ns3:hr>
            <ns3:cad>69</ns3:cad>
          </ns3:TrackPointExtension>
        </extensions>
      </trkpt>
      <trkpt lat="37.9758717678487300872802734375" lon="-107.7359074540436267852783203125">
        <ele>3260</ele>
        <time>2026-08-15T19:09:57.000Z</time>
        <extensions>
          <ns3:TrackPointExtension>
            <ns3:hr>109</ns3:hr>
            <ns3:cad>69</ns3:cad>
          </ns3:TrackPointExtension>
        </extensions>
      </trkpt>
      <trkpt lat="37.97586657106876373291015625" lon="-107.73589991033077239990234375">
        <ele>3259.39990234375</ele>
        <time>2026-08-15T19:09:59.000Z</time>
        <extensions>
          <ns3:TrackPointExtension>
            <ns3:hr>110</ns3:hr>
            <ns3:cad>0</ns3:cad>
          </ns3:TrackPointExtension>
        </extensions>
      </trkpt>
      <trkpt lat="37.97586849890649318695068359375" lon="-107.73589462973177433013916015625">
        <ele>3259</ele>
        <time>2026-08-15T19:10:03.000Z</time>
        <extensions>
          <ns3:TrackPointExtension>
            <ns3:hr>109</ns3:hr>
            <ns3:cad>0</ns3:cad>
          </ns3:TrackPointExtension>
        </extensions>
      </trkpt>
      <trkpt lat="37.97586464323103427886962890625" lon="-107.735885493457317352294921875">
        <ele>3259.199951171875</ele>
        <time>2026-08-15T19:10:06.000Z</time>
        <extensions>
          <ns3:TrackPointExtension>
            <ns3:hr>109</ns3:hr>
            <ns3:cad>0</ns3:cad>
          </ns3:TrackPointExtension>
        </extensions>
      </trkpt>
      <trkpt lat="37.97584712505340576171875" lon="-107.73587937466800212860107421875">
        <ele>3258.39990234375</ele>
        <time>2026-08-15T19:10:11.000Z</time>
        <extensions>
          <ns3:TrackPointExtension>
            <ns3:hr>108</ns3:hr>
            <ns3:cad>0</ns3:cad>
          </ns3:TrackPointExtension>
        </extensions>
      </trkpt>
      <trkpt lat="37.9758472926914691925048828125" lon="-107.73587434552609920501708984375">
        <ele>3257.800048828125</ele>
        <time>2026-08-15T19:10:13.000Z</time>
        <extensions>
          <ns3:TrackPointExtension>
            <ns3:hr>111</ns3:hr>
            <ns3:cad>0</ns3:cad>
          </ns3:TrackPointExtension>
        </extensions>
      </trkpt>
      <trkpt lat="37.9758456163108348846435546875" lon="-107.73587535135447978973388671875">
        <ele>3257.60009765625</ele>
        <time>2026-08-15T19:10:15.000Z</time>
        <extensions>
          <ns3:TrackPointExtension>
            <ns3:hr>115</ns3:hr>
            <ns3:cad>0</ns3:cad>
          </ns3:TrackPointExtension>
        </extensions>
      </trkpt>
      <trkpt lat="37.97584268264472484588623046875" lon="-107.735866047441959381103515625">
        <ele>3257.39990234375</ele>
        <time>2026-08-15T19:10:17.000Z</time>
        <extensions>
          <ns3:TrackPointExtension>
            <ns3:hr>118</ns3:hr>
            <ns3:cad>0</ns3:cad>
          </ns3:TrackPointExtension>
        </extensions>
      </trkpt>
      <trkpt lat="37.97584109008312225341796875" lon="-107.73585841991007328033447265625">
        <ele>3257.199951171875</ele>
        <time>2026-08-15T19:10:18.000Z</time>
        <extensions>
          <ns3:TrackPointExtension>
            <ns3:hr>119</ns3:hr>
            <ns3:cad>0</ns3:cad>
          </ns3:TrackPointExtension>
        </extensions>
      </trkpt>
      <trkpt lat="37.9758305288851261138916015625" lon="-107.7358348667621612548828125">
        <ele>3256.800048828125</ele>
        <time>2026-08-15T19:10:21.000Z</time>
        <extensions>
          <ns3:TrackPointExtension>
            <ns3:hr>120</ns3:hr>
            <ns3:cad>0</ns3:cad>
          </ns3:TrackPointExtension>
        </extensions>
      </trkpt>
      <trkpt lat="37.9758100770413875579833984375" lon="-107.735798992216587066650390625">
        <ele>3255.60009765625</ele>
        <time>2026-08-15T19:10:25.000Z</time>
        <extensions>
          <ns3:TrackPointExtension>
            <ns3:hr>120</ns3:hr>
            <ns3:cad>0</ns3:cad>
          </ns3:TrackPointExtension>
        </extensions>
      </trkpt>
      <trkpt lat="37.97578476369380950927734375" lon="-107.73576236329972743988037109375">
        <ele>3254.60009765625</ele>
        <time>2026-08-15T19:10:29.000Z</time>
        <extensions>
          <ns3:TrackPointExtension>
            <ns3:hr>119</ns3:hr>
            <ns3:cad>0</ns3:cad>
          </ns3:TrackPointExtension>
        </extensions>
      </trkpt>
      <trkpt lat="37.97575534321367740631103515625" lon="-107.73574660532176494598388671875">
        <ele>3253.60009765625</ele>
        <time>2026-08-15T19:10:32.000Z</time>
        <extensions>
          <ns3:TrackPointExtension>
            <ns3:hr>120</ns3:hr>
            <ns3:cad>0</ns3:cad>
          </ns3:TrackPointExtension>
        </extensions>
      </trkpt>
      <trkpt lat="37.9757423512637615203857421875" lon="-107.73575632832944393157958984375">
        <ele>3253.39990234375</ele>
        <time>2026-08-15T19:10:33.000Z</time>
        <extensions>
          <ns3:TrackPointExtension>
            <ns3:hr>119</ns3:hr>
            <ns3:cad>59</ns3:cad>
          </ns3:TrackPointExtension>
        </extensions>
      </trkpt>
      <trkpt lat="37.97571091912686824798583984375" lon="-107.7358082123100757598876953125">
        <ele>3252.800048828125</ele>
        <time>2026-08-15T19:10:38.000Z</time>
        <extensions>
          <ns3:TrackPointExtension>
            <ns3:hr>119</ns3:hr>
            <ns3:cad>57</ns3:cad>
          </ns3:TrackPointExtension>
        </extensions>
      </trkpt>
      <trkpt lat="37.9756982624530792236328125" lon="-107.7358849905431270599365234375">
        <ele>3252.39990234375</ele>
        <time>2026-08-15T19:10:43.000Z</time>
        <extensions>
          <ns3:TrackPointExtension>
            <ns3:hr>118</ns3:hr>
            <ns3:cad>0</ns3:cad>
          </ns3:TrackPointExtension>
        </extensions>
      </trkpt>
      <trkpt lat="37.9756934009492397308349609375" lon="-107.7359091304242610931396484375">
        <ele>3251.800048828125</ele>
        <time>2026-08-15T19:10:45.000Z</time>
        <extensions>
          <ns3:TrackPointExtension>
            <ns3:hr>117</ns3:hr>
            <ns3:cad>0</ns3:cad>
          </ns3:TrackPointExtension>
        </extensions>
      </trkpt>
      <trkpt lat="37.9756803251802921295166015625" lon="-107.73594207130372524261474609375">
        <ele>3251.199951171875</ele>
        <time>2026-08-15T19:10:48.000Z</time>
        <extensions>
          <ns3:TrackPointExtension>
            <ns3:hr>116</ns3:hr>
            <ns3:cad>0</ns3:cad>
          </ns3:TrackPointExtension>
        </extensions>
      </trkpt>
      <trkpt lat="37.9756736196577548980712890625" lon="-107.73599219508469104766845703125">
        <ele>3250.199951171875</ele>
        <time>2026-08-15T19:10:52.000Z</time>
        <extensions>
          <ns3:TrackPointExtension>
            <ns3:hr>117</ns3:hr>
            <ns3:cad>43</ns3:cad>
          </ns3:TrackPointExtension>
        </extensions>
      </trkpt>
      <trkpt lat="37.97566934488713741302490234375" lon="-107.73600451648235321044921875">
        <ele>3250</ele>
        <time>2026-08-15T19:10:53.000Z</time>
        <extensions>
          <ns3:TrackPointExtension>
            <ns3:hr>117</ns3:hr>
            <ns3:cad>43</ns3:cad>
          </ns3:TrackPointExtension>
        </extensions>
      </trkpt>
      <trkpt lat="37.975667081773281097412109375" lon="-107.73606210015714168548583984375">
        <ele>3249.39990234375</ele>
        <time>2026-08-15T19:10:57.000Z</time>
        <extensions>
          <ns3:TrackPointExtension>
            <ns3:hr>114</ns3:hr>
            <ns3:cad>19</ns3:cad>
          </ns3:TrackPointExtension>
        </extensions>
      </trkpt>
      <trkpt lat="37.9756652377545833587646484375" lon="-107.73607718758285045623779296875">
        <ele>3249</ele>
        <time>2026-08-15T19:10:58.000Z</time>
        <extensions>
          <ns3:TrackPointExtension>
            <ns3:hr>113</ns3:hr>
            <ns3:cad>19</ns3:cad>
          </ns3:TrackPointExtension>
        </extensions>
      </trkpt>
      <trkpt lat="37.9756607115268707275390625" lon="-107.73608473129570484161376953125">
        <ele>3248.800048828125</ele>
        <time>2026-08-15T19:10:59.000Z</time>
        <extensions>
          <ns3:TrackPointExtension>
            <ns3:hr>112</ns3:hr>
            <ns3:cad>0</ns3:cad>
          </ns3:TrackPointExtension>
        </extensions>
      </trkpt>
      <trkpt lat="37.9756638966500759124755859375" lon="-107.7361042611300945281982421875">
        <ele>3248</ele>
        <time>2026-08-15T19:11:01.000Z</time>
        <extensions>
          <ns3:TrackPointExtension>
            <ns3:hr>114</ns3:hr>
            <ns3:cad>0</ns3:cad>
          </ns3:TrackPointExtension>
        </extensions>
      </trkpt>
      <trkpt lat="37.97566272318363189697265625" lon="-107.736116163432598114013671875">
        <ele>3247.800048828125</ele>
        <time>2026-08-15T19:11:02.000Z</time>
        <extensions>
          <ns3:TrackPointExtension>
            <ns3:hr>114</ns3:hr>
            <ns3:cad>0</ns3:cad>
          </ns3:TrackPointExtension>
        </extensions>
      </trkpt>
      <trkpt lat="37.97565400600433349609375" lon="-107.7361532114446163177490234375">
        <ele>3247</ele>
        <time>2026-08-15T19:11:05.000Z</time>
        <extensions>
          <ns3:TrackPointExtension>
            <ns3:hr>114</ns3:hr>
            <ns3:cad>0</ns3:cad>
          </ns3:TrackPointExtension>
        </extensions>
      </trkpt>
      <trkpt lat="37.97564654611051082611083984375" lon="-107.7361857332289218902587890625">
        <ele>3246.60009765625</ele>
        <time>2026-08-15T19:11:08.000Z</time>
        <extensions>
          <ns3:TrackPointExtension>
            <ns3:hr>112</ns3:hr>
            <ns3:cad>0</ns3:cad>
          </ns3:TrackPointExtension>
        </extensions>
      </trkpt>
      <trkpt lat="37.97564537264406681060791015625" lon="-107.73622236214578151702880859375">
        <ele>3246</ele>
        <time>2026-08-15T19:11:11.000Z</time>
        <extensions>
          <ns3:TrackPointExtension>
            <ns3:hr>109</ns3:hr>
            <ns3:cad>0</ns3:cad>
          </ns3:TrackPointExtension>
        </extensions>
      </trkpt>
      <trkpt lat="37.97563984058797359466552734375" lon="-107.73624247871339321136474609375">
        <ele>3245.39990234375</ele>
        <time>2026-08-15T19:11:13.000Z</time>
        <extensions>
          <ns3:TrackPointExtension>
            <ns3:hr>108</ns3:hr>
            <ns3:cad>0</ns3:cad>
          </ns3:TrackPointExtension>
        </extensions>
      </trkpt>
      <trkpt lat="37.9756360687315464019775390625" lon="-107.7363024093210697174072265625">
        <ele>3244.60009765625</ele>
        <time>2026-08-15T19:11:18.000Z</time>
        <extensions>
          <ns3:TrackPointExtension>
            <ns3:hr>105</ns3:hr>
            <ns3:cad>0</ns3:cad>
          </ns3:TrackPointExtension>
        </extensions>
      </trkpt>
      <trkpt lat="37.9756350629031658172607421875" lon="-107.736315317451953887939453125">
        <ele>3244.39990234375</ele>
        <time>2026-08-15T19:11:19.000Z</time>
        <extensions>
          <ns3:TrackPointExtension>
            <ns3:hr>105</ns3:hr>
            <ns3:cad>0</ns3:cad>
          </ns3:TrackPointExtension>
        </extensions>
      </trkpt>
      <trkpt lat="37.97563246451318264007568359375" lon="-107.73638262413442134857177734375">
        <ele>3243.199951171875</ele>
        <time>2026-08-15T19:11:24.000Z</time>
        <extensions>
          <ns3:TrackPointExtension>
            <ns3:hr>104</ns3:hr>
            <ns3:cad>55</ns3:cad>
          </ns3:TrackPointExtension>
        </extensions>
      </trkpt>
      <trkpt lat="37.97562994994223117828369140625" lon="-107.73645110428333282470703125">
        <ele>3242.800048828125</ele>
        <time>2026-08-15T19:11:30.000Z</time>
        <extensions>
          <ns3:TrackPointExtension>
            <ns3:hr>104</ns3:hr>
            <ns3:cad>56</ns3:cad>
          </ns3:TrackPointExtension>
        </extensions>
      </trkpt>
      <trkpt lat="37.9756263457238674163818359375" lon="-107.73646979592740535736083984375">
        <ele>3242.39990234375</ele>
        <time>2026-08-15T19:11:32.000Z</time>
        <extensions>
          <ns3:TrackPointExtension>
            <ns3:hr>103</ns3:hr>
            <ns3:cad>56</ns3:cad>
          </ns3:TrackPointExtension>
        </extensions>
      </trkpt>
      <trkpt lat="37.975626178085803985595703125" lon="-107.7364785969257354736328125">
        <ele>3242</ele>
        <time>2026-08-15T19:11:33.000Z</time>
        <extensions>
          <ns3:TrackPointExtension>
            <ns3:hr>104</ns3:hr>
            <ns3:cad>55</ns3:cad>
          </ns3:TrackPointExtension>
        </extensions>
      </trkpt>
      <trkpt lat="37.97561989165842533111572265625" lon="-107.73651287890970706939697265625">
        <ele>3240.800048828125</ele>
        <time>2026-08-15T19:11:37.000Z</time>
        <extensions>
          <ns3:TrackPointExtension>
            <ns3:hr>104</ns3:hr>
            <ns3:cad>0</ns3:cad>
          </ns3:TrackPointExtension>
        </extensions>
      </trkpt>
      <trkpt lat="37.975616119801998138427734375" lon="-107.736540623009204864501953125">
        <ele>3240.199951171875</ele>
        <time>2026-08-15T19:11:39.000Z</time>
        <extensions>
          <ns3:TrackPointExtension>
            <ns3:hr>103</ns3:hr>
            <ns3:cad>0</ns3:cad>
          </ns3:TrackPointExtension>
        </extensions>
      </trkpt>
      <trkpt lat="37.97561385668814182281494140625" lon="-107.73656920529901981353759765625">
        <ele>3239.39990234375</ele>
        <time>2026-08-15T19:11:41.000Z</time>
        <extensions>
          <ns3:TrackPointExtension>
            <ns3:hr>103</ns3:hr>
            <ns3:cad>0</ns3:cad>
          </ns3:TrackPointExtension>
        </extensions>
      </trkpt>
      <trkpt lat="37.97560094855725765228271484375" lon="-107.736590914428234100341796875">
        <ele>3239</ele>
        <time>2026-08-15T19:11:44.000Z</time>
        <extensions>
          <ns3:TrackPointExtension>
            <ns3:hr>102</ns3:hr>
            <ns3:cad>0</ns3:cad>
          </ns3:TrackPointExtension>
        </extensions>
      </trkpt>
      <trkpt lat="37.9756043851375579833984375" lon="-107.7366051636636257171630859375">
        <ele>3238.800048828125</ele>
        <time>2026-08-15T19:11:45.000Z</time>
        <extensions>
          <ns3:TrackPointExtension>
            <ns3:hr>102</ns3:hr>
            <ns3:cad>0</ns3:cad>
          </ns3:TrackPointExtension>
        </extensions>
      </trkpt>
      <trkpt lat="37.975602708756923675537109375" lon="-107.7366256155073642730712890625">
        <ele>3238.39990234375</ele>
        <time>2026-08-15T19:11:47.000Z</time>
        <extensions>
          <ns3:TrackPointExtension>
            <ns3:hr>103</ns3:hr>
            <ns3:cad>18</ns3:cad>
          </ns3:TrackPointExtension>
        </extensions>
      </trkpt>
      <trkpt lat="37.9756043851375579833984375" lon="-107.73666542954742908477783203125">
        <ele>3237.800048828125</ele>
        <time>2026-08-15T19:11:50.000Z</time>
        <extensions>
          <ns3:TrackPointExtension>
            <ns3:hr>105</ns3:hr>
            <ns3:cad>18</ns3:cad>
          </ns3:TrackPointExtension>
        </extensions>
      </trkpt>
      <trkpt lat="37.97559575177729129791259765625" lon="-107.73671974427998065948486328125">
        <ele>3237.39990234375</ele>
        <time>2026-08-15T19:11:55.000Z</time>
        <extensions>
          <ns3:TrackPointExtension>
            <ns3:hr>105</ns3:hr>
            <ns3:cad>18</ns3:cad>
          </ns3:TrackPointExtension>
        </extensions>
      </trkpt>
      <trkpt lat="37.9755941592156887054443359375" lon="-107.7367372624576091766357421875">
        <ele>3237.199951171875</ele>
        <time>2026-08-15T19:11:57.000Z</time>
        <extensions>
          <ns3:TrackPointExtension>
            <ns3:hr>105</ns3:hr>
            <ns3:cad>18</ns3:cad>
          </ns3:TrackPointExtension>
        </extensions>
      </trkpt>
      <trkpt lat="37.97559072263538837432861328125" lon="-107.73680926300585269927978515625">
        <ele>3237</ele>
        <time>2026-08-15T19:12:03.000Z</time>
        <extensions>
          <ns3:TrackPointExtension>
            <ns3:hr>106</ns3:hr>
            <ns3:cad>53</ns3:cad>
          </ns3:TrackPointExtension>
        </extensions>
      </trkpt>
      <trkpt lat="37.97558720223605632781982421875" lon="-107.7368653379380702972412109375">
        <ele>3236.199951171875</ele>
        <time>2026-08-15T19:12:07.000Z</time>
        <extensions>
          <ns3:TrackPointExtension>
            <ns3:hr>104</ns3:hr>
            <ns3:cad>50</ns3:cad>
          </ns3:TrackPointExtension>
        </extensions>
      </trkpt>
      <trkpt lat="37.97559742815792560577392578125" lon="-107.7369102649390697479248046875">
        <ele>3235.39990234375</ele>
        <time>2026-08-15T19:12:10.000Z</time>
        <extensions>
          <ns3:TrackPointExtension>
            <ns3:hr>103</ns3:hr>
            <ns3:cad>55</ns3:cad>
          </ns3:TrackPointExtension>
        </extensions>
      </trkpt>
      <trkpt lat="37.9755985178053379058837890625" lon="-107.7369209937751293182373046875">
        <ele>3235.199951171875</ele>
        <time>2026-08-15T19:12:11.000Z</time>
        <extensions>
          <ns3:TrackPointExtension>
            <ns3:hr>103</ns3:hr>
            <ns3:cad>55</ns3:cad>
          </ns3:TrackPointExtension>
        </extensions>
      </trkpt>
      <trkpt lat="37.97559021972119808197021484375" lon="-107.73696281947195529937744140625">
        <ele>3235</ele>
        <time>2026-08-15T19:12:15.000Z</time>
        <extensions>
          <ns3:TrackPointExtension>
            <ns3:hr>100</ns3:hr>
            <ns3:cad>0</ns3:cad>
          </ns3:TrackPointExtension>
        </extensions>
      </trkpt>
      <trkpt lat="37.97558351419866085052490234375" lon="-107.73698846809566020965576171875">
        <ele>3234.800048828125</ele>
        <time>2026-08-15T19:12:17.000Z</time>
        <extensions>
          <ns3:TrackPointExtension>
            <ns3:hr>98</ns3:hr>
            <ns3:cad>0</ns3:cad>
          </ns3:TrackPointExtension>
        </extensions>
      </trkpt>
      <trkpt lat="37.97557957470417022705078125" lon="-107.7370138652622699737548828125">
        <ele>3234.39990234375</ele>
        <time>2026-08-15T19:12:19.000Z</time>
        <extensions>
          <ns3:TrackPointExtension>
            <ns3:hr>95</ns3:hr>
            <ns3:cad>0</ns3:cad>
          </ns3:TrackPointExtension>
        </extensions>
      </trkpt>
      <trkpt lat="37.97557764686644077301025390625" lon="-107.7370259352028369903564453125">
        <ele>3234.199951171875</ele>
        <time>2026-08-15T19:12:20.000Z</time>
        <extensions>
          <ns3:TrackPointExtension>
            <ns3:hr>95</ns3:hr>
            <ns3:cad>0</ns3:cad>
          </ns3:TrackPointExtension>
        </extensions>
      </trkpt>
      <trkpt lat="37.97557479701936244964599609375" lon="-107.7370688505470752716064453125">
        <ele>3233.199951171875</ele>
        <time>2026-08-15T19:12:24.000Z</time>
        <extensions>
          <ns3:TrackPointExtension>
            <ns3:hr>94</ns3:hr>
            <ns3:cad>0</ns3:cad>
          </ns3:TrackPointExtension>
        </extensions>
      </trkpt>
      <trkpt lat="37.975571192800998687744140625" lon="-107.73708687163889408111572265625">
        <ele>3232.800048828125</ele>
        <time>2026-08-15T19:12:26.000Z</time>
        <extensions>
          <ns3:TrackPointExtension>
            <ns3:hr>94</ns3:hr>
            <ns3:cad>56</ns3:cad>
          </ns3:TrackPointExtension>
        </extensions>
      </trkpt>
      <trkpt lat="37.97555652447044849395751953125" lon="-107.73711235262453556060791015625">
        <ele>3232</ele>
        <time>2026-08-15T19:12:30.000Z</time>
        <extensions>
          <ns3:TrackPointExtension>
            <ns3:hr>95</ns3:hr>
            <ns3:cad>19</ns3:cad>
          </ns3:TrackPointExtension>
        </extensions>
      </trkpt>
      <trkpt lat="37.97554948367178440093994140625" lon="-107.73712693713605403900146484375">
        <ele>3231.60009765625</ele>
        <time>2026-08-15T19:12:32.000Z</time>
        <extensions>
          <ns3:TrackPointExtension>
            <ns3:hr>95</ns3:hr>
            <ns3:cad>19</ns3:cad>
          </ns3:TrackPointExtension>
        </extensions>
      </trkpt>
      <trkpt lat="37.9755354858934879302978515625" lon="-107.7371486462652683258056640625">
        <ele>3231</ele>
        <time>2026-08-15T19:12:35.000Z</time>
        <extensions>
          <ns3:TrackPointExtension>
            <ns3:hr>96</ns3:hr>
            <ns3:cad>40</ns3:cad>
          </ns3:TrackPointExtension>
        </extensions>
      </trkpt>
      <trkpt lat="37.975508831441402435302734375" lon="-107.7371684275567531585693359375">
        <ele>3229.800048828125</ele>
        <time>2026-08-15T19:12:39.000Z</time>
        <extensions>
          <ns3:TrackPointExtension>
            <ns3:hr>99</ns3:hr>
            <ns3:cad>40</ns3:cad>
          </ns3:TrackPointExtension>
        </extensions>
      </trkpt>
      <trkpt lat="37.975490391254425048828125" lon="-107.7371744625270366668701171875">
        <ele>3229.39990234375</ele>
        <time>2026-08-15T19:12:42.000Z</time>
        <extensions>
          <ns3:TrackPointExtension>
            <ns3:hr>102</ns3:hr>
            <ns3:cad>51</ns3:cad>
          </ns3:TrackPointExtension>
        </extensions>
      </trkpt>
      <trkpt lat="37.9754841886460781097412109375" lon="-107.73719248361885547637939453125">
        <ele>3228.60009765625</ele>
        <time>2026-08-15T19:12:45.000Z</time>
        <extensions>
          <ns3:TrackPointExtension>
            <ns3:hr>104</ns3:hr>
            <ns3:cad>51</ns3:cad>
          </ns3:TrackPointExtension>
        </extensions>
      </trkpt>
      <trkpt lat="37.975485026836395263671875" lon="-107.73719432763755321502685546875">
        <ele>3228.39990234375</ele>
        <time>2026-08-15T19:12:46.000Z</time>
        <extensions>
          <ns3:TrackPointExtension>
            <ns3:hr>105</ns3:hr>
            <ns3:cad>51</ns3:cad>
          </ns3:TrackPointExtension>
        </extensions>
      </trkpt>
      <trkpt lat="37.97547857277095317840576171875" lon="-107.73721779696643352508544921875">
        <ele>3227.800048828125</ele>
        <time>2026-08-15T19:12:52.000Z</time>
        <extensions>
          <ns3:TrackPointExtension>
            <ns3:hr>106</ns3:hr>
            <ns3:cad>0</ns3:cad>
          </ns3:TrackPointExtension>
        </extensions>
      </trkpt>
      <trkpt lat="37.97547505237162113189697265625" lon="-107.737233303487300872802734375">
        <ele>3227.39990234375</ele>
        <time>2026-08-15T19:12:55.000Z</time>
        <extensions>
          <ns3:TrackPointExtension>
            <ns3:hr>106</ns3:hr>
            <ns3:cad>0</ns3:cad>
          </ns3:TrackPointExtension>
        </extensions>
      </trkpt>
      <trkpt lat="37.97546817921102046966552734375" lon="-107.7372542582452297210693359375">
        <ele>3226.39990234375</ele>
        <time>2026-08-15T19:12:59.000Z</time>
        <extensions>
          <ns3:TrackPointExtension>
            <ns3:hr>107</ns3:hr>
            <ns3:cad>0</ns3:cad>
          </ns3:TrackPointExtension>
        </extensions>
      </trkpt>
      <trkpt lat="37.97546918503940105438232421875" lon="-107.73725752718746662139892578125">
        <ele>3226</ele>
        <time>2026-08-15T19:13:00.000Z</time>
        <extensions>
          <ns3:TrackPointExtension>
            <ns3:hr>108</ns3:hr>
            <ns3:cad>0</ns3:cad>
          </ns3:TrackPointExtension>
        </extensions>
      </trkpt>
      <trkpt lat="37.97545795328915119171142578125" lon="-107.73728434927761554718017578125">
        <ele>3225</ele>
        <time>2026-08-15T19:13:04.000Z</time>
        <extensions>
          <ns3:TrackPointExtension>
            <ns3:hr>106</ns3:hr>
            <ns3:cad>0</ns3:cad>
          </ns3:TrackPointExtension>
        </extensions>
      </trkpt>
      <trkpt lat="37.97545460052788257598876953125" lon="-107.7372918091714382171630859375">
        <ele>3225</ele>
        <time>2026-08-15T19:13:05.000Z</time>
        <extensions>
          <ns3:TrackPointExtension>
            <ns3:hr>106</ns3:hr>
            <ns3:cad>0</ns3:cad>
          </ns3:TrackPointExtension>
        </extensions>
      </trkpt>
      <trkpt lat="37.97543741762638092041015625" lon="-107.73732206784188747406005859375">
        <ele>3225.39990234375</ele>
        <time>2026-08-15T19:13:10.000Z</time>
        <extensions>
          <ns3:TrackPointExtension>
            <ns3:hr>106</ns3:hr>
            <ns3:cad>0</ns3:cad>
          </ns3:TrackPointExtension>
        </extensions>
      </trkpt>
      <trkpt lat="37.975415624678134918212890625" lon="-107.73735358379781246185302734375">
        <ele>3226</ele>
        <time>2026-08-15T19:13:14.000Z</time>
        <extensions>
          <ns3:TrackPointExtension>
            <ns3:hr>103</ns3:hr>
            <ns3:cad>0</ns3:cad>
          </ns3:TrackPointExtension>
        </extensions>
      </trkpt>
      <trkpt lat="37.975408919155597686767578125" lon="-107.73736129514873027801513671875">
        <ele>3226.199951171875</ele>
        <time>2026-08-15T19:13:15.000Z</time>
        <extensions>
          <ns3:TrackPointExtension>
            <ns3:hr>103</ns3:hr>
            <ns3:cad>0</ns3:cad>
          </ns3:TrackPointExtension>
        </extensions>
      </trkpt>
      <trkpt lat="37.97540179453790187835693359375" lon="-107.7373913861811161041259765625">
        <ele>3226.199951171875</ele>
        <time>2026-08-15T19:13:19.000Z</time>
        <extensions>
          <ns3:TrackPointExtension>
            <ns3:hr>101</ns3:hr>
            <ns3:cad>0</ns3:cad>
          </ns3:TrackPointExtension>
        </extensions>
      </trkpt>
      <trkpt lat="37.97538771294057369232177734375" lon="-107.7374198846518993377685546875">
        <ele>3225</ele>
        <time>2026-08-15T19:13:25.000Z</time>
        <extensions>
          <ns3:TrackPointExtension>
            <ns3:hr>102</ns3:hr>
            <ns3:cad>0</ns3:cad>
          </ns3:TrackPointExtension>
        </extensions>
      </trkpt>
      <trkpt lat="37.9753765650093555450439453125" lon="-107.7374721877276897430419921875">
        <ele>3224.199951171875</ele>
        <time>2026-08-15T19:13:30.000Z</time>
        <extensions>
          <ns3:TrackPointExtension>
            <ns3:hr>101</ns3:hr>
            <ns3:cad>0</ns3:cad>
          </ns3:TrackPointExtension>
        </extensions>
      </trkpt>
      <trkpt lat="37.9753748886287212371826171875" lon="-107.7374804019927978515625">
        <ele>3224</ele>
        <time>2026-08-15T19:13:31.000Z</time>
        <extensions>
          <ns3:TrackPointExtension>
            <ns3:hr>100</ns3:hr>
            <ns3:cad>60</ns3:cad>
          </ns3:TrackPointExtension>
        </extensions>
      </trkpt>
      <trkpt lat="37.975355945527553558349609375" lon="-107.73751996457576751708984375">
        <ele>3223.39990234375</ele>
        <time>2026-08-15T19:13:35.000Z</time>
        <extensions>
          <ns3:TrackPointExtension>
            <ns3:hr>97</ns3:hr>
            <ns3:cad>60</ns3:cad>
          </ns3:TrackPointExtension>
        </extensions>
      </trkpt>
      <trkpt lat="37.9753541015088558197021484375" lon="-107.73752859793603420257568359375">
        <ele>3223.199951171875</ele>
        <time>2026-08-15T19:13:36.000Z</time>
        <extensions>
          <ns3:TrackPointExtension>
            <ns3:hr>96</ns3:hr>
            <ns3:cad>60</ns3:cad>
          </ns3:TrackPointExtension>
        </extensions>
      </trkpt>
      <trkpt lat="37.97535452060401439666748046875" lon="-107.73755215108394622802734375">
        <ele>3222.800048828125</ele>
        <time>2026-08-15T19:13:38.000Z</time>
        <extensions>
          <ns3:TrackPointExtension>
            <ns3:hr>95</ns3:hr>
            <ns3:cad>60</ns3:cad>
          </ns3:TrackPointExtension>
        </extensions>
      </trkpt>
      <trkpt lat="37.97535418532788753509521484375" lon="-107.73757386021316051483154296875">
        <ele>3222.199951171875</ele>
        <time>2026-08-15T19:13:40.000Z</time>
        <extensions>
          <ns3:TrackPointExtension>
            <ns3:hr>95</ns3:hr>
            <ns3:cad>0</ns3:cad>
          </ns3:TrackPointExtension>
        </extensions>
      </trkpt>
      <trkpt lat="37.9753551073372364044189453125" lon="-107.7376131713390350341796875">
        <ele>3221.60009765625</ele>
        <time>2026-08-15T19:13:43.000Z</time>
        <extensions>
          <ns3:TrackPointExtension>
            <ns3:hr>95</ns3:hr>
            <ns3:cad>58</ns3:cad>
          </ns3:TrackPointExtension>
        </extensions>
      </trkpt>
      <trkpt lat="37.975327782332897186279296875" lon="-107.73766220547258853912353515625">
        <ele>3221</ele>
        <time>2026-08-15T19:13:47.000Z</time>
        <extensions>
          <ns3:TrackPointExtension>
            <ns3:hr>95</ns3:hr>
            <ns3:cad>57</ns3:cad>
          </ns3:TrackPointExtension>
        </extensions>
      </trkpt>
      <trkpt lat="37.97532350756227970123291015625" lon="-107.7377038635313510894775390625">
        <ele>3220.60009765625</ele>
        <time>2026-08-15T19:13:50.000Z</time>
        <extensions>
          <ns3:TrackPointExtension>
            <ns3:hr>94</ns3:hr>
            <ns3:cad>56</ns3:cad>
          </ns3:TrackPointExtension>
        </extensions>
      </trkpt>
      <trkpt lat="37.9753031395375728607177734375" lon="-107.7377440966665744781494140625">
        <ele>3219.39990234375</ele>
        <time>2026-08-15T19:13:54.000Z</time>
        <extensions>
          <ns3:TrackPointExtension>
            <ns3:hr>95</ns3:hr>
            <ns3:cad>55</ns3:cad>
          </ns3:TrackPointExtension>
        </extensions>
      </trkpt>
      <trkpt lat="37.97530204989016056060791015625" lon="-107.7378004230558872222900390625">
        <ele>3218.800048828125</ele>
        <time>2026-08-15T19:13:59.000Z</time>
        <extensions>
          <ns3:TrackPointExtension>
            <ns3:hr>95</ns3:hr>
            <ns3:cad>0</ns3:cad>
          </ns3:TrackPointExtension>
        </extensions>
      </trkpt>
      <trkpt lat="37.97531948424875736236572265625" lon="-107.7378322742879390716552734375">
        <ele>3218.39990234375</ele>
        <time>2026-08-15T19:14:02.000Z</time>
        <extensions>
          <ns3:TrackPointExtension>
            <ns3:hr>95</ns3:hr>
            <ns3:cad>41</ns3:cad>
          </ns3:TrackPointExtension>
        </extensions>
      </trkpt>
      <trkpt lat="37.97533222474157810211181640625" lon="-107.73791081272065639495849609375">
        <ele>3217.60009765625</ele>
        <time>2026-08-15T19:14:08.000Z</time>
        <extensions>
          <ns3:TrackPointExtension>
            <ns3:hr>94</ns3:hr>
            <ns3:cad>0</ns3:cad>
          </ns3:TrackPointExtension>
        </extensions>
      </trkpt>
      <trkpt lat="37.97533071599900722503662109375" lon="-107.737921960651874542236328125">
        <ele>3217.39990234375</ele>
        <time>2026-08-15T19:14:09.000Z</time>
        <extensions>
          <ns3:TrackPointExtension>
            <ns3:hr>95</ns3:hr>
            <ns3:cad>0</ns3:cad>
          </ns3:TrackPointExtension>
        </extensions>
      </trkpt>
      <trkpt lat="37.975331135094165802001953125" lon="-107.73793277330696582794189453125">
        <ele>3217.199951171875</ele>
        <time>2026-08-15T19:14:10.000Z</time>
        <extensions>
          <ns3:TrackPointExtension>
            <ns3:hr>95</ns3:hr>
            <ns3:cad>42</ns3:cad>
          </ns3:TrackPointExtension>
        </extensions>
      </trkpt>
      <trkpt lat="37.9753396846354007720947265625" lon="-107.737981975078582763671875">
        <ele>3216</ele>
        <time>2026-08-15T19:14:15.000Z</time>
        <extensions>
          <ns3:TrackPointExtension>
            <ns3:hr>94</ns3:hr>
            <ns3:cad>42</ns3:cad>
          </ns3:TrackPointExtension>
        </extensions>
      </trkpt>
      <trkpt lat="37.97533876262605190277099609375" lon="-107.73802413605153560638427734375">
        <ele>3215.60009765625</ele>
        <time>2026-08-15T19:14:18.000Z</time>
        <extensions>
          <ns3:TrackPointExtension>
            <ns3:hr>94</ns3:hr>
            <ns3:cad>60</ns3:cad>
          </ns3:TrackPointExtension>
        </extensions>
      </trkpt>
      <trkpt lat="37.97534865327179431915283203125" lon="-107.73806470446288585662841796875">
        <ele>3214.800048828125</ele>
        <time>2026-08-15T19:14:22.000Z</time>
        <extensions>
          <ns3:TrackPointExtension>
            <ns3:hr>94</ns3:hr>
            <ns3:cad>0</ns3:cad>
          </ns3:TrackPointExtension>
        </extensions>
      </trkpt>
      <trkpt lat="37.97535636462271213531494140625" lon="-107.73808398284018039703369140625">
        <ele>3214.60009765625</ele>
        <time>2026-08-15T19:14:24.000Z</time>
        <extensions>
          <ns3:TrackPointExtension>
            <ns3:hr>94</ns3:hr>
            <ns3:cad>0</ns3:cad>
          </ns3:TrackPointExtension>
        </extensions>
      </trkpt>
      <trkpt lat="37.97535837627947330474853515625" lon="-107.73812069557607173919677734375">
        <ele>3213.800048828125</ele>
        <time>2026-08-15T19:14:28.000Z</time>
        <extensions>
          <ns3:TrackPointExtension>
            <ns3:hr>94</ns3:hr>
            <ns3:cad>0</ns3:cad>
          </ns3:TrackPointExtension>
        </extensions>
      </trkpt>
      <trkpt lat="37.9753584600985050201416015625" lon="-107.73813796229660511016845703125">
        <ele>3213.60009765625</ele>
        <time>2026-08-15T19:14:29.000Z</time>
        <extensions>
          <ns3:TrackPointExtension>
            <ns3:hr>94</ns3:hr>
            <ns3:cad>0</ns3:cad>
          </ns3:TrackPointExtension>
        </extensions>
      </trkpt>
      <trkpt lat="37.97536675818264484405517578125" lon="-107.73822580464184284210205078125">
        <ele>3212.800048828125</ele>
        <time>2026-08-15T19:14:35.000Z</time>
        <extensions>
          <ns3:TrackPointExtension>
            <ns3:hr>92</ns3:hr>
            <ns3:cad>62</ns3:cad>
          </ns3:TrackPointExtension>
        </extensions>
      </trkpt>
      <trkpt lat="37.9753688536584377288818359375" lon="-107.7382413111627101898193359375">
        <ele>3212.60009765625</ele>
        <time>2026-08-15T19:14:36.000Z</time>
        <extensions>
          <ns3:TrackPointExtension>
            <ns3:hr>92</ns3:hr>
            <ns3:cad>62</ns3:cad>
          </ns3:TrackPointExtension>
        </extensions>
      </trkpt>
      <trkpt lat="37.97536659054458141326904296875" lon="-107.73833091370761394500732421875">
        <ele>3211.800048828125</ele>
        <time>2026-08-15T19:14:41.000Z</time>
        <extensions>
          <ns3:TrackPointExtension>
            <ns3:hr>90</ns3:hr>
            <ns3:cad>0</ns3:cad>
          </ns3:TrackPointExtension>
        </extensions>
      </trkpt>
      <trkpt lat="37.975363321602344512939453125" lon="-107.738353796303272247314453125">
        <ele>3211.60009765625</ele>
        <time>2026-08-15T19:14:43.000Z</time>
        <extensions>
          <ns3:TrackPointExtension>
            <ns3:hr>89</ns3:hr>
            <ns3:cad>0</ns3:cad>
          </ns3:TrackPointExtension>
        </extensions>
      </trkpt>
      <trkpt lat="37.97536089085042476654052734375" lon="-107.738428227603435516357421875">
        <ele>3210.60009765625</ele>
        <time>2026-08-15T19:14:48.000Z</time>
        <extensions>
          <ns3:TrackPointExtension>
            <ns3:hr>89</ns3:hr>
            <ns3:cad>77</ns3:cad>
          </ns3:TrackPointExtension>
        </extensions>
      </trkpt>
      <trkpt lat="37.97534479759633541107177734375" lon="-107.7385128848254680633544921875">
        <ele>3210.199951171875</ele>
        <time>2026-08-15T19:14:54.000Z</time>
        <extensions>
          <ns3:TrackPointExtension>
            <ns3:hr>89</ns3:hr>
            <ns3:cad>0</ns3:cad>
          </ns3:TrackPointExtension>
        </extensions>
      </trkpt>
      <trkpt lat="37.97532803378999233245849609375" lon="-107.73852705024182796478271484375">
        <ele>3209.60009765625</ele>
        <time>2026-08-15T19:14:58.000Z</time>
        <extensions>
          <ns3:TrackPointExtension>
            <ns3:hr>91</ns3:hr>
            <ns3:cad>0</ns3:cad>
          </ns3:TrackPointExtension>
        </extensions>
      </trkpt>
      <trkpt lat="37.97532920725643634796142578125" lon="-107.73853006772696971893310546875">
        <ele>3209.199951171875</ele>
        <time>2026-08-15T19:15:00.000Z</time>
        <extensions>
          <ns3:TrackPointExtension>
            <ns3:hr>91</ns3:hr>
            <ns3:cad>0</ns3:cad>
          </ns3:TrackPointExtension>
        </extensions>
      </trkpt>
      <trkpt lat="37.975326441228389739990234375" lon="-107.7385333366692066192626953125">
        <ele>3209.199951171875</ele>
        <time>2026-08-15T19:15:03.000Z</time>
        <extensions>
          <ns3:TrackPointExtension>
            <ns3:hr>94</ns3:hr>
            <ns3:cad>0</ns3:cad>
          </ns3:TrackPointExtension>
        </extensions>
      </trkpt>
      <trkpt lat="37.97532518394291400909423828125" lon="-107.73852889426052570343017578125">
        <ele>3209.199951171875</ele>
        <time>2026-08-15T19:15:04.000Z</time>
        <extensions>
          <ns3:TrackPointExtension>
            <ns3:hr>95</ns3:hr>
            <ns3:cad>0</ns3:cad>
          </ns3:TrackPointExtension>
        </extensions>
      </trkpt>
      <trkpt lat="37.9753195680677890777587890625" lon="-107.73852487094700336456298828125">
        <ele>3209.199951171875</ele>
        <time>2026-08-15T19:15:06.000Z</time>
        <extensions>
          <ns3:TrackPointExtension>
            <ns3:hr>96</ns3:hr>
            <ns3:cad>0</ns3:cad>
          </ns3:TrackPointExtension>
        </extensions>
      </trkpt>
      <trkpt lat="37.97531914897263050079345703125" lon="-107.73851330392062664031982421875">
        <ele>3208.39990234375</ele>
        <time>2026-08-15T19:15:10.000Z</time>
        <extensions>
          <ns3:TrackPointExtension>
            <ns3:hr>97</ns3:hr>
            <ns3:cad>0</ns3:cad>
          </ns3:TrackPointExtension>
        </extensions>
      </trkpt>
      <trkpt lat="37.97530288808047771453857421875" lon="-107.7385071851313114166259765625">
        <ele>3208.199951171875</ele>
        <time>2026-08-15T19:15:12.000Z</time>
        <extensions>
          <ns3:TrackPointExtension>
            <ns3:hr>98</ns3:hr>
            <ns3:cad>0</ns3:cad>
          </ns3:TrackPointExtension>
        </extensions>
      </trkpt>
      <trkpt lat="37.97528629191219806671142578125" lon="-107.73853207938373088836669921875">
        <ele>3207.39990234375</ele>
        <time>2026-08-15T19:15:15.000Z</time>
        <extensions>
          <ns3:TrackPointExtension>
            <ns3:hr>99</ns3:hr>
            <ns3:cad>0</ns3:cad>
          </ns3:TrackPointExtension>
        </extensions>
      </trkpt>
      <trkpt lat="37.9752836935222148895263671875" lon="-107.73853526450693607330322265625">
        <ele>3207.39990234375</ele>
        <time>2026-08-15T19:15:16.000Z</time>
        <extensions>
          <ns3:TrackPointExtension>
            <ns3:hr>100</ns3:hr>
            <ns3:cad>0</ns3:cad>
          </ns3:TrackPointExtension>
        </extensions>
      </trkpt>
      <trkpt lat="37.9752744734287261962890625" lon="-107.73855806328356266021728515625">
        <ele>3207.60009765625</ele>
        <time>2026-08-15T19:15:19.000Z</time>
        <extensions>
          <ns3:TrackPointExtension>
            <ns3:hr>103</ns3:hr>
            <ns3:cad>0</ns3:cad>
          </ns3:TrackPointExtension>
        </extensions>
      </trkpt>
      <trkpt lat="37.97527438960969448089599609375" lon="-107.738557644188404083251953125">
        <ele>3207.800048828125</ele>
        <time>2026-08-15T19:15:23.000Z</time>
        <extensions>
          <ns3:TrackPointExtension>
            <ns3:hr>105</ns3:hr>
            <ns3:cad>0</ns3:cad>
          </ns3:TrackPointExtension>
        </extensions>
      </trkpt>
      <trkpt lat="37.97527438960969448089599609375" lon="-107.738557644188404083251953125">
        <ele>3207.60009765625</ele>
        <time>2026-08-15T19:15:27.000Z</time>
        <extensions>
          <ns3:TrackPointExtension>
            <ns3:hr>100</ns3:hr>
            <ns3:cad>0</ns3:cad>
          </ns3:TrackPointExtension>
        </extensions>
      </trkpt>
      <trkpt lat="37.97527438960969448089599609375" lon="-107.738557644188404083251953125">
        <ele>3207.60009765625</ele>
        <time>2026-08-15T19:15:28.000Z</time>
        <extensions>
          <ns3:TrackPointExtension>
            <ns3:hr>96</ns3:hr>
            <ns3:cad>0</ns3:cad>
          </ns3:TrackPointExtension>
        </extensions>
      </trkpt>
      <trkpt lat="37.97527438960969448089599609375" lon="-107.738557644188404083251953125">
        <ele>3207.39990234375</ele>
        <time>2026-08-15T19:15:30.000Z</time>
        <extensions>
          <ns3:TrackPointExtension>
            <ns3:hr>93</ns3:hr>
            <ns3:cad>0</ns3:cad>
          </ns3:TrackPointExtension>
        </extensions>
      </trkpt>
      <trkpt lat="37.9752719588577747344970703125" lon="-107.73858538828790187835693359375">
        <ele>3207.39990234375</ele>
        <time>2026-08-15T19:15:35.000Z</time>
        <extensions>
          <ns3:TrackPointExtension>
            <ns3:hr>94</ns3:hr>
            <ns3:cad>0</ns3:cad>
          </ns3:TrackPointExtension>
        </extensions>
      </trkpt>
      <trkpt lat="37.975262738764286041259765625" lon="-107.73863567970693111419677734375">
        <ele>3206.800048828125</ele>
        <time>2026-08-15T19:15:41.000Z</time>
        <extensions>
          <ns3:TrackPointExtension>
            <ns3:hr>94</ns3:hr>
            <ns3:cad>0</ns3:cad>
          </ns3:TrackPointExtension>
        </extensions>
      </trkpt>
      <trkpt lat="37.975245974957942962646484375" lon="-107.73868395946919918060302734375">
        <ele>3206.39990234375</ele>
        <time>2026-08-15T19:15:45.000Z</time>
        <extensions>
          <ns3:TrackPointExtension>
            <ns3:hr>95</ns3:hr>
            <ns3:cad>55</ns3:cad>
          </ns3:TrackPointExtension>
        </extensions>
      </trkpt>
      <trkpt lat="37.975241951644420623779296875" lon="-107.73870885372161865234375">
        <ele>3206.199951171875</ele>
        <time>2026-08-15T19:15:47.000Z</time>
        <extensions>
          <ns3:TrackPointExtension>
            <ns3:hr>95</ns3:hr>
            <ns3:cad>55</ns3:cad>
          </ns3:TrackPointExtension>
        </extensions>
      </trkpt>
      <trkpt lat="37.975213117897510528564453125" lon="-107.7387670241296291351318359375">
        <ele>3205.199951171875</ele>
        <time>2026-08-15T19:15:53.000Z</time>
        <extensions>
          <ns3:TrackPointExtension>
            <ns3:hr>96</ns3:hr>
            <ns3:cad>0</ns3:cad>
          </ns3:TrackPointExtension>
        </extensions>
      </trkpt>
      <trkpt lat="37.9752095974981784820556640625" lon="-107.7387787587940692901611328125">
        <ele>3205</ele>
        <time>2026-08-15T19:15:54.000Z</time>
        <extensions>
          <ns3:TrackPointExtension>
            <ns3:hr>96</ns3:hr>
            <ns3:cad>0</ns3:cad>
          </ns3:TrackPointExtension>
        </extensions>
      </trkpt>
      <trkpt lat="37.97520180232822895050048828125" lon="-107.73881304077804088592529296875">
        <ele>3204.199951171875</ele>
        <time>2026-08-15T19:15:57.000Z</time>
        <extensions>
          <ns3:TrackPointExtension>
            <ns3:hr>96</ns3:hr>
            <ns3:cad>0</ns3:cad>
          </ns3:TrackPointExtension>
        </extensions>
      </trkpt>
      <trkpt lat="37.97517456114292144775390625" lon="-107.73888059891760349273681640625">
        <ele>3203.60009765625</ele>
        <time>2026-08-15T19:16:03.000Z</time>
        <extensions>
          <ns3:TrackPointExtension>
            <ns3:hr>97</ns3:hr>
            <ns3:cad>19</ns3:cad>
          </ns3:TrackPointExtension>
        </extensions>
      </trkpt>
      <trkpt lat="37.97516777180135250091552734375" lon="-107.7388961054384708404541015625">
        <ele>3203.39990234375</ele>
        <time>2026-08-15T19:16:04.000Z</time>
        <extensions>
          <ns3:TrackPointExtension>
            <ns3:hr>97</ns3:hr>
            <ns3:cad>19</ns3:cad>
          </ns3:TrackPointExtension>
        </extensions>
      </trkpt>
      <trkpt lat="37.97516425140202045440673828125" lon="-107.73891094140708446502685546875">
        <ele>3203</ele>
        <time>2026-08-15T19:16:05.000Z</time>
        <extensions>
          <ns3:TrackPointExtension>
            <ns3:hr>97</ns3:hr>
            <ns3:cad>0</ns3:cad>
          </ns3:TrackPointExtension>
        </extensions>
      </trkpt>
      <trkpt lat="37.97514237463474273681640625" lon="-107.73895117454230785369873046875">
        <ele>3202</ele>
        <time>2026-08-15T19:16:09.000Z</time>
        <extensions>
          <ns3:TrackPointExtension>
            <ns3:hr>97</ns3:hr>
            <ns3:cad>0</ns3:cad>
          </ns3:TrackPointExtension>
        </extensions>
      </trkpt>
      <trkpt lat="37.9751348309218883514404296875" lon="-107.73895503021776676177978515625">
        <ele>3201.800048828125</ele>
        <time>2026-08-15T19:16:10.000Z</time>
        <extensions>
          <ns3:TrackPointExtension>
            <ns3:hr>97</ns3:hr>
            <ns3:cad>0</ns3:cad>
          </ns3:TrackPointExtension>
        </extensions>
      </trkpt>
      <trkpt lat="37.97510792501270771026611328125" lon="-107.73898017592728137969970703125">
        <ele>3201.39990234375</ele>
        <time>2026-08-15T19:16:14.000Z</time>
        <extensions>
          <ns3:TrackPointExtension>
            <ns3:hr>96</ns3:hr>
            <ns3:cad>73</ns3:cad>
          </ns3:TrackPointExtension>
        </extensions>
      </trkpt>
      <trkpt lat="37.97510842792689800262451171875" lon="-107.7389946766197681427001953125">
        <ele>3201.199951171875</ele>
        <time>2026-08-15T19:16:15.000Z</time>
        <extensions>
          <ns3:TrackPointExtension>
            <ns3:hr>96</ns3:hr>
            <ns3:cad>73</ns3:cad>
          </ns3:TrackPointExtension>
        </extensions>
      </trkpt>
      <trkpt lat="37.97511194832623004913330078125" lon="-107.73900565691292285919189453125">
        <ele>3201</ele>
        <time>2026-08-15T19:16:16.000Z</time>
        <extensions>
          <ns3:TrackPointExtension>
            <ns3:hr>96</ns3:hr>
            <ns3:cad>73</ns3:cad>
          </ns3:TrackPointExtension>
        </extensions>
      </trkpt>
      <trkpt lat="37.9751177318394184112548828125" lon="-107.73901370353996753692626953125">
        <ele>3200.800048828125</ele>
        <time>2026-08-15T19:16:17.000Z</time>
        <extensions>
          <ns3:TrackPointExtension>
            <ns3:hr>97</ns3:hr>
            <ns3:cad>73</ns3:cad>
          </ns3:TrackPointExtension>
        </extensions>
      </trkpt>
      <trkpt lat="37.975119240581989288330078125" lon="-107.7390624023973941802978515625">
        <ele>3200.800048828125</ele>
        <time>2026-08-15T19:16:20.000Z</time>
        <extensions>
          <ns3:TrackPointExtension>
            <ns3:hr>97</ns3:hr>
            <ns3:cad>79</ns3:cad>
          </ns3:TrackPointExtension>
        </extensions>
      </trkpt>
      <trkpt lat="37.97510616481304168701171875" lon="-107.7391247637569904327392578125">
        <ele>3200</ele>
        <time>2026-08-15T19:16:24.000Z</time>
        <extensions>
          <ns3:TrackPointExtension>
            <ns3:hr>96</ns3:hr>
            <ns3:cad>55</ns3:cad>
          </ns3:TrackPointExtension>
        </extensions>
      </trkpt>
      <trkpt lat="37.97510256059467792510986328125" lon="-107.7391596324741840362548828125">
        <ele>3199.39990234375</ele>
        <time>2026-08-15T19:16:26.000Z</time>
        <extensions>
          <ns3:TrackPointExtension>
            <ns3:hr>96</ns3:hr>
            <ns3:cad>55</ns3:cad>
          </ns3:TrackPointExtension>
        </extensions>
      </trkpt>
      <trkpt lat="37.97510339878499507904052734375" lon="-107.73923397995531558990478515625">
        <ele>3198.800048828125</ele>
        <time>2026-08-15T19:16:31.000Z</time>
        <extensions>
          <ns3:TrackPointExtension>
            <ns3:hr>95</ns3:hr>
            <ns3:cad>61</ns3:cad>
          </ns3:TrackPointExtension>
        </extensions>
      </trkpt>
      <trkpt lat="37.97510926611721515655517578125" lon="-107.739310674369335174560546875">
        <ele>3198.39990234375</ele>
        <time>2026-08-15T19:16:36.000Z</time>
        <extensions>
          <ns3:TrackPointExtension>
            <ns3:hr>92</ns3:hr>
            <ns3:cad>0</ns3:cad>
          </ns3:TrackPointExtension>
        </extensions>
      </trkpt>
      <trkpt lat="37.975113205611705780029296875" lon="-107.739328108727931976318359375">
        <ele>3198.39990234375</ele>
        <time>2026-08-15T19:16:37.000Z</time>
        <extensions>
          <ns3:TrackPointExtension>
            <ns3:hr>92</ns3:hr>
            <ns3:cad>0</ns3:cad>
          </ns3:TrackPointExtension>
        </extensions>
      </trkpt>
      <trkpt lat="37.97513709403574466705322265625" lon="-107.739413939416408538818359375">
        <ele>3198</ele>
        <time>2026-08-15T19:16:43.000Z</time>
        <extensions>
          <ns3:TrackPointExtension>
            <ns3:hr>90</ns3:hr>
            <ns3:cad>0</ns3:cad>
          </ns3:TrackPointExtension>
        </extensions>
      </trkpt>
      <trkpt lat="37.97515285201370716094970703125" lon="-107.73945895023643970489501953125">
        <ele>3198.199951171875</ele>
        <time>2026-08-15T19:16:47.000Z</time>
        <extensions>
          <ns3:TrackPointExtension>
            <ns3:hr>88</ns3:hr>
            <ns3:cad>0</ns3:cad>
          </ns3:TrackPointExtension>
        </extensions>
      </trkpt>
      <trkpt lat="37.97515905462205410003662109375" lon="-107.73953187279403209686279296875">
        <ele>3197.800048828125</ele>
        <time>2026-08-15T19:16:52.000Z</time>
        <extensions>
          <ns3:TrackPointExtension>
            <ns3:hr>87</ns3:hr>
            <ns3:cad>0</ns3:cad>
          </ns3:TrackPointExtension>
        </extensions>
      </trkpt>
      <trkpt lat="37.97516173683106899261474609375" lon="-107.73961585946381092071533203125">
        <ele>3196.800048828125</ele>
        <time>2026-08-15T19:16:58.000Z</time>
        <extensions>
          <ns3:TrackPointExtension>
            <ns3:hr>88</ns3:hr>
            <ns3:cad>0</ns3:cad>
          </ns3:TrackPointExtension>
        </extensions>
      </trkpt>
      <trkpt lat="37.9751629941165447235107421875" lon="-107.73963044397532939910888671875">
        <ele>3196.60009765625</ele>
        <time>2026-08-15T19:16:59.000Z</time>
        <extensions>
          <ns3:TrackPointExtension>
            <ns3:hr>89</ns3:hr>
            <ns3:cad>0</ns3:cad>
          </ns3:TrackPointExtension>
        </extensions>
      </trkpt>
      <trkpt lat="37.97517732717096805572509765625" lon="-107.73967017419636249542236328125">
        <ele>3195.800048828125</ele>
        <time>2026-08-15T19:17:04.000Z</time>
        <extensions>
          <ns3:TrackPointExtension>
            <ns3:hr>87</ns3:hr>
            <ns3:cad>79</ns3:cad>
          </ns3:TrackPointExtension>
        </extensions>
      </trkpt>
      <trkpt lat="37.97517724335193634033203125" lon="-107.73967000655829906463623046875">
        <ele>3195.60009765625</ele>
        <time>2026-08-15T19:17:10.000Z</time>
        <extensions>
          <ns3:TrackPointExtension>
            <ns3:hr>88</ns3:hr>
            <ns3:cad>0</ns3:cad>
          </ns3:TrackPointExtension>
        </extensions>
      </trkpt>
      <trkpt lat="37.97517724335193634033203125" lon="-107.73967000655829906463623046875">
        <ele>3195.60009765625</ele>
        <time>2026-08-15T19:17:12.000Z</time>
        <extensions>
          <ns3:TrackPointExtension>
            <ns3:hr>93</ns3:hr>
            <ns3:cad>0</ns3:cad>
          </ns3:TrackPointExtension>
        </extensions>
      </trkpt>
      <trkpt lat="37.97517866827547550201416015625" lon="-107.7396689169108867645263671875">
        <ele>3195.60009765625</ele>
        <time>2026-08-15T19:17:13.000Z</time>
        <extensions>
          <ns3:TrackPointExtension>
            <ns3:hr>94</ns3:hr>
            <ns3:cad>53</ns3:cad>
          </ns3:TrackPointExtension>
        </extensions>
      </trkpt>
      <trkpt lat="37.97519266605377197265625" lon="-107.7396970801055431365966796875">
        <ele>3195.800048828125</ele>
        <time>2026-08-15T19:17:15.000Z</time>
        <extensions>
          <ns3:TrackPointExtension>
            <ns3:hr>97</ns3:hr>
            <ns3:cad>0</ns3:cad>
          </ns3:TrackPointExtension>
        </extensions>
      </trkpt>
      <trkpt lat="37.97518906183540821075439453125" lon="-107.73972365073859691619873046875">
        <ele>3195.60009765625</ele>
        <time>2026-08-15T19:17:17.000Z</time>
        <extensions>
          <ns3:TrackPointExtension>
            <ns3:hr>101</ns3:hr>
            <ns3:cad>0</ns3:cad>
          </ns3:TrackPointExtension>
        </extensions>
      </trkpt>
      <trkpt lat="37.97519073821604251861572265625" lon="-107.73973873816430568695068359375">
        <ele>3195.39990234375</ele>
        <time>2026-08-15T19:17:18.000Z</time>
        <extensions>
          <ns3:TrackPointExtension>
            <ns3:hr>102</ns3:hr>
            <ns3:cad>57</ns3:cad>
          </ns3:TrackPointExtension>
        </extensions>
      </trkpt>
      <trkpt lat="37.97519744373857975006103515625" lon="-107.73975156247615814208984375">
        <ele>3195</ele>
        <time>2026-08-15T19:17:19.000Z</time>
        <extensions>
          <ns3:TrackPointExtension>
            <ns3:hr>104</ns3:hr>
            <ns3:cad>57</ns3:cad>
          </ns3:TrackPointExtension>
        </extensions>
      </trkpt>
      <trkpt lat="37.97520716674625873565673828125" lon="-107.73977712728083133697509765625">
        <ele>3194</ele>
        <time>2026-08-15T19:17:21.000Z</time>
        <extensions>
          <ns3:TrackPointExtension>
            <ns3:hr>105</ns3:hr>
            <ns3:cad>58</ns3:cad>
          </ns3:TrackPointExtension>
        </extensions>
      </trkpt>
      <trkpt lat="37.9752411134541034698486328125" lon="-107.7398204617202281951904296875">
        <ele>3193.39990234375</ele>
        <time>2026-08-15T19:17:27.000Z</time>
        <extensions>
          <ns3:TrackPointExtension>
            <ns3:hr>107</ns3:hr>
            <ns3:cad>57</ns3:cad>
          </ns3:TrackPointExtension>
        </extensions>
      </trkpt>
      <trkpt lat="37.975258715450763702392578125" lon="-107.7398700825870037078857421875">
        <ele>3193.199951171875</ele>
        <time>2026-08-15T19:17:33.000Z</time>
        <extensions>
          <ns3:TrackPointExtension>
            <ns3:hr>106</ns3:hr>
            <ns3:cad>57</ns3:cad>
          </ns3:TrackPointExtension>
        </extensions>
      </trkpt>
      <trkpt lat="37.97525729052722454071044921875" lon="-107.73987536318600177764892578125">
        <ele>3193</ele>
        <time>2026-08-15T19:17:34.000Z</time>
        <extensions>
          <ns3:TrackPointExtension>
            <ns3:hr>106</ns3:hr>
            <ns3:cad>57</ns3:cad>
          </ns3:TrackPointExtension>
        </extensions>
      </trkpt>
      <trkpt lat="37.9752556979656219482421875" lon="-107.7398798055946826934814453125">
        <ele>3192.800048828125</ele>
        <time>2026-08-15T19:17:35.000Z</time>
        <extensions>
          <ns3:TrackPointExtension>
            <ns3:hr>105</ns3:hr>
            <ns3:cad>0</ns3:cad>
          </ns3:TrackPointExtension>
        </extensions>
      </trkpt>
      <trkpt lat="37.9752337373793125152587890625" lon="-107.73994074203073978424072265625">
        <ele>3192</ele>
        <time>2026-08-15T19:17:41.000Z</time>
        <extensions>
          <ns3:TrackPointExtension>
            <ns3:hr>103</ns3:hr>
            <ns3:cad>45</ns3:cad>
          </ns3:TrackPointExtension>
        </extensions>
      </trkpt>
      <trkpt lat="37.97523868270218372344970703125" lon="-107.73994342423975467681884765625">
        <ele>3192</ele>
        <time>2026-08-15T19:17:45.000Z</time>
        <extensions>
          <ns3:TrackPointExtension>
            <ns3:hr>100</ns3:hr>
            <ns3:cad>0</ns3:cad>
          </ns3:TrackPointExtension>
        </extensions>
      </trkpt>
      <trkpt lat="37.97523868270218372344970703125" lon="-107.73994342423975467681884765625">
        <ele>3192.199951171875</ele>
        <time>2026-08-15T19:17:46.000Z</time>
        <extensions>
          <ns3:TrackPointExtension>
            <ns3:hr>100</ns3:hr>
            <ns3:cad>0</ns3:cad>
          </ns3:TrackPointExtension>
        </extensions>
      </trkpt>
      <trkpt lat="37.97523868270218372344970703125" lon="-107.73994342423975467681884765625">
        <ele>3192.39990234375</ele>
        <time>2026-08-15T19:17:52.000Z</time>
        <extensions>
          <ns3:TrackPointExtension>
            <ns3:hr>100</ns3:hr>
            <ns3:cad>0</ns3:cad>
          </ns3:TrackPointExtension>
        </extensions>
      </trkpt>
      <trkpt lat="37.975232563912868499755859375" lon="-107.73994459770619869232177734375">
        <ele>3192.199951171875</ele>
        <time>2026-08-15T19:17:55.000Z</time>
        <extensions>
          <ns3:TrackPointExtension>
            <ns3:hr>100</ns3:hr>
            <ns3:cad>0</ns3:cad>
          </ns3:TrackPointExtension>
        </extensions>
      </trkpt>
      <trkpt lat="37.97523868270218372344970703125" lon="-107.73994342423975467681884765625">
        <ele>3192</ele>
        <time>2026-08-15T19:18:01.000Z</time>
        <extensions>
          <ns3:TrackPointExtension>
            <ns3:hr>100</ns3:hr>
            <ns3:cad>0</ns3:cad>
          </ns3:TrackPointExtension>
        </extensions>
      </trkpt>
      <trkpt lat="37.97523868270218372344970703125" lon="-107.73994342423975467681884765625">
        <ele>3192</ele>
        <time>2026-08-15T19:18:02.000Z</time>
        <extensions>
          <ns3:TrackPointExtension>
            <ns3:hr>101</ns3:hr>
            <ns3:cad>0</ns3:cad>
          </ns3:TrackPointExtension>
        </extensions>
      </trkpt>
      <trkpt lat="37.9752189852297306060791015625" lon="-107.7399654686450958251953125">
        <ele>3192.39990234375</ele>
        <time>2026-08-15T19:18:07.000Z</time>
        <extensions>
          <ns3:TrackPointExtension>
            <ns3:hr>98</ns3:hr>
            <ns3:cad>0</ns3:cad>
          </ns3:TrackPointExtension>
        </extensions>
      </trkpt>
      <trkpt lat="37.97521345317363739013671875" lon="-107.739993967115879058837890625">
        <ele>3191.60009765625</ele>
        <time>2026-08-15T19:18:10.000Z</time>
        <extensions>
          <ns3:TrackPointExtension>
            <ns3:hr>98</ns3:hr>
            <ns3:cad>0</ns3:cad>
          </ns3:TrackPointExtension>
        </extensions>
      </trkpt>
      <trkpt lat="37.97517112456262111663818359375" lon="-107.7400608547031879425048828125">
        <ele>3190.39990234375</ele>
        <time>2026-08-15T19:18:16.000Z</time>
        <extensions>
          <ns3:TrackPointExtension>
            <ns3:hr>99</ns3:hr>
            <ns3:cad>53</ns3:cad>
          </ns3:TrackPointExtension>
        </extensions>
      </trkpt>
      <trkpt lat="37.9751639999449253082275390625" lon="-107.74007619358599185943603515625">
        <ele>3190.199951171875</ele>
        <time>2026-08-15T19:18:17.000Z</time>
        <extensions>
          <ns3:TrackPointExtension>
            <ns3:hr>99</ns3:hr>
            <ns3:cad>53</ns3:cad>
          </ns3:TrackPointExtension>
        </extensions>
      </trkpt>
      <trkpt lat="37.97514027915894985198974609375" lon="-107.74013243615627288818359375">
        <ele>3189.39990234375</ele>
        <time>2026-08-15T19:18:21.000Z</time>
        <extensions>
          <ns3:TrackPointExtension>
            <ns3:hr>101</ns3:hr>
            <ns3:cad>53</ns3:cad>
          </ns3:TrackPointExtension>
        </extensions>
      </trkpt>
      <trkpt lat="37.9751274548470973968505859375" lon="-107.74018046446144580841064453125">
        <ele>3189.199951171875</ele>
        <time>2026-08-15T19:18:24.000Z</time>
        <extensions>
          <ns3:TrackPointExtension>
            <ns3:hr>102</ns3:hr>
            <ns3:cad>53</ns3:cad>
          </ns3:TrackPointExtension>
        </extensions>
      </trkpt>
      <trkpt lat="37.97510750591754913330078125" lon="-107.7402712404727935791015625">
        <ele>3188.60009765625</ele>
        <time>2026-08-15T19:18:30.000Z</time>
        <extensions>
          <ns3:TrackPointExtension>
            <ns3:hr>102</ns3:hr>
            <ns3:cad>60</ns3:cad>
          </ns3:TrackPointExtension>
        </extensions>
      </trkpt>
      <trkpt lat="37.97510105185210704803466796875" lon="-107.740296386182308197021484375">
        <ele>3188.39990234375</ele>
        <time>2026-08-15T19:18:32.000Z</time>
        <extensions>
          <ns3:TrackPointExtension>
            <ns3:hr>102</ns3:hr>
            <ns3:cad>57</ns3:cad>
          </ns3:TrackPointExtension>
        </extensions>
      </trkpt>
      <trkpt lat="37.9750922508537769317626953125" lon="-107.74034156464040279388427734375">
        <ele>3188.39990234375</ele>
        <time>2026-08-15T19:18:37.000Z</time>
        <extensions>
          <ns3:TrackPointExtension>
            <ns3:hr>99</ns3:hr>
            <ns3:cad>54</ns3:cad>
          </ns3:TrackPointExtension>
        </extensions>
      </trkpt>
      <trkpt lat="37.97509317286312580108642578125" lon="-107.740354053676128387451171875">
        <ele>3188.39990234375</ele>
        <time>2026-08-15T19:18:38.000Z</time>
        <extensions>
          <ns3:TrackPointExtension>
            <ns3:hr>98</ns3:hr>
            <ns3:cad>54</ns3:cad>
          </ns3:TrackPointExtension>
        </extensions>
      </trkpt>
      <trkpt lat="37.975096441805362701416015625" lon="-107.74038582108914852142333984375">
        <ele>3187.800048828125</ele>
        <time>2026-08-15T19:18:40.000Z</time>
        <extensions>
          <ns3:TrackPointExtension>
            <ns3:hr>98</ns3:hr>
            <ns3:cad>54</ns3:cad>
          </ns3:TrackPointExtension>
        </extensions>
      </trkpt>
      <trkpt lat="37.9751001298427581787109375" lon="-107.7404229529201984405517578125">
        <ele>3187.199951171875</ele>
        <time>2026-08-15T19:18:42.000Z</time>
        <extensions>
          <ns3:TrackPointExtension>
            <ns3:hr>99</ns3:hr>
            <ns3:cad>53</ns3:cad>
          </ns3:TrackPointExtension>
        </extensions>
      </trkpt>
      <trkpt lat="37.97510792501270771026611328125" lon="-107.740496210753917694091796875">
        <ele>3187.39990234375</ele>
        <time>2026-08-15T19:18:47.000Z</time>
        <extensions>
          <ns3:TrackPointExtension>
            <ns3:hr>100</ns3:hr>
            <ns3:cad>57</ns3:cad>
          </ns3:TrackPointExtension>
        </extensions>
      </trkpt>
      <trkpt lat="37.97507355920970439910888671875" lon="-107.74053703062236309051513671875">
        <ele>3187.199951171875</ele>
        <time>2026-08-15T19:18:52.000Z</time>
        <extensions>
          <ns3:TrackPointExtension>
            <ns3:hr>101</ns3:hr>
            <ns3:cad>54</ns3:cad>
          </ns3:TrackPointExtension>
        </extensions>
      </trkpt>
      <trkpt lat="37.9750625789165496826171875" lon="-107.74054390378296375274658203125">
        <ele>3187.199951171875</ele>
        <time>2026-08-15T19:18:53.000Z</time>
        <extensions>
          <ns3:TrackPointExtension>
            <ns3:hr>101</ns3:hr>
            <ns3:cad>54</ns3:cad>
          </ns3:TrackPointExtension>
        </extensions>
      </trkpt>
      <trkpt lat="37.97499795444309711456298828125" lon="-107.7405703067779541015625">
        <ele>3187.39990234375</ele>
        <time>2026-08-15T19:18:58.000Z</time>
        <extensions>
          <ns3:TrackPointExtension>
            <ns3:hr>100</ns3:hr>
            <ns3:cad>57</ns3:cad>
          </ns3:TrackPointExtension>
        </extensions>
      </trkpt>
      <trkpt lat="37.974940873682498931884765625" lon="-107.7406298182904720306396484375">
        <ele>3186.60009765625</ele>
        <time>2026-08-15T19:19:04.000Z</time>
        <extensions>
          <ns3:TrackPointExtension>
            <ns3:hr>100</ns3:hr>
            <ns3:cad>56</ns3:cad>
          </ns3:TrackPointExtension>
        </extensions>
      </trkpt>
      <trkpt lat="37.97493408434092998504638671875" lon="-107.74064230732619762420654296875">
        <ele>3186.60009765625</ele>
        <time>2026-08-15T19:19:05.000Z</time>
        <extensions>
          <ns3:TrackPointExtension>
            <ns3:hr>100</ns3:hr>
            <ns3:cad>56</ns3:cad>
          </ns3:TrackPointExtension>
        </extensions>
      </trkpt>
      <trkpt lat="37.97492913901805877685546875" lon="-107.74065387435257434844970703125">
        <ele>3186.199951171875</ele>
        <time>2026-08-15T19:19:06.000Z</time>
        <extensions>
          <ns3:TrackPointExtension>
            <ns3:hr>100</ns3:hr>
            <ns3:cad>56</ns3:cad>
          </ns3:TrackPointExtension>
        </extensions>
      </trkpt>
      <trkpt lat="37.97491664998233318328857421875" lon="-107.74071573279798030853271484375">
        <ele>3185.39990234375</ele>
        <time>2026-08-15T19:19:11.000Z</time>
        <extensions>
          <ns3:TrackPointExtension>
            <ns3:hr>100</ns3:hr>
            <ns3:cad>57</ns3:cad>
          </ns3:TrackPointExtension>
        </extensions>
      </trkpt>
      <trkpt lat="37.9749142192304134368896484375" lon="-107.74073056876659393310546875">
        <ele>3185.39990234375</ele>
        <time>2026-08-15T19:19:12.000Z</time>
        <extensions>
          <ns3:TrackPointExtension>
            <ns3:hr>99</ns3:hr>
            <ns3:cad>58</ns3:cad>
          </ns3:TrackPointExtension>
        </extensions>
      </trkpt>
      <trkpt lat="37.974898628890514373779296875" lon="-107.74078932590782642364501953125">
        <ele>3185.199951171875</ele>
        <time>2026-08-15T19:19:16.000Z</time>
        <extensions>
          <ns3:TrackPointExtension>
            <ns3:hr>100</ns3:hr>
            <ns3:cad>59</ns3:cad>
          </ns3:TrackPointExtension>
        </extensions>
      </trkpt>
      <trkpt lat="37.974879853427410125732421875" lon="-107.740828804671764373779296875">
        <ele>3185</ele>
        <time>2026-08-15T19:19:20.000Z</time>
        <extensions>
          <ns3:TrackPointExtension>
            <ns3:hr>100</ns3:hr>
            <ns3:cad>54</ns3:cad>
          </ns3:TrackPointExtension>
        </extensions>
      </trkpt>
      <trkpt lat="37.9748340882360935211181640625" lon="-107.7408886514604091644287109375">
        <ele>3184.199951171875</ele>
        <time>2026-08-15T19:19:26.000Z</time>
        <extensions>
          <ns3:TrackPointExtension>
            <ns3:hr>102</ns3:hr>
            <ns3:cad>58</ns3:cad>
          </ns3:TrackPointExtension>
        </extensions>
      </trkpt>
      <trkpt lat="37.97480014152824878692626953125" lon="-107.740960903465747833251953125">
        <ele>3184.39990234375</ele>
        <time>2026-08-15T19:19:32.000Z</time>
        <extensions>
          <ns3:TrackPointExtension>
            <ns3:hr>104</ns3:hr>
            <ns3:cad>55</ns3:cad>
          </ns3:TrackPointExtension>
        </extensions>
      </trkpt>
      <trkpt lat="37.97479511238634586334228515625" lon="-107.740970291197299957275390625">
        <ele>3183.800048828125</ele>
        <time>2026-08-15T19:19:33.000Z</time>
        <extensions>
          <ns3:TrackPointExtension>
            <ns3:hr>104</ns3:hr>
            <ns3:cad>55</ns3:cad>
          </ns3:TrackPointExtension>
        </extensions>
      </trkpt>
      <trkpt lat="37.9747836291790008544921875" lon="-107.74100281298160552978515625">
        <ele>3182.39990234375</ele>
        <time>2026-08-15T19:19:35.000Z</time>
        <extensions>
          <ns3:TrackPointExtension>
            <ns3:hr>104</ns3:hr>
            <ns3:cad>57</ns3:cad>
          </ns3:TrackPointExtension>
        </extensions>
      </trkpt>
      <trkpt lat="37.97476057894527912139892578125" lon="-107.74105603806674480438232421875">
        <ele>3181.199951171875</ele>
        <time>2026-08-15T19:19:39.000Z</time>
        <extensions>
          <ns3:TrackPointExtension>
            <ns3:hr>105</ns3:hr>
            <ns3:cad>60</ns3:cad>
          </ns3:TrackPointExtension>
        </extensions>
      </trkpt>
      <trkpt lat="37.97475353814661502838134765625" lon="-107.7410713769495487213134765625">
        <ele>3180.800048828125</ele>
        <time>2026-08-15T19:19:40.000Z</time>
        <extensions>
          <ns3:TrackPointExtension>
            <ns3:hr>105</ns3:hr>
            <ns3:cad>60</ns3:cad>
          </ns3:TrackPointExtension>
        </extensions>
      </trkpt>
      <trkpt lat="37.9747237823903560638427734375" lon="-107.7411065809428691864013671875">
        <ele>3180.199951171875</ele>
        <time>2026-08-15T19:19:43.000Z</time>
        <extensions>
          <ns3:TrackPointExtension>
            <ns3:hr>104</ns3:hr>
            <ns3:cad>58</ns3:cad>
          </ns3:TrackPointExtension>
        </extensions>
      </trkpt>
      <trkpt lat="37.97469905577600002288818359375" lon="-107.7411478199064731597900390625">
        <ele>3181.199951171875</ele>
        <time>2026-08-15T19:19:47.000Z</time>
        <extensions>
          <ns3:TrackPointExtension>
            <ns3:hr>103</ns3:hr>
            <ns3:cad>58</ns3:cad>
          </ns3:TrackPointExtension>
        </extensions>
      </trkpt>
      <trkpt lat="37.97468329779803752899169921875" lon="-107.741176821291446685791015625">
        <ele>3182.60009765625</ele>
        <time>2026-08-15T19:19:49.000Z</time>
        <extensions>
          <ns3:TrackPointExtension>
            <ns3:hr>103</ns3:hr>
            <ns3:cad>57</ns3:cad>
          </ns3:TrackPointExtension>
        </extensions>
      </trkpt>
      <trkpt lat="37.9746741615235805511474609375" lon="-107.7412068285048007965087890625">
        <ele>3181.60009765625</ele>
        <time>2026-08-15T19:19:51.000Z</time>
        <extensions>
          <ns3:TrackPointExtension>
            <ns3:hr>104</ns3:hr>
            <ns3:cad>57</ns3:cad>
          </ns3:TrackPointExtension>
        </extensions>
      </trkpt>
      <trkpt lat="37.97467768192291259765625" lon="-107.7412453852593898773193359375">
        <ele>3181</ele>
        <time>2026-08-15T19:19:53.000Z</time>
        <extensions>
          <ns3:TrackPointExtension>
            <ns3:hr>103</ns3:hr>
            <ns3:cad>57</ns3:cad>
          </ns3:TrackPointExtension>
        </extensions>
      </trkpt>
      <trkpt lat="37.97470022924244403839111328125" lon="-107.74134202860295772552490234375">
        <ele>3181.60009765625</ele>
        <time>2026-08-15T19:19:59.000Z</time>
        <extensions>
          <ns3:TrackPointExtension>
            <ns3:hr>102</ns3:hr>
            <ns3:cad>54</ns3:cad>
          </ns3:TrackPointExtension>
        </extensions>
      </trkpt>
      <trkpt lat="37.97470978461205959320068359375" lon="-107.7413667552173137664794921875">
        <ele>3182</ele>
        <time>2026-08-15T19:20:01.000Z</time>
        <extensions>
          <ns3:TrackPointExtension>
            <ns3:hr>103</ns3:hr>
            <ns3:cad>54</ns3:cad>
          </ns3:TrackPointExtension>
        </extensions>
      </trkpt>
      <trkpt lat="37.9747170768678188323974609375" lon="-107.74138762615621089935302734375">
        <ele>3182.60009765625</ele>
        <time>2026-08-15T19:20:03.000Z</time>
        <extensions>
          <ns3:TrackPointExtension>
            <ns3:hr>103</ns3:hr>
            <ns3:cad>54</ns3:cad>
          </ns3:TrackPointExtension>
        </extensions>
      </trkpt>
      <trkpt lat="37.97473208047449588775634765625" lon="-107.74145820178091526031494140625">
        <ele>3182.39990234375</ele>
        <time>2026-08-15T19:20:09.000Z</time>
        <extensions>
          <ns3:TrackPointExtension>
            <ns3:hr>104</ns3:hr>
            <ns3:cad>51</ns3:cad>
          </ns3:TrackPointExtension>
        </extensions>
      </trkpt>
      <trkpt lat="37.9747415520250797271728515625" lon="-107.7415077388286590576171875">
        <ele>3183.199951171875</ele>
        <time>2026-08-15T19:20:14.000Z</time>
        <extensions>
          <ns3:TrackPointExtension>
            <ns3:hr>107</ns3:hr>
            <ns3:cad>52</ns3:cad>
          </ns3:TrackPointExtension>
        </extensions>
      </trkpt>
      <trkpt lat="37.9747438989579677581787109375" lon="-107.7415157854557037353515625">
        <ele>3183.60009765625</ele>
        <time>2026-08-15T19:20:15.000Z</time>
        <extensions>
          <ns3:TrackPointExtension>
            <ns3:hr>108</ns3:hr>
            <ns3:cad>52</ns3:cad>
          </ns3:TrackPointExtension>
        </extensions>
      </trkpt>
      <trkpt lat="37.9747495986521244049072265625" lon="-107.74153430946171283721923828125">
        <ele>3184.199951171875</ele>
        <time>2026-08-15T19:20:17.000Z</time>
        <extensions>
          <ns3:TrackPointExtension>
            <ns3:hr>108</ns3:hr>
            <ns3:cad>50</ns3:cad>
          </ns3:TrackPointExtension>
        </extensions>
      </trkpt>
      <trkpt lat="37.97476678155362606048583984375" lon="-107.74158242158591747283935546875">
        <ele>3184.800048828125</ele>
        <time>2026-08-15T19:20:21.000Z</time>
        <extensions>
          <ns3:TrackPointExtension>
            <ns3:hr>108</ns3:hr>
            <ns3:cad>48</ns3:cad>
          </ns3:TrackPointExtension>
        </extensions>
      </trkpt>
      <trkpt lat="37.97478857450187206268310546875" lon="-107.7416324615478515625">
        <ele>3184.800048828125</ele>
        <time>2026-08-15T19:20:26.000Z</time>
        <extensions>
          <ns3:TrackPointExtension>
            <ns3:hr>109</ns3:hr>
            <ns3:cad>47</ns3:cad>
          </ns3:TrackPointExtension>
        </extensions>
      </trkpt>
      <trkpt lat="37.97480550594627857208251953125" lon="-107.74168367497622966766357421875">
        <ele>3185.60009765625</ele>
        <time>2026-08-15T19:20:31.000Z</time>
        <extensions>
          <ns3:TrackPointExtension>
            <ns3:hr>112</ns3:hr>
            <ns3:cad>45</ns3:cad>
          </ns3:TrackPointExtension>
        </extensions>
      </trkpt>
      <trkpt lat="37.9748082719743251800537109375" lon="-107.7416926436126232147216796875">
        <ele>3185.800048828125</ele>
        <time>2026-08-15T19:20:32.000Z</time>
        <extensions>
          <ns3:TrackPointExtension>
            <ns3:hr>112</ns3:hr>
            <ns3:cad>50</ns3:cad>
          </ns3:TrackPointExtension>
        </extensions>
      </trkpt>
      <trkpt lat="37.9748106189072132110595703125" lon="-107.74170479737222194671630859375">
        <ele>3186</ele>
        <time>2026-08-15T19:20:33.000Z</time>
        <extensions>
          <ns3:TrackPointExtension>
            <ns3:hr>112</ns3:hr>
            <ns3:cad>50</ns3:cad>
          </ns3:TrackPointExtension>
        </extensions>
      </trkpt>
      <trkpt lat="37.97482176683843135833740234375" lon="-107.74175156839191913604736328125">
        <ele>3187</ele>
        <time>2026-08-15T19:20:37.000Z</time>
        <extensions>
          <ns3:TrackPointExtension>
            <ns3:hr>112</ns3:hr>
            <ns3:cad>49</ns3:cad>
          </ns3:TrackPointExtension>
        </extensions>
      </trkpt>
      <trkpt lat="37.97483526170253753662109375" lon="-107.74177118204534053802490234375">
        <ele>3187.39990234375</ele>
        <time>2026-08-15T19:20:39.000Z</time>
        <extensions>
          <ns3:TrackPointExtension>
            <ns3:hr>113</ns3:hr>
            <ns3:cad>49</ns3:cad>
          </ns3:TrackPointExtension>
        </extensions>
      </trkpt>
      <trkpt lat="37.9748374409973621368408203125" lon="-107.7417821623384952545166015625">
        <ele>3187.60009765625</ele>
        <time>2026-08-15T19:20:40.000Z</time>
        <extensions>
          <ns3:TrackPointExtension>
            <ns3:hr>113</ns3:hr>
            <ns3:cad>49</ns3:cad>
          </ns3:TrackPointExtension>
        </extensions>
      </trkpt>
      <trkpt lat="37.97486300580203533172607421875" lon="-107.74182097055017948150634765625">
        <ele>3187.800048828125</ele>
        <time>2026-08-15T19:20:45.000Z</time>
        <extensions>
          <ns3:TrackPointExtension>
            <ns3:hr>116</ns3:hr>
            <ns3:cad>49</ns3:cad>
          </ns3:TrackPointExtension>
        </extensions>
      </trkpt>
      <trkpt lat="37.97487080097198486328125" lon="-107.74183002300560474395751953125">
        <ele>3187.800048828125</ele>
        <time>2026-08-15T19:20:46.000Z</time>
        <extensions>
          <ns3:TrackPointExtension>
            <ns3:hr>117</ns3:hr>
            <ns3:cad>49</ns3:cad>
          </ns3:TrackPointExtension>
        </extensions>
      </trkpt>
      <trkpt lat="37.97487826086580753326416015625" lon="-107.741854079067707061767578125">
        <ele>3188</ele>
        <time>2026-08-15T19:20:48.000Z</time>
        <extensions>
          <ns3:TrackPointExtension>
            <ns3:hr>118</ns3:hr>
            <ns3:cad>46</ns3:cad>
          </ns3:TrackPointExtension>
        </extensions>
      </trkpt>
      <trkpt lat="37.9748914204537868499755859375" lon="-107.74188417010009288787841796875">
        <ele>3188.60009765625</ele>
        <time>2026-08-15T19:20:51.000Z</time>
        <extensions>
          <ns3:TrackPointExtension>
            <ns3:hr>118</ns3:hr>
            <ns3:cad>46</ns3:cad>
          </ns3:TrackPointExtension>
        </extensions>
      </trkpt>
      <trkpt lat="37.97490810044109821319580078125" lon="-107.74191484786570072174072265625">
        <ele>3189.199951171875</ele>
        <time>2026-08-15T19:20:54.000Z</time>
        <extensions>
          <ns3:TrackPointExtension>
            <ns3:hr>118</ns3:hr>
            <ns3:cad>47</ns3:cad>
          </ns3:TrackPointExtension>
        </extensions>
      </trkpt>
      <trkpt lat="37.97491916455328464508056640625" lon="-107.74193127639591693878173828125">
        <ele>3189.199951171875</ele>
        <time>2026-08-15T19:20:56.000Z</time>
        <extensions>
          <ns3:TrackPointExtension>
            <ns3:hr>118</ns3:hr>
            <ns3:cad>49</ns3:cad>
          </ns3:TrackPointExtension>
        </extensions>
      </trkpt>
      <trkpt lat="37.9749464057385921478271484375" lon="-107.7420010976493358612060546875">
        <ele>3189.60009765625</ele>
        <time>2026-08-15T19:21:02.000Z</time>
        <extensions>
          <ns3:TrackPointExtension>
            <ns3:hr>119</ns3:hr>
            <ns3:cad>46</ns3:cad>
          </ns3:TrackPointExtension>
        </extensions>
      </trkpt>
      <trkpt lat="37.97496710903942584991455078125" lon="-107.7420383132994174957275390625">
        <ele>3190</ele>
        <time>2026-08-15T19:21:07.000Z</time>
        <extensions>
          <ns3:TrackPointExtension>
            <ns3:hr>118</ns3:hr>
            <ns3:cad>49</ns3:cad>
          </ns3:TrackPointExtension>
        </extensions>
      </trkpt>
      <trkpt lat="37.9749762453138828277587890625" lon="-107.74204493500292301177978515625">
        <ele>3190.199951171875</ele>
        <time>2026-08-15T19:21:08.000Z</time>
        <extensions>
          <ns3:TrackPointExtension>
            <ns3:hr>119</ns3:hr>
            <ns3:cad>49</ns3:cad>
          </ns3:TrackPointExtension>
        </extensions>
      </trkpt>
      <trkpt lat="37.97500298358500003814697265625" lon="-107.74209044873714447021484375">
        <ele>3191</ele>
        <time>2026-08-15T19:21:13.000Z</time>
        <extensions>
          <ns3:TrackPointExtension>
            <ns3:hr>118</ns3:hr>
            <ns3:cad>47</ns3:cad>
          </ns3:TrackPointExtension>
        </extensions>
      </trkpt>
      <trkpt lat="37.97503952868282794952392578125" lon="-107.74214954115450382232666015625">
        <ele>3191.199951171875</ele>
        <time>2026-08-15T19:21:19.000Z</time>
        <extensions>
          <ns3:TrackPointExtension>
            <ns3:hr>119</ns3:hr>
            <ns3:cad>48</ns3:cad>
          </ns3:TrackPointExtension>
        </extensions>
      </trkpt>
      <trkpt lat="37.9750412888824939727783203125" lon="-107.74215624667704105377197265625">
        <ele>3191.199951171875</ele>
        <time>2026-08-15T19:21:20.000Z</time>
        <extensions>
          <ns3:TrackPointExtension>
            <ns3:hr>119</ns3:hr>
            <ns3:cad>48</ns3:cad>
          </ns3:TrackPointExtension>
        </extensions>
      </trkpt>
      <trkpt lat="37.9750429652631282806396484375" lon="-107.7421623654663562774658203125">
        <ele>3191.199951171875</ele>
        <time>2026-08-15T19:21:21.000Z</time>
        <extensions>
          <ns3:TrackPointExtension>
            <ns3:hr>119</ns3:hr>
            <ns3:cad>0</ns3:cad>
          </ns3:TrackPointExtension>
        </extensions>
      </trkpt>
    </trkseg>
  </trk>
</gpx>
